<?xml version="1.0" encoding="UTF-8" standalone="no" ?>
<gpx xmlns="http://www.topografix.com/GPX/1/1" xmlns:xsi="http://www.w3.org/2001/XMLSchema-instance" xsi:schemaLocation="http://www.topografix.com/GPX/1/1 http://www.topografix.com/GPX/1/1/gpx.xsd" version="1.1" creator="VisuGPX - https://www.visugpx.com">
  <metadata>
    <name>Champagnat Cyclisme sur route</name>
  </metadata>
  <trk>
    <name><![CDATA[Champagnat Cyclisme sur route_1]]></name>
    <trkseg>
      <trkpt lat="46.48274" lon="5.3684">
        <ele>264</ele>
        <time>2022-06-18T04:03:48Z</time>
      </trkpt>
      <trkpt lat="46.48263" lon="5.36825">
        <ele>263.4</ele>
        <time>2022-06-18T04:03:49Z</time>
      </trkpt>
      <trkpt lat="46.48253" lon="5.36814">
        <ele>262.2</ele>
        <time>2022-06-18T04:03:50Z</time>
      </trkpt>
      <trkpt lat="46.4823" lon="5.36794">
        <ele>261</ele>
        <time>2022-06-18T04:03:52Z</time>
      </trkpt>
      <trkpt lat="46.48219" lon="5.36785">
        <ele>259.2</ele>
        <time>2022-06-18T04:03:53Z</time>
      </trkpt>
      <trkpt lat="46.48197" lon="5.36767">
        <ele>257</ele>
        <time>2022-06-18T04:03:55Z</time>
      </trkpt>
      <trkpt lat="46.48175" lon="5.36749">
        <ele>256</ele>
        <time>2022-06-18T04:03:57Z</time>
      </trkpt>
      <trkpt lat="46.48164" lon="5.36741">
        <ele>254.6</ele>
        <time>2022-06-18T04:03:58Z</time>
      </trkpt>
      <trkpt lat="46.48143" lon="5.36725">
        <ele>253.2</ele>
        <time>2022-06-18T04:04:00Z</time>
      </trkpt>
      <trkpt lat="46.48134" lon="5.36718">
        <ele>252.8</ele>
        <time>2022-06-18T04:04:01Z</time>
      </trkpt>
      <trkpt lat="46.48125" lon="5.36712">
        <ele>252</ele>
        <time>2022-06-18T04:04:02Z</time>
      </trkpt>
      <trkpt lat="46.48119" lon="5.36706">
        <ele>251.6</ele>
        <time>2022-06-18T04:04:03Z</time>
      </trkpt>
      <trkpt lat="46.48113" lon="5.367">
        <ele>250.8</ele>
        <time>2022-06-18T04:04:04Z</time>
      </trkpt>
      <trkpt lat="46.48111" lon="5.36692">
        <ele>250.6</ele>
        <time>2022-06-18T04:04:05Z</time>
      </trkpt>
      <trkpt lat="46.48112" lon="5.36683">
        <ele>250.2</ele>
        <time>2022-06-18T04:04:06Z</time>
      </trkpt>
      <trkpt lat="46.48115" lon="5.36675">
        <ele>249.8</ele>
        <time>2022-06-18T04:04:07Z</time>
      </trkpt>
      <trkpt lat="46.48119" lon="5.36668">
        <ele>249.8</ele>
        <time>2022-06-18T04:04:08Z</time>
      </trkpt>
      <trkpt lat="46.48125" lon="5.36662">
        <ele>249.6</ele>
        <time>2022-06-18T04:04:09Z</time>
      </trkpt>
      <trkpt lat="46.48145" lon="5.36643">
        <ele>249</ele>
        <time>2022-06-18T04:04:12Z</time>
      </trkpt>
      <trkpt lat="46.48151" lon="5.36636">
        <ele>248.8</ele>
        <time>2022-06-18T04:04:13Z</time>
      </trkpt>
      <trkpt lat="46.48156" lon="5.36628">
        <ele>248.2</ele>
        <time>2022-06-18T04:04:14Z</time>
      </trkpt>
      <trkpt lat="46.48169" lon="5.36614">
        <ele>247.8</ele>
        <time>2022-06-18T04:04:16Z</time>
      </trkpt>
      <trkpt lat="46.48185" lon="5.36607">
        <ele>247.4</ele>
        <time>2022-06-18T04:04:18Z</time>
      </trkpt>
      <trkpt lat="46.48201" lon="5.36601">
        <ele>247.2</ele>
        <time>2022-06-18T04:04:20Z</time>
      </trkpt>
      <trkpt lat="46.48209" lon="5.36598">
        <ele>246.8</ele>
        <time>2022-06-18T04:04:21Z</time>
      </trkpt>
      <trkpt lat="46.48215" lon="5.36593">
        <ele>246.8</ele>
        <time>2022-06-18T04:04:22Z</time>
      </trkpt>
      <trkpt lat="46.4822" lon="5.36585">
        <ele>246.6</ele>
        <time>2022-06-18T04:04:23Z</time>
      </trkpt>
      <trkpt lat="46.4822" lon="5.36585">
        <ele>246.4</ele>
        <time>2022-06-18T04:04:24Z</time>
      </trkpt>
      <trkpt lat="46.4823" lon="5.36557">
        <ele>246.4</ele>
        <time>2022-06-18T04:04:26Z</time>
      </trkpt>
      <trkpt lat="46.48236" lon="5.3655">
        <ele>246</ele>
        <time>2022-06-18T04:04:28Z</time>
      </trkpt>
      <trkpt lat="46.48266" lon="5.36516">
        <ele>245.4</ele>
        <time>2022-06-18T04:04:32Z</time>
      </trkpt>
      <trkpt lat="46.48284" lon="5.36494">
        <ele>244.8</ele>
        <time>2022-06-18T04:04:35Z</time>
      </trkpt>
      <trkpt lat="46.48297" lon="5.3648">
        <ele>244.4</ele>
        <time>2022-06-18T04:04:37Z</time>
      </trkpt>
      <trkpt lat="46.48316" lon="5.36458">
        <ele>243.8</ele>
        <time>2022-06-18T04:04:40Z</time>
      </trkpt>
      <trkpt lat="46.4835" lon="5.36421">
        <ele>243</ele>
        <time>2022-06-18T04:04:45Z</time>
      </trkpt>
      <trkpt lat="46.48371" lon="5.36399">
        <ele>242.4</ele>
        <time>2022-06-18T04:04:48Z</time>
      </trkpt>
      <trkpt lat="46.48391" lon="5.36376">
        <ele>241</ele>
        <time>2022-06-18T04:04:51Z</time>
      </trkpt>
      <trkpt lat="46.48413" lon="5.36358">
        <ele>240.4</ele>
        <time>2022-06-18T04:04:54Z</time>
      </trkpt>
      <trkpt lat="46.4842" lon="5.36354">
        <ele>240</ele>
        <time>2022-06-18T04:04:55Z</time>
      </trkpt>
      <trkpt lat="46.48428" lon="5.36351">
        <ele>239.8</ele>
        <time>2022-06-18T04:04:56Z</time>
      </trkpt>
      <trkpt lat="46.48444" lon="5.36346">
        <ele>239.6</ele>
        <time>2022-06-18T04:04:58Z</time>
      </trkpt>
      <trkpt lat="46.48497" lon="5.36338">
        <ele>239.2</ele>
        <time>2022-06-18T04:05:05Z</time>
      </trkpt>
      <trkpt lat="46.48548" lon="5.36328">
        <ele>239</ele>
        <time>2022-06-18T04:05:12Z</time>
      </trkpt>
      <trkpt lat="46.48562" lon="5.36325">
        <ele>239</ele>
        <time>2022-06-18T04:05:14Z</time>
      </trkpt>
      <trkpt lat="46.48593" lon="5.36321">
        <ele>238.6</ele>
        <time>2022-06-18T04:05:18Z</time>
      </trkpt>
      <trkpt lat="46.4861" lon="5.36319">
        <ele>238.4</ele>
        <time>2022-06-18T04:05:20Z</time>
      </trkpt>
      <trkpt lat="46.48625" lon="5.36308">
        <ele>238</ele>
        <time>2022-06-18T04:05:22Z</time>
      </trkpt>
      <trkpt lat="46.48631" lon="5.36298">
        <ele>237.8</ele>
        <time>2022-06-18T04:05:23Z</time>
      </trkpt>
      <trkpt lat="46.48635" lon="5.36287">
        <ele>237.4</ele>
        <time>2022-06-18T04:05:24Z</time>
      </trkpt>
      <trkpt lat="46.48639" lon="5.36261">
        <ele>236</ele>
        <time>2022-06-18T04:05:26Z</time>
      </trkpt>
      <trkpt lat="46.48641" lon="5.36234">
        <ele>235.2</ele>
        <time>2022-06-18T04:05:28Z</time>
      </trkpt>
      <trkpt lat="46.48643" lon="5.36221">
        <ele>234.8</ele>
        <time>2022-06-18T04:05:29Z</time>
      </trkpt>
      <trkpt lat="46.48645" lon="5.36182">
        <ele>233.2</ele>
        <time>2022-06-18T04:05:32Z</time>
      </trkpt>
      <trkpt lat="46.48648" lon="5.36144">
        <ele>232.2</ele>
        <time>2022-06-18T04:05:35Z</time>
      </trkpt>
      <trkpt lat="46.48648" lon="5.36144">
        <ele>232</ele>
        <time>2022-06-18T04:05:36Z</time>
      </trkpt>
      <trkpt lat="46.48661" lon="5.36074">
        <ele>231.4</ele>
        <time>2022-06-18T04:05:41Z</time>
      </trkpt>
      <trkpt lat="46.4867" lon="5.36035">
        <ele>231.4</ele>
        <time>2022-06-18T04:05:45Z</time>
      </trkpt>
      <trkpt lat="46.4867" lon="5.36035">
        <ele>231.6</ele>
        <time>2022-06-18T04:05:46Z</time>
      </trkpt>
      <trkpt lat="46.48679" lon="5.35983">
        <ele>232.8</ele>
        <time>2022-06-18T04:05:51Z</time>
      </trkpt>
      <trkpt lat="46.4868" lon="5.35974">
        <ele>233.4</ele>
        <time>2022-06-18T04:05:53Z</time>
      </trkpt>
      <trkpt lat="46.48688" lon="5.35917">
        <ele>234.4</ele>
        <time>2022-06-18T04:05:58Z</time>
      </trkpt>
      <trkpt lat="46.48707" lon="5.35862">
        <ele>234</ele>
        <time>2022-06-18T04:06:04Z</time>
      </trkpt>
      <trkpt lat="46.48732" lon="5.35799">
        <ele>232.2</ele>
        <time>2022-06-18T04:06:11Z</time>
      </trkpt>
      <trkpt lat="46.48736" lon="5.3579">
        <ele>232</ele>
        <time>2022-06-18T04:06:12Z</time>
      </trkpt>
      <trkpt lat="46.48756" lon="5.35747">
        <ele>231.2</ele>
        <time>2022-06-18T04:06:17Z</time>
      </trkpt>
      <trkpt lat="46.48765" lon="5.35729">
        <ele>230.8</ele>
        <time>2022-06-18T04:06:19Z</time>
      </trkpt>
      <trkpt lat="46.48787" lon="5.35679">
        <ele>230.2</ele>
        <time>2022-06-18T04:06:25Z</time>
      </trkpt>
      <trkpt lat="46.4881" lon="5.35623">
        <ele>230.4</ele>
        <time>2022-06-18T04:06:32Z</time>
      </trkpt>
      <trkpt lat="46.48834" lon="5.35569">
        <ele>230.8</ele>
        <time>2022-06-18T04:06:39Z</time>
      </trkpt>
      <trkpt lat="46.48838" lon="5.35562">
        <ele>230.8</ele>
        <time>2022-06-18T04:06:40Z</time>
      </trkpt>
      <trkpt lat="46.48855" lon="5.35526">
        <ele>231</ele>
        <time>2022-06-18T04:06:45Z</time>
      </trkpt>
      <trkpt lat="46.48882" lon="5.35464">
        <ele>231.2</ele>
        <time>2022-06-18T04:06:53Z</time>
      </trkpt>
      <trkpt lat="46.48914" lon="5.35392">
        <ele>230.8</ele>
        <time>2022-06-18T04:07:02Z</time>
      </trkpt>
      <trkpt lat="46.48918" lon="5.35383">
        <ele>230.8</ele>
        <time>2022-06-18T04:07:03Z</time>
      </trkpt>
      <trkpt lat="46.48937" lon="5.35339">
        <ele>230.2</ele>
        <time>2022-06-18T04:07:08Z</time>
      </trkpt>
      <trkpt lat="46.48946" lon="5.35322">
        <ele>229.8</ele>
        <time>2022-06-18T04:07:10Z</time>
      </trkpt>
      <trkpt lat="46.48967" lon="5.35273">
        <ele>229.2</ele>
        <time>2022-06-18T04:07:17Z</time>
      </trkpt>
      <trkpt lat="46.48973" lon="5.35258">
        <ele>229.4</ele>
        <time>2022-06-18T04:07:18Z</time>
      </trkpt>
      <trkpt lat="46.4899" lon="5.35219">
        <ele>229.4</ele>
        <time>2022-06-18T04:07:23Z</time>
      </trkpt>
      <trkpt lat="46.48992" lon="5.35212">
        <ele>229.6</ele>
        <time>2022-06-18T04:07:24Z</time>
      </trkpt>
      <trkpt lat="46.49003" lon="5.35183">
        <ele>230</ele>
        <time>2022-06-18T04:07:28Z</time>
      </trkpt>
      <trkpt lat="46.49016" lon="5.35157">
        <ele>230.8</ele>
        <time>2022-06-18T04:07:32Z</time>
      </trkpt>
      <trkpt lat="46.49023" lon="5.35142">
        <ele>231</ele>
        <time>2022-06-18T04:07:34Z</time>
      </trkpt>
      <trkpt lat="46.49027" lon="5.35134">
        <ele>231.2</ele>
        <time>2022-06-18T04:07:35Z</time>
      </trkpt>
      <trkpt lat="46.49033" lon="5.35117">
        <ele>231.4</ele>
        <time>2022-06-18T04:07:37Z</time>
      </trkpt>
      <trkpt lat="46.49036" lon="5.35109">
        <ele>231.4</ele>
        <time>2022-06-18T04:07:38Z</time>
      </trkpt>
      <trkpt lat="46.49053" lon="5.35033">
        <ele>231.2</ele>
        <time>2022-06-18T04:07:46Z</time>
      </trkpt>
      <trkpt lat="46.49064" lon="5.34979">
        <ele>230.6</ele>
        <time>2022-06-18T04:07:51Z</time>
      </trkpt>
      <trkpt lat="46.49072" lon="5.34935">
        <ele>229.8</ele>
        <time>2022-06-18T04:07:55Z</time>
      </trkpt>
      <trkpt lat="46.49079" lon="5.34901">
        <ele>228.8</ele>
        <time>2022-06-18T04:07:58Z</time>
      </trkpt>
      <trkpt lat="46.49092" lon="5.34833">
        <ele>227.8</ele>
        <time>2022-06-18T04:08:04Z</time>
      </trkpt>
      <trkpt lat="46.49101" lon="5.34787">
        <ele>227</ele>
        <time>2022-06-18T04:08:08Z</time>
      </trkpt>
      <trkpt lat="46.49106" lon="5.34765">
        <ele>226.6</ele>
        <time>2022-06-18T04:08:10Z</time>
      </trkpt>
      <trkpt lat="46.49118" lon="5.34695">
        <ele>225.6</ele>
        <time>2022-06-18T04:08:16Z</time>
      </trkpt>
      <trkpt lat="46.49122" lon="5.34672">
        <ele>225.4</ele>
        <time>2022-06-18T04:08:18Z</time>
      </trkpt>
      <trkpt lat="46.49132" lon="5.34621">
        <ele>224.6</ele>
        <time>2022-06-18T04:08:23Z</time>
      </trkpt>
      <trkpt lat="46.49134" lon="5.34604">
        <ele>224.8</ele>
        <time>2022-06-18T04:08:25Z</time>
      </trkpt>
      <trkpt lat="46.49138" lon="5.34587">
        <ele>225</ele>
        <time>2022-06-18T04:08:27Z</time>
      </trkpt>
      <trkpt lat="46.49149" lon="5.34528">
        <ele>226.2</ele>
        <time>2022-06-18T04:08:33Z</time>
      </trkpt>
      <trkpt lat="46.49165" lon="5.3445">
        <ele>225.6</ele>
        <time>2022-06-18T04:08:40Z</time>
      </trkpt>
      <trkpt lat="46.49179" lon="5.3438">
        <ele>225</ele>
        <time>2022-06-18T04:08:47Z</time>
      </trkpt>
      <trkpt lat="46.49183" lon="5.34364">
        <ele>225.2</ele>
        <time>2022-06-18T04:08:49Z</time>
      </trkpt>
      <trkpt lat="46.49187" lon="5.34349">
        <ele>225.6</ele>
        <time>2022-06-18T04:08:51Z</time>
      </trkpt>
      <trkpt lat="46.49189" lon="5.34341">
        <ele>225.8</ele>
        <time>2022-06-18T04:08:52Z</time>
      </trkpt>
      <trkpt lat="46.49196" lon="5.34297">
        <ele>226.8</ele>
        <time>2022-06-18T04:08:57Z</time>
      </trkpt>
      <trkpt lat="46.49198" lon="5.34286">
        <ele>226.8</ele>
        <time>2022-06-18T04:08:58Z</time>
      </trkpt>
      <trkpt lat="46.49206" lon="5.34242">
        <ele>226.4</ele>
        <time>2022-06-18T04:09:02Z</time>
      </trkpt>
      <trkpt lat="46.49212" lon="5.34208">
        <ele>226</ele>
        <time>2022-06-18T04:09:05Z</time>
      </trkpt>
      <trkpt lat="46.49225" lon="5.34136">
        <ele>225.6</ele>
        <time>2022-06-18T04:09:12Z</time>
      </trkpt>
      <trkpt lat="46.49228" lon="5.34117">
        <ele>225.6</ele>
        <time>2022-06-18T04:09:14Z</time>
      </trkpt>
      <trkpt lat="46.49237" lon="5.34071">
        <ele>226.6</ele>
        <time>2022-06-18T04:09:20Z</time>
      </trkpt>
      <trkpt lat="46.49238" lon="5.34064">
        <ele>227</ele>
        <time>2022-06-18T04:09:21Z</time>
      </trkpt>
      <trkpt lat="46.49245" lon="5.34026">
        <ele>228.2</ele>
        <time>2022-06-18T04:09:26Z</time>
      </trkpt>
      <trkpt lat="46.4925" lon="5.33999">
        <ele>228.8</ele>
        <time>2022-06-18T04:09:29Z</time>
      </trkpt>
      <trkpt lat="46.49259" lon="5.33955">
        <ele>229</ele>
        <time>2022-06-18T04:09:34Z</time>
      </trkpt>
      <trkpt lat="46.49268" lon="5.3391">
        <ele>228.8</ele>
        <time>2022-06-18T04:09:39Z</time>
      </trkpt>
      <trkpt lat="46.49284" lon="5.33829">
        <ele>228.8</ele>
        <time>2022-06-18T04:09:48Z</time>
      </trkpt>
      <trkpt lat="46.49299" lon="5.33754">
        <ele>228.8</ele>
        <time>2022-06-18T04:09:56Z</time>
      </trkpt>
      <trkpt lat="46.49302" lon="5.33733">
        <ele>228.8</ele>
        <time>2022-06-18T04:09:58Z</time>
      </trkpt>
      <trkpt lat="46.49306" lon="5.33659">
        <ele>228.2</ele>
        <time>2022-06-18T04:10:05Z</time>
      </trkpt>
      <trkpt lat="46.49307" lon="5.33638">
        <ele>228</ele>
        <time>2022-06-18T04:10:07Z</time>
      </trkpt>
      <trkpt lat="46.49312" lon="5.33597">
        <ele>227.6</ele>
        <time>2022-06-18T04:10:11Z</time>
      </trkpt>
      <trkpt lat="46.4932" lon="5.33547">
        <ele>227</ele>
        <time>2022-06-18T04:10:16Z</time>
      </trkpt>
      <trkpt lat="46.4932" lon="5.33527">
        <ele>227</ele>
        <time>2022-06-18T04:10:18Z</time>
      </trkpt>
      <trkpt lat="46.49311" lon="5.3346">
        <ele>227</ele>
        <time>2022-06-18T04:10:25Z</time>
      </trkpt>
      <trkpt lat="46.49308" lon="5.33441">
        <ele>227</ele>
        <time>2022-06-18T04:10:27Z</time>
      </trkpt>
      <trkpt lat="46.49296" lon="5.33384">
        <ele>227</ele>
        <time>2022-06-18T04:10:33Z</time>
      </trkpt>
      <trkpt lat="46.49294" lon="5.33374">
        <ele>226.8</ele>
        <time>2022-06-18T04:10:34Z</time>
      </trkpt>
      <trkpt lat="46.49279" lon="5.33292">
        <ele>225.8</ele>
        <time>2022-06-18T04:10:42Z</time>
      </trkpt>
      <trkpt lat="46.49277" lon="5.33282">
        <ele>225.6</ele>
        <time>2022-06-18T04:10:43Z</time>
      </trkpt>
      <trkpt lat="46.49259" lon="5.33215">
        <ele>224.8</ele>
        <time>2022-06-18T04:10:50Z</time>
      </trkpt>
      <trkpt lat="46.49254" lon="5.33206">
        <ele>224.6</ele>
        <time>2022-06-18T04:10:51Z</time>
      </trkpt>
      <trkpt lat="46.4925" lon="5.33198">
        <ele>224.6</ele>
        <time>2022-06-18T04:10:52Z</time>
      </trkpt>
      <trkpt lat="46.49244" lon="5.33191">
        <ele>224.6</ele>
        <time>2022-06-18T04:10:53Z</time>
      </trkpt>
      <trkpt lat="46.49239" lon="5.33185">
        <ele>224.4</ele>
        <time>2022-06-18T04:10:54Z</time>
      </trkpt>
      <trkpt lat="46.49213" lon="5.33166">
        <ele>223.4</ele>
        <time>2022-06-18T04:10:58Z</time>
      </trkpt>
      <trkpt lat="46.49193" lon="5.33149">
        <ele>223.2</ele>
        <time>2022-06-18T04:11:01Z</time>
      </trkpt>
      <trkpt lat="46.49169" lon="5.33124">
        <ele>222.8</ele>
        <time>2022-06-18T04:11:05Z</time>
      </trkpt>
      <trkpt lat="46.49159" lon="5.33109">
        <ele>222.2</ele>
        <time>2022-06-18T04:11:07Z</time>
      </trkpt>
      <trkpt lat="46.49148" lon="5.33083">
        <ele>222</ele>
        <time>2022-06-18T04:11:10Z</time>
      </trkpt>
      <trkpt lat="46.49142" lon="5.33066">
        <ele>222</ele>
        <time>2022-06-18T04:11:12Z</time>
      </trkpt>
      <trkpt lat="46.49137" lon="5.33048">
        <ele>222</ele>
        <time>2022-06-18T04:11:14Z</time>
      </trkpt>
      <trkpt lat="46.49132" lon="5.3302">
        <ele>222.2</ele>
        <time>2022-06-18T04:11:17Z</time>
      </trkpt>
      <trkpt lat="46.4913" lon="5.33011">
        <ele>222.4</ele>
        <time>2022-06-18T04:11:18Z</time>
      </trkpt>
      <trkpt lat="46.49125" lon="5.32974">
        <ele>222.2</ele>
        <time>2022-06-18T04:11:23Z</time>
      </trkpt>
      <trkpt lat="46.49124" lon="5.32954">
        <ele>222.2</ele>
        <time>2022-06-18T04:11:24Z</time>
      </trkpt>
      <trkpt lat="46.49123" lon="5.32913">
        <ele>221.2</ele>
        <time>2022-06-18T04:11:28Z</time>
      </trkpt>
      <trkpt lat="46.49123" lon="5.32913">
        <ele>221</ele>
        <time>2022-06-18T04:11:29Z</time>
      </trkpt>
      <trkpt lat="46.49124" lon="5.32894">
        <ele>221</ele>
        <time>2022-06-18T04:11:30Z</time>
      </trkpt>
      <trkpt lat="46.49132" lon="5.32864">
        <ele>220.8</ele>
        <time>2022-06-18T04:11:33Z</time>
      </trkpt>
      <trkpt lat="46.49142" lon="5.32826">
        <ele>220.8</ele>
        <time>2022-06-18T04:11:37Z</time>
      </trkpt>
      <trkpt lat="46.49144" lon="5.32806">
        <ele>220.8</ele>
        <time>2022-06-18T04:11:39Z</time>
      </trkpt>
      <trkpt lat="46.49143" lon="5.32787">
        <ele>220.8</ele>
        <time>2022-06-18T04:11:41Z</time>
      </trkpt>
      <trkpt lat="46.49138" lon="5.3276">
        <ele>221</ele>
        <time>2022-06-18T04:11:44Z</time>
      </trkpt>
      <trkpt lat="46.49131" lon="5.32725">
        <ele>221.4</ele>
        <time>2022-06-18T04:11:48Z</time>
      </trkpt>
      <trkpt lat="46.49123" lon="5.32708">
        <ele>221.6</ele>
        <time>2022-06-18T04:11:50Z</time>
      </trkpt>
      <trkpt lat="46.49113" lon="5.32696">
        <ele>221.6</ele>
        <time>2022-06-18T04:11:52Z</time>
      </trkpt>
      <trkpt lat="46.49107" lon="5.32693">
        <ele>221.6</ele>
        <time>2022-06-18T04:11:53Z</time>
      </trkpt>
      <trkpt lat="46.491" lon="5.32691">
        <ele>221.6</ele>
        <time>2022-06-18T04:11:54Z</time>
      </trkpt>
      <trkpt lat="46.49077" lon="5.32695">
        <ele>221.2</ele>
        <time>2022-06-18T04:11:57Z</time>
      </trkpt>
      <trkpt lat="46.49044" lon="5.32703">
        <ele>220.2</ele>
        <time>2022-06-18T04:12:01Z</time>
      </trkpt>
      <trkpt lat="46.49018" lon="5.32707">
        <ele>218.8</ele>
        <time>2022-06-18T04:12:04Z</time>
      </trkpt>
      <trkpt lat="46.4899" lon="5.3271">
        <ele>217.4</ele>
        <time>2022-06-18T04:12:07Z</time>
      </trkpt>
      <trkpt lat="46.4898" lon="5.32709">
        <ele>217</ele>
        <time>2022-06-18T04:12:08Z</time>
      </trkpt>
      <trkpt lat="46.48971" lon="5.32707">
        <ele>216.4</ele>
        <time>2022-06-18T04:12:09Z</time>
      </trkpt>
      <trkpt lat="46.48962" lon="5.32702">
        <ele>216</ele>
        <time>2022-06-18T04:12:10Z</time>
      </trkpt>
      <trkpt lat="46.48945" lon="5.32691">
        <ele>214.8</ele>
        <time>2022-06-18T04:12:12Z</time>
      </trkpt>
      <trkpt lat="46.48938" lon="5.32683">
        <ele>214.2</ele>
        <time>2022-06-18T04:12:13Z</time>
      </trkpt>
      <trkpt lat="46.48932" lon="5.32672">
        <ele>213.4</ele>
        <time>2022-06-18T04:12:14Z</time>
      </trkpt>
      <trkpt lat="46.48925" lon="5.32661">
        <ele>213</ele>
        <time>2022-06-18T04:12:15Z</time>
      </trkpt>
      <trkpt lat="46.4892" lon="5.32648">
        <ele>212.4</ele>
        <time>2022-06-18T04:12:16Z</time>
      </trkpt>
      <trkpt lat="46.48917" lon="5.32634">
        <ele>212</ele>
        <time>2022-06-18T04:12:17Z</time>
      </trkpt>
      <trkpt lat="46.48917" lon="5.32619">
        <ele>211.2</ele>
        <time>2022-06-18T04:12:18Z</time>
      </trkpt>
      <trkpt lat="46.4892" lon="5.32606">
        <ele>210.8</ele>
        <time>2022-06-18T04:12:19Z</time>
      </trkpt>
      <trkpt lat="46.48927" lon="5.32594">
        <ele>209.6</ele>
        <time>2022-06-18T04:12:20Z</time>
      </trkpt>
      <trkpt lat="46.48935" lon="5.32584">
        <ele>209</ele>
        <time>2022-06-18T04:12:21Z</time>
      </trkpt>
      <trkpt lat="46.48943" lon="5.32573">
        <ele>208.4</ele>
        <time>2022-06-18T04:12:22Z</time>
      </trkpt>
      <trkpt lat="46.4895" lon="5.32562">
        <ele>207.8</ele>
        <time>2022-06-18T04:12:23Z</time>
      </trkpt>
      <trkpt lat="46.48958" lon="5.32538">
        <ele>206.6</ele>
        <time>2022-06-18T04:12:25Z</time>
      </trkpt>
      <trkpt lat="46.48955" lon="5.32512">
        <ele>205.8</ele>
        <time>2022-06-18T04:12:27Z</time>
      </trkpt>
      <trkpt lat="46.48951" lon="5.325">
        <ele>205.4</ele>
        <time>2022-06-18T04:12:28Z</time>
      </trkpt>
      <trkpt lat="46.48944" lon="5.32476">
        <ele>204.2</ele>
        <time>2022-06-18T04:12:30Z</time>
      </trkpt>
      <trkpt lat="46.48935" lon="5.32444">
        <ele>203.8</ele>
        <time>2022-06-18T04:12:33Z</time>
      </trkpt>
      <trkpt lat="46.48913" lon="5.3237">
        <ele>203.8</ele>
        <time>2022-06-18T04:12:40Z</time>
      </trkpt>
      <trkpt lat="46.48903" lon="5.32342">
        <ele>204</ele>
        <time>2022-06-18T04:12:43Z</time>
      </trkpt>
      <trkpt lat="46.48898" lon="5.32334">
        <ele>204.2</ele>
        <time>2022-06-18T04:12:44Z</time>
      </trkpt>
      <trkpt lat="46.48883" lon="5.32309">
        <ele>204.6</ele>
        <time>2022-06-18T04:12:48Z</time>
      </trkpt>
      <trkpt lat="46.48872" lon="5.32292">
        <ele>205.4</ele>
        <time>2022-06-18T04:12:51Z</time>
      </trkpt>
      <trkpt lat="46.48865" lon="5.32282">
        <ele>206.6</ele>
        <time>2022-06-18T04:12:53Z</time>
      </trkpt>
      <trkpt lat="46.48859" lon="5.32273">
        <ele>207.2</ele>
        <time>2022-06-18T04:12:55Z</time>
      </trkpt>
      <trkpt lat="46.48856" lon="5.32269">
        <ele>207.4</ele>
        <time>2022-06-18T04:12:56Z</time>
      </trkpt>
      <trkpt lat="46.48853" lon="5.32264">
        <ele>208.4</ele>
        <time>2022-06-18T04:12:57Z</time>
      </trkpt>
      <trkpt lat="46.48847" lon="5.32255">
        <ele>209.4</ele>
        <time>2022-06-18T04:12:59Z</time>
      </trkpt>
      <trkpt lat="46.48838" lon="5.32238">
        <ele>210.4</ele>
        <time>2022-06-18T04:13:02Z</time>
      </trkpt>
      <trkpt lat="46.48834" lon="5.32226">
        <ele>211.4</ele>
        <time>2022-06-18T04:13:04Z</time>
      </trkpt>
      <trkpt lat="46.48832" lon="5.32219">
        <ele>211.8</ele>
        <time>2022-06-18T04:13:05Z</time>
      </trkpt>
      <trkpt lat="46.4883" lon="5.32211">
        <ele>212.2</ele>
        <time>2022-06-18T04:13:06Z</time>
      </trkpt>
      <trkpt lat="46.48829" lon="5.32203">
        <ele>212.4</ele>
        <time>2022-06-18T04:13:07Z</time>
      </trkpt>
      <trkpt lat="46.48827" lon="5.32185">
        <ele>212.6</ele>
        <time>2022-06-18T04:13:09Z</time>
      </trkpt>
      <trkpt lat="46.48824" lon="5.32145">
        <ele>212.4</ele>
        <time>2022-06-18T04:13:13Z</time>
      </trkpt>
      <trkpt lat="46.48824" lon="5.32134">
        <ele>212.4</ele>
        <time>2022-06-18T04:13:14Z</time>
      </trkpt>
      <trkpt lat="46.48829" lon="5.32102">
        <ele>211.4</ele>
        <time>2022-06-18T04:13:17Z</time>
      </trkpt>
      <trkpt lat="46.48835" lon="5.32071">
        <ele>210.4</ele>
        <time>2022-06-18T04:13:20Z</time>
      </trkpt>
      <trkpt lat="46.48845" lon="5.32017">
        <ele>209.4</ele>
        <time>2022-06-18T04:13:25Z</time>
      </trkpt>
      <trkpt lat="46.48847" lon="5.31998">
        <ele>209.2</ele>
        <time>2022-06-18T04:13:27Z</time>
      </trkpt>
      <trkpt lat="46.48848" lon="5.31963">
        <ele>208.8</ele>
        <time>2022-06-18T04:13:30Z</time>
      </trkpt>
      <trkpt lat="46.48845" lon="5.31921">
        <ele>208.2</ele>
        <time>2022-06-18T04:13:34Z</time>
      </trkpt>
      <trkpt lat="46.48838" lon="5.31877">
        <ele>207.2</ele>
        <time>2022-06-18T04:13:38Z</time>
      </trkpt>
      <trkpt lat="46.48829" lon="5.3186">
        <ele>207.2</ele>
        <time>2022-06-18T04:13:40Z</time>
      </trkpt>
      <trkpt lat="46.48823" lon="5.31854">
        <ele>207</ele>
        <time>2022-06-18T04:13:41Z</time>
      </trkpt>
      <trkpt lat="46.48816" lon="5.31849">
        <ele>207</ele>
        <time>2022-06-18T04:13:42Z</time>
      </trkpt>
      <trkpt lat="46.48801" lon="5.31843">
        <ele>206.6</ele>
        <time>2022-06-18T04:13:44Z</time>
      </trkpt>
      <trkpt lat="46.48794" lon="5.31839">
        <ele>206.4</ele>
        <time>2022-06-18T04:13:45Z</time>
      </trkpt>
      <trkpt lat="46.48788" lon="5.31832">
        <ele>206.2</ele>
        <time>2022-06-18T04:13:46Z</time>
      </trkpt>
      <trkpt lat="46.48781" lon="5.31814">
        <ele>206.2</ele>
        <time>2022-06-18T04:13:48Z</time>
      </trkpt>
      <trkpt lat="46.48779" lon="5.31775">
        <ele>206.2</ele>
        <time>2022-06-18T04:13:52Z</time>
      </trkpt>
      <trkpt lat="46.48777" lon="5.31736">
        <ele>206.4</ele>
        <time>2022-06-18T04:13:56Z</time>
      </trkpt>
      <trkpt lat="46.48772" lon="5.31718">
        <ele>206.6</ele>
        <time>2022-06-18T04:13:58Z</time>
      </trkpt>
      <trkpt lat="46.48761" lon="5.31699">
        <ele>206.8</ele>
        <time>2022-06-18T04:14:01Z</time>
      </trkpt>
      <trkpt lat="46.48756" lon="5.31694">
        <ele>206.8</ele>
        <time>2022-06-18T04:14:02Z</time>
      </trkpt>
      <trkpt lat="46.48745" lon="5.31682">
        <ele>207.2</ele>
        <time>2022-06-18T04:14:04Z</time>
      </trkpt>
      <trkpt lat="46.48729" lon="5.31659">
        <ele>207.6</ele>
        <time>2022-06-18T04:14:08Z</time>
      </trkpt>
      <trkpt lat="46.48721" lon="5.31648">
        <ele>207.8</ele>
        <time>2022-06-18T04:14:10Z</time>
      </trkpt>
      <trkpt lat="46.48707" lon="5.31631">
        <ele>208</ele>
        <time>2022-06-18T04:14:13Z</time>
      </trkpt>
      <trkpt lat="46.48702" lon="5.31625">
        <ele>208</ele>
        <time>2022-06-18T04:14:14Z</time>
      </trkpt>
      <trkpt lat="46.48687" lon="5.31606">
        <ele>208</ele>
        <time>2022-06-18T04:14:17Z</time>
      </trkpt>
      <trkpt lat="46.48649" lon="5.31557">
        <ele>207.8</ele>
        <time>2022-06-18T04:14:25Z</time>
      </trkpt>
      <trkpt lat="46.48633" lon="5.31537">
        <ele>207.8</ele>
        <time>2022-06-18T04:14:29Z</time>
      </trkpt>
      <trkpt lat="46.4863" lon="5.31532">
        <ele>208</ele>
        <time>2022-06-18T04:14:30Z</time>
      </trkpt>
      <trkpt lat="46.4862" lon="5.31517">
        <ele>208</ele>
        <time>2022-06-18T04:14:32Z</time>
      </trkpt>
      <trkpt lat="46.48615" lon="5.31509">
        <ele>208</ele>
        <time>2022-06-18T04:14:33Z</time>
      </trkpt>
      <trkpt lat="46.48613" lon="5.31502">
        <ele>208</ele>
        <time>2022-06-18T04:14:34Z</time>
      </trkpt>
      <trkpt lat="46.48611" lon="5.31489">
        <ele>208</ele>
        <time>2022-06-18T04:14:36Z</time>
      </trkpt>
      <trkpt lat="46.48612" lon="5.31464">
        <ele>207.6</ele>
        <time>2022-06-18T04:14:39Z</time>
      </trkpt>
      <trkpt lat="46.48612" lon="5.31454">
        <ele>207.6</ele>
        <time>2022-06-18T04:14:40Z</time>
      </trkpt>
      <trkpt lat="46.4861" lon="5.31436">
        <ele>207.6</ele>
        <time>2022-06-18T04:14:42Z</time>
      </trkpt>
      <trkpt lat="46.48605" lon="5.31421">
        <ele>207.6</ele>
        <time>2022-06-18T04:14:44Z</time>
      </trkpt>
      <trkpt lat="46.48589" lon="5.31399">
        <ele>208</ele>
        <time>2022-06-18T04:14:48Z</time>
      </trkpt>
      <trkpt lat="46.48574" lon="5.31381">
        <ele>209</ele>
        <time>2022-06-18T04:14:52Z</time>
      </trkpt>
      <trkpt lat="46.48568" lon="5.31371">
        <ele>209.4</ele>
        <time>2022-06-18T04:14:54Z</time>
      </trkpt>
      <trkpt lat="46.48565" lon="5.31366">
        <ele>210</ele>
        <time>2022-06-18T04:14:55Z</time>
      </trkpt>
      <trkpt lat="46.48561" lon="5.31351">
        <ele>210.8</ele>
        <time>2022-06-18T04:14:58Z</time>
      </trkpt>
      <trkpt lat="46.48558" lon="5.31339">
        <ele>211.2</ele>
        <time>2022-06-18T04:15:00Z</time>
      </trkpt>
      <trkpt lat="46.48557" lon="5.31321">
        <ele>212.4</ele>
        <time>2022-06-18T04:15:03Z</time>
      </trkpt>
      <trkpt lat="46.48556" lon="5.31316">
        <ele>212.8</ele>
        <time>2022-06-18T04:15:04Z</time>
      </trkpt>
      <trkpt lat="46.48553" lon="5.31289">
        <ele>213.6</ele>
        <time>2022-06-18T04:15:08Z</time>
      </trkpt>
      <trkpt lat="46.48553" lon="5.31275">
        <ele>213.8</ele>
        <time>2022-06-18T04:15:10Z</time>
      </trkpt>
      <trkpt lat="46.48555" lon="5.3124">
        <ele>214.2</ele>
        <time>2022-06-18T04:15:15Z</time>
      </trkpt>
      <trkpt lat="46.48556" lon="5.31233">
        <ele>214.4</ele>
        <time>2022-06-18T04:15:16Z</time>
      </trkpt>
      <trkpt lat="46.4856" lon="5.3122">
        <ele>214.6</ele>
        <time>2022-06-18T04:15:18Z</time>
      </trkpt>
      <trkpt lat="46.48571" lon="5.31198">
        <ele>215</ele>
        <time>2022-06-18T04:15:22Z</time>
      </trkpt>
      <trkpt lat="46.48589" lon="5.31162">
        <ele>215.8</ele>
        <time>2022-06-18T04:15:29Z</time>
      </trkpt>
      <trkpt lat="46.48597" lon="5.31146">
        <ele>216.4</ele>
        <time>2022-06-18T04:15:32Z</time>
      </trkpt>
      <trkpt lat="46.48608" lon="5.31125">
        <ele>216.8</ele>
        <time>2022-06-18T04:15:36Z</time>
      </trkpt>
      <trkpt lat="46.48623" lon="5.31093">
        <ele>217.6</ele>
        <time>2022-06-18T04:15:42Z</time>
      </trkpt>
      <trkpt lat="46.48631" lon="5.31077">
        <ele>218</ele>
        <time>2022-06-18T04:15:45Z</time>
      </trkpt>
      <trkpt lat="46.48643" lon="5.3105">
        <ele>218.8</ele>
        <time>2022-06-18T04:15:50Z</time>
      </trkpt>
      <trkpt lat="46.48646" lon="5.31044">
        <ele>219</ele>
        <time>2022-06-18T04:15:51Z</time>
      </trkpt>
      <trkpt lat="46.48661" lon="5.31013">
        <ele>220.2</ele>
        <time>2022-06-18T04:15:57Z</time>
      </trkpt>
      <trkpt lat="46.48678" lon="5.30978">
        <ele>220.8</ele>
        <time>2022-06-18T04:16:03Z</time>
      </trkpt>
      <trkpt lat="46.48697" lon="5.30938">
        <ele>221.2</ele>
        <time>2022-06-18T04:16:09Z</time>
      </trkpt>
      <trkpt lat="46.48701" lon="5.30931">
        <ele>221.2</ele>
        <time>2022-06-18T04:16:10Z</time>
      </trkpt>
      <trkpt lat="46.48716" lon="5.30911">
        <ele>220.8</ele>
        <time>2022-06-18T04:16:13Z</time>
      </trkpt>
      <trkpt lat="46.48722" lon="5.30889">
        <ele>220.4</ele>
        <time>2022-06-18T04:16:15Z</time>
      </trkpt>
      <trkpt lat="46.4872" lon="5.30871">
        <ele>219.4</ele>
        <time>2022-06-18T04:16:17Z</time>
      </trkpt>
      <trkpt lat="46.48716" lon="5.3086">
        <ele>218.8</ele>
        <time>2022-06-18T04:16:18Z</time>
      </trkpt>
      <trkpt lat="46.4871" lon="5.30852">
        <ele>218.4</ele>
        <time>2022-06-18T04:16:19Z</time>
      </trkpt>
      <trkpt lat="46.48697" lon="5.3084">
        <ele>217.8</ele>
        <time>2022-06-18T04:16:21Z</time>
      </trkpt>
      <trkpt lat="46.4869" lon="5.30836">
        <ele>217.4</ele>
        <time>2022-06-18T04:16:22Z</time>
      </trkpt>
      <trkpt lat="46.48664" lon="5.30819">
        <ele>216.4</ele>
        <time>2022-06-18T04:16:26Z</time>
      </trkpt>
      <trkpt lat="46.48657" lon="5.30815">
        <ele>216.2</ele>
        <time>2022-06-18T04:16:27Z</time>
      </trkpt>
      <trkpt lat="46.48625" lon="5.30795">
        <ele>215.2</ele>
        <time>2022-06-18T04:16:31Z</time>
      </trkpt>
      <trkpt lat="46.48603" lon="5.30778">
        <ele>215</ele>
        <time>2022-06-18T04:16:34Z</time>
      </trkpt>
      <trkpt lat="46.4857" lon="5.30747">
        <ele>215.2</ele>
        <time>2022-06-18T04:16:40Z</time>
      </trkpt>
      <trkpt lat="46.48566" lon="5.30742">
        <ele>215.4</ele>
        <time>2022-06-18T04:16:41Z</time>
      </trkpt>
      <trkpt lat="46.48555" lon="5.30721">
        <ele>216.2</ele>
        <time>2022-06-18T04:16:44Z</time>
      </trkpt>
      <trkpt lat="46.48552" lon="5.30714">
        <ele>216.6</ele>
        <time>2022-06-18T04:16:45Z</time>
      </trkpt>
      <trkpt lat="46.48548" lon="5.307">
        <ele>216.8</ele>
        <time>2022-06-18T04:16:47Z</time>
      </trkpt>
      <trkpt lat="46.48545" lon="5.30686">
        <ele>217</ele>
        <time>2022-06-18T04:16:49Z</time>
      </trkpt>
      <trkpt lat="46.48544" lon="5.30666">
        <ele>217.6</ele>
        <time>2022-06-18T04:16:52Z</time>
      </trkpt>
      <trkpt lat="46.48544" lon="5.30653">
        <ele>218</ele>
        <time>2022-06-18T04:16:54Z</time>
      </trkpt>
      <trkpt lat="46.48546" lon="5.30633">
        <ele>218.8</ele>
        <time>2022-06-18T04:16:57Z</time>
      </trkpt>
      <trkpt lat="46.48549" lon="5.30613">
        <ele>219.4</ele>
        <time>2022-06-18T04:17:00Z</time>
      </trkpt>
      <trkpt lat="46.4855" lon="5.30607">
        <ele>220</ele>
        <time>2022-06-18T04:17:01Z</time>
      </trkpt>
      <trkpt lat="46.48552" lon="5.30588">
        <ele>220.6</ele>
        <time>2022-06-18T04:17:04Z</time>
      </trkpt>
      <trkpt lat="46.48553" lon="5.30575">
        <ele>221</ele>
        <time>2022-06-18T04:17:06Z</time>
      </trkpt>
      <trkpt lat="46.48553" lon="5.30569">
        <ele>221.2</ele>
        <time>2022-06-18T04:17:07Z</time>
      </trkpt>
      <trkpt lat="46.48554" lon="5.30563">
        <ele>221.4</ele>
        <time>2022-06-18T04:17:08Z</time>
      </trkpt>
      <trkpt lat="46.48558" lon="5.30544">
        <ele>221.8</ele>
        <time>2022-06-18T04:17:11Z</time>
      </trkpt>
      <trkpt lat="46.48559" lon="5.30537">
        <ele>221.8</ele>
        <time>2022-06-18T04:17:12Z</time>
      </trkpt>
      <trkpt lat="46.4856" lon="5.30524">
        <ele>222.2</ele>
        <time>2022-06-18T04:17:14Z</time>
      </trkpt>
      <trkpt lat="46.48561" lon="5.30505">
        <ele>222.4</ele>
        <time>2022-06-18T04:17:17Z</time>
      </trkpt>
      <trkpt lat="46.48559" lon="5.305">
        <ele>222.6</ele>
        <time>2022-06-18T04:17:18Z</time>
      </trkpt>
      <trkpt lat="46.48556" lon="5.30497">
        <ele>222.8</ele>
        <time>2022-06-18T04:17:19Z</time>
      </trkpt>
      <trkpt lat="46.48548" lon="5.30494">
        <ele>223</ele>
        <time>2022-06-18T04:17:21Z</time>
      </trkpt>
      <trkpt lat="46.48539" lon="5.30497">
        <ele>223</ele>
        <time>2022-06-18T04:17:23Z</time>
      </trkpt>
      <trkpt lat="46.4853" lon="5.30504">
        <ele>223.2</ele>
        <time>2022-06-18T04:17:25Z</time>
      </trkpt>
      <trkpt lat="46.4849" lon="5.30536">
        <ele>223.6</ele>
        <time>2022-06-18T04:17:33Z</time>
      </trkpt>
      <trkpt lat="46.48447" lon="5.30576">
        <ele>223.2</ele>
        <time>2022-06-18T04:17:41Z</time>
      </trkpt>
      <trkpt lat="46.48401" lon="5.3062">
        <ele>222.4</ele>
        <time>2022-06-18T04:17:49Z</time>
      </trkpt>
      <trkpt lat="46.48358" lon="5.30661">
        <ele>222</ele>
        <time>2022-06-18T04:17:56Z</time>
      </trkpt>
      <trkpt lat="46.48346" lon="5.30672">
        <ele>222</ele>
        <time>2022-06-18T04:17:58Z</time>
      </trkpt>
      <trkpt lat="46.48313" lon="5.30692">
        <ele>221.4</ele>
        <time>2022-06-18T04:18:03Z</time>
      </trkpt>
      <trkpt lat="46.48298" lon="5.30695">
        <ele>221</ele>
        <time>2022-06-18T04:18:05Z</time>
      </trkpt>
      <trkpt lat="46.48284" lon="5.30694">
        <ele>221</ele>
        <time>2022-06-18T04:18:07Z</time>
      </trkpt>
      <trkpt lat="46.48245" lon="5.30684">
        <ele>221</ele>
        <time>2022-06-18T04:18:13Z</time>
      </trkpt>
      <trkpt lat="46.48211" lon="5.30682">
        <ele>222.2</ele>
        <time>2022-06-18T04:18:19Z</time>
      </trkpt>
      <trkpt lat="46.48179" lon="5.30693">
        <ele>223.2</ele>
        <time>2022-06-18T04:18:25Z</time>
      </trkpt>
      <trkpt lat="46.48174" lon="5.30696">
        <ele>223.4</ele>
        <time>2022-06-18T04:18:26Z</time>
      </trkpt>
      <trkpt lat="46.48138" lon="5.30716">
        <ele>224.4</ele>
        <time>2022-06-18T04:18:33Z</time>
      </trkpt>
      <trkpt lat="46.48132" lon="5.30719">
        <ele>224.6</ele>
        <time>2022-06-18T04:18:34Z</time>
      </trkpt>
      <trkpt lat="46.4809" lon="5.30743">
        <ele>225.6</ele>
        <time>2022-06-18T04:18:42Z</time>
      </trkpt>
      <trkpt lat="46.48033" lon="5.30775">
        <ele>226.2</ele>
        <time>2022-06-18T04:18:52Z</time>
      </trkpt>
      <trkpt lat="46.48027" lon="5.30778">
        <ele>226.2</ele>
        <time>2022-06-18T04:18:53Z</time>
      </trkpt>
      <trkpt lat="46.47975" lon="5.30807">
        <ele>225</ele>
        <time>2022-06-18T04:19:01Z</time>
      </trkpt>
      <trkpt lat="46.47953" lon="5.30814">
        <ele>224.4</ele>
        <time>2022-06-18T04:19:04Z</time>
      </trkpt>
      <trkpt lat="46.47939" lon="5.30815">
        <ele>224.2</ele>
        <time>2022-06-18T04:19:06Z</time>
      </trkpt>
      <trkpt lat="46.47914" lon="5.30811">
        <ele>224</ele>
        <time>2022-06-18T04:19:10Z</time>
      </trkpt>
      <trkpt lat="46.47892" lon="5.30802">
        <ele>224.8</ele>
        <time>2022-06-18T04:19:15Z</time>
      </trkpt>
      <trkpt lat="46.47887" lon="5.30801">
        <ele>225.2</ele>
        <time>2022-06-18T04:19:16Z</time>
      </trkpt>
      <trkpt lat="46.47882" lon="5.308">
        <ele>225.8</ele>
        <time>2022-06-18T04:19:17Z</time>
      </trkpt>
      <trkpt lat="46.47869" lon="5.30797">
        <ele>227.2</ele>
        <time>2022-06-18T04:19:20Z</time>
      </trkpt>
      <trkpt lat="46.47856" lon="5.30795">
        <ele>228</ele>
        <time>2022-06-18T04:19:23Z</time>
      </trkpt>
      <trkpt lat="46.47852" lon="5.30793">
        <ele>228.6</ele>
        <time>2022-06-18T04:19:24Z</time>
      </trkpt>
      <trkpt lat="46.47847" lon="5.3079">
        <ele>228.6</ele>
        <time>2022-06-18T04:19:25Z</time>
      </trkpt>
      <trkpt lat="46.4784" lon="5.30783">
        <ele>229</ele>
        <time>2022-06-18T04:19:27Z</time>
      </trkpt>
      <trkpt lat="46.47835" lon="5.30778">
        <ele>229.2</ele>
        <time>2022-06-18T04:19:28Z</time>
      </trkpt>
      <trkpt lat="46.4783" lon="5.30774">
        <ele>229.4</ele>
        <time>2022-06-18T04:19:29Z</time>
      </trkpt>
      <trkpt lat="46.47817" lon="5.30768">
        <ele>229.6</ele>
        <time>2022-06-18T04:19:31Z</time>
      </trkpt>
      <trkpt lat="46.4781" lon="5.30767">
        <ele>229.6</ele>
        <time>2022-06-18T04:19:32Z</time>
      </trkpt>
      <trkpt lat="46.47769" lon="5.30771">
        <ele>228.6</ele>
        <time>2022-06-18T04:19:37Z</time>
      </trkpt>
      <trkpt lat="46.47763" lon="5.30772">
        <ele>228</ele>
        <time>2022-06-18T04:19:38Z</time>
      </trkpt>
      <trkpt lat="46.47707" lon="5.30782">
        <ele>227</ele>
        <time>2022-06-18T04:19:46Z</time>
      </trkpt>
      <trkpt lat="46.47701" lon="5.30783">
        <ele>227.2</ele>
        <time>2022-06-18T04:19:47Z</time>
      </trkpt>
      <trkpt lat="46.47651" lon="5.30791">
        <ele>227.8</ele>
        <time>2022-06-18T04:19:55Z</time>
      </trkpt>
      <trkpt lat="46.47596" lon="5.30799">
        <ele>228</ele>
        <time>2022-06-18T04:20:04Z</time>
      </trkpt>
      <trkpt lat="46.4754" lon="5.30808">
        <ele>228</ele>
        <time>2022-06-18T04:20:13Z</time>
      </trkpt>
      <trkpt lat="46.47534" lon="5.3081">
        <ele>228.2</ele>
        <time>2022-06-18T04:20:14Z</time>
      </trkpt>
      <trkpt lat="46.4749" lon="5.30828">
        <ele>228</ele>
        <time>2022-06-18T04:20:21Z</time>
      </trkpt>
      <trkpt lat="46.47439" lon="5.30855">
        <ele>227</ele>
        <time>2022-06-18T04:20:29Z</time>
      </trkpt>
      <trkpt lat="46.47433" lon="5.30858">
        <ele>227</ele>
        <time>2022-06-18T04:20:30Z</time>
      </trkpt>
      <trkpt lat="46.4742" lon="5.30865">
        <ele>226.8</ele>
        <time>2022-06-18T04:20:32Z</time>
      </trkpt>
      <trkpt lat="46.47378" lon="5.30885">
        <ele>226.6</ele>
        <time>2022-06-18T04:20:39Z</time>
      </trkpt>
      <trkpt lat="46.47348" lon="5.30894">
        <ele>226.6</ele>
        <time>2022-06-18T04:20:44Z</time>
      </trkpt>
      <trkpt lat="46.47336" lon="5.3089">
        <ele>226.8</ele>
        <time>2022-06-18T04:20:46Z</time>
      </trkpt>
      <trkpt lat="46.47328" lon="5.30878">
        <ele>226.8</ele>
        <time>2022-06-18T04:20:48Z</time>
      </trkpt>
      <trkpt lat="46.47326" lon="5.3087">
        <ele>226.8</ele>
        <time>2022-06-18T04:20:49Z</time>
      </trkpt>
      <trkpt lat="46.47323" lon="5.30862">
        <ele>226.8</ele>
        <time>2022-06-18T04:20:50Z</time>
      </trkpt>
      <trkpt lat="46.4732" lon="5.30834">
        <ele>226.8</ele>
        <time>2022-06-18T04:20:53Z</time>
      </trkpt>
      <trkpt lat="46.47316" lon="5.30791">
        <ele>226.6</ele>
        <time>2022-06-18T04:20:57Z</time>
      </trkpt>
      <trkpt lat="46.47316" lon="5.30781">
        <ele>226.4</ele>
        <time>2022-06-18T04:20:58Z</time>
      </trkpt>
      <trkpt lat="46.47314" lon="5.30737">
        <ele>225.8</ele>
        <time>2022-06-18T04:21:02Z</time>
      </trkpt>
      <trkpt lat="46.47313" lon="5.30695">
        <ele>225.6</ele>
        <time>2022-06-18T04:21:06Z</time>
      </trkpt>
      <trkpt lat="46.4731" lon="5.30658">
        <ele>226</ele>
        <time>2022-06-18T04:21:10Z</time>
      </trkpt>
      <trkpt lat="46.47308" lon="5.30648">
        <ele>226.2</ele>
        <time>2022-06-18T04:21:11Z</time>
      </trkpt>
      <trkpt lat="46.47303" lon="5.3064">
        <ele>226.2</ele>
        <time>2022-06-18T04:21:12Z</time>
      </trkpt>
      <trkpt lat="46.47288" lon="5.30619">
        <ele>226.8</ele>
        <time>2022-06-18T04:21:15Z</time>
      </trkpt>
      <trkpt lat="46.47283" lon="5.30613">
        <ele>226.8</ele>
        <time>2022-06-18T04:21:16Z</time>
      </trkpt>
      <trkpt lat="46.47252" lon="5.30575">
        <ele>227</ele>
        <time>2022-06-18T04:21:22Z</time>
      </trkpt>
      <trkpt lat="46.4724" lon="5.30565">
        <ele>227</ele>
        <time>2022-06-18T04:21:24Z</time>
      </trkpt>
      <trkpt lat="46.47221" lon="5.30556">
        <ele>227</ele>
        <time>2022-06-18T04:21:27Z</time>
      </trkpt>
      <trkpt lat="46.47206" lon="5.30555">
        <ele>227</ele>
        <time>2022-06-18T04:21:29Z</time>
      </trkpt>
      <trkpt lat="46.47194" lon="5.30556">
        <ele>227</ele>
        <time>2022-06-18T04:21:31Z</time>
      </trkpt>
      <trkpt lat="46.47156" lon="5.30555">
        <ele>227.2</ele>
        <time>2022-06-18T04:21:37Z</time>
      </trkpt>
      <trkpt lat="46.47114" lon="5.30537">
        <ele>227.8</ele>
        <time>2022-06-18T04:21:44Z</time>
      </trkpt>
      <trkpt lat="46.47072" lon="5.30507">
        <ele>228</ele>
        <time>2022-06-18T04:21:52Z</time>
      </trkpt>
      <trkpt lat="46.47021" lon="5.30462">
        <ele>227.8</ele>
        <time>2022-06-18T04:22:01Z</time>
      </trkpt>
      <trkpt lat="46.46971" lon="5.30419">
        <ele>227</ele>
        <time>2022-06-18T04:22:10Z</time>
      </trkpt>
      <trkpt lat="46.46966" lon="5.30415">
        <ele>227</ele>
        <time>2022-06-18T04:22:11Z</time>
      </trkpt>
      <trkpt lat="46.46947" lon="5.30403">
        <ele>226.6</ele>
        <time>2022-06-18T04:22:14Z</time>
      </trkpt>
      <trkpt lat="46.46928" lon="5.30394">
        <ele>226.6</ele>
        <time>2022-06-18T04:22:17Z</time>
      </trkpt>
      <trkpt lat="46.46875" lon="5.3037">
        <ele>226.4</ele>
        <time>2022-06-18T04:22:26Z</time>
      </trkpt>
      <trkpt lat="46.46846" lon="5.30342">
        <ele>226.8</ele>
        <time>2022-06-18T04:22:32Z</time>
      </trkpt>
      <trkpt lat="46.46804" lon="5.30289">
        <ele>227.2</ele>
        <time>2022-06-18T04:22:41Z</time>
      </trkpt>
      <trkpt lat="46.46757" lon="5.30235">
        <ele>227.4</ele>
        <time>2022-06-18T04:22:51Z</time>
      </trkpt>
      <trkpt lat="46.46743" lon="5.30216">
        <ele>227.4</ele>
        <time>2022-06-18T04:22:54Z</time>
      </trkpt>
      <trkpt lat="46.46736" lon="5.302">
        <ele>227.4</ele>
        <time>2022-06-18T04:22:56Z</time>
      </trkpt>
      <trkpt lat="46.4672" lon="5.30144">
        <ele>226.8</ele>
        <time>2022-06-18T04:23:02Z</time>
      </trkpt>
      <trkpt lat="46.46707" lon="5.30088">
        <ele>225.8</ele>
        <time>2022-06-18T04:23:08Z</time>
      </trkpt>
      <trkpt lat="46.46702" lon="5.30068">
        <ele>225.6</ele>
        <time>2022-06-18T04:23:10Z</time>
      </trkpt>
      <trkpt lat="46.46684" lon="5.30007">
        <ele>225</ele>
        <time>2022-06-18T04:23:17Z</time>
      </trkpt>
      <trkpt lat="46.46682" lon="5.29999">
        <ele>225</ele>
        <time>2022-06-18T04:23:18Z</time>
      </trkpt>
      <trkpt lat="46.46674" lon="5.29969">
        <ele>225.4</ele>
        <time>2022-06-18T04:23:22Z</time>
      </trkpt>
      <trkpt lat="46.46668" lon="5.29945">
        <ele>226</ele>
        <time>2022-06-18T04:23:25Z</time>
      </trkpt>
      <trkpt lat="46.46663" lon="5.2993">
        <ele>226.4</ele>
        <time>2022-06-18T04:23:27Z</time>
      </trkpt>
      <trkpt lat="46.46652" lon="5.29891">
        <ele>226.8</ele>
        <time>2022-06-18T04:23:32Z</time>
      </trkpt>
      <trkpt lat="46.46648" lon="5.29876">
        <ele>227.2</ele>
        <time>2022-06-18T04:23:34Z</time>
      </trkpt>
      <trkpt lat="46.46638" lon="5.29843">
        <ele>227.6</ele>
        <time>2022-06-18T04:23:38Z</time>
      </trkpt>
      <trkpt lat="46.46636" lon="5.29828">
        <ele>227.8</ele>
        <time>2022-06-18T04:23:40Z</time>
      </trkpt>
      <trkpt lat="46.46634" lon="5.29812">
        <ele>228</ele>
        <time>2022-06-18T04:23:42Z</time>
      </trkpt>
      <trkpt lat="46.46629" lon="5.29795">
        <ele>228</ele>
        <time>2022-06-18T04:23:44Z</time>
      </trkpt>
      <trkpt lat="46.46614" lon="5.29745">
        <ele>227.6</ele>
        <time>2022-06-18T04:23:49Z</time>
      </trkpt>
      <trkpt lat="46.46597" lon="5.29676">
        <ele>227</ele>
        <time>2022-06-18T04:23:56Z</time>
      </trkpt>
      <trkpt lat="46.46577" lon="5.29606">
        <ele>226.6</ele>
        <time>2022-06-18T04:24:03Z</time>
      </trkpt>
      <trkpt lat="46.4657" lon="5.29577">
        <ele>226.2</ele>
        <time>2022-06-18T04:24:06Z</time>
      </trkpt>
      <trkpt lat="46.46566" lon="5.2956">
        <ele>225.6</ele>
        <time>2022-06-18T04:24:08Z</time>
      </trkpt>
      <trkpt lat="46.46563" lon="5.29552">
        <ele>225.2</ele>
        <time>2022-06-18T04:24:09Z</time>
      </trkpt>
      <trkpt lat="46.4656" lon="5.29542">
        <ele>225</ele>
        <time>2022-06-18T04:24:10Z</time>
      </trkpt>
      <trkpt lat="46.46553" lon="5.29518">
        <ele>224.4</ele>
        <time>2022-06-18T04:24:12Z</time>
      </trkpt>
      <trkpt lat="46.46546" lon="5.29485">
        <ele>223.8</ele>
        <time>2022-06-18T04:24:15Z</time>
      </trkpt>
      <trkpt lat="46.46529" lon="5.29406">
        <ele>223.8</ele>
        <time>2022-06-18T04:24:23Z</time>
      </trkpt>
      <trkpt lat="46.46525" lon="5.29386">
        <ele>224.4</ele>
        <time>2022-06-18T04:24:25Z</time>
      </trkpt>
      <trkpt lat="46.46508" lon="5.29308">
        <ele>224.6</ele>
        <time>2022-06-18T04:24:33Z</time>
      </trkpt>
      <trkpt lat="46.46491" lon="5.29224">
        <ele>224.8</ele>
        <time>2022-06-18T04:24:42Z</time>
      </trkpt>
      <trkpt lat="46.46489" lon="5.29215">
        <ele>225</ele>
        <time>2022-06-18T04:24:43Z</time>
      </trkpt>
      <trkpt lat="46.4648" lon="5.29173">
        <ele>225.6</ele>
        <time>2022-06-18T04:24:48Z</time>
      </trkpt>
      <trkpt lat="46.46473" lon="5.29138">
        <ele>226.2</ele>
        <time>2022-06-18T04:24:52Z</time>
      </trkpt>
      <trkpt lat="46.46459" lon="5.29084">
        <ele>226.8</ele>
        <time>2022-06-18T04:24:58Z</time>
      </trkpt>
      <trkpt lat="46.4645" lon="5.29037">
        <ele>226.8</ele>
        <time>2022-06-18T04:25:03Z</time>
      </trkpt>
      <trkpt lat="46.46437" lon="5.28971">
        <ele>226.8</ele>
        <time>2022-06-18T04:25:10Z</time>
      </trkpt>
      <trkpt lat="46.4642" lon="5.2889">
        <ele>226.2</ele>
        <time>2022-06-18T04:25:18Z</time>
      </trkpt>
      <trkpt lat="46.46417" lon="5.2888">
        <ele>226</ele>
        <time>2022-06-18T04:25:19Z</time>
      </trkpt>
      <trkpt lat="46.46415" lon="5.2887">
        <ele>226</ele>
        <time>2022-06-18T04:25:20Z</time>
      </trkpt>
      <trkpt lat="46.46405" lon="5.28843">
        <ele>225.6</ele>
        <time>2022-06-18T04:25:23Z</time>
      </trkpt>
      <trkpt lat="46.46401" lon="5.28834">
        <ele>225.6</ele>
        <time>2022-06-18T04:25:24Z</time>
      </trkpt>
      <trkpt lat="46.46387" lon="5.28809">
        <ele>225.4</ele>
        <time>2022-06-18T04:25:27Z</time>
      </trkpt>
      <trkpt lat="46.46378" lon="5.28798">
        <ele>225.2</ele>
        <time>2022-06-18T04:25:29Z</time>
      </trkpt>
      <trkpt lat="46.46342" lon="5.28767">
        <ele>225</ele>
        <time>2022-06-18T04:25:35Z</time>
      </trkpt>
      <trkpt lat="46.46322" lon="5.28754">
        <ele>224.6</ele>
        <time>2022-06-18T04:25:38Z</time>
      </trkpt>
      <trkpt lat="46.46293" lon="5.28736">
        <ele>223.4</ele>
        <time>2022-06-18T04:25:42Z</time>
      </trkpt>
      <trkpt lat="46.46279" lon="5.28726">
        <ele>222.8</ele>
        <time>2022-06-18T04:25:44Z</time>
      </trkpt>
      <trkpt lat="46.46265" lon="5.28716">
        <ele>222.2</ele>
        <time>2022-06-18T04:25:46Z</time>
      </trkpt>
      <trkpt lat="46.46246" lon="5.28703">
        <ele>221</ele>
        <time>2022-06-18T04:25:49Z</time>
      </trkpt>
      <trkpt lat="46.46241" lon="5.28699">
        <ele>220.8</ele>
        <time>2022-06-18T04:25:50Z</time>
      </trkpt>
      <trkpt lat="46.46236" lon="5.28694">
        <ele>220.6</ele>
        <time>2022-06-18T04:25:51Z</time>
      </trkpt>
      <trkpt lat="46.46228" lon="5.2868">
        <ele>220</ele>
        <time>2022-06-18T04:25:53Z</time>
      </trkpt>
      <trkpt lat="46.46226" lon="5.28672">
        <ele>220</ele>
        <time>2022-06-18T04:25:54Z</time>
      </trkpt>
      <trkpt lat="46.46223" lon="5.28651">
        <ele>219</ele>
        <time>2022-06-18T04:25:56Z</time>
      </trkpt>
      <trkpt lat="46.46221" lon="5.2864">
        <ele>218.8</ele>
        <time>2022-06-18T04:25:57Z</time>
      </trkpt>
      <trkpt lat="46.46215" lon="5.28602">
        <ele>217.2</ele>
        <time>2022-06-18T04:26:00Z</time>
      </trkpt>
      <trkpt lat="46.46213" lon="5.28589">
        <ele>216.8</ele>
        <time>2022-06-18T04:26:01Z</time>
      </trkpt>
      <trkpt lat="46.46209" lon="5.28559">
        <ele>215.8</ele>
        <time>2022-06-18T04:26:03Z</time>
      </trkpt>
      <trkpt lat="46.46201" lon="5.28505">
        <ele>214.2</ele>
        <time>2022-06-18T04:26:07Z</time>
      </trkpt>
      <trkpt lat="46.46199" lon="5.2849">
        <ele>213.8</ele>
        <time>2022-06-18T04:26:08Z</time>
      </trkpt>
      <trkpt lat="46.46197" lon="5.28475">
        <ele>212.8</ele>
        <time>2022-06-18T04:26:09Z</time>
      </trkpt>
      <trkpt lat="46.46192" lon="5.28445">
        <ele>211.6</ele>
        <time>2022-06-18T04:26:11Z</time>
      </trkpt>
      <trkpt lat="46.4619" lon="5.28429">
        <ele>210.6</ele>
        <time>2022-06-18T04:26:12Z</time>
      </trkpt>
      <trkpt lat="46.46186" lon="5.284">
        <ele>208.6</ele>
        <time>2022-06-18T04:26:14Z</time>
      </trkpt>
      <trkpt lat="46.46181" lon="5.28372">
        <ele>207.6</ele>
        <time>2022-06-18T04:26:16Z</time>
      </trkpt>
      <trkpt lat="46.46171" lon="5.28299">
        <ele>207.2</ele>
        <time>2022-06-18T04:26:22Z</time>
      </trkpt>
      <trkpt lat="46.46168" lon="5.28262">
        <ele>207.6</ele>
        <time>2022-06-18T04:26:26Z</time>
      </trkpt>
      <trkpt lat="46.46169" lon="5.28253">
        <ele>207.8</ele>
        <time>2022-06-18T04:26:27Z</time>
      </trkpt>
      <trkpt lat="46.46169" lon="5.28244">
        <ele>208.6</ele>
        <time>2022-06-18T04:26:28Z</time>
      </trkpt>
      <trkpt lat="46.46174" lon="5.2821">
        <ele>209.8</ele>
        <time>2022-06-18T04:26:32Z</time>
      </trkpt>
      <trkpt lat="46.46175" lon="5.28201">
        <ele>210.6</ele>
        <time>2022-06-18T04:26:33Z</time>
      </trkpt>
      <trkpt lat="46.46178" lon="5.28186">
        <ele>211</ele>
        <time>2022-06-18T04:26:35Z</time>
      </trkpt>
      <trkpt lat="46.46186" lon="5.28135">
        <ele>212</ele>
        <time>2022-06-18T04:26:41Z</time>
      </trkpt>
      <trkpt lat="46.46187" lon="5.28126">
        <ele>212.2</ele>
        <time>2022-06-18T04:26:42Z</time>
      </trkpt>
      <trkpt lat="46.46191" lon="5.28078">
        <ele>212.2</ele>
        <time>2022-06-18T04:26:47Z</time>
      </trkpt>
      <trkpt lat="46.46196" lon="5.28025">
        <ele>212</ele>
        <time>2022-06-18T04:26:53Z</time>
      </trkpt>
      <trkpt lat="46.46196" lon="5.28016">
        <ele>212</ele>
        <time>2022-06-18T04:26:54Z</time>
      </trkpt>
      <trkpt lat="46.46191" lon="5.28002">
        <ele>212</ele>
        <time>2022-06-18T04:26:56Z</time>
      </trkpt>
      <trkpt lat="46.46168" lon="5.27985">
        <ele>212</ele>
        <time>2022-06-18T04:27:00Z</time>
      </trkpt>
      <trkpt lat="46.46145" lon="5.27968">
        <ele>211.8</ele>
        <time>2022-06-18T04:27:03Z</time>
      </trkpt>
      <trkpt lat="46.46138" lon="5.27959">
        <ele>211.8</ele>
        <time>2022-06-18T04:27:04Z</time>
      </trkpt>
      <trkpt lat="46.46126" lon="5.27936">
        <ele>211</ele>
        <time>2022-06-18T04:27:06Z</time>
      </trkpt>
      <trkpt lat="46.46123" lon="5.27921">
        <ele>210</ele>
        <time>2022-06-18T04:27:07Z</time>
      </trkpt>
      <trkpt lat="46.46122" lon="5.27887">
        <ele>209</ele>
        <time>2022-06-18T04:27:09Z</time>
      </trkpt>
      <trkpt lat="46.46121" lon="5.2787">
        <ele>207.6</ele>
        <time>2022-06-18T04:27:10Z</time>
      </trkpt>
      <trkpt lat="46.46121" lon="5.27853">
        <ele>206.2</ele>
        <time>2022-06-18T04:27:11Z</time>
      </trkpt>
      <trkpt lat="46.46121" lon="5.27836">
        <ele>204.8</ele>
        <time>2022-06-18T04:27:12Z</time>
      </trkpt>
      <trkpt lat="46.46121" lon="5.27819">
        <ele>204.2</ele>
        <time>2022-06-18T04:27:13Z</time>
      </trkpt>
      <trkpt lat="46.46121" lon="5.27802">
        <ele>203</ele>
        <time>2022-06-18T04:27:14Z</time>
      </trkpt>
      <trkpt lat="46.46122" lon="5.27768">
        <ele>201.2</ele>
        <time>2022-06-18T04:27:16Z</time>
      </trkpt>
      <trkpt lat="46.46123" lon="5.27735">
        <ele>200.2</ele>
        <time>2022-06-18T04:27:18Z</time>
      </trkpt>
      <trkpt lat="46.46124" lon="5.27702">
        <ele>199</ele>
        <time>2022-06-18T04:27:20Z</time>
      </trkpt>
      <trkpt lat="46.46124" lon="5.27686">
        <ele>198.6</ele>
        <time>2022-06-18T04:27:21Z</time>
      </trkpt>
      <trkpt lat="46.46125" lon="5.27654">
        <ele>197.6</ele>
        <time>2022-06-18T04:27:23Z</time>
      </trkpt>
      <trkpt lat="46.46127" lon="5.27594">
        <ele>196.6</ele>
        <time>2022-06-18T04:27:27Z</time>
      </trkpt>
      <trkpt lat="46.46127" lon="5.27579">
        <ele>196.4</ele>
        <time>2022-06-18T04:27:28Z</time>
      </trkpt>
      <trkpt lat="46.46129" lon="5.27495">
        <ele>195.8</ele>
        <time>2022-06-18T04:27:34Z</time>
      </trkpt>
      <trkpt lat="46.4613" lon="5.27483">
        <ele>195.8</ele>
        <time>2022-06-18T04:27:35Z</time>
      </trkpt>
      <trkpt lat="46.46132" lon="5.27399">
        <ele>196.2</ele>
        <time>2022-06-18T04:27:42Z</time>
      </trkpt>
      <trkpt lat="46.46135" lon="5.27319">
        <ele>196.4</ele>
        <time>2022-06-18T04:27:49Z</time>
      </trkpt>
      <trkpt lat="46.46135" lon="5.27307">
        <ele>196.6</ele>
        <time>2022-06-18T04:27:50Z</time>
      </trkpt>
      <trkpt lat="46.46137" lon="5.27219">
        <ele>196.8</ele>
        <time>2022-06-18T04:27:58Z</time>
      </trkpt>
      <trkpt lat="46.46138" lon="5.27187">
        <ele>196.8</ele>
        <time>2022-06-18T04:28:01Z</time>
      </trkpt>
      <trkpt lat="46.46141" lon="5.2711">
        <ele>197</ele>
        <time>2022-06-18T04:28:09Z</time>
      </trkpt>
      <trkpt lat="46.46142" lon="5.27076">
        <ele>197.8</ele>
        <time>2022-06-18T04:28:13Z</time>
      </trkpt>
      <trkpt lat="46.46142" lon="5.2705">
        <ele>198.2</ele>
        <time>2022-06-18T04:28:16Z</time>
      </trkpt>
      <trkpt lat="46.46143" lon="5.27018">
        <ele>198.8</ele>
        <time>2022-06-18T04:28:20Z</time>
      </trkpt>
      <trkpt lat="46.46144" lon="5.26981">
        <ele>198.8</ele>
        <time>2022-06-18T04:28:24Z</time>
      </trkpt>
      <trkpt lat="46.46147" lon="5.26912">
        <ele>198.6</ele>
        <time>2022-06-18T04:28:31Z</time>
      </trkpt>
      <trkpt lat="46.46149" lon="5.26838">
        <ele>197.8</ele>
        <time>2022-06-18T04:28:39Z</time>
      </trkpt>
      <trkpt lat="46.46149" lon="5.26812">
        <ele>197.8</ele>
        <time>2022-06-18T04:28:42Z</time>
      </trkpt>
      <trkpt lat="46.4615" lon="5.26773">
        <ele>198.8</ele>
        <time>2022-06-18T04:28:47Z</time>
      </trkpt>
      <trkpt lat="46.46151" lon="5.26749">
        <ele>199.4</ele>
        <time>2022-06-18T04:28:50Z</time>
      </trkpt>
      <trkpt lat="46.46152" lon="5.26719">
        <ele>199.8</ele>
        <time>2022-06-18T04:28:54Z</time>
      </trkpt>
      <trkpt lat="46.46153" lon="5.2669">
        <ele>200.2</ele>
        <time>2022-06-18T04:28:58Z</time>
      </trkpt>
      <trkpt lat="46.46153" lon="5.26658">
        <ele>201</ele>
        <time>2022-06-18T04:29:03Z</time>
      </trkpt>
      <trkpt lat="46.46153" lon="5.26651">
        <ele>201.2</ele>
        <time>2022-06-18T04:29:04Z</time>
      </trkpt>
      <trkpt lat="46.46154" lon="5.26629">
        <ele>202</ele>
        <time>2022-06-18T04:29:08Z</time>
      </trkpt>
      <trkpt lat="46.46155" lon="5.26612">
        <ele>202.6</ele>
        <time>2022-06-18T04:29:11Z</time>
      </trkpt>
      <trkpt lat="46.46156" lon="5.266">
        <ele>203</ele>
        <time>2022-06-18T04:29:13Z</time>
      </trkpt>
      <trkpt lat="46.46158" lon="5.26583">
        <ele>204.2</ele>
        <time>2022-06-18T04:29:16Z</time>
      </trkpt>
      <trkpt lat="46.4616" lon="5.26561">
        <ele>205.6</ele>
        <time>2022-06-18T04:29:20Z</time>
      </trkpt>
      <trkpt lat="46.46162" lon="5.26533">
        <ele>206.6</ele>
        <time>2022-06-18T04:29:25Z</time>
      </trkpt>
      <trkpt lat="46.46165" lon="5.26516">
        <ele>207.2</ele>
        <time>2022-06-18T04:29:28Z</time>
      </trkpt>
      <trkpt lat="46.46166" lon="5.26506">
        <ele>207.8</ele>
        <time>2022-06-18T04:29:30Z</time>
      </trkpt>
      <trkpt lat="46.46167" lon="5.26489">
        <ele>208.2</ele>
        <time>2022-06-18T04:29:33Z</time>
      </trkpt>
      <trkpt lat="46.46169" lon="5.26471">
        <ele>208.8</ele>
        <time>2022-06-18T04:29:36Z</time>
      </trkpt>
      <trkpt lat="46.46172" lon="5.26442">
        <ele>210</ele>
        <time>2022-06-18T04:29:41Z</time>
      </trkpt>
      <trkpt lat="46.46175" lon="5.26414">
        <ele>211.2</ele>
        <time>2022-06-18T04:29:46Z</time>
      </trkpt>
      <trkpt lat="46.46178" lon="5.26383">
        <ele>212.6</ele>
        <time>2022-06-18T04:29:52Z</time>
      </trkpt>
      <trkpt lat="46.4618" lon="5.26354">
        <ele>213.6</ele>
        <time>2022-06-18T04:29:58Z</time>
      </trkpt>
      <trkpt lat="46.46181" lon="5.26344">
        <ele>214.2</ele>
        <time>2022-06-18T04:30:00Z</time>
      </trkpt>
      <trkpt lat="46.46182" lon="5.26335">
        <ele>214.8</ele>
        <time>2022-06-18T04:30:02Z</time>
      </trkpt>
      <trkpt lat="46.46184" lon="5.26307">
        <ele>215.8</ele>
        <time>2022-06-18T04:30:08Z</time>
      </trkpt>
      <trkpt lat="46.46185" lon="5.26302">
        <ele>216.2</ele>
        <time>2022-06-18T04:30:09Z</time>
      </trkpt>
      <trkpt lat="46.46187" lon="5.26274">
        <ele>217.2</ele>
        <time>2022-06-18T04:30:15Z</time>
      </trkpt>
      <trkpt lat="46.46188" lon="5.26266">
        <ele>217.6</ele>
        <time>2022-06-18T04:30:17Z</time>
      </trkpt>
      <trkpt lat="46.46188" lon="5.26252">
        <ele>218.4</ele>
        <time>2022-06-18T04:30:20Z</time>
      </trkpt>
      <trkpt lat="46.46186" lon="5.26248">
        <ele>218.6</ele>
        <time>2022-06-18T04:30:21Z</time>
      </trkpt>
      <trkpt lat="46.46168" lon="5.26237">
        <ele>219.2</ele>
        <time>2022-06-18T04:30:26Z</time>
      </trkpt>
      <trkpt lat="46.46164" lon="5.26235">
        <ele>219.4</ele>
        <time>2022-06-18T04:30:27Z</time>
      </trkpt>
      <trkpt lat="46.46129" lon="5.26216">
        <ele>219.8</ele>
        <time>2022-06-18T04:30:35Z</time>
      </trkpt>
      <trkpt lat="46.4609" lon="5.26193">
        <ele>220.4</ele>
        <time>2022-06-18T04:30:44Z</time>
      </trkpt>
      <trkpt lat="46.46085" lon="5.26191">
        <ele>220.6</ele>
        <time>2022-06-18T04:30:45Z</time>
      </trkpt>
      <trkpt lat="46.4605" lon="5.26174">
        <ele>221.4</ele>
        <time>2022-06-18T04:30:53Z</time>
      </trkpt>
      <trkpt lat="46.46042" lon="5.2617">
        <ele>221.8</ele>
        <time>2022-06-18T04:30:55Z</time>
      </trkpt>
      <trkpt lat="46.46017" lon="5.26165">
        <ele>222</ele>
        <time>2022-06-18T04:31:00Z</time>
      </trkpt>
      <trkpt lat="46.45979" lon="5.26164">
        <ele>222.8</ele>
        <time>2022-06-18T04:31:08Z</time>
      </trkpt>
      <trkpt lat="46.45933" lon="5.26161">
        <ele>223.6</ele>
        <time>2022-06-18T04:31:17Z</time>
      </trkpt>
      <trkpt lat="46.45918" lon="5.26161">
        <ele>223.8</ele>
        <time>2022-06-18T04:31:20Z</time>
      </trkpt>
      <trkpt lat="46.45887" lon="5.2616">
        <ele>224.2</ele>
        <time>2022-06-18T04:31:26Z</time>
      </trkpt>
      <trkpt lat="46.45836" lon="5.2616">
        <ele>224.6</ele>
        <time>2022-06-18T04:31:35Z</time>
      </trkpt>
      <trkpt lat="46.45787" lon="5.26159">
        <ele>224.4</ele>
        <time>2022-06-18T04:31:43Z</time>
      </trkpt>
      <trkpt lat="46.45775" lon="5.26163">
        <ele>224.2</ele>
        <time>2022-06-18T04:31:45Z</time>
      </trkpt>
      <trkpt lat="46.45764" lon="5.26172">
        <ele>224.2</ele>
        <time>2022-06-18T04:31:47Z</time>
      </trkpt>
      <trkpt lat="46.45756" lon="5.26186">
        <ele>224.2</ele>
        <time>2022-06-18T04:31:49Z</time>
      </trkpt>
      <trkpt lat="46.4575" lon="5.26202">
        <ele>224.2</ele>
        <time>2022-06-18T04:31:51Z</time>
      </trkpt>
      <trkpt lat="46.4573" lon="5.26285">
        <ele>223.6</ele>
        <time>2022-06-18T04:32:00Z</time>
      </trkpt>
      <trkpt lat="46.45711" lon="5.26363">
        <ele>222.8</ele>
        <time>2022-06-18T04:32:08Z</time>
      </trkpt>
      <trkpt lat="46.45709" lon="5.26373">
        <ele>222.8</ele>
        <time>2022-06-18T04:32:09Z</time>
      </trkpt>
      <trkpt lat="46.45697" lon="5.26454">
        <ele>222.2</ele>
        <time>2022-06-18T04:32:17Z</time>
      </trkpt>
      <trkpt lat="46.45684" lon="5.26537">
        <ele>221.8</ele>
        <time>2022-06-18T04:32:25Z</time>
      </trkpt>
      <trkpt lat="46.45682" lon="5.26547">
        <ele>221.6</ele>
        <time>2022-06-18T04:32:26Z</time>
      </trkpt>
      <trkpt lat="46.45672" lon="5.26576">
        <ele>221</ele>
        <time>2022-06-18T04:32:29Z</time>
      </trkpt>
      <trkpt lat="46.45662" lon="5.26595">
        <ele>220.6</ele>
        <time>2022-06-18T04:32:31Z</time>
      </trkpt>
      <trkpt lat="46.45644" lon="5.26624">
        <ele>219.6</ele>
        <time>2022-06-18T04:32:34Z</time>
      </trkpt>
      <trkpt lat="46.45637" lon="5.26631">
        <ele>219.4</ele>
        <time>2022-06-18T04:32:35Z</time>
      </trkpt>
      <trkpt lat="46.45629" lon="5.26636">
        <ele>218.8</ele>
        <time>2022-06-18T04:32:36Z</time>
      </trkpt>
      <trkpt lat="46.45612" lon="5.26641">
        <ele>218.4</ele>
        <time>2022-06-18T04:32:38Z</time>
      </trkpt>
      <trkpt lat="46.4558" lon="5.26649">
        <ele>217.4</ele>
        <time>2022-06-18T04:32:42Z</time>
      </trkpt>
      <trkpt lat="46.45565" lon="5.2665">
        <ele>216.8</ele>
        <time>2022-06-18T04:32:44Z</time>
      </trkpt>
      <trkpt lat="46.45537" lon="5.26643">
        <ele>217.4</ele>
        <time>2022-06-18T04:32:48Z</time>
      </trkpt>
      <trkpt lat="46.45493" lon="5.26626">
        <ele>218.2</ele>
        <time>2022-06-18T04:32:55Z</time>
      </trkpt>
      <trkpt lat="46.4548" lon="5.26621">
        <ele>218.6</ele>
        <time>2022-06-18T04:32:57Z</time>
      </trkpt>
      <trkpt lat="46.45438" lon="5.26599">
        <ele>219.4</ele>
        <time>2022-06-18T04:33:04Z</time>
      </trkpt>
      <trkpt lat="46.45433" lon="5.26594">
        <ele>219.6</ele>
        <time>2022-06-18T04:33:05Z</time>
      </trkpt>
      <trkpt lat="46.45404" lon="5.26577">
        <ele>220.4</ele>
        <time>2022-06-18T04:33:10Z</time>
      </trkpt>
      <trkpt lat="46.45386" lon="5.26568">
        <ele>220.8</ele>
        <time>2022-06-18T04:33:13Z</time>
      </trkpt>
      <trkpt lat="46.45355" lon="5.26556">
        <ele>221.6</ele>
        <time>2022-06-18T04:33:18Z</time>
      </trkpt>
      <trkpt lat="46.45335" lon="5.2655">
        <ele>221.8</ele>
        <time>2022-06-18T04:33:21Z</time>
      </trkpt>
      <trkpt lat="46.45303" lon="5.26546">
        <ele>222</ele>
        <time>2022-06-18T04:33:26Z</time>
      </trkpt>
      <trkpt lat="46.45265" lon="5.26551">
        <ele>222.2</ele>
        <time>2022-06-18T04:33:32Z</time>
      </trkpt>
      <trkpt lat="46.45206" lon="5.26557">
        <ele>222.4</ele>
        <time>2022-06-18T04:33:41Z</time>
      </trkpt>
      <trkpt lat="46.45168" lon="5.26546">
        <ele>222</ele>
        <time>2022-06-18T04:33:47Z</time>
      </trkpt>
      <trkpt lat="46.4512" lon="5.26527">
        <ele>222.2</ele>
        <time>2022-06-18T04:33:55Z</time>
      </trkpt>
      <trkpt lat="46.45071" lon="5.26515">
        <ele>222.6</ele>
        <time>2022-06-18T04:34:03Z</time>
      </trkpt>
      <trkpt lat="46.45016" lon="5.26513">
        <ele>222.4</ele>
        <time>2022-06-18T04:34:11Z</time>
      </trkpt>
      <trkpt lat="46.4497" lon="5.26515">
        <ele>221.4</ele>
        <time>2022-06-18T04:34:17Z</time>
      </trkpt>
      <trkpt lat="46.44932" lon="5.26526">
        <ele>221</ele>
        <time>2022-06-18T04:34:22Z</time>
      </trkpt>
      <trkpt lat="46.44924" lon="5.2653">
        <ele>220.8</ele>
        <time>2022-06-18T04:34:23Z</time>
      </trkpt>
      <trkpt lat="46.44882" lon="5.2655">
        <ele>220</ele>
        <time>2022-06-18T04:34:29Z</time>
      </trkpt>
      <trkpt lat="46.44855" lon="5.26578">
        <ele>220</ele>
        <time>2022-06-18T04:34:34Z</time>
      </trkpt>
      <trkpt lat="46.44844" lon="5.26597">
        <ele>220.6</ele>
        <time>2022-06-18T04:34:37Z</time>
      </trkpt>
      <trkpt lat="46.44841" lon="5.26606">
        <ele>220.8</ele>
        <time>2022-06-18T04:34:38Z</time>
      </trkpt>
      <trkpt lat="46.44835" lon="5.26634">
        <ele>221.8</ele>
        <time>2022-06-18T04:34:42Z</time>
      </trkpt>
      <trkpt lat="46.44833" lon="5.26641">
        <ele>222.2</ele>
        <time>2022-06-18T04:34:43Z</time>
      </trkpt>
      <trkpt lat="46.4483" lon="5.26647">
        <ele>222.4</ele>
        <time>2022-06-18T04:34:44Z</time>
      </trkpt>
      <trkpt lat="46.44821" lon="5.26656">
        <ele>223.2</ele>
        <time>2022-06-18T04:34:46Z</time>
      </trkpt>
      <trkpt lat="46.44816" lon="5.26658">
        <ele>223.4</ele>
        <time>2022-06-18T04:34:47Z</time>
      </trkpt>
      <trkpt lat="46.44811" lon="5.26659">
        <ele>223.6</ele>
        <time>2022-06-18T04:34:48Z</time>
      </trkpt>
      <trkpt lat="46.44787" lon="5.26666">
        <ele>224</ele>
        <time>2022-06-18T04:34:52Z</time>
      </trkpt>
      <trkpt lat="46.44776" lon="5.26674">
        <ele>224</ele>
        <time>2022-06-18T04:34:54Z</time>
      </trkpt>
      <trkpt lat="46.44764" lon="5.26684">
        <ele>224</ele>
        <time>2022-06-18T04:34:56Z</time>
      </trkpt>
      <trkpt lat="46.44726" lon="5.267">
        <ele>223</ele>
        <time>2022-06-18T04:35:01Z</time>
      </trkpt>
      <trkpt lat="46.44717" lon="5.26703">
        <ele>222.8</ele>
        <time>2022-06-18T04:35:02Z</time>
      </trkpt>
      <trkpt lat="46.44708" lon="5.26704">
        <ele>222.4</ele>
        <time>2022-06-18T04:35:03Z</time>
      </trkpt>
      <trkpt lat="46.44689" lon="5.26703">
        <ele>221.6</ele>
        <time>2022-06-18T04:35:05Z</time>
      </trkpt>
      <trkpt lat="46.44679" lon="5.26702">
        <ele>220.6</ele>
        <time>2022-06-18T04:35:06Z</time>
      </trkpt>
      <trkpt lat="46.44662" lon="5.26694">
        <ele>219.2</ele>
        <time>2022-06-18T04:35:08Z</time>
      </trkpt>
      <trkpt lat="46.44653" lon="5.26689">
        <ele>218.8</ele>
        <time>2022-06-18T04:35:09Z</time>
      </trkpt>
      <trkpt lat="46.44638" lon="5.26678">
        <ele>218.2</ele>
        <time>2022-06-18T04:35:11Z</time>
      </trkpt>
      <trkpt lat="46.44609" lon="5.26658">
        <ele>217.6</ele>
        <time>2022-06-18T04:35:15Z</time>
      </trkpt>
      <trkpt lat="46.44585" lon="5.26644">
        <ele>218</ele>
        <time>2022-06-18T04:35:19Z</time>
      </trkpt>
      <trkpt lat="46.4458" lon="5.26641">
        <ele>218.4</ele>
        <time>2022-06-18T04:35:20Z</time>
      </trkpt>
      <trkpt lat="46.44568" lon="5.26638">
        <ele>219.4</ele>
        <time>2022-06-18T04:35:22Z</time>
      </trkpt>
      <trkpt lat="46.44562" lon="5.26638">
        <ele>219.6</ele>
        <time>2022-06-18T04:35:23Z</time>
      </trkpt>
      <trkpt lat="46.44551" lon="5.26639">
        <ele>220.4</ele>
        <time>2022-06-18T04:35:25Z</time>
      </trkpt>
      <trkpt lat="46.44538" lon="5.26643">
        <ele>221.6</ele>
        <time>2022-06-18T04:35:27Z</time>
      </trkpt>
      <trkpt lat="46.44532" lon="5.26646">
        <ele>222.2</ele>
        <time>2022-06-18T04:35:28Z</time>
      </trkpt>
      <trkpt lat="46.44526" lon="5.26649">
        <ele>222.4</ele>
        <time>2022-06-18T04:35:29Z</time>
      </trkpt>
      <trkpt lat="46.44509" lon="5.26665">
        <ele>222.4</ele>
        <time>2022-06-18T04:35:32Z</time>
      </trkpt>
      <trkpt lat="46.44485" lon="5.26697">
        <ele>222.4</ele>
        <time>2022-06-18T04:35:36Z</time>
      </trkpt>
      <trkpt lat="46.4447" lon="5.26712">
        <ele>221.4</ele>
        <time>2022-06-18T04:35:38Z</time>
      </trkpt>
      <trkpt lat="46.44452" lon="5.2672">
        <ele>220</ele>
        <time>2022-06-18T04:35:40Z</time>
      </trkpt>
      <trkpt lat="46.44434" lon="5.26725">
        <ele>219</ele>
        <time>2022-06-18T04:35:42Z</time>
      </trkpt>
      <trkpt lat="46.44415" lon="5.2673">
        <ele>217.8</ele>
        <time>2022-06-18T04:35:44Z</time>
      </trkpt>
      <trkpt lat="46.44395" lon="5.26736">
        <ele>216.8</ele>
        <time>2022-06-18T04:35:46Z</time>
      </trkpt>
      <trkpt lat="46.44386" lon="5.26741">
        <ele>216.4</ele>
        <time>2022-06-18T04:35:47Z</time>
      </trkpt>
      <trkpt lat="46.44368" lon="5.26754">
        <ele>215.4</ele>
        <time>2022-06-18T04:35:49Z</time>
      </trkpt>
      <trkpt lat="46.44356" lon="5.26777">
        <ele>214.2</ele>
        <time>2022-06-18T04:35:51Z</time>
      </trkpt>
      <trkpt lat="46.4435" lon="5.2679">
        <ele>213.4</ele>
        <time>2022-06-18T04:35:52Z</time>
      </trkpt>
      <trkpt lat="46.44344" lon="5.26802">
        <ele>213</ele>
        <time>2022-06-18T04:35:53Z</time>
      </trkpt>
      <trkpt lat="46.44328" lon="5.26819">
        <ele>211.4</ele>
        <time>2022-06-18T04:35:55Z</time>
      </trkpt>
      <trkpt lat="46.44299" lon="5.26829">
        <ele>210.2</ele>
        <time>2022-06-18T04:35:58Z</time>
      </trkpt>
      <trkpt lat="46.44262" lon="5.26843">
        <ele>209.2</ele>
        <time>2022-06-18T04:36:02Z</time>
      </trkpt>
      <trkpt lat="46.44252" lon="5.26849">
        <ele>209</ele>
        <time>2022-06-18T04:36:03Z</time>
      </trkpt>
      <trkpt lat="46.44215" lon="5.26878">
        <ele>207.8</ele>
        <time>2022-06-18T04:36:07Z</time>
      </trkpt>
      <trkpt lat="46.44206" lon="5.26887">
        <ele>207.6</ele>
        <time>2022-06-18T04:36:08Z</time>
      </trkpt>
      <trkpt lat="46.44197" lon="5.26897">
        <ele>207.2</ele>
        <time>2022-06-18T04:36:09Z</time>
      </trkpt>
      <trkpt lat="46.44188" lon="5.26908">
        <ele>206.6</ele>
        <time>2022-06-18T04:36:10Z</time>
      </trkpt>
      <trkpt lat="46.4418" lon="5.26918">
        <ele>206.2</ele>
        <time>2022-06-18T04:36:11Z</time>
      </trkpt>
      <trkpt lat="46.44169" lon="5.26929">
        <ele>204.8</ele>
        <time>2022-06-18T04:36:12Z</time>
      </trkpt>
      <trkpt lat="46.44161" lon="5.26933">
        <ele>204.2</ele>
        <time>2022-06-18T04:36:13Z</time>
      </trkpt>
      <trkpt lat="46.44151" lon="5.26937">
        <ele>203.2</ele>
        <time>2022-06-18T04:36:14Z</time>
      </trkpt>
      <trkpt lat="46.44141" lon="5.2694">
        <ele>202.4</ele>
        <time>2022-06-18T04:36:15Z</time>
      </trkpt>
      <trkpt lat="46.44133" lon="5.26937">
        <ele>202.2</ele>
        <time>2022-06-18T04:36:16Z</time>
      </trkpt>
      <trkpt lat="46.44122" lon="5.26932">
        <ele>201.6</ele>
        <time>2022-06-18T04:36:17Z</time>
      </trkpt>
      <trkpt lat="46.44114" lon="5.26924">
        <ele>201.4</ele>
        <time>2022-06-18T04:36:18Z</time>
      </trkpt>
      <trkpt lat="46.44106" lon="5.26916">
        <ele>201.2</ele>
        <time>2022-06-18T04:36:19Z</time>
      </trkpt>
      <trkpt lat="46.44063" lon="5.2687">
        <ele>201</ele>
        <time>2022-06-18T04:36:25Z</time>
      </trkpt>
      <trkpt lat="46.44027" lon="5.26832">
        <ele>201.8</ele>
        <time>2022-06-18T04:36:31Z</time>
      </trkpt>
      <trkpt lat="46.44018" lon="5.2682">
        <ele>202.2</ele>
        <time>2022-06-18T04:36:33Z</time>
      </trkpt>
      <trkpt lat="46.43998" lon="5.268">
        <ele>203.2</ele>
        <time>2022-06-18T04:36:37Z</time>
      </trkpt>
      <trkpt lat="46.43986" lon="5.26789">
        <ele>203.6</ele>
        <time>2022-06-18T04:36:39Z</time>
      </trkpt>
      <trkpt lat="46.43976" lon="5.26786">
        <ele>204.2</ele>
        <time>2022-06-18T04:36:41Z</time>
      </trkpt>
      <trkpt lat="46.43969" lon="5.26785">
        <ele>204.2</ele>
        <time>2022-06-18T04:36:42Z</time>
      </trkpt>
      <trkpt lat="46.43963" lon="5.26783">
        <ele>204.4</ele>
        <time>2022-06-18T04:36:43Z</time>
      </trkpt>
      <trkpt lat="46.43952" lon="5.26775">
        <ele>204.8</ele>
        <time>2022-06-18T04:36:45Z</time>
      </trkpt>
      <trkpt lat="46.43939" lon="5.26767">
        <ele>205</ele>
        <time>2022-06-18T04:36:47Z</time>
      </trkpt>
      <trkpt lat="46.43928" lon="5.26765">
        <ele>205</ele>
        <time>2022-06-18T04:36:49Z</time>
      </trkpt>
      <trkpt lat="46.43915" lon="5.2677">
        <ele>205.2</ele>
        <time>2022-06-18T04:36:51Z</time>
      </trkpt>
      <trkpt lat="46.43909" lon="5.26775">
        <ele>205.2</ele>
        <time>2022-06-18T04:36:52Z</time>
      </trkpt>
      <trkpt lat="46.43904" lon="5.26782">
        <ele>205.2</ele>
        <time>2022-06-18T04:36:53Z</time>
      </trkpt>
      <trkpt lat="46.43894" lon="5.26797">
        <ele>205.2</ele>
        <time>2022-06-18T04:36:55Z</time>
      </trkpt>
      <trkpt lat="46.43883" lon="5.26808">
        <ele>205.2</ele>
        <time>2022-06-18T04:36:57Z</time>
      </trkpt>
      <trkpt lat="46.43878" lon="5.26813">
        <ele>205.2</ele>
        <time>2022-06-18T04:36:58Z</time>
      </trkpt>
      <trkpt lat="46.43869" lon="5.26826">
        <ele>205.2</ele>
        <time>2022-06-18T04:37:00Z</time>
      </trkpt>
      <trkpt lat="46.43866" lon="5.26834">
        <ele>205.2</ele>
        <time>2022-06-18T04:37:01Z</time>
      </trkpt>
      <trkpt lat="46.43864" lon="5.26842">
        <ele>205.2</ele>
        <time>2022-06-18T04:37:02Z</time>
      </trkpt>
      <trkpt lat="46.43862" lon="5.26859">
        <ele>205.4</ele>
        <time>2022-06-18T04:37:04Z</time>
      </trkpt>
      <trkpt lat="46.43862" lon="5.26867">
        <ele>205.8</ele>
        <time>2022-06-18T04:37:05Z</time>
      </trkpt>
      <trkpt lat="46.43858" lon="5.2691">
        <ele>206.6</ele>
        <time>2022-06-18T04:37:10Z</time>
      </trkpt>
      <trkpt lat="46.43856" lon="5.26918">
        <ele>206.6</ele>
        <time>2022-06-18T04:37:11Z</time>
      </trkpt>
      <trkpt lat="46.43853" lon="5.26926">
        <ele>206.8</ele>
        <time>2022-06-18T04:37:12Z</time>
      </trkpt>
      <trkpt lat="46.43843" lon="5.26949">
        <ele>207.4</ele>
        <time>2022-06-18T04:37:15Z</time>
      </trkpt>
      <trkpt lat="46.43839" lon="5.26956">
        <ele>207.6</ele>
        <time>2022-06-18T04:37:16Z</time>
      </trkpt>
      <trkpt lat="46.43829" lon="5.2697">
        <ele>207.6</ele>
        <time>2022-06-18T04:37:18Z</time>
      </trkpt>
      <trkpt lat="46.43817" lon="5.26981">
        <ele>207.8</ele>
        <time>2022-06-18T04:37:20Z</time>
      </trkpt>
      <trkpt lat="46.4381" lon="5.26985">
        <ele>207.8</ele>
        <time>2022-06-18T04:37:21Z</time>
      </trkpt>
      <trkpt lat="46.43795" lon="5.2699">
        <ele>207.4</ele>
        <time>2022-06-18T04:37:23Z</time>
      </trkpt>
      <trkpt lat="46.43787" lon="5.26991">
        <ele>207.4</ele>
        <time>2022-06-18T04:37:24Z</time>
      </trkpt>
      <trkpt lat="46.43779" lon="5.26991">
        <ele>207.2</ele>
        <time>2022-06-18T04:37:25Z</time>
      </trkpt>
      <trkpt lat="46.43757" lon="5.26985">
        <ele>206.8</ele>
        <time>2022-06-18T04:37:28Z</time>
      </trkpt>
      <trkpt lat="46.4375" lon="5.26983">
        <ele>206.6</ele>
        <time>2022-06-18T04:37:29Z</time>
      </trkpt>
      <trkpt lat="46.43717" lon="5.2697">
        <ele>205.4</ele>
        <time>2022-06-18T04:37:34Z</time>
      </trkpt>
      <trkpt lat="46.43704" lon="5.26965">
        <ele>205.2</ele>
        <time>2022-06-18T04:37:36Z</time>
      </trkpt>
      <trkpt lat="46.4366" lon="5.26948">
        <ele>206.2</ele>
        <time>2022-06-18T04:37:43Z</time>
      </trkpt>
      <trkpt lat="46.43654" lon="5.26945">
        <ele>206.6</ele>
        <time>2022-06-18T04:37:44Z</time>
      </trkpt>
      <trkpt lat="46.43617" lon="5.26931">
        <ele>207.2</ele>
        <time>2022-06-18T04:37:50Z</time>
      </trkpt>
      <trkpt lat="46.4357" lon="5.26916">
        <ele>207.2</ele>
        <time>2022-06-18T04:37:58Z</time>
      </trkpt>
      <trkpt lat="46.43522" lon="5.26906">
        <ele>207.6</ele>
        <time>2022-06-18T04:38:06Z</time>
      </trkpt>
      <trkpt lat="46.43462" lon="5.26895">
        <ele>207.8</ele>
        <time>2022-06-18T04:38:16Z</time>
      </trkpt>
      <trkpt lat="46.43412" lon="5.26884">
        <ele>208.8</ele>
        <time>2022-06-18T04:38:25Z</time>
      </trkpt>
      <trkpt lat="46.43407" lon="5.26883">
        <ele>209.2</ele>
        <time>2022-06-18T04:38:26Z</time>
      </trkpt>
      <trkpt lat="46.43363" lon="5.26874">
        <ele>209.6</ele>
        <time>2022-06-18T04:38:34Z</time>
      </trkpt>
      <trkpt lat="46.43331" lon="5.26872">
        <ele>210</ele>
        <time>2022-06-18T04:38:40Z</time>
      </trkpt>
      <trkpt lat="46.43285" lon="5.26871">
        <ele>210.8</ele>
        <time>2022-06-18T04:38:48Z</time>
      </trkpt>
      <trkpt lat="46.43268" lon="5.26872">
        <ele>211.2</ele>
        <time>2022-06-18T04:38:51Z</time>
      </trkpt>
      <trkpt lat="46.43239" lon="5.26872">
        <ele>211.4</ele>
        <time>2022-06-18T04:38:56Z</time>
      </trkpt>
      <trkpt lat="46.43193" lon="5.26867">
        <ele>211.6</ele>
        <time>2022-06-18T04:39:04Z</time>
      </trkpt>
      <trkpt lat="46.43163" lon="5.26858">
        <ele>212.2</ele>
        <time>2022-06-18T04:39:10Z</time>
      </trkpt>
      <trkpt lat="46.43154" lon="5.26855">
        <ele>212.4</ele>
        <time>2022-06-18T04:39:12Z</time>
      </trkpt>
      <trkpt lat="46.4314" lon="5.26852">
        <ele>213.4</ele>
        <time>2022-06-18T04:39:15Z</time>
      </trkpt>
      <trkpt lat="46.43123" lon="5.26847">
        <ele>214.2</ele>
        <time>2022-06-18T04:39:19Z</time>
      </trkpt>
      <trkpt lat="46.43116" lon="5.26844">
        <ele>214.8</ele>
        <time>2022-06-18T04:39:21Z</time>
      </trkpt>
      <trkpt lat="46.43104" lon="5.26842">
        <ele>216.2</ele>
        <time>2022-06-18T04:39:24Z</time>
      </trkpt>
      <trkpt lat="46.43092" lon="5.2684">
        <ele>217.4</ele>
        <time>2022-06-18T04:39:27Z</time>
      </trkpt>
      <trkpt lat="46.43069" lon="5.26836">
        <ele>218.6</ele>
        <time>2022-06-18T04:39:33Z</time>
      </trkpt>
      <trkpt lat="46.43057" lon="5.26836">
        <ele>219</ele>
        <time>2022-06-18T04:39:36Z</time>
      </trkpt>
      <trkpt lat="46.43045" lon="5.26836">
        <ele>220</ele>
        <time>2022-06-18T04:39:39Z</time>
      </trkpt>
      <trkpt lat="46.43025" lon="5.26837">
        <ele>221</ele>
        <time>2022-06-18T04:39:44Z</time>
      </trkpt>
      <trkpt lat="46.43017" lon="5.26837">
        <ele>221.4</ele>
        <time>2022-06-18T04:39:46Z</time>
      </trkpt>
      <trkpt lat="46.42996" lon="5.26838">
        <ele>222.4</ele>
        <time>2022-06-18T04:39:51Z</time>
      </trkpt>
      <trkpt lat="46.42973" lon="5.26841">
        <ele>223.4</ele>
        <time>2022-06-18T04:39:56Z</time>
      </trkpt>
      <trkpt lat="46.42963" lon="5.26842">
        <ele>223.6</ele>
        <time>2022-06-18T04:39:58Z</time>
      </trkpt>
      <trkpt lat="46.42925" lon="5.26847">
        <ele>224.8</ele>
        <time>2022-06-18T04:40:06Z</time>
      </trkpt>
      <trkpt lat="46.42878" lon="5.26853">
        <ele>224.8</ele>
        <time>2022-06-18T04:40:15Z</time>
      </trkpt>
      <trkpt lat="46.42834" lon="5.26853">
        <ele>224.8</ele>
        <time>2022-06-18T04:40:22Z</time>
      </trkpt>
      <trkpt lat="46.42792" lon="5.26846">
        <ele>223.8</ele>
        <time>2022-06-18T04:40:28Z</time>
      </trkpt>
      <trkpt lat="46.42784" lon="5.26844">
        <ele>223.6</ele>
        <time>2022-06-18T04:40:29Z</time>
      </trkpt>
      <trkpt lat="46.4276" lon="5.26838">
        <ele>222.4</ele>
        <time>2022-06-18T04:40:32Z</time>
      </trkpt>
      <trkpt lat="46.42733" lon="5.26832">
        <ele>221.4</ele>
        <time>2022-06-18T04:40:35Z</time>
      </trkpt>
      <trkpt lat="46.42694" lon="5.26823">
        <ele>219.2</ele>
        <time>2022-06-18T04:40:39Z</time>
      </trkpt>
      <trkpt lat="46.42684" lon="5.26821">
        <ele>218</ele>
        <time>2022-06-18T04:40:40Z</time>
      </trkpt>
      <trkpt lat="46.42665" lon="5.26816">
        <ele>217.2</ele>
        <time>2022-06-18T04:40:42Z</time>
      </trkpt>
      <trkpt lat="46.42654" lon="5.26813">
        <ele>217</ele>
        <time>2022-06-18T04:40:43Z</time>
      </trkpt>
      <trkpt lat="46.42621" lon="5.26805">
        <ele>214.8</ele>
        <time>2022-06-18T04:40:46Z</time>
      </trkpt>
      <trkpt lat="46.4261" lon="5.26802">
        <ele>213.6</ele>
        <time>2022-06-18T04:40:47Z</time>
      </trkpt>
      <trkpt lat="46.42588" lon="5.26797">
        <ele>211.8</ele>
        <time>2022-06-18T04:40:49Z</time>
      </trkpt>
      <trkpt lat="46.42565" lon="5.26791">
        <ele>210.2</ele>
        <time>2022-06-18T04:40:51Z</time>
      </trkpt>
      <trkpt lat="46.42543" lon="5.26786">
        <ele>209</ele>
        <time>2022-06-18T04:40:53Z</time>
      </trkpt>
      <trkpt lat="46.42522" lon="5.26781">
        <ele>208</ele>
        <time>2022-06-18T04:40:55Z</time>
      </trkpt>
      <trkpt lat="46.42502" lon="5.26776">
        <ele>207</ele>
        <time>2022-06-18T04:40:57Z</time>
      </trkpt>
      <trkpt lat="46.42492" lon="5.26773">
        <ele>206.6</ele>
        <time>2022-06-18T04:40:58Z</time>
      </trkpt>
      <trkpt lat="46.42441" lon="5.26761">
        <ele>206.6</ele>
        <time>2022-06-18T04:41:04Z</time>
      </trkpt>
      <trkpt lat="46.42397" lon="5.26751">
        <ele>207.8</ele>
        <time>2022-06-18T04:41:10Z</time>
      </trkpt>
      <trkpt lat="46.42384" lon="5.26748">
        <ele>208.4</ele>
        <time>2022-06-18T04:41:12Z</time>
      </trkpt>
      <trkpt lat="46.42357" lon="5.2674">
        <ele>209.4</ele>
        <time>2022-06-18T04:41:16Z</time>
      </trkpt>
      <trkpt lat="46.42337" lon="5.26735">
        <ele>210.2</ele>
        <time>2022-06-18T04:41:19Z</time>
      </trkpt>
      <trkpt lat="46.42325" lon="5.26731">
        <ele>210.6</ele>
        <time>2022-06-18T04:41:21Z</time>
      </trkpt>
      <trkpt lat="46.42287" lon="5.26724">
        <ele>211.4</ele>
        <time>2022-06-18T04:41:27Z</time>
      </trkpt>
      <trkpt lat="46.42281" lon="5.26722">
        <ele>211.6</ele>
        <time>2022-06-18T04:41:28Z</time>
      </trkpt>
      <trkpt lat="46.42242" lon="5.26712">
        <ele>212.8</ele>
        <time>2022-06-18T04:41:35Z</time>
      </trkpt>
      <trkpt lat="46.42205" lon="5.26698">
        <ele>214</ele>
        <time>2022-06-18T04:41:42Z</time>
      </trkpt>
      <trkpt lat="46.42152" lon="5.26679">
        <ele>214.6</ele>
        <time>2022-06-18T04:41:51Z</time>
      </trkpt>
      <trkpt lat="46.42093" lon="5.26657">
        <ele>213.8</ele>
        <time>2022-06-18T04:42:00Z</time>
      </trkpt>
      <trkpt lat="46.42039" lon="5.26636">
        <ele>213.2</ele>
        <time>2022-06-18T04:42:08Z</time>
      </trkpt>
      <trkpt lat="46.42031" lon="5.26633">
        <ele>213</ele>
        <time>2022-06-18T04:42:09Z</time>
      </trkpt>
      <trkpt lat="46.42024" lon="5.26631">
        <ele>212.8</ele>
        <time>2022-06-18T04:42:10Z</time>
      </trkpt>
      <trkpt lat="46.41972" lon="5.26611">
        <ele>212.8</ele>
        <time>2022-06-18T04:42:18Z</time>
      </trkpt>
      <trkpt lat="46.4196" lon="5.26606">
        <ele>212.8</ele>
        <time>2022-06-18T04:42:20Z</time>
      </trkpt>
      <trkpt lat="46.41902" lon="5.26583">
        <ele>212.8</ele>
        <time>2022-06-18T04:42:29Z</time>
      </trkpt>
      <trkpt lat="46.41888" lon="5.26577">
        <ele>212.8</ele>
        <time>2022-06-18T04:42:31Z</time>
      </trkpt>
      <trkpt lat="46.41836" lon="5.26555">
        <ele>212.6</ele>
        <time>2022-06-18T04:42:39Z</time>
      </trkpt>
      <trkpt lat="46.41829" lon="5.26552">
        <ele>212</ele>
        <time>2022-06-18T04:42:40Z</time>
      </trkpt>
      <trkpt lat="46.41822" lon="5.26549">
        <ele>211.8</ele>
        <time>2022-06-18T04:42:41Z</time>
      </trkpt>
      <trkpt lat="46.41768" lon="5.26527">
        <ele>211.2</ele>
        <time>2022-06-18T04:42:49Z</time>
      </trkpt>
      <trkpt lat="46.41709" lon="5.26506">
        <ele>211.4</ele>
        <time>2022-06-18T04:42:58Z</time>
      </trkpt>
      <trkpt lat="46.41703" lon="5.26505">
        <ele>211.4</ele>
        <time>2022-06-18T04:42:59Z</time>
      </trkpt>
      <trkpt lat="46.41653" lon="5.26502">
        <ele>211</ele>
        <time>2022-06-18T04:43:07Z</time>
      </trkpt>
      <trkpt lat="46.4164" lon="5.26503">
        <ele>210.8</ele>
        <time>2022-06-18T04:43:09Z</time>
      </trkpt>
      <trkpt lat="46.41609" lon="5.26513">
        <ele>210.4</ele>
        <time>2022-06-18T04:43:14Z</time>
      </trkpt>
      <trkpt lat="46.41569" lon="5.26534">
        <ele>210.4</ele>
        <time>2022-06-18T04:43:21Z</time>
      </trkpt>
      <trkpt lat="46.41528" lon="5.26571">
        <ele>210.6</ele>
        <time>2022-06-18T04:43:29Z</time>
      </trkpt>
      <trkpt lat="46.41492" lon="5.26607">
        <ele>210.6</ele>
        <time>2022-06-18T04:43:36Z</time>
      </trkpt>
      <trkpt lat="46.41452" lon="5.2665">
        <ele>211.6</ele>
        <time>2022-06-18T04:43:45Z</time>
      </trkpt>
      <trkpt lat="46.41442" lon="5.2666">
        <ele>211.8</ele>
        <time>2022-06-18T04:43:47Z</time>
      </trkpt>
      <trkpt lat="46.41426" lon="5.26676">
        <ele>212.8</ele>
        <time>2022-06-18T04:43:51Z</time>
      </trkpt>
      <trkpt lat="46.41405" lon="5.26696">
        <ele>214</ele>
        <time>2022-06-18T04:43:56Z</time>
      </trkpt>
      <trkpt lat="46.41398" lon="5.26705">
        <ele>214.2</ele>
        <time>2022-06-18T04:43:58Z</time>
      </trkpt>
      <trkpt lat="46.41374" lon="5.26729">
        <ele>215.2</ele>
        <time>2022-06-18T04:44:04Z</time>
      </trkpt>
      <trkpt lat="46.41367" lon="5.26737">
        <ele>215.4</ele>
        <time>2022-06-18T04:44:06Z</time>
      </trkpt>
      <trkpt lat="46.41358" lon="5.26748">
        <ele>216.4</ele>
        <time>2022-06-18T04:44:09Z</time>
      </trkpt>
      <trkpt lat="46.41341" lon="5.26766">
        <ele>217.6</ele>
        <time>2022-06-18T04:44:14Z</time>
      </trkpt>
      <trkpt lat="46.41337" lon="5.26769">
        <ele>217.6</ele>
        <time>2022-06-18T04:44:15Z</time>
      </trkpt>
      <trkpt lat="46.41324" lon="5.26782">
        <ele>218.8</ele>
        <time>2022-06-18T04:44:19Z</time>
      </trkpt>
      <trkpt lat="46.41321" lon="5.26785">
        <ele>219</ele>
        <time>2022-06-18T04:44:20Z</time>
      </trkpt>
      <trkpt lat="46.41304" lon="5.26798">
        <ele>220</ele>
        <time>2022-06-18T04:44:25Z</time>
      </trkpt>
      <trkpt lat="46.41297" lon="5.26802">
        <ele>220.6</ele>
        <time>2022-06-18T04:44:27Z</time>
      </trkpt>
      <trkpt lat="46.4129" lon="5.26806">
        <ele>221.4</ele>
        <time>2022-06-18T04:44:29Z</time>
      </trkpt>
      <trkpt lat="46.41272" lon="5.26813">
        <ele>222.6</ele>
        <time>2022-06-18T04:44:34Z</time>
      </trkpt>
      <trkpt lat="46.41262" lon="5.26815">
        <ele>223</ele>
        <time>2022-06-18T04:44:37Z</time>
      </trkpt>
      <trkpt lat="46.41255" lon="5.26817">
        <ele>223.6</ele>
        <time>2022-06-18T04:44:39Z</time>
      </trkpt>
      <trkpt lat="46.41244" lon="5.26822">
        <ele>224.8</ele>
        <time>2022-06-18T04:44:42Z</time>
      </trkpt>
      <trkpt lat="46.41234" lon="5.26828">
        <ele>225.2</ele>
        <time>2022-06-18T04:44:45Z</time>
      </trkpt>
      <trkpt lat="46.41221" lon="5.26839">
        <ele>225.8</ele>
        <time>2022-06-18T04:44:49Z</time>
      </trkpt>
      <trkpt lat="46.41214" lon="5.26846">
        <ele>226.2</ele>
        <time>2022-06-18T04:44:51Z</time>
      </trkpt>
      <trkpt lat="46.41196" lon="5.26849">
        <ele>226.6</ele>
        <time>2022-06-18T04:44:56Z</time>
      </trkpt>
      <trkpt lat="46.41187" lon="5.26849">
        <ele>226.8</ele>
        <time>2022-06-18T04:44:58Z</time>
      </trkpt>
      <trkpt lat="46.41179" lon="5.26856">
        <ele>226.8</ele>
        <time>2022-06-18T04:45:00Z</time>
      </trkpt>
      <trkpt lat="46.41173" lon="5.26867">
        <ele>226.8</ele>
        <time>2022-06-18T04:45:02Z</time>
      </trkpt>
      <trkpt lat="46.4117" lon="5.26872">
        <ele>227</ele>
        <time>2022-06-18T04:45:03Z</time>
      </trkpt>
      <trkpt lat="46.41163" lon="5.26881">
        <ele>227</ele>
        <time>2022-06-18T04:45:05Z</time>
      </trkpt>
      <trkpt lat="46.41136" lon="5.26894">
        <ele>227.4</ele>
        <time>2022-06-18T04:45:11Z</time>
      </trkpt>
      <trkpt lat="46.41091" lon="5.26904">
        <ele>227.8</ele>
        <time>2022-06-18T04:45:19Z</time>
      </trkpt>
      <trkpt lat="46.41052" lon="5.26903">
        <ele>227.4</ele>
        <time>2022-06-18T04:45:25Z</time>
      </trkpt>
      <trkpt lat="46.41002" lon="5.26906">
        <ele>226</ele>
        <time>2022-06-18T04:45:32Z</time>
      </trkpt>
      <trkpt lat="46.40988" lon="5.26908">
        <ele>225.8</ele>
        <time>2022-06-18T04:45:34Z</time>
      </trkpt>
      <trkpt lat="46.40944" lon="5.26916">
        <ele>225</ele>
        <time>2022-06-18T04:45:40Z</time>
      </trkpt>
      <trkpt lat="46.40921" lon="5.26921">
        <ele>224.8</ele>
        <time>2022-06-18T04:45:43Z</time>
      </trkpt>
      <trkpt lat="46.40907" lon="5.26926">
        <ele>224.4</ele>
        <time>2022-06-18T04:45:45Z</time>
      </trkpt>
      <trkpt lat="46.40893" lon="5.26932">
        <ele>224.2</ele>
        <time>2022-06-18T04:45:47Z</time>
      </trkpt>
      <trkpt lat="46.40864" lon="5.26946">
        <ele>223.6</ele>
        <time>2022-06-18T04:45:51Z</time>
      </trkpt>
      <trkpt lat="46.40836" lon="5.26961">
        <ele>223.4</ele>
        <time>2022-06-18T04:45:55Z</time>
      </trkpt>
      <trkpt lat="46.408" lon="5.26979">
        <ele>223</ele>
        <time>2022-06-18T04:46:00Z</time>
      </trkpt>
      <trkpt lat="46.40792" lon="5.2698">
        <ele>223</ele>
        <time>2022-06-18T04:46:01Z</time>
      </trkpt>
      <trkpt lat="46.40769" lon="5.2698">
        <ele>222.4</ele>
        <time>2022-06-18T04:46:04Z</time>
      </trkpt>
      <trkpt lat="46.40755" lon="5.26978">
        <ele>222.4</ele>
        <time>2022-06-18T04:46:06Z</time>
      </trkpt>
      <trkpt lat="46.40715" lon="5.26971">
        <ele>222.2</ele>
        <time>2022-06-18T04:46:12Z</time>
      </trkpt>
      <trkpt lat="46.40666" lon="5.26961">
        <ele>223.4</ele>
        <time>2022-06-18T04:46:20Z</time>
      </trkpt>
      <trkpt lat="46.40653" lon="5.26956">
        <ele>223.8</ele>
        <time>2022-06-18T04:46:22Z</time>
      </trkpt>
      <trkpt lat="46.40633" lon="5.26946">
        <ele>224.2</ele>
        <time>2022-06-18T04:46:25Z</time>
      </trkpt>
      <trkpt lat="46.40586" lon="5.26919">
        <ele>224</ele>
        <time>2022-06-18T04:46:32Z</time>
      </trkpt>
      <trkpt lat="46.40537" lon="5.26895">
        <ele>223.2</ele>
        <time>2022-06-18T04:46:39Z</time>
      </trkpt>
      <trkpt lat="46.40514" lon="5.2689">
        <ele>222.6</ele>
        <time>2022-06-18T04:46:42Z</time>
      </trkpt>
      <trkpt lat="46.40492" lon="5.26886">
        <ele>222.4</ele>
        <time>2022-06-18T04:46:45Z</time>
      </trkpt>
      <trkpt lat="46.40459" lon="5.26882">
        <ele>222.2</ele>
        <time>2022-06-18T04:46:50Z</time>
      </trkpt>
      <trkpt lat="46.40414" lon="5.26876">
        <ele>223</ele>
        <time>2022-06-18T04:46:57Z</time>
      </trkpt>
      <trkpt lat="46.40388" lon="5.26875">
        <ele>223.6</ele>
        <time>2022-06-18T04:47:01Z</time>
      </trkpt>
      <trkpt lat="46.40368" lon="5.26879">
        <ele>223.6</ele>
        <time>2022-06-18T04:47:04Z</time>
      </trkpt>
      <trkpt lat="46.40356" lon="5.26882">
        <ele>223.8</ele>
        <time>2022-06-18T04:47:06Z</time>
      </trkpt>
      <trkpt lat="46.4033" lon="5.26886">
        <ele>223.8</ele>
        <time>2022-06-18T04:47:10Z</time>
      </trkpt>
      <trkpt lat="46.40316" lon="5.26886">
        <ele>223.8</ele>
        <time>2022-06-18T04:47:12Z</time>
      </trkpt>
      <trkpt lat="46.40257" lon="5.26889">
        <ele>224</ele>
        <time>2022-06-18T04:47:21Z</time>
      </trkpt>
      <trkpt lat="46.40251" lon="5.2689">
        <ele>224</ele>
        <time>2022-06-18T04:47:22Z</time>
      </trkpt>
      <trkpt lat="46.402" lon="5.26893">
        <ele>224.8</ele>
        <time>2022-06-18T04:47:30Z</time>
      </trkpt>
      <trkpt lat="46.40187" lon="5.26894">
        <ele>225</ele>
        <time>2022-06-18T04:47:32Z</time>
      </trkpt>
      <trkpt lat="46.40131" lon="5.26898">
        <ele>225.8</ele>
        <time>2022-06-18T04:47:41Z</time>
      </trkpt>
      <trkpt lat="46.40083" lon="5.26895">
        <ele>226.6</ele>
        <time>2022-06-18T04:47:49Z</time>
      </trkpt>
      <trkpt lat="46.40077" lon="5.26893">
        <ele>226.8</ele>
        <time>2022-06-18T04:47:50Z</time>
      </trkpt>
      <trkpt lat="46.40036" lon="5.26878">
        <ele>228</ele>
        <time>2022-06-18T04:47:57Z</time>
      </trkpt>
      <trkpt lat="46.4003" lon="5.26876">
        <ele>228.2</ele>
        <time>2022-06-18T04:47:58Z</time>
      </trkpt>
      <trkpt lat="46.39996" lon="5.2686">
        <ele>229.2</ele>
        <time>2022-06-18T04:48:04Z</time>
      </trkpt>
      <trkpt lat="46.39978" lon="5.26852">
        <ele>229.6</ele>
        <time>2022-06-18T04:48:07Z</time>
      </trkpt>
      <trkpt lat="46.39938" lon="5.26833">
        <ele>229.4</ele>
        <time>2022-06-18T04:48:13Z</time>
      </trkpt>
      <trkpt lat="46.399" lon="5.26815">
        <ele>227.4</ele>
        <time>2022-06-18T04:48:18Z</time>
      </trkpt>
      <trkpt lat="46.39883" lon="5.26809">
        <ele>226.6</ele>
        <time>2022-06-18T04:48:20Z</time>
      </trkpt>
      <trkpt lat="46.39874" lon="5.26807">
        <ele>226.2</ele>
        <time>2022-06-18T04:48:21Z</time>
      </trkpt>
      <trkpt lat="46.39847" lon="5.26807">
        <ele>225.4</ele>
        <time>2022-06-18T04:48:24Z</time>
      </trkpt>
      <trkpt lat="46.39838" lon="5.26808">
        <ele>225</ele>
        <time>2022-06-18T04:48:25Z</time>
      </trkpt>
      <trkpt lat="46.39813" lon="5.26811">
        <ele>223.8</ele>
        <time>2022-06-18T04:48:28Z</time>
      </trkpt>
      <trkpt lat="46.39788" lon="5.26816">
        <ele>223.4</ele>
        <time>2022-06-18T04:48:31Z</time>
      </trkpt>
      <trkpt lat="46.39752" lon="5.26829">
        <ele>223.2</ele>
        <time>2022-06-18T04:48:36Z</time>
      </trkpt>
      <trkpt lat="46.39713" lon="5.26838">
        <ele>223.8</ele>
        <time>2022-06-18T04:48:42Z</time>
      </trkpt>
      <trkpt lat="46.39684" lon="5.26836">
        <ele>224.8</ele>
        <time>2022-06-18T04:48:47Z</time>
      </trkpt>
      <trkpt lat="46.39646" lon="5.26829">
        <ele>225.8</ele>
        <time>2022-06-18T04:48:54Z</time>
      </trkpt>
      <trkpt lat="46.39625" lon="5.26822">
        <ele>226.6</ele>
        <time>2022-06-18T04:48:58Z</time>
      </trkpt>
      <trkpt lat="46.39619" lon="5.26822">
        <ele>226.8</ele>
        <time>2022-06-18T04:48:59Z</time>
      </trkpt>
      <trkpt lat="46.39614" lon="5.26823">
        <ele>227</ele>
        <time>2022-06-18T04:49:00Z</time>
      </trkpt>
      <trkpt lat="46.39603" lon="5.26828">
        <ele>227.2</ele>
        <time>2022-06-18T04:49:02Z</time>
      </trkpt>
      <trkpt lat="46.39598" lon="5.26832">
        <ele>227.4</ele>
        <time>2022-06-18T04:49:03Z</time>
      </trkpt>
      <trkpt lat="46.39593" lon="5.26837">
        <ele>227.6</ele>
        <time>2022-06-18T04:49:04Z</time>
      </trkpt>
      <trkpt lat="46.39587" lon="5.26849">
        <ele>227.8</ele>
        <time>2022-06-18T04:49:06Z</time>
      </trkpt>
      <trkpt lat="46.39584" lon="5.26856">
        <ele>228</ele>
        <time>2022-06-18T04:49:07Z</time>
      </trkpt>
      <trkpt lat="46.39578" lon="5.26877">
        <ele>228.2</ele>
        <time>2022-06-18T04:49:10Z</time>
      </trkpt>
      <trkpt lat="46.39571" lon="5.26889">
        <ele>228.6</ele>
        <time>2022-06-18T04:49:12Z</time>
      </trkpt>
      <trkpt lat="46.39562" lon="5.26898">
        <ele>229</ele>
        <time>2022-06-18T04:49:14Z</time>
      </trkpt>
      <trkpt lat="46.39541" lon="5.26912">
        <ele>229.6</ele>
        <time>2022-06-18T04:49:18Z</time>
      </trkpt>
      <trkpt lat="46.39506" lon="5.2693">
        <ele>230.2</ele>
        <time>2022-06-18T04:49:24Z</time>
      </trkpt>
      <trkpt lat="46.395" lon="5.26935">
        <ele>230.2</ele>
        <time>2022-06-18T04:49:25Z</time>
      </trkpt>
      <trkpt lat="46.39496" lon="5.26942">
        <ele>230.2</ele>
        <time>2022-06-18T04:49:26Z</time>
      </trkpt>
      <trkpt lat="46.39487" lon="5.26957">
        <ele>230.2</ele>
        <time>2022-06-18T04:49:28Z</time>
      </trkpt>
      <trkpt lat="46.39479" lon="5.26973">
        <ele>230.2</ele>
        <time>2022-06-18T04:49:30Z</time>
      </trkpt>
      <trkpt lat="46.39455" lon="5.2703">
        <ele>229</ele>
        <time>2022-06-18T04:49:36Z</time>
      </trkpt>
      <trkpt lat="46.39437" lon="5.27093">
        <ele>228</ele>
        <time>2022-06-18T04:49:42Z</time>
      </trkpt>
      <trkpt lat="46.39432" lon="5.27101">
        <ele>227.6</ele>
        <time>2022-06-18T04:49:43Z</time>
      </trkpt>
      <trkpt lat="46.39426" lon="5.27109">
        <ele>227.4</ele>
        <time>2022-06-18T04:49:44Z</time>
      </trkpt>
      <trkpt lat="46.39414" lon="5.27118">
        <ele>227.2</ele>
        <time>2022-06-18T04:49:46Z</time>
      </trkpt>
      <trkpt lat="46.39362" lon="5.27152">
        <ele>227.4</ele>
        <time>2022-06-18T04:49:54Z</time>
      </trkpt>
      <trkpt lat="46.39321" lon="5.27178">
        <ele>228</ele>
        <time>2022-06-18T04:50:01Z</time>
      </trkpt>
      <trkpt lat="46.39281" lon="5.27199">
        <ele>228.2</ele>
        <time>2022-06-18T04:50:08Z</time>
      </trkpt>
      <trkpt lat="46.39248" lon="5.27217">
        <ele>228.8</ele>
        <time>2022-06-18T04:50:14Z</time>
      </trkpt>
      <trkpt lat="46.39238" lon="5.27226">
        <ele>228.8</ele>
        <time>2022-06-18T04:50:16Z</time>
      </trkpt>
      <trkpt lat="46.39229" lon="5.27237">
        <ele>229</ele>
        <time>2022-06-18T04:50:18Z</time>
      </trkpt>
      <trkpt lat="46.39225" lon="5.27244">
        <ele>229</ele>
        <time>2022-06-18T04:50:19Z</time>
      </trkpt>
      <trkpt lat="46.39212" lon="5.2728">
        <ele>229.2</ele>
        <time>2022-06-18T04:50:24Z</time>
      </trkpt>
      <trkpt lat="46.39205" lon="5.27304">
        <ele>230</ele>
        <time>2022-06-18T04:50:27Z</time>
      </trkpt>
      <trkpt lat="46.39193" lon="5.27344">
        <ele>230.6</ele>
        <time>2022-06-18T04:50:32Z</time>
      </trkpt>
      <trkpt lat="46.39181" lon="5.27377">
        <ele>230.8</ele>
        <time>2022-06-18T04:50:36Z</time>
      </trkpt>
      <trkpt lat="46.39173" lon="5.27392">
        <ele>230.6</ele>
        <time>2022-06-18T04:50:38Z</time>
      </trkpt>
      <trkpt lat="46.39168" lon="5.27398">
        <ele>230.6</ele>
        <time>2022-06-18T04:50:39Z</time>
      </trkpt>
      <trkpt lat="46.39147" lon="5.27418">
        <ele>230.4</ele>
        <time>2022-06-18T04:50:43Z</time>
      </trkpt>
      <trkpt lat="46.39095" lon="5.27458">
        <ele>230.8</ele>
        <time>2022-06-18T04:50:52Z</time>
      </trkpt>
      <trkpt lat="46.39079" lon="5.2747">
        <ele>231</ele>
        <time>2022-06-18T04:50:55Z</time>
      </trkpt>
      <trkpt lat="46.39069" lon="5.27478">
        <ele>231.2</ele>
        <time>2022-06-18T04:50:57Z</time>
      </trkpt>
      <trkpt lat="46.39042" lon="5.27497">
        <ele>230.8</ele>
        <time>2022-06-18T04:51:02Z</time>
      </trkpt>
      <trkpt lat="46.39032" lon="5.27505">
        <ele>230.6</ele>
        <time>2022-06-18T04:51:04Z</time>
      </trkpt>
      <trkpt lat="46.39027" lon="5.27509">
        <ele>230.6</ele>
        <time>2022-06-18T04:51:05Z</time>
      </trkpt>
      <trkpt lat="46.39005" lon="5.27523">
        <ele>230.6</ele>
        <time>2022-06-18T04:51:09Z</time>
      </trkpt>
      <trkpt lat="46.38981" lon="5.2754">
        <ele>231.6</ele>
        <time>2022-06-18T04:51:14Z</time>
      </trkpt>
      <trkpt lat="46.38975" lon="5.27543">
        <ele>231.6</ele>
        <time>2022-06-18T04:51:15Z</time>
      </trkpt>
      <trkpt lat="46.3895" lon="5.27557">
        <ele>232</ele>
        <time>2022-06-18T04:51:19Z</time>
      </trkpt>
      <trkpt lat="46.38943" lon="5.2756">
        <ele>232</ele>
        <time>2022-06-18T04:51:20Z</time>
      </trkpt>
      <trkpt lat="46.38937" lon="5.27561">
        <ele>232</ele>
        <time>2022-06-18T04:51:21Z</time>
      </trkpt>
      <trkpt lat="46.38923" lon="5.27567">
        <ele>232</ele>
        <time>2022-06-18T04:51:23Z</time>
      </trkpt>
      <trkpt lat="46.38909" lon="5.27573">
        <ele>232</ele>
        <time>2022-06-18T04:51:25Z</time>
      </trkpt>
      <trkpt lat="46.38903" lon="5.27574">
        <ele>232.2</ele>
        <time>2022-06-18T04:51:26Z</time>
      </trkpt>
      <trkpt lat="46.38895" lon="5.27574">
        <ele>232</ele>
        <time>2022-06-18T04:51:27Z</time>
      </trkpt>
      <trkpt lat="46.38885" lon="5.27564">
        <ele>232</ele>
        <time>2022-06-18T04:51:29Z</time>
      </trkpt>
      <trkpt lat="46.38878" lon="5.27556">
        <ele>232</ele>
        <time>2022-06-18T04:51:31Z</time>
      </trkpt>
      <trkpt lat="46.38861" lon="5.27548">
        <ele>232</ele>
        <time>2022-06-18T04:51:34Z</time>
      </trkpt>
      <trkpt lat="46.38855" lon="5.27544">
        <ele>232</ele>
        <time>2022-06-18T04:51:35Z</time>
      </trkpt>
      <trkpt lat="46.38811" lon="5.2752">
        <ele>232.4</ele>
        <time>2022-06-18T04:51:42Z</time>
      </trkpt>
      <trkpt lat="46.38806" lon="5.27516">
        <ele>232.4</ele>
        <time>2022-06-18T04:51:43Z</time>
      </trkpt>
      <trkpt lat="46.38765" lon="5.27495">
        <ele>232.8</ele>
        <time>2022-06-18T04:51:50Z</time>
      </trkpt>
      <trkpt lat="46.38753" lon="5.27489">
        <ele>232.8</ele>
        <time>2022-06-18T04:51:52Z</time>
      </trkpt>
      <trkpt lat="46.38741" lon="5.27483">
        <ele>233</ele>
        <time>2022-06-18T04:51:54Z</time>
      </trkpt>
      <trkpt lat="46.38711" lon="5.27459">
        <ele>233.4</ele>
        <time>2022-06-18T04:52:00Z</time>
      </trkpt>
      <trkpt lat="46.38678" lon="5.27431">
        <ele>233.8</ele>
        <time>2022-06-18T04:52:07Z</time>
      </trkpt>
      <trkpt lat="46.38673" lon="5.27427">
        <ele>233.8</ele>
        <time>2022-06-18T04:52:08Z</time>
      </trkpt>
      <trkpt lat="46.38652" lon="5.27411">
        <ele>234.4</ele>
        <time>2022-06-18T04:52:12Z</time>
      </trkpt>
      <trkpt lat="46.38641" lon="5.27407">
        <ele>234.6</ele>
        <time>2022-06-18T04:52:14Z</time>
      </trkpt>
      <trkpt lat="46.38624" lon="5.27416">
        <ele>234.6</ele>
        <time>2022-06-18T04:52:17Z</time>
      </trkpt>
      <trkpt lat="46.38607" lon="5.27444">
        <ele>234.6</ele>
        <time>2022-06-18T04:52:21Z</time>
      </trkpt>
      <trkpt lat="46.38575" lon="5.27479">
        <ele>233.2</ele>
        <time>2022-06-18T04:52:26Z</time>
      </trkpt>
      <trkpt lat="46.38567" lon="5.27484">
        <ele>232.8</ele>
        <time>2022-06-18T04:52:27Z</time>
      </trkpt>
      <trkpt lat="46.38548" lon="5.27495">
        <ele>231.2</ele>
        <time>2022-06-18T04:52:29Z</time>
      </trkpt>
      <trkpt lat="46.38539" lon="5.275">
        <ele>230.6</ele>
        <time>2022-06-18T04:52:30Z</time>
      </trkpt>
      <trkpt lat="46.38528" lon="5.27506">
        <ele>230</ele>
        <time>2022-06-18T04:52:31Z</time>
      </trkpt>
      <trkpt lat="46.38519" lon="5.27513">
        <ele>229</ele>
        <time>2022-06-18T04:52:32Z</time>
      </trkpt>
      <trkpt lat="46.38498" lon="5.27529">
        <ele>227.2</ele>
        <time>2022-06-18T04:52:34Z</time>
      </trkpt>
      <trkpt lat="46.38479" lon="5.27551">
        <ele>225.4</ele>
        <time>2022-06-18T04:52:36Z</time>
      </trkpt>
      <trkpt lat="46.3846" lon="5.27574">
        <ele>223.4</ele>
        <time>2022-06-18T04:52:38Z</time>
      </trkpt>
      <trkpt lat="46.38451" lon="5.27585">
        <ele>222.2</ele>
        <time>2022-06-18T04:52:39Z</time>
      </trkpt>
      <trkpt lat="46.38433" lon="5.27607">
        <ele>219.8</ele>
        <time>2022-06-18T04:52:41Z</time>
      </trkpt>
      <trkpt lat="46.38414" lon="5.27631">
        <ele>218.2</ele>
        <time>2022-06-18T04:52:43Z</time>
      </trkpt>
      <trkpt lat="46.38398" lon="5.27649">
        <ele>216.8</ele>
        <time>2022-06-18T04:52:45Z</time>
      </trkpt>
      <trkpt lat="46.38388" lon="5.27658">
        <ele>216</ele>
        <time>2022-06-18T04:52:46Z</time>
      </trkpt>
      <trkpt lat="46.38378" lon="5.27666">
        <ele>215.8</ele>
        <time>2022-06-18T04:52:47Z</time>
      </trkpt>
      <trkpt lat="46.38348" lon="5.27687">
        <ele>214.2</ele>
        <time>2022-06-18T04:52:50Z</time>
      </trkpt>
      <trkpt lat="46.38338" lon="5.27694">
        <ele>213.8</ele>
        <time>2022-06-18T04:52:51Z</time>
      </trkpt>
      <trkpt lat="46.38319" lon="5.27708">
        <ele>213</ele>
        <time>2022-06-18T04:52:53Z</time>
      </trkpt>
      <trkpt lat="46.38289" lon="5.27723">
        <ele>212</ele>
        <time>2022-06-18T04:52:56Z</time>
      </trkpt>
      <trkpt lat="46.38279" lon="5.27726">
        <ele>211.6</ele>
        <time>2022-06-18T04:52:57Z</time>
      </trkpt>
      <trkpt lat="46.38231" lon="5.27742">
        <ele>210.8</ele>
        <time>2022-06-18T04:53:02Z</time>
      </trkpt>
      <trkpt lat="46.38198" lon="5.27766">
        <ele>210.6</ele>
        <time>2022-06-18T04:53:06Z</time>
      </trkpt>
      <trkpt lat="46.3819" lon="5.27773">
        <ele>210.6</ele>
        <time>2022-06-18T04:53:07Z</time>
      </trkpt>
      <trkpt lat="46.38178" lon="5.27792">
        <ele>210.4</ele>
        <time>2022-06-18T04:53:09Z</time>
      </trkpt>
      <trkpt lat="46.38175" lon="5.27803">
        <ele>210.4</ele>
        <time>2022-06-18T04:53:10Z</time>
      </trkpt>
      <trkpt lat="46.38173" lon="5.27818">
        <ele>210</ele>
        <time>2022-06-18T04:53:11Z</time>
      </trkpt>
      <trkpt lat="46.38172" lon="5.2784">
        <ele>209.6</ele>
        <time>2022-06-18T04:53:13Z</time>
      </trkpt>
      <trkpt lat="46.38165" lon="5.27911">
        <ele>209.6</ele>
        <time>2022-06-18T04:53:19Z</time>
      </trkpt>
      <trkpt lat="46.3816" lon="5.27954">
        <ele>209.8</ele>
        <time>2022-06-18T04:53:23Z</time>
      </trkpt>
      <trkpt lat="46.38155" lon="5.27973">
        <ele>210</ele>
        <time>2022-06-18T04:53:25Z</time>
      </trkpt>
      <trkpt lat="46.38149" lon="5.2799">
        <ele>210.2</ele>
        <time>2022-06-18T04:53:27Z</time>
      </trkpt>
      <trkpt lat="46.38141" lon="5.28004">
        <ele>210.4</ele>
        <time>2022-06-18T04:53:29Z</time>
      </trkpt>
      <trkpt lat="46.38137" lon="5.2801">
        <ele>210.6</ele>
        <time>2022-06-18T04:53:30Z</time>
      </trkpt>
      <trkpt lat="46.38098" lon="5.28064">
        <ele>211.6</ele>
        <time>2022-06-18T04:53:38Z</time>
      </trkpt>
      <trkpt lat="46.38094" lon="5.28071">
        <ele>211.6</ele>
        <time>2022-06-18T04:53:39Z</time>
      </trkpt>
      <trkpt lat="46.38057" lon="5.28126">
        <ele>212.6</ele>
        <time>2022-06-18T04:53:48Z</time>
      </trkpt>
      <trkpt lat="46.38036" lon="5.28159">
        <ele>213.4</ele>
        <time>2022-06-18T04:53:54Z</time>
      </trkpt>
      <trkpt lat="46.38032" lon="5.28164">
        <ele>213.8</ele>
        <time>2022-06-18T04:53:55Z</time>
      </trkpt>
      <trkpt lat="46.38025" lon="5.28171">
        <ele>214</ele>
        <time>2022-06-18T04:53:57Z</time>
      </trkpt>
      <trkpt lat="46.38017" lon="5.28176">
        <ele>214.8</ele>
        <time>2022-06-18T04:53:59Z</time>
      </trkpt>
      <trkpt lat="46.38014" lon="5.28178">
        <ele>214.8</ele>
        <time>2022-06-18T04:54:00Z</time>
      </trkpt>
      <trkpt lat="46.38008" lon="5.28183">
        <ele>216</ele>
        <time>2022-06-18T04:54:02Z</time>
      </trkpt>
      <trkpt lat="46.37995" lon="5.28192">
        <ele>217.6</ele>
        <time>2022-06-18T04:54:06Z</time>
      </trkpt>
      <trkpt lat="46.37991" lon="5.28195">
        <ele>217.8</ele>
        <time>2022-06-18T04:54:07Z</time>
      </trkpt>
      <trkpt lat="46.37985" lon="5.28199">
        <ele>218.8</ele>
        <time>2022-06-18T04:54:09Z</time>
      </trkpt>
      <trkpt lat="46.37975" lon="5.28206">
        <ele>219.4</ele>
        <time>2022-06-18T04:54:12Z</time>
      </trkpt>
      <trkpt lat="46.37972" lon="5.28204">
        <ele>219.6</ele>
        <time>2022-06-18T04:54:13Z</time>
      </trkpt>
      <trkpt lat="46.37966" lon="5.28197">
        <ele>219.8</ele>
        <time>2022-06-18T04:54:15Z</time>
      </trkpt>
      <trkpt lat="46.37953" lon="5.28188">
        <ele>220.4</ele>
        <time>2022-06-18T04:54:18Z</time>
      </trkpt>
      <trkpt lat="46.3793" lon="5.28174">
        <ele>220.8</ele>
        <time>2022-06-18T04:54:23Z</time>
      </trkpt>
      <trkpt lat="46.37915" lon="5.28163">
        <ele>221</ele>
        <time>2022-06-18T04:54:26Z</time>
      </trkpt>
      <trkpt lat="46.37881" lon="5.28135">
        <ele>220.6</ele>
        <time>2022-06-18T04:54:32Z</time>
      </trkpt>
      <trkpt lat="46.37857" lon="5.28119">
        <ele>219.8</ele>
        <time>2022-06-18T04:54:36Z</time>
      </trkpt>
      <trkpt lat="46.37851" lon="5.28115">
        <ele>219.8</ele>
        <time>2022-06-18T04:54:37Z</time>
      </trkpt>
      <trkpt lat="46.37844" lon="5.28112">
        <ele>219.6</ele>
        <time>2022-06-18T04:54:38Z</time>
      </trkpt>
      <trkpt lat="46.37825" lon="5.28102">
        <ele>219.4</ele>
        <time>2022-06-18T04:54:41Z</time>
      </trkpt>
      <trkpt lat="46.37814" lon="5.28095">
        <ele>219.4</ele>
        <time>2022-06-18T04:54:43Z</time>
      </trkpt>
      <trkpt lat="46.37809" lon="5.28092">
        <ele>219.4</ele>
        <time>2022-06-18T04:54:44Z</time>
      </trkpt>
      <trkpt lat="46.37791" lon="5.28073">
        <ele>219.8</ele>
        <time>2022-06-18T04:54:48Z</time>
      </trkpt>
      <trkpt lat="46.37784" lon="5.28061">
        <ele>220.2</ele>
        <time>2022-06-18T04:54:50Z</time>
      </trkpt>
      <trkpt lat="46.37779" lon="5.28049">
        <ele>220.6</ele>
        <time>2022-06-18T04:54:52Z</time>
      </trkpt>
      <trkpt lat="46.37774" lon="5.28039">
        <ele>220.8</ele>
        <time>2022-06-18T04:54:54Z</time>
      </trkpt>
      <trkpt lat="46.37764" lon="5.28019">
        <ele>222</ele>
        <time>2022-06-18T04:54:58Z</time>
      </trkpt>
      <trkpt lat="46.37753" lon="5.28003">
        <ele>222.8</ele>
        <time>2022-06-18T04:55:01Z</time>
      </trkpt>
      <trkpt lat="46.37749" lon="5.27998">
        <ele>223</ele>
        <time>2022-06-18T04:55:02Z</time>
      </trkpt>
      <trkpt lat="46.37745" lon="5.27993">
        <ele>223.2</ele>
        <time>2022-06-18T04:55:03Z</time>
      </trkpt>
      <trkpt lat="46.37725" lon="5.27958">
        <ele>223.4</ele>
        <time>2022-06-18T04:55:08Z</time>
      </trkpt>
      <trkpt lat="46.37721" lon="5.2795">
        <ele>223.4</ele>
        <time>2022-06-18T04:55:09Z</time>
      </trkpt>
      <trkpt lat="46.37716" lon="5.27942">
        <ele>223.2</ele>
        <time>2022-06-18T04:55:10Z</time>
      </trkpt>
      <trkpt lat="46.37704" lon="5.27928">
        <ele>223</ele>
        <time>2022-06-18T04:55:12Z</time>
      </trkpt>
      <trkpt lat="46.37698" lon="5.27922">
        <ele>222.8</ele>
        <time>2022-06-18T04:55:13Z</time>
      </trkpt>
      <trkpt lat="46.37664" lon="5.27899">
        <ele>221.8</ele>
        <time>2022-06-18T04:55:18Z</time>
      </trkpt>
      <trkpt lat="46.37659" lon="5.27894">
        <ele>221.8</ele>
        <time>2022-06-18T04:55:19Z</time>
      </trkpt>
      <trkpt lat="46.37635" lon="5.27868">
        <ele>222</ele>
        <time>2022-06-18T04:55:24Z</time>
      </trkpt>
      <trkpt lat="46.37616" lon="5.27846">
        <ele>222.8</ele>
        <time>2022-06-18T04:55:28Z</time>
      </trkpt>
      <trkpt lat="46.37612" lon="5.2784">
        <ele>223</ele>
        <time>2022-06-18T04:55:29Z</time>
      </trkpt>
      <trkpt lat="46.37609" lon="5.27832">
        <ele>223.2</ele>
        <time>2022-06-18T04:55:30Z</time>
      </trkpt>
      <trkpt lat="46.37591" lon="5.27783">
        <ele>224</ele>
        <time>2022-06-18T04:55:36Z</time>
      </trkpt>
      <trkpt lat="46.37571" lon="5.27726">
        <ele>222.6</ele>
        <time>2022-06-18T04:55:42Z</time>
      </trkpt>
      <trkpt lat="46.3756" lon="5.27713">
        <ele>222.4</ele>
        <time>2022-06-18T04:55:44Z</time>
      </trkpt>
      <trkpt lat="46.37553" lon="5.2771">
        <ele>222.2</ele>
        <time>2022-06-18T04:55:45Z</time>
      </trkpt>
      <trkpt lat="46.37546" lon="5.27707">
        <ele>222</ele>
        <time>2022-06-18T04:55:46Z</time>
      </trkpt>
      <trkpt lat="46.37533" lon="5.27705">
        <ele>220.8</ele>
        <time>2022-06-18T04:55:48Z</time>
      </trkpt>
      <trkpt lat="46.37513" lon="5.27701">
        <ele>220.4</ele>
        <time>2022-06-18T04:55:51Z</time>
      </trkpt>
      <trkpt lat="46.37475" lon="5.27692">
        <ele>220.4</ele>
        <time>2022-06-18T04:55:57Z</time>
      </trkpt>
      <trkpt lat="46.37439" lon="5.27674">
        <ele>221.2</ele>
        <time>2022-06-18T04:56:03Z</time>
      </trkpt>
      <trkpt lat="46.37417" lon="5.27658">
        <ele>221.2</ele>
        <time>2022-06-18T04:56:07Z</time>
      </trkpt>
      <trkpt lat="46.37411" lon="5.27655">
        <ele>221.4</ele>
        <time>2022-06-18T04:56:08Z</time>
      </trkpt>
      <trkpt lat="46.37372" lon="5.27644">
        <ele>221.6</ele>
        <time>2022-06-18T04:56:15Z</time>
      </trkpt>
      <trkpt lat="46.37367" lon="5.27641">
        <ele>221.6</ele>
        <time>2022-06-18T04:56:16Z</time>
      </trkpt>
      <trkpt lat="46.37362" lon="5.27637">
        <ele>221.8</ele>
        <time>2022-06-18T04:56:17Z</time>
      </trkpt>
      <trkpt lat="46.37358" lon="5.27632">
        <ele>222</ele>
        <time>2022-06-18T04:56:18Z</time>
      </trkpt>
      <trkpt lat="46.37356" lon="5.27624">
        <ele>222</ele>
        <time>2022-06-18T04:56:19Z</time>
      </trkpt>
      <trkpt lat="46.37356" lon="5.27614">
        <ele>222</ele>
        <time>2022-06-18T04:56:20Z</time>
      </trkpt>
      <trkpt lat="46.37358" lon="5.27591">
        <ele>222</ele>
        <time>2022-06-18T04:56:22Z</time>
      </trkpt>
      <trkpt lat="46.37365" lon="5.27553">
        <ele>221.2</ele>
        <time>2022-06-18T04:56:25Z</time>
      </trkpt>
      <trkpt lat="46.3737" lon="5.27528">
        <ele>220</ele>
        <time>2022-06-18T04:56:27Z</time>
      </trkpt>
      <trkpt lat="46.37376" lon="5.27505">
        <ele>218.8</ele>
        <time>2022-06-18T04:56:29Z</time>
      </trkpt>
      <trkpt lat="46.37384" lon="5.27485">
        <ele>218.4</ele>
        <time>2022-06-18T04:56:31Z</time>
      </trkpt>
      <trkpt lat="46.37387" lon="5.27475">
        <ele>218.2</ele>
        <time>2022-06-18T04:56:32Z</time>
      </trkpt>
      <trkpt lat="46.37396" lon="5.27456">
        <ele>217.8</ele>
        <time>2022-06-18T04:56:34Z</time>
      </trkpt>
      <trkpt lat="46.37402" lon="5.27447">
        <ele>217.8</ele>
        <time>2022-06-18T04:56:35Z</time>
      </trkpt>
      <trkpt lat="46.37414" lon="5.27431">
        <ele>217.8</ele>
        <time>2022-06-18T04:56:37Z</time>
      </trkpt>
      <trkpt lat="46.37429" lon="5.2742">
        <ele>217.6</ele>
        <time>2022-06-18T04:56:39Z</time>
      </trkpt>
      <trkpt lat="46.37435" lon="5.27415">
        <ele>217.6</ele>
        <time>2022-06-18T04:56:40Z</time>
      </trkpt>
      <trkpt lat="46.37445" lon="5.27401">
        <ele>217.6</ele>
        <time>2022-06-18T04:56:42Z</time>
      </trkpt>
      <trkpt lat="46.37454" lon="5.27387">
        <ele>217.6</ele>
        <time>2022-06-18T04:56:44Z</time>
      </trkpt>
      <trkpt lat="46.37462" lon="5.27369">
        <ele>217.6</ele>
        <time>2022-06-18T04:56:46Z</time>
      </trkpt>
      <trkpt lat="46.37468" lon="5.27348">
        <ele>217.6</ele>
        <time>2022-06-18T04:56:48Z</time>
      </trkpt>
      <trkpt lat="46.37472" lon="5.27324">
        <ele>217.4</ele>
        <time>2022-06-18T04:56:50Z</time>
      </trkpt>
      <trkpt lat="46.37473" lon="5.27299">
        <ele>217.2</ele>
        <time>2022-06-18T04:56:52Z</time>
      </trkpt>
      <trkpt lat="46.37471" lon="5.27271">
        <ele>216</ele>
        <time>2022-06-18T04:56:54Z</time>
      </trkpt>
      <trkpt lat="46.37471" lon="5.27257">
        <ele>215.8</ele>
        <time>2022-06-18T04:56:55Z</time>
      </trkpt>
      <trkpt lat="46.37476" lon="5.27229">
        <ele>214</ele>
        <time>2022-06-18T04:56:57Z</time>
      </trkpt>
      <trkpt lat="46.37479" lon="5.272">
        <ele>212.6</ele>
        <time>2022-06-18T04:56:59Z</time>
      </trkpt>
      <trkpt lat="46.37478" lon="5.27186">
        <ele>212.2</ele>
        <time>2022-06-18T04:57:00Z</time>
      </trkpt>
      <trkpt lat="46.37476" lon="5.27172">
        <ele>211.4</ele>
        <time>2022-06-18T04:57:01Z</time>
      </trkpt>
      <trkpt lat="46.37466" lon="5.27122">
        <ele>210.6</ele>
        <time>2022-06-18T04:57:05Z</time>
      </trkpt>
      <trkpt lat="46.37463" lon="5.2711">
        <ele>210.4</ele>
        <time>2022-06-18T04:57:06Z</time>
      </trkpt>
      <trkpt lat="46.37455" lon="5.27075">
        <ele>210</ele>
        <time>2022-06-18T04:57:09Z</time>
      </trkpt>
      <trkpt lat="46.37451" lon="5.27065">
        <ele>210</ele>
        <time>2022-06-18T04:57:10Z</time>
      </trkpt>
      <trkpt lat="46.37446" lon="5.27056">
        <ele>210</ele>
        <time>2022-06-18T04:57:11Z</time>
      </trkpt>
      <trkpt lat="46.37439" lon="5.2705">
        <ele>209.8</ele>
        <time>2022-06-18T04:57:12Z</time>
      </trkpt>
      <trkpt lat="46.37431" lon="5.27047">
        <ele>209.8</ele>
        <time>2022-06-18T04:57:13Z</time>
      </trkpt>
      <trkpt lat="46.37422" lon="5.27047">
        <ele>209.8</ele>
        <time>2022-06-18T04:57:14Z</time>
      </trkpt>
      <trkpt lat="46.37413" lon="5.27051">
        <ele>209.6</ele>
        <time>2022-06-18T04:57:15Z</time>
      </trkpt>
      <trkpt lat="46.37397" lon="5.27066">
        <ele>209.2</ele>
        <time>2022-06-18T04:57:17Z</time>
      </trkpt>
      <trkpt lat="46.37375" lon="5.27093">
        <ele>208.2</ele>
        <time>2022-06-18T04:57:20Z</time>
      </trkpt>
      <trkpt lat="46.37366" lon="5.27101">
        <ele>207.6</ele>
        <time>2022-06-18T04:57:21Z</time>
      </trkpt>
      <trkpt lat="46.37357" lon="5.27107">
        <ele>207.2</ele>
        <time>2022-06-18T04:57:22Z</time>
      </trkpt>
      <trkpt lat="46.37338" lon="5.27119">
        <ele>206.4</ele>
        <time>2022-06-18T04:57:24Z</time>
      </trkpt>
      <trkpt lat="46.3732" lon="5.27131">
        <ele>205</ele>
        <time>2022-06-18T04:57:26Z</time>
      </trkpt>
      <trkpt lat="46.37301" lon="5.27143">
        <ele>204</ele>
        <time>2022-06-18T04:57:28Z</time>
      </trkpt>
      <trkpt lat="46.37283" lon="5.27155">
        <ele>203</ele>
        <time>2022-06-18T04:57:30Z</time>
      </trkpt>
      <trkpt lat="46.37241" lon="5.27183">
        <ele>202</ele>
        <time>2022-06-18T04:57:35Z</time>
      </trkpt>
      <trkpt lat="46.37232" lon="5.27188">
        <ele>201.8</ele>
        <time>2022-06-18T04:57:36Z</time>
      </trkpt>
      <trkpt lat="46.37193" lon="5.27211">
        <ele>201.8</ele>
        <time>2022-06-18T04:57:41Z</time>
      </trkpt>
      <trkpt lat="46.37177" lon="5.2721">
        <ele>201.6</ele>
        <time>2022-06-18T04:57:43Z</time>
      </trkpt>
      <trkpt lat="46.37169" lon="5.27207">
        <ele>201.6</ele>
        <time>2022-06-18T04:57:44Z</time>
      </trkpt>
      <trkpt lat="46.37147" lon="5.27192">
        <ele>201.6</ele>
        <time>2022-06-18T04:57:47Z</time>
      </trkpt>
      <trkpt lat="46.37139" lon="5.2719">
        <ele>201.6</ele>
        <time>2022-06-18T04:57:48Z</time>
      </trkpt>
      <trkpt lat="46.37131" lon="5.27189">
        <ele>201.6</ele>
        <time>2022-06-18T04:57:49Z</time>
      </trkpt>
      <trkpt lat="46.37109" lon="5.27194">
        <ele>201.4</ele>
        <time>2022-06-18T04:57:52Z</time>
      </trkpt>
      <trkpt lat="46.37056" lon="5.27208">
        <ele>201</ele>
        <time>2022-06-18T04:57:59Z</time>
      </trkpt>
      <trkpt lat="46.37042" lon="5.27211">
        <ele>200.8</ele>
        <time>2022-06-18T04:58:01Z</time>
      </trkpt>
      <trkpt lat="46.37007" lon="5.27217">
        <ele>200.8</ele>
        <time>2022-06-18T04:58:06Z</time>
      </trkpt>
      <trkpt lat="46.37" lon="5.27216">
        <ele>200.8</ele>
        <time>2022-06-18T04:58:07Z</time>
      </trkpt>
      <trkpt lat="46.36993" lon="5.27215">
        <ele>200.8</ele>
        <time>2022-06-18T04:58:08Z</time>
      </trkpt>
      <trkpt lat="46.36981" lon="5.27204">
        <ele>201</ele>
        <time>2022-06-18T04:58:10Z</time>
      </trkpt>
      <trkpt lat="46.36967" lon="5.2717">
        <ele>201</ele>
        <time>2022-06-18T04:58:14Z</time>
      </trkpt>
      <trkpt lat="46.36943" lon="5.2712">
        <ele>201.2</ele>
        <time>2022-06-18T04:58:20Z</time>
      </trkpt>
      <trkpt lat="46.36938" lon="5.27112">
        <ele>201.2</ele>
        <time>2022-06-18T04:58:21Z</time>
      </trkpt>
      <trkpt lat="46.36926" lon="5.271">
        <ele>201</ele>
        <time>2022-06-18T04:58:23Z</time>
      </trkpt>
      <trkpt lat="46.36919" lon="5.27096">
        <ele>201</ele>
        <time>2022-06-18T04:58:24Z</time>
      </trkpt>
      <trkpt lat="46.36912" lon="5.27093">
        <ele>200.8</ele>
        <time>2022-06-18T04:58:25Z</time>
      </trkpt>
      <trkpt lat="46.36897" lon="5.2709">
        <ele>200.6</ele>
        <time>2022-06-18T04:58:27Z</time>
      </trkpt>
      <trkpt lat="46.3689" lon="5.2709">
        <ele>200.6</ele>
        <time>2022-06-18T04:58:28Z</time>
      </trkpt>
      <trkpt lat="46.36869" lon="5.27086">
        <ele>200.6</ele>
        <time>2022-06-18T04:58:31Z</time>
      </trkpt>
      <trkpt lat="46.36856" lon="5.2708">
        <ele>200.6</ele>
        <time>2022-06-18T04:58:33Z</time>
      </trkpt>
      <trkpt lat="46.36813" lon="5.27049">
        <ele>200.6</ele>
        <time>2022-06-18T04:58:40Z</time>
      </trkpt>
      <trkpt lat="46.36759" lon="5.27011">
        <ele>200.6</ele>
        <time>2022-06-18T04:58:49Z</time>
      </trkpt>
      <trkpt lat="46.36747" lon="5.27003">
        <ele>200.6</ele>
        <time>2022-06-18T04:58:51Z</time>
      </trkpt>
      <trkpt lat="46.36742" lon="5.26998">
        <ele>200.6</ele>
        <time>2022-06-18T04:58:52Z</time>
      </trkpt>
      <trkpt lat="46.36731" lon="5.26985">
        <ele>200.6</ele>
        <time>2022-06-18T04:58:54Z</time>
      </trkpt>
      <trkpt lat="46.36727" lon="5.26978">
        <ele>200.6</ele>
        <time>2022-06-18T04:58:55Z</time>
      </trkpt>
      <trkpt lat="46.36724" lon="5.2697">
        <ele>200.6</ele>
        <time>2022-06-18T04:58:56Z</time>
      </trkpt>
      <trkpt lat="46.36719" lon="5.26953">
        <ele>200.6</ele>
        <time>2022-06-18T04:58:58Z</time>
      </trkpt>
      <trkpt lat="46.36718" lon="5.26945">
        <ele>200.6</ele>
        <time>2022-06-18T04:58:59Z</time>
      </trkpt>
      <trkpt lat="46.36719" lon="5.26906">
        <ele>200.8</ele>
        <time>2022-06-18T04:59:03Z</time>
      </trkpt>
      <trkpt lat="46.3672" lon="5.26896">
        <ele>200.8</ele>
        <time>2022-06-18T04:59:04Z</time>
      </trkpt>
      <trkpt lat="46.3673" lon="5.26842">
        <ele>200.8</ele>
        <time>2022-06-18T04:59:10Z</time>
      </trkpt>
      <trkpt lat="46.36731" lon="5.26833">
        <ele>200.8</ele>
        <time>2022-06-18T04:59:11Z</time>
      </trkpt>
      <trkpt lat="46.36735" lon="5.26813">
        <ele>200.8</ele>
        <time>2022-06-18T04:59:13Z</time>
      </trkpt>
      <trkpt lat="46.36736" lon="5.26803">
        <ele>201</ele>
        <time>2022-06-18T04:59:14Z</time>
      </trkpt>
      <trkpt lat="46.36737" lon="5.26794">
        <ele>201</ele>
        <time>2022-06-18T04:59:15Z</time>
      </trkpt>
      <trkpt lat="46.36734" lon="5.26765">
        <ele>201</ele>
        <time>2022-06-18T04:59:18Z</time>
      </trkpt>
      <trkpt lat="46.36728" lon="5.26747">
        <ele>201</ele>
        <time>2022-06-18T04:59:20Z</time>
      </trkpt>
      <trkpt lat="46.36719" lon="5.26732">
        <ele>201</ele>
        <time>2022-06-18T04:59:22Z</time>
      </trkpt>
      <trkpt lat="46.36687" lon="5.26698">
        <ele>201</ele>
        <time>2022-06-18T04:59:28Z</time>
      </trkpt>
      <trkpt lat="46.36674" lon="5.26694">
        <ele>201</ele>
        <time>2022-06-18T04:59:30Z</time>
      </trkpt>
      <trkpt lat="46.36667" lon="5.26693">
        <ele>201</ele>
        <time>2022-06-18T04:59:31Z</time>
      </trkpt>
      <trkpt lat="46.36615" lon="5.267">
        <ele>201</ele>
        <time>2022-06-18T04:59:39Z</time>
      </trkpt>
      <trkpt lat="46.3656" lon="5.26698">
        <ele>201</ele>
        <time>2022-06-18T04:59:47Z</time>
      </trkpt>
      <trkpt lat="46.36508" lon="5.26684">
        <ele>201.2</ele>
        <time>2022-06-18T04:59:55Z</time>
      </trkpt>
      <trkpt lat="46.36451" lon="5.26661">
        <ele>201.6</ele>
        <time>2022-06-18T05:00:04Z</time>
      </trkpt>
      <trkpt lat="46.36404" lon="5.26636">
        <ele>202</ele>
        <time>2022-06-18T05:00:12Z</time>
      </trkpt>
      <trkpt lat="46.36398" lon="5.26632">
        <ele>202</ele>
        <time>2022-06-18T05:00:13Z</time>
      </trkpt>
      <trkpt lat="46.36352" lon="5.26603">
        <ele>202.6</ele>
        <time>2022-06-18T05:00:21Z</time>
      </trkpt>
      <trkpt lat="46.36346" lon="5.26601">
        <ele>202.6</ele>
        <time>2022-06-18T05:00:22Z</time>
      </trkpt>
      <trkpt lat="46.36322" lon="5.266">
        <ele>203</ele>
        <time>2022-06-18T05:00:26Z</time>
      </trkpt>
      <trkpt lat="46.36315" lon="5.26602">
        <ele>203</ele>
        <time>2022-06-18T05:00:27Z</time>
      </trkpt>
      <trkpt lat="46.36259" lon="5.26619">
        <ele>203.4</ele>
        <time>2022-06-18T05:00:36Z</time>
      </trkpt>
      <trkpt lat="46.36253" lon="5.26621">
        <ele>203.4</ele>
        <time>2022-06-18T05:00:37Z</time>
      </trkpt>
      <trkpt lat="46.36217" lon="5.26626">
        <ele>204</ele>
        <time>2022-06-18T05:00:43Z</time>
      </trkpt>
      <trkpt lat="46.36204" lon="5.26626">
        <ele>204.4</ele>
        <time>2022-06-18T05:00:45Z</time>
      </trkpt>
      <trkpt lat="46.36165" lon="5.26616">
        <ele>204.8</ele>
        <time>2022-06-18T05:00:52Z</time>
      </trkpt>
      <trkpt lat="46.36156" lon="5.26612">
        <ele>205.4</ele>
        <time>2022-06-18T05:00:54Z</time>
      </trkpt>
      <trkpt lat="46.36137" lon="5.26602">
        <ele>206</ele>
        <time>2022-06-18T05:00:58Z</time>
      </trkpt>
      <trkpt lat="46.3613" lon="5.26595">
        <ele>206.6</ele>
        <time>2022-06-18T05:01:00Z</time>
      </trkpt>
      <trkpt lat="46.36126" lon="5.26591">
        <ele>206.8</ele>
        <time>2022-06-18T05:01:01Z</time>
      </trkpt>
      <trkpt lat="46.36121" lon="5.26582">
        <ele>207.6</ele>
        <time>2022-06-18T05:01:03Z</time>
      </trkpt>
      <trkpt lat="46.36118" lon="5.26576">
        <ele>207.8</ele>
        <time>2022-06-18T05:01:04Z</time>
      </trkpt>
      <trkpt lat="46.36105" lon="5.26543">
        <ele>208.6</ele>
        <time>2022-06-18T05:01:10Z</time>
      </trkpt>
      <trkpt lat="46.361" lon="5.26533">
        <ele>209.2</ele>
        <time>2022-06-18T05:01:12Z</time>
      </trkpt>
      <trkpt lat="46.36093" lon="5.26516">
        <ele>209.8</ele>
        <time>2022-06-18T05:01:15Z</time>
      </trkpt>
      <trkpt lat="46.36088" lon="5.26507">
        <ele>210.6</ele>
        <time>2022-06-18T05:01:17Z</time>
      </trkpt>
      <trkpt lat="46.36082" lon="5.26499">
        <ele>211.2</ele>
        <time>2022-06-18T05:01:19Z</time>
      </trkpt>
      <trkpt lat="46.36079" lon="5.26495">
        <ele>211.4</ele>
        <time>2022-06-18T05:01:20Z</time>
      </trkpt>
      <trkpt lat="46.3607" lon="5.26485">
        <ele>212.8</ele>
        <time>2022-06-18T05:01:23Z</time>
      </trkpt>
      <trkpt lat="46.36058" lon="5.26471">
        <ele>213.8</ele>
        <time>2022-06-18T05:01:27Z</time>
      </trkpt>
      <trkpt lat="46.36049" lon="5.26462">
        <ele>215</ele>
        <time>2022-06-18T05:01:30Z</time>
      </trkpt>
      <trkpt lat="46.36035" lon="5.26448">
        <ele>216</ele>
        <time>2022-06-18T05:01:34Z</time>
      </trkpt>
      <trkpt lat="46.36028" lon="5.26439">
        <ele>216.8</ele>
        <time>2022-06-18T05:01:36Z</time>
      </trkpt>
      <trkpt lat="46.36022" lon="5.26432">
        <ele>217.2</ele>
        <time>2022-06-18T05:01:38Z</time>
      </trkpt>
      <trkpt lat="46.36007" lon="5.26413">
        <ele>218.4</ele>
        <time>2022-06-18T05:01:43Z</time>
      </trkpt>
      <trkpt lat="46.36004" lon="5.26409">
        <ele>218.6</ele>
        <time>2022-06-18T05:01:44Z</time>
      </trkpt>
      <trkpt lat="46.35987" lon="5.26388">
        <ele>219.4</ele>
        <time>2022-06-18T05:01:50Z</time>
      </trkpt>
      <trkpt lat="46.35984" lon="5.26385">
        <ele>219.6</ele>
        <time>2022-06-18T05:01:51Z</time>
      </trkpt>
      <trkpt lat="46.3597" lon="5.26373">
        <ele>221</ele>
        <time>2022-06-18T05:01:55Z</time>
      </trkpt>
      <trkpt lat="46.35963" lon="5.2637">
        <ele>221.2</ele>
        <time>2022-06-18T05:01:57Z</time>
      </trkpt>
      <trkpt lat="46.35939" lon="5.26362">
        <ele>222.4</ele>
        <time>2022-06-18T05:02:03Z</time>
      </trkpt>
      <trkpt lat="46.35921" lon="5.26357">
        <ele>223</ele>
        <time>2022-06-18T05:02:07Z</time>
      </trkpt>
      <trkpt lat="46.35901" lon="5.26354">
        <ele>223.4</ele>
        <time>2022-06-18T05:02:11Z</time>
      </trkpt>
      <trkpt lat="46.35891" lon="5.26354">
        <ele>223.4</ele>
        <time>2022-06-18T05:02:13Z</time>
      </trkpt>
      <trkpt lat="46.35848" lon="5.26361">
        <ele>224.4</ele>
        <time>2022-06-18T05:02:22Z</time>
      </trkpt>
      <trkpt lat="46.3582" lon="5.26358">
        <ele>225.6</ele>
        <time>2022-06-18T05:02:28Z</time>
      </trkpt>
      <trkpt lat="46.35813" lon="5.26356">
        <ele>226</ele>
        <time>2022-06-18T05:02:30Z</time>
      </trkpt>
      <trkpt lat="46.35797" lon="5.26353">
        <ele>226.8</ele>
        <time>2022-06-18T05:02:34Z</time>
      </trkpt>
      <trkpt lat="46.35792" lon="5.26351">
        <ele>227.2</ele>
        <time>2022-06-18T05:02:35Z</time>
      </trkpt>
      <trkpt lat="46.35785" lon="5.26349">
        <ele>227.6</ele>
        <time>2022-06-18T05:02:37Z</time>
      </trkpt>
      <trkpt lat="46.35778" lon="5.26347">
        <ele>228.4</ele>
        <time>2022-06-18T05:02:39Z</time>
      </trkpt>
      <trkpt lat="46.35763" lon="5.26344">
        <ele>229.6</ele>
        <time>2022-06-18T05:02:43Z</time>
      </trkpt>
      <trkpt lat="46.35751" lon="5.26342">
        <ele>230.8</ele>
        <time>2022-06-18T05:02:46Z</time>
      </trkpt>
      <trkpt lat="46.35748" lon="5.26342">
        <ele>231</ele>
        <time>2022-06-18T05:02:47Z</time>
      </trkpt>
      <trkpt lat="46.35735" lon="5.2634">
        <ele>231.6</ele>
        <time>2022-06-18T05:02:50Z</time>
      </trkpt>
      <trkpt lat="46.35718" lon="5.26334">
        <ele>232.4</ele>
        <time>2022-06-18T05:02:54Z</time>
      </trkpt>
      <trkpt lat="46.35708" lon="5.26329">
        <ele>232.8</ele>
        <time>2022-06-18T05:02:56Z</time>
      </trkpt>
      <trkpt lat="46.35698" lon="5.26323">
        <ele>232.8</ele>
        <time>2022-06-18T05:02:58Z</time>
      </trkpt>
      <trkpt lat="46.35687" lon="5.2632">
        <ele>233</ele>
        <time>2022-06-18T05:03:00Z</time>
      </trkpt>
      <trkpt lat="46.35645" lon="5.26313">
        <ele>232.6</ele>
        <time>2022-06-18T05:03:06Z</time>
      </trkpt>
      <trkpt lat="46.35622" lon="5.2631">
        <ele>231.6</ele>
        <time>2022-06-18T05:03:09Z</time>
      </trkpt>
      <trkpt lat="46.35593" lon="5.26305">
        <ele>230.4</ele>
        <time>2022-06-18T05:03:13Z</time>
      </trkpt>
      <trkpt lat="46.35572" lon="5.26302">
        <ele>230.2</ele>
        <time>2022-06-18T05:03:16Z</time>
      </trkpt>
      <trkpt lat="46.35523" lon="5.263">
        <ele>230.4</ele>
        <time>2022-06-18T05:03:23Z</time>
      </trkpt>
      <trkpt lat="46.35481" lon="5.26303">
        <ele>231.2</ele>
        <time>2022-06-18T05:03:30Z</time>
      </trkpt>
      <trkpt lat="46.35468" lon="5.26302">
        <ele>231.6</ele>
        <time>2022-06-18T05:03:32Z</time>
      </trkpt>
      <trkpt lat="46.35431" lon="5.26299">
        <ele>232</ele>
        <time>2022-06-18T05:03:38Z</time>
      </trkpt>
      <trkpt lat="46.35397" lon="5.26295">
        <ele>232.8</ele>
        <time>2022-06-18T05:03:44Z</time>
      </trkpt>
      <trkpt lat="46.35379" lon="5.26292">
        <ele>233</ele>
        <time>2022-06-18T05:03:47Z</time>
      </trkpt>
      <trkpt lat="46.35357" lon="5.26282">
        <ele>233.4</ele>
        <time>2022-06-18T05:03:51Z</time>
      </trkpt>
      <trkpt lat="46.35352" lon="5.26277">
        <ele>233.6</ele>
        <time>2022-06-18T05:03:52Z</time>
      </trkpt>
      <trkpt lat="46.35339" lon="5.26262">
        <ele>234</ele>
        <time>2022-06-18T05:03:55Z</time>
      </trkpt>
      <trkpt lat="46.35332" lon="5.26251">
        <ele>234.2</ele>
        <time>2022-06-18T05:03:57Z</time>
      </trkpt>
      <trkpt lat="46.35329" lon="5.26244">
        <ele>234.2</ele>
        <time>2022-06-18T05:03:58Z</time>
      </trkpt>
      <trkpt lat="46.35308" lon="5.26209">
        <ele>234.6</ele>
        <time>2022-06-18T05:04:04Z</time>
      </trkpt>
      <trkpt lat="46.35304" lon="5.26205">
        <ele>235</ele>
        <time>2022-06-18T05:04:05Z</time>
      </trkpt>
      <trkpt lat="46.35284" lon="5.26193">
        <ele>235.8</ele>
        <time>2022-06-18T05:04:09Z</time>
      </trkpt>
      <trkpt lat="46.35267" lon="5.26189">
        <ele>236.2</ele>
        <time>2022-06-18T05:04:12Z</time>
      </trkpt>
      <trkpt lat="46.35248" lon="5.26187">
        <ele>236.2</ele>
        <time>2022-06-18T05:04:15Z</time>
      </trkpt>
      <trkpt lat="46.35201" lon="5.26175">
        <ele>236</ele>
        <time>2022-06-18T05:04:23Z</time>
      </trkpt>
      <trkpt lat="46.35144" lon="5.26158">
        <ele>235.8</ele>
        <time>2022-06-18T05:04:32Z</time>
      </trkpt>
      <trkpt lat="46.35088" lon="5.26145">
        <ele>235.4</ele>
        <time>2022-06-18T05:04:41Z</time>
      </trkpt>
      <trkpt lat="46.35082" lon="5.26143">
        <ele>235.4</ele>
        <time>2022-06-18T05:04:42Z</time>
      </trkpt>
      <trkpt lat="46.35031" lon="5.2612">
        <ele>235.2</ele>
        <time>2022-06-18T05:04:50Z</time>
      </trkpt>
      <trkpt lat="46.35004" lon="5.26108">
        <ele>234.8</ele>
        <time>2022-06-18T05:04:54Z</time>
      </trkpt>
      <trkpt lat="46.34996" lon="5.26106">
        <ele>234.6</ele>
        <time>2022-06-18T05:04:55Z</time>
      </trkpt>
      <trkpt lat="46.34972" lon="5.26107">
        <ele>233.6</ele>
        <time>2022-06-18T05:04:58Z</time>
      </trkpt>
      <trkpt lat="46.34948" lon="5.26109">
        <ele>233.2</ele>
        <time>2022-06-18T05:05:01Z</time>
      </trkpt>
      <trkpt lat="46.34903" lon="5.26108">
        <ele>232.6</ele>
        <time>2022-06-18T05:05:07Z</time>
      </trkpt>
      <trkpt lat="46.34843" lon="5.26088">
        <ele>232.2</ele>
        <time>2022-06-18T05:05:15Z</time>
      </trkpt>
      <trkpt lat="46.34822" lon="5.26082">
        <ele>231.6</ele>
        <time>2022-06-18T05:05:18Z</time>
      </trkpt>
      <trkpt lat="46.34815" lon="5.26082">
        <ele>231.4</ele>
        <time>2022-06-18T05:05:19Z</time>
      </trkpt>
      <trkpt lat="46.348" lon="5.26082">
        <ele>231</ele>
        <time>2022-06-18T05:05:21Z</time>
      </trkpt>
      <trkpt lat="46.34758" lon="5.26079">
        <ele>230.2</ele>
        <time>2022-06-18T05:05:26Z</time>
      </trkpt>
      <trkpt lat="46.34749" lon="5.26078">
        <ele>230.2</ele>
        <time>2022-06-18T05:05:27Z</time>
      </trkpt>
      <trkpt lat="46.34724" lon="5.26076">
        <ele>228.6</ele>
        <time>2022-06-18T05:05:30Z</time>
      </trkpt>
      <trkpt lat="46.34707" lon="5.26075">
        <ele>227</ele>
        <time>2022-06-18T05:05:32Z</time>
      </trkpt>
      <trkpt lat="46.347" lon="5.26075">
        <ele>226</ele>
        <time>2022-06-18T05:05:33Z</time>
      </trkpt>
      <trkpt lat="46.34693" lon="5.26074">
        <ele>225.6</ele>
        <time>2022-06-18T05:05:34Z</time>
      </trkpt>
      <trkpt lat="46.34682" lon="5.26073">
        <ele>224</ele>
        <time>2022-06-18T05:05:36Z</time>
      </trkpt>
      <trkpt lat="46.34677" lon="5.26072">
        <ele>223</ele>
        <time>2022-06-18T05:05:37Z</time>
      </trkpt>
      <trkpt lat="46.34668" lon="5.26068">
        <ele>221.6</ele>
        <time>2022-06-18T05:05:39Z</time>
      </trkpt>
      <trkpt lat="46.34665" lon="5.26063">
        <ele>221.2</ele>
        <time>2022-06-18T05:05:40Z</time>
      </trkpt>
      <trkpt lat="46.34662" lon="5.26057">
        <ele>221</ele>
        <time>2022-06-18T05:05:41Z</time>
      </trkpt>
      <trkpt lat="46.34657" lon="5.26043">
        <ele>220.4</ele>
        <time>2022-06-18T05:05:43Z</time>
      </trkpt>
      <trkpt lat="46.34654" lon="5.26036">
        <ele>220</ele>
        <time>2022-06-18T05:05:44Z</time>
      </trkpt>
      <trkpt lat="46.3465" lon="5.26029">
        <ele>219.8</ele>
        <time>2022-06-18T05:05:45Z</time>
      </trkpt>
      <trkpt lat="46.34634" lon="5.26002">
        <ele>219.4</ele>
        <time>2022-06-18T05:05:49Z</time>
      </trkpt>
      <trkpt lat="46.34622" lon="5.25979">
        <ele>219.2</ele>
        <time>2022-06-18T05:05:52Z</time>
      </trkpt>
      <trkpt lat="46.34616" lon="5.25965">
        <ele>219.6</ele>
        <time>2022-06-18T05:05:54Z</time>
      </trkpt>
      <trkpt lat="46.34604" lon="5.25946">
        <ele>220</ele>
        <time>2022-06-18T05:05:57Z</time>
      </trkpt>
      <trkpt lat="46.34588" lon="5.25923">
        <ele>220.6</ele>
        <time>2022-06-18T05:06:01Z</time>
      </trkpt>
      <trkpt lat="46.34577" lon="5.25905">
        <ele>221.2</ele>
        <time>2022-06-18T05:06:04Z</time>
      </trkpt>
      <trkpt lat="46.3457" lon="5.25894">
        <ele>221.6</ele>
        <time>2022-06-18T05:06:06Z</time>
      </trkpt>
      <trkpt lat="46.34549" lon="5.25859">
        <ele>222.2</ele>
        <time>2022-06-18T05:06:13Z</time>
      </trkpt>
      <trkpt lat="46.34546" lon="5.25855">
        <ele>222.4</ele>
        <time>2022-06-18T05:06:14Z</time>
      </trkpt>
      <trkpt lat="46.34542" lon="5.25852">
        <ele>222.6</ele>
        <time>2022-06-18T05:06:15Z</time>
      </trkpt>
      <trkpt lat="46.34538" lon="5.25852">
        <ele>222.8</ele>
        <time>2022-06-18T05:06:16Z</time>
      </trkpt>
      <trkpt lat="46.34533" lon="5.25851">
        <ele>223</ele>
        <time>2022-06-18T05:06:17Z</time>
      </trkpt>
      <trkpt lat="46.34522" lon="5.25848">
        <ele>223.2</ele>
        <time>2022-06-18T05:06:19Z</time>
      </trkpt>
      <trkpt lat="46.34516" lon="5.25848">
        <ele>223.2</ele>
        <time>2022-06-18T05:06:20Z</time>
      </trkpt>
      <trkpt lat="46.34476" lon="5.25856">
        <ele>222.6</ele>
        <time>2022-06-18T05:06:27Z</time>
      </trkpt>
      <trkpt lat="46.34455" lon="5.25859">
        <ele>222.4</ele>
        <time>2022-06-18T05:06:31Z</time>
      </trkpt>
      <trkpt lat="46.3445" lon="5.25857">
        <ele>222.4</ele>
        <time>2022-06-18T05:06:32Z</time>
      </trkpt>
      <trkpt lat="46.34446" lon="5.25852">
        <ele>222.6</ele>
        <time>2022-06-18T05:06:33Z</time>
      </trkpt>
      <trkpt lat="46.34441" lon="5.25839">
        <ele>222.8</ele>
        <time>2022-06-18T05:06:35Z</time>
      </trkpt>
      <trkpt lat="46.34425" lon="5.25819">
        <ele>223.2</ele>
        <time>2022-06-18T05:06:39Z</time>
      </trkpt>
      <trkpt lat="46.34404" lon="5.25797">
        <ele>223.6</ele>
        <time>2022-06-18T05:06:44Z</time>
      </trkpt>
      <trkpt lat="46.34389" lon="5.25779">
        <ele>223.8</ele>
        <time>2022-06-18T05:06:48Z</time>
      </trkpt>
      <trkpt lat="46.34381" lon="5.25775">
        <ele>224.2</ele>
        <time>2022-06-18T05:06:50Z</time>
      </trkpt>
      <trkpt lat="46.34372" lon="5.25776">
        <ele>224.6</ele>
        <time>2022-06-18T05:06:52Z</time>
      </trkpt>
      <trkpt lat="46.34363" lon="5.25784">
        <ele>224.8</ele>
        <time>2022-06-18T05:06:54Z</time>
      </trkpt>
      <trkpt lat="46.34356" lon="5.25792">
        <ele>225</ele>
        <time>2022-06-18T05:06:56Z</time>
      </trkpt>
      <trkpt lat="46.34348" lon="5.258">
        <ele>225.2</ele>
        <time>2022-06-18T05:06:58Z</time>
      </trkpt>
      <trkpt lat="46.34339" lon="5.25807">
        <ele>225.2</ele>
        <time>2022-06-18T05:07:00Z</time>
      </trkpt>
      <trkpt lat="46.34335" lon="5.25812">
        <ele>225.4</ele>
        <time>2022-06-18T05:07:01Z</time>
      </trkpt>
      <trkpt lat="46.34332" lon="5.25818">
        <ele>225.4</ele>
        <time>2022-06-18T05:07:02Z</time>
      </trkpt>
      <trkpt lat="46.34327" lon="5.25827">
        <ele>225.6</ele>
        <time>2022-06-18T05:07:04Z</time>
      </trkpt>
      <trkpt lat="46.34324" lon="5.25829">
        <ele>225.8</ele>
        <time>2022-06-18T05:07:05Z</time>
      </trkpt>
      <trkpt lat="46.3432" lon="5.2583">
        <ele>225.8</ele>
        <time>2022-06-18T05:07:06Z</time>
      </trkpt>
      <trkpt lat="46.34305" lon="5.25829">
        <ele>226.2</ele>
        <time>2022-06-18T05:07:10Z</time>
      </trkpt>
      <trkpt lat="46.34294" lon="5.25825">
        <ele>226.6</ele>
        <time>2022-06-18T05:07:13Z</time>
      </trkpt>
      <trkpt lat="46.34291" lon="5.25826">
        <ele>226.6</ele>
        <time>2022-06-18T05:07:14Z</time>
      </trkpt>
      <trkpt lat="46.34289" lon="5.25832">
        <ele>226.6</ele>
        <time>2022-06-18T05:07:16Z</time>
      </trkpt>
      <trkpt lat="46.34289" lon="5.25838">
        <ele>226.8</ele>
        <time>2022-06-18T05:07:17Z</time>
      </trkpt>
      <trkpt lat="46.34289" lon="5.25844">
        <ele>226.8</ele>
        <time>2022-06-18T05:07:18Z</time>
      </trkpt>
      <trkpt lat="46.3428" lon="5.25873">
        <ele>227.2</ele>
        <time>2022-06-18T05:07:23Z</time>
      </trkpt>
      <trkpt lat="46.34268" lon="5.25881">
        <ele>227.4</ele>
        <time>2022-06-18T05:07:26Z</time>
      </trkpt>
      <trkpt lat="46.34265" lon="5.25882">
        <ele>227.4</ele>
        <time>2022-06-18T05:07:27Z</time>
      </trkpt>
      <trkpt lat="46.34245" lon="5.25893">
        <ele>228</ele>
        <time>2022-06-18T05:07:32Z</time>
      </trkpt>
      <trkpt lat="46.34229" lon="5.25917">
        <ele>228.8</ele>
        <time>2022-06-18T05:07:36Z</time>
      </trkpt>
      <trkpt lat="46.34227" lon="5.25922">
        <ele>229</ele>
        <time>2022-06-18T05:07:37Z</time>
      </trkpt>
      <trkpt lat="46.34215" lon="5.25942">
        <ele>229.8</ele>
        <time>2022-06-18T05:07:40Z</time>
      </trkpt>
      <trkpt lat="46.34213" lon="5.25948">
        <ele>230.4</ele>
        <time>2022-06-18T05:07:41Z</time>
      </trkpt>
      <trkpt lat="46.3421" lon="5.25956">
        <ele>230.6</ele>
        <time>2022-06-18T05:07:42Z</time>
      </trkpt>
      <trkpt lat="46.342" lon="5.25976">
        <ele>231.4</ele>
        <time>2022-06-18T05:07:45Z</time>
      </trkpt>
      <trkpt lat="46.34189" lon="5.25999">
        <ele>232.8</ele>
        <time>2022-06-18T05:07:50Z</time>
      </trkpt>
      <trkpt lat="46.34175" lon="5.26029">
        <ele>234</ele>
        <time>2022-06-18T05:07:55Z</time>
      </trkpt>
      <trkpt lat="46.34169" lon="5.2604">
        <ele>234.2</ele>
        <time>2022-06-18T05:07:57Z</time>
      </trkpt>
      <trkpt lat="46.34163" lon="5.26059">
        <ele>234.8</ele>
        <time>2022-06-18T05:08:00Z</time>
      </trkpt>
      <trkpt lat="46.3416" lon="5.26071">
        <ele>235.2</ele>
        <time>2022-06-18T05:08:02Z</time>
      </trkpt>
      <trkpt lat="46.34159" lon="5.26078">
        <ele>235</ele>
        <time>2022-06-18T05:08:03Z</time>
      </trkpt>
      <trkpt lat="46.34158" lon="5.26084">
        <ele>235.2</ele>
        <time>2022-06-18T05:08:04Z</time>
      </trkpt>
      <trkpt lat="46.34156" lon="5.26097">
        <ele>235.6</ele>
        <time>2022-06-18T05:08:06Z</time>
      </trkpt>
      <trkpt lat="46.34152" lon="5.26101">
        <ele>235.4</ele>
        <time>2022-06-18T05:08:07Z</time>
      </trkpt>
      <trkpt lat="46.34148" lon="5.26102">
        <ele>235.6</ele>
        <time>2022-06-18T05:08:08Z</time>
      </trkpt>
      <trkpt lat="46.34139" lon="5.26099">
        <ele>235.6</ele>
        <time>2022-06-18T05:08:10Z</time>
      </trkpt>
      <trkpt lat="46.34113" lon="5.26087">
        <ele>235.4</ele>
        <time>2022-06-18T05:08:15Z</time>
      </trkpt>
      <trkpt lat="46.34078" lon="5.26077">
        <ele>235</ele>
        <time>2022-06-18T05:08:21Z</time>
      </trkpt>
      <trkpt lat="46.34072" lon="5.26075">
        <ele>234.8</ele>
        <time>2022-06-18T05:08:22Z</time>
      </trkpt>
      <trkpt lat="46.34059" lon="5.26072">
        <ele>234.8</ele>
        <time>2022-06-18T05:08:24Z</time>
      </trkpt>
      <trkpt lat="46.34054" lon="5.26069">
        <ele>234.8</ele>
        <time>2022-06-18T05:08:25Z</time>
      </trkpt>
      <trkpt lat="46.34051" lon="5.26063">
        <ele>234.6</ele>
        <time>2022-06-18T05:08:26Z</time>
      </trkpt>
      <trkpt lat="46.3405" lon="5.26049">
        <ele>234.6</ele>
        <time>2022-06-18T05:08:28Z</time>
      </trkpt>
      <trkpt lat="46.3406" lon="5.2602">
        <ele>234.6</ele>
        <time>2022-06-18T05:08:32Z</time>
      </trkpt>
      <trkpt lat="46.34061" lon="5.26011">
        <ele>234.6</ele>
        <time>2022-06-18T05:08:33Z</time>
      </trkpt>
      <trkpt lat="46.34063" lon="5.25994">
        <ele>234.6</ele>
        <time>2022-06-18T05:08:35Z</time>
      </trkpt>
      <trkpt lat="46.34064" lon="5.25967">
        <ele>234.4</ele>
        <time>2022-06-18T05:08:38Z</time>
      </trkpt>
      <trkpt lat="46.34064" lon="5.25958">
        <ele>234.4</ele>
        <time>2022-06-18T05:08:39Z</time>
      </trkpt>
      <trkpt lat="46.34069" lon="5.25915">
        <ele>234.6</ele>
        <time>2022-06-18T05:08:44Z</time>
      </trkpt>
      <trkpt lat="46.34069" lon="5.25897">
        <ele>234.6</ele>
        <time>2022-06-18T05:08:46Z</time>
      </trkpt>
      <trkpt lat="46.34066" lon="5.2588">
        <ele>234.6</ele>
        <time>2022-06-18T05:08:48Z</time>
      </trkpt>
      <trkpt lat="46.34057" lon="5.25867">
        <ele>234.4</ele>
        <time>2022-06-18T05:08:50Z</time>
      </trkpt>
      <trkpt lat="46.34052" lon="5.25863">
        <ele>234.4</ele>
        <time>2022-06-18T05:08:51Z</time>
      </trkpt>
      <trkpt lat="46.34018" lon="5.25834">
        <ele>233.8</ele>
        <time>2022-06-18T05:08:57Z</time>
      </trkpt>
      <trkpt lat="46.34014" lon="5.25828">
        <ele>233.8</ele>
        <time>2022-06-18T05:08:58Z</time>
      </trkpt>
      <trkpt lat="46.34009" lon="5.25821">
        <ele>233.6</ele>
        <time>2022-06-18T05:08:59Z</time>
      </trkpt>
      <trkpt lat="46.33976" lon="5.25779">
        <ele>233.4</ele>
        <time>2022-06-18T05:09:06Z</time>
      </trkpt>
      <trkpt lat="46.33949" lon="5.25743">
        <ele>233.4</ele>
        <time>2022-06-18T05:09:12Z</time>
      </trkpt>
      <trkpt lat="46.33946" lon="5.25736">
        <ele>233.6</ele>
        <time>2022-06-18T05:09:13Z</time>
      </trkpt>
      <trkpt lat="46.33944" lon="5.25729">
        <ele>233.6</ele>
        <time>2022-06-18T05:09:14Z</time>
      </trkpt>
      <trkpt lat="46.33942" lon="5.25713">
        <ele>234</ele>
        <time>2022-06-18T05:09:16Z</time>
      </trkpt>
      <trkpt lat="46.33942" lon="5.25705">
        <ele>234</ele>
        <time>2022-06-18T05:09:17Z</time>
      </trkpt>
      <trkpt lat="46.33943" lon="5.25697">
        <ele>234.2</ele>
        <time>2022-06-18T05:09:18Z</time>
      </trkpt>
      <trkpt lat="46.33946" lon="5.25668">
        <ele>234.6</ele>
        <time>2022-06-18T05:09:22Z</time>
      </trkpt>
      <trkpt lat="46.33946" lon="5.25655">
        <ele>234.8</ele>
        <time>2022-06-18T05:09:24Z</time>
      </trkpt>
      <trkpt lat="46.33943" lon="5.25644">
        <ele>235</ele>
        <time>2022-06-18T05:09:26Z</time>
      </trkpt>
      <trkpt lat="46.33931" lon="5.25633">
        <ele>235.4</ele>
        <time>2022-06-18T05:09:29Z</time>
      </trkpt>
      <trkpt lat="46.33921" lon="5.25628">
        <ele>235.8</ele>
        <time>2022-06-18T05:09:31Z</time>
      </trkpt>
      <trkpt lat="46.33916" lon="5.25626">
        <ele>235.8</ele>
        <time>2022-06-18T05:09:32Z</time>
      </trkpt>
      <trkpt lat="46.33889" lon="5.25621">
        <ele>236</ele>
        <time>2022-06-18T05:09:36Z</time>
      </trkpt>
      <trkpt lat="46.33851" lon="5.25615">
        <ele>234.8</ele>
        <time>2022-06-18T05:09:41Z</time>
      </trkpt>
      <trkpt lat="46.33842" lon="5.25612">
        <ele>234</ele>
        <time>2022-06-18T05:09:42Z</time>
      </trkpt>
      <trkpt lat="46.33824" lon="5.25608">
        <ele>232.6</ele>
        <time>2022-06-18T05:09:44Z</time>
      </trkpt>
      <trkpt lat="46.33815" lon="5.25608">
        <ele>232</ele>
        <time>2022-06-18T05:09:45Z</time>
      </trkpt>
      <trkpt lat="46.33806" lon="5.25609">
        <ele>231.6</ele>
        <time>2022-06-18T05:09:46Z</time>
      </trkpt>
      <trkpt lat="46.33796" lon="5.25611">
        <ele>231</ele>
        <time>2022-06-18T05:09:47Z</time>
      </trkpt>
      <trkpt lat="46.33786" lon="5.25614">
        <ele>230.4</ele>
        <time>2022-06-18T05:09:48Z</time>
      </trkpt>
      <trkpt lat="46.33776" lon="5.25618">
        <ele>229.2</ele>
        <time>2022-06-18T05:09:49Z</time>
      </trkpt>
      <trkpt lat="46.33765" lon="5.25622">
        <ele>228.2</ele>
        <time>2022-06-18T05:09:50Z</time>
      </trkpt>
      <trkpt lat="46.33743" lon="5.25635">
        <ele>226.6</ele>
        <time>2022-06-18T05:09:52Z</time>
      </trkpt>
      <trkpt lat="46.33726" lon="5.25648">
        <ele>225.6</ele>
        <time>2022-06-18T05:09:54Z</time>
      </trkpt>
      <trkpt lat="46.3371" lon="5.25665">
        <ele>224.2</ele>
        <time>2022-06-18T05:09:56Z</time>
      </trkpt>
      <trkpt lat="46.33687" lon="5.25691">
        <ele>223</ele>
        <time>2022-06-18T05:09:59Z</time>
      </trkpt>
      <trkpt lat="46.33649" lon="5.25741">
        <ele>222.8</ele>
        <time>2022-06-18T05:10:05Z</time>
      </trkpt>
      <trkpt lat="46.33631" lon="5.2576">
        <ele>223</ele>
        <time>2022-06-18T05:10:08Z</time>
      </trkpt>
      <trkpt lat="46.33619" lon="5.25768">
        <ele>223.4</ele>
        <time>2022-06-18T05:10:10Z</time>
      </trkpt>
      <trkpt lat="46.33601" lon="5.25774">
        <ele>224.2</ele>
        <time>2022-06-18T05:10:13Z</time>
      </trkpt>
      <trkpt lat="46.3359" lon="5.25777">
        <ele>225</ele>
        <time>2022-06-18T05:10:15Z</time>
      </trkpt>
      <trkpt lat="46.33584" lon="5.25778">
        <ele>225.4</ele>
        <time>2022-06-18T05:10:16Z</time>
      </trkpt>
      <trkpt lat="46.33563" lon="5.25782">
        <ele>226.6</ele>
        <time>2022-06-18T05:10:20Z</time>
      </trkpt>
      <trkpt lat="46.33551" lon="5.25784">
        <ele>227.8</ele>
        <time>2022-06-18T05:10:22Z</time>
      </trkpt>
      <trkpt lat="46.33514" lon="5.25798">
        <ele>228.6</ele>
        <time>2022-06-18T05:10:28Z</time>
      </trkpt>
      <trkpt lat="46.33497" lon="5.25815">
        <ele>228.6</ele>
        <time>2022-06-18T05:10:31Z</time>
      </trkpt>
      <trkpt lat="46.33486" lon="5.25829">
        <ele>228.4</ele>
        <time>2022-06-18T05:10:33Z</time>
      </trkpt>
      <trkpt lat="46.33451" lon="5.25883">
        <ele>227.4</ele>
        <time>2022-06-18T05:10:40Z</time>
      </trkpt>
      <trkpt lat="46.33431" lon="5.25906">
        <ele>227.4</ele>
        <time>2022-06-18T05:10:44Z</time>
      </trkpt>
      <trkpt lat="46.33425" lon="5.2591">
        <ele>227.6</ele>
        <time>2022-06-18T05:10:45Z</time>
      </trkpt>
      <trkpt lat="46.33415" lon="5.25916">
        <ele>227.6</ele>
        <time>2022-06-18T05:10:47Z</time>
      </trkpt>
      <trkpt lat="46.33396" lon="5.25923">
        <ele>227.8</ele>
        <time>2022-06-18T05:10:50Z</time>
      </trkpt>
      <trkpt lat="46.33352" lon="5.25937">
        <ele>227.6</ele>
        <time>2022-06-18T05:10:56Z</time>
      </trkpt>
      <trkpt lat="46.3333" lon="5.25951">
        <ele>226.8</ele>
        <time>2022-06-18T05:10:59Z</time>
      </trkpt>
      <trkpt lat="46.33322" lon="5.25959">
        <ele>226.8</ele>
        <time>2022-06-18T05:11:00Z</time>
      </trkpt>
      <trkpt lat="46.33316" lon="5.25969">
        <ele>226.2</ele>
        <time>2022-06-18T05:11:01Z</time>
      </trkpt>
      <trkpt lat="46.33305" lon="5.25993">
        <ele>225.2</ele>
        <time>2022-06-18T05:11:03Z</time>
      </trkpt>
      <trkpt lat="46.333" lon="5.26005">
        <ele>224.4</ele>
        <time>2022-06-18T05:11:04Z</time>
      </trkpt>
      <trkpt lat="46.33293" lon="5.26016">
        <ele>224</ele>
        <time>2022-06-18T05:11:05Z</time>
      </trkpt>
      <trkpt lat="46.33284" lon="5.26024">
        <ele>223</ele>
        <time>2022-06-18T05:11:06Z</time>
      </trkpt>
      <trkpt lat="46.33275" lon="5.26028">
        <ele>222.8</ele>
        <time>2022-06-18T05:11:07Z</time>
      </trkpt>
      <trkpt lat="46.33265" lon="5.26029">
        <ele>222.2</ele>
        <time>2022-06-18T05:11:08Z</time>
      </trkpt>
      <trkpt lat="46.33257" lon="5.26028">
        <ele>221.6</ele>
        <time>2022-06-18T05:11:09Z</time>
      </trkpt>
      <trkpt lat="46.3324" lon="5.26023">
        <ele>220.8</ele>
        <time>2022-06-18T05:11:11Z</time>
      </trkpt>
      <trkpt lat="46.33224" lon="5.26025">
        <ele>220.6</ele>
        <time>2022-06-18T05:11:13Z</time>
      </trkpt>
      <trkpt lat="46.33211" lon="5.26034">
        <ele>220.6</ele>
        <time>2022-06-18T05:11:15Z</time>
      </trkpt>
      <trkpt lat="46.33199" lon="5.26045">
        <ele>220.8</ele>
        <time>2022-06-18T05:11:17Z</time>
      </trkpt>
      <trkpt lat="46.3319" lon="5.26057">
        <ele>221.4</ele>
        <time>2022-06-18T05:11:19Z</time>
      </trkpt>
      <trkpt lat="46.33184" lon="5.26071">
        <ele>222.4</ele>
        <time>2022-06-18T05:11:21Z</time>
      </trkpt>
      <trkpt lat="46.33181" lon="5.26079">
        <ele>223.4</ele>
        <time>2022-06-18T05:11:22Z</time>
      </trkpt>
      <trkpt lat="46.33174" lon="5.26093">
        <ele>224.6</ele>
        <time>2022-06-18T05:11:24Z</time>
      </trkpt>
      <trkpt lat="46.33166" lon="5.26107">
        <ele>225.2</ele>
        <time>2022-06-18T05:11:26Z</time>
      </trkpt>
      <trkpt lat="46.33163" lon="5.26115">
        <ele>225.8</ele>
        <time>2022-06-18T05:11:27Z</time>
      </trkpt>
      <trkpt lat="46.33146" lon="5.26178">
        <ele>226.8</ele>
        <time>2022-06-18T05:11:34Z</time>
      </trkpt>
      <trkpt lat="46.33127" lon="5.26235">
        <ele>226.4</ele>
        <time>2022-06-18T05:11:40Z</time>
      </trkpt>
      <trkpt lat="46.33123" lon="5.26244">
        <ele>226.2</ele>
        <time>2022-06-18T05:11:41Z</time>
      </trkpt>
      <trkpt lat="46.33111" lon="5.26256">
        <ele>226</ele>
        <time>2022-06-18T05:11:43Z</time>
      </trkpt>
      <trkpt lat="46.33087" lon="5.26262">
        <ele>225.4</ele>
        <time>2022-06-18T05:11:46Z</time>
      </trkpt>
      <trkpt lat="46.33079" lon="5.26261">
        <ele>225.4</ele>
        <time>2022-06-18T05:11:47Z</time>
      </trkpt>
      <trkpt lat="46.33071" lon="5.26259">
        <ele>225.4</ele>
        <time>2022-06-18T05:11:48Z</time>
      </trkpt>
      <trkpt lat="46.33057" lon="5.2625">
        <ele>224.8</ele>
        <time>2022-06-18T05:11:50Z</time>
      </trkpt>
      <trkpt lat="46.33046" lon="5.26239">
        <ele>224.8</ele>
        <time>2022-06-18T05:11:52Z</time>
      </trkpt>
      <trkpt lat="46.33031" lon="5.26224">
        <ele>224.8</ele>
        <time>2022-06-18T05:11:55Z</time>
      </trkpt>
      <trkpt lat="46.33018" lon="5.26209">
        <ele>226</ele>
        <time>2022-06-18T05:11:58Z</time>
      </trkpt>
      <trkpt lat="46.33005" lon="5.26195">
        <ele>227.6</ele>
        <time>2022-06-18T05:12:01Z</time>
      </trkpt>
      <trkpt lat="46.32996" lon="5.26187">
        <ele>228.2</ele>
        <time>2022-06-18T05:12:03Z</time>
      </trkpt>
      <trkpt lat="46.32991" lon="5.26183">
        <ele>228.6</ele>
        <time>2022-06-18T05:12:04Z</time>
      </trkpt>
      <trkpt lat="46.32986" lon="5.26179">
        <ele>229.2</ele>
        <time>2022-06-18T05:12:05Z</time>
      </trkpt>
      <trkpt lat="46.32967" lon="5.26168">
        <ele>229.8</ele>
        <time>2022-06-18T05:12:09Z</time>
      </trkpt>
      <trkpt lat="46.32942" lon="5.26158">
        <ele>230.8</ele>
        <time>2022-06-18T05:12:14Z</time>
      </trkpt>
      <trkpt lat="46.32937" lon="5.26157">
        <ele>231</ele>
        <time>2022-06-18T05:12:15Z</time>
      </trkpt>
      <trkpt lat="46.32913" lon="5.2615">
        <ele>232.2</ele>
        <time>2022-06-18T05:12:20Z</time>
      </trkpt>
      <trkpt lat="46.32908" lon="5.26148">
        <ele>232.2</ele>
        <time>2022-06-18T05:12:21Z</time>
      </trkpt>
      <trkpt lat="46.32898" lon="5.26144">
        <ele>232.4</ele>
        <time>2022-06-18T05:12:23Z</time>
      </trkpt>
      <trkpt lat="46.32883" lon="5.26135">
        <ele>233.2</ele>
        <time>2022-06-18T05:12:26Z</time>
      </trkpt>
      <trkpt lat="46.32877" lon="5.26131">
        <ele>233.6</ele>
        <time>2022-06-18T05:12:27Z</time>
      </trkpt>
      <trkpt lat="46.32847" lon="5.26108">
        <ele>234.2</ele>
        <time>2022-06-18T05:12:33Z</time>
      </trkpt>
      <trkpt lat="46.32836" lon="5.26103">
        <ele>234.2</ele>
        <time>2022-06-18T05:12:35Z</time>
      </trkpt>
      <trkpt lat="46.32797" lon="5.2609">
        <ele>234</ele>
        <time>2022-06-18T05:12:41Z</time>
      </trkpt>
      <trkpt lat="46.32751" lon="5.26083">
        <ele>233</ele>
        <time>2022-06-18T05:12:48Z</time>
      </trkpt>
      <trkpt lat="46.32726" lon="5.26072">
        <ele>233</ele>
        <time>2022-06-18T05:12:52Z</time>
      </trkpt>
      <trkpt lat="46.3272" lon="5.26068">
        <ele>233</ele>
        <time>2022-06-18T05:12:53Z</time>
      </trkpt>
      <trkpt lat="46.32671" lon="5.26029">
        <ele>232.4</ele>
        <time>2022-06-18T05:13:01Z</time>
      </trkpt>
      <trkpt lat="46.32657" lon="5.26019">
        <ele>232</ele>
        <time>2022-06-18T05:13:03Z</time>
      </trkpt>
      <trkpt lat="46.3265" lon="5.26014">
        <ele>231.8</ele>
        <time>2022-06-18T05:13:04Z</time>
      </trkpt>
      <trkpt lat="46.32626" lon="5.26002">
        <ele>231</ele>
        <time>2022-06-18T05:13:07Z</time>
      </trkpt>
      <trkpt lat="46.326" lon="5.25991">
        <ele>230</ele>
        <time>2022-06-18T05:13:10Z</time>
      </trkpt>
      <trkpt lat="46.32583" lon="5.25985">
        <ele>228.8</ele>
        <time>2022-06-18T05:13:12Z</time>
      </trkpt>
      <trkpt lat="46.32564" lon="5.25982">
        <ele>227.6</ele>
        <time>2022-06-18T05:13:14Z</time>
      </trkpt>
      <trkpt lat="46.32556" lon="5.25981">
        <ele>226.8</ele>
        <time>2022-06-18T05:13:15Z</time>
      </trkpt>
      <trkpt lat="46.32546" lon="5.2598">
        <ele>226.4</ele>
        <time>2022-06-18T05:13:16Z</time>
      </trkpt>
      <trkpt lat="46.32537" lon="5.25979">
        <ele>226</ele>
        <time>2022-06-18T05:13:17Z</time>
      </trkpt>
      <trkpt lat="46.32518" lon="5.25976">
        <ele>225</ele>
        <time>2022-06-18T05:13:19Z</time>
      </trkpt>
      <trkpt lat="46.32488" lon="5.25971">
        <ele>223.8</ele>
        <time>2022-06-18T05:13:22Z</time>
      </trkpt>
      <trkpt lat="46.32478" lon="5.2597">
        <ele>223.4</ele>
        <time>2022-06-18T05:13:23Z</time>
      </trkpt>
      <trkpt lat="46.32457" lon="5.25968">
        <ele>222.8</ele>
        <time>2022-06-18T05:13:25Z</time>
      </trkpt>
      <trkpt lat="46.32434" lon="5.25966">
        <ele>221.6</ele>
        <time>2022-06-18T05:13:27Z</time>
      </trkpt>
      <trkpt lat="46.32411" lon="5.25965">
        <ele>220.4</ele>
        <time>2022-06-18T05:13:29Z</time>
      </trkpt>
      <trkpt lat="46.32389" lon="5.25966">
        <ele>219.2</ele>
        <time>2022-06-18T05:13:31Z</time>
      </trkpt>
      <trkpt lat="46.32366" lon="5.25964">
        <ele>217.8</ele>
        <time>2022-06-18T05:13:33Z</time>
      </trkpt>
      <trkpt lat="46.32355" lon="5.25961">
        <ele>216.8</ele>
        <time>2022-06-18T05:13:34Z</time>
      </trkpt>
      <trkpt lat="46.32344" lon="5.25956">
        <ele>216.4</ele>
        <time>2022-06-18T05:13:35Z</time>
      </trkpt>
      <trkpt lat="46.32334" lon="5.25948">
        <ele>215.6</ele>
        <time>2022-06-18T05:13:36Z</time>
      </trkpt>
      <trkpt lat="46.32324" lon="5.25939">
        <ele>215.4</ele>
        <time>2022-06-18T05:13:37Z</time>
      </trkpt>
      <trkpt lat="46.32306" lon="5.25921">
        <ele>214</ele>
        <time>2022-06-18T05:13:39Z</time>
      </trkpt>
      <trkpt lat="46.32296" lon="5.25915">
        <ele>213</ele>
        <time>2022-06-18T05:13:40Z</time>
      </trkpt>
      <trkpt lat="46.32286" lon="5.2591">
        <ele>212.2</ele>
        <time>2022-06-18T05:13:41Z</time>
      </trkpt>
      <trkpt lat="46.3226" lon="5.25901">
        <ele>212</ele>
        <time>2022-06-18T05:13:44Z</time>
      </trkpt>
      <trkpt lat="46.32209" lon="5.25891">
        <ele>213.2</ele>
        <time>2022-06-18T05:13:50Z</time>
      </trkpt>
      <trkpt lat="46.32194" lon="5.2589">
        <ele>213.4</ele>
        <time>2022-06-18T05:13:52Z</time>
      </trkpt>
      <trkpt lat="46.32171" lon="5.2589">
        <ele>213.8</ele>
        <time>2022-06-18T05:13:55Z</time>
      </trkpt>
      <trkpt lat="46.32157" lon="5.25892">
        <ele>214.2</ele>
        <time>2022-06-18T05:13:57Z</time>
      </trkpt>
      <trkpt lat="46.32144" lon="5.25897">
        <ele>214.6</ele>
        <time>2022-06-18T05:13:59Z</time>
      </trkpt>
      <trkpt lat="46.32138" lon="5.259">
        <ele>214.6</ele>
        <time>2022-06-18T05:14:00Z</time>
      </trkpt>
      <trkpt lat="46.32131" lon="5.25902">
        <ele>214.8</ele>
        <time>2022-06-18T05:14:01Z</time>
      </trkpt>
      <trkpt lat="46.32112" lon="5.25903">
        <ele>215.4</ele>
        <time>2022-06-18T05:14:04Z</time>
      </trkpt>
      <trkpt lat="46.32105" lon="5.25902">
        <ele>215.6</ele>
        <time>2022-06-18T05:14:05Z</time>
      </trkpt>
      <trkpt lat="46.32099" lon="5.259">
        <ele>215.8</ele>
        <time>2022-06-18T05:14:06Z</time>
      </trkpt>
      <trkpt lat="46.3208" lon="5.25892">
        <ele>216</ele>
        <time>2022-06-18T05:14:09Z</time>
      </trkpt>
      <trkpt lat="46.32053" lon="5.25871">
        <ele>216.2</ele>
        <time>2022-06-18T05:14:14Z</time>
      </trkpt>
      <trkpt lat="46.32048" lon="5.25864">
        <ele>216.4</ele>
        <time>2022-06-18T05:14:15Z</time>
      </trkpt>
      <trkpt lat="46.32041" lon="5.25852">
        <ele>216.6</ele>
        <time>2022-06-18T05:14:17Z</time>
      </trkpt>
      <trkpt lat="46.32038" lon="5.25846">
        <ele>216.6</ele>
        <time>2022-06-18T05:14:18Z</time>
      </trkpt>
      <trkpt lat="46.32014" lon="5.25802">
        <ele>217.8</ele>
        <time>2022-06-18T05:14:25Z</time>
      </trkpt>
      <trkpt lat="46.32007" lon="5.2578">
        <ele>218</ele>
        <time>2022-06-18T05:14:28Z</time>
      </trkpt>
      <trkpt lat="46.31997" lon="5.25765">
        <ele>218</ele>
        <time>2022-06-18T05:14:30Z</time>
      </trkpt>
      <trkpt lat="46.31973" lon="5.25751">
        <ele>217.4</ele>
        <time>2022-06-18T05:14:33Z</time>
      </trkpt>
      <trkpt lat="46.31956" lon="5.25737">
        <ele>216.6</ele>
        <time>2022-06-18T05:14:35Z</time>
      </trkpt>
      <trkpt lat="46.3195" lon="5.25729">
        <ele>215.8</ele>
        <time>2022-06-18T05:14:36Z</time>
      </trkpt>
      <trkpt lat="46.31944" lon="5.25718">
        <ele>215.4</ele>
        <time>2022-06-18T05:14:37Z</time>
      </trkpt>
      <trkpt lat="46.31934" lon="5.25696">
        <ele>213.8</ele>
        <time>2022-06-18T05:14:39Z</time>
      </trkpt>
      <trkpt lat="46.31925" lon="5.25673">
        <ele>212.6</ele>
        <time>2022-06-18T05:14:41Z</time>
      </trkpt>
      <trkpt lat="46.31914" lon="5.25636">
        <ele>212.2</ele>
        <time>2022-06-18T05:14:44Z</time>
      </trkpt>
      <trkpt lat="46.31898" lon="5.2556">
        <ele>212</ele>
        <time>2022-06-18T05:14:51Z</time>
      </trkpt>
      <trkpt lat="46.31895" lon="5.25553">
        <ele>212</ele>
        <time>2022-06-18T05:14:52Z</time>
      </trkpt>
      <trkpt lat="46.31886" lon="5.25536">
        <ele>212.2</ele>
        <time>2022-06-18T05:14:54Z</time>
      </trkpt>
      <trkpt lat="46.31873" lon="5.25528">
        <ele>212.2</ele>
        <time>2022-06-18T05:14:56Z</time>
      </trkpt>
      <trkpt lat="46.31866" lon="5.25528">
        <ele>212.6</ele>
        <time>2022-06-18T05:14:57Z</time>
      </trkpt>
      <trkpt lat="46.31859" lon="5.2553">
        <ele>212.6</ele>
        <time>2022-06-18T05:14:58Z</time>
      </trkpt>
      <trkpt lat="46.31846" lon="5.25537">
        <ele>212.6</ele>
        <time>2022-06-18T05:15:00Z</time>
      </trkpt>
      <trkpt lat="46.31841" lon="5.25542">
        <ele>212.8</ele>
        <time>2022-06-18T05:15:01Z</time>
      </trkpt>
      <trkpt lat="46.31819" lon="5.25563">
        <ele>213</ele>
        <time>2022-06-18T05:15:05Z</time>
      </trkpt>
      <trkpt lat="46.31814" lon="5.25569">
        <ele>213</ele>
        <time>2022-06-18T05:15:06Z</time>
      </trkpt>
      <trkpt lat="46.31787" lon="5.2561">
        <ele>213.4</ele>
        <time>2022-06-18T05:15:12Z</time>
      </trkpt>
      <trkpt lat="46.31782" lon="5.25616">
        <ele>213.4</ele>
        <time>2022-06-18T05:15:13Z</time>
      </trkpt>
      <trkpt lat="46.31772" lon="5.25625">
        <ele>213.8</ele>
        <time>2022-06-18T05:15:15Z</time>
      </trkpt>
      <trkpt lat="46.31756" lon="5.25634">
        <ele>214.4</ele>
        <time>2022-06-18T05:15:18Z</time>
      </trkpt>
      <trkpt lat="46.31735" lon="5.25647">
        <ele>214.8</ele>
        <time>2022-06-18T05:15:22Z</time>
      </trkpt>
      <trkpt lat="46.31725" lon="5.25652">
        <ele>215.2</ele>
        <time>2022-06-18T05:15:24Z</time>
      </trkpt>
      <trkpt lat="46.31711" lon="5.25659">
        <ele>215.8</ele>
        <time>2022-06-18T05:15:27Z</time>
      </trkpt>
      <trkpt lat="46.31687" lon="5.25669">
        <ele>217</ele>
        <time>2022-06-18T05:15:32Z</time>
      </trkpt>
      <trkpt lat="46.31662" lon="5.25672">
        <ele>218</ele>
        <time>2022-06-18T05:15:37Z</time>
      </trkpt>
      <trkpt lat="46.31653" lon="5.25671">
        <ele>218.4</ele>
        <time>2022-06-18T05:15:39Z</time>
      </trkpt>
      <trkpt lat="46.31643" lon="5.25668">
        <ele>219</ele>
        <time>2022-06-18T05:15:41Z</time>
      </trkpt>
      <trkpt lat="46.31614" lon="5.25662">
        <ele>220.2</ele>
        <time>2022-06-18T05:15:47Z</time>
      </trkpt>
      <trkpt lat="46.31609" lon="5.25661">
        <ele>220.6</ele>
        <time>2022-06-18T05:15:48Z</time>
      </trkpt>
      <trkpt lat="46.31596" lon="5.2566">
        <ele>221.2</ele>
        <time>2022-06-18T05:15:51Z</time>
      </trkpt>
      <trkpt lat="46.31577" lon="5.2566">
        <ele>222.4</ele>
        <time>2022-06-18T05:15:55Z</time>
      </trkpt>
      <trkpt lat="46.31572" lon="5.25661">
        <ele>222.4</ele>
        <time>2022-06-18T05:15:56Z</time>
      </trkpt>
      <trkpt lat="46.31559" lon="5.25664">
        <ele>223.2</ele>
        <time>2022-06-18T05:15:59Z</time>
      </trkpt>
      <trkpt lat="46.31552" lon="5.25666">
        <ele>223.6</ele>
        <time>2022-06-18T05:16:01Z</time>
      </trkpt>
      <trkpt lat="46.31548" lon="5.25667">
        <ele>224</ele>
        <time>2022-06-18T05:16:02Z</time>
      </trkpt>
      <trkpt lat="46.31537" lon="5.25669">
        <ele>224.8</ele>
        <time>2022-06-18T05:16:05Z</time>
      </trkpt>
      <trkpt lat="46.31527" lon="5.25671">
        <ele>226.2</ele>
        <time>2022-06-18T05:16:08Z</time>
      </trkpt>
      <trkpt lat="46.31517" lon="5.2567">
        <ele>227.2</ele>
        <time>2022-06-18T05:16:11Z</time>
      </trkpt>
      <trkpt lat="46.31511" lon="5.2567">
        <ele>227.8</ele>
        <time>2022-06-18T05:16:13Z</time>
      </trkpt>
      <trkpt lat="46.31504" lon="5.25671">
        <ele>228.4</ele>
        <time>2022-06-18T05:16:15Z</time>
      </trkpt>
      <trkpt lat="46.31485" lon="5.25669">
        <ele>229.2</ele>
        <time>2022-06-18T05:16:19Z</time>
      </trkpt>
      <trkpt lat="46.3148" lon="5.25669">
        <ele>229.4</ele>
        <time>2022-06-18T05:16:20Z</time>
      </trkpt>
      <trkpt lat="46.31463" lon="5.25669">
        <ele>230.6</ele>
        <time>2022-06-18T05:16:24Z</time>
      </trkpt>
      <trkpt lat="46.31458" lon="5.25669">
        <ele>230.8</ele>
        <time>2022-06-18T05:16:25Z</time>
      </trkpt>
      <trkpt lat="46.31437" lon="5.25674">
        <ele>231.4</ele>
        <time>2022-06-18T05:16:30Z</time>
      </trkpt>
      <trkpt lat="46.31428" lon="5.25676">
        <ele>231.6</ele>
        <time>2022-06-18T05:16:32Z</time>
      </trkpt>
      <trkpt lat="46.31401" lon="5.25686">
        <ele>232.6</ele>
        <time>2022-06-18T05:16:38Z</time>
      </trkpt>
      <trkpt lat="46.31389" lon="5.25692">
        <ele>232.8</ele>
        <time>2022-06-18T05:16:40Z</time>
      </trkpt>
      <trkpt lat="46.31372" lon="5.25696">
        <ele>232.8</ele>
        <time>2022-06-18T05:16:43Z</time>
      </trkpt>
      <trkpt lat="46.31366" lon="5.25696">
        <ele>232.6</ele>
        <time>2022-06-18T05:16:44Z</time>
      </trkpt>
      <trkpt lat="46.31319" lon="5.2569">
        <ele>232.2</ele>
        <time>2022-06-18T05:16:52Z</time>
      </trkpt>
      <trkpt lat="46.31267" lon="5.25686">
        <ele>232.6</ele>
        <time>2022-06-18T05:17:01Z</time>
      </trkpt>
      <trkpt lat="46.31242" lon="5.25678">
        <ele>232.8</ele>
        <time>2022-06-18T05:17:05Z</time>
      </trkpt>
      <trkpt lat="46.31236" lon="5.25674">
        <ele>232.8</ele>
        <time>2022-06-18T05:17:06Z</time>
      </trkpt>
      <trkpt lat="46.31231" lon="5.25669">
        <ele>232.8</ele>
        <time>2022-06-18T05:17:07Z</time>
      </trkpt>
      <trkpt lat="46.31223" lon="5.25654">
        <ele>232.6</ele>
        <time>2022-06-18T05:17:09Z</time>
      </trkpt>
      <trkpt lat="46.31208" lon="5.25615">
        <ele>232.6</ele>
        <time>2022-06-18T05:17:14Z</time>
      </trkpt>
      <trkpt lat="46.31205" lon="5.25608">
        <ele>232.6</ele>
        <time>2022-06-18T05:17:15Z</time>
      </trkpt>
      <trkpt lat="46.31177" lon="5.25562">
        <ele>233.2</ele>
        <time>2022-06-18T05:17:22Z</time>
      </trkpt>
      <trkpt lat="46.31144" lon="5.25504">
        <ele>233.8</ele>
        <time>2022-06-18T05:17:31Z</time>
      </trkpt>
      <trkpt lat="46.31132" lon="5.25475">
        <ele>234.4</ele>
        <time>2022-06-18T05:17:35Z</time>
      </trkpt>
      <trkpt lat="46.31125" lon="5.25454">
        <ele>234.6</ele>
        <time>2022-06-18T05:17:38Z</time>
      </trkpt>
      <trkpt lat="46.31116" lon="5.25423">
        <ele>234.8</ele>
        <time>2022-06-18T05:17:42Z</time>
      </trkpt>
      <trkpt lat="46.31102" lon="5.2537">
        <ele>234.6</ele>
        <time>2022-06-18T05:17:48Z</time>
      </trkpt>
      <trkpt lat="46.31083" lon="5.25332">
        <ele>234.6</ele>
        <time>2022-06-18T05:17:53Z</time>
      </trkpt>
      <trkpt lat="46.31048" lon="5.25272">
        <ele>234.4</ele>
        <time>2022-06-18T05:18:02Z</time>
      </trkpt>
      <trkpt lat="46.31045" lon="5.25265">
        <ele>234.6</ele>
        <time>2022-06-18T05:18:03Z</time>
      </trkpt>
      <trkpt lat="46.31028" lon="5.25231">
        <ele>235</ele>
        <time>2022-06-18T05:18:09Z</time>
      </trkpt>
      <trkpt lat="46.31026" lon="5.25224">
        <ele>235</ele>
        <time>2022-06-18T05:18:10Z</time>
      </trkpt>
      <trkpt lat="46.31024" lon="5.25218">
        <ele>235.2</ele>
        <time>2022-06-18T05:18:11Z</time>
      </trkpt>
      <trkpt lat="46.31022" lon="5.25195">
        <ele>235.2</ele>
        <time>2022-06-18T05:18:15Z</time>
      </trkpt>
      <trkpt lat="46.31017" lon="5.2518">
        <ele>235.4</ele>
        <time>2022-06-18T05:18:19Z</time>
      </trkpt>
      <trkpt lat="46.31017" lon="5.25185">
        <ele>235.8</ele>
        <time>2022-06-18T05:18:21Z</time>
      </trkpt>
      <trkpt lat="46.31021" lon="5.25208">
        <ele>235.8</ele>
        <time>2022-06-18T05:18:25Z</time>
      </trkpt>
      <trkpt lat="46.31021" lon="5.25216">
        <ele>235.8</ele>
        <time>2022-06-18T05:18:26Z</time>
      </trkpt>
      <trkpt lat="46.3102" lon="5.25225">
        <ele>235.8</ele>
        <time>2022-06-18T05:18:27Z</time>
      </trkpt>
      <trkpt lat="46.31013" lon="5.25251">
        <ele>235.8</ele>
        <time>2022-06-18T05:18:30Z</time>
      </trkpt>
      <trkpt lat="46.30998" lon="5.25303">
        <ele>235.4</ele>
        <time>2022-06-18T05:18:36Z</time>
      </trkpt>
      <trkpt lat="46.30982" lon="5.25361">
        <ele>236</ele>
        <time>2022-06-18T05:18:43Z</time>
      </trkpt>
      <trkpt lat="46.30978" lon="5.25378">
        <ele>236.4</ele>
        <time>2022-06-18T05:18:45Z</time>
      </trkpt>
      <trkpt lat="46.30957" lon="5.25445">
        <ele>237</ele>
        <time>2022-06-18T05:18:53Z</time>
      </trkpt>
      <trkpt lat="46.30954" lon="5.25453">
        <ele>237.2</ele>
        <time>2022-06-18T05:18:54Z</time>
      </trkpt>
      <trkpt lat="46.30933" lon="5.25503">
        <ele>237.2</ele>
        <time>2022-06-18T05:19:00Z</time>
      </trkpt>
      <trkpt lat="46.30923" lon="5.25519">
        <ele>237.2</ele>
        <time>2022-06-18T05:19:02Z</time>
      </trkpt>
      <trkpt lat="46.309" lon="5.25546">
        <ele>237</ele>
        <time>2022-06-18T05:19:06Z</time>
      </trkpt>
      <trkpt lat="46.30893" lon="5.25551">
        <ele>237</ele>
        <time>2022-06-18T05:19:07Z</time>
      </trkpt>
      <trkpt lat="46.30857" lon="5.25569">
        <ele>236</ele>
        <time>2022-06-18T05:19:12Z</time>
      </trkpt>
      <trkpt lat="46.30842" lon="5.25576">
        <ele>235.8</ele>
        <time>2022-06-18T05:19:14Z</time>
      </trkpt>
      <trkpt lat="46.30836" lon="5.2558">
        <ele>235.6</ele>
        <time>2022-06-18T05:19:15Z</time>
      </trkpt>
      <trkpt lat="46.30825" lon="5.25592">
        <ele>235.8</ele>
        <time>2022-06-18T05:19:17Z</time>
      </trkpt>
      <trkpt lat="46.3082" lon="5.25599">
        <ele>236</ele>
        <time>2022-06-18T05:19:18Z</time>
      </trkpt>
      <trkpt lat="46.30816" lon="5.25606">
        <ele>235.8</ele>
        <time>2022-06-18T05:19:19Z</time>
      </trkpt>
      <trkpt lat="46.30811" lon="5.25621">
        <ele>236.2</ele>
        <time>2022-06-18T05:19:21Z</time>
      </trkpt>
      <trkpt lat="46.30809" lon="5.25629">
        <ele>236.2</ele>
        <time>2022-06-18T05:19:22Z</time>
      </trkpt>
      <trkpt lat="46.30804" lon="5.25653">
        <ele>237.2</ele>
        <time>2022-06-18T05:19:25Z</time>
      </trkpt>
      <trkpt lat="46.30803" lon="5.25661">
        <ele>237.4</ele>
        <time>2022-06-18T05:19:26Z</time>
      </trkpt>
      <trkpt lat="46.30798" lon="5.25678">
        <ele>237.8</ele>
        <time>2022-06-18T05:19:28Z</time>
      </trkpt>
      <trkpt lat="46.30796" lon="5.25686">
        <ele>238</ele>
        <time>2022-06-18T05:19:29Z</time>
      </trkpt>
      <trkpt lat="46.30791" lon="5.25703">
        <ele>238.4</ele>
        <time>2022-06-18T05:19:31Z</time>
      </trkpt>
      <trkpt lat="46.30774" lon="5.25746">
        <ele>238.8</ele>
        <time>2022-06-18T05:19:36Z</time>
      </trkpt>
      <trkpt lat="46.30755" lon="5.25788">
        <ele>239</ele>
        <time>2022-06-18T05:19:41Z</time>
      </trkpt>
      <trkpt lat="46.30747" lon="5.25804">
        <ele>239.4</ele>
        <time>2022-06-18T05:19:43Z</time>
      </trkpt>
      <trkpt lat="46.30717" lon="5.25877">
        <ele>239.8</ele>
        <time>2022-06-18T05:19:52Z</time>
      </trkpt>
      <trkpt lat="46.30702" lon="5.25936">
        <ele>240.2</ele>
        <time>2022-06-18T05:19:59Z</time>
      </trkpt>
      <trkpt lat="46.30694" lon="5.25963">
        <ele>240.4</ele>
        <time>2022-06-18T05:20:02Z</time>
      </trkpt>
      <trkpt lat="46.30689" lon="5.25983">
        <ele>240.2</ele>
        <time>2022-06-18T05:20:04Z</time>
      </trkpt>
      <trkpt lat="46.30684" lon="5.26017">
        <ele>239.2</ele>
        <time>2022-06-18T05:20:07Z</time>
      </trkpt>
      <trkpt lat="46.30682" lon="5.26028">
        <ele>238.8</ele>
        <time>2022-06-18T05:20:08Z</time>
      </trkpt>
      <trkpt lat="46.30675" lon="5.26074">
        <ele>237.6</ele>
        <time>2022-06-18T05:20:12Z</time>
      </trkpt>
      <trkpt lat="46.30671" lon="5.26096">
        <ele>237.2</ele>
        <time>2022-06-18T05:20:14Z</time>
      </trkpt>
      <trkpt lat="46.30655" lon="5.26155">
        <ele>237</ele>
        <time>2022-06-18T05:20:20Z</time>
      </trkpt>
      <trkpt lat="46.30644" lon="5.26203">
        <ele>237.8</ele>
        <time>2022-06-18T05:20:25Z</time>
      </trkpt>
      <trkpt lat="46.30624" lon="5.26275">
        <ele>238.8</ele>
        <time>2022-06-18T05:20:33Z</time>
      </trkpt>
      <trkpt lat="46.30617" lon="5.26302">
        <ele>238.8</ele>
        <time>2022-06-18T05:20:36Z</time>
      </trkpt>
      <trkpt lat="46.30602" lon="5.2636">
        <ele>238.8</ele>
        <time>2022-06-18T05:20:42Z</time>
      </trkpt>
      <trkpt lat="46.30596" lon="5.26399">
        <ele>238.8</ele>
        <time>2022-06-18T05:20:46Z</time>
      </trkpt>
      <trkpt lat="46.30596" lon="5.26419">
        <ele>239</ele>
        <time>2022-06-18T05:20:48Z</time>
      </trkpt>
      <trkpt lat="46.30598" lon="5.26476">
        <ele>238.6</ele>
        <time>2022-06-18T05:20:53Z</time>
      </trkpt>
      <trkpt lat="46.30599" lon="5.26532">
        <ele>237.4</ele>
        <time>2022-06-18T05:20:57Z</time>
      </trkpt>
      <trkpt lat="46.30599" lon="5.26548">
        <ele>236.8</ele>
        <time>2022-06-18T05:20:58Z</time>
      </trkpt>
      <trkpt lat="46.30599" lon="5.26563">
        <ele>235.8</ele>
        <time>2022-06-18T05:20:59Z</time>
      </trkpt>
      <trkpt lat="46.30602" lon="5.26594">
        <ele>234.6</ele>
        <time>2022-06-18T05:21:01Z</time>
      </trkpt>
      <trkpt lat="46.30605" lon="5.26608">
        <ele>233</ele>
        <time>2022-06-18T05:21:02Z</time>
      </trkpt>
      <trkpt lat="46.3061" lon="5.26636">
        <ele>231</ele>
        <time>2022-06-18T05:21:04Z</time>
      </trkpt>
      <trkpt lat="46.30615" lon="5.26662">
        <ele>230.4</ele>
        <time>2022-06-18T05:21:06Z</time>
      </trkpt>
      <trkpt lat="46.3062" lon="5.26687">
        <ele>230</ele>
        <time>2022-06-18T05:21:08Z</time>
      </trkpt>
      <trkpt lat="46.30632" lon="5.26737">
        <ele>230.4</ele>
        <time>2022-06-18T05:21:13Z</time>
      </trkpt>
      <trkpt lat="46.30642" lon="5.26782">
        <ele>232.2</ele>
        <time>2022-06-18T05:21:18Z</time>
      </trkpt>
      <trkpt lat="46.30646" lon="5.26797">
        <ele>233</ele>
        <time>2022-06-18T05:21:20Z</time>
      </trkpt>
      <trkpt lat="46.30649" lon="5.26812">
        <ele>233.8</ele>
        <time>2022-06-18T05:21:22Z</time>
      </trkpt>
      <trkpt lat="46.3065" lon="5.26827">
        <ele>234.6</ele>
        <time>2022-06-18T05:21:24Z</time>
      </trkpt>
      <trkpt lat="46.30649" lon="5.26835">
        <ele>235.2</ele>
        <time>2022-06-18T05:21:25Z</time>
      </trkpt>
      <trkpt lat="46.30647" lon="5.26851">
        <ele>235.8</ele>
        <time>2022-06-18T05:21:27Z</time>
      </trkpt>
      <trkpt lat="46.30643" lon="5.26867">
        <ele>236.4</ele>
        <time>2022-06-18T05:21:29Z</time>
      </trkpt>
      <trkpt lat="46.3064" lon="5.26874">
        <ele>236.4</ele>
        <time>2022-06-18T05:21:30Z</time>
      </trkpt>
      <trkpt lat="46.30623" lon="5.26919">
        <ele>237.4</ele>
        <time>2022-06-18T05:21:36Z</time>
      </trkpt>
      <trkpt lat="46.30617" lon="5.26941">
        <ele>237.8</ele>
        <time>2022-06-18T05:21:39Z</time>
      </trkpt>
      <trkpt lat="46.30606" lon="5.26983">
        <ele>238.6</ele>
        <time>2022-06-18T05:21:44Z</time>
      </trkpt>
      <trkpt lat="46.30596" lon="5.27014">
        <ele>239</ele>
        <time>2022-06-18T05:21:48Z</time>
      </trkpt>
      <trkpt lat="46.30576" lon="5.27076">
        <ele>238.6</ele>
        <time>2022-06-18T05:21:55Z</time>
      </trkpt>
      <trkpt lat="46.30566" lon="5.27119">
        <ele>238</ele>
        <time>2022-06-18T05:21:59Z</time>
      </trkpt>
      <trkpt lat="46.30565" lon="5.27131">
        <ele>237.8</ele>
        <time>2022-06-18T05:22:00Z</time>
      </trkpt>
      <trkpt lat="46.30562" lon="5.27154">
        <ele>237.2</ele>
        <time>2022-06-18T05:22:02Z</time>
      </trkpt>
      <trkpt lat="46.30557" lon="5.27187">
        <ele>236.2</ele>
        <time>2022-06-18T05:22:05Z</time>
      </trkpt>
      <trkpt lat="46.30553" lon="5.27207">
        <ele>235.8</ele>
        <time>2022-06-18T05:22:07Z</time>
      </trkpt>
      <trkpt lat="46.30544" lon="5.27249">
        <ele>236.6</ele>
        <time>2022-06-18T05:22:12Z</time>
      </trkpt>
      <trkpt lat="46.30541" lon="5.27264">
        <ele>237.2</ele>
        <time>2022-06-18T05:22:14Z</time>
      </trkpt>
      <trkpt lat="46.30537" lon="5.27284">
        <ele>238.2</ele>
        <time>2022-06-18T05:22:17Z</time>
      </trkpt>
      <trkpt lat="46.30534" lon="5.27298">
        <ele>239.4</ele>
        <time>2022-06-18T05:22:19Z</time>
      </trkpt>
      <trkpt lat="46.30528" lon="5.27323">
        <ele>240.4</ele>
        <time>2022-06-18T05:22:23Z</time>
      </trkpt>
      <trkpt lat="46.30523" lon="5.2734">
        <ele>241.2</ele>
        <time>2022-06-18T05:22:26Z</time>
      </trkpt>
      <trkpt lat="46.30521" lon="5.27345">
        <ele>241.6</ele>
        <time>2022-06-18T05:22:27Z</time>
      </trkpt>
      <trkpt lat="46.30514" lon="5.27368">
        <ele>242.8</ele>
        <time>2022-06-18T05:22:31Z</time>
      </trkpt>
      <trkpt lat="46.30509" lon="5.27385">
        <ele>243.4</ele>
        <time>2022-06-18T05:22:34Z</time>
      </trkpt>
      <trkpt lat="46.30507" lon="5.27391">
        <ele>243.4</ele>
        <time>2022-06-18T05:22:35Z</time>
      </trkpt>
      <trkpt lat="46.30504" lon="5.27404">
        <ele>243.8</ele>
        <time>2022-06-18T05:22:37Z</time>
      </trkpt>
      <trkpt lat="46.30499" lon="5.27426">
        <ele>244.4</ele>
        <time>2022-06-18T05:22:40Z</time>
      </trkpt>
      <trkpt lat="46.30492" lon="5.27483">
        <ele>244.6</ele>
        <time>2022-06-18T05:22:47Z</time>
      </trkpt>
      <trkpt lat="46.30484" lon="5.27553">
        <ele>244.6</ele>
        <time>2022-06-18T05:22:55Z</time>
      </trkpt>
      <trkpt lat="46.30474" lon="5.276">
        <ele>244.4</ele>
        <time>2022-06-18T05:23:01Z</time>
      </trkpt>
      <trkpt lat="46.30472" lon="5.27607">
        <ele>244.4</ele>
        <time>2022-06-18T05:23:02Z</time>
      </trkpt>
      <trkpt lat="46.3045" lon="5.27648">
        <ele>244</ele>
        <time>2022-06-18T05:23:08Z</time>
      </trkpt>
      <trkpt lat="46.30446" lon="5.27654">
        <ele>243.8</ele>
        <time>2022-06-18T05:23:09Z</time>
      </trkpt>
      <trkpt lat="46.30422" lon="5.27685">
        <ele>243.4</ele>
        <time>2022-06-18T05:23:14Z</time>
      </trkpt>
      <trkpt lat="46.30414" lon="5.277">
        <ele>243.2</ele>
        <time>2022-06-18T05:23:16Z</time>
      </trkpt>
      <trkpt lat="46.30411" lon="5.27709">
        <ele>243.2</ele>
        <time>2022-06-18T05:23:17Z</time>
      </trkpt>
      <trkpt lat="46.30401" lon="5.27744">
        <ele>243.2</ele>
        <time>2022-06-18T05:23:21Z</time>
      </trkpt>
      <trkpt lat="46.30376" lon="5.27821">
        <ele>243</ele>
        <time>2022-06-18T05:23:30Z</time>
      </trkpt>
      <trkpt lat="46.30373" lon="5.27829">
        <ele>243</ele>
        <time>2022-06-18T05:23:31Z</time>
      </trkpt>
      <trkpt lat="46.30352" lon="5.27894">
        <ele>243.4</ele>
        <time>2022-06-18T05:23:39Z</time>
      </trkpt>
      <trkpt lat="46.30333" lon="5.2796">
        <ele>243.4</ele>
        <time>2022-06-18T05:23:47Z</time>
      </trkpt>
      <trkpt lat="46.3032" lon="5.28024">
        <ele>243.2</ele>
        <time>2022-06-18T05:23:54Z</time>
      </trkpt>
      <trkpt lat="46.30315" lon="5.28057">
        <ele>242.8</ele>
        <time>2022-06-18T05:23:57Z</time>
      </trkpt>
      <trkpt lat="46.30308" lon="5.281">
        <ele>241.4</ele>
        <time>2022-06-18T05:24:01Z</time>
      </trkpt>
      <trkpt lat="46.30296" lon="5.28184">
        <ele>240.4</ele>
        <time>2022-06-18T05:24:09Z</time>
      </trkpt>
      <trkpt lat="46.30296" lon="5.28195">
        <ele>240.4</ele>
        <time>2022-06-18T05:24:10Z</time>
      </trkpt>
      <trkpt lat="46.30297" lon="5.28208">
        <ele>240.2</ele>
        <time>2022-06-18T05:24:11Z</time>
      </trkpt>
      <trkpt lat="46.30303" lon="5.28239">
        <ele>239.6</ele>
        <time>2022-06-18T05:24:14Z</time>
      </trkpt>
      <trkpt lat="46.30303" lon="5.28251">
        <ele>239.2</ele>
        <time>2022-06-18T05:24:15Z</time>
      </trkpt>
      <trkpt lat="46.30302" lon="5.28263">
        <ele>239</ele>
        <time>2022-06-18T05:24:16Z</time>
      </trkpt>
      <trkpt lat="46.30301" lon="5.28276">
        <ele>238.6</ele>
        <time>2022-06-18T05:24:17Z</time>
      </trkpt>
      <trkpt lat="46.30299" lon="5.28289">
        <ele>238.2</ele>
        <time>2022-06-18T05:24:18Z</time>
      </trkpt>
      <trkpt lat="46.30291" lon="5.28332">
        <ele>237.2</ele>
        <time>2022-06-18T05:24:21Z</time>
      </trkpt>
      <trkpt lat="46.30287" lon="5.28347">
        <ele>236.2</ele>
        <time>2022-06-18T05:24:22Z</time>
      </trkpt>
      <trkpt lat="46.30282" lon="5.28366">
        <ele>236.2</ele>
        <time>2022-06-18T05:24:23Z</time>
      </trkpt>
      <trkpt lat="46.30279" lon="5.28378">
        <ele>234.8</ele>
        <time>2022-06-18T05:24:24Z</time>
      </trkpt>
      <trkpt lat="46.30271" lon="5.28411">
        <ele>233.6</ele>
        <time>2022-06-18T05:24:26Z</time>
      </trkpt>
      <trkpt lat="46.30266" lon="5.2843">
        <ele>231.8</ele>
        <time>2022-06-18T05:24:27Z</time>
      </trkpt>
      <trkpt lat="46.30258" lon="5.28463">
        <ele>229.6</ele>
        <time>2022-06-18T05:24:29Z</time>
      </trkpt>
      <trkpt lat="46.3025" lon="5.28492">
        <ele>227.6</ele>
        <time>2022-06-18T05:24:31Z</time>
      </trkpt>
      <trkpt lat="46.30242" lon="5.28524">
        <ele>225.8</ele>
        <time>2022-06-18T05:24:33Z</time>
      </trkpt>
      <trkpt lat="46.30237" lon="5.2854">
        <ele>224.6</ele>
        <time>2022-06-18T05:24:34Z</time>
      </trkpt>
      <trkpt lat="46.30229" lon="5.28574">
        <ele>223.2</ele>
        <time>2022-06-18T05:24:36Z</time>
      </trkpt>
      <trkpt lat="46.30221" lon="5.28605">
        <ele>222</ele>
        <time>2022-06-18T05:24:38Z</time>
      </trkpt>
      <trkpt lat="46.3021" lon="5.28647">
        <ele>220.6</ele>
        <time>2022-06-18T05:24:41Z</time>
      </trkpt>
      <trkpt lat="46.30203" lon="5.28674">
        <ele>220.6</ele>
        <time>2022-06-18T05:24:43Z</time>
      </trkpt>
      <trkpt lat="46.30176" lon="5.2873">
        <ele>220</ele>
        <time>2022-06-18T05:24:48Z</time>
      </trkpt>
      <trkpt lat="46.30143" lon="5.28797">
        <ele>219.8</ele>
        <time>2022-06-18T05:24:54Z</time>
      </trkpt>
      <trkpt lat="46.30138" lon="5.28808">
        <ele>219.8</ele>
        <time>2022-06-18T05:24:55Z</time>
      </trkpt>
      <trkpt lat="46.30133" lon="5.28831">
        <ele>219.4</ele>
        <time>2022-06-18T05:24:57Z</time>
      </trkpt>
      <trkpt lat="46.30127" lon="5.28876">
        <ele>219.8</ele>
        <time>2022-06-18T05:25:01Z</time>
      </trkpt>
      <trkpt lat="46.30124" lon="5.28885">
        <ele>219.8</ele>
        <time>2022-06-18T05:25:02Z</time>
      </trkpt>
      <trkpt lat="46.30121" lon="5.28893">
        <ele>219.8</ele>
        <time>2022-06-18T05:25:03Z</time>
      </trkpt>
      <trkpt lat="46.30113" lon="5.28907">
        <ele>220.4</ele>
        <time>2022-06-18T05:25:05Z</time>
      </trkpt>
      <trkpt lat="46.30106" lon="5.28916">
        <ele>221.2</ele>
        <time>2022-06-18T05:25:07Z</time>
      </trkpt>
      <trkpt lat="46.30101" lon="5.28921">
        <ele>222</ele>
        <time>2022-06-18T05:25:08Z</time>
      </trkpt>
      <trkpt lat="46.30092" lon="5.28928">
        <ele>222.6</ele>
        <time>2022-06-18T05:25:10Z</time>
      </trkpt>
      <trkpt lat="46.30067" lon="5.28939">
        <ele>224</ele>
        <time>2022-06-18T05:25:15Z</time>
      </trkpt>
      <trkpt lat="46.30052" lon="5.28944">
        <ele>225.2</ele>
        <time>2022-06-18T05:25:18Z</time>
      </trkpt>
      <trkpt lat="46.30034" lon="5.28949">
        <ele>226.4</ele>
        <time>2022-06-18T05:25:22Z</time>
      </trkpt>
      <trkpt lat="46.30023" lon="5.28953">
        <ele>227.6</ele>
        <time>2022-06-18T05:25:25Z</time>
      </trkpt>
      <trkpt lat="46.30012" lon="5.28957">
        <ele>228.4</ele>
        <time>2022-06-18T05:25:28Z</time>
      </trkpt>
      <trkpt lat="46.30008" lon="5.28958">
        <ele>229</ele>
        <time>2022-06-18T05:25:29Z</time>
      </trkpt>
      <trkpt lat="46.30001" lon="5.28962">
        <ele>229</ele>
        <time>2022-06-18T05:25:31Z</time>
      </trkpt>
      <trkpt lat="46.29997" lon="5.28969">
        <ele>229.6</ele>
        <time>2022-06-18T05:25:33Z</time>
      </trkpt>
      <trkpt lat="46.29994" lon="5.28979">
        <ele>230.2</ele>
        <time>2022-06-18T05:25:35Z</time>
      </trkpt>
      <trkpt lat="46.29994" lon="5.28987">
        <ele>230.8</ele>
        <time>2022-06-18T05:25:37Z</time>
      </trkpt>
      <trkpt lat="46.29995" lon="5.28997">
        <ele>231</ele>
        <time>2022-06-18T05:25:39Z</time>
      </trkpt>
      <trkpt lat="46.29992" lon="5.29006">
        <ele>231.6</ele>
        <time>2022-06-18T05:25:41Z</time>
      </trkpt>
      <trkpt lat="46.29985" lon="5.29013">
        <ele>231.6</ele>
        <time>2022-06-18T05:25:43Z</time>
      </trkpt>
      <trkpt lat="46.2998" lon="5.29015">
        <ele>231.6</ele>
        <time>2022-06-18T05:25:44Z</time>
      </trkpt>
      <trkpt lat="46.29944" lon="5.29032">
        <ele>231.6</ele>
        <time>2022-06-18T05:25:52Z</time>
      </trkpt>
      <trkpt lat="46.29923" lon="5.29045">
        <ele>232.2</ele>
        <time>2022-06-18T05:25:57Z</time>
      </trkpt>
      <trkpt lat="46.29914" lon="5.2905">
        <ele>232.8</ele>
        <time>2022-06-18T05:25:59Z</time>
      </trkpt>
      <trkpt lat="46.29884" lon="5.2907">
        <ele>233.6</ele>
        <time>2022-06-18T05:26:06Z</time>
      </trkpt>
      <trkpt lat="46.2988" lon="5.29073">
        <ele>233.6</ele>
        <time>2022-06-18T05:26:07Z</time>
      </trkpt>
      <trkpt lat="46.29854" lon="5.29099">
        <ele>234.6</ele>
        <time>2022-06-18T05:26:14Z</time>
      </trkpt>
      <trkpt lat="46.2985" lon="5.29104">
        <ele>234.8</ele>
        <time>2022-06-18T05:26:15Z</time>
      </trkpt>
      <trkpt lat="46.29825" lon="5.29134">
        <ele>235.6</ele>
        <time>2022-06-18T05:26:22Z</time>
      </trkpt>
      <trkpt lat="46.29813" lon="5.29147">
        <ele>236</ele>
        <time>2022-06-18T05:26:25Z</time>
      </trkpt>
      <trkpt lat="46.29779" lon="5.29184">
        <ele>236.2</ele>
        <time>2022-06-18T05:26:33Z</time>
      </trkpt>
      <trkpt lat="46.29776" lon="5.29189">
        <ele>236.2</ele>
        <time>2022-06-18T05:26:34Z</time>
      </trkpt>
      <trkpt lat="46.2977" lon="5.29202">
        <ele>236.4</ele>
        <time>2022-06-18T05:26:36Z</time>
      </trkpt>
      <trkpt lat="46.29764" lon="5.29221">
        <ele>236.6</ele>
        <time>2022-06-18T05:26:39Z</time>
      </trkpt>
      <trkpt lat="46.29762" lon="5.29228">
        <ele>236.8</ele>
        <time>2022-06-18T05:26:40Z</time>
      </trkpt>
      <trkpt lat="46.29752" lon="5.29272">
        <ele>237.8</ele>
        <time>2022-06-18T05:26:47Z</time>
      </trkpt>
      <trkpt lat="46.29742" lon="5.29308">
        <ele>239</ele>
        <time>2022-06-18T05:26:53Z</time>
      </trkpt>
      <trkpt lat="46.29741" lon="5.29315">
        <ele>239.4</ele>
        <time>2022-06-18T05:26:54Z</time>
      </trkpt>
      <trkpt lat="46.29733" lon="5.29352">
        <ele>240</ele>
        <time>2022-06-18T05:27:00Z</time>
      </trkpt>
      <trkpt lat="46.2973" lon="5.29363">
        <ele>240.4</ele>
        <time>2022-06-18T05:27:02Z</time>
      </trkpt>
      <trkpt lat="46.29722" lon="5.29386">
        <ele>241.2</ele>
        <time>2022-06-18T05:27:06Z</time>
      </trkpt>
      <trkpt lat="46.29713" lon="5.29404">
        <ele>241.6</ele>
        <time>2022-06-18T05:27:09Z</time>
      </trkpt>
      <trkpt lat="46.297" lon="5.29428">
        <ele>242.4</ele>
        <time>2022-06-18T05:27:13Z</time>
      </trkpt>
      <trkpt lat="46.29689" lon="5.29444">
        <ele>242.6</ele>
        <time>2022-06-18T05:27:16Z</time>
      </trkpt>
      <trkpt lat="46.29659" lon="5.29486">
        <ele>242.8</ele>
        <time>2022-06-18T05:27:24Z</time>
      </trkpt>
      <trkpt lat="46.29645" lon="5.29503">
        <ele>243</ele>
        <time>2022-06-18T05:27:27Z</time>
      </trkpt>
      <trkpt lat="46.29631" lon="5.29528">
        <ele>243</ele>
        <time>2022-06-18T05:27:31Z</time>
      </trkpt>
      <trkpt lat="46.29618" lon="5.2956">
        <ele>243.4</ele>
        <time>2022-06-18T05:27:36Z</time>
      </trkpt>
      <trkpt lat="46.29616" lon="5.29567">
        <ele>243.6</ele>
        <time>2022-06-18T05:27:37Z</time>
      </trkpt>
      <trkpt lat="46.29602" lon="5.29613">
        <ele>244.6</ele>
        <time>2022-06-18T05:27:43Z</time>
      </trkpt>
      <trkpt lat="46.29598" lon="5.29631">
        <ele>244.6</ele>
        <time>2022-06-18T05:27:45Z</time>
      </trkpt>
      <trkpt lat="46.29581" lon="5.29704">
        <ele>244.6</ele>
        <time>2022-06-18T05:27:54Z</time>
      </trkpt>
      <trkpt lat="46.29564" lon="5.29781">
        <ele>245</ele>
        <time>2022-06-18T05:28:03Z</time>
      </trkpt>
      <trkpt lat="46.29563" lon="5.29788">
        <ele>245</ele>
        <time>2022-06-18T05:28:04Z</time>
      </trkpt>
      <trkpt lat="46.29548" lon="5.29855">
        <ele>245.2</ele>
        <time>2022-06-18T05:28:12Z</time>
      </trkpt>
      <trkpt lat="46.29538" lon="5.29897">
        <ele>245.6</ele>
        <time>2022-06-18T05:28:17Z</time>
      </trkpt>
      <trkpt lat="46.29537" lon="5.29905">
        <ele>245.6</ele>
        <time>2022-06-18T05:28:18Z</time>
      </trkpt>
      <trkpt lat="46.29524" lon="5.29951">
        <ele>245.6</ele>
        <time>2022-06-18T05:28:24Z</time>
      </trkpt>
      <trkpt lat="46.29522" lon="5.29957">
        <ele>245.6</ele>
        <time>2022-06-18T05:28:25Z</time>
      </trkpt>
      <trkpt lat="46.2952" lon="5.29963">
        <ele>245.6</ele>
        <time>2022-06-18T05:28:26Z</time>
      </trkpt>
      <trkpt lat="46.2951" lon="5.29975">
        <ele>245.8</ele>
        <time>2022-06-18T05:28:29Z</time>
      </trkpt>
      <trkpt lat="46.29501" lon="5.29973">
        <ele>246</ele>
        <time>2022-06-18T05:28:31Z</time>
      </trkpt>
      <trkpt lat="46.29491" lon="5.29969">
        <ele>246.4</ele>
        <time>2022-06-18T05:28:33Z</time>
      </trkpt>
      <trkpt lat="46.29486" lon="5.29967">
        <ele>246.6</ele>
        <time>2022-06-18T05:28:34Z</time>
      </trkpt>
      <trkpt lat="46.29462" lon="5.29958">
        <ele>246.8</ele>
        <time>2022-06-18T05:28:38Z</time>
      </trkpt>
      <trkpt lat="46.2945" lon="5.29953">
        <ele>246.8</ele>
        <time>2022-06-18T05:28:40Z</time>
      </trkpt>
      <trkpt lat="46.29444" lon="5.29954">
        <ele>246.8</ele>
        <time>2022-06-18T05:28:41Z</time>
      </trkpt>
      <trkpt lat="46.29439" lon="5.29957">
        <ele>246.8</ele>
        <time>2022-06-18T05:28:42Z</time>
      </trkpt>
      <trkpt lat="46.29421" lon="5.29973">
        <ele>246.8</ele>
        <time>2022-06-18T05:28:45Z</time>
      </trkpt>
      <trkpt lat="46.29381" lon="5.30015">
        <ele>246.2</ele>
        <time>2022-06-18T05:28:52Z</time>
      </trkpt>
      <trkpt lat="46.29346" lon="5.30052">
        <ele>246.4</ele>
        <time>2022-06-18T05:28:59Z</time>
      </trkpt>
      <trkpt lat="46.29313" lon="5.30088">
        <ele>247.2</ele>
        <time>2022-06-18T05:29:06Z</time>
      </trkpt>
      <trkpt lat="46.2929" lon="5.30112">
        <ele>247.6</ele>
        <time>2022-06-18T05:29:11Z</time>
      </trkpt>
      <trkpt lat="46.29281" lon="5.30121">
        <ele>247.8</ele>
        <time>2022-06-18T05:29:13Z</time>
      </trkpt>
      <trkpt lat="46.29243" lon="5.30161">
        <ele>248.2</ele>
        <time>2022-06-18T05:29:21Z</time>
      </trkpt>
      <trkpt lat="46.29211" lon="5.30195">
        <ele>248.2</ele>
        <time>2022-06-18T05:29:27Z</time>
      </trkpt>
      <trkpt lat="46.29165" lon="5.30244">
        <ele>248.2</ele>
        <time>2022-06-18T05:29:36Z</time>
      </trkpt>
      <trkpt lat="46.29125" lon="5.30287">
        <ele>248.6</ele>
        <time>2022-06-18T05:29:44Z</time>
      </trkpt>
      <trkpt lat="46.29079" lon="5.30337">
        <ele>248.4</ele>
        <time>2022-06-18T05:29:53Z</time>
      </trkpt>
      <trkpt lat="46.29074" lon="5.30342">
        <ele>248.4</ele>
        <time>2022-06-18T05:29:54Z</time>
      </trkpt>
      <trkpt lat="46.29043" lon="5.30367">
        <ele>248.6</ele>
        <time>2022-06-18T05:30:00Z</time>
      </trkpt>
      <trkpt lat="46.29" lon="5.30381">
        <ele>248.6</ele>
        <time>2022-06-18T05:30:07Z</time>
      </trkpt>
      <trkpt lat="46.28964" lon="5.30392">
        <ele>248.8</ele>
        <time>2022-06-18T05:30:13Z</time>
      </trkpt>
      <trkpt lat="46.28958" lon="5.30393">
        <ele>249</ele>
        <time>2022-06-18T05:30:14Z</time>
      </trkpt>
      <trkpt lat="46.2894" lon="5.30396">
        <ele>249.8</ele>
        <time>2022-06-18T05:30:17Z</time>
      </trkpt>
      <trkpt lat="46.28934" lon="5.30398">
        <ele>249.8</ele>
        <time>2022-06-18T05:30:18Z</time>
      </trkpt>
      <trkpt lat="46.28922" lon="5.30401">
        <ele>250.2</ele>
        <time>2022-06-18T05:30:20Z</time>
      </trkpt>
      <trkpt lat="46.28893" lon="5.30408">
        <ele>250.8</ele>
        <time>2022-06-18T05:30:25Z</time>
      </trkpt>
      <trkpt lat="46.28882" lon="5.30411">
        <ele>251</ele>
        <time>2022-06-18T05:30:27Z</time>
      </trkpt>
      <trkpt lat="46.28854" lon="5.30419">
        <ele>252</ele>
        <time>2022-06-18T05:30:32Z</time>
      </trkpt>
      <trkpt lat="46.28831" lon="5.30426">
        <ele>252.2</ele>
        <time>2022-06-18T05:30:36Z</time>
      </trkpt>
      <trkpt lat="46.2878" lon="5.30434">
        <ele>251.8</ele>
        <time>2022-06-18T05:30:44Z</time>
      </trkpt>
      <trkpt lat="46.28731" lon="5.30442">
        <ele>251.2</ele>
        <time>2022-06-18T05:30:52Z</time>
      </trkpt>
      <trkpt lat="46.28714" lon="5.30444">
        <ele>251</ele>
        <time>2022-06-18T05:30:55Z</time>
      </trkpt>
      <trkpt lat="46.28699" lon="5.30446">
        <ele>251</ele>
        <time>2022-06-18T05:30:58Z</time>
      </trkpt>
      <trkpt lat="46.28689" lon="5.30447">
        <ele>251</ele>
        <time>2022-06-18T05:31:01Z</time>
      </trkpt>
      <trkpt lat="46.28687" lon="5.3045">
        <ele>251</ele>
        <time>2022-06-18T05:31:02Z</time>
      </trkpt>
      <trkpt lat="46.28685" lon="5.30455">
        <ele>251</ele>
        <time>2022-06-18T05:31:03Z</time>
      </trkpt>
      <trkpt lat="46.28684" lon="5.30478">
        <ele>251.2</ele>
        <time>2022-06-18T05:31:06Z</time>
      </trkpt>
      <trkpt lat="46.28682" lon="5.30533">
        <ele>251.4</ele>
        <time>2022-06-18T05:31:12Z</time>
      </trkpt>
      <trkpt lat="46.28677" lon="5.30593">
        <ele>251.4</ele>
        <time>2022-06-18T05:31:18Z</time>
      </trkpt>
      <trkpt lat="46.28671" lon="5.30678">
        <ele>251.8</ele>
        <time>2022-06-18T05:31:26Z</time>
      </trkpt>
      <trkpt lat="46.28671" lon="5.30688">
        <ele>251.8</ele>
        <time>2022-06-18T05:31:27Z</time>
      </trkpt>
      <trkpt lat="46.28668" lon="5.30729">
        <ele>252.2</ele>
        <time>2022-06-18T05:31:31Z</time>
      </trkpt>
      <trkpt lat="46.28666" lon="5.3077">
        <ele>252.4</ele>
        <time>2022-06-18T05:31:35Z</time>
      </trkpt>
      <trkpt lat="46.28661" lon="5.30846">
        <ele>253</ele>
        <time>2022-06-18T05:31:43Z</time>
      </trkpt>
      <trkpt lat="46.2866" lon="5.30865">
        <ele>253.2</ele>
        <time>2022-06-18T05:31:45Z</time>
      </trkpt>
      <trkpt lat="46.28656" lon="5.30936">
        <ele>254.2</ele>
        <time>2022-06-18T05:31:53Z</time>
      </trkpt>
      <trkpt lat="46.28655" lon="5.30945">
        <ele>254.2</ele>
        <time>2022-06-18T05:31:54Z</time>
      </trkpt>
      <trkpt lat="46.28652" lon="5.30998">
        <ele>255</ele>
        <time>2022-06-18T05:32:00Z</time>
      </trkpt>
      <trkpt lat="46.28651" lon="5.31026">
        <ele>255.2</ele>
        <time>2022-06-18T05:32:03Z</time>
      </trkpt>
      <trkpt lat="46.28648" lon="5.31075">
        <ele>255.2</ele>
        <time>2022-06-18T05:32:08Z</time>
      </trkpt>
      <trkpt lat="46.28647" lon="5.31155">
        <ele>255.4</ele>
        <time>2022-06-18T05:32:16Z</time>
      </trkpt>
      <trkpt lat="46.28646" lon="5.31176">
        <ele>255.4</ele>
        <time>2022-06-18T05:32:18Z</time>
      </trkpt>
      <trkpt lat="46.28645" lon="5.31244">
        <ele>254.8</ele>
        <time>2022-06-18T05:32:24Z</time>
      </trkpt>
      <trkpt lat="46.28645" lon="5.31299">
        <ele>254.2</ele>
        <time>2022-06-18T05:32:29Z</time>
      </trkpt>
      <trkpt lat="46.28644" lon="5.31328">
        <ele>254.2</ele>
        <time>2022-06-18T05:32:32Z</time>
      </trkpt>
      <trkpt lat="46.28637" lon="5.31375">
        <ele>255</ele>
        <time>2022-06-18T05:32:37Z</time>
      </trkpt>
      <trkpt lat="46.28634" lon="5.31384">
        <ele>255</ele>
        <time>2022-06-18T05:32:38Z</time>
      </trkpt>
      <trkpt lat="46.28608" lon="5.31442">
        <ele>256</ele>
        <time>2022-06-18T05:32:45Z</time>
      </trkpt>
      <trkpt lat="46.28596" lon="5.3146">
        <ele>256.2</ele>
        <time>2022-06-18T05:32:47Z</time>
      </trkpt>
      <trkpt lat="46.28575" lon="5.3149">
        <ele>256.4</ele>
        <time>2022-06-18T05:32:51Z</time>
      </trkpt>
      <trkpt lat="46.28547" lon="5.31537">
        <ele>257</ele>
        <time>2022-06-18T05:32:57Z</time>
      </trkpt>
      <trkpt lat="46.28536" lon="5.31561">
        <ele>257.4</ele>
        <time>2022-06-18T05:33:00Z</time>
      </trkpt>
      <trkpt lat="46.28511" lon="5.31614">
        <ele>257.6</ele>
        <time>2022-06-18T05:33:06Z</time>
      </trkpt>
      <trkpt lat="46.2848" lon="5.3168">
        <ele>257.4</ele>
        <time>2022-06-18T05:33:14Z</time>
      </trkpt>
      <trkpt lat="46.28475" lon="5.31688">
        <ele>257.4</ele>
        <time>2022-06-18T05:33:15Z</time>
      </trkpt>
      <trkpt lat="46.28445" lon="5.31752">
        <ele>257.8</ele>
        <time>2022-06-18T05:33:23Z</time>
      </trkpt>
      <trkpt lat="46.28415" lon="5.31826">
        <ele>258.2</ele>
        <time>2022-06-18T05:33:32Z</time>
      </trkpt>
      <trkpt lat="46.28411" lon="5.31834">
        <ele>258.2</ele>
        <time>2022-06-18T05:33:33Z</time>
      </trkpt>
      <trkpt lat="46.28385" lon="5.31904">
        <ele>258.6</ele>
        <time>2022-06-18T05:33:41Z</time>
      </trkpt>
      <trkpt lat="46.28378" lon="5.31921">
        <ele>258.6</ele>
        <time>2022-06-18T05:33:43Z</time>
      </trkpt>
      <trkpt lat="46.28352" lon="5.31995">
        <ele>258</ele>
        <time>2022-06-18T05:33:51Z</time>
      </trkpt>
      <trkpt lat="46.28344" lon="5.32014">
        <ele>257.8</ele>
        <time>2022-06-18T05:33:53Z</time>
      </trkpt>
      <trkpt lat="46.28325" lon="5.32064">
        <ele>257.2</ele>
        <time>2022-06-18T05:33:58Z</time>
      </trkpt>
      <trkpt lat="46.28311" lon="5.32107">
        <ele>256</ele>
        <time>2022-06-18T05:34:02Z</time>
      </trkpt>
      <trkpt lat="46.28295" lon="5.32156">
        <ele>254.8</ele>
        <time>2022-06-18T05:34:06Z</time>
      </trkpt>
      <trkpt lat="46.28285" lon="5.32193">
        <ele>253.2</ele>
        <time>2022-06-18T05:34:09Z</time>
      </trkpt>
      <trkpt lat="46.28279" lon="5.32218">
        <ele>252.2</ele>
        <time>2022-06-18T05:34:11Z</time>
      </trkpt>
      <trkpt lat="46.28271" lon="5.32265">
        <ele>251.6</ele>
        <time>2022-06-18T05:34:15Z</time>
      </trkpt>
      <trkpt lat="46.28263" lon="5.32342">
        <ele>252</ele>
        <time>2022-06-18T05:34:22Z</time>
      </trkpt>
      <trkpt lat="46.28261" lon="5.32423">
        <ele>252.2</ele>
        <time>2022-06-18T05:34:29Z</time>
      </trkpt>
      <trkpt lat="46.28257" lon="5.32503">
        <ele>251.6</ele>
        <time>2022-06-18T05:34:36Z</time>
      </trkpt>
      <trkpt lat="46.28255" lon="5.32525">
        <ele>251.6</ele>
        <time>2022-06-18T05:34:38Z</time>
      </trkpt>
      <trkpt lat="46.28246" lon="5.32602">
        <ele>251.8</ele>
        <time>2022-06-18T05:34:45Z</time>
      </trkpt>
      <trkpt lat="46.28244" lon="5.32613">
        <ele>251.8</ele>
        <time>2022-06-18T05:34:46Z</time>
      </trkpt>
      <trkpt lat="46.2823" lon="5.32687">
        <ele>251.4</ele>
        <time>2022-06-18T05:34:53Z</time>
      </trkpt>
      <trkpt lat="46.28217" lon="5.32742">
        <ele>252</ele>
        <time>2022-06-18T05:34:59Z</time>
      </trkpt>
      <trkpt lat="46.2821" lon="5.32783">
        <ele>253.2</ele>
        <time>2022-06-18T05:35:04Z</time>
      </trkpt>
      <trkpt lat="46.28206" lon="5.32798">
        <ele>253.8</ele>
        <time>2022-06-18T05:35:06Z</time>
      </trkpt>
      <trkpt lat="46.28204" lon="5.32812">
        <ele>254.4</ele>
        <time>2022-06-18T05:35:08Z</time>
      </trkpt>
      <trkpt lat="46.28199" lon="5.32835">
        <ele>255.6</ele>
        <time>2022-06-18T05:35:11Z</time>
      </trkpt>
      <trkpt lat="46.28196" lon="5.32849">
        <ele>256.4</ele>
        <time>2022-06-18T05:35:13Z</time>
      </trkpt>
      <trkpt lat="46.28195" lon="5.32858">
        <ele>256.6</ele>
        <time>2022-06-18T05:35:14Z</time>
      </trkpt>
      <trkpt lat="46.28189" lon="5.329">
        <ele>257.8</ele>
        <time>2022-06-18T05:35:20Z</time>
      </trkpt>
      <trkpt lat="46.28188" lon="5.32908">
        <ele>258.4</ele>
        <time>2022-06-18T05:35:21Z</time>
      </trkpt>
      <trkpt lat="46.28186" lon="5.32922">
        <ele>259</ele>
        <time>2022-06-18T05:35:23Z</time>
      </trkpt>
      <trkpt lat="46.2818" lon="5.32971">
        <ele>260</ele>
        <time>2022-06-18T05:35:29Z</time>
      </trkpt>
      <trkpt lat="46.28179" lon="5.32978">
        <ele>260</ele>
        <time>2022-06-18T05:35:30Z</time>
      </trkpt>
      <trkpt lat="46.28172" lon="5.33039">
        <ele>260.6</ele>
        <time>2022-06-18T05:35:37Z</time>
      </trkpt>
      <trkpt lat="46.2817" lon="5.33056">
        <ele>260.8</ele>
        <time>2022-06-18T05:35:39Z</time>
      </trkpt>
      <trkpt lat="46.28166" lon="5.33098">
        <ele>261.4</ele>
        <time>2022-06-18T05:35:44Z</time>
      </trkpt>
      <trkpt lat="46.28157" lon="5.33176">
        <ele>261.8</ele>
        <time>2022-06-18T05:35:53Z</time>
      </trkpt>
      <trkpt lat="46.28154" lon="5.33212">
        <ele>261.8</ele>
        <time>2022-06-18T05:35:57Z</time>
      </trkpt>
      <trkpt lat="46.28152" lon="5.33286">
        <ele>261.6</ele>
        <time>2022-06-18T05:36:05Z</time>
      </trkpt>
      <trkpt lat="46.28153" lon="5.33365">
        <ele>262</ele>
        <time>2022-06-18T05:36:14Z</time>
      </trkpt>
      <trkpt lat="46.28154" lon="5.33375">
        <ele>262</ele>
        <time>2022-06-18T05:36:15Z</time>
      </trkpt>
      <trkpt lat="46.28157" lon="5.33439">
        <ele>263</ele>
        <time>2022-06-18T05:36:23Z</time>
      </trkpt>
      <trkpt lat="46.28158" lon="5.33449">
        <ele>263</ele>
        <time>2022-06-18T05:36:24Z</time>
      </trkpt>
      <trkpt lat="46.28162" lon="5.33526">
        <ele>263.8</ele>
        <time>2022-06-18T05:36:33Z</time>
      </trkpt>
      <trkpt lat="46.28165" lon="5.33579">
        <ele>264</ele>
        <time>2022-06-18T05:36:39Z</time>
      </trkpt>
      <trkpt lat="46.28168" lon="5.33615">
        <ele>264.4</ele>
        <time>2022-06-18T05:36:43Z</time>
      </trkpt>
      <trkpt lat="46.28174" lon="5.33667">
        <ele>264.4</ele>
        <time>2022-06-18T05:36:49Z</time>
      </trkpt>
      <trkpt lat="46.28173" lon="5.33676">
        <ele>264.4</ele>
        <time>2022-06-18T05:36:50Z</time>
      </trkpt>
      <trkpt lat="46.28171" lon="5.33684">
        <ele>264.4</ele>
        <time>2022-06-18T05:36:51Z</time>
      </trkpt>
      <trkpt lat="46.28167" lon="5.3369">
        <ele>264.4</ele>
        <time>2022-06-18T05:36:52Z</time>
      </trkpt>
      <trkpt lat="46.28163" lon="5.33692">
        <ele>264.2</ele>
        <time>2022-06-18T05:36:53Z</time>
      </trkpt>
      <trkpt lat="46.28151" lon="5.3369">
        <ele>264.2</ele>
        <time>2022-06-18T05:36:55Z</time>
      </trkpt>
      <trkpt lat="46.2814" lon="5.33681">
        <ele>264</ele>
        <time>2022-06-18T05:36:57Z</time>
      </trkpt>
      <trkpt lat="46.28119" lon="5.33672">
        <ele>263.8</ele>
        <time>2022-06-18T05:37:00Z</time>
      </trkpt>
      <trkpt lat="46.28072" lon="5.3365">
        <ele>263.4</ele>
        <time>2022-06-18T05:37:07Z</time>
      </trkpt>
      <trkpt lat="46.28044" lon="5.33637">
        <ele>263</ele>
        <time>2022-06-18T05:37:11Z</time>
      </trkpt>
      <trkpt lat="46.28003" lon="5.33617">
        <ele>262.8</ele>
        <time>2022-06-18T05:37:17Z</time>
      </trkpt>
      <trkpt lat="46.27946" lon="5.33591">
        <ele>262.4</ele>
        <time>2022-06-18T05:37:25Z</time>
      </trkpt>
      <trkpt lat="46.27925" lon="5.33581">
        <ele>262.6</ele>
        <time>2022-06-18T05:37:28Z</time>
      </trkpt>
      <trkpt lat="46.27883" lon="5.3356">
        <ele>263</ele>
        <time>2022-06-18T05:37:35Z</time>
      </trkpt>
      <trkpt lat="46.27877" lon="5.3355">
        <ele>263</ele>
        <time>2022-06-18T05:37:37Z</time>
      </trkpt>
      <trkpt lat="46.27875" lon="5.33544">
        <ele>263</ele>
        <time>2022-06-18T05:37:38Z</time>
      </trkpt>
      <trkpt lat="46.27871" lon="5.3353">
        <ele>263</ele>
        <time>2022-06-18T05:37:42Z</time>
      </trkpt>
      <trkpt lat="46.27871" lon="5.3353">
        <ele>263</ele>
        <time>2022-06-18T05:37:44Z</time>
      </trkpt>
      <trkpt lat="46.27872" lon="5.33537">
        <ele>263</ele>
        <time>2022-06-18T05:38:28Z</time>
      </trkpt>
      <trkpt lat="46.27872" lon="5.33542">
        <ele>263</ele>
        <time>2022-06-18T05:38:29Z</time>
      </trkpt>
      <trkpt lat="46.27869" lon="5.33551">
        <ele>263</ele>
        <time>2022-06-18T05:38:31Z</time>
      </trkpt>
      <trkpt lat="46.27866" lon="5.33553">
        <ele>263</ele>
        <time>2022-06-18T05:38:32Z</time>
      </trkpt>
      <trkpt lat="46.2785" lon="5.33548">
        <ele>263</ele>
        <time>2022-06-18T05:38:35Z</time>
      </trkpt>
      <trkpt lat="46.27819" lon="5.33534">
        <ele>262.6</ele>
        <time>2022-06-18T05:38:40Z</time>
      </trkpt>
      <trkpt lat="46.27813" lon="5.33531">
        <ele>262.6</ele>
        <time>2022-06-18T05:38:41Z</time>
      </trkpt>
      <trkpt lat="46.27802" lon="5.33521">
        <ele>262.4</ele>
        <time>2022-06-18T05:38:43Z</time>
      </trkpt>
      <trkpt lat="46.27796" lon="5.33515">
        <ele>262.2</ele>
        <time>2022-06-18T05:38:44Z</time>
      </trkpt>
      <trkpt lat="46.27792" lon="5.33508">
        <ele>262.2</ele>
        <time>2022-06-18T05:38:45Z</time>
      </trkpt>
      <trkpt lat="46.27769" lon="5.33473">
        <ele>262.2</ele>
        <time>2022-06-18T05:38:50Z</time>
      </trkpt>
      <trkpt lat="46.27732" lon="5.33415">
        <ele>262.2</ele>
        <time>2022-06-18T05:38:58Z</time>
      </trkpt>
      <trkpt lat="46.27727" lon="5.33409">
        <ele>262.2</ele>
        <time>2022-06-18T05:38:59Z</time>
      </trkpt>
      <trkpt lat="46.27695" lon="5.33377">
        <ele>262.2</ele>
        <time>2022-06-18T05:39:05Z</time>
      </trkpt>
      <trkpt lat="46.2765" lon="5.33354">
        <ele>262.2</ele>
        <time>2022-06-18T05:39:12Z</time>
      </trkpt>
      <trkpt lat="46.27616" lon="5.33341">
        <ele>262</ele>
        <time>2022-06-18T05:39:17Z</time>
      </trkpt>
      <trkpt lat="46.2761" lon="5.33337">
        <ele>261.8</ele>
        <time>2022-06-18T05:39:18Z</time>
      </trkpt>
      <trkpt lat="46.27576" lon="5.33301">
        <ele>261.8</ele>
        <time>2022-06-18T05:39:24Z</time>
      </trkpt>
      <trkpt lat="46.2754" lon="5.33258">
        <ele>262</ele>
        <time>2022-06-18T05:39:31Z</time>
      </trkpt>
      <trkpt lat="46.27499" lon="5.33205">
        <ele>262</ele>
        <time>2022-06-18T05:39:39Z</time>
      </trkpt>
      <trkpt lat="46.27475" lon="5.33156">
        <ele>261.8</ele>
        <time>2022-06-18T05:39:45Z</time>
      </trkpt>
      <trkpt lat="46.27447" lon="5.33096">
        <ele>261.2</ele>
        <time>2022-06-18T05:39:52Z</time>
      </trkpt>
      <trkpt lat="46.27426" lon="5.33051">
        <ele>261</ele>
        <time>2022-06-18T05:39:57Z</time>
      </trkpt>
      <trkpt lat="46.27412" lon="5.33025">
        <ele>260.4</ele>
        <time>2022-06-18T05:40:00Z</time>
      </trkpt>
      <trkpt lat="46.27399" lon="5.32999">
        <ele>260</ele>
        <time>2022-06-18T05:40:03Z</time>
      </trkpt>
      <trkpt lat="46.27395" lon="5.3299">
        <ele>259.8</ele>
        <time>2022-06-18T05:40:04Z</time>
      </trkpt>
      <trkpt lat="46.27392" lon="5.32979">
        <ele>259.4</ele>
        <time>2022-06-18T05:40:05Z</time>
      </trkpt>
      <trkpt lat="46.27378" lon="5.32919">
        <ele>258.6</ele>
        <time>2022-06-18T05:40:11Z</time>
      </trkpt>
      <trkpt lat="46.27369" lon="5.32893">
        <ele>258.2</ele>
        <time>2022-06-18T05:40:14Z</time>
      </trkpt>
      <trkpt lat="46.27366" lon="5.32886">
        <ele>258.2</ele>
        <time>2022-06-18T05:40:15Z</time>
      </trkpt>
      <trkpt lat="46.27361" lon="5.3288">
        <ele>258.2</ele>
        <time>2022-06-18T05:40:16Z</time>
      </trkpt>
      <trkpt lat="46.27349" lon="5.32873">
        <ele>258</ele>
        <time>2022-06-18T05:40:18Z</time>
      </trkpt>
      <trkpt lat="46.27342" lon="5.32871">
        <ele>258</ele>
        <time>2022-06-18T05:40:19Z</time>
      </trkpt>
      <trkpt lat="46.27313" lon="5.32863">
        <ele>257.6</ele>
        <time>2022-06-18T05:40:23Z</time>
      </trkpt>
      <trkpt lat="46.27266" lon="5.32854">
        <ele>256.8</ele>
        <time>2022-06-18T05:40:29Z</time>
      </trkpt>
      <trkpt lat="46.27258" lon="5.32854">
        <ele>256.4</ele>
        <time>2022-06-18T05:40:30Z</time>
      </trkpt>
      <trkpt lat="46.2725" lon="5.32855">
        <ele>256.2</ele>
        <time>2022-06-18T05:40:31Z</time>
      </trkpt>
      <trkpt lat="46.27235" lon="5.32863">
        <ele>255.8</ele>
        <time>2022-06-18T05:40:33Z</time>
      </trkpt>
      <trkpt lat="46.27216" lon="5.32887">
        <ele>255.4</ele>
        <time>2022-06-18T05:40:36Z</time>
      </trkpt>
      <trkpt lat="46.27181" lon="5.32935">
        <ele>254.6</ele>
        <time>2022-06-18T05:40:42Z</time>
      </trkpt>
      <trkpt lat="46.27166" lon="5.32963">
        <ele>254.4</ele>
        <time>2022-06-18T05:40:45Z</time>
      </trkpt>
      <trkpt lat="46.27145" lon="5.33004">
        <ele>253.8</ele>
        <time>2022-06-18T05:40:49Z</time>
      </trkpt>
      <trkpt lat="46.27129" lon="5.33036">
        <ele>253.2</ele>
        <time>2022-06-18T05:40:52Z</time>
      </trkpt>
      <trkpt lat="46.27112" lon="5.3307">
        <ele>252</ele>
        <time>2022-06-18T05:40:55Z</time>
      </trkpt>
      <trkpt lat="46.271" lon="5.33093">
        <ele>251</ele>
        <time>2022-06-18T05:40:57Z</time>
      </trkpt>
      <trkpt lat="46.27088" lon="5.33117">
        <ele>249.6</ele>
        <time>2022-06-18T05:40:59Z</time>
      </trkpt>
      <trkpt lat="46.27075" lon="5.33142">
        <ele>248.2</ele>
        <time>2022-06-18T05:41:01Z</time>
      </trkpt>
      <trkpt lat="46.27068" lon="5.33153">
        <ele>247.6</ele>
        <time>2022-06-18T05:41:02Z</time>
      </trkpt>
      <trkpt lat="46.2706" lon="5.33164">
        <ele>247</ele>
        <time>2022-06-18T05:41:03Z</time>
      </trkpt>
      <trkpt lat="46.2705" lon="5.33171">
        <ele>246.8</ele>
        <time>2022-06-18T05:41:04Z</time>
      </trkpt>
      <trkpt lat="46.27039" lon="5.33176">
        <ele>246.2</ele>
        <time>2022-06-18T05:41:05Z</time>
      </trkpt>
      <trkpt lat="46.27029" lon="5.3318">
        <ele>245.8</ele>
        <time>2022-06-18T05:41:06Z</time>
      </trkpt>
      <trkpt lat="46.27018" lon="5.33184">
        <ele>244.6</ele>
        <time>2022-06-18T05:41:07Z</time>
      </trkpt>
      <trkpt lat="46.26997" lon="5.33192">
        <ele>243.2</ele>
        <time>2022-06-18T05:41:09Z</time>
      </trkpt>
      <trkpt lat="46.26977" lon="5.33199">
        <ele>242.2</ele>
        <time>2022-06-18T05:41:11Z</time>
      </trkpt>
      <trkpt lat="46.26967" lon="5.33203">
        <ele>241.6</ele>
        <time>2022-06-18T05:41:12Z</time>
      </trkpt>
      <trkpt lat="46.26939" lon="5.33214">
        <ele>241.2</ele>
        <time>2022-06-18T05:41:15Z</time>
      </trkpt>
      <trkpt lat="46.26904" lon="5.33227">
        <ele>241</ele>
        <time>2022-06-18T05:41:19Z</time>
      </trkpt>
      <trkpt lat="46.26856" lon="5.33247">
        <ele>241.4</ele>
        <time>2022-06-18T05:41:25Z</time>
      </trkpt>
      <trkpt lat="46.26836" lon="5.33256">
        <ele>242.2</ele>
        <time>2022-06-18T05:41:28Z</time>
      </trkpt>
      <trkpt lat="46.26816" lon="5.33265">
        <ele>242.8</ele>
        <time>2022-06-18T05:41:31Z</time>
      </trkpt>
      <trkpt lat="46.2681" lon="5.33267">
        <ele>243.2</ele>
        <time>2022-06-18T05:41:32Z</time>
      </trkpt>
      <trkpt lat="46.26792" lon="5.33275">
        <ele>244.4</ele>
        <time>2022-06-18T05:41:35Z</time>
      </trkpt>
      <trkpt lat="46.26787" lon="5.33277">
        <ele>244.6</ele>
        <time>2022-06-18T05:41:36Z</time>
      </trkpt>
      <trkpt lat="46.26768" lon="5.33284">
        <ele>245.6</ele>
        <time>2022-06-18T05:41:39Z</time>
      </trkpt>
      <trkpt lat="46.26744" lon="5.33293">
        <ele>246.6</ele>
        <time>2022-06-18T05:41:43Z</time>
      </trkpt>
      <trkpt lat="46.26738" lon="5.33295">
        <ele>247</ele>
        <time>2022-06-18T05:41:44Z</time>
      </trkpt>
      <trkpt lat="46.2671" lon="5.33305">
        <ele>247.8</ele>
        <time>2022-06-18T05:41:49Z</time>
      </trkpt>
      <trkpt lat="46.26706" lon="5.33307">
        <ele>248</ele>
        <time>2022-06-18T05:41:50Z</time>
      </trkpt>
      <trkpt lat="46.26698" lon="5.33308">
        <ele>248.4</ele>
        <time>2022-06-18T05:41:52Z</time>
      </trkpt>
      <trkpt lat="46.26695" lon="5.33304">
        <ele>248.8</ele>
        <time>2022-06-18T05:41:53Z</time>
      </trkpt>
      <trkpt lat="46.26693" lon="5.33298">
        <ele>248.8</ele>
        <time>2022-06-18T05:41:54Z</time>
      </trkpt>
      <trkpt lat="46.26687" lon="5.33284">
        <ele>249.4</ele>
        <time>2022-06-18T05:41:56Z</time>
      </trkpt>
      <trkpt lat="46.26666" lon="5.33249">
        <ele>249.6</ele>
        <time>2022-06-18T05:42:01Z</time>
      </trkpt>
      <trkpt lat="46.26647" lon="5.33225">
        <ele>249</ele>
        <time>2022-06-18T05:42:04Z</time>
      </trkpt>
      <trkpt lat="46.2664" lon="5.33221">
        <ele>248.4</ele>
        <time>2022-06-18T05:42:05Z</time>
      </trkpt>
      <trkpt lat="46.26625" lon="5.33216">
        <ele>247.6</ele>
        <time>2022-06-18T05:42:07Z</time>
      </trkpt>
      <trkpt lat="46.26595" lon="5.33211">
        <ele>247.2</ele>
        <time>2022-06-18T05:42:11Z</time>
      </trkpt>
      <trkpt lat="46.26564" lon="5.33208">
        <ele>246.6</ele>
        <time>2022-06-18T05:42:15Z</time>
      </trkpt>
      <trkpt lat="46.26546" lon="5.33207">
        <ele>245.6</ele>
        <time>2022-06-18T05:42:17Z</time>
      </trkpt>
      <trkpt lat="46.26537" lon="5.33206">
        <ele>245.4</ele>
        <time>2022-06-18T05:42:18Z</time>
      </trkpt>
      <trkpt lat="46.26519" lon="5.33203">
        <ele>245</ele>
        <time>2022-06-18T05:42:20Z</time>
      </trkpt>
      <trkpt lat="46.2651" lon="5.332">
        <ele>244.8</ele>
        <time>2022-06-18T05:42:21Z</time>
      </trkpt>
      <trkpt lat="46.26502" lon="5.33194">
        <ele>244.6</ele>
        <time>2022-06-18T05:42:22Z</time>
      </trkpt>
      <trkpt lat="46.26495" lon="5.33185">
        <ele>244.4</ele>
        <time>2022-06-18T05:42:23Z</time>
      </trkpt>
      <trkpt lat="46.2649" lon="5.33176">
        <ele>244.2</ele>
        <time>2022-06-18T05:42:24Z</time>
      </trkpt>
      <trkpt lat="46.26474" lon="5.33132">
        <ele>243</ele>
        <time>2022-06-18T05:42:28Z</time>
      </trkpt>
      <trkpt lat="46.26466" lon="5.3311">
        <ele>243</ele>
        <time>2022-06-18T05:42:30Z</time>
      </trkpt>
      <trkpt lat="46.26441" lon="5.3304">
        <ele>243.2</ele>
        <time>2022-06-18T05:42:37Z</time>
      </trkpt>
      <trkpt lat="46.26437" lon="5.33002">
        <ele>243.4</ele>
        <time>2022-06-18T05:42:41Z</time>
      </trkpt>
      <trkpt lat="46.26434" lon="5.32978">
        <ele>244.2</ele>
        <time>2022-06-18T05:42:44Z</time>
      </trkpt>
      <trkpt lat="46.26433" lon="5.32971">
        <ele>244.4</ele>
        <time>2022-06-18T05:42:45Z</time>
      </trkpt>
      <trkpt lat="46.26431" lon="5.32964">
        <ele>245</ele>
        <time>2022-06-18T05:42:46Z</time>
      </trkpt>
      <trkpt lat="46.26429" lon="5.32957">
        <ele>245.4</ele>
        <time>2022-06-18T05:42:47Z</time>
      </trkpt>
      <trkpt lat="46.26424" lon="5.3294">
        <ele>246.6</ele>
        <time>2022-06-18T05:42:50Z</time>
      </trkpt>
      <trkpt lat="46.26418" lon="5.3293">
        <ele>247.4</ele>
        <time>2022-06-18T05:42:52Z</time>
      </trkpt>
      <trkpt lat="46.26416" lon="5.32925">
        <ele>248.2</ele>
        <time>2022-06-18T05:42:53Z</time>
      </trkpt>
      <trkpt lat="46.26406" lon="5.32909">
        <ele>249.2</ele>
        <time>2022-06-18T05:42:57Z</time>
      </trkpt>
      <trkpt lat="46.26404" lon="5.32906">
        <ele>249.4</ele>
        <time>2022-06-18T05:42:58Z</time>
      </trkpt>
      <trkpt lat="46.26397" lon="5.32885">
        <ele>250.4</ele>
        <time>2022-06-18T05:43:02Z</time>
      </trkpt>
      <trkpt lat="46.26395" lon="5.32879">
        <ele>250.4</ele>
        <time>2022-06-18T05:43:03Z</time>
      </trkpt>
      <trkpt lat="46.26387" lon="5.32856">
        <ele>251.8</ele>
        <time>2022-06-18T05:43:07Z</time>
      </trkpt>
      <trkpt lat="46.26378" lon="5.32833">
        <ele>252.8</ele>
        <time>2022-06-18T05:43:11Z</time>
      </trkpt>
      <trkpt lat="46.26373" lon="5.32817">
        <ele>254</ele>
        <time>2022-06-18T05:43:14Z</time>
      </trkpt>
      <trkpt lat="46.26368" lon="5.32806">
        <ele>254.4</ele>
        <time>2022-06-18T05:43:16Z</time>
      </trkpt>
      <trkpt lat="46.26361" lon="5.32789">
        <ele>255</ele>
        <time>2022-06-18T05:43:19Z</time>
      </trkpt>
      <trkpt lat="46.26354" lon="5.32777">
        <ele>255.4</ele>
        <time>2022-06-18T05:43:21Z</time>
      </trkpt>
      <trkpt lat="46.2634" lon="5.32758">
        <ele>256.2</ele>
        <time>2022-06-18T05:43:25Z</time>
      </trkpt>
      <trkpt lat="46.2633" lon="5.32745">
        <ele>256.6</ele>
        <time>2022-06-18T05:43:28Z</time>
      </trkpt>
      <trkpt lat="46.26322" lon="5.32736">
        <ele>257</ele>
        <time>2022-06-18T05:43:30Z</time>
      </trkpt>
      <trkpt lat="46.26314" lon="5.32731">
        <ele>257.2</ele>
        <time>2022-06-18T05:43:32Z</time>
      </trkpt>
      <trkpt lat="46.26309" lon="5.3273">
        <ele>257.4</ele>
        <time>2022-06-18T05:43:33Z</time>
      </trkpt>
      <trkpt lat="46.26305" lon="5.32731">
        <ele>257.6</ele>
        <time>2022-06-18T05:43:34Z</time>
      </trkpt>
      <trkpt lat="46.26285" lon="5.32738">
        <ele>257.8</ele>
        <time>2022-06-18T05:43:38Z</time>
      </trkpt>
      <trkpt lat="46.26253" lon="5.32739">
        <ele>258.2</ele>
        <time>2022-06-18T05:43:44Z</time>
      </trkpt>
      <trkpt lat="46.26199" lon="5.32741">
        <ele>258.4</ele>
        <time>2022-06-18T05:43:54Z</time>
      </trkpt>
      <trkpt lat="46.26193" lon="5.32741">
        <ele>258.4</ele>
        <time>2022-06-18T05:43:55Z</time>
      </trkpt>
      <trkpt lat="46.26165" lon="5.32743">
        <ele>258.8</ele>
        <time>2022-06-18T05:44:00Z</time>
      </trkpt>
      <trkpt lat="46.26113" lon="5.32752">
        <ele>259.2</ele>
        <time>2022-06-18T05:44:09Z</time>
      </trkpt>
      <trkpt lat="46.26065" lon="5.32764">
        <ele>259.4</ele>
        <time>2022-06-18T05:44:17Z</time>
      </trkpt>
      <trkpt lat="46.26059" lon="5.32766">
        <ele>259.4</ele>
        <time>2022-06-18T05:44:18Z</time>
      </trkpt>
      <trkpt lat="46.26027" lon="5.32779">
        <ele>260</ele>
        <time>2022-06-18T05:44:24Z</time>
      </trkpt>
      <trkpt lat="46.25993" lon="5.328">
        <ele>260.4</ele>
        <time>2022-06-18T05:44:30Z</time>
      </trkpt>
      <trkpt lat="46.25982" lon="5.32807">
        <ele>260.6</ele>
        <time>2022-06-18T05:44:32Z</time>
      </trkpt>
      <trkpt lat="46.25928" lon="5.32842">
        <ele>260.6</ele>
        <time>2022-06-18T05:44:42Z</time>
      </trkpt>
      <trkpt lat="46.25914" lon="5.3285">
        <ele>260.6</ele>
        <time>2022-06-18T05:44:45Z</time>
      </trkpt>
      <trkpt lat="46.25911" lon="5.32851">
        <ele>260.6</ele>
        <time>2022-06-18T05:44:46Z</time>
      </trkpt>
      <trkpt lat="46.25905" lon="5.32855">
        <ele>260.8</ele>
        <time>2022-06-18T05:44:48Z</time>
      </trkpt>
      <trkpt lat="46.25903" lon="5.3286">
        <ele>260.8</ele>
        <time>2022-06-18T05:44:49Z</time>
      </trkpt>
      <trkpt lat="46.259" lon="5.32865">
        <ele>260.8</ele>
        <time>2022-06-18T05:44:50Z</time>
      </trkpt>
      <trkpt lat="46.25891" lon="5.32874">
        <ele>261</ele>
        <time>2022-06-18T05:44:52Z</time>
      </trkpt>
      <trkpt lat="46.25854" lon="5.32908">
        <ele>261</ele>
        <time>2022-06-18T05:44:59Z</time>
      </trkpt>
      <trkpt lat="46.25849" lon="5.32923">
        <ele>261</ele>
        <time>2022-06-18T05:45:01Z</time>
      </trkpt>
      <trkpt lat="46.25848" lon="5.32932">
        <ele>261</ele>
        <time>2022-06-18T05:45:02Z</time>
      </trkpt>
      <trkpt lat="46.25848" lon="5.32941">
        <ele>261</ele>
        <time>2022-06-18T05:45:03Z</time>
      </trkpt>
      <trkpt lat="46.25852" lon="5.32978">
        <ele>261.4</ele>
        <time>2022-06-18T05:45:07Z</time>
      </trkpt>
      <trkpt lat="46.25853" lon="5.32987">
        <ele>261.6</ele>
        <time>2022-06-18T05:45:08Z</time>
      </trkpt>
      <trkpt lat="46.25858" lon="5.33051">
        <ele>262.4</ele>
        <time>2022-06-18T05:45:15Z</time>
      </trkpt>
      <trkpt lat="46.25859" lon="5.3306">
        <ele>262.6</ele>
        <time>2022-06-18T05:45:16Z</time>
      </trkpt>
      <trkpt lat="46.2586" lon="5.33087">
        <ele>263.2</ele>
        <time>2022-06-18T05:45:19Z</time>
      </trkpt>
      <trkpt lat="46.25861" lon="5.33104">
        <ele>263.2</ele>
        <time>2022-06-18T05:45:21Z</time>
      </trkpt>
      <trkpt lat="46.25862" lon="5.33121">
        <ele>263.4</ele>
        <time>2022-06-18T05:45:23Z</time>
      </trkpt>
      <trkpt lat="46.2587" lon="5.33175">
        <ele>263.4</ele>
        <time>2022-06-18T05:45:29Z</time>
      </trkpt>
      <trkpt lat="46.25872" lon="5.33206">
        <ele>263.2</ele>
        <time>2022-06-18T05:45:32Z</time>
      </trkpt>
      <trkpt lat="46.25871" lon="5.33217">
        <ele>263</ele>
        <time>2022-06-18T05:45:33Z</time>
      </trkpt>
      <trkpt lat="46.25867" lon="5.33265">
        <ele>261.4</ele>
        <time>2022-06-18T05:45:37Z</time>
      </trkpt>
      <trkpt lat="46.25868" lon="5.33277">
        <ele>261</ele>
        <time>2022-06-18T05:45:38Z</time>
      </trkpt>
      <trkpt lat="46.25869" lon="5.33306">
        <ele>259.8</ele>
        <time>2022-06-18T05:45:40Z</time>
      </trkpt>
      <trkpt lat="46.25869" lon="5.3333">
        <ele>258.8</ele>
        <time>2022-06-18T05:45:42Z</time>
      </trkpt>
      <trkpt lat="46.25866" lon="5.33346">
        <ele>258.4</ele>
        <time>2022-06-18T05:45:43Z</time>
      </trkpt>
      <trkpt lat="46.25861" lon="5.33355">
        <ele>258</ele>
        <time>2022-06-18T05:45:44Z</time>
      </trkpt>
      <trkpt lat="46.25854" lon="5.33365">
        <ele>257.8</ele>
        <time>2022-06-18T05:45:45Z</time>
      </trkpt>
      <trkpt lat="46.25846" lon="5.33374">
        <ele>256.8</ele>
        <time>2022-06-18T05:45:46Z</time>
      </trkpt>
      <trkpt lat="46.25838" lon="5.33381">
        <ele>255.6</ele>
        <time>2022-06-18T05:45:47Z</time>
      </trkpt>
      <trkpt lat="46.25807" lon="5.33408">
        <ele>254.4</ele>
        <time>2022-06-18T05:45:51Z</time>
      </trkpt>
      <trkpt lat="46.25773" lon="5.33441">
        <ele>253.4</ele>
        <time>2022-06-18T05:45:56Z</time>
      </trkpt>
      <trkpt lat="46.25767" lon="5.33448">
        <ele>253.2</ele>
        <time>2022-06-18T05:45:57Z</time>
      </trkpt>
      <trkpt lat="46.25722" lon="5.33496">
        <ele>252.6</ele>
        <time>2022-06-18T05:46:04Z</time>
      </trkpt>
      <trkpt lat="46.25715" lon="5.33503">
        <ele>252.2</ele>
        <time>2022-06-18T05:46:05Z</time>
      </trkpt>
      <trkpt lat="46.25694" lon="5.33525">
        <ele>251.2</ele>
        <time>2022-06-18T05:46:08Z</time>
      </trkpt>
      <trkpt lat="46.25685" lon="5.33532">
        <ele>251</ele>
        <time>2022-06-18T05:46:09Z</time>
      </trkpt>
      <trkpt lat="46.25677" lon="5.33537">
        <ele>250.6</ele>
        <time>2022-06-18T05:46:10Z</time>
      </trkpt>
      <trkpt lat="46.25652" lon="5.33552">
        <ele>250</ele>
        <time>2022-06-18T05:46:13Z</time>
      </trkpt>
      <trkpt lat="46.25639" lon="5.33559">
        <ele>249</ele>
        <time>2022-06-18T05:46:15Z</time>
      </trkpt>
      <trkpt lat="46.25631" lon="5.33565">
        <ele>249.2</ele>
        <time>2022-06-18T05:46:16Z</time>
      </trkpt>
      <trkpt lat="46.25616" lon="5.33575">
        <ele>248.6</ele>
        <time>2022-06-18T05:46:18Z</time>
      </trkpt>
      <trkpt lat="46.25583" lon="5.33594">
        <ele>248.2</ele>
        <time>2022-06-18T05:46:22Z</time>
      </trkpt>
      <trkpt lat="46.25541" lon="5.33617">
        <ele>248.2</ele>
        <time>2022-06-18T05:46:28Z</time>
      </trkpt>
      <trkpt lat="46.25484" lon="5.33647">
        <ele>248.6</ele>
        <time>2022-06-18T05:46:36Z</time>
      </trkpt>
      <trkpt lat="46.25433" lon="5.33672">
        <ele>249.2</ele>
        <time>2022-06-18T05:46:44Z</time>
      </trkpt>
      <trkpt lat="46.25388" lon="5.33696">
        <ele>249.4</ele>
        <time>2022-06-18T05:46:50Z</time>
      </trkpt>
      <trkpt lat="46.2536" lon="5.3371">
        <ele>249.4</ele>
        <time>2022-06-18T05:46:54Z</time>
      </trkpt>
      <trkpt lat="46.25346" lon="5.33715">
        <ele>249.4</ele>
        <time>2022-06-18T05:46:56Z</time>
      </trkpt>
      <trkpt lat="46.25314" lon="5.33737">
        <ele>249.8</ele>
        <time>2022-06-18T05:47:01Z</time>
      </trkpt>
      <trkpt lat="46.25288" lon="5.3377">
        <ele>250.2</ele>
        <time>2022-06-18T05:47:06Z</time>
      </trkpt>
      <trkpt lat="46.25266" lon="5.33809">
        <ele>250.4</ele>
        <time>2022-06-18T05:47:11Z</time>
      </trkpt>
      <trkpt lat="46.25262" lon="5.33818">
        <ele>250.4</ele>
        <time>2022-06-18T05:47:12Z</time>
      </trkpt>
      <trkpt lat="46.25244" lon="5.33858">
        <ele>250.8</ele>
        <time>2022-06-18T05:47:17Z</time>
      </trkpt>
      <trkpt lat="46.25237" lon="5.33873">
        <ele>251</ele>
        <time>2022-06-18T05:47:19Z</time>
      </trkpt>
      <trkpt lat="46.25213" lon="5.33921">
        <ele>252</ele>
        <time>2022-06-18T05:47:26Z</time>
      </trkpt>
      <trkpt lat="46.25205" lon="5.33941">
        <ele>252.2</ele>
        <time>2022-06-18T05:47:29Z</time>
      </trkpt>
      <trkpt lat="46.25201" lon="5.33957">
        <ele>253.2</ele>
        <time>2022-06-18T05:47:31Z</time>
      </trkpt>
      <trkpt lat="46.25197" lon="5.33975">
        <ele>253.4</ele>
        <time>2022-06-18T05:47:33Z</time>
      </trkpt>
      <trkpt lat="46.2519" lon="5.33992">
        <ele>253.6</ele>
        <time>2022-06-18T05:47:35Z</time>
      </trkpt>
      <trkpt lat="46.25185" lon="5.33999">
        <ele>253.6</ele>
        <time>2022-06-18T05:47:36Z</time>
      </trkpt>
      <trkpt lat="46.2518" lon="5.34005">
        <ele>253.8</ele>
        <time>2022-06-18T05:47:37Z</time>
      </trkpt>
      <trkpt lat="46.25162" lon="5.34019">
        <ele>253.8</ele>
        <time>2022-06-18T05:47:40Z</time>
      </trkpt>
      <trkpt lat="46.25156" lon="5.34024">
        <ele>253.6</ele>
        <time>2022-06-18T05:47:41Z</time>
      </trkpt>
      <trkpt lat="46.25147" lon="5.34037">
        <ele>253.4</ele>
        <time>2022-06-18T05:47:43Z</time>
      </trkpt>
      <trkpt lat="46.25143" lon="5.34044">
        <ele>253.2</ele>
        <time>2022-06-18T05:47:44Z</time>
      </trkpt>
      <trkpt lat="46.25128" lon="5.34087">
        <ele>253.2</ele>
        <time>2022-06-18T05:47:49Z</time>
      </trkpt>
      <trkpt lat="46.25117" lon="5.34122">
        <ele>253.2</ele>
        <time>2022-06-18T05:47:53Z</time>
      </trkpt>
      <trkpt lat="46.25108" lon="5.34147">
        <ele>253.2</ele>
        <time>2022-06-18T05:47:56Z</time>
      </trkpt>
      <trkpt lat="46.25078" lon="5.34218">
        <ele>253.6</ele>
        <time>2022-06-18T05:48:05Z</time>
      </trkpt>
      <trkpt lat="46.25053" lon="5.34288">
        <ele>254</ele>
        <time>2022-06-18T05:48:14Z</time>
      </trkpt>
      <trkpt lat="46.25039" lon="5.34325">
        <ele>254.4</ele>
        <time>2022-06-18T05:48:19Z</time>
      </trkpt>
      <trkpt lat="46.25018" lon="5.34377">
        <ele>254.8</ele>
        <time>2022-06-18T05:48:26Z</time>
      </trkpt>
      <trkpt lat="46.25007" lon="5.34397">
        <ele>255</ele>
        <time>2022-06-18T05:48:29Z</time>
      </trkpt>
      <trkpt lat="46.25002" lon="5.34402">
        <ele>255.2</ele>
        <time>2022-06-18T05:48:30Z</time>
      </trkpt>
      <trkpt lat="46.24997" lon="5.34405">
        <ele>255.2</ele>
        <time>2022-06-18T05:48:31Z</time>
      </trkpt>
      <trkpt lat="46.24983" lon="5.34406">
        <ele>255.4</ele>
        <time>2022-06-18T05:48:33Z</time>
      </trkpt>
      <trkpt lat="46.24974" lon="5.34402">
        <ele>255.4</ele>
        <time>2022-06-18T05:48:35Z</time>
      </trkpt>
      <trkpt lat="46.24963" lon="5.34397">
        <ele>256</ele>
        <time>2022-06-18T05:48:37Z</time>
      </trkpt>
      <trkpt lat="46.24958" lon="5.34397">
        <ele>256.2</ele>
        <time>2022-06-18T05:48:38Z</time>
      </trkpt>
      <trkpt lat="46.24952" lon="5.34398">
        <ele>256.4</ele>
        <time>2022-06-18T05:48:39Z</time>
      </trkpt>
      <trkpt lat="46.24942" lon="5.34405">
        <ele>256.6</ele>
        <time>2022-06-18T05:48:41Z</time>
      </trkpt>
      <trkpt lat="46.24901" lon="5.34456">
        <ele>257.2</ele>
        <time>2022-06-18T05:48:50Z</time>
      </trkpt>
      <trkpt lat="46.24884" lon="5.34478">
        <ele>257.8</ele>
        <time>2022-06-18T05:48:54Z</time>
      </trkpt>
      <trkpt lat="46.24867" lon="5.34497">
        <ele>258.4</ele>
        <time>2022-06-18T05:48:58Z</time>
      </trkpt>
      <trkpt lat="46.24858" lon="5.34502">
        <ele>258.6</ele>
        <time>2022-06-18T05:49:00Z</time>
      </trkpt>
      <trkpt lat="46.24853" lon="5.34502">
        <ele>259</ele>
        <time>2022-06-18T05:49:01Z</time>
      </trkpt>
      <trkpt lat="46.24848" lon="5.34502">
        <ele>259.2</ele>
        <time>2022-06-18T05:49:02Z</time>
      </trkpt>
      <trkpt lat="46.24833" lon="5.34495">
        <ele>260</ele>
        <time>2022-06-18T05:49:05Z</time>
      </trkpt>
      <trkpt lat="46.24828" lon="5.34492">
        <ele>260</ele>
        <time>2022-06-18T05:49:06Z</time>
      </trkpt>
      <trkpt lat="46.24823" lon="5.3449">
        <ele>260.4</ele>
        <time>2022-06-18T05:49:07Z</time>
      </trkpt>
      <trkpt lat="46.2481" lon="5.34489">
        <ele>260.8</ele>
        <time>2022-06-18T05:49:10Z</time>
      </trkpt>
      <trkpt lat="46.24802" lon="5.34492">
        <ele>261.4</ele>
        <time>2022-06-18T05:49:12Z</time>
      </trkpt>
      <trkpt lat="46.24794" lon="5.34498">
        <ele>262</ele>
        <time>2022-06-18T05:49:14Z</time>
      </trkpt>
      <trkpt lat="46.24787" lon="5.34504">
        <ele>262.4</ele>
        <time>2022-06-18T05:49:16Z</time>
      </trkpt>
      <trkpt lat="46.24769" lon="5.34513">
        <ele>263.2</ele>
        <time>2022-06-18T05:49:20Z</time>
      </trkpt>
      <trkpt lat="46.24765" lon="5.34513">
        <ele>263.4</ele>
        <time>2022-06-18T05:49:21Z</time>
      </trkpt>
      <trkpt lat="46.2476" lon="5.34513">
        <ele>263.4</ele>
        <time>2022-06-18T05:49:22Z</time>
      </trkpt>
      <trkpt lat="46.24756" lon="5.34511">
        <ele>263.6</ele>
        <time>2022-06-18T05:49:23Z</time>
      </trkpt>
      <trkpt lat="46.24752" lon="5.34508">
        <ele>263.6</ele>
        <time>2022-06-18T05:49:24Z</time>
      </trkpt>
      <trkpt lat="46.24743" lon="5.34503">
        <ele>263.8</ele>
        <time>2022-06-18T05:49:27Z</time>
      </trkpt>
      <trkpt lat="46.24739" lon="5.34505">
        <ele>264</ele>
        <time>2022-06-18T05:49:28Z</time>
      </trkpt>
      <trkpt lat="46.24733" lon="5.34514">
        <ele>264</ele>
        <time>2022-06-18T05:49:30Z</time>
      </trkpt>
      <trkpt lat="46.24723" lon="5.3455">
        <ele>264.4</ele>
        <time>2022-06-18T05:49:35Z</time>
      </trkpt>
      <trkpt lat="46.24703" lon="5.346">
        <ele>264</ele>
        <time>2022-06-18T05:49:42Z</time>
      </trkpt>
      <trkpt lat="46.24683" lon="5.34643">
        <ele>264</ele>
        <time>2022-06-18T05:49:48Z</time>
      </trkpt>
      <trkpt lat="46.24681" lon="5.34649">
        <ele>263.8</ele>
        <time>2022-06-18T05:49:49Z</time>
      </trkpt>
      <trkpt lat="46.24675" lon="5.34663">
        <ele>263.8</ele>
        <time>2022-06-18T05:49:51Z</time>
      </trkpt>
      <trkpt lat="46.24663" lon="5.34691">
        <ele>263.8</ele>
        <time>2022-06-18T05:49:55Z</time>
      </trkpt>
      <trkpt lat="46.24655" lon="5.34731">
        <ele>263.8</ele>
        <time>2022-06-18T05:50:00Z</time>
      </trkpt>
      <trkpt lat="46.24645" lon="5.34794">
        <ele>263.8</ele>
        <time>2022-06-18T05:50:08Z</time>
      </trkpt>
      <trkpt lat="46.24644" lon="5.34801">
        <ele>263.8</ele>
        <time>2022-06-18T05:50:09Z</time>
      </trkpt>
      <trkpt lat="46.2464" lon="5.34822">
        <ele>263.8</ele>
        <time>2022-06-18T05:50:12Z</time>
      </trkpt>
      <trkpt lat="46.2463" lon="5.34855">
        <ele>264.4</ele>
        <time>2022-06-18T05:50:17Z</time>
      </trkpt>
      <trkpt lat="46.24626" lon="5.34868">
        <ele>264.8</ele>
        <time>2022-06-18T05:50:19Z</time>
      </trkpt>
      <trkpt lat="46.24617" lon="5.34895">
        <ele>265.4</ele>
        <time>2022-06-18T05:50:23Z</time>
      </trkpt>
      <trkpt lat="46.24613" lon="5.34906">
        <ele>265.8</ele>
        <time>2022-06-18T05:50:25Z</time>
      </trkpt>
      <trkpt lat="46.2461" lon="5.34913">
        <ele>266</ele>
        <time>2022-06-18T05:50:26Z</time>
      </trkpt>
      <trkpt lat="46.24605" lon="5.34936">
        <ele>266.6</ele>
        <time>2022-06-18T05:50:30Z</time>
      </trkpt>
      <trkpt lat="46.24601" lon="5.3495">
        <ele>267.2</ele>
        <time>2022-06-18T05:50:32Z</time>
      </trkpt>
      <trkpt lat="46.24586" lon="5.35002">
        <ele>267.6</ele>
        <time>2022-06-18T05:50:39Z</time>
      </trkpt>
      <trkpt lat="46.24582" lon="5.35016">
        <ele>267.6</ele>
        <time>2022-06-18T05:50:41Z</time>
      </trkpt>
      <trkpt lat="46.24577" lon="5.35039">
        <ele>267.6</ele>
        <time>2022-06-18T05:50:44Z</time>
      </trkpt>
      <trkpt lat="46.24574" lon="5.35045">
        <ele>267.6</ele>
        <time>2022-06-18T05:50:45Z</time>
      </trkpt>
      <trkpt lat="46.24567" lon="5.35057">
        <ele>267.4</ele>
        <time>2022-06-18T05:50:47Z</time>
      </trkpt>
      <trkpt lat="46.24557" lon="5.35067">
        <ele>267.4</ele>
        <time>2022-06-18T05:50:49Z</time>
      </trkpt>
      <trkpt lat="46.2455" lon="5.35069">
        <ele>267.4</ele>
        <time>2022-06-18T05:50:50Z</time>
      </trkpt>
      <trkpt lat="46.24545" lon="5.35068">
        <ele>267.4</ele>
        <time>2022-06-18T05:50:51Z</time>
      </trkpt>
      <trkpt lat="46.24532" lon="5.35064">
        <ele>267.4</ele>
        <time>2022-06-18T05:50:53Z</time>
      </trkpt>
      <trkpt lat="46.24497" lon="5.35044">
        <ele>267.4</ele>
        <time>2022-06-18T05:50:59Z</time>
      </trkpt>
      <trkpt lat="46.24492" lon="5.3504">
        <ele>267.4</ele>
        <time>2022-06-18T05:51:00Z</time>
      </trkpt>
      <trkpt lat="46.24486" lon="5.35036">
        <ele>267.6</ele>
        <time>2022-06-18T05:51:01Z</time>
      </trkpt>
      <trkpt lat="46.24472" lon="5.35019">
        <ele>268</ele>
        <time>2022-06-18T05:51:04Z</time>
      </trkpt>
      <trkpt lat="46.24466" lon="5.35015">
        <ele>268.2</ele>
        <time>2022-06-18T05:51:05Z</time>
      </trkpt>
      <trkpt lat="46.24462" lon="5.35011">
        <ele>268.2</ele>
        <time>2022-06-18T05:51:06Z</time>
      </trkpt>
      <trkpt lat="46.24447" lon="5.34998">
        <ele>268.6</ele>
        <time>2022-06-18T05:51:09Z</time>
      </trkpt>
      <trkpt lat="46.24428" lon="5.34985">
        <ele>269.2</ele>
        <time>2022-06-18T05:51:13Z</time>
      </trkpt>
      <trkpt lat="46.24423" lon="5.34982">
        <ele>269.4</ele>
        <time>2022-06-18T05:51:14Z</time>
      </trkpt>
      <trkpt lat="46.24413" lon="5.3498">
        <ele>269.8</ele>
        <time>2022-06-18T05:51:16Z</time>
      </trkpt>
      <trkpt lat="46.24403" lon="5.3498">
        <ele>270.2</ele>
        <time>2022-06-18T05:51:18Z</time>
      </trkpt>
      <trkpt lat="46.24387" lon="5.34982">
        <ele>271.4</ele>
        <time>2022-06-18T05:51:21Z</time>
      </trkpt>
      <trkpt lat="46.24382" lon="5.34983">
        <ele>271.6</ele>
        <time>2022-06-18T05:51:22Z</time>
      </trkpt>
      <trkpt lat="46.2436" lon="5.34981">
        <ele>272.4</ele>
        <time>2022-06-18T05:51:27Z</time>
      </trkpt>
      <trkpt lat="46.24355" lon="5.3498">
        <ele>272.8</ele>
        <time>2022-06-18T05:51:28Z</time>
      </trkpt>
      <trkpt lat="46.24343" lon="5.34979">
        <ele>273.6</ele>
        <time>2022-06-18T05:51:30Z</time>
      </trkpt>
      <trkpt lat="46.24316" lon="5.34975">
        <ele>274.4</ele>
        <time>2022-06-18T05:51:35Z</time>
      </trkpt>
      <trkpt lat="46.24307" lon="5.34973">
        <ele>274.6</ele>
        <time>2022-06-18T05:51:37Z</time>
      </trkpt>
      <trkpt lat="46.24278" lon="5.34969">
        <ele>275</ele>
        <time>2022-06-18T05:51:42Z</time>
      </trkpt>
      <trkpt lat="46.24247" lon="5.34959">
        <ele>275.4</ele>
        <time>2022-06-18T05:51:48Z</time>
      </trkpt>
      <trkpt lat="46.24242" lon="5.34956">
        <ele>275.6</ele>
        <time>2022-06-18T05:51:49Z</time>
      </trkpt>
      <trkpt lat="46.242" lon="5.34927">
        <ele>276</ele>
        <time>2022-06-18T05:51:57Z</time>
      </trkpt>
      <trkpt lat="46.2417" lon="5.34901">
        <ele>276.6</ele>
        <time>2022-06-18T05:52:03Z</time>
      </trkpt>
      <trkpt lat="46.24165" lon="5.34898">
        <ele>276.6</ele>
        <time>2022-06-18T05:52:04Z</time>
      </trkpt>
      <trkpt lat="46.24138" lon="5.34883">
        <ele>277.2</ele>
        <time>2022-06-18T05:52:09Z</time>
      </trkpt>
      <trkpt lat="46.24129" lon="5.34879">
        <ele>277.4</ele>
        <time>2022-06-18T05:52:11Z</time>
      </trkpt>
      <trkpt lat="46.24112" lon="5.34874">
        <ele>277.6</ele>
        <time>2022-06-18T05:52:14Z</time>
      </trkpt>
      <trkpt lat="46.24096" lon="5.34869">
        <ele>278</ele>
        <time>2022-06-18T05:52:17Z</time>
      </trkpt>
      <trkpt lat="46.24065" lon="5.34857">
        <ele>278.8</ele>
        <time>2022-06-18T05:52:23Z</time>
      </trkpt>
      <trkpt lat="46.2405" lon="5.34849">
        <ele>279.8</ele>
        <time>2022-06-18T05:52:26Z</time>
      </trkpt>
      <trkpt lat="46.24039" lon="5.34842">
        <ele>280</ele>
        <time>2022-06-18T05:52:28Z</time>
      </trkpt>
      <trkpt lat="46.24016" lon="5.34822">
        <ele>280.4</ele>
        <time>2022-06-18T05:52:33Z</time>
      </trkpt>
      <trkpt lat="46.23994" lon="5.34802">
        <ele>281</ele>
        <time>2022-06-18T05:52:38Z</time>
      </trkpt>
      <trkpt lat="46.23982" lon="5.3479">
        <ele>281.4</ele>
        <time>2022-06-18T05:52:41Z</time>
      </trkpt>
      <trkpt lat="46.23959" lon="5.34771">
        <ele>282.2</ele>
        <time>2022-06-18T05:52:46Z</time>
      </trkpt>
      <trkpt lat="46.23936" lon="5.34754">
        <ele>283</ele>
        <time>2022-06-18T05:52:51Z</time>
      </trkpt>
      <trkpt lat="46.23923" lon="5.34746">
        <ele>283.4</ele>
        <time>2022-06-18T05:52:54Z</time>
      </trkpt>
      <trkpt lat="46.23904" lon="5.34733">
        <ele>283.8</ele>
        <time>2022-06-18T05:52:58Z</time>
      </trkpt>
      <trkpt lat="46.23887" lon="5.3472">
        <ele>284.8</ele>
        <time>2022-06-18T05:53:02Z</time>
      </trkpt>
      <trkpt lat="46.23876" lon="5.34711">
        <ele>285.8</ele>
        <time>2022-06-18T05:53:05Z</time>
      </trkpt>
      <trkpt lat="46.23864" lon="5.34699">
        <ele>286.4</ele>
        <time>2022-06-18T05:53:08Z</time>
      </trkpt>
      <trkpt lat="46.23856" lon="5.34692">
        <ele>287</ele>
        <time>2022-06-18T05:53:10Z</time>
      </trkpt>
      <trkpt lat="46.23837" lon="5.34675">
        <ele>288.2</ele>
        <time>2022-06-18T05:53:15Z</time>
      </trkpt>
      <trkpt lat="46.2383" lon="5.3467">
        <ele>289</ele>
        <time>2022-06-18T05:53:17Z</time>
      </trkpt>
      <trkpt lat="46.23823" lon="5.34665">
        <ele>289.4</ele>
        <time>2022-06-18T05:53:19Z</time>
      </trkpt>
      <trkpt lat="46.23816" lon="5.34659">
        <ele>290</ele>
        <time>2022-06-18T05:53:21Z</time>
      </trkpt>
      <trkpt lat="46.23809" lon="5.34652">
        <ele>290.4</ele>
        <time>2022-06-18T05:53:23Z</time>
      </trkpt>
      <trkpt lat="46.23806" lon="5.34648">
        <ele>290.8</ele>
        <time>2022-06-18T05:53:24Z</time>
      </trkpt>
      <trkpt lat="46.23795" lon="5.3463">
        <ele>291.6</ele>
        <time>2022-06-18T05:53:28Z</time>
      </trkpt>
      <trkpt lat="46.23786" lon="5.34616">
        <ele>292.4</ele>
        <time>2022-06-18T05:53:31Z</time>
      </trkpt>
      <trkpt lat="46.2378" lon="5.34607">
        <ele>292.8</ele>
        <time>2022-06-18T05:53:33Z</time>
      </trkpt>
      <trkpt lat="46.23765" lon="5.34587">
        <ele>293.2</ele>
        <time>2022-06-18T05:53:37Z</time>
      </trkpt>
      <trkpt lat="46.23733" lon="5.34557">
        <ele>293.4</ele>
        <time>2022-06-18T05:53:43Z</time>
      </trkpt>
      <trkpt lat="46.23691" lon="5.34525">
        <ele>291.4</ele>
        <time>2022-06-18T05:53:49Z</time>
      </trkpt>
      <trkpt lat="46.2366" lon="5.34507">
        <ele>290</ele>
        <time>2022-06-18T05:53:53Z</time>
      </trkpt>
      <trkpt lat="46.23652" lon="5.34503">
        <ele>289.6</ele>
        <time>2022-06-18T05:53:54Z</time>
      </trkpt>
      <trkpt lat="46.23636" lon="5.34497">
        <ele>288.8</ele>
        <time>2022-06-18T05:53:56Z</time>
      </trkpt>
      <trkpt lat="46.23611" lon="5.3449">
        <ele>287.8</ele>
        <time>2022-06-18T05:53:59Z</time>
      </trkpt>
      <trkpt lat="46.23596" lon="5.34486">
        <ele>287.2</ele>
        <time>2022-06-18T05:54:01Z</time>
      </trkpt>
      <trkpt lat="46.23566" lon="5.34473">
        <ele>286.6</ele>
        <time>2022-06-18T05:54:05Z</time>
      </trkpt>
      <trkpt lat="46.23552" lon="5.34467">
        <ele>286.6</ele>
        <time>2022-06-18T05:54:07Z</time>
      </trkpt>
      <trkpt lat="46.23512" lon="5.34443">
        <ele>286.2</ele>
        <time>2022-06-18T05:54:13Z</time>
      </trkpt>
      <trkpt lat="46.23475" lon="5.34415">
        <ele>285.8</ele>
        <time>2022-06-18T05:54:19Z</time>
      </trkpt>
      <trkpt lat="46.23437" lon="5.34381">
        <ele>286.2</ele>
        <time>2022-06-18T05:54:26Z</time>
      </trkpt>
      <trkpt lat="46.23408" lon="5.34349">
        <ele>287</ele>
        <time>2022-06-18T05:54:32Z</time>
      </trkpt>
      <trkpt lat="46.23384" lon="5.34325">
        <ele>287.8</ele>
        <time>2022-06-18T05:54:37Z</time>
      </trkpt>
      <trkpt lat="46.23371" lon="5.3431">
        <ele>288.2</ele>
        <time>2022-06-18T05:54:40Z</time>
      </trkpt>
      <trkpt lat="46.23354" lon="5.34291">
        <ele>289</ele>
        <time>2022-06-18T05:54:44Z</time>
      </trkpt>
      <trkpt lat="46.23338" lon="5.34272">
        <ele>290.2</ele>
        <time>2022-06-18T05:54:48Z</time>
      </trkpt>
      <trkpt lat="46.23316" lon="5.34242">
        <ele>291.4</ele>
        <time>2022-06-18T05:54:54Z</time>
      </trkpt>
      <trkpt lat="46.23301" lon="5.34221">
        <ele>291.8</ele>
        <time>2022-06-18T05:54:58Z</time>
      </trkpt>
      <trkpt lat="46.23289" lon="5.34205">
        <ele>292.2</ele>
        <time>2022-06-18T05:55:01Z</time>
      </trkpt>
      <trkpt lat="46.23284" lon="5.342">
        <ele>292.4</ele>
        <time>2022-06-18T05:55:02Z</time>
      </trkpt>
      <trkpt lat="46.2327" lon="5.34183">
        <ele>292.8</ele>
        <time>2022-06-18T05:55:05Z</time>
      </trkpt>
      <trkpt lat="46.23234" lon="5.34154">
        <ele>292.8</ele>
        <time>2022-06-18T05:55:11Z</time>
      </trkpt>
      <trkpt lat="46.23187" lon="5.34123">
        <ele>291.4</ele>
        <time>2022-06-18T05:55:18Z</time>
      </trkpt>
      <trkpt lat="46.23172" lon="5.34116">
        <ele>291.2</ele>
        <time>2022-06-18T05:55:20Z</time>
      </trkpt>
      <trkpt lat="46.23142" lon="5.34104">
        <ele>290.4</ele>
        <time>2022-06-18T05:55:24Z</time>
      </trkpt>
      <trkpt lat="46.23113" lon="5.34093">
        <ele>290.2</ele>
        <time>2022-06-18T05:55:28Z</time>
      </trkpt>
      <trkpt lat="46.23092" lon="5.34082">
        <ele>290.2</ele>
        <time>2022-06-18T05:55:31Z</time>
      </trkpt>
      <trkpt lat="46.23038" lon="5.34049">
        <ele>289.8</ele>
        <time>2022-06-18T05:55:39Z</time>
      </trkpt>
      <trkpt lat="46.22998" lon="5.34018">
        <ele>289.6</ele>
        <time>2022-06-18T05:55:46Z</time>
      </trkpt>
      <trkpt lat="46.22956" lon="5.3398">
        <ele>291.2</ele>
        <time>2022-06-18T05:55:54Z</time>
      </trkpt>
      <trkpt lat="46.22951" lon="5.33976">
        <ele>291.2</ele>
        <time>2022-06-18T05:55:55Z</time>
      </trkpt>
      <trkpt lat="46.22914" lon="5.33948">
        <ele>292.4</ele>
        <time>2022-06-18T05:56:02Z</time>
      </trkpt>
      <trkpt lat="46.22903" lon="5.33941">
        <ele>292.8</ele>
        <time>2022-06-18T05:56:04Z</time>
      </trkpt>
      <trkpt lat="46.22881" lon="5.33929">
        <ele>293.4</ele>
        <time>2022-06-18T05:56:08Z</time>
      </trkpt>
      <trkpt lat="46.22864" lon="5.33923">
        <ele>293.8</ele>
        <time>2022-06-18T05:56:11Z</time>
      </trkpt>
      <trkpt lat="46.2281" lon="5.33908">
        <ele>294</ele>
        <time>2022-06-18T05:56:20Z</time>
      </trkpt>
      <trkpt lat="46.22798" lon="5.33905">
        <ele>294</ele>
        <time>2022-06-18T05:56:22Z</time>
      </trkpt>
      <trkpt lat="46.22745" lon="5.33896">
        <ele>294.4</ele>
        <time>2022-06-18T05:56:31Z</time>
      </trkpt>
      <trkpt lat="46.22739" lon="5.33895">
        <ele>294.6</ele>
        <time>2022-06-18T05:56:32Z</time>
      </trkpt>
      <trkpt lat="46.22679" lon="5.33889">
        <ele>295.4</ele>
        <time>2022-06-18T05:56:42Z</time>
      </trkpt>
      <trkpt lat="46.22673" lon="5.33887">
        <ele>295.4</ele>
        <time>2022-06-18T05:56:43Z</time>
      </trkpt>
      <trkpt lat="46.22638" lon="5.33876">
        <ele>295</ele>
        <time>2022-06-18T05:56:48Z</time>
      </trkpt>
      <trkpt lat="46.22594" lon="5.33846">
        <ele>293.6</ele>
        <time>2022-06-18T05:56:54Z</time>
      </trkpt>
      <trkpt lat="46.22581" lon="5.33835">
        <ele>293.2</ele>
        <time>2022-06-18T05:56:56Z</time>
      </trkpt>
      <trkpt lat="46.22554" lon="5.33808">
        <ele>292</ele>
        <time>2022-06-18T05:57:00Z</time>
      </trkpt>
      <trkpt lat="46.22541" lon="5.33794">
        <ele>291.8</ele>
        <time>2022-06-18T05:57:02Z</time>
      </trkpt>
      <trkpt lat="46.22509" lon="5.33758">
        <ele>291</ele>
        <time>2022-06-18T05:57:07Z</time>
      </trkpt>
      <trkpt lat="46.22485" lon="5.33729">
        <ele>290.8</ele>
        <time>2022-06-18T05:57:11Z</time>
      </trkpt>
      <trkpt lat="46.22443" lon="5.33678">
        <ele>290.6</ele>
        <time>2022-06-18T05:57:18Z</time>
      </trkpt>
      <trkpt lat="46.22432" lon="5.33664">
        <ele>290.6</ele>
        <time>2022-06-18T05:57:20Z</time>
      </trkpt>
      <trkpt lat="46.224" lon="5.3363">
        <ele>290</ele>
        <time>2022-06-18T05:57:25Z</time>
      </trkpt>
      <trkpt lat="46.22389" lon="5.33619">
        <ele>289.6</ele>
        <time>2022-06-18T05:57:27Z</time>
      </trkpt>
      <trkpt lat="46.22345" lon="5.33568">
        <ele>289.2</ele>
        <time>2022-06-18T05:57:35Z</time>
      </trkpt>
      <trkpt lat="46.22306" lon="5.33514">
        <ele>289.2</ele>
        <time>2022-06-18T05:57:43Z</time>
      </trkpt>
      <trkpt lat="46.22302" lon="5.33507">
        <ele>289.4</ele>
        <time>2022-06-18T05:57:44Z</time>
      </trkpt>
      <trkpt lat="46.22284" lon="5.33482">
        <ele>290.4</ele>
        <time>2022-06-18T05:57:48Z</time>
      </trkpt>
      <trkpt lat="46.22264" lon="5.33459">
        <ele>291</ele>
        <time>2022-06-18T05:57:52Z</time>
      </trkpt>
      <trkpt lat="46.22255" lon="5.33447">
        <ele>291</ele>
        <time>2022-06-18T05:57:54Z</time>
      </trkpt>
      <trkpt lat="46.22217" lon="5.334">
        <ele>291.4</ele>
        <time>2022-06-18T05:58:02Z</time>
      </trkpt>
      <trkpt lat="46.22179" lon="5.33356">
        <ele>291.8</ele>
        <time>2022-06-18T05:58:10Z</time>
      </trkpt>
      <trkpt lat="46.22174" lon="5.3335">
        <ele>291.8</ele>
        <time>2022-06-18T05:58:11Z</time>
      </trkpt>
      <trkpt lat="46.22131" lon="5.33302">
        <ele>292.8</ele>
        <time>2022-06-18T05:58:20Z</time>
      </trkpt>
      <trkpt lat="46.22121" lon="5.33291">
        <ele>292.8</ele>
        <time>2022-06-18T05:58:22Z</time>
      </trkpt>
      <trkpt lat="46.22106" lon="5.33277">
        <ele>292.8</ele>
        <time>2022-06-18T05:58:25Z</time>
      </trkpt>
      <trkpt lat="46.22076" lon="5.33251">
        <ele>294</ele>
        <time>2022-06-18T05:58:31Z</time>
      </trkpt>
      <trkpt lat="46.22066" lon="5.33241">
        <ele>294.4</ele>
        <time>2022-06-18T05:58:33Z</time>
      </trkpt>
      <trkpt lat="46.22025" lon="5.33198">
        <ele>294.4</ele>
        <time>2022-06-18T05:58:41Z</time>
      </trkpt>
      <trkpt lat="46.21982" lon="5.33151">
        <ele>294</ele>
        <time>2022-06-18T05:58:49Z</time>
      </trkpt>
      <trkpt lat="46.21977" lon="5.33145">
        <ele>294</ele>
        <time>2022-06-18T05:58:50Z</time>
      </trkpt>
      <trkpt lat="46.21932" lon="5.331">
        <ele>294.2</ele>
        <time>2022-06-18T05:58:58Z</time>
      </trkpt>
      <trkpt lat="46.21926" lon="5.33093">
        <ele>294.2</ele>
        <time>2022-06-18T05:58:59Z</time>
      </trkpt>
      <trkpt lat="46.21877" lon="5.33046">
        <ele>294.2</ele>
        <time>2022-06-18T05:59:08Z</time>
      </trkpt>
      <trkpt lat="46.21872" lon="5.33041">
        <ele>294.2</ele>
        <time>2022-06-18T05:59:09Z</time>
      </trkpt>
      <trkpt lat="46.21829" lon="5.33">
        <ele>294.4</ele>
        <time>2022-06-18T05:59:17Z</time>
      </trkpt>
      <trkpt lat="46.21784" lon="5.32958">
        <ele>295.2</ele>
        <time>2022-06-18T05:59:26Z</time>
      </trkpt>
      <trkpt lat="46.21747" lon="5.3293">
        <ele>295.8</ele>
        <time>2022-06-18T05:59:33Z</time>
      </trkpt>
      <trkpt lat="46.21702" lon="5.32898">
        <ele>296.2</ele>
        <time>2022-06-18T05:59:41Z</time>
      </trkpt>
      <trkpt lat="46.21668" lon="5.32875">
        <ele>297.2</ele>
        <time>2022-06-18T05:59:47Z</time>
      </trkpt>
      <trkpt lat="46.21652" lon="5.32862">
        <ele>297.6</ele>
        <time>2022-06-18T05:59:50Z</time>
      </trkpt>
      <trkpt lat="46.21613" lon="5.32833">
        <ele>298.4</ele>
        <time>2022-06-18T05:59:57Z</time>
      </trkpt>
      <trkpt lat="46.21577" lon="5.32799">
        <ele>299</ele>
        <time>2022-06-18T06:00:04Z</time>
      </trkpt>
      <trkpt lat="46.2156" lon="5.32786">
        <ele>299</ele>
        <time>2022-06-18T06:00:07Z</time>
      </trkpt>
      <trkpt lat="46.2155" lon="5.32773">
        <ele>299</ele>
        <time>2022-06-18T06:00:09Z</time>
      </trkpt>
      <trkpt lat="46.21539" lon="5.3276">
        <ele>298.8</ele>
        <time>2022-06-18T06:00:11Z</time>
      </trkpt>
      <trkpt lat="46.2152" lon="5.32745">
        <ele>298.4</ele>
        <time>2022-06-18T06:00:14Z</time>
      </trkpt>
      <trkpt lat="46.21492" lon="5.32723">
        <ele>297.2</ele>
        <time>2022-06-18T06:00:18Z</time>
      </trkpt>
      <trkpt lat="46.21484" lon="5.32718">
        <ele>296.8</ele>
        <time>2022-06-18T06:00:19Z</time>
      </trkpt>
      <trkpt lat="46.21477" lon="5.32713">
        <ele>296.4</ele>
        <time>2022-06-18T06:00:20Z</time>
      </trkpt>
      <trkpt lat="46.21469" lon="5.32708">
        <ele>296.2</ele>
        <time>2022-06-18T06:00:21Z</time>
      </trkpt>
      <trkpt lat="46.21448" lon="5.32692">
        <ele>294.6</ele>
        <time>2022-06-18T06:00:24Z</time>
      </trkpt>
      <trkpt lat="46.21427" lon="5.32677">
        <ele>294.2</ele>
        <time>2022-06-18T06:00:27Z</time>
      </trkpt>
      <trkpt lat="46.21396" lon="5.32652">
        <ele>294</ele>
        <time>2022-06-18T06:00:32Z</time>
      </trkpt>
      <trkpt lat="46.2137" lon="5.32631">
        <ele>293.6</ele>
        <time>2022-06-18T06:00:36Z</time>
      </trkpt>
      <trkpt lat="46.21337" lon="5.3261">
        <ele>293.4</ele>
        <time>2022-06-18T06:00:41Z</time>
      </trkpt>
      <trkpt lat="46.21306" lon="5.32595">
        <ele>293.8</ele>
        <time>2022-06-18T06:00:46Z</time>
      </trkpt>
      <trkpt lat="46.21276" lon="5.32577">
        <ele>294.2</ele>
        <time>2022-06-18T06:00:51Z</time>
      </trkpt>
      <trkpt lat="46.2127" lon="5.32574">
        <ele>294.2</ele>
        <time>2022-06-18T06:00:52Z</time>
      </trkpt>
      <trkpt lat="46.21264" lon="5.32571">
        <ele>294.4</ele>
        <time>2022-06-18T06:00:53Z</time>
      </trkpt>
      <trkpt lat="46.21252" lon="5.32566">
        <ele>294.6</ele>
        <time>2022-06-18T06:00:55Z</time>
      </trkpt>
      <trkpt lat="46.21241" lon="5.32561">
        <ele>295</ele>
        <time>2022-06-18T06:00:57Z</time>
      </trkpt>
      <trkpt lat="46.21222" lon="5.32552">
        <ele>295.6</ele>
        <time>2022-06-18T06:01:01Z</time>
      </trkpt>
      <trkpt lat="46.21218" lon="5.3255">
        <ele>295.6</ele>
        <time>2022-06-18T06:01:02Z</time>
      </trkpt>
      <trkpt lat="46.21212" lon="5.32545">
        <ele>296</ele>
        <time>2022-06-18T06:01:05Z</time>
      </trkpt>
      <trkpt lat="46.21207" lon="5.3253">
        <ele>296.2</ele>
        <time>2022-06-18T06:01:10Z</time>
      </trkpt>
      <trkpt lat="46.21199" lon="5.32517">
        <ele>296</ele>
        <time>2022-06-18T06:01:14Z</time>
      </trkpt>
      <trkpt lat="46.21197" lon="5.32516">
        <ele>295.8</ele>
        <time>2022-06-18T06:01:15Z</time>
      </trkpt>
      <trkpt lat="46.21182" lon="5.32514">
        <ele>295.6</ele>
        <time>2022-06-18T06:01:18Z</time>
      </trkpt>
      <trkpt lat="46.21177" lon="5.32513">
        <ele>295.4</ele>
        <time>2022-06-18T06:01:19Z</time>
      </trkpt>
      <trkpt lat="46.21162" lon="5.32505">
        <ele>295.2</ele>
        <time>2022-06-18T06:01:22Z</time>
      </trkpt>
      <trkpt lat="46.21128" lon="5.32483">
        <ele>294.4</ele>
        <time>2022-06-18T06:01:29Z</time>
      </trkpt>
      <trkpt lat="46.21104" lon="5.32472">
        <ele>294</ele>
        <time>2022-06-18T06:01:33Z</time>
      </trkpt>
      <trkpt lat="46.21091" lon="5.3247">
        <ele>294</ele>
        <time>2022-06-18T06:01:35Z</time>
      </trkpt>
      <trkpt lat="46.21079" lon="5.3247">
        <ele>293.8</ele>
        <time>2022-06-18T06:01:37Z</time>
      </trkpt>
      <trkpt lat="46.21066" lon="5.3247">
        <ele>293.6</ele>
        <time>2022-06-18T06:01:39Z</time>
      </trkpt>
      <trkpt lat="46.2103" lon="5.32464">
        <ele>293.2</ele>
        <time>2022-06-18T06:01:45Z</time>
      </trkpt>
      <trkpt lat="46.20986" lon="5.32463">
        <ele>292.8</ele>
        <time>2022-06-18T06:01:51Z</time>
      </trkpt>
      <trkpt lat="46.20964" lon="5.32464">
        <ele>292</ele>
        <time>2022-06-18T06:01:54Z</time>
      </trkpt>
      <trkpt lat="46.20947" lon="5.32466">
        <ele>291.4</ele>
        <time>2022-06-18T06:01:56Z</time>
      </trkpt>
      <trkpt lat="46.2094" lon="5.32466">
        <ele>291</ele>
        <time>2022-06-18T06:01:57Z</time>
      </trkpt>
      <trkpt lat="46.20907" lon="5.32471">
        <ele>289.8</ele>
        <time>2022-06-18T06:02:01Z</time>
      </trkpt>
      <trkpt lat="46.20886" lon="5.32476">
        <ele>289.4</ele>
        <time>2022-06-18T06:02:04Z</time>
      </trkpt>
      <trkpt lat="46.20837" lon="5.32489">
        <ele>288.8</ele>
        <time>2022-06-18T06:02:10Z</time>
      </trkpt>
      <trkpt lat="46.20816" lon="5.32494">
        <ele>287.8</ele>
        <time>2022-06-18T06:02:13Z</time>
      </trkpt>
      <trkpt lat="46.20806" lon="5.32496">
        <ele>287.6</ele>
        <time>2022-06-18T06:02:14Z</time>
      </trkpt>
      <trkpt lat="46.20752" lon="5.32502">
        <ele>287</ele>
        <time>2022-06-18T06:02:21Z</time>
      </trkpt>
      <trkpt lat="46.20744" lon="5.32503">
        <ele>287</ele>
        <time>2022-06-18T06:02:22Z</time>
      </trkpt>
      <trkpt lat="46.20686" lon="5.32509">
        <ele>287</ele>
        <time>2022-06-18T06:02:30Z</time>
      </trkpt>
      <trkpt lat="46.20632" lon="5.32504">
        <ele>288</ele>
        <time>2022-06-18T06:02:38Z</time>
      </trkpt>
      <trkpt lat="46.20602" lon="5.32496">
        <ele>289</ele>
        <time>2022-06-18T06:02:43Z</time>
      </trkpt>
      <trkpt lat="46.2059" lon="5.32493">
        <ele>289.2</ele>
        <time>2022-06-18T06:02:45Z</time>
      </trkpt>
      <trkpt lat="46.20573" lon="5.32488">
        <ele>290</ele>
        <time>2022-06-18T06:02:48Z</time>
      </trkpt>
      <trkpt lat="46.20544" lon="5.32482">
        <ele>290.8</ele>
        <time>2022-06-18T06:02:53Z</time>
      </trkpt>
      <trkpt lat="46.20533" lon="5.3248">
        <ele>291.4</ele>
        <time>2022-06-18T06:02:55Z</time>
      </trkpt>
      <trkpt lat="46.20514" lon="5.32476">
        <ele>292.4</ele>
        <time>2022-06-18T06:02:59Z</time>
      </trkpt>
      <trkpt lat="46.20509" lon="5.32475">
        <ele>292.6</ele>
        <time>2022-06-18T06:03:00Z</time>
      </trkpt>
      <trkpt lat="46.20495" lon="5.32472">
        <ele>293.6</ele>
        <time>2022-06-18T06:03:03Z</time>
      </trkpt>
      <trkpt lat="46.2048" lon="5.32468">
        <ele>294.8</ele>
        <time>2022-06-18T06:03:06Z</time>
      </trkpt>
      <trkpt lat="46.20462" lon="5.32464">
        <ele>295.8</ele>
        <time>2022-06-18T06:03:10Z</time>
      </trkpt>
      <trkpt lat="46.20459" lon="5.32463">
        <ele>295.8</ele>
        <time>2022-06-18T06:03:11Z</time>
      </trkpt>
      <trkpt lat="46.20435" lon="5.32458">
        <ele>297.2</ele>
        <time>2022-06-18T06:03:16Z</time>
      </trkpt>
      <trkpt lat="46.20426" lon="5.32457">
        <ele>297.8</ele>
        <time>2022-06-18T06:03:18Z</time>
      </trkpt>
      <trkpt lat="46.20416" lon="5.32456">
        <ele>298.2</ele>
        <time>2022-06-18T06:03:20Z</time>
      </trkpt>
      <trkpt lat="46.20394" lon="5.3245">
        <ele>299.2</ele>
        <time>2022-06-18T06:03:25Z</time>
      </trkpt>
      <trkpt lat="46.20385" lon="5.32449">
        <ele>299.6</ele>
        <time>2022-06-18T06:03:27Z</time>
      </trkpt>
      <trkpt lat="46.20365" lon="5.32447">
        <ele>300.2</ele>
        <time>2022-06-18T06:03:31Z</time>
      </trkpt>
      <trkpt lat="46.2034" lon="5.32442">
        <ele>301</ele>
        <time>2022-06-18T06:03:36Z</time>
      </trkpt>
      <trkpt lat="46.20321" lon="5.3244">
        <ele>301.4</ele>
        <time>2022-06-18T06:03:40Z</time>
      </trkpt>
      <trkpt lat="46.20288" lon="5.32436">
        <ele>302.4</ele>
        <time>2022-06-18T06:03:47Z</time>
      </trkpt>
      <trkpt lat="46.20283" lon="5.32436">
        <ele>302.6</ele>
        <time>2022-06-18T06:03:48Z</time>
      </trkpt>
      <trkpt lat="46.20255" lon="5.32431">
        <ele>303.4</ele>
        <time>2022-06-18T06:03:54Z</time>
      </trkpt>
      <trkpt lat="46.20245" lon="5.32428">
        <ele>303.8</ele>
        <time>2022-06-18T06:03:56Z</time>
      </trkpt>
      <trkpt lat="46.20209" lon="5.32412">
        <ele>304.8</ele>
        <time>2022-06-18T06:04:04Z</time>
      </trkpt>
      <trkpt lat="46.20204" lon="5.3241">
        <ele>304.8</ele>
        <time>2022-06-18T06:04:05Z</time>
      </trkpt>
      <trkpt lat="46.20167" lon="5.32397">
        <ele>305.8</ele>
        <time>2022-06-18T06:04:13Z</time>
      </trkpt>
      <trkpt lat="46.20152" lon="5.32394">
        <ele>306</ele>
        <time>2022-06-18T06:04:16Z</time>
      </trkpt>
      <trkpt lat="46.20115" lon="5.32391">
        <ele>306.6</ele>
        <time>2022-06-18T06:04:23Z</time>
      </trkpt>
      <trkpt lat="46.20081" lon="5.32391">
        <ele>306.8</ele>
        <time>2022-06-18T06:04:29Z</time>
      </trkpt>
      <trkpt lat="46.2007" lon="5.32389">
        <ele>307</ele>
        <time>2022-06-18T06:04:31Z</time>
      </trkpt>
      <trkpt lat="46.20063" lon="5.32387">
        <ele>307.2</ele>
        <time>2022-06-18T06:04:32Z</time>
      </trkpt>
      <trkpt lat="46.20045" lon="5.32378">
        <ele>307.4</ele>
        <time>2022-06-18T06:04:35Z</time>
      </trkpt>
      <trkpt lat="46.2004" lon="5.32373">
        <ele>307.4</ele>
        <time>2022-06-18T06:04:36Z</time>
      </trkpt>
      <trkpt lat="46.20011" lon="5.32339">
        <ele>307.4</ele>
        <time>2022-06-18T06:04:42Z</time>
      </trkpt>
      <trkpt lat="46.19985" lon="5.32311">
        <ele>307.4</ele>
        <time>2022-06-18T06:04:47Z</time>
      </trkpt>
      <trkpt lat="46.19979" lon="5.32307">
        <ele>307.6</ele>
        <time>2022-06-18T06:04:48Z</time>
      </trkpt>
      <trkpt lat="46.19956" lon="5.32296">
        <ele>308.2</ele>
        <time>2022-06-18T06:04:52Z</time>
      </trkpt>
      <trkpt lat="46.19944" lon="5.32294">
        <ele>308.4</ele>
        <time>2022-06-18T06:04:54Z</time>
      </trkpt>
      <trkpt lat="46.19908" lon="5.32298">
        <ele>309</ele>
        <time>2022-06-18T06:05:00Z</time>
      </trkpt>
      <trkpt lat="46.19895" lon="5.32301">
        <ele>309.2</ele>
        <time>2022-06-18T06:05:02Z</time>
      </trkpt>
      <trkpt lat="46.19867" lon="5.32308">
        <ele>309.8</ele>
        <time>2022-06-18T06:05:07Z</time>
      </trkpt>
      <trkpt lat="46.19834" lon="5.32312">
        <ele>310.2</ele>
        <time>2022-06-18T06:05:12Z</time>
      </trkpt>
      <trkpt lat="46.19811" lon="5.32313">
        <ele>310.4</ele>
        <time>2022-06-18T06:05:15Z</time>
      </trkpt>
      <trkpt lat="46.1976" lon="5.32306">
        <ele>309.6</ele>
        <time>2022-06-18T06:05:22Z</time>
      </trkpt>
      <trkpt lat="46.19724" lon="5.32296">
        <ele>309</ele>
        <time>2022-06-18T06:05:27Z</time>
      </trkpt>
      <trkpt lat="46.1971" lon="5.32292">
        <ele>309</ele>
        <time>2022-06-18T06:05:29Z</time>
      </trkpt>
      <trkpt lat="46.19654" lon="5.32271">
        <ele>309.8</ele>
        <time>2022-06-18T06:05:38Z</time>
      </trkpt>
      <trkpt lat="46.19642" lon="5.32267">
        <ele>310</ele>
        <time>2022-06-18T06:05:40Z</time>
      </trkpt>
      <trkpt lat="46.19609" lon="5.32257">
        <ele>311</ele>
        <time>2022-06-18T06:05:46Z</time>
      </trkpt>
      <trkpt lat="46.19604" lon="5.32255">
        <ele>311.2</ele>
        <time>2022-06-18T06:05:47Z</time>
      </trkpt>
      <trkpt lat="46.19578" lon="5.32247">
        <ele>312.4</ele>
        <time>2022-06-18T06:05:52Z</time>
      </trkpt>
      <trkpt lat="46.19567" lon="5.32244">
        <ele>312.8</ele>
        <time>2022-06-18T06:05:54Z</time>
      </trkpt>
      <trkpt lat="46.19551" lon="5.32238">
        <ele>313.6</ele>
        <time>2022-06-18T06:05:57Z</time>
      </trkpt>
      <trkpt lat="46.19523" lon="5.32229">
        <ele>314.6</ele>
        <time>2022-06-18T06:06:02Z</time>
      </trkpt>
      <trkpt lat="46.19517" lon="5.32227">
        <ele>314.8</ele>
        <time>2022-06-18T06:06:03Z</time>
      </trkpt>
      <trkpt lat="46.19462" lon="5.32217">
        <ele>314.4</ele>
        <time>2022-06-18T06:06:11Z</time>
      </trkpt>
      <trkpt lat="46.19405" lon="5.32211">
        <ele>313.6</ele>
        <time>2022-06-18T06:06:19Z</time>
      </trkpt>
      <trkpt lat="46.19359" lon="5.32201">
        <ele>314.2</ele>
        <time>2022-06-18T06:06:26Z</time>
      </trkpt>
      <trkpt lat="46.19351" lon="5.32199">
        <ele>314.2</ele>
        <time>2022-06-18T06:06:27Z</time>
      </trkpt>
      <trkpt lat="46.19322" lon="5.32185">
        <ele>314.4</ele>
        <time>2022-06-18T06:06:32Z</time>
      </trkpt>
      <trkpt lat="46.19265" lon="5.32158">
        <ele>314.4</ele>
        <time>2022-06-18T06:06:41Z</time>
      </trkpt>
      <trkpt lat="46.19258" lon="5.32155">
        <ele>314.4</ele>
        <time>2022-06-18T06:06:42Z</time>
      </trkpt>
      <trkpt lat="46.19201" lon="5.32133">
        <ele>313.8</ele>
        <time>2022-06-18T06:06:50Z</time>
      </trkpt>
      <trkpt lat="46.19152" lon="5.32121">
        <ele>313.6</ele>
        <time>2022-06-18T06:06:57Z</time>
      </trkpt>
      <trkpt lat="46.19145" lon="5.3212">
        <ele>313.6</ele>
        <time>2022-06-18T06:06:58Z</time>
      </trkpt>
      <trkpt lat="46.19118" lon="5.32125">
        <ele>313.6</ele>
        <time>2022-06-18T06:07:02Z</time>
      </trkpt>
      <trkpt lat="46.19088" lon="5.32132">
        <ele>313.4</ele>
        <time>2022-06-18T06:07:06Z</time>
      </trkpt>
      <trkpt lat="46.19062" lon="5.32139">
        <ele>313.2</ele>
        <time>2022-06-18T06:07:09Z</time>
      </trkpt>
      <trkpt lat="46.19046" lon="5.32144">
        <ele>312.2</ele>
        <time>2022-06-18T06:07:11Z</time>
      </trkpt>
      <trkpt lat="46.19019" lon="5.32153">
        <ele>310.8</ele>
        <time>2022-06-18T06:07:14Z</time>
      </trkpt>
      <trkpt lat="46.1901" lon="5.32155">
        <ele>309.8</ele>
        <time>2022-06-18T06:07:15Z</time>
      </trkpt>
      <trkpt lat="46.19" lon="5.32156">
        <ele>309.6</ele>
        <time>2022-06-18T06:07:16Z</time>
      </trkpt>
      <trkpt lat="46.18981" lon="5.32154">
        <ele>308.8</ele>
        <time>2022-06-18T06:07:18Z</time>
      </trkpt>
      <trkpt lat="46.18972" lon="5.32152">
        <ele>308.4</ele>
        <time>2022-06-18T06:07:19Z</time>
      </trkpt>
      <trkpt lat="46.1895" lon="5.32147">
        <ele>307.2</ele>
        <time>2022-06-18T06:07:22Z</time>
      </trkpt>
      <trkpt lat="46.18923" lon="5.32147">
        <ele>306</ele>
        <time>2022-06-18T06:07:25Z</time>
      </trkpt>
      <trkpt lat="46.18913" lon="5.32149">
        <ele>305.6</ele>
        <time>2022-06-18T06:07:26Z</time>
      </trkpt>
      <trkpt lat="46.18903" lon="5.32152">
        <ele>305</ele>
        <time>2022-06-18T06:07:27Z</time>
      </trkpt>
      <trkpt lat="46.18893" lon="5.32157">
        <ele>304.4</ele>
        <time>2022-06-18T06:07:28Z</time>
      </trkpt>
      <trkpt lat="46.18882" lon="5.32163">
        <ele>303.8</ele>
        <time>2022-06-18T06:07:29Z</time>
      </trkpt>
      <trkpt lat="46.18872" lon="5.3217">
        <ele>303.6</ele>
        <time>2022-06-18T06:07:30Z</time>
      </trkpt>
      <trkpt lat="46.18862" lon="5.32178">
        <ele>302.6</ele>
        <time>2022-06-18T06:07:31Z</time>
      </trkpt>
      <trkpt lat="46.18842" lon="5.32193">
        <ele>301</ele>
        <time>2022-06-18T06:07:33Z</time>
      </trkpt>
      <trkpt lat="46.18821" lon="5.32207">
        <ele>298.8</ele>
        <time>2022-06-18T06:07:35Z</time>
      </trkpt>
      <trkpt lat="46.1881" lon="5.32212">
        <ele>298.4</ele>
        <time>2022-06-18T06:07:36Z</time>
      </trkpt>
      <trkpt lat="46.18799" lon="5.32216">
        <ele>297.4</ele>
        <time>2022-06-18T06:07:37Z</time>
      </trkpt>
      <trkpt lat="46.18778" lon="5.3222">
        <ele>295.8</ele>
        <time>2022-06-18T06:07:39Z</time>
      </trkpt>
      <trkpt lat="46.18767" lon="5.32221">
        <ele>295.2</ele>
        <time>2022-06-18T06:07:40Z</time>
      </trkpt>
      <trkpt lat="46.18748" lon="5.32224">
        <ele>294.6</ele>
        <time>2022-06-18T06:07:42Z</time>
      </trkpt>
      <trkpt lat="46.1871" lon="5.3223">
        <ele>294.4</ele>
        <time>2022-06-18T06:07:46Z</time>
      </trkpt>
      <trkpt lat="46.18673" lon="5.3224">
        <ele>295.6</ele>
        <time>2022-06-18T06:07:51Z</time>
      </trkpt>
      <trkpt lat="46.18665" lon="5.32243">
        <ele>296.4</ele>
        <time>2022-06-18T06:07:52Z</time>
      </trkpt>
      <trkpt lat="46.18658" lon="5.32244">
        <ele>296.8</ele>
        <time>2022-06-18T06:07:53Z</time>
      </trkpt>
      <trkpt lat="46.18645" lon="5.32249">
        <ele>298</ele>
        <time>2022-06-18T06:07:55Z</time>
      </trkpt>
      <trkpt lat="46.18628" lon="5.32256">
        <ele>299</ele>
        <time>2022-06-18T06:07:58Z</time>
      </trkpt>
      <trkpt lat="46.18602" lon="5.32266">
        <ele>300.4</ele>
        <time>2022-06-18T06:08:03Z</time>
      </trkpt>
      <trkpt lat="46.18593" lon="5.3227">
        <ele>301.2</ele>
        <time>2022-06-18T06:08:05Z</time>
      </trkpt>
      <trkpt lat="46.18587" lon="5.32272">
        <ele>301.2</ele>
        <time>2022-06-18T06:08:06Z</time>
      </trkpt>
      <trkpt lat="46.18582" lon="5.32273">
        <ele>301.8</ele>
        <time>2022-06-18T06:08:07Z</time>
      </trkpt>
      <trkpt lat="46.18571" lon="5.32276">
        <ele>302.6</ele>
        <time>2022-06-18T06:08:09Z</time>
      </trkpt>
      <trkpt lat="46.18561" lon="5.32278">
        <ele>302.8</ele>
        <time>2022-06-18T06:08:11Z</time>
      </trkpt>
      <trkpt lat="46.18558" lon="5.32278">
        <ele>303</ele>
        <time>2022-06-18T06:08:12Z</time>
      </trkpt>
      <trkpt lat="46.18548" lon="5.3228">
        <ele>303.4</ele>
        <time>2022-06-18T06:08:14Z</time>
      </trkpt>
      <trkpt lat="46.18543" lon="5.32281">
        <ele>304</ele>
        <time>2022-06-18T06:08:15Z</time>
      </trkpt>
      <trkpt lat="46.18528" lon="5.32283">
        <ele>304.4</ele>
        <time>2022-06-18T06:08:18Z</time>
      </trkpt>
      <trkpt lat="46.18513" lon="5.32288">
        <ele>305</ele>
        <time>2022-06-18T06:08:21Z</time>
      </trkpt>
      <trkpt lat="46.18491" lon="5.3229">
        <ele>306</ele>
        <time>2022-06-18T06:08:25Z</time>
      </trkpt>
      <trkpt lat="46.18485" lon="5.32292">
        <ele>306.2</ele>
        <time>2022-06-18T06:08:26Z</time>
      </trkpt>
      <trkpt lat="46.18475" lon="5.32294">
        <ele>306.4</ele>
        <time>2022-06-18T06:08:28Z</time>
      </trkpt>
      <trkpt lat="46.18455" lon="5.32297">
        <ele>306.8</ele>
        <time>2022-06-18T06:08:32Z</time>
      </trkpt>
      <trkpt lat="46.18445" lon="5.32299">
        <ele>307</ele>
        <time>2022-06-18T06:08:34Z</time>
      </trkpt>
      <trkpt lat="46.18421" lon="5.32302">
        <ele>308.2</ele>
        <time>2022-06-18T06:08:39Z</time>
      </trkpt>
      <trkpt lat="46.18417" lon="5.32303">
        <ele>308.8</ele>
        <time>2022-06-18T06:08:40Z</time>
      </trkpt>
      <trkpt lat="46.18408" lon="5.32306">
        <ele>309.4</ele>
        <time>2022-06-18T06:08:42Z</time>
      </trkpt>
      <trkpt lat="46.18387" lon="5.32313">
        <ele>310.2</ele>
        <time>2022-06-18T06:08:47Z</time>
      </trkpt>
      <trkpt lat="46.18383" lon="5.32315">
        <ele>310.4</ele>
        <time>2022-06-18T06:08:48Z</time>
      </trkpt>
      <trkpt lat="46.18353" lon="5.32325">
        <ele>311.6</ele>
        <time>2022-06-18T06:08:54Z</time>
      </trkpt>
      <trkpt lat="46.1835" lon="5.32326">
        <ele>311.8</ele>
        <time>2022-06-18T06:08:55Z</time>
      </trkpt>
      <trkpt lat="46.18327" lon="5.32337">
        <ele>312.6</ele>
        <time>2022-06-18T06:09:00Z</time>
      </trkpt>
      <trkpt lat="46.18322" lon="5.32339">
        <ele>312.8</ele>
        <time>2022-06-18T06:09:01Z</time>
      </trkpt>
      <trkpt lat="46.18294" lon="5.32355">
        <ele>313.6</ele>
        <time>2022-06-18T06:09:07Z</time>
      </trkpt>
      <trkpt lat="46.18285" lon="5.32361">
        <ele>313.6</ele>
        <time>2022-06-18T06:09:09Z</time>
      </trkpt>
      <trkpt lat="46.18253" lon="5.32383">
        <ele>313.8</ele>
        <time>2022-06-18T06:09:15Z</time>
      </trkpt>
      <trkpt lat="46.18217" lon="5.32413">
        <ele>313.4</ele>
        <time>2022-06-18T06:09:21Z</time>
      </trkpt>
      <trkpt lat="46.18174" lon="5.32454">
        <ele>312.6</ele>
        <time>2022-06-18T06:09:28Z</time>
      </trkpt>
      <trkpt lat="46.18169" lon="5.3246">
        <ele>312.6</ele>
        <time>2022-06-18T06:09:29Z</time>
      </trkpt>
      <trkpt lat="46.18134" lon="5.32492">
        <ele>312</ele>
        <time>2022-06-18T06:09:35Z</time>
      </trkpt>
      <trkpt lat="46.18096" lon="5.3251">
        <ele>312.4</ele>
        <time>2022-06-18T06:09:41Z</time>
      </trkpt>
      <trkpt lat="46.18037" lon="5.32527">
        <ele>312.8</ele>
        <time>2022-06-18T06:09:50Z</time>
      </trkpt>
      <trkpt lat="46.18024" lon="5.3253">
        <ele>312.8</ele>
        <time>2022-06-18T06:09:52Z</time>
      </trkpt>
      <trkpt lat="46.17986" lon="5.32533">
        <ele>312.8</ele>
        <time>2022-06-18T06:09:58Z</time>
      </trkpt>
      <trkpt lat="46.17958" lon="5.32535">
        <ele>313.6</ele>
        <time>2022-06-18T06:10:03Z</time>
      </trkpt>
      <trkpt lat="46.17952" lon="5.32534">
        <ele>313.6</ele>
        <time>2022-06-18T06:10:04Z</time>
      </trkpt>
      <trkpt lat="46.17928" lon="5.32526">
        <ele>314.6</ele>
        <time>2022-06-18T06:10:09Z</time>
      </trkpt>
      <trkpt lat="46.17923" lon="5.32525">
        <ele>314.8</ele>
        <time>2022-06-18T06:10:10Z</time>
      </trkpt>
      <trkpt lat="46.17915" lon="5.32525">
        <ele>316.2</ele>
        <time>2022-06-18T06:10:12Z</time>
      </trkpt>
      <trkpt lat="46.17908" lon="5.32527">
        <ele>317.2</ele>
        <time>2022-06-18T06:10:15Z</time>
      </trkpt>
      <trkpt lat="46.17908" lon="5.32527">
        <ele>318.2</ele>
        <time>2022-06-18T06:10:17Z</time>
      </trkpt>
      <trkpt lat="46.17903" lon="5.3253">
        <ele>318.8</ele>
        <time>2022-06-18T06:10:28Z</time>
      </trkpt>
      <trkpt lat="46.17899" lon="5.32545">
        <ele>318.6</ele>
        <time>2022-06-18T06:10:31Z</time>
      </trkpt>
      <trkpt lat="46.17899" lon="5.32552">
        <ele>318.6</ele>
        <time>2022-06-18T06:10:32Z</time>
      </trkpt>
      <trkpt lat="46.17896" lon="5.32572">
        <ele>318.6</ele>
        <time>2022-06-18T06:10:35Z</time>
      </trkpt>
      <trkpt lat="46.17892" lon="5.32583">
        <ele>318.6</ele>
        <time>2022-06-18T06:10:37Z</time>
      </trkpt>
      <trkpt lat="46.17889" lon="5.32589">
        <ele>318.6</ele>
        <time>2022-06-18T06:10:38Z</time>
      </trkpt>
      <trkpt lat="46.17875" lon="5.32611">
        <ele>318.8</ele>
        <time>2022-06-18T06:10:43Z</time>
      </trkpt>
      <trkpt lat="46.1785" lon="5.32648">
        <ele>319.8</ele>
        <time>2022-06-18T06:10:51Z</time>
      </trkpt>
      <trkpt lat="46.17845" lon="5.32658">
        <ele>320.2</ele>
        <time>2022-06-18T06:10:53Z</time>
      </trkpt>
      <trkpt lat="46.17838" lon="5.32673">
        <ele>320.6</ele>
        <time>2022-06-18T06:10:56Z</time>
      </trkpt>
      <trkpt lat="46.17829" lon="5.32688">
        <ele>320.8</ele>
        <time>2022-06-18T06:10:59Z</time>
      </trkpt>
      <trkpt lat="46.1781" lon="5.32726">
        <ele>321.2</ele>
        <time>2022-06-18T06:11:05Z</time>
      </trkpt>
      <trkpt lat="46.17787" lon="5.32768">
        <ele>320</ele>
        <time>2022-06-18T06:11:10Z</time>
      </trkpt>
      <trkpt lat="46.17781" lon="5.32778">
        <ele>319.8</ele>
        <time>2022-06-18T06:11:11Z</time>
      </trkpt>
      <trkpt lat="46.17765" lon="5.32808">
        <ele>318</ele>
        <time>2022-06-18T06:11:14Z</time>
      </trkpt>
      <trkpt lat="46.1776" lon="5.32816">
        <ele>317.6</ele>
        <time>2022-06-18T06:11:15Z</time>
      </trkpt>
      <trkpt lat="46.17754" lon="5.32822">
        <ele>317</ele>
        <time>2022-06-18T06:11:16Z</time>
      </trkpt>
      <trkpt lat="46.17747" lon="5.32826">
        <ele>316.6</ele>
        <time>2022-06-18T06:11:17Z</time>
      </trkpt>
      <trkpt lat="46.17738" lon="5.32826">
        <ele>316</ele>
        <time>2022-06-18T06:11:18Z</time>
      </trkpt>
      <trkpt lat="46.17727" lon="5.32826">
        <ele>315.8</ele>
        <time>2022-06-18T06:11:19Z</time>
      </trkpt>
      <trkpt lat="46.17709" lon="5.32821">
        <ele>314.6</ele>
        <time>2022-06-18T06:11:21Z</time>
      </trkpt>
      <trkpt lat="46.17701" lon="5.32816">
        <ele>314.2</ele>
        <time>2022-06-18T06:11:22Z</time>
      </trkpt>
      <trkpt lat="46.17693" lon="5.32807">
        <ele>313.2</ele>
        <time>2022-06-18T06:11:23Z</time>
      </trkpt>
      <trkpt lat="46.17678" lon="5.32794">
        <ele>311.8</ele>
        <time>2022-06-18T06:11:25Z</time>
      </trkpt>
      <trkpt lat="46.17663" lon="5.3278">
        <ele>311</ele>
        <time>2022-06-18T06:11:27Z</time>
      </trkpt>
      <trkpt lat="46.17659" lon="5.32766">
        <ele>310.2</ele>
        <time>2022-06-18T06:11:28Z</time>
      </trkpt>
      <trkpt lat="46.17656" lon="5.32748">
        <ele>309.8</ele>
        <time>2022-06-18T06:11:29Z</time>
      </trkpt>
      <trkpt lat="46.17657" lon="5.32706">
        <ele>309.2</ele>
        <time>2022-06-18T06:11:31Z</time>
      </trkpt>
      <trkpt lat="46.17666" lon="5.32626">
        <ele>308</ele>
        <time>2022-06-18T06:11:36Z</time>
      </trkpt>
      <trkpt lat="46.1767" lon="5.32584">
        <ele>306.6</ele>
        <time>2022-06-18T06:11:39Z</time>
      </trkpt>
      <trkpt lat="46.17669" lon="5.32572">
        <ele>306.6</ele>
        <time>2022-06-18T06:11:40Z</time>
      </trkpt>
      <trkpt lat="46.17668" lon="5.32563">
        <ele>306.4</ele>
        <time>2022-06-18T06:11:41Z</time>
      </trkpt>
      <trkpt lat="46.17663" lon="5.32558">
        <ele>306.4</ele>
        <time>2022-06-18T06:11:42Z</time>
      </trkpt>
      <trkpt lat="46.17641" lon="5.32556">
        <ele>306</ele>
        <time>2022-06-18T06:11:45Z</time>
      </trkpt>
      <trkpt lat="46.17628" lon="5.32553">
        <ele>305.6</ele>
        <time>2022-06-18T06:11:47Z</time>
      </trkpt>
      <trkpt lat="46.1762" lon="5.32552">
        <ele>305.2</ele>
        <time>2022-06-18T06:11:48Z</time>
      </trkpt>
      <trkpt lat="46.17613" lon="5.32552">
        <ele>305</ele>
        <time>2022-06-18T06:11:49Z</time>
      </trkpt>
      <trkpt lat="46.17606" lon="5.32554">
        <ele>304.8</ele>
        <time>2022-06-18T06:11:50Z</time>
      </trkpt>
      <trkpt lat="46.17594" lon="5.32563">
        <ele>304.8</ele>
        <time>2022-06-18T06:11:52Z</time>
      </trkpt>
      <trkpt lat="46.17564" lon="5.32597">
        <ele>305.8</ele>
        <time>2022-06-18T06:11:58Z</time>
      </trkpt>
      <trkpt lat="46.17545" lon="5.32613">
        <ele>307</ele>
        <time>2022-06-18T06:12:02Z</time>
      </trkpt>
      <trkpt lat="46.1754" lon="5.32616">
        <ele>307.2</ele>
        <time>2022-06-18T06:12:03Z</time>
      </trkpt>
      <trkpt lat="46.17525" lon="5.32624">
        <ele>308.2</ele>
        <time>2022-06-18T06:12:06Z</time>
      </trkpt>
      <trkpt lat="46.17512" lon="5.32628">
        <ele>308.6</ele>
        <time>2022-06-18T06:12:09Z</time>
      </trkpt>
      <trkpt lat="46.17508" lon="5.32628">
        <ele>308.6</ele>
        <time>2022-06-18T06:12:10Z</time>
      </trkpt>
      <trkpt lat="46.17503" lon="5.32627">
        <ele>309.2</ele>
        <time>2022-06-18T06:12:11Z</time>
      </trkpt>
      <trkpt lat="46.17495" lon="5.32621">
        <ele>310</ele>
        <time>2022-06-18T06:12:13Z</time>
      </trkpt>
      <trkpt lat="46.17491" lon="5.32618">
        <ele>310.4</ele>
        <time>2022-06-18T06:12:14Z</time>
      </trkpt>
      <trkpt lat="46.17484" lon="5.32608">
        <ele>310.8</ele>
        <time>2022-06-18T06:12:16Z</time>
      </trkpt>
      <trkpt lat="46.17478" lon="5.32599">
        <ele>311.2</ele>
        <time>2022-06-18T06:12:18Z</time>
      </trkpt>
      <trkpt lat="46.17471" lon="5.32591">
        <ele>311.6</ele>
        <time>2022-06-18T06:12:20Z</time>
      </trkpt>
      <trkpt lat="46.17463" lon="5.32583">
        <ele>312</ele>
        <time>2022-06-18T06:12:22Z</time>
      </trkpt>
      <trkpt lat="46.17456" lon="5.32578">
        <ele>312.6</ele>
        <time>2022-06-18T06:12:24Z</time>
      </trkpt>
      <trkpt lat="46.17452" lon="5.32575">
        <ele>312.6</ele>
        <time>2022-06-18T06:12:25Z</time>
      </trkpt>
      <trkpt lat="46.17448" lon="5.32573">
        <ele>312.6</ele>
        <time>2022-06-18T06:12:26Z</time>
      </trkpt>
      <trkpt lat="46.17437" lon="5.32572">
        <ele>314</ele>
        <time>2022-06-18T06:12:29Z</time>
      </trkpt>
      <trkpt lat="46.1743" lon="5.32572">
        <ele>314.6</ele>
        <time>2022-06-18T06:12:31Z</time>
      </trkpt>
      <trkpt lat="46.17427" lon="5.32573">
        <ele>315</ele>
        <time>2022-06-18T06:12:32Z</time>
      </trkpt>
      <trkpt lat="46.17413" lon="5.32577">
        <ele>316.4</ele>
        <time>2022-06-18T06:12:36Z</time>
      </trkpt>
      <trkpt lat="46.17409" lon="5.32578">
        <ele>316.8</ele>
        <time>2022-06-18T06:12:37Z</time>
      </trkpt>
      <trkpt lat="46.17394" lon="5.32585">
        <ele>317.8</ele>
        <time>2022-06-18T06:12:41Z</time>
      </trkpt>
      <trkpt lat="46.17384" lon="5.3259">
        <ele>318.8</ele>
        <time>2022-06-18T06:12:44Z</time>
      </trkpt>
      <trkpt lat="46.17367" lon="5.32598">
        <ele>319.8</ele>
        <time>2022-06-18T06:12:49Z</time>
      </trkpt>
      <trkpt lat="46.17361" lon="5.32602">
        <ele>320.6</ele>
        <time>2022-06-18T06:12:51Z</time>
      </trkpt>
      <trkpt lat="46.17354" lon="5.32605">
        <ele>321</ele>
        <time>2022-06-18T06:12:53Z</time>
      </trkpt>
      <trkpt lat="46.17335" lon="5.32616">
        <ele>322.2</ele>
        <time>2022-06-18T06:12:59Z</time>
      </trkpt>
      <trkpt lat="46.17329" lon="5.32618">
        <ele>322.8</ele>
        <time>2022-06-18T06:13:01Z</time>
      </trkpt>
      <trkpt lat="46.17311" lon="5.32626">
        <ele>323.4</ele>
        <time>2022-06-18T06:13:06Z</time>
      </trkpt>
      <trkpt lat="46.17294" lon="5.32633">
        <ele>324.6</ele>
        <time>2022-06-18T06:13:11Z</time>
      </trkpt>
      <trkpt lat="46.17269" lon="5.32641">
        <ele>325.6</ele>
        <time>2022-06-18T06:13:18Z</time>
      </trkpt>
      <trkpt lat="46.1725" lon="5.32647">
        <ele>326.6</ele>
        <time>2022-06-18T06:13:23Z</time>
      </trkpt>
      <trkpt lat="46.17246" lon="5.32648">
        <ele>326.8</ele>
        <time>2022-06-18T06:13:24Z</time>
      </trkpt>
      <trkpt lat="46.17211" lon="5.32656">
        <ele>327.8</ele>
        <time>2022-06-18T06:13:32Z</time>
      </trkpt>
      <trkpt lat="46.17207" lon="5.32657">
        <ele>328</ele>
        <time>2022-06-18T06:13:33Z</time>
      </trkpt>
      <trkpt lat="46.17173" lon="5.32664">
        <ele>329</ele>
        <time>2022-06-18T06:13:41Z</time>
      </trkpt>
      <trkpt lat="46.17164" lon="5.32665">
        <ele>329.4</ele>
        <time>2022-06-18T06:13:43Z</time>
      </trkpt>
      <trkpt lat="46.1714" lon="5.32665">
        <ele>330.2</ele>
        <time>2022-06-18T06:13:48Z</time>
      </trkpt>
      <trkpt lat="46.17121" lon="5.32665">
        <ele>330.4</ele>
        <time>2022-06-18T06:13:52Z</time>
      </trkpt>
      <trkpt lat="46.17085" lon="5.32668">
        <ele>331.2</ele>
        <time>2022-06-18T06:13:59Z</time>
      </trkpt>
      <trkpt lat="46.1708" lon="5.32669">
        <ele>331.4</ele>
        <time>2022-06-18T06:14:00Z</time>
      </trkpt>
      <trkpt lat="46.1707" lon="5.3267">
        <ele>331.6</ele>
        <time>2022-06-18T06:14:02Z</time>
      </trkpt>
      <trkpt lat="46.17035" lon="5.32674">
        <ele>332.4</ele>
        <time>2022-06-18T06:14:09Z</time>
      </trkpt>
      <trkpt lat="46.1703" lon="5.32674">
        <ele>332.4</ele>
        <time>2022-06-18T06:14:10Z</time>
      </trkpt>
      <trkpt lat="46.16995" lon="5.32677">
        <ele>333.4</ele>
        <time>2022-06-18T06:14:17Z</time>
      </trkpt>
      <trkpt lat="46.16985" lon="5.32679">
        <ele>333.6</ele>
        <time>2022-06-18T06:14:19Z</time>
      </trkpt>
      <trkpt lat="46.16954" lon="5.32685">
        <ele>334.4</ele>
        <time>2022-06-18T06:14:25Z</time>
      </trkpt>
      <trkpt lat="46.16938" lon="5.32687">
        <ele>334.6</ele>
        <time>2022-06-18T06:14:28Z</time>
      </trkpt>
      <trkpt lat="46.16918" lon="5.32691">
        <ele>335</ele>
        <time>2022-06-18T06:14:32Z</time>
      </trkpt>
      <trkpt lat="46.16897" lon="5.32694">
        <ele>335.6</ele>
        <time>2022-06-18T06:14:36Z</time>
      </trkpt>
      <trkpt lat="46.16876" lon="5.32697">
        <ele>335.8</ele>
        <time>2022-06-18T06:14:40Z</time>
      </trkpt>
      <trkpt lat="46.16829" lon="5.32705">
        <ele>336.4</ele>
        <time>2022-06-18T06:14:49Z</time>
      </trkpt>
      <trkpt lat="46.16813" lon="5.32708">
        <ele>336.8</ele>
        <time>2022-06-18T06:14:52Z</time>
      </trkpt>
      <trkpt lat="46.16786" lon="5.32713">
        <ele>337.4</ele>
        <time>2022-06-18T06:14:57Z</time>
      </trkpt>
      <trkpt lat="46.16759" lon="5.32718">
        <ele>337.8</ele>
        <time>2022-06-18T06:15:02Z</time>
      </trkpt>
      <trkpt lat="46.16732" lon="5.32722">
        <ele>338.4</ele>
        <time>2022-06-18T06:15:07Z</time>
      </trkpt>
      <trkpt lat="46.16688" lon="5.32731">
        <ele>338.6</ele>
        <time>2022-06-18T06:15:14Z</time>
      </trkpt>
      <trkpt lat="46.16652" lon="5.32738">
        <ele>338.2</ele>
        <time>2022-06-18T06:15:19Z</time>
      </trkpt>
      <trkpt lat="46.16613" lon="5.32748">
        <ele>336.4</ele>
        <time>2022-06-18T06:15:24Z</time>
      </trkpt>
      <trkpt lat="46.16597" lon="5.32752">
        <ele>336.4</ele>
        <time>2022-06-18T06:15:26Z</time>
      </trkpt>
      <trkpt lat="46.16566" lon="5.32761">
        <ele>335.4</ele>
        <time>2022-06-18T06:15:30Z</time>
      </trkpt>
      <trkpt lat="46.1655" lon="5.32765">
        <ele>334.8</ele>
        <time>2022-06-18T06:15:32Z</time>
      </trkpt>
      <trkpt lat="46.1651" lon="5.32776">
        <ele>334</ele>
        <time>2022-06-18T06:15:37Z</time>
      </trkpt>
      <trkpt lat="46.16484" lon="5.32782">
        <ele>333.4</ele>
        <time>2022-06-18T06:15:40Z</time>
      </trkpt>
      <trkpt lat="46.16467" lon="5.32785">
        <ele>333</ele>
        <time>2022-06-18T06:15:42Z</time>
      </trkpt>
      <trkpt lat="46.1645" lon="5.3279">
        <ele>332</ele>
        <time>2022-06-18T06:15:44Z</time>
      </trkpt>
      <trkpt lat="46.16441" lon="5.32794">
        <ele>331.4</ele>
        <time>2022-06-18T06:15:45Z</time>
      </trkpt>
      <trkpt lat="46.16426" lon="5.32807">
        <ele>330.6</ele>
        <time>2022-06-18T06:15:47Z</time>
      </trkpt>
      <trkpt lat="46.16419" lon="5.32816">
        <ele>330.2</ele>
        <time>2022-06-18T06:15:48Z</time>
      </trkpt>
      <trkpt lat="46.16409" lon="5.32835">
        <ele>329.6</ele>
        <time>2022-06-18T06:15:50Z</time>
      </trkpt>
      <trkpt lat="46.16394" lon="5.32875">
        <ele>329.4</ele>
        <time>2022-06-18T06:15:54Z</time>
      </trkpt>
      <trkpt lat="46.16375" lon="5.32919">
        <ele>330.4</ele>
        <time>2022-06-18T06:15:59Z</time>
      </trkpt>
      <trkpt lat="46.16372" lon="5.32927">
        <ele>330.6</ele>
        <time>2022-06-18T06:16:00Z</time>
      </trkpt>
      <trkpt lat="46.16365" lon="5.32951">
        <ele>330.8</ele>
        <time>2022-06-18T06:16:03Z</time>
      </trkpt>
      <trkpt lat="46.16357" lon="5.32971">
        <ele>331.6</ele>
        <time>2022-06-18T06:16:06Z</time>
      </trkpt>
      <trkpt lat="46.16353" lon="5.32974">
        <ele>331.8</ele>
        <time>2022-06-18T06:16:07Z</time>
      </trkpt>
      <trkpt lat="46.16347" lon="5.32975">
        <ele>332</ele>
        <time>2022-06-18T06:16:08Z</time>
      </trkpt>
      <trkpt lat="46.16332" lon="5.32979">
        <ele>333</ele>
        <time>2022-06-18T06:16:11Z</time>
      </trkpt>
      <trkpt lat="46.16326" lon="5.32979">
        <ele>333.2</ele>
        <time>2022-06-18T06:16:12Z</time>
      </trkpt>
      <trkpt lat="46.16314" lon="5.32978">
        <ele>333.4</ele>
        <time>2022-06-18T06:16:14Z</time>
      </trkpt>
      <trkpt lat="46.16302" lon="5.32975">
        <ele>333.4</ele>
        <time>2022-06-18T06:16:16Z</time>
      </trkpt>
      <trkpt lat="46.1629" lon="5.32971">
        <ele>333</ele>
        <time>2022-06-18T06:16:18Z</time>
      </trkpt>
      <trkpt lat="46.16284" lon="5.32971">
        <ele>333</ele>
        <time>2022-06-18T06:16:19Z</time>
      </trkpt>
      <trkpt lat="46.1628" lon="5.32971">
        <ele>332.6</ele>
        <time>2022-06-18T06:16:20Z</time>
      </trkpt>
      <trkpt lat="46.16276" lon="5.3297">
        <ele>332</ele>
        <time>2022-06-18T06:16:22Z</time>
      </trkpt>
      <trkpt lat="46.16275" lon="5.32971">
        <ele>331.8</ele>
        <time>2022-06-18T06:16:23Z</time>
      </trkpt>
      <trkpt lat="46.16271" lon="5.32979">
        <ele>331.6</ele>
        <time>2022-06-18T06:16:25Z</time>
      </trkpt>
      <trkpt lat="46.16265" lon="5.33011">
        <ele>331.4</ele>
        <time>2022-06-18T06:16:30Z</time>
      </trkpt>
      <trkpt lat="46.16258" lon="5.33036">
        <ele>331</ele>
        <time>2022-06-18T06:16:33Z</time>
      </trkpt>
      <trkpt lat="46.16257" lon="5.33047">
        <ele>330.8</ele>
        <time>2022-06-18T06:16:34Z</time>
      </trkpt>
      <trkpt lat="46.16256" lon="5.33057">
        <ele>330.6</ele>
        <time>2022-06-18T06:16:35Z</time>
      </trkpt>
      <trkpt lat="46.16255" lon="5.33079">
        <ele>329.6</ele>
        <time>2022-06-18T06:16:37Z</time>
      </trkpt>
      <trkpt lat="46.16256" lon="5.33088">
        <ele>329</ele>
        <time>2022-06-18T06:16:38Z</time>
      </trkpt>
      <trkpt lat="46.16257" lon="5.331">
        <ele>328.4</ele>
        <time>2022-06-18T06:16:39Z</time>
      </trkpt>
      <trkpt lat="46.16257" lon="5.33109">
        <ele>328.2</ele>
        <time>2022-06-18T06:16:40Z</time>
      </trkpt>
      <trkpt lat="46.16257" lon="5.33118">
        <ele>327.6</ele>
        <time>2022-06-18T06:16:41Z</time>
      </trkpt>
      <trkpt lat="46.16256" lon="5.33137">
        <ele>327.2</ele>
        <time>2022-06-18T06:16:43Z</time>
      </trkpt>
      <trkpt lat="46.16255" lon="5.33147">
        <ele>327.2</ele>
        <time>2022-06-18T06:16:44Z</time>
      </trkpt>
      <trkpt lat="46.16253" lon="5.33156">
        <ele>327.2</ele>
        <time>2022-06-18T06:16:45Z</time>
      </trkpt>
      <trkpt lat="46.16244" lon="5.3317">
        <ele>327</ele>
        <time>2022-06-18T06:16:47Z</time>
      </trkpt>
      <trkpt lat="46.16238" lon="5.33176">
        <ele>327</ele>
        <time>2022-06-18T06:16:48Z</time>
      </trkpt>
      <trkpt lat="46.16226" lon="5.3319">
        <ele>327</ele>
        <time>2022-06-18T06:16:51Z</time>
      </trkpt>
      <trkpt lat="46.16221" lon="5.33201">
        <ele>327.6</ele>
        <time>2022-06-18T06:16:53Z</time>
      </trkpt>
      <trkpt lat="46.16218" lon="5.33211">
        <ele>328</ele>
        <time>2022-06-18T06:16:55Z</time>
      </trkpt>
      <trkpt lat="46.16215" lon="5.33222">
        <ele>328.6</ele>
        <time>2022-06-18T06:16:57Z</time>
      </trkpt>
      <trkpt lat="46.16213" lon="5.33227">
        <ele>329</ele>
        <time>2022-06-18T06:16:58Z</time>
      </trkpt>
      <trkpt lat="46.16208" lon="5.33242">
        <ele>330</ele>
        <time>2022-06-18T06:17:01Z</time>
      </trkpt>
      <trkpt lat="46.16204" lon="5.33256">
        <ele>331.2</ele>
        <time>2022-06-18T06:17:04Z</time>
      </trkpt>
      <trkpt lat="46.16201" lon="5.33278">
        <ele>332.4</ele>
        <time>2022-06-18T06:17:09Z</time>
      </trkpt>
      <trkpt lat="46.16199" lon="5.33299">
        <ele>333.6</ele>
        <time>2022-06-18T06:17:13Z</time>
      </trkpt>
      <trkpt lat="46.162" lon="5.3331">
        <ele>334.2</ele>
        <time>2022-06-18T06:17:15Z</time>
      </trkpt>
      <trkpt lat="46.162" lon="5.33316">
        <ele>334.6</ele>
        <time>2022-06-18T06:17:16Z</time>
      </trkpt>
      <trkpt lat="46.16199" lon="5.3334">
        <ele>335.8</ele>
        <time>2022-06-18T06:17:20Z</time>
      </trkpt>
      <trkpt lat="46.16197" lon="5.33347">
        <ele>335.8</ele>
        <time>2022-06-18T06:17:21Z</time>
      </trkpt>
      <trkpt lat="46.16192" lon="5.3336">
        <ele>336.2</ele>
        <time>2022-06-18T06:17:23Z</time>
      </trkpt>
      <trkpt lat="46.16188" lon="5.33372">
        <ele>336.8</ele>
        <time>2022-06-18T06:17:25Z</time>
      </trkpt>
      <trkpt lat="46.16189" lon="5.33395">
        <ele>337.6</ele>
        <time>2022-06-18T06:17:29Z</time>
      </trkpt>
      <trkpt lat="46.16189" lon="5.33406">
        <ele>338</ele>
        <time>2022-06-18T06:17:31Z</time>
      </trkpt>
      <trkpt lat="46.16187" lon="5.33424">
        <ele>339.2</ele>
        <time>2022-06-18T06:17:35Z</time>
      </trkpt>
      <trkpt lat="46.16186" lon="5.33439">
        <ele>340</ele>
        <time>2022-06-18T06:17:38Z</time>
      </trkpt>
      <trkpt lat="46.16185" lon="5.33449">
        <ele>340.4</ele>
        <time>2022-06-18T06:17:40Z</time>
      </trkpt>
      <trkpt lat="46.16183" lon="5.33469">
        <ele>341.4</ele>
        <time>2022-06-18T06:17:44Z</time>
      </trkpt>
      <trkpt lat="46.16183" lon="5.33473">
        <ele>341.8</ele>
        <time>2022-06-18T06:17:45Z</time>
      </trkpt>
      <trkpt lat="46.16181" lon="5.33488">
        <ele>342.6</ele>
        <time>2022-06-18T06:17:48Z</time>
      </trkpt>
      <trkpt lat="46.16178" lon="5.33511">
        <ele>343.6</ele>
        <time>2022-06-18T06:17:53Z</time>
      </trkpt>
      <trkpt lat="46.16176" lon="5.33524">
        <ele>344.8</ele>
        <time>2022-06-18T06:17:56Z</time>
      </trkpt>
      <trkpt lat="46.16169" lon="5.33548">
        <ele>346</ele>
        <time>2022-06-18T06:18:02Z</time>
      </trkpt>
      <trkpt lat="46.16168" lon="5.33553">
        <ele>346.2</ele>
        <time>2022-06-18T06:18:03Z</time>
      </trkpt>
      <trkpt lat="46.16165" lon="5.33566">
        <ele>347</ele>
        <time>2022-06-18T06:18:06Z</time>
      </trkpt>
      <trkpt lat="46.16163" lon="5.33583">
        <ele>348</ele>
        <time>2022-06-18T06:18:10Z</time>
      </trkpt>
      <trkpt lat="46.16162" lon="5.33595">
        <ele>349</ele>
        <time>2022-06-18T06:18:13Z</time>
      </trkpt>
      <trkpt lat="46.16162" lon="5.336">
        <ele>349.2</ele>
        <time>2022-06-18T06:18:14Z</time>
      </trkpt>
      <trkpt lat="46.16161" lon="5.33612">
        <ele>350.4</ele>
        <time>2022-06-18T06:18:17Z</time>
      </trkpt>
      <trkpt lat="46.1616" lon="5.33627">
        <ele>351.4</ele>
        <time>2022-06-18T06:18:21Z</time>
      </trkpt>
      <trkpt lat="46.1616" lon="5.3363">
        <ele>351.6</ele>
        <time>2022-06-18T06:18:22Z</time>
      </trkpt>
      <trkpt lat="46.16161" lon="5.33652">
        <ele>352.8</ele>
        <time>2022-06-18T06:18:27Z</time>
      </trkpt>
      <trkpt lat="46.16162" lon="5.33665">
        <ele>353.2</ele>
        <time>2022-06-18T06:18:30Z</time>
      </trkpt>
      <trkpt lat="46.16163" lon="5.33674">
        <ele>354</ele>
        <time>2022-06-18T06:18:32Z</time>
      </trkpt>
      <trkpt lat="46.16166" lon="5.33696">
        <ele>354.8</ele>
        <time>2022-06-18T06:18:37Z</time>
      </trkpt>
      <trkpt lat="46.16167" lon="5.337">
        <ele>355.2</ele>
        <time>2022-06-18T06:18:38Z</time>
      </trkpt>
      <trkpt lat="46.16169" lon="5.33723">
        <ele>356.2</ele>
        <time>2022-06-18T06:18:43Z</time>
      </trkpt>
      <trkpt lat="46.1617" lon="5.33732">
        <ele>356.6</ele>
        <time>2022-06-18T06:18:45Z</time>
      </trkpt>
      <trkpt lat="46.16172" lon="5.33745">
        <ele>357.4</ele>
        <time>2022-06-18T06:18:48Z</time>
      </trkpt>
      <trkpt lat="46.16173" lon="5.33758">
        <ele>358.2</ele>
        <time>2022-06-18T06:18:51Z</time>
      </trkpt>
      <trkpt lat="46.16174" lon="5.33763">
        <ele>358.6</ele>
        <time>2022-06-18T06:18:52Z</time>
      </trkpt>
      <trkpt lat="46.16176" lon="5.3378">
        <ele>359.8</ele>
        <time>2022-06-18T06:18:56Z</time>
      </trkpt>
      <trkpt lat="46.16178" lon="5.3379">
        <ele>360</ele>
        <time>2022-06-18T06:18:58Z</time>
      </trkpt>
      <trkpt lat="46.16181" lon="5.33807">
        <ele>361</ele>
        <time>2022-06-18T06:19:02Z</time>
      </trkpt>
      <trkpt lat="46.16182" lon="5.33811">
        <ele>361</ele>
        <time>2022-06-18T06:19:03Z</time>
      </trkpt>
      <trkpt lat="46.16181" lon="5.33832">
        <ele>362.2</ele>
        <time>2022-06-18T06:19:08Z</time>
      </trkpt>
      <trkpt lat="46.16181" lon="5.33837">
        <ele>362.4</ele>
        <time>2022-06-18T06:19:09Z</time>
      </trkpt>
      <trkpt lat="46.16181" lon="5.33857">
        <ele>363.6</ele>
        <time>2022-06-18T06:19:13Z</time>
      </trkpt>
      <trkpt lat="46.16179" lon="5.33881">
        <ele>364.8</ele>
        <time>2022-06-18T06:19:18Z</time>
      </trkpt>
      <trkpt lat="46.16179" lon="5.33885">
        <ele>365</ele>
        <time>2022-06-18T06:19:19Z</time>
      </trkpt>
      <trkpt lat="46.16178" lon="5.33899">
        <ele>365.8</ele>
        <time>2022-06-18T06:19:22Z</time>
      </trkpt>
      <trkpt lat="46.16177" lon="5.33917">
        <ele>367</ele>
        <time>2022-06-18T06:19:26Z</time>
      </trkpt>
      <trkpt lat="46.16176" lon="5.33921">
        <ele>367.4</ele>
        <time>2022-06-18T06:19:27Z</time>
      </trkpt>
      <trkpt lat="46.16173" lon="5.33929">
        <ele>368</ele>
        <time>2022-06-18T06:19:29Z</time>
      </trkpt>
      <trkpt lat="46.16168" lon="5.33947">
        <ele>369.2</ele>
        <time>2022-06-18T06:19:34Z</time>
      </trkpt>
      <trkpt lat="46.16164" lon="5.33963">
        <ele>370</ele>
        <time>2022-06-18T06:19:38Z</time>
      </trkpt>
      <trkpt lat="46.16163" lon="5.33965">
        <ele>370.2</ele>
        <time>2022-06-18T06:19:39Z</time>
      </trkpt>
      <trkpt lat="46.16158" lon="5.3398">
        <ele>371.2</ele>
        <time>2022-06-18T06:19:43Z</time>
      </trkpt>
      <trkpt lat="46.16153" lon="5.33997">
        <ele>372.2</ele>
        <time>2022-06-18T06:19:48Z</time>
      </trkpt>
      <trkpt lat="46.16146" lon="5.34021">
        <ele>373.4</ele>
        <time>2022-06-18T06:19:54Z</time>
      </trkpt>
      <trkpt lat="46.16143" lon="5.34032">
        <ele>374.4</ele>
        <time>2022-06-18T06:19:57Z</time>
      </trkpt>
      <trkpt lat="46.16139" lon="5.34044">
        <ele>375</ele>
        <time>2022-06-18T06:20:00Z</time>
      </trkpt>
      <trkpt lat="46.16136" lon="5.34056">
        <ele>375.8</ele>
        <time>2022-06-18T06:20:03Z</time>
      </trkpt>
      <trkpt lat="46.1613" lon="5.34075">
        <ele>376.8</ele>
        <time>2022-06-18T06:20:08Z</time>
      </trkpt>
      <trkpt lat="46.16126" lon="5.3409">
        <ele>377.8</ele>
        <time>2022-06-18T06:20:12Z</time>
      </trkpt>
      <trkpt lat="46.16122" lon="5.34104">
        <ele>378.8</ele>
        <time>2022-06-18T06:20:16Z</time>
      </trkpt>
      <trkpt lat="46.16118" lon="5.3412">
        <ele>380</ele>
        <time>2022-06-18T06:20:20Z</time>
      </trkpt>
      <trkpt lat="46.16116" lon="5.34141">
        <ele>381</ele>
        <time>2022-06-18T06:20:25Z</time>
      </trkpt>
      <trkpt lat="46.16116" lon="5.34159">
        <ele>381.6</ele>
        <time>2022-06-18T06:20:29Z</time>
      </trkpt>
      <trkpt lat="46.16115" lon="5.34172">
        <ele>381.8</ele>
        <time>2022-06-18T06:20:32Z</time>
      </trkpt>
      <trkpt lat="46.16114" lon="5.34191">
        <ele>383.2</ele>
        <time>2022-06-18T06:20:36Z</time>
      </trkpt>
      <trkpt lat="46.16114" lon="5.3421">
        <ele>384.4</ele>
        <time>2022-06-18T06:20:40Z</time>
      </trkpt>
      <trkpt lat="46.16115" lon="5.3422">
        <ele>384.8</ele>
        <time>2022-06-18T06:20:42Z</time>
      </trkpt>
      <trkpt lat="46.16116" lon="5.34239">
        <ele>385.4</ele>
        <time>2022-06-18T06:20:45Z</time>
      </trkpt>
      <trkpt lat="46.16115" lon="5.34256">
        <ele>386.2</ele>
        <time>2022-06-18T06:20:48Z</time>
      </trkpt>
      <trkpt lat="46.16115" lon="5.34269">
        <ele>386.6</ele>
        <time>2022-06-18T06:20:50Z</time>
      </trkpt>
      <trkpt lat="46.16113" lon="5.34295">
        <ele>387.4</ele>
        <time>2022-06-18T06:20:54Z</time>
      </trkpt>
      <trkpt lat="46.16113" lon="5.34302">
        <ele>387.6</ele>
        <time>2022-06-18T06:20:55Z</time>
      </trkpt>
      <trkpt lat="46.16109" lon="5.34348">
        <ele>388.6</ele>
        <time>2022-06-18T06:21:02Z</time>
      </trkpt>
      <trkpt lat="46.16104" lon="5.34399">
        <ele>389</ele>
        <time>2022-06-18T06:21:09Z</time>
      </trkpt>
      <trkpt lat="46.161" lon="5.34451">
        <ele>388.8</ele>
        <time>2022-06-18T06:21:14Z</time>
      </trkpt>
      <trkpt lat="46.16099" lon="5.34485">
        <ele>387.6</ele>
        <time>2022-06-18T06:21:17Z</time>
      </trkpt>
      <trkpt lat="46.16099" lon="5.34508">
        <ele>386.4</ele>
        <time>2022-06-18T06:21:19Z</time>
      </trkpt>
      <trkpt lat="46.161" lon="5.3453">
        <ele>385.6</ele>
        <time>2022-06-18T06:21:21Z</time>
      </trkpt>
      <trkpt lat="46.16099" lon="5.34552">
        <ele>385.2</ele>
        <time>2022-06-18T06:21:23Z</time>
      </trkpt>
      <trkpt lat="46.16097" lon="5.34563">
        <ele>385.2</ele>
        <time>2022-06-18T06:21:24Z</time>
      </trkpt>
      <trkpt lat="46.16094" lon="5.34573">
        <ele>385.2</ele>
        <time>2022-06-18T06:21:25Z</time>
      </trkpt>
      <trkpt lat="46.16076" lon="5.34629">
        <ele>385.2</ele>
        <time>2022-06-18T06:21:31Z</time>
      </trkpt>
      <trkpt lat="46.16045" lon="5.34693">
        <ele>386.2</ele>
        <time>2022-06-18T06:21:39Z</time>
      </trkpt>
      <trkpt lat="46.16014" lon="5.34751">
        <ele>387</ele>
        <time>2022-06-18T06:21:47Z</time>
      </trkpt>
      <trkpt lat="46.16009" lon="5.34763">
        <ele>387.4</ele>
        <time>2022-06-18T06:21:49Z</time>
      </trkpt>
      <trkpt lat="46.15999" lon="5.34786">
        <ele>388.2</ele>
        <time>2022-06-18T06:21:52Z</time>
      </trkpt>
      <trkpt lat="46.15996" lon="5.34793">
        <ele>388.4</ele>
        <time>2022-06-18T06:21:53Z</time>
      </trkpt>
      <trkpt lat="46.15994" lon="5.34799">
        <ele>388.6</ele>
        <time>2022-06-18T06:21:54Z</time>
      </trkpt>
      <trkpt lat="46.15986" lon="5.34824">
        <ele>389.6</ele>
        <time>2022-06-18T06:21:57Z</time>
      </trkpt>
      <trkpt lat="46.15974" lon="5.34868">
        <ele>389.8</ele>
        <time>2022-06-18T06:22:02Z</time>
      </trkpt>
      <trkpt lat="46.15957" lon="5.34938">
        <ele>388.8</ele>
        <time>2022-06-18T06:22:09Z</time>
      </trkpt>
      <trkpt lat="46.15952" lon="5.3496">
        <ele>388.6</ele>
        <time>2022-06-18T06:22:11Z</time>
      </trkpt>
      <trkpt lat="46.15937" lon="5.35029">
        <ele>387.2</ele>
        <time>2022-06-18T06:22:17Z</time>
      </trkpt>
      <trkpt lat="46.15925" lon="5.35078">
        <ele>386.2</ele>
        <time>2022-06-18T06:22:22Z</time>
      </trkpt>
      <trkpt lat="46.15922" lon="5.35088">
        <ele>386</ele>
        <time>2022-06-18T06:22:23Z</time>
      </trkpt>
      <trkpt lat="46.15916" lon="5.35108">
        <ele>385.6</ele>
        <time>2022-06-18T06:22:25Z</time>
      </trkpt>
      <trkpt lat="46.15909" lon="5.35126">
        <ele>385.4</ele>
        <time>2022-06-18T06:22:27Z</time>
      </trkpt>
      <trkpt lat="46.15905" lon="5.35134">
        <ele>385.4</ele>
        <time>2022-06-18T06:22:28Z</time>
      </trkpt>
      <trkpt lat="46.159" lon="5.35141">
        <ele>385.2</ele>
        <time>2022-06-18T06:22:29Z</time>
      </trkpt>
      <trkpt lat="46.1589" lon="5.35155">
        <ele>385.2</ele>
        <time>2022-06-18T06:22:31Z</time>
      </trkpt>
      <trkpt lat="46.15884" lon="5.35162">
        <ele>385.2</ele>
        <time>2022-06-18T06:22:32Z</time>
      </trkpt>
      <trkpt lat="46.15879" lon="5.35166">
        <ele>385.2</ele>
        <time>2022-06-18T06:22:33Z</time>
      </trkpt>
      <trkpt lat="46.15865" lon="5.35175">
        <ele>385</ele>
        <time>2022-06-18T06:22:35Z</time>
      </trkpt>
      <trkpt lat="46.15838" lon="5.35187">
        <ele>385</ele>
        <time>2022-06-18T06:22:39Z</time>
      </trkpt>
      <trkpt lat="46.15802" lon="5.35205">
        <ele>385.8</ele>
        <time>2022-06-18T06:22:45Z</time>
      </trkpt>
      <trkpt lat="46.15786" lon="5.35212">
        <ele>386.4</ele>
        <time>2022-06-18T06:22:48Z</time>
      </trkpt>
      <trkpt lat="46.15777" lon="5.35217">
        <ele>387.4</ele>
        <time>2022-06-18T06:22:50Z</time>
      </trkpt>
      <trkpt lat="46.15772" lon="5.35219">
        <ele>387.6</ele>
        <time>2022-06-18T06:22:51Z</time>
      </trkpt>
      <trkpt lat="46.15768" lon="5.35222">
        <ele>388.2</ele>
        <time>2022-06-18T06:22:52Z</time>
      </trkpt>
      <trkpt lat="46.15759" lon="5.3523">
        <ele>388.8</ele>
        <time>2022-06-18T06:22:54Z</time>
      </trkpt>
      <trkpt lat="46.15751" lon="5.35238">
        <ele>389.2</ele>
        <time>2022-06-18T06:22:56Z</time>
      </trkpt>
      <trkpt lat="46.15739" lon="5.35252">
        <ele>390</ele>
        <time>2022-06-18T06:22:59Z</time>
      </trkpt>
      <trkpt lat="46.15725" lon="5.3527">
        <ele>391.2</ele>
        <time>2022-06-18T06:23:03Z</time>
      </trkpt>
      <trkpt lat="46.15715" lon="5.35286">
        <ele>392</ele>
        <time>2022-06-18T06:23:06Z</time>
      </trkpt>
      <trkpt lat="46.15712" lon="5.35292">
        <ele>392.2</ele>
        <time>2022-06-18T06:23:07Z</time>
      </trkpt>
      <trkpt lat="46.15707" lon="5.35303">
        <ele>392.6</ele>
        <time>2022-06-18T06:23:09Z</time>
      </trkpt>
      <trkpt lat="46.15702" lon="5.35313">
        <ele>393.4</ele>
        <time>2022-06-18T06:23:11Z</time>
      </trkpt>
      <trkpt lat="46.15691" lon="5.35335">
        <ele>394.4</ele>
        <time>2022-06-18T06:23:15Z</time>
      </trkpt>
      <trkpt lat="46.15687" lon="5.35343">
        <ele>395.4</ele>
        <time>2022-06-18T06:23:17Z</time>
      </trkpt>
      <trkpt lat="46.15685" lon="5.35347">
        <ele>395.8</ele>
        <time>2022-06-18T06:23:18Z</time>
      </trkpt>
      <trkpt lat="46.15677" lon="5.35361">
        <ele>396.8</ele>
        <time>2022-06-18T06:23:21Z</time>
      </trkpt>
      <trkpt lat="46.15673" lon="5.35368">
        <ele>397.4</ele>
        <time>2022-06-18T06:23:23Z</time>
      </trkpt>
      <trkpt lat="46.1567" lon="5.35372">
        <ele>397.8</ele>
        <time>2022-06-18T06:23:24Z</time>
      </trkpt>
      <trkpt lat="46.15668" lon="5.35377">
        <ele>398</ele>
        <time>2022-06-18T06:23:25Z</time>
      </trkpt>
      <trkpt lat="46.1566" lon="5.35393">
        <ele>399.2</ele>
        <time>2022-06-18T06:23:29Z</time>
      </trkpt>
      <trkpt lat="46.15651" lon="5.3541">
        <ele>400.4</ele>
        <time>2022-06-18T06:23:33Z</time>
      </trkpt>
      <trkpt lat="46.15643" lon="5.3542">
        <ele>401.6</ele>
        <time>2022-06-18T06:23:36Z</time>
      </trkpt>
      <trkpt lat="46.15631" lon="5.35435">
        <ele>402.6</ele>
        <time>2022-06-18T06:23:40Z</time>
      </trkpt>
      <trkpt lat="46.15629" lon="5.35438">
        <ele>403</ele>
        <time>2022-06-18T06:23:41Z</time>
      </trkpt>
      <trkpt lat="46.15618" lon="5.35453">
        <ele>403.8</ele>
        <time>2022-06-18T06:23:45Z</time>
      </trkpt>
      <trkpt lat="46.15613" lon="5.35458">
        <ele>404.4</ele>
        <time>2022-06-18T06:23:47Z</time>
      </trkpt>
      <trkpt lat="46.15607" lon="5.35466">
        <ele>405</ele>
        <time>2022-06-18T06:23:49Z</time>
      </trkpt>
      <trkpt lat="46.15595" lon="5.35482">
        <ele>406.2</ele>
        <time>2022-06-18T06:23:54Z</time>
      </trkpt>
      <trkpt lat="46.15592" lon="5.35486">
        <ele>406.4</ele>
        <time>2022-06-18T06:23:55Z</time>
      </trkpt>
      <trkpt lat="46.15582" lon="5.355">
        <ele>407.4</ele>
        <time>2022-06-18T06:23:59Z</time>
      </trkpt>
      <trkpt lat="46.15572" lon="5.35517">
        <ele>408.6</ele>
        <time>2022-06-18T06:24:03Z</time>
      </trkpt>
      <trkpt lat="46.15561" lon="5.35541">
        <ele>409.8</ele>
        <time>2022-06-18T06:24:08Z</time>
      </trkpt>
      <trkpt lat="46.15558" lon="5.35547">
        <ele>410</ele>
        <time>2022-06-18T06:24:09Z</time>
      </trkpt>
      <trkpt lat="46.15548" lon="5.35582">
        <ele>410.8</ele>
        <time>2022-06-18T06:24:14Z</time>
      </trkpt>
      <trkpt lat="46.15548" lon="5.35597">
        <ele>411</ele>
        <time>2022-06-18T06:24:16Z</time>
      </trkpt>
      <trkpt lat="46.1555" lon="5.35614">
        <ele>411.2</ele>
        <time>2022-06-18T06:24:18Z</time>
      </trkpt>
      <trkpt lat="46.15556" lon="5.35646">
        <ele>411.6</ele>
        <time>2022-06-18T06:24:22Z</time>
      </trkpt>
      <trkpt lat="46.15558" lon="5.35663">
        <ele>411.6</ele>
        <time>2022-06-18T06:24:23Z</time>
      </trkpt>
      <trkpt lat="46.15558" lon="5.35663">
        <ele>411.8</ele>
        <time>2022-06-18T06:24:24Z</time>
      </trkpt>
      <trkpt lat="46.15558" lon="5.35669">
        <ele>411.8</ele>
        <time>2022-06-18T06:24:25Z</time>
      </trkpt>
      <trkpt lat="46.15555" lon="5.35693">
        <ele>412</ele>
        <time>2022-06-18T06:24:28Z</time>
      </trkpt>
      <trkpt lat="46.15548" lon="5.35722">
        <ele>412</ele>
        <time>2022-06-18T06:24:32Z</time>
      </trkpt>
      <trkpt lat="46.15543" lon="5.35748">
        <ele>412.6</ele>
        <time>2022-06-18T06:24:35Z</time>
      </trkpt>
      <trkpt lat="46.15541" lon="5.35757">
        <ele>412.6</ele>
        <time>2022-06-18T06:24:36Z</time>
      </trkpt>
      <trkpt lat="46.15526" lon="5.35815">
        <ele>412</ele>
        <time>2022-06-18T06:24:41Z</time>
      </trkpt>
      <trkpt lat="46.15524" lon="5.35825">
        <ele>411.8</ele>
        <time>2022-06-18T06:24:43Z</time>
      </trkpt>
      <trkpt lat="46.15522" lon="5.35836">
        <ele>411.6</ele>
        <time>2022-06-18T06:24:44Z</time>
      </trkpt>
      <trkpt lat="46.15516" lon="5.35855">
        <ele>411.6</ele>
        <time>2022-06-18T06:24:46Z</time>
      </trkpt>
      <trkpt lat="46.15501" lon="5.35876">
        <ele>411</ele>
        <time>2022-06-18T06:24:48Z</time>
      </trkpt>
      <trkpt lat="46.15493" lon="5.3588">
        <ele>410.4</ele>
        <time>2022-06-18T06:24:50Z</time>
      </trkpt>
      <trkpt lat="46.1546" lon="5.35899">
        <ele>410</ele>
        <time>2022-06-18T06:24:53Z</time>
      </trkpt>
      <trkpt lat="46.1543" lon="5.35915">
        <ele>408.8</ele>
        <time>2022-06-18T06:24:56Z</time>
      </trkpt>
      <trkpt lat="46.1542" lon="5.35921">
        <ele>407.2</ele>
        <time>2022-06-18T06:24:58Z</time>
      </trkpt>
      <trkpt lat="46.154" lon="5.35929">
        <ele>406</ele>
        <time>2022-06-18T06:24:59Z</time>
      </trkpt>
      <trkpt lat="46.15389" lon="5.35933">
        <ele>405</ele>
        <time>2022-06-18T06:25:01Z</time>
      </trkpt>
      <trkpt lat="46.15356" lon="5.35942">
        <ele>403.6</ele>
        <time>2022-06-18T06:25:03Z</time>
      </trkpt>
      <trkpt lat="46.15345" lon="5.35942">
        <ele>403.2</ele>
        <time>2022-06-18T06:25:04Z</time>
      </trkpt>
      <trkpt lat="46.15321" lon="5.35938">
        <ele>402</ele>
        <time>2022-06-18T06:25:06Z</time>
      </trkpt>
      <trkpt lat="46.15309" lon="5.35935">
        <ele>400.6</ele>
        <time>2022-06-18T06:25:08Z</time>
      </trkpt>
      <trkpt lat="46.15285" lon="5.3593">
        <ele>399.2</ele>
        <time>2022-06-18T06:25:10Z</time>
      </trkpt>
      <trkpt lat="46.15246" lon="5.35921">
        <ele>397.2</ele>
        <time>2022-06-18T06:25:12Z</time>
      </trkpt>
      <trkpt lat="46.15221" lon="5.35916">
        <ele>395.8</ele>
        <time>2022-06-18T06:25:14Z</time>
      </trkpt>
      <trkpt lat="46.15211" lon="5.35914">
        <ele>394.6</ele>
        <time>2022-06-18T06:25:15Z</time>
      </trkpt>
      <trkpt lat="46.15184" lon="5.35907">
        <ele>393.2</ele>
        <time>2022-06-18T06:25:17Z</time>
      </trkpt>
      <trkpt lat="46.15162" lon="5.35902">
        <ele>391.8</ele>
        <time>2022-06-18T06:25:19Z</time>
      </trkpt>
      <trkpt lat="46.1515" lon="5.35899">
        <ele>390.8</ele>
        <time>2022-06-18T06:25:20Z</time>
      </trkpt>
      <trkpt lat="46.15125" lon="5.35893">
        <ele>389.4</ele>
        <time>2022-06-18T06:25:22Z</time>
      </trkpt>
      <trkpt lat="46.15101" lon="5.35888">
        <ele>388.4</ele>
        <time>2022-06-18T06:25:24Z</time>
      </trkpt>
      <trkpt lat="46.15101" lon="5.35888">
        <ele>388</ele>
        <time>2022-06-18T06:25:25Z</time>
      </trkpt>
      <trkpt lat="46.15076" lon="5.35884">
        <ele>387.2</ele>
        <time>2022-06-18T06:25:26Z</time>
      </trkpt>
      <trkpt lat="46.15051" lon="5.35881">
        <ele>386</ele>
        <time>2022-06-18T06:25:28Z</time>
      </trkpt>
      <trkpt lat="46.15025" lon="5.35881">
        <ele>384.8</ele>
        <time>2022-06-18T06:25:30Z</time>
      </trkpt>
      <trkpt lat="46.14992" lon="5.35883">
        <ele>383</ele>
        <time>2022-06-18T06:25:33Z</time>
      </trkpt>
      <trkpt lat="46.14957" lon="5.35886">
        <ele>381.8</ele>
        <time>2022-06-18T06:25:36Z</time>
      </trkpt>
      <trkpt lat="46.14946" lon="5.35887">
        <ele>381.2</ele>
        <time>2022-06-18T06:25:38Z</time>
      </trkpt>
      <trkpt lat="46.14901" lon="5.35891">
        <ele>380.8</ele>
        <time>2022-06-18T06:25:41Z</time>
      </trkpt>
      <trkpt lat="46.14859" lon="5.35894">
        <ele>379.4</ele>
        <time>2022-06-18T06:25:45Z</time>
      </trkpt>
      <trkpt lat="46.14849" lon="5.35895">
        <ele>379</ele>
        <time>2022-06-18T06:25:46Z</time>
      </trkpt>
      <trkpt lat="46.14827" lon="5.35897">
        <ele>378.2</ele>
        <time>2022-06-18T06:25:49Z</time>
      </trkpt>
      <trkpt lat="46.14772" lon="5.35901">
        <ele>377.2</ele>
        <time>2022-06-18T06:25:53Z</time>
      </trkpt>
      <trkpt lat="46.14772" lon="5.35901">
        <ele>376.8</ele>
        <time>2022-06-18T06:25:54Z</time>
      </trkpt>
      <trkpt lat="46.1475" lon="5.35898">
        <ele>376.6</ele>
        <time>2022-06-18T06:25:55Z</time>
      </trkpt>
      <trkpt lat="46.14739" lon="5.35894">
        <ele>375.6</ele>
        <time>2022-06-18T06:25:57Z</time>
      </trkpt>
      <trkpt lat="46.14718" lon="5.35886">
        <ele>373.6</ele>
        <time>2022-06-18T06:25:59Z</time>
      </trkpt>
      <trkpt lat="46.14687" lon="5.35872">
        <ele>372.8</ele>
        <time>2022-06-18T06:26:01Z</time>
      </trkpt>
      <trkpt lat="46.14666" lon="5.35863">
        <ele>371.8</ele>
        <time>2022-06-18T06:26:03Z</time>
      </trkpt>
      <trkpt lat="46.14623" lon="5.35842">
        <ele>370.6</ele>
        <time>2022-06-18T06:26:07Z</time>
      </trkpt>
      <trkpt lat="46.146" lon="5.35827">
        <ele>369.2</ele>
        <time>2022-06-18T06:26:09Z</time>
      </trkpt>
      <trkpt lat="46.146" lon="5.35827">
        <ele>368</ele>
        <time>2022-06-18T06:26:10Z</time>
      </trkpt>
      <trkpt lat="46.14552" lon="5.35793">
        <ele>366.4</ele>
        <time>2022-06-18T06:26:13Z</time>
      </trkpt>
      <trkpt lat="46.14531" lon="5.35779">
        <ele>364.2</ele>
        <time>2022-06-18T06:26:15Z</time>
      </trkpt>
      <trkpt lat="46.14506" lon="5.35766">
        <ele>362.2</ele>
        <time>2022-06-18T06:26:17Z</time>
      </trkpt>
      <trkpt lat="46.14481" lon="5.35759">
        <ele>360.6</ele>
        <time>2022-06-18T06:26:19Z</time>
      </trkpt>
      <trkpt lat="46.1447" lon="5.35757">
        <ele>359</ele>
        <time>2022-06-18T06:26:20Z</time>
      </trkpt>
      <trkpt lat="46.14448" lon="5.35755">
        <ele>357.2</ele>
        <time>2022-06-18T06:26:22Z</time>
      </trkpt>
      <trkpt lat="46.14437" lon="5.35755">
        <ele>356.8</ele>
        <time>2022-06-18T06:26:23Z</time>
      </trkpt>
      <trkpt lat="46.14427" lon="5.35757">
        <ele>356</ele>
        <time>2022-06-18T06:26:24Z</time>
      </trkpt>
      <trkpt lat="46.14406" lon="5.35765">
        <ele>354.8</ele>
        <time>2022-06-18T06:26:26Z</time>
      </trkpt>
      <trkpt lat="46.14375" lon="5.35779">
        <ele>353.4</ele>
        <time>2022-06-18T06:26:29Z</time>
      </trkpt>
      <trkpt lat="46.1435" lon="5.35788">
        <ele>351.6</ele>
        <time>2022-06-18T06:26:31Z</time>
      </trkpt>
      <trkpt lat="46.1433" lon="5.35795">
        <ele>349.6</ele>
        <time>2022-06-18T06:26:33Z</time>
      </trkpt>
      <trkpt lat="46.1431" lon="5.35803">
        <ele>348.4</ele>
        <time>2022-06-18T06:26:35Z</time>
      </trkpt>
      <trkpt lat="46.14299" lon="5.35805">
        <ele>347.2</ele>
        <time>2022-06-18T06:26:36Z</time>
      </trkpt>
      <trkpt lat="46.14299" lon="5.35805">
        <ele>346.8</ele>
        <time>2022-06-18T06:26:37Z</time>
      </trkpt>
      <trkpt lat="46.14281" lon="5.35802">
        <ele>345</ele>
        <time>2022-06-18T06:26:38Z</time>
      </trkpt>
      <trkpt lat="46.14266" lon="5.35801">
        <ele>343.8</ele>
        <time>2022-06-18T06:26:40Z</time>
      </trkpt>
      <trkpt lat="46.14254" lon="5.35809">
        <ele>342.4</ele>
        <time>2022-06-18T06:26:42Z</time>
      </trkpt>
      <trkpt lat="46.14253" lon="5.35818">
        <ele>342</ele>
        <time>2022-06-18T06:26:43Z</time>
      </trkpt>
      <trkpt lat="46.14255" lon="5.35844">
        <ele>341.2</ele>
        <time>2022-06-18T06:26:45Z</time>
      </trkpt>
      <trkpt lat="46.14255" lon="5.35859">
        <ele>340.8</ele>
        <time>2022-06-18T06:26:46Z</time>
      </trkpt>
      <trkpt lat="46.14252" lon="5.35891">
        <ele>340</ele>
        <time>2022-06-18T06:26:48Z</time>
      </trkpt>
      <trkpt lat="46.14248" lon="5.35925">
        <ele>338.4</ele>
        <time>2022-06-18T06:26:50Z</time>
      </trkpt>
      <trkpt lat="46.14246" lon="5.35941">
        <ele>337.6</ele>
        <time>2022-06-18T06:26:51Z</time>
      </trkpt>
      <trkpt lat="46.14243" lon="5.35958">
        <ele>336.4</ele>
        <time>2022-06-18T06:26:52Z</time>
      </trkpt>
      <trkpt lat="46.14242" lon="5.35974">
        <ele>334.4</ele>
        <time>2022-06-18T06:26:54Z</time>
      </trkpt>
      <trkpt lat="46.1424" lon="5.36008">
        <ele>333.6</ele>
        <time>2022-06-18T06:26:55Z</time>
      </trkpt>
      <trkpt lat="46.14241" lon="5.36025">
        <ele>332.6</ele>
        <time>2022-06-18T06:26:56Z</time>
      </trkpt>
      <trkpt lat="46.14242" lon="5.36041">
        <ele>331.4</ele>
        <time>2022-06-18T06:26:58Z</time>
      </trkpt>
      <trkpt lat="46.14243" lon="5.36074">
        <ele>330.8</ele>
        <time>2022-06-18T06:26:59Z</time>
      </trkpt>
      <trkpt lat="46.14241" lon="5.36106">
        <ele>330.2</ele>
        <time>2022-06-18T06:27:01Z</time>
      </trkpt>
      <trkpt lat="46.14235" lon="5.36139">
        <ele>329.6</ele>
        <time>2022-06-18T06:27:03Z</time>
      </trkpt>
      <trkpt lat="46.14227" lon="5.36171">
        <ele>329.2</ele>
        <time>2022-06-18T06:27:05Z</time>
      </trkpt>
      <trkpt lat="46.14224" lon="5.36187">
        <ele>328.2</ele>
        <time>2022-06-18T06:27:06Z</time>
      </trkpt>
      <trkpt lat="46.14218" lon="5.36219">
        <ele>327</ele>
        <time>2022-06-18T06:27:08Z</time>
      </trkpt>
      <trkpt lat="46.14213" lon="5.36251">
        <ele>325.6</ele>
        <time>2022-06-18T06:27:10Z</time>
      </trkpt>
      <trkpt lat="46.14211" lon="5.36267">
        <ele>325.2</ele>
        <time>2022-06-18T06:27:11Z</time>
      </trkpt>
      <trkpt lat="46.14207" lon="5.36298">
        <ele>324.2</ele>
        <time>2022-06-18T06:27:13Z</time>
      </trkpt>
      <trkpt lat="46.14204" lon="5.36345">
        <ele>323</ele>
        <time>2022-06-18T06:27:16Z</time>
      </trkpt>
      <trkpt lat="46.14203" lon="5.36361">
        <ele>322.8</ele>
        <time>2022-06-18T06:27:17Z</time>
      </trkpt>
      <trkpt lat="46.14201" lon="5.36392">
        <ele>322</ele>
        <time>2022-06-18T06:27:19Z</time>
      </trkpt>
      <trkpt lat="46.14203" lon="5.36438">
        <ele>321.4</ele>
        <time>2022-06-18T06:27:22Z</time>
      </trkpt>
      <trkpt lat="46.14203" lon="5.36438">
        <ele>321</ele>
        <time>2022-06-18T06:27:23Z</time>
      </trkpt>
      <trkpt lat="46.14208" lon="5.36484">
        <ele>319.8</ele>
        <time>2022-06-18T06:27:25Z</time>
      </trkpt>
      <trkpt lat="46.14215" lon="5.36546">
        <ele>319</ele>
        <time>2022-06-18T06:27:29Z</time>
      </trkpt>
      <trkpt lat="46.14215" lon="5.36576">
        <ele>318.4</ele>
        <time>2022-06-18T06:27:31Z</time>
      </trkpt>
      <trkpt lat="46.14214" lon="5.36591">
        <ele>317.8</ele>
        <time>2022-06-18T06:27:33Z</time>
      </trkpt>
      <trkpt lat="46.1421" lon="5.36637">
        <ele>317.2</ele>
        <time>2022-06-18T06:27:35Z</time>
      </trkpt>
      <trkpt lat="46.14202" lon="5.36681">
        <ele>316</ele>
        <time>2022-06-18T06:27:38Z</time>
      </trkpt>
      <trkpt lat="46.14187" lon="5.36756">
        <ele>315</ele>
        <time>2022-06-18T06:27:43Z</time>
      </trkpt>
      <trkpt lat="46.14174" lon="5.36814">
        <ele>313.8</ele>
        <time>2022-06-18T06:27:47Z</time>
      </trkpt>
      <trkpt lat="46.1417" lon="5.36828">
        <ele>313.6</ele>
        <time>2022-06-18T06:27:48Z</time>
      </trkpt>
      <trkpt lat="46.14162" lon="5.36886">
        <ele>312.6</ele>
        <time>2022-06-18T06:27:52Z</time>
      </trkpt>
      <trkpt lat="46.14162" lon="5.36901">
        <ele>312.6</ele>
        <time>2022-06-18T06:27:53Z</time>
      </trkpt>
      <trkpt lat="46.14167" lon="5.36944">
        <ele>312.2</ele>
        <time>2022-06-18T06:27:56Z</time>
      </trkpt>
      <trkpt lat="46.14174" lon="5.36972">
        <ele>311.6</ele>
        <time>2022-06-18T06:27:58Z</time>
      </trkpt>
      <trkpt lat="46.1418" lon="5.36999">
        <ele>311.2</ele>
        <time>2022-06-18T06:28:00Z</time>
      </trkpt>
      <trkpt lat="46.14182" lon="5.37014">
        <ele>311</ele>
        <time>2022-06-18T06:28:01Z</time>
      </trkpt>
      <trkpt lat="46.14181" lon="5.37044">
        <ele>310.6</ele>
        <time>2022-06-18T06:28:03Z</time>
      </trkpt>
      <trkpt lat="46.14181" lon="5.37059">
        <ele>310.4</ele>
        <time>2022-06-18T06:28:04Z</time>
      </trkpt>
      <trkpt lat="46.1418" lon="5.3709">
        <ele>309.6</ele>
        <time>2022-06-18T06:28:06Z</time>
      </trkpt>
      <trkpt lat="46.1418" lon="5.37104">
        <ele>309.2</ele>
        <time>2022-06-18T06:28:08Z</time>
      </trkpt>
      <trkpt lat="46.14182" lon="5.37133">
        <ele>309</ele>
        <time>2022-06-18T06:28:09Z</time>
      </trkpt>
      <trkpt lat="46.14186" lon="5.37158">
        <ele>308.6</ele>
        <time>2022-06-18T06:28:11Z</time>
      </trkpt>
      <trkpt lat="46.14189" lon="5.37204">
        <ele>308.2</ele>
        <time>2022-06-18T06:28:14Z</time>
      </trkpt>
      <trkpt lat="46.14188" lon="5.37229">
        <ele>308.2</ele>
        <time>2022-06-18T06:28:16Z</time>
      </trkpt>
      <trkpt lat="46.14185" lon="5.37244">
        <ele>308.2</ele>
        <time>2022-06-18T06:28:17Z</time>
      </trkpt>
      <trkpt lat="46.14176" lon="5.37266">
        <ele>308.2</ele>
        <time>2022-06-18T06:28:19Z</time>
      </trkpt>
      <trkpt lat="46.14166" lon="5.37297">
        <ele>308.4</ele>
        <time>2022-06-18T06:28:22Z</time>
      </trkpt>
      <trkpt lat="46.14164" lon="5.37305">
        <ele>308.4</ele>
        <time>2022-06-18T06:28:23Z</time>
      </trkpt>
      <trkpt lat="46.1416" lon="5.37337">
        <ele>309.4</ele>
        <time>2022-06-18T06:28:26Z</time>
      </trkpt>
      <trkpt lat="46.14159" lon="5.37369">
        <ele>310.6</ele>
        <time>2022-06-18T06:28:29Z</time>
      </trkpt>
      <trkpt lat="46.14162" lon="5.37421">
        <ele>311.8</ele>
        <time>2022-06-18T06:28:34Z</time>
      </trkpt>
      <trkpt lat="46.14164" lon="5.37431">
        <ele>312</ele>
        <time>2022-06-18T06:28:35Z</time>
      </trkpt>
      <trkpt lat="46.14181" lon="5.37481">
        <ele>312.6</ele>
        <time>2022-06-18T06:28:40Z</time>
      </trkpt>
      <trkpt lat="46.14183" lon="5.37493">
        <ele>312.6</ele>
        <time>2022-06-18T06:28:41Z</time>
      </trkpt>
      <trkpt lat="46.14185" lon="5.37519">
        <ele>312.6</ele>
        <time>2022-06-18T06:28:43Z</time>
      </trkpt>
      <trkpt lat="46.14184" lon="5.37589">
        <ele>310.4</ele>
        <time>2022-06-18T06:28:48Z</time>
      </trkpt>
      <trkpt lat="46.14183" lon="5.3762">
        <ele>308.8</ele>
        <time>2022-06-18T06:28:50Z</time>
      </trkpt>
      <trkpt lat="46.14177" lon="5.37652">
        <ele>307.6</ele>
        <time>2022-06-18T06:28:52Z</time>
      </trkpt>
      <trkpt lat="46.14172" lon="5.37662">
        <ele>307.2</ele>
        <time>2022-06-18T06:28:53Z</time>
      </trkpt>
      <trkpt lat="46.14166" lon="5.37674">
        <ele>306.2</ele>
        <time>2022-06-18T06:28:54Z</time>
      </trkpt>
      <trkpt lat="46.14146" lon="5.37706">
        <ele>305</ele>
        <time>2022-06-18T06:28:57Z</time>
      </trkpt>
      <trkpt lat="46.14114" lon="5.37771">
        <ele>304</ele>
        <time>2022-06-18T06:29:03Z</time>
      </trkpt>
      <trkpt lat="46.14109" lon="5.37782">
        <ele>303.8</ele>
        <time>2022-06-18T06:29:04Z</time>
      </trkpt>
      <trkpt lat="46.14075" lon="5.3785">
        <ele>303.2</ele>
        <time>2022-06-18T06:29:10Z</time>
      </trkpt>
      <trkpt lat="46.14059" lon="5.37872">
        <ele>302.6</ele>
        <time>2022-06-18T06:29:12Z</time>
      </trkpt>
      <trkpt lat="46.14053" lon="5.3788">
        <ele>301.6</ele>
        <time>2022-06-18T06:29:14Z</time>
      </trkpt>
      <trkpt lat="46.14032" lon="5.37911">
        <ele>300.6</ele>
        <time>2022-06-18T06:29:17Z</time>
      </trkpt>
      <trkpt lat="46.14019" lon="5.3793">
        <ele>300.4</ele>
        <time>2022-06-18T06:29:18Z</time>
      </trkpt>
      <trkpt lat="46.14001" lon="5.37959">
        <ele>300.2</ele>
        <time>2022-06-18T06:29:21Z</time>
      </trkpt>
      <trkpt lat="46.13996" lon="5.37968">
        <ele>300.2</ele>
        <time>2022-06-18T06:29:22Z</time>
      </trkpt>
      <trkpt lat="46.13992" lon="5.37978">
        <ele>300.2</ele>
        <time>2022-06-18T06:29:23Z</time>
      </trkpt>
      <trkpt lat="46.13984" lon="5.38011">
        <ele>300.4</ele>
        <time>2022-06-18T06:29:26Z</time>
      </trkpt>
      <trkpt lat="46.13978" lon="5.38033">
        <ele>300.6</ele>
        <time>2022-06-18T06:29:28Z</time>
      </trkpt>
      <trkpt lat="46.13968" lon="5.38054">
        <ele>300.8</ele>
        <time>2022-06-18T06:29:30Z</time>
      </trkpt>
      <trkpt lat="46.13932" lon="5.38119">
        <ele>300</ele>
        <time>2022-06-18T06:29:36Z</time>
      </trkpt>
      <trkpt lat="46.13916" lon="5.38149">
        <ele>299</ele>
        <time>2022-06-18T06:29:39Z</time>
      </trkpt>
      <trkpt lat="46.13903" lon="5.38172">
        <ele>298.4</ele>
        <time>2022-06-18T06:29:41Z</time>
      </trkpt>
      <trkpt lat="46.13898" lon="5.38183">
        <ele>298.2</ele>
        <time>2022-06-18T06:29:42Z</time>
      </trkpt>
      <trkpt lat="46.13893" lon="5.38195">
        <ele>298</ele>
        <time>2022-06-18T06:29:43Z</time>
      </trkpt>
      <trkpt lat="46.1389" lon="5.38208">
        <ele>298</ele>
        <time>2022-06-18T06:29:44Z</time>
      </trkpt>
      <trkpt lat="46.1388" lon="5.38248">
        <ele>296.8</ele>
        <time>2022-06-18T06:29:48Z</time>
      </trkpt>
      <trkpt lat="46.13873" lon="5.38282">
        <ele>296</ele>
        <time>2022-06-18T06:29:49Z</time>
      </trkpt>
      <trkpt lat="46.1387" lon="5.38298">
        <ele>295.4</ele>
        <time>2022-06-18T06:29:50Z</time>
      </trkpt>
      <trkpt lat="46.13865" lon="5.38328">
        <ele>293.8</ele>
        <time>2022-06-18T06:29:52Z</time>
      </trkpt>
      <trkpt lat="46.13857" lon="5.38363">
        <ele>291.2</ele>
        <time>2022-06-18T06:29:54Z</time>
      </trkpt>
      <trkpt lat="46.1385" lon="5.38399">
        <ele>289.2</ele>
        <time>2022-06-18T06:29:56Z</time>
      </trkpt>
      <trkpt lat="46.13844" lon="5.38436">
        <ele>288</ele>
        <time>2022-06-18T06:29:58Z</time>
      </trkpt>
      <trkpt lat="46.13842" lon="5.38455">
        <ele>287</ele>
        <time>2022-06-18T06:29:59Z</time>
      </trkpt>
      <trkpt lat="46.13839" lon="5.38473">
        <ele>286.4</ele>
        <time>2022-06-18T06:30:00Z</time>
      </trkpt>
      <trkpt lat="46.13839" lon="5.38473">
        <ele>285</ele>
        <time>2022-06-18T06:30:01Z</time>
      </trkpt>
      <trkpt lat="46.13835" lon="5.3851">
        <ele>283.8</ele>
        <time>2022-06-18T06:30:02Z</time>
      </trkpt>
      <trkpt lat="46.13833" lon="5.38529">
        <ele>282.2</ele>
        <time>2022-06-18T06:30:03Z</time>
      </trkpt>
      <trkpt lat="46.13829" lon="5.38565">
        <ele>280.4</ele>
        <time>2022-06-18T06:30:05Z</time>
      </trkpt>
      <trkpt lat="46.13826" lon="5.38582">
        <ele>278.4</ele>
        <time>2022-06-18T06:30:06Z</time>
      </trkpt>
      <trkpt lat="46.13826" lon="5.38616">
        <ele>276.2</ele>
        <time>2022-06-18T06:30:08Z</time>
      </trkpt>
      <trkpt lat="46.13828" lon="5.38632">
        <ele>275.2</ele>
        <time>2022-06-18T06:30:09Z</time>
      </trkpt>
      <trkpt lat="46.13831" lon="5.38646">
        <ele>274</ele>
        <time>2022-06-18T06:30:10Z</time>
      </trkpt>
      <trkpt lat="46.13839" lon="5.38684">
        <ele>273</ele>
        <time>2022-06-18T06:30:13Z</time>
      </trkpt>
      <trkpt lat="46.13849" lon="5.387">
        <ele>272.8</ele>
        <time>2022-06-18T06:30:15Z</time>
      </trkpt>
      <trkpt lat="46.13858" lon="5.38706">
        <ele>273</ele>
        <time>2022-06-18T06:30:17Z</time>
      </trkpt>
      <trkpt lat="46.13875" lon="5.38708">
        <ele>273.4</ele>
        <time>2022-06-18T06:30:20Z</time>
      </trkpt>
      <trkpt lat="46.13884" lon="5.38705">
        <ele>274.2</ele>
        <time>2022-06-18T06:30:21Z</time>
      </trkpt>
      <trkpt lat="46.13894" lon="5.38702">
        <ele>274.4</ele>
        <time>2022-06-18T06:30:22Z</time>
      </trkpt>
      <trkpt lat="46.13909" lon="5.38697">
        <ele>275.4</ele>
        <time>2022-06-18T06:30:24Z</time>
      </trkpt>
      <trkpt lat="46.13924" lon="5.38698">
        <ele>276.2</ele>
        <time>2022-06-18T06:30:26Z</time>
      </trkpt>
      <trkpt lat="46.13927" lon="5.38703">
        <ele>276.4</ele>
        <time>2022-06-18T06:30:27Z</time>
      </trkpt>
      <trkpt lat="46.13929" lon="5.38708">
        <ele>277.2</ele>
        <time>2022-06-18T06:30:28Z</time>
      </trkpt>
      <trkpt lat="46.13928" lon="5.38714">
        <ele>277.8</ele>
        <time>2022-06-18T06:30:29Z</time>
      </trkpt>
      <trkpt lat="46.13926" lon="5.38719">
        <ele>278.4</ele>
        <time>2022-06-18T06:30:31Z</time>
      </trkpt>
      <trkpt lat="46.13923" lon="5.38725">
        <ele>278.8</ele>
        <time>2022-06-18T06:30:32Z</time>
      </trkpt>
      <trkpt lat="46.1392" lon="5.38729">
        <ele>280</ele>
        <time>2022-06-18T06:30:33Z</time>
      </trkpt>
      <trkpt lat="46.13914" lon="5.38736">
        <ele>281</ele>
        <time>2022-06-18T06:30:35Z</time>
      </trkpt>
      <trkpt lat="46.13901" lon="5.38745">
        <ele>282.4</ele>
        <time>2022-06-18T06:30:38Z</time>
      </trkpt>
      <trkpt lat="46.13889" lon="5.3875">
        <ele>283</ele>
        <time>2022-06-18T06:30:40Z</time>
      </trkpt>
      <trkpt lat="46.13879" lon="5.38754">
        <ele>283.6</ele>
        <time>2022-06-18T06:30:42Z</time>
      </trkpt>
      <trkpt lat="46.13864" lon="5.38763">
        <ele>284.4</ele>
        <time>2022-06-18T06:30:45Z</time>
      </trkpt>
      <trkpt lat="46.13859" lon="5.38767">
        <ele>284.6</ele>
        <time>2022-06-18T06:30:46Z</time>
      </trkpt>
      <trkpt lat="46.13855" lon="5.38774">
        <ele>285.2</ele>
        <time>2022-06-18T06:30:47Z</time>
      </trkpt>
      <trkpt lat="46.1385" lon="5.38787">
        <ele>285.6</ele>
        <time>2022-06-18T06:30:49Z</time>
      </trkpt>
      <trkpt lat="46.13848" lon="5.38795">
        <ele>285.6</ele>
        <time>2022-06-18T06:30:50Z</time>
      </trkpt>
      <trkpt lat="46.13839" lon="5.38843">
        <ele>286.4</ele>
        <time>2022-06-18T06:30:56Z</time>
      </trkpt>
      <trkpt lat="46.13835" lon="5.38858">
        <ele>286.8</ele>
        <time>2022-06-18T06:30:58Z</time>
      </trkpt>
      <trkpt lat="46.13824" lon="5.38892">
        <ele>287.6</ele>
        <time>2022-06-18T06:31:03Z</time>
      </trkpt>
      <trkpt lat="46.13821" lon="5.38898">
        <ele>287.6</ele>
        <time>2022-06-18T06:31:04Z</time>
      </trkpt>
      <trkpt lat="46.13818" lon="5.38904">
        <ele>287.8</ele>
        <time>2022-06-18T06:31:05Z</time>
      </trkpt>
      <trkpt lat="46.13807" lon="5.38946">
        <ele>288.8</ele>
        <time>2022-06-18T06:31:11Z</time>
      </trkpt>
      <trkpt lat="46.13805" lon="5.38953">
        <ele>289</ele>
        <time>2022-06-18T06:31:12Z</time>
      </trkpt>
      <trkpt lat="46.13794" lon="5.39001">
        <ele>290</ele>
        <time>2022-06-18T06:31:19Z</time>
      </trkpt>
      <trkpt lat="46.13794" lon="5.39006">
        <ele>290.2</ele>
        <time>2022-06-18T06:31:20Z</time>
      </trkpt>
      <trkpt lat="46.13795" lon="5.39013">
        <ele>290.6</ele>
        <time>2022-06-18T06:31:21Z</time>
      </trkpt>
      <trkpt lat="46.13803" lon="5.39021">
        <ele>291</ele>
        <time>2022-06-18T06:31:23Z</time>
      </trkpt>
      <trkpt lat="46.1381" lon="5.39023">
        <ele>291.2</ele>
        <time>2022-06-18T06:31:24Z</time>
      </trkpt>
      <trkpt lat="46.13837" lon="5.39033">
        <ele>291.4</ele>
        <time>2022-06-18T06:31:28Z</time>
      </trkpt>
      <trkpt lat="46.13887" lon="5.39059">
        <ele>290.8</ele>
        <time>2022-06-18T06:31:35Z</time>
      </trkpt>
      <trkpt lat="46.13927" lon="5.3909">
        <ele>290.2</ele>
        <time>2022-06-18T06:31:41Z</time>
      </trkpt>
      <trkpt lat="46.13933" lon="5.39096">
        <ele>290.2</ele>
        <time>2022-06-18T06:31:42Z</time>
      </trkpt>
      <trkpt lat="46.13968" lon="5.39133">
        <ele>290.4</ele>
        <time>2022-06-18T06:31:48Z</time>
      </trkpt>
      <trkpt lat="46.14013" lon="5.39183">
        <ele>291</ele>
        <time>2022-06-18T06:31:56Z</time>
      </trkpt>
      <trkpt lat="46.14021" lon="5.39191">
        <ele>291</ele>
        <time>2022-06-18T06:31:57Z</time>
      </trkpt>
      <trkpt lat="46.14071" lon="5.39239">
        <ele>291</ele>
        <time>2022-06-18T06:32:05Z</time>
      </trkpt>
      <trkpt lat="46.14123" lon="5.39281">
        <ele>291.2</ele>
        <time>2022-06-18T06:32:13Z</time>
      </trkpt>
      <trkpt lat="46.14143" lon="5.39297">
        <ele>291.2</ele>
        <time>2022-06-18T06:32:16Z</time>
      </trkpt>
      <trkpt lat="46.14197" lon="5.39336">
        <ele>291</ele>
        <time>2022-06-18T06:32:24Z</time>
      </trkpt>
      <trkpt lat="46.1421" lon="5.39344">
        <ele>291</ele>
        <time>2022-06-18T06:32:26Z</time>
      </trkpt>
      <trkpt lat="46.14261" lon="5.39368">
        <ele>291.2</ele>
        <time>2022-06-18T06:32:33Z</time>
      </trkpt>
      <trkpt lat="46.14301" lon="5.39384">
        <ele>291.2</ele>
        <time>2022-06-18T06:32:39Z</time>
      </trkpt>
      <trkpt lat="46.14323" lon="5.39391">
        <ele>291.4</ele>
        <time>2022-06-18T06:32:42Z</time>
      </trkpt>
      <trkpt lat="46.14369" lon="5.39405">
        <ele>292.2</ele>
        <time>2022-06-18T06:32:49Z</time>
      </trkpt>
      <trkpt lat="46.14375" lon="5.39407">
        <ele>292.4</ele>
        <time>2022-06-18T06:32:50Z</time>
      </trkpt>
      <trkpt lat="46.14428" lon="5.39421">
        <ele>293.2</ele>
        <time>2022-06-18T06:32:58Z</time>
      </trkpt>
      <trkpt lat="46.14466" lon="5.3943">
        <ele>293.6</ele>
        <time>2022-06-18T06:33:03Z</time>
      </trkpt>
      <trkpt lat="46.14481" lon="5.39433">
        <ele>293.6</ele>
        <time>2022-06-18T06:33:05Z</time>
      </trkpt>
      <trkpt lat="46.1454" lon="5.39445">
        <ele>293.8</ele>
        <time>2022-06-18T06:33:13Z</time>
      </trkpt>
      <trkpt lat="46.14546" lon="5.39446">
        <ele>293.6</ele>
        <time>2022-06-18T06:33:15Z</time>
      </trkpt>
      <trkpt lat="46.14605" lon="5.39457">
        <ele>293.4</ele>
        <time>2022-06-18T06:33:22Z</time>
      </trkpt>
      <trkpt lat="46.14651" lon="5.39482">
        <ele>293.4</ele>
        <time>2022-06-18T06:33:29Z</time>
      </trkpt>
      <trkpt lat="46.1469" lon="5.39494">
        <ele>294</ele>
        <time>2022-06-18T06:33:35Z</time>
      </trkpt>
      <trkpt lat="46.14725" lon="5.39486">
        <ele>294.4</ele>
        <time>2022-06-18T06:33:40Z</time>
      </trkpt>
      <trkpt lat="46.14758" lon="5.39471">
        <ele>294.6</ele>
        <time>2022-06-18T06:33:45Z</time>
      </trkpt>
      <trkpt lat="46.14795" lon="5.39456">
        <ele>294.4</ele>
        <time>2022-06-18T06:33:50Z</time>
      </trkpt>
      <trkpt lat="46.1484" lon="5.39439">
        <ele>293.4</ele>
        <time>2022-06-18T06:33:56Z</time>
      </trkpt>
      <trkpt lat="46.14848" lon="5.39436">
        <ele>293.4</ele>
        <time>2022-06-18T06:33:57Z</time>
      </trkpt>
      <trkpt lat="46.14902" lon="5.39424">
        <ele>293</ele>
        <time>2022-06-18T06:34:04Z</time>
      </trkpt>
      <trkpt lat="46.14916" lon="5.39421">
        <ele>293</ele>
        <time>2022-06-18T06:34:06Z</time>
      </trkpt>
      <trkpt lat="46.14949" lon="5.39416">
        <ele>292.2</ele>
        <time>2022-06-18T06:34:10Z</time>
      </trkpt>
      <trkpt lat="46.15001" lon="5.39407">
        <ele>291.6</ele>
        <time>2022-06-18T06:34:17Z</time>
      </trkpt>
      <trkpt lat="46.15048" lon="5.39398">
        <ele>291.8</ele>
        <time>2022-06-18T06:34:24Z</time>
      </trkpt>
      <trkpt lat="46.15103" lon="5.39383">
        <ele>292.8</ele>
        <time>2022-06-18T06:34:32Z</time>
      </trkpt>
      <trkpt lat="46.1511" lon="5.39381">
        <ele>293</ele>
        <time>2022-06-18T06:34:33Z</time>
      </trkpt>
      <trkpt lat="46.15162" lon="5.39368">
        <ele>293.4</ele>
        <time>2022-06-18T06:34:40Z</time>
      </trkpt>
      <trkpt lat="46.15169" lon="5.39366">
        <ele>293.4</ele>
        <time>2022-06-18T06:34:41Z</time>
      </trkpt>
      <trkpt lat="46.15209" lon="5.39356">
        <ele>293.8</ele>
        <time>2022-06-18T06:34:47Z</time>
      </trkpt>
      <trkpt lat="46.15261" lon="5.39342">
        <ele>294.4</ele>
        <time>2022-06-18T06:34:55Z</time>
      </trkpt>
      <trkpt lat="46.15261" lon="5.39342">
        <ele>294.4</ele>
        <time>2022-06-18T06:34:56Z</time>
      </trkpt>
      <trkpt lat="46.15295" lon="5.39333">
        <ele>295.8</ele>
        <time>2022-06-18T06:35:01Z</time>
      </trkpt>
      <trkpt lat="46.15323" lon="5.39326">
        <ele>297</ele>
        <time>2022-06-18T06:35:06Z</time>
      </trkpt>
      <trkpt lat="46.15334" lon="5.39326">
        <ele>297.6</ele>
        <time>2022-06-18T06:35:08Z</time>
      </trkpt>
      <trkpt lat="46.15376" lon="5.39333">
        <ele>297.8</ele>
        <time>2022-06-18T06:35:14Z</time>
      </trkpt>
      <trkpt lat="46.15428" lon="5.39351">
        <ele>297</ele>
        <time>2022-06-18T06:35:21Z</time>
      </trkpt>
      <trkpt lat="46.15477" lon="5.39369">
        <ele>296.2</ele>
        <time>2022-06-18T06:35:27Z</time>
      </trkpt>
      <trkpt lat="46.15496" lon="5.39375">
        <ele>295.8</ele>
        <time>2022-06-18T06:35:29Z</time>
      </trkpt>
      <trkpt lat="46.15537" lon="5.39389">
        <ele>294.6</ele>
        <time>2022-06-18T06:35:34Z</time>
      </trkpt>
      <trkpt lat="46.15546" lon="5.39392">
        <ele>294.4</ele>
        <time>2022-06-18T06:35:35Z</time>
      </trkpt>
      <trkpt lat="46.15587" lon="5.39407">
        <ele>293.6</ele>
        <time>2022-06-18T06:35:40Z</time>
      </trkpt>
      <trkpt lat="46.1562" lon="5.39417">
        <ele>293.4</ele>
        <time>2022-06-18T06:35:44Z</time>
      </trkpt>
      <trkpt lat="46.15673" lon="5.39435">
        <ele>293.4</ele>
        <time>2022-06-18T06:35:51Z</time>
      </trkpt>
      <trkpt lat="46.15733" lon="5.39454">
        <ele>294</ele>
        <time>2022-06-18T06:35:59Z</time>
      </trkpt>
      <trkpt lat="46.15791" lon="5.3947">
        <ele>294.4</ele>
        <time>2022-06-18T06:36:07Z</time>
      </trkpt>
      <trkpt lat="46.15838" lon="5.3947">
        <ele>294.4</ele>
        <time>2022-06-18T06:36:13Z</time>
      </trkpt>
      <trkpt lat="46.15893" lon="5.39458">
        <ele>293.6</ele>
        <time>2022-06-18T06:36:20Z</time>
      </trkpt>
      <trkpt lat="46.15902" lon="5.39456">
        <ele>293.4</ele>
        <time>2022-06-18T06:36:21Z</time>
      </trkpt>
      <trkpt lat="46.15957" lon="5.39442">
        <ele>292.6</ele>
        <time>2022-06-18T06:36:28Z</time>
      </trkpt>
      <trkpt lat="46.15981" lon="5.39437">
        <ele>292.2</ele>
        <time>2022-06-18T06:36:31Z</time>
      </trkpt>
      <trkpt lat="46.16025" lon="5.39429">
        <ele>291.8</ele>
        <time>2022-06-18T06:36:38Z</time>
      </trkpt>
      <trkpt lat="46.16046" lon="5.39426">
        <ele>291.8</ele>
        <time>2022-06-18T06:36:40Z</time>
      </trkpt>
      <trkpt lat="46.16057" lon="5.39422">
        <ele>292</ele>
        <time>2022-06-18T06:36:42Z</time>
      </trkpt>
      <trkpt lat="46.16069" lon="5.39411">
        <ele>292.6</ele>
        <time>2022-06-18T06:36:46Z</time>
      </trkpt>
      <trkpt lat="46.16078" lon="5.39403">
        <ele>293.6</ele>
        <time>2022-06-18T06:36:50Z</time>
      </trkpt>
      <trkpt lat="46.16082" lon="5.39401">
        <ele>294</ele>
        <time>2022-06-18T06:36:51Z</time>
      </trkpt>
      <trkpt lat="46.16096" lon="5.39393">
        <ele>294.4</ele>
        <time>2022-06-18T06:36:54Z</time>
      </trkpt>
      <trkpt lat="46.16102" lon="5.39391">
        <ele>294.6</ele>
        <time>2022-06-18T06:36:56Z</time>
      </trkpt>
      <trkpt lat="46.16113" lon="5.39391">
        <ele>294.6</ele>
        <time>2022-06-18T06:36:57Z</time>
      </trkpt>
      <trkpt lat="46.16131" lon="5.39392">
        <ele>294.6</ele>
        <time>2022-06-18T06:37:00Z</time>
      </trkpt>
      <trkpt lat="46.16149" lon="5.39394">
        <ele>294.6</ele>
        <time>2022-06-18T06:37:03Z</time>
      </trkpt>
      <trkpt lat="46.16175" lon="5.39394">
        <ele>295.2</ele>
        <time>2022-06-18T06:37:07Z</time>
      </trkpt>
      <trkpt lat="46.16181" lon="5.39394">
        <ele>295.4</ele>
        <time>2022-06-18T06:37:08Z</time>
      </trkpt>
      <trkpt lat="46.16192" lon="5.39393">
        <ele>295.8</ele>
        <time>2022-06-18T06:37:10Z</time>
      </trkpt>
      <trkpt lat="46.16226" lon="5.39393">
        <ele>296.8</ele>
        <time>2022-06-18T06:37:16Z</time>
      </trkpt>
      <trkpt lat="46.16232" lon="5.39393">
        <ele>297</ele>
        <time>2022-06-18T06:37:17Z</time>
      </trkpt>
      <trkpt lat="46.16271" lon="5.39396">
        <ele>297.6</ele>
        <time>2022-06-18T06:37:24Z</time>
      </trkpt>
      <trkpt lat="46.16308" lon="5.39405">
        <ele>298.2</ele>
        <time>2022-06-18T06:37:31Z</time>
      </trkpt>
      <trkpt lat="46.16319" lon="5.39408">
        <ele>298.4</ele>
        <time>2022-06-18T06:37:33Z</time>
      </trkpt>
      <trkpt lat="46.16356" lon="5.39422">
        <ele>298.4</ele>
        <time>2022-06-18T06:37:39Z</time>
      </trkpt>
      <trkpt lat="46.16394" lon="5.39439">
        <ele>298.2</ele>
        <time>2022-06-18T06:37:45Z</time>
      </trkpt>
      <trkpt lat="46.1645" lon="5.39468">
        <ele>297.8</ele>
        <time>2022-06-18T06:37:54Z</time>
      </trkpt>
      <trkpt lat="46.16456" lon="5.39471">
        <ele>297.8</ele>
        <time>2022-06-18T06:37:55Z</time>
      </trkpt>
      <trkpt lat="46.16506" lon="5.39495">
        <ele>298.2</ele>
        <time>2022-06-18T06:38:03Z</time>
      </trkpt>
      <trkpt lat="46.16552" lon="5.3951">
        <ele>298.4</ele>
        <time>2022-06-18T06:38:10Z</time>
      </trkpt>
      <trkpt lat="46.16596" lon="5.39514">
        <ele>298.6</ele>
        <time>2022-06-18T06:38:17Z</time>
      </trkpt>
      <trkpt lat="46.1665" lon="5.39512">
        <ele>298.6</ele>
        <time>2022-06-18T06:38:25Z</time>
      </trkpt>
      <trkpt lat="46.16657" lon="5.39512">
        <ele>298.6</ele>
        <time>2022-06-18T06:38:26Z</time>
      </trkpt>
      <trkpt lat="46.16698" lon="5.39516">
        <ele>298</ele>
        <time>2022-06-18T06:38:32Z</time>
      </trkpt>
      <trkpt lat="46.16746" lon="5.39523">
        <ele>297.4</ele>
        <time>2022-06-18T06:38:38Z</time>
      </trkpt>
      <trkpt lat="46.1677" lon="5.39527">
        <ele>297.2</ele>
        <time>2022-06-18T06:38:41Z</time>
      </trkpt>
      <trkpt lat="46.16809" lon="5.39533">
        <ele>296.6</ele>
        <time>2022-06-18T06:38:46Z</time>
      </trkpt>
      <trkpt lat="46.16863" lon="5.39541">
        <ele>296.4</ele>
        <time>2022-06-18T06:38:53Z</time>
      </trkpt>
      <trkpt lat="46.1687" lon="5.39542">
        <ele>296.4</ele>
        <time>2022-06-18T06:38:54Z</time>
      </trkpt>
      <trkpt lat="46.16925" lon="5.3955">
        <ele>296.4</ele>
        <time>2022-06-18T06:39:01Z</time>
      </trkpt>
      <trkpt lat="46.16948" lon="5.39553">
        <ele>296.2</ele>
        <time>2022-06-18T06:39:04Z</time>
      </trkpt>
      <trkpt lat="46.16956" lon="5.39554">
        <ele>296</ele>
        <time>2022-06-18T06:39:05Z</time>
      </trkpt>
      <trkpt lat="46.17009" lon="5.3956">
        <ele>295.8</ele>
        <time>2022-06-18T06:39:12Z</time>
      </trkpt>
      <trkpt lat="46.17074" lon="5.39567">
        <ele>295.2</ele>
        <time>2022-06-18T06:39:20Z</time>
      </trkpt>
      <trkpt lat="46.17084" lon="5.39568">
        <ele>294.8</ele>
        <time>2022-06-18T06:39:21Z</time>
      </trkpt>
      <trkpt lat="46.171" lon="5.39569">
        <ele>294.2</ele>
        <time>2022-06-18T06:39:23Z</time>
      </trkpt>
      <trkpt lat="46.1711" lon="5.3957">
        <ele>293.8</ele>
        <time>2022-06-18T06:39:24Z</time>
      </trkpt>
      <trkpt lat="46.17167" lon="5.39576">
        <ele>293</ele>
        <time>2022-06-18T06:39:31Z</time>
      </trkpt>
      <trkpt lat="46.17183" lon="5.39577">
        <ele>293</ele>
        <time>2022-06-18T06:39:33Z</time>
      </trkpt>
      <trkpt lat="46.17191" lon="5.39578">
        <ele>292.8</ele>
        <time>2022-06-18T06:39:34Z</time>
      </trkpt>
      <trkpt lat="46.1725" lon="5.39582">
        <ele>292.6</ele>
        <time>2022-06-18T06:39:42Z</time>
      </trkpt>
      <trkpt lat="46.17257" lon="5.39582">
        <ele>292.6</ele>
        <time>2022-06-18T06:39:43Z</time>
      </trkpt>
      <trkpt lat="46.17315" lon="5.39588">
        <ele>292.6</ele>
        <time>2022-06-18T06:39:51Z</time>
      </trkpt>
      <trkpt lat="46.17324" lon="5.39589">
        <ele>292.6</ele>
        <time>2022-06-18T06:39:52Z</time>
      </trkpt>
      <trkpt lat="46.17382" lon="5.39592">
        <ele>292.4</ele>
        <time>2022-06-18T06:40:00Z</time>
      </trkpt>
      <trkpt lat="46.17396" lon="5.39593">
        <ele>292.4</ele>
        <time>2022-06-18T06:40:02Z</time>
      </trkpt>
      <trkpt lat="46.17455" lon="5.39597">
        <ele>292</ele>
        <time>2022-06-18T06:40:10Z</time>
      </trkpt>
      <trkpt lat="46.17476" lon="5.39598">
        <ele>292</ele>
        <time>2022-06-18T06:40:13Z</time>
      </trkpt>
      <trkpt lat="46.17521" lon="5.39599">
        <ele>291.8</ele>
        <time>2022-06-18T06:40:19Z</time>
      </trkpt>
      <trkpt lat="46.17551" lon="5.39598">
        <ele>291.8</ele>
        <time>2022-06-18T06:40:23Z</time>
      </trkpt>
      <trkpt lat="46.17612" lon="5.39598">
        <ele>291.8</ele>
        <time>2022-06-18T06:40:31Z</time>
      </trkpt>
      <trkpt lat="46.17634" lon="5.396">
        <ele>291.8</ele>
        <time>2022-06-18T06:40:34Z</time>
      </trkpt>
      <trkpt lat="46.17699" lon="5.39607">
        <ele>292.4</ele>
        <time>2022-06-18T06:40:43Z</time>
      </trkpt>
      <trkpt lat="46.17706" lon="5.39609">
        <ele>292.4</ele>
        <time>2022-06-18T06:40:44Z</time>
      </trkpt>
      <trkpt lat="46.17765" lon="5.39617">
        <ele>292.4</ele>
        <time>2022-06-18T06:40:52Z</time>
      </trkpt>
      <trkpt lat="46.17824" lon="5.3962">
        <ele>292.4</ele>
        <time>2022-06-18T06:41:00Z</time>
      </trkpt>
      <trkpt lat="46.17832" lon="5.39619">
        <ele>292.4</ele>
        <time>2022-06-18T06:41:01Z</time>
      </trkpt>
      <trkpt lat="46.1788" lon="5.39611">
        <ele>292.6</ele>
        <time>2022-06-18T06:41:07Z</time>
      </trkpt>
      <trkpt lat="46.17933" lon="5.39609">
        <ele>292</ele>
        <time>2022-06-18T06:41:13Z</time>
      </trkpt>
      <trkpt lat="46.17993" lon="5.39612">
        <ele>291.8</ele>
        <time>2022-06-18T06:41:20Z</time>
      </trkpt>
      <trkpt lat="46.18011" lon="5.39612">
        <ele>291.8</ele>
        <time>2022-06-18T06:41:22Z</time>
      </trkpt>
      <trkpt lat="46.18065" lon="5.39616">
        <ele>291.8</ele>
        <time>2022-06-18T06:41:29Z</time>
      </trkpt>
      <trkpt lat="46.18073" lon="5.39618">
        <ele>291.8</ele>
        <time>2022-06-18T06:41:30Z</time>
      </trkpt>
      <trkpt lat="46.18127" lon="5.39626">
        <ele>292</ele>
        <time>2022-06-18T06:41:37Z</time>
      </trkpt>
      <trkpt lat="46.18142" lon="5.39629">
        <ele>292</ele>
        <time>2022-06-18T06:41:39Z</time>
      </trkpt>
      <trkpt lat="46.18196" lon="5.39638">
        <ele>292</ele>
        <time>2022-06-18T06:41:46Z</time>
      </trkpt>
      <trkpt lat="46.18211" lon="5.39641">
        <ele>292</ele>
        <time>2022-06-18T06:41:48Z</time>
      </trkpt>
      <trkpt lat="46.18266" lon="5.3965">
        <ele>291.8</ele>
        <time>2022-06-18T06:41:55Z</time>
      </trkpt>
      <trkpt lat="46.18281" lon="5.39653">
        <ele>291.8</ele>
        <time>2022-06-18T06:41:57Z</time>
      </trkpt>
      <trkpt lat="46.18335" lon="5.39662">
        <ele>291.6</ele>
        <time>2022-06-18T06:42:04Z</time>
      </trkpt>
      <trkpt lat="46.18344" lon="5.39663">
        <ele>291.6</ele>
        <time>2022-06-18T06:42:05Z</time>
      </trkpt>
      <trkpt lat="46.18389" lon="5.39659">
        <ele>291.2</ele>
        <time>2022-06-18T06:42:11Z</time>
      </trkpt>
      <trkpt lat="46.18433" lon="5.39651">
        <ele>291.6</ele>
        <time>2022-06-18T06:42:17Z</time>
      </trkpt>
      <trkpt lat="46.18486" lon="5.39641">
        <ele>292</ele>
        <time>2022-06-18T06:42:24Z</time>
      </trkpt>
      <trkpt lat="46.18493" lon="5.3964">
        <ele>292</ele>
        <time>2022-06-18T06:42:25Z</time>
      </trkpt>
      <trkpt lat="46.18545" lon="5.39641">
        <ele>292</ele>
        <time>2022-06-18T06:42:32Z</time>
      </trkpt>
      <trkpt lat="46.18603" lon="5.39654">
        <ele>292.8</ele>
        <time>2022-06-18T06:42:40Z</time>
      </trkpt>
      <trkpt lat="46.1861" lon="5.39657">
        <ele>293</ele>
        <time>2022-06-18T06:42:41Z</time>
      </trkpt>
      <trkpt lat="46.18664" lon="5.3968">
        <ele>293.6</ele>
        <time>2022-06-18T06:42:49Z</time>
      </trkpt>
      <trkpt lat="46.1867" lon="5.39683">
        <ele>293.6</ele>
        <time>2022-06-18T06:42:50Z</time>
      </trkpt>
      <trkpt lat="46.18703" lon="5.39701">
        <ele>293.8</ele>
        <time>2022-06-18T06:42:55Z</time>
      </trkpt>
      <trkpt lat="46.18716" lon="5.39707">
        <ele>293.8</ele>
        <time>2022-06-18T06:42:57Z</time>
      </trkpt>
      <trkpt lat="46.18749" lon="5.39718">
        <ele>293.8</ele>
        <time>2022-06-18T06:43:02Z</time>
      </trkpt>
      <trkpt lat="46.18756" lon="5.39718">
        <ele>293.8</ele>
        <time>2022-06-18T06:43:03Z</time>
      </trkpt>
      <trkpt lat="46.18804" lon="5.39718">
        <ele>293.8</ele>
        <time>2022-06-18T06:43:10Z</time>
      </trkpt>
      <trkpt lat="46.18811" lon="5.39718">
        <ele>294</ele>
        <time>2022-06-18T06:43:11Z</time>
      </trkpt>
      <trkpt lat="46.18865" lon="5.3972">
        <ele>294.2</ele>
        <time>2022-06-18T06:43:19Z</time>
      </trkpt>
      <trkpt lat="46.18872" lon="5.3972">
        <ele>294.2</ele>
        <time>2022-06-18T06:43:20Z</time>
      </trkpt>
      <trkpt lat="46.18932" lon="5.39723">
        <ele>294.2</ele>
        <time>2022-06-18T06:43:29Z</time>
      </trkpt>
      <trkpt lat="46.18945" lon="5.39722">
        <ele>294.4</ele>
        <time>2022-06-18T06:43:31Z</time>
      </trkpt>
      <trkpt lat="46.18991" lon="5.39724">
        <ele>294.4</ele>
        <time>2022-06-18T06:43:38Z</time>
      </trkpt>
      <trkpt lat="46.19049" lon="5.39729">
        <ele>294.4</ele>
        <time>2022-06-18T06:43:46Z</time>
      </trkpt>
      <trkpt lat="46.19099" lon="5.39734">
        <ele>294.8</ele>
        <time>2022-06-18T06:43:53Z</time>
      </trkpt>
      <trkpt lat="46.19105" lon="5.39735">
        <ele>295.2</ele>
        <time>2022-06-18T06:43:54Z</time>
      </trkpt>
      <trkpt lat="46.19161" lon="5.39744">
        <ele>295.2</ele>
        <time>2022-06-18T06:44:02Z</time>
      </trkpt>
      <trkpt lat="46.19215" lon="5.39754">
        <ele>295</ele>
        <time>2022-06-18T06:44:10Z</time>
      </trkpt>
      <trkpt lat="46.19252" lon="5.39764">
        <ele>295.4</ele>
        <time>2022-06-18T06:44:16Z</time>
      </trkpt>
      <trkpt lat="46.19264" lon="5.3977">
        <ele>295.6</ele>
        <time>2022-06-18T06:44:18Z</time>
      </trkpt>
      <trkpt lat="46.19274" lon="5.39781">
        <ele>295.6</ele>
        <time>2022-06-18T06:44:20Z</time>
      </trkpt>
      <trkpt lat="46.19291" lon="5.39799">
        <ele>295.4</ele>
        <time>2022-06-18T06:44:23Z</time>
      </trkpt>
      <trkpt lat="46.19309" lon="5.39814">
        <ele>295.4</ele>
        <time>2022-06-18T06:44:26Z</time>
      </trkpt>
      <trkpt lat="46.19351" lon="5.39844">
        <ele>295.2</ele>
        <time>2022-06-18T06:44:33Z</time>
      </trkpt>
      <trkpt lat="46.19402" lon="5.39875">
        <ele>295.2</ele>
        <time>2022-06-18T06:44:41Z</time>
      </trkpt>
      <trkpt lat="46.1942" lon="5.39882">
        <ele>295.2</ele>
        <time>2022-06-18T06:44:44Z</time>
      </trkpt>
      <trkpt lat="46.19426" lon="5.39883">
        <ele>295.2</ele>
        <time>2022-06-18T06:44:45Z</time>
      </trkpt>
      <trkpt lat="46.19432" lon="5.39885">
        <ele>295.2</ele>
        <time>2022-06-18T06:44:46Z</time>
      </trkpt>
      <trkpt lat="46.19442" lon="5.39893">
        <ele>295.4</ele>
        <time>2022-06-18T06:44:48Z</time>
      </trkpt>
      <trkpt lat="46.19452" lon="5.39913">
        <ele>295.6</ele>
        <time>2022-06-18T06:44:51Z</time>
      </trkpt>
      <trkpt lat="46.19472" lon="5.39948">
        <ele>295.8</ele>
        <time>2022-06-18T06:44:56Z</time>
      </trkpt>
      <trkpt lat="46.19475" lon="5.39956">
        <ele>295.8</ele>
        <time>2022-06-18T06:44:57Z</time>
      </trkpt>
      <trkpt lat="46.19497" lon="5.40001">
        <ele>296</ele>
        <time>2022-06-18T06:45:03Z</time>
      </trkpt>
      <trkpt lat="46.19502" lon="5.40008">
        <ele>296</ele>
        <time>2022-06-18T06:45:04Z</time>
      </trkpt>
      <trkpt lat="46.19528" lon="5.40044">
        <ele>296.4</ele>
        <time>2022-06-18T06:45:10Z</time>
      </trkpt>
      <trkpt lat="46.19552" lon="5.40081">
        <ele>296.8</ele>
        <time>2022-06-18T06:45:16Z</time>
      </trkpt>
      <trkpt lat="46.19556" lon="5.40087">
        <ele>297</ele>
        <time>2022-06-18T06:45:17Z</time>
      </trkpt>
      <trkpt lat="46.19573" lon="5.40118">
        <ele>297.6</ele>
        <time>2022-06-18T06:45:22Z</time>
      </trkpt>
      <trkpt lat="46.19581" lon="5.40132">
        <ele>297.8</ele>
        <time>2022-06-18T06:45:24Z</time>
      </trkpt>
      <trkpt lat="46.19588" lon="5.40147">
        <ele>298</ele>
        <time>2022-06-18T06:45:26Z</time>
      </trkpt>
      <trkpt lat="46.19596" lon="5.40168">
        <ele>298</ele>
        <time>2022-06-18T06:45:29Z</time>
      </trkpt>
      <trkpt lat="46.1962" lon="5.40223">
        <ele>299</ele>
        <time>2022-06-18T06:45:37Z</time>
      </trkpt>
      <trkpt lat="46.19625" lon="5.40237">
        <ele>299.6</ele>
        <time>2022-06-18T06:45:39Z</time>
      </trkpt>
      <trkpt lat="46.19646" lon="5.40286">
        <ele>299.8</ele>
        <time>2022-06-18T06:45:46Z</time>
      </trkpt>
      <trkpt lat="46.19652" lon="5.40299">
        <ele>300</ele>
        <time>2022-06-18T06:45:48Z</time>
      </trkpt>
      <trkpt lat="46.19666" lon="5.40333">
        <ele>300.6</ele>
        <time>2022-06-18T06:45:53Z</time>
      </trkpt>
      <trkpt lat="46.19679" lon="5.40358">
        <ele>301.2</ele>
        <time>2022-06-18T06:45:57Z</time>
      </trkpt>
      <trkpt lat="46.19693" lon="5.40382">
        <ele>301.4</ele>
        <time>2022-06-18T06:46:01Z</time>
      </trkpt>
      <trkpt lat="46.19696" lon="5.40387">
        <ele>301.6</ele>
        <time>2022-06-18T06:46:02Z</time>
      </trkpt>
      <trkpt lat="46.19708" lon="5.40402">
        <ele>302</ele>
        <time>2022-06-18T06:46:05Z</time>
      </trkpt>
      <trkpt lat="46.19718" lon="5.40411">
        <ele>302.2</ele>
        <time>2022-06-18T06:46:07Z</time>
      </trkpt>
      <trkpt lat="46.19768" lon="5.40452">
        <ele>302.6</ele>
        <time>2022-06-18T06:46:17Z</time>
      </trkpt>
      <trkpt lat="46.19813" lon="5.4049">
        <ele>303</ele>
        <time>2022-06-18T06:46:26Z</time>
      </trkpt>
      <trkpt lat="46.19826" lon="5.40507">
        <ele>303</ele>
        <time>2022-06-18T06:46:29Z</time>
      </trkpt>
      <trkpt lat="46.19842" lon="5.40531">
        <ele>303.4</ele>
        <time>2022-06-18T06:46:33Z</time>
      </trkpt>
      <trkpt lat="46.19846" lon="5.40537">
        <ele>303.6</ele>
        <time>2022-06-18T06:46:34Z</time>
      </trkpt>
      <trkpt lat="46.19879" lon="5.40587">
        <ele>304</ele>
        <time>2022-06-18T06:46:42Z</time>
      </trkpt>
      <trkpt lat="46.19911" lon="5.40625">
        <ele>304</ele>
        <time>2022-06-18T06:46:49Z</time>
      </trkpt>
      <trkpt lat="46.19927" lon="5.40649">
        <ele>304.6</ele>
        <time>2022-06-18T06:46:53Z</time>
      </trkpt>
      <trkpt lat="46.19938" lon="5.40667">
        <ele>305</ele>
        <time>2022-06-18T06:46:56Z</time>
      </trkpt>
      <trkpt lat="46.19957" lon="5.40712">
        <ele>305.8</ele>
        <time>2022-06-18T06:47:03Z</time>
      </trkpt>
      <trkpt lat="46.19959" lon="5.40718">
        <ele>305.8</ele>
        <time>2022-06-18T06:47:04Z</time>
      </trkpt>
      <trkpt lat="46.19976" lon="5.40755">
        <ele>306.8</ele>
        <time>2022-06-18T06:47:10Z</time>
      </trkpt>
      <trkpt lat="46.19982" lon="5.40766">
        <ele>307.2</ele>
        <time>2022-06-18T06:47:12Z</time>
      </trkpt>
      <trkpt lat="46.19992" lon="5.40782">
        <ele>307.8</ele>
        <time>2022-06-18T06:47:15Z</time>
      </trkpt>
      <trkpt lat="46.20015" lon="5.40815">
        <ele>308.8</ele>
        <time>2022-06-18T06:47:21Z</time>
      </trkpt>
      <trkpt lat="46.2002" lon="5.40821">
        <ele>308.8</ele>
        <time>2022-06-18T06:47:22Z</time>
      </trkpt>
      <trkpt lat="46.20034" lon="5.40836">
        <ele>309.2</ele>
        <time>2022-06-18T06:47:25Z</time>
      </trkpt>
      <trkpt lat="46.20038" lon="5.40842">
        <ele>309.2</ele>
        <time>2022-06-18T06:47:26Z</time>
      </trkpt>
      <trkpt lat="46.20046" lon="5.40854">
        <ele>309.4</ele>
        <time>2022-06-18T06:47:28Z</time>
      </trkpt>
      <trkpt lat="46.20063" lon="5.40877">
        <ele>309.4</ele>
        <time>2022-06-18T06:47:32Z</time>
      </trkpt>
      <trkpt lat="46.20089" lon="5.40909">
        <ele>309.8</ele>
        <time>2022-06-18T06:47:38Z</time>
      </trkpt>
      <trkpt lat="46.20092" lon="5.40913">
        <ele>310</ele>
        <time>2022-06-18T06:47:39Z</time>
      </trkpt>
      <trkpt lat="46.20097" lon="5.40918">
        <ele>310</ele>
        <time>2022-06-18T06:47:40Z</time>
      </trkpt>
      <trkpt lat="46.20122" lon="5.40946">
        <ele>311</ele>
        <time>2022-06-18T06:47:46Z</time>
      </trkpt>
      <trkpt lat="46.2014" lon="5.40968">
        <ele>312.2</ele>
        <time>2022-06-18T06:47:51Z</time>
      </trkpt>
      <trkpt lat="46.20152" lon="5.40981">
        <ele>312.8</ele>
        <time>2022-06-18T06:47:54Z</time>
      </trkpt>
      <trkpt lat="46.20164" lon="5.40998">
        <ele>313.2</ele>
        <time>2022-06-18T06:47:57Z</time>
      </trkpt>
      <trkpt lat="46.2017" lon="5.41008">
        <ele>313.4</ele>
        <time>2022-06-18T06:47:59Z</time>
      </trkpt>
      <trkpt lat="46.20175" lon="5.41013">
        <ele>313.6</ele>
        <time>2022-06-18T06:48:00Z</time>
      </trkpt>
      <trkpt lat="46.20191" lon="5.41027">
        <ele>314</ele>
        <time>2022-06-18T06:48:04Z</time>
      </trkpt>
      <trkpt lat="46.20203" lon="5.41032">
        <ele>314</ele>
        <time>2022-06-18T06:48:06Z</time>
      </trkpt>
      <trkpt lat="46.20216" lon="5.41035">
        <ele>314</ele>
        <time>2022-06-18T06:48:08Z</time>
      </trkpt>
      <trkpt lat="46.2023" lon="5.41033">
        <ele>314</ele>
        <time>2022-06-18T06:48:10Z</time>
      </trkpt>
      <trkpt lat="46.20265" lon="5.41029">
        <ele>313.4</ele>
        <time>2022-06-18T06:48:15Z</time>
      </trkpt>
      <trkpt lat="46.20275" lon="5.41031">
        <ele>312.6</ele>
        <time>2022-06-18T06:48:16Z</time>
      </trkpt>
      <trkpt lat="46.20283" lon="5.41033">
        <ele>311.8</ele>
        <time>2022-06-18T06:48:17Z</time>
      </trkpt>
      <trkpt lat="46.20308" lon="5.41043">
        <ele>310.8</ele>
        <time>2022-06-18T06:48:20Z</time>
      </trkpt>
      <trkpt lat="46.20316" lon="5.41049">
        <ele>310.6</ele>
        <time>2022-06-18T06:48:21Z</time>
      </trkpt>
      <trkpt lat="46.20328" lon="5.4106">
        <ele>309.6</ele>
        <time>2022-06-18T06:48:23Z</time>
      </trkpt>
      <trkpt lat="46.20338" lon="5.41073">
        <ele>308.4</ele>
        <time>2022-06-18T06:48:25Z</time>
      </trkpt>
      <trkpt lat="46.20377" lon="5.41128">
        <ele>308.2</ele>
        <time>2022-06-18T06:48:33Z</time>
      </trkpt>
      <trkpt lat="46.20382" lon="5.41135">
        <ele>308.2</ele>
        <time>2022-06-18T06:48:34Z</time>
      </trkpt>
      <trkpt lat="46.20405" lon="5.41169">
        <ele>309.4</ele>
        <time>2022-06-18T06:48:40Z</time>
      </trkpt>
      <trkpt lat="46.20409" lon="5.41174">
        <ele>309.4</ele>
        <time>2022-06-18T06:48:41Z</time>
      </trkpt>
      <trkpt lat="46.20422" lon="5.41187">
        <ele>310.6</ele>
        <time>2022-06-18T06:48:44Z</time>
      </trkpt>
      <trkpt lat="46.20433" lon="5.41195">
        <ele>311.2</ele>
        <time>2022-06-18T06:48:46Z</time>
      </trkpt>
      <trkpt lat="46.20448" lon="5.41203">
        <ele>311.8</ele>
        <time>2022-06-18T06:48:49Z</time>
      </trkpt>
      <trkpt lat="46.20469" lon="5.41211">
        <ele>312.8</ele>
        <time>2022-06-18T06:48:53Z</time>
      </trkpt>
      <trkpt lat="46.20474" lon="5.41213">
        <ele>312.8</ele>
        <time>2022-06-18T06:48:54Z</time>
      </trkpt>
      <trkpt lat="46.20496" lon="5.41222">
        <ele>314</ele>
        <time>2022-06-18T06:48:58Z</time>
      </trkpt>
      <trkpt lat="46.20515" lon="5.41228">
        <ele>314.4</ele>
        <time>2022-06-18T06:49:01Z</time>
      </trkpt>
      <trkpt lat="46.20548" lon="5.4124">
        <ele>315.2</ele>
        <time>2022-06-18T06:49:07Z</time>
      </trkpt>
      <trkpt lat="46.20566" lon="5.41246">
        <ele>315.6</ele>
        <time>2022-06-18T06:49:10Z</time>
      </trkpt>
      <trkpt lat="46.20605" lon="5.41265">
        <ele>316.4</ele>
        <time>2022-06-18T06:49:17Z</time>
      </trkpt>
      <trkpt lat="46.20615" lon="5.4127">
        <ele>316.6</ele>
        <time>2022-06-18T06:49:19Z</time>
      </trkpt>
      <trkpt lat="46.20635" lon="5.41281">
        <ele>317.2</ele>
        <time>2022-06-18T06:49:23Z</time>
      </trkpt>
      <trkpt lat="46.20644" lon="5.4129">
        <ele>317.4</ele>
        <time>2022-06-18T06:49:25Z</time>
      </trkpt>
      <trkpt lat="46.20648" lon="5.41295">
        <ele>317.6</ele>
        <time>2022-06-18T06:49:26Z</time>
      </trkpt>
      <trkpt lat="46.20661" lon="5.41309">
        <ele>318.2</ele>
        <time>2022-06-18T06:49:29Z</time>
      </trkpt>
      <trkpt lat="46.20671" lon="5.41317">
        <ele>318.4</ele>
        <time>2022-06-18T06:49:31Z</time>
      </trkpt>
      <trkpt lat="46.20703" lon="5.41334">
        <ele>318.4</ele>
        <time>2022-06-18T06:49:35Z</time>
      </trkpt>
      <trkpt lat="46.20742" lon="5.41355">
        <ele>316.2</ele>
        <time>2022-06-18T06:49:40Z</time>
      </trkpt>
      <trkpt lat="46.20766" lon="5.4137">
        <ele>315.6</ele>
        <time>2022-06-18T06:49:43Z</time>
      </trkpt>
      <trkpt lat="46.20774" lon="5.41375">
        <ele>315.2</ele>
        <time>2022-06-18T06:49:44Z</time>
      </trkpt>
      <trkpt lat="46.20807" lon="5.41389">
        <ele>314.2</ele>
        <time>2022-06-18T06:49:48Z</time>
      </trkpt>
      <trkpt lat="46.20817" lon="5.41392">
        <ele>313.8</ele>
        <time>2022-06-18T06:49:49Z</time>
      </trkpt>
      <trkpt lat="46.20864" lon="5.41399">
        <ele>313.4</ele>
        <time>2022-06-18T06:49:55Z</time>
      </trkpt>
      <trkpt lat="46.20906" lon="5.41405">
        <ele>314.4</ele>
        <time>2022-06-18T06:50:01Z</time>
      </trkpt>
      <trkpt lat="46.20928" lon="5.41406">
        <ele>315.2</ele>
        <time>2022-06-18T06:50:04Z</time>
      </trkpt>
      <trkpt lat="46.20949" lon="5.41411">
        <ele>316.2</ele>
        <time>2022-06-18T06:50:07Z</time>
      </trkpt>
      <trkpt lat="46.20957" lon="5.41413">
        <ele>316.2</ele>
        <time>2022-06-18T06:50:08Z</time>
      </trkpt>
      <trkpt lat="46.20987" lon="5.41424">
        <ele>316.2</ele>
        <time>2022-06-18T06:50:12Z</time>
      </trkpt>
      <trkpt lat="46.21041" lon="5.41439">
        <ele>315.6</ele>
        <time>2022-06-18T06:50:19Z</time>
      </trkpt>
      <trkpt lat="46.21089" lon="5.41456">
        <ele>315.2</ele>
        <time>2022-06-18T06:50:25Z</time>
      </trkpt>
      <trkpt lat="46.21096" lon="5.41458">
        <ele>315</ele>
        <time>2022-06-18T06:50:26Z</time>
      </trkpt>
      <trkpt lat="46.21139" lon="5.41473">
        <ele>315.2</ele>
        <time>2022-06-18T06:50:32Z</time>
      </trkpt>
      <trkpt lat="46.21191" lon="5.41508">
        <ele>315.8</ele>
        <time>2022-06-18T06:50:39Z</time>
      </trkpt>
      <trkpt lat="46.21236" lon="5.41537">
        <ele>315</ele>
        <time>2022-06-18T06:50:45Z</time>
      </trkpt>
      <trkpt lat="46.21266" lon="5.41562">
        <ele>313.8</ele>
        <time>2022-06-18T06:50:49Z</time>
      </trkpt>
      <trkpt lat="46.2129" lon="5.41579">
        <ele>313.6</ele>
        <time>2022-06-18T06:50:52Z</time>
      </trkpt>
      <trkpt lat="46.21337" lon="5.41605">
        <ele>313.2</ele>
        <time>2022-06-18T06:50:58Z</time>
      </trkpt>
      <trkpt lat="46.21377" lon="5.41631">
        <ele>312.8</ele>
        <time>2022-06-18T06:51:03Z</time>
      </trkpt>
      <trkpt lat="46.214" lon="5.41649">
        <ele>312.4</ele>
        <time>2022-06-18T06:51:06Z</time>
      </trkpt>
      <trkpt lat="46.21415" lon="5.41661">
        <ele>311.8</ele>
        <time>2022-06-18T06:51:08Z</time>
      </trkpt>
      <trkpt lat="46.21447" lon="5.41679">
        <ele>311.4</ele>
        <time>2022-06-18T06:51:12Z</time>
      </trkpt>
      <trkpt lat="46.21493" lon="5.41695">
        <ele>311.8</ele>
        <time>2022-06-18T06:51:18Z</time>
      </trkpt>
      <trkpt lat="46.21542" lon="5.41719">
        <ele>312.6</ele>
        <time>2022-06-18T06:51:25Z</time>
      </trkpt>
      <trkpt lat="46.21556" lon="5.41726">
        <ele>313</ele>
        <time>2022-06-18T06:51:27Z</time>
      </trkpt>
      <trkpt lat="46.21583" lon="5.41741">
        <ele>314.2</ele>
        <time>2022-06-18T06:51:31Z</time>
      </trkpt>
      <trkpt lat="46.2161" lon="5.41757">
        <ele>314.8</ele>
        <time>2022-06-18T06:51:35Z</time>
      </trkpt>
      <trkpt lat="46.21647" lon="5.41783">
        <ele>314.4</ele>
        <time>2022-06-18T06:51:40Z</time>
      </trkpt>
      <trkpt lat="46.21659" lon="5.41782">
        <ele>313.8</ele>
        <time>2022-06-18T06:51:42Z</time>
      </trkpt>
      <trkpt lat="46.21665" lon="5.4178">
        <ele>313.4</ele>
        <time>2022-06-18T06:51:43Z</time>
      </trkpt>
      <trkpt lat="46.21675" lon="5.41776">
        <ele>313</ele>
        <time>2022-06-18T06:51:45Z</time>
      </trkpt>
      <trkpt lat="46.2169" lon="5.41775">
        <ele>312.2</ele>
        <time>2022-06-18T06:51:47Z</time>
      </trkpt>
      <trkpt lat="46.21698" lon="5.41776">
        <ele>312</ele>
        <time>2022-06-18T06:51:48Z</time>
      </trkpt>
      <trkpt lat="46.21706" lon="5.41777">
        <ele>311.8</ele>
        <time>2022-06-18T06:51:49Z</time>
      </trkpt>
      <trkpt lat="46.21733" lon="5.41783">
        <ele>310.6</ele>
        <time>2022-06-18T06:51:52Z</time>
      </trkpt>
      <trkpt lat="46.21742" lon="5.41785">
        <ele>309.4</ele>
        <time>2022-06-18T06:51:53Z</time>
      </trkpt>
      <trkpt lat="46.2177" lon="5.41788">
        <ele>308.6</ele>
        <time>2022-06-18T06:51:56Z</time>
      </trkpt>
      <trkpt lat="46.21788" lon="5.41789">
        <ele>307.4</ele>
        <time>2022-06-18T06:51:58Z</time>
      </trkpt>
      <trkpt lat="46.21797" lon="5.4179">
        <ele>307.2</ele>
        <time>2022-06-18T06:51:59Z</time>
      </trkpt>
      <trkpt lat="46.21841" lon="5.41801">
        <ele>306.2</ele>
        <time>2022-06-18T06:52:04Z</time>
      </trkpt>
      <trkpt lat="46.21875" lon="5.4182">
        <ele>305.2</ele>
        <time>2022-06-18T06:52:08Z</time>
      </trkpt>
      <trkpt lat="46.21893" lon="5.41824">
        <ele>304.2</ele>
        <time>2022-06-18T06:52:10Z</time>
      </trkpt>
      <trkpt lat="46.21902" lon="5.41825">
        <ele>303.6</ele>
        <time>2022-06-18T06:52:11Z</time>
      </trkpt>
      <trkpt lat="46.21929" lon="5.41819">
        <ele>302.8</ele>
        <time>2022-06-18T06:52:14Z</time>
      </trkpt>
      <trkpt lat="46.21948" lon="5.41813">
        <ele>302.6</ele>
        <time>2022-06-18T06:52:16Z</time>
      </trkpt>
      <trkpt lat="46.21987" lon="5.4181">
        <ele>301.2</ele>
        <time>2022-06-18T06:52:20Z</time>
      </trkpt>
      <trkpt lat="46.2203" lon="5.41816">
        <ele>300.6</ele>
        <time>2022-06-18T06:52:25Z</time>
      </trkpt>
      <trkpt lat="46.22068" lon="5.41821">
        <ele>300.8</ele>
        <time>2022-06-18T06:52:30Z</time>
      </trkpt>
      <trkpt lat="46.22075" lon="5.41821">
        <ele>300.8</ele>
        <time>2022-06-18T06:52:31Z</time>
      </trkpt>
      <trkpt lat="46.22105" lon="5.41825">
        <ele>301.2</ele>
        <time>2022-06-18T06:52:35Z</time>
      </trkpt>
      <trkpt lat="46.22161" lon="5.41834">
        <ele>302</ele>
        <time>2022-06-18T06:52:43Z</time>
      </trkpt>
      <trkpt lat="46.22179" lon="5.41842">
        <ele>302.4</ele>
        <time>2022-06-18T06:52:46Z</time>
      </trkpt>
      <trkpt lat="46.22192" lon="5.4185">
        <ele>302.4</ele>
        <time>2022-06-18T06:52:48Z</time>
      </trkpt>
      <trkpt lat="46.22204" lon="5.41857">
        <ele>302.4</ele>
        <time>2022-06-18T06:52:50Z</time>
      </trkpt>
      <trkpt lat="46.22221" lon="5.41866">
        <ele>303</ele>
        <time>2022-06-18T06:52:53Z</time>
      </trkpt>
      <trkpt lat="46.22245" lon="5.41879">
        <ele>303.2</ele>
        <time>2022-06-18T06:52:57Z</time>
      </trkpt>
      <trkpt lat="46.22257" lon="5.41884">
        <ele>303.2</ele>
        <time>2022-06-18T06:52:59Z</time>
      </trkpt>
      <trkpt lat="46.2227" lon="5.41889">
        <ele>303.2</ele>
        <time>2022-06-18T06:53:01Z</time>
      </trkpt>
      <trkpt lat="46.22288" lon="5.419">
        <ele>303.4</ele>
        <time>2022-06-18T06:53:04Z</time>
      </trkpt>
      <trkpt lat="46.22294" lon="5.41903">
        <ele>303.4</ele>
        <time>2022-06-18T06:53:05Z</time>
      </trkpt>
      <trkpt lat="46.22339" lon="5.41923">
        <ele>304</ele>
        <time>2022-06-18T06:53:13Z</time>
      </trkpt>
      <trkpt lat="46.22369" lon="5.41936">
        <ele>304.4</ele>
        <time>2022-06-18T06:53:19Z</time>
      </trkpt>
      <trkpt lat="46.22396" lon="5.41949">
        <ele>304.8</ele>
        <time>2022-06-18T06:53:25Z</time>
      </trkpt>
      <trkpt lat="46.22406" lon="5.41953">
        <ele>304.8</ele>
        <time>2022-06-18T06:53:28Z</time>
      </trkpt>
      <trkpt lat="46.22408" lon="5.4195">
        <ele>305</ele>
        <time>2022-06-18T06:53:29Z</time>
      </trkpt>
      <trkpt lat="46.22412" lon="5.41938">
        <ele>305</ele>
        <time>2022-06-18T06:53:31Z</time>
      </trkpt>
      <trkpt lat="46.22415" lon="5.41929">
        <ele>305.2</ele>
        <time>2022-06-18T06:53:32Z</time>
      </trkpt>
      <trkpt lat="46.22428" lon="5.41884">
        <ele>304.8</ele>
        <time>2022-06-18T06:53:37Z</time>
      </trkpt>
      <trkpt lat="46.2243" lon="5.41875">
        <ele>304.8</ele>
        <time>2022-06-18T06:53:38Z</time>
      </trkpt>
      <trkpt lat="46.22434" lon="5.41864">
        <ele>304.2</ele>
        <time>2022-06-18T06:53:40Z</time>
      </trkpt>
      <trkpt lat="46.22438" lon="5.41845">
        <ele>303.4</ele>
        <time>2022-06-18T06:53:43Z</time>
      </trkpt>
      <trkpt lat="46.22443" lon="5.41823">
        <ele>303</ele>
        <time>2022-06-18T06:53:47Z</time>
      </trkpt>
      <trkpt lat="46.22449" lon="5.41788">
        <ele>302.8</ele>
        <time>2022-06-18T06:53:52Z</time>
      </trkpt>
      <trkpt lat="46.22462" lon="5.41734">
        <ele>302.2</ele>
        <time>2022-06-18T06:53:58Z</time>
      </trkpt>
      <trkpt lat="46.2248" lon="5.4167">
        <ele>301.8</ele>
        <time>2022-06-18T06:54:05Z</time>
      </trkpt>
      <trkpt lat="46.22486" lon="5.41655">
        <ele>301.8</ele>
        <time>2022-06-18T06:54:07Z</time>
      </trkpt>
      <trkpt lat="46.22491" lon="5.41645">
        <ele>302</ele>
        <time>2022-06-18T06:54:09Z</time>
      </trkpt>
      <trkpt lat="46.22495" lon="5.41641">
        <ele>302.2</ele>
        <time>2022-06-18T06:54:10Z</time>
      </trkpt>
      <trkpt lat="46.22498" lon="5.41641">
        <ele>302.2</ele>
        <time>2022-06-18T06:54:11Z</time>
      </trkpt>
      <trkpt lat="46.22509" lon="5.41645">
        <ele>302.4</ele>
        <time>2022-06-18T06:54:13Z</time>
      </trkpt>
      <trkpt lat="46.22525" lon="5.41666">
        <ele>302.6</ele>
        <time>2022-06-18T06:54:16Z</time>
      </trkpt>
      <trkpt lat="46.22535" lon="5.4168">
        <ele>302.6</ele>
        <time>2022-06-18T06:54:18Z</time>
      </trkpt>
      <trkpt lat="46.22544" lon="5.41695">
        <ele>302.6</ele>
        <time>2022-06-18T06:54:20Z</time>
      </trkpt>
      <trkpt lat="46.22564" lon="5.41723">
        <ele>302.6</ele>
        <time>2022-06-18T06:54:24Z</time>
      </trkpt>
      <trkpt lat="46.22574" lon="5.41732">
        <ele>302.6</ele>
        <time>2022-06-18T06:54:26Z</time>
      </trkpt>
      <trkpt lat="46.22597" lon="5.41737">
        <ele>303</ele>
        <time>2022-06-18T06:54:30Z</time>
      </trkpt>
      <trkpt lat="46.22608" lon="5.41736">
        <ele>303.2</ele>
        <time>2022-06-18T06:54:32Z</time>
      </trkpt>
      <trkpt lat="46.22615" lon="5.41737">
        <ele>303.4</ele>
        <time>2022-06-18T06:54:33Z</time>
      </trkpt>
      <trkpt lat="46.22626" lon="5.41738">
        <ele>304</ele>
        <time>2022-06-18T06:54:35Z</time>
      </trkpt>
      <trkpt lat="46.22638" lon="5.4174">
        <ele>304.6</ele>
        <time>2022-06-18T06:54:37Z</time>
      </trkpt>
      <trkpt lat="46.22651" lon="5.41741">
        <ele>305.2</ele>
        <time>2022-06-18T06:54:39Z</time>
      </trkpt>
      <trkpt lat="46.22662" lon="5.41744">
        <ele>305.8</ele>
        <time>2022-06-18T06:54:41Z</time>
      </trkpt>
      <trkpt lat="46.22669" lon="5.41746">
        <ele>306</ele>
        <time>2022-06-18T06:54:42Z</time>
      </trkpt>
      <trkpt lat="46.22699" lon="5.41748">
        <ele>306.8</ele>
        <time>2022-06-18T06:54:47Z</time>
      </trkpt>
      <trkpt lat="46.22717" lon="5.41749">
        <ele>307.2</ele>
        <time>2022-06-18T06:54:50Z</time>
      </trkpt>
      <trkpt lat="46.22772" lon="5.41752">
        <ele>307.6</ele>
        <time>2022-06-18T06:54:59Z</time>
      </trkpt>
      <trkpt lat="46.22778" lon="5.41753">
        <ele>307.8</ele>
        <time>2022-06-18T06:55:00Z</time>
      </trkpt>
      <trkpt lat="46.22785" lon="5.41754">
        <ele>307.8</ele>
        <time>2022-06-18T06:55:01Z</time>
      </trkpt>
      <trkpt lat="46.22831" lon="5.41763">
        <ele>308</ele>
        <time>2022-06-18T06:55:08Z</time>
      </trkpt>
      <trkpt lat="46.22866" lon="5.41771">
        <ele>307.6</ele>
        <time>2022-06-18T06:55:13Z</time>
      </trkpt>
      <trkpt lat="46.22875" lon="5.41775">
        <ele>307.6</ele>
        <time>2022-06-18T06:55:14Z</time>
      </trkpt>
      <trkpt lat="46.22911" lon="5.41799">
        <ele>307.6</ele>
        <time>2022-06-18T06:55:20Z</time>
      </trkpt>
      <trkpt lat="46.22959" lon="5.41839">
        <ele>308.2</ele>
        <time>2022-06-18T06:55:29Z</time>
      </trkpt>
      <trkpt lat="46.22998" lon="5.41871">
        <ele>308.8</ele>
        <time>2022-06-18T06:55:36Z</time>
      </trkpt>
      <trkpt lat="46.23009" lon="5.41879">
        <ele>309</ele>
        <time>2022-06-18T06:55:38Z</time>
      </trkpt>
      <trkpt lat="46.2306" lon="5.41913">
        <ele>309.2</ele>
        <time>2022-06-18T06:55:46Z</time>
      </trkpt>
      <trkpt lat="46.23066" lon="5.41918">
        <ele>309.2</ele>
        <time>2022-06-18T06:55:47Z</time>
      </trkpt>
      <trkpt lat="46.23119" lon="5.41953">
        <ele>308.4</ele>
        <time>2022-06-18T06:55:56Z</time>
      </trkpt>
      <trkpt lat="46.23155" lon="5.41973">
        <ele>309.8</ele>
        <time>2022-06-18T06:56:02Z</time>
      </trkpt>
      <trkpt lat="46.23206" lon="5.42001">
        <ele>309.8</ele>
        <time>2022-06-18T06:56:11Z</time>
      </trkpt>
      <trkpt lat="46.23244" lon="5.42025">
        <ele>310.4</ele>
        <time>2022-06-18T06:56:18Z</time>
      </trkpt>
      <trkpt lat="46.23259" lon="5.42037">
        <ele>311</ele>
        <time>2022-06-18T06:56:21Z</time>
      </trkpt>
      <trkpt lat="46.23283" lon="5.42061">
        <ele>311.4</ele>
        <time>2022-06-18T06:56:26Z</time>
      </trkpt>
      <trkpt lat="46.23324" lon="5.42107">
        <ele>311.6</ele>
        <time>2022-06-18T06:56:34Z</time>
      </trkpt>
      <trkpt lat="46.2337" lon="5.42154">
        <ele>311.4</ele>
        <time>2022-06-18T06:56:42Z</time>
      </trkpt>
      <trkpt lat="46.23401" lon="5.42182">
        <ele>311</ele>
        <time>2022-06-18T06:56:47Z</time>
      </trkpt>
      <trkpt lat="46.23427" lon="5.42205">
        <ele>310.4</ele>
        <time>2022-06-18T06:56:51Z</time>
      </trkpt>
      <trkpt lat="46.23449" lon="5.42223">
        <ele>309.8</ele>
        <time>2022-06-18T06:56:54Z</time>
      </trkpt>
      <trkpt lat="46.23485" lon="5.42247">
        <ele>308.6</ele>
        <time>2022-06-18T06:56:59Z</time>
      </trkpt>
      <trkpt lat="46.23525" lon="5.42262">
        <ele>308</ele>
        <time>2022-06-18T06:57:05Z</time>
      </trkpt>
      <trkpt lat="46.23575" lon="5.42279">
        <ele>308.2</ele>
        <time>2022-06-18T06:57:12Z</time>
      </trkpt>
      <trkpt lat="46.23629" lon="5.42303">
        <ele>308.2</ele>
        <time>2022-06-18T06:57:20Z</time>
      </trkpt>
      <trkpt lat="46.23651" lon="5.42312">
        <ele>307.8</ele>
        <time>2022-06-18T06:57:23Z</time>
      </trkpt>
      <trkpt lat="46.23665" lon="5.42318">
        <ele>307.6</ele>
        <time>2022-06-18T06:57:25Z</time>
      </trkpt>
      <trkpt lat="46.23716" lon="5.4234">
        <ele>307.2</ele>
        <time>2022-06-18T06:57:32Z</time>
      </trkpt>
      <trkpt lat="46.23768" lon="5.42353">
        <ele>306.6</ele>
        <time>2022-06-18T06:57:39Z</time>
      </trkpt>
      <trkpt lat="46.23781" lon="5.42355">
        <ele>306.6</ele>
        <time>2022-06-18T06:57:41Z</time>
      </trkpt>
      <trkpt lat="46.23816" lon="5.42358">
        <ele>306</ele>
        <time>2022-06-18T06:57:46Z</time>
      </trkpt>
      <trkpt lat="46.23861" lon="5.42354">
        <ele>306</ele>
        <time>2022-06-18T06:57:52Z</time>
      </trkpt>
      <trkpt lat="46.23893" lon="5.42341">
        <ele>305.6</ele>
        <time>2022-06-18T06:57:57Z</time>
      </trkpt>
      <trkpt lat="46.239" lon="5.42338">
        <ele>305.6</ele>
        <time>2022-06-18T06:57:58Z</time>
      </trkpt>
      <trkpt lat="46.2395" lon="5.42329">
        <ele>305.8</ele>
        <time>2022-06-18T06:58:05Z</time>
      </trkpt>
      <trkpt lat="46.23991" lon="5.42327">
        <ele>306.6</ele>
        <time>2022-06-18T06:58:11Z</time>
      </trkpt>
      <trkpt lat="46.24015" lon="5.42328">
        <ele>306.8</ele>
        <time>2022-06-18T06:58:15Z</time>
      </trkpt>
      <trkpt lat="46.2406" lon="5.42328">
        <ele>307.4</ele>
        <time>2022-06-18T06:58:22Z</time>
      </trkpt>
      <trkpt lat="46.24071" lon="5.42326">
        <ele>307.8</ele>
        <time>2022-06-18T06:58:24Z</time>
      </trkpt>
      <trkpt lat="46.24088" lon="5.42321">
        <ele>308.6</ele>
        <time>2022-06-18T06:58:27Z</time>
      </trkpt>
      <trkpt lat="46.2413" lon="5.42306">
        <ele>309.6</ele>
        <time>2022-06-18T06:58:34Z</time>
      </trkpt>
      <trkpt lat="46.24154" lon="5.42298">
        <ele>310</ele>
        <time>2022-06-18T06:58:38Z</time>
      </trkpt>
      <trkpt lat="46.24161" lon="5.42298">
        <ele>310.2</ele>
        <time>2022-06-18T06:58:39Z</time>
      </trkpt>
      <trkpt lat="46.24166" lon="5.42298">
        <ele>310.2</ele>
        <time>2022-06-18T06:58:40Z</time>
      </trkpt>
      <trkpt lat="46.24194" lon="5.42302">
        <ele>310.6</ele>
        <time>2022-06-18T06:58:44Z</time>
      </trkpt>
      <trkpt lat="46.24207" lon="5.42303">
        <ele>310.8</ele>
        <time>2022-06-18T06:58:46Z</time>
      </trkpt>
      <trkpt lat="46.24241" lon="5.42303">
        <ele>311</ele>
        <time>2022-06-18T06:58:51Z</time>
      </trkpt>
      <trkpt lat="46.2426" lon="5.42303">
        <ele>311</ele>
        <time>2022-06-18T06:58:54Z</time>
      </trkpt>
      <trkpt lat="46.24272" lon="5.42302">
        <ele>311</ele>
        <time>2022-06-18T06:58:56Z</time>
      </trkpt>
      <trkpt lat="46.24305" lon="5.42298">
        <ele>311.6</ele>
        <time>2022-06-18T06:59:02Z</time>
      </trkpt>
      <trkpt lat="46.2431" lon="5.42298">
        <ele>311.8</ele>
        <time>2022-06-18T06:59:03Z</time>
      </trkpt>
      <trkpt lat="46.24316" lon="5.42297">
        <ele>311.8</ele>
        <time>2022-06-18T06:59:04Z</time>
      </trkpt>
      <trkpt lat="46.24349" lon="5.42295">
        <ele>312.6</ele>
        <time>2022-06-18T06:59:09Z</time>
      </trkpt>
      <trkpt lat="46.24361" lon="5.42295">
        <ele>312.8</ele>
        <time>2022-06-18T06:59:11Z</time>
      </trkpt>
      <trkpt lat="46.24396" lon="5.42293">
        <ele>312.6</ele>
        <time>2022-06-18T06:59:16Z</time>
      </trkpt>
      <trkpt lat="46.24432" lon="5.42292">
        <ele>312.2</ele>
        <time>2022-06-18T06:59:21Z</time>
      </trkpt>
      <trkpt lat="46.24492" lon="5.42295">
        <ele>311.6</ele>
        <time>2022-06-18T06:59:29Z</time>
      </trkpt>
      <trkpt lat="46.24498" lon="5.42296">
        <ele>311.6</ele>
        <time>2022-06-18T06:59:30Z</time>
      </trkpt>
      <trkpt lat="46.24551" lon="5.42307">
        <ele>310.8</ele>
        <time>2022-06-18T06:59:37Z</time>
      </trkpt>
      <trkpt lat="46.24572" lon="5.42313">
        <ele>310.6</ele>
        <time>2022-06-18T06:59:40Z</time>
      </trkpt>
      <trkpt lat="46.24598" lon="5.4232">
        <ele>310.4</ele>
        <time>2022-06-18T06:59:44Z</time>
      </trkpt>
      <trkpt lat="46.24636" lon="5.42332">
        <ele>310.4</ele>
        <time>2022-06-18T06:59:51Z</time>
      </trkpt>
      <trkpt lat="46.24645" lon="5.42338">
        <ele>310.6</ele>
        <time>2022-06-18T06:59:53Z</time>
      </trkpt>
      <trkpt lat="46.24657" lon="5.4234">
        <ele>310.6</ele>
        <time>2022-06-18T06:59:55Z</time>
      </trkpt>
      <trkpt lat="46.24691" lon="5.42343">
        <ele>310.6</ele>
        <time>2022-06-18T07:00:00Z</time>
      </trkpt>
      <trkpt lat="46.24739" lon="5.42348">
        <ele>310.2</ele>
        <time>2022-06-18T07:00:06Z</time>
      </trkpt>
      <trkpt lat="46.24787" lon="5.42355">
        <ele>310.4</ele>
        <time>2022-06-18T07:00:12Z</time>
      </trkpt>
      <trkpt lat="46.24847" lon="5.42364">
        <ele>310.4</ele>
        <time>2022-06-18T07:00:20Z</time>
      </trkpt>
      <trkpt lat="46.24908" lon="5.42372">
        <ele>310.8</ele>
        <time>2022-06-18T07:00:28Z</time>
      </trkpt>
      <trkpt lat="46.24924" lon="5.42374">
        <ele>311</ele>
        <time>2022-06-18T07:00:30Z</time>
      </trkpt>
      <trkpt lat="46.24975" lon="5.4238">
        <ele>311</ele>
        <time>2022-06-18T07:00:37Z</time>
      </trkpt>
      <trkpt lat="46.25035" lon="5.42387">
        <ele>311</ele>
        <time>2022-06-18T07:00:45Z</time>
      </trkpt>
      <trkpt lat="46.25095" lon="5.42394">
        <ele>311</ele>
        <time>2022-06-18T07:00:53Z</time>
      </trkpt>
      <trkpt lat="46.2511" lon="5.42396">
        <ele>311</ele>
        <time>2022-06-18T07:00:55Z</time>
      </trkpt>
      <trkpt lat="46.25169" lon="5.42404">
        <ele>310.6</ele>
        <time>2022-06-18T07:01:03Z</time>
      </trkpt>
      <trkpt lat="46.25228" lon="5.42411">
        <ele>310.8</ele>
        <time>2022-06-18T07:01:11Z</time>
      </trkpt>
      <trkpt lat="46.25235" lon="5.42413">
        <ele>311</ele>
        <time>2022-06-18T07:01:12Z</time>
      </trkpt>
      <trkpt lat="46.25295" lon="5.42423">
        <ele>311.2</ele>
        <time>2022-06-18T07:01:20Z</time>
      </trkpt>
      <trkpt lat="46.25318" lon="5.42426">
        <ele>311.2</ele>
        <time>2022-06-18T07:01:23Z</time>
      </trkpt>
      <trkpt lat="46.25378" lon="5.42436">
        <ele>310.8</ele>
        <time>2022-06-18T07:01:31Z</time>
      </trkpt>
      <trkpt lat="46.25385" lon="5.42438">
        <ele>310.8</ele>
        <time>2022-06-18T07:01:32Z</time>
      </trkpt>
      <trkpt lat="46.2544" lon="5.42446">
        <ele>310.8</ele>
        <time>2022-06-18T07:01:39Z</time>
      </trkpt>
      <trkpt lat="46.25453" lon="5.42448">
        <ele>310.8</ele>
        <time>2022-06-18T07:01:41Z</time>
      </trkpt>
      <trkpt lat="46.25505" lon="5.42457">
        <ele>311</ele>
        <time>2022-06-18T07:01:48Z</time>
      </trkpt>
      <trkpt lat="46.25565" lon="5.42466">
        <ele>311</ele>
        <time>2022-06-18T07:01:56Z</time>
      </trkpt>
      <trkpt lat="46.25624" lon="5.42476">
        <ele>311</ele>
        <time>2022-06-18T07:02:04Z</time>
      </trkpt>
      <trkpt lat="46.25632" lon="5.42477">
        <ele>311</ele>
        <time>2022-06-18T07:02:05Z</time>
      </trkpt>
      <trkpt lat="46.25692" lon="5.42487">
        <ele>311</ele>
        <time>2022-06-18T07:02:13Z</time>
      </trkpt>
      <trkpt lat="46.25707" lon="5.4249">
        <ele>311</ele>
        <time>2022-06-18T07:02:15Z</time>
      </trkpt>
      <trkpt lat="46.25765" lon="5.42499">
        <ele>311.2</ele>
        <time>2022-06-18T07:02:23Z</time>
      </trkpt>
      <trkpt lat="46.2578" lon="5.42501">
        <ele>311.4</ele>
        <time>2022-06-18T07:02:25Z</time>
      </trkpt>
      <trkpt lat="46.25822" lon="5.42508">
        <ele>311.6</ele>
        <time>2022-06-18T07:02:31Z</time>
      </trkpt>
      <trkpt lat="46.25836" lon="5.4251">
        <ele>311.6</ele>
        <time>2022-06-18T07:02:33Z</time>
      </trkpt>
      <trkpt lat="46.25893" lon="5.42519">
        <ele>311.8</ele>
        <time>2022-06-18T07:02:41Z</time>
      </trkpt>
      <trkpt lat="46.25907" lon="5.42521">
        <ele>311.8</ele>
        <time>2022-06-18T07:02:43Z</time>
      </trkpt>
      <trkpt lat="46.25942" lon="5.42526">
        <ele>312.6</ele>
        <time>2022-06-18T07:02:48Z</time>
      </trkpt>
      <trkpt lat="46.25971" lon="5.42531">
        <ele>312.4</ele>
        <time>2022-06-18T07:02:52Z</time>
      </trkpt>
      <trkpt lat="46.2603" lon="5.42541">
        <ele>312</ele>
        <time>2022-06-18T07:03:00Z</time>
      </trkpt>
      <trkpt lat="46.26046" lon="5.42543">
        <ele>312</ele>
        <time>2022-06-18T07:03:02Z</time>
      </trkpt>
      <trkpt lat="46.26101" lon="5.42552">
        <ele>312</ele>
        <time>2022-06-18T07:03:10Z</time>
      </trkpt>
      <trkpt lat="46.26116" lon="5.42554">
        <ele>312</ele>
        <time>2022-06-18T07:03:12Z</time>
      </trkpt>
      <trkpt lat="46.26173" lon="5.42562">
        <ele>312.2</ele>
        <time>2022-06-18T07:03:20Z</time>
      </trkpt>
      <trkpt lat="46.26188" lon="5.42564">
        <ele>312.4</ele>
        <time>2022-06-18T07:03:22Z</time>
      </trkpt>
      <trkpt lat="46.26248" lon="5.42571">
        <ele>312.8</ele>
        <time>2022-06-18T07:03:30Z</time>
      </trkpt>
      <trkpt lat="46.2629" lon="5.42577">
        <ele>313</ele>
        <time>2022-06-18T07:03:36Z</time>
      </trkpt>
      <trkpt lat="46.26299" lon="5.42577">
        <ele>313</ele>
        <time>2022-06-18T07:03:37Z</time>
      </trkpt>
      <trkpt lat="46.26346" lon="5.42584">
        <ele>313</ele>
        <time>2022-06-18T07:03:44Z</time>
      </trkpt>
      <trkpt lat="46.26397" lon="5.4259">
        <ele>313.6</ele>
        <time>2022-06-18T07:03:51Z</time>
      </trkpt>
      <trkpt lat="46.26441" lon="5.42597">
        <ele>313.8</ele>
        <time>2022-06-18T07:03:57Z</time>
      </trkpt>
      <trkpt lat="46.26462" lon="5.42601">
        <ele>313.8</ele>
        <time>2022-06-18T07:04:00Z</time>
      </trkpt>
      <trkpt lat="46.26483" lon="5.42609">
        <ele>313.8</ele>
        <time>2022-06-18T07:04:03Z</time>
      </trkpt>
      <trkpt lat="46.26537" lon="5.42619">
        <ele>314.2</ele>
        <time>2022-06-18T07:04:11Z</time>
      </trkpt>
      <trkpt lat="46.26575" lon="5.42626">
        <ele>314.8</ele>
        <time>2022-06-18T07:04:16Z</time>
      </trkpt>
      <trkpt lat="46.26589" lon="5.42629">
        <ele>314.8</ele>
        <time>2022-06-18T07:04:18Z</time>
      </trkpt>
      <trkpt lat="46.26639" lon="5.42642">
        <ele>314.8</ele>
        <time>2022-06-18T07:04:25Z</time>
      </trkpt>
      <trkpt lat="46.26693" lon="5.42657">
        <ele>314.8</ele>
        <time>2022-06-18T07:04:33Z</time>
      </trkpt>
      <trkpt lat="46.26732" lon="5.42668">
        <ele>315.8</ele>
        <time>2022-06-18T07:04:39Z</time>
      </trkpt>
      <trkpt lat="46.26766" lon="5.42677">
        <ele>315.8</ele>
        <time>2022-06-18T07:04:44Z</time>
      </trkpt>
      <trkpt lat="46.2682" lon="5.4269">
        <ele>315.4</ele>
        <time>2022-06-18T07:04:52Z</time>
      </trkpt>
      <trkpt lat="46.26827" lon="5.42693">
        <ele>315.4</ele>
        <time>2022-06-18T07:04:53Z</time>
      </trkpt>
      <trkpt lat="46.2688" lon="5.42712">
        <ele>315.6</ele>
        <time>2022-06-18T07:05:01Z</time>
      </trkpt>
      <trkpt lat="46.26893" lon="5.42717">
        <ele>316</ele>
        <time>2022-06-18T07:05:03Z</time>
      </trkpt>
      <trkpt lat="46.26918" lon="5.42728">
        <ele>316.8</ele>
        <time>2022-06-18T07:05:07Z</time>
      </trkpt>
      <trkpt lat="46.26946" lon="5.42738">
        <ele>317.2</ele>
        <time>2022-06-18T07:05:11Z</time>
      </trkpt>
      <trkpt lat="46.27001" lon="5.42754">
        <ele>317.4</ele>
        <time>2022-06-18T07:05:19Z</time>
      </trkpt>
      <trkpt lat="46.27008" lon="5.42755">
        <ele>317.4</ele>
        <time>2022-06-18T07:05:20Z</time>
      </trkpt>
      <trkpt lat="46.27048" lon="5.42764">
        <ele>317.8</ele>
        <time>2022-06-18T07:05:26Z</time>
      </trkpt>
      <trkpt lat="46.27073" lon="5.42767">
        <ele>318.4</ele>
        <time>2022-06-18T07:05:30Z</time>
      </trkpt>
      <trkpt lat="46.27096" lon="5.42768">
        <ele>319</ele>
        <time>2022-06-18T07:05:34Z</time>
      </trkpt>
      <trkpt lat="46.27127" lon="5.42771">
        <ele>320.2</ele>
        <time>2022-06-18T07:05:39Z</time>
      </trkpt>
      <trkpt lat="46.27133" lon="5.42772">
        <ele>320.4</ele>
        <time>2022-06-18T07:05:40Z</time>
      </trkpt>
      <trkpt lat="46.27168" lon="5.42784">
        <ele>321.4</ele>
        <time>2022-06-18T07:05:46Z</time>
      </trkpt>
      <trkpt lat="46.2718" lon="5.4279">
        <ele>321.4</ele>
        <time>2022-06-18T07:05:48Z</time>
      </trkpt>
      <trkpt lat="46.27231" lon="5.4282">
        <ele>321.8</ele>
        <time>2022-06-18T07:05:56Z</time>
      </trkpt>
      <trkpt lat="46.27279" lon="5.42852">
        <ele>321.2</ele>
        <time>2022-06-18T07:06:03Z</time>
      </trkpt>
      <trkpt lat="46.27317" lon="5.42877">
        <ele>320.4</ele>
        <time>2022-06-18T07:06:08Z</time>
      </trkpt>
      <trkpt lat="46.27326" lon="5.42881">
        <ele>320.2</ele>
        <time>2022-06-18T07:06:09Z</time>
      </trkpt>
      <trkpt lat="46.27369" lon="5.42898">
        <ele>319.2</ele>
        <time>2022-06-18T07:06:14Z</time>
      </trkpt>
      <trkpt lat="46.27403" lon="5.4291">
        <ele>318</ele>
        <time>2022-06-18T07:06:18Z</time>
      </trkpt>
      <trkpt lat="46.27427" lon="5.42918">
        <ele>317.8</ele>
        <time>2022-06-18T07:06:21Z</time>
      </trkpt>
      <trkpt lat="46.27484" lon="5.42936">
        <ele>317.4</ele>
        <time>2022-06-18T07:06:28Z</time>
      </trkpt>
      <trkpt lat="46.27499" lon="5.42941">
        <ele>317.6</ele>
        <time>2022-06-18T07:06:30Z</time>
      </trkpt>
      <trkpt lat="46.27552" lon="5.42958">
        <ele>318.2</ele>
        <time>2022-06-18T07:06:37Z</time>
      </trkpt>
      <trkpt lat="46.27568" lon="5.42963">
        <ele>318.2</ele>
        <time>2022-06-18T07:06:39Z</time>
      </trkpt>
      <trkpt lat="46.27622" lon="5.42981">
        <ele>317.6</ele>
        <time>2022-06-18T07:06:46Z</time>
      </trkpt>
      <trkpt lat="46.2763" lon="5.42984">
        <ele>317.8</ele>
        <time>2022-06-18T07:06:47Z</time>
      </trkpt>
      <trkpt lat="46.27686" lon="5.43002">
        <ele>317.6</ele>
        <time>2022-06-18T07:06:54Z</time>
      </trkpt>
      <trkpt lat="46.27709" lon="5.43011">
        <ele>317.6</ele>
        <time>2022-06-18T07:06:57Z</time>
      </trkpt>
      <trkpt lat="46.27764" lon="5.43033">
        <ele>317.2</ele>
        <time>2022-06-18T07:07:04Z</time>
      </trkpt>
      <trkpt lat="46.2778" lon="5.4304">
        <ele>317.2</ele>
        <time>2022-06-18T07:07:06Z</time>
      </trkpt>
      <trkpt lat="46.27822" lon="5.43049">
        <ele>316.8</ele>
        <time>2022-06-18T07:07:11Z</time>
      </trkpt>
      <trkpt lat="46.27831" lon="5.43049">
        <ele>316.8</ele>
        <time>2022-06-18T07:07:12Z</time>
      </trkpt>
      <trkpt lat="46.27865" lon="5.43047">
        <ele>316.2</ele>
        <time>2022-06-18T07:07:16Z</time>
      </trkpt>
      <trkpt lat="46.27912" lon="5.43053">
        <ele>316</ele>
        <time>2022-06-18T07:07:22Z</time>
      </trkpt>
      <trkpt lat="46.27967" lon="5.43065">
        <ele>316.2</ele>
        <time>2022-06-18T07:07:29Z</time>
      </trkpt>
      <trkpt lat="46.27982" lon="5.43068">
        <ele>316.4</ele>
        <time>2022-06-18T07:07:31Z</time>
      </trkpt>
      <trkpt lat="46.28037" lon="5.4308">
        <ele>316.6</ele>
        <time>2022-06-18T07:07:38Z</time>
      </trkpt>
      <trkpt lat="46.28051" lon="5.43084">
        <ele>316.6</ele>
        <time>2022-06-18T07:07:40Z</time>
      </trkpt>
      <trkpt lat="46.28107" lon="5.43095">
        <ele>316.8</ele>
        <time>2022-06-18T07:07:47Z</time>
      </trkpt>
      <trkpt lat="46.2816" lon="5.43106">
        <ele>316.8</ele>
        <time>2022-06-18T07:07:54Z</time>
      </trkpt>
      <trkpt lat="46.28184" lon="5.43111">
        <ele>316.8</ele>
        <time>2022-06-18T07:07:57Z</time>
      </trkpt>
      <trkpt lat="46.28238" lon="5.4312">
        <ele>317</ele>
        <time>2022-06-18T07:08:04Z</time>
      </trkpt>
      <trkpt lat="46.28253" lon="5.43123">
        <ele>317</ele>
        <time>2022-06-18T07:08:06Z</time>
      </trkpt>
      <trkpt lat="46.28307" lon="5.43132">
        <ele>317</ele>
        <time>2022-06-18T07:08:13Z</time>
      </trkpt>
      <trkpt lat="46.28322" lon="5.43131">
        <ele>317</ele>
        <time>2022-06-18T07:08:15Z</time>
      </trkpt>
      <trkpt lat="46.28378" lon="5.43126">
        <ele>317.6</ele>
        <time>2022-06-18T07:08:22Z</time>
      </trkpt>
      <trkpt lat="46.28408" lon="5.43121">
        <ele>317.6</ele>
        <time>2022-06-18T07:08:26Z</time>
      </trkpt>
      <trkpt lat="46.28462" lon="5.43114">
        <ele>317.6</ele>
        <time>2022-06-18T07:08:33Z</time>
      </trkpt>
      <trkpt lat="46.28491" lon="5.4311">
        <ele>318</ele>
        <time>2022-06-18T07:08:37Z</time>
      </trkpt>
      <trkpt lat="46.28545" lon="5.43107">
        <ele>318.4</ele>
        <time>2022-06-18T07:08:44Z</time>
      </trkpt>
      <trkpt lat="46.28605" lon="5.43108">
        <ele>318.4</ele>
        <time>2022-06-18T07:08:52Z</time>
      </trkpt>
      <trkpt lat="46.28635" lon="5.43111">
        <ele>318.6</ele>
        <time>2022-06-18T07:08:56Z</time>
      </trkpt>
      <trkpt lat="46.28695" lon="5.43117">
        <ele>318.8</ele>
        <time>2022-06-18T07:09:04Z</time>
      </trkpt>
      <trkpt lat="46.28703" lon="5.43118">
        <ele>318.8</ele>
        <time>2022-06-18T07:09:05Z</time>
      </trkpt>
      <trkpt lat="46.28757" lon="5.43125">
        <ele>318.8</ele>
        <time>2022-06-18T07:09:12Z</time>
      </trkpt>
      <trkpt lat="46.28788" lon="5.43133">
        <ele>318.8</ele>
        <time>2022-06-18T07:09:16Z</time>
      </trkpt>
      <trkpt lat="46.28839" lon="5.43152">
        <ele>319</ele>
        <time>2022-06-18T07:09:23Z</time>
      </trkpt>
      <trkpt lat="46.28846" lon="5.43156">
        <ele>319</ele>
        <time>2022-06-18T07:09:24Z</time>
      </trkpt>
      <trkpt lat="46.28902" lon="5.4318">
        <ele>319.2</ele>
        <time>2022-06-18T07:09:32Z</time>
      </trkpt>
      <trkpt lat="46.28917" lon="5.43186">
        <ele>319.4</ele>
        <time>2022-06-18T07:09:34Z</time>
      </trkpt>
      <trkpt lat="46.28969" lon="5.43209">
        <ele>319.4</ele>
        <time>2022-06-18T07:09:41Z</time>
      </trkpt>
      <trkpt lat="46.28983" lon="5.43217">
        <ele>319.4</ele>
        <time>2022-06-18T07:09:43Z</time>
      </trkpt>
      <trkpt lat="46.29031" lon="5.43256">
        <ele>319.2</ele>
        <time>2022-06-18T07:09:50Z</time>
      </trkpt>
      <trkpt lat="46.29069" lon="5.43293">
        <ele>319.2</ele>
        <time>2022-06-18T07:09:56Z</time>
      </trkpt>
      <trkpt lat="46.29121" lon="5.43339">
        <ele>319.4</ele>
        <time>2022-06-18T07:10:04Z</time>
      </trkpt>
      <trkpt lat="46.29128" lon="5.43345">
        <ele>319.4</ele>
        <time>2022-06-18T07:10:05Z</time>
      </trkpt>
      <trkpt lat="46.29175" lon="5.43379">
        <ele>319.6</ele>
        <time>2022-06-18T07:10:12Z</time>
      </trkpt>
      <trkpt lat="46.29214" lon="5.43402">
        <ele>320.2</ele>
        <time>2022-06-18T07:10:18Z</time>
      </trkpt>
      <trkpt lat="46.29221" lon="5.43405">
        <ele>320.2</ele>
        <time>2022-06-18T07:10:19Z</time>
      </trkpt>
      <trkpt lat="46.29271" lon="5.43422">
        <ele>320.4</ele>
        <time>2022-06-18T07:10:26Z</time>
      </trkpt>
      <trkpt lat="46.29326" lon="5.43446">
        <ele>320.2</ele>
        <time>2022-06-18T07:10:34Z</time>
      </trkpt>
      <trkpt lat="46.29332" lon="5.4345">
        <ele>320.4</ele>
        <time>2022-06-18T07:10:35Z</time>
      </trkpt>
      <trkpt lat="46.29376" lon="5.43477">
        <ele>320.8</ele>
        <time>2022-06-18T07:10:42Z</time>
      </trkpt>
      <trkpt lat="46.29394" lon="5.43489">
        <ele>321.2</ele>
        <time>2022-06-18T07:10:45Z</time>
      </trkpt>
      <trkpt lat="46.2943" lon="5.43513">
        <ele>321.4</ele>
        <time>2022-06-18T07:10:51Z</time>
      </trkpt>
      <trkpt lat="46.29455" lon="5.43527">
        <ele>322.2</ele>
        <time>2022-06-18T07:10:55Z</time>
      </trkpt>
      <trkpt lat="46.29487" lon="5.43544">
        <ele>322.8</ele>
        <time>2022-06-18T07:11:00Z</time>
      </trkpt>
      <trkpt lat="46.29514" lon="5.43558">
        <ele>323.2</ele>
        <time>2022-06-18T07:11:04Z</time>
      </trkpt>
      <trkpt lat="46.2954" lon="5.43571">
        <ele>323.4</ele>
        <time>2022-06-18T07:11:08Z</time>
      </trkpt>
      <trkpt lat="46.29592" lon="5.436">
        <ele>323.4</ele>
        <time>2022-06-18T07:11:16Z</time>
      </trkpt>
      <trkpt lat="46.29612" lon="5.43611">
        <ele>323.4</ele>
        <time>2022-06-18T07:11:19Z</time>
      </trkpt>
      <trkpt lat="46.29663" lon="5.43637">
        <ele>324</ele>
        <time>2022-06-18T07:11:27Z</time>
      </trkpt>
      <trkpt lat="46.29676" lon="5.43644">
        <ele>323.8</ele>
        <time>2022-06-18T07:11:29Z</time>
      </trkpt>
      <trkpt lat="46.29731" lon="5.43673">
        <ele>323.8</ele>
        <time>2022-06-18T07:11:37Z</time>
      </trkpt>
      <trkpt lat="46.29738" lon="5.43676">
        <ele>324</ele>
        <time>2022-06-18T07:11:38Z</time>
      </trkpt>
      <trkpt lat="46.29794" lon="5.43704">
        <ele>324.4</ele>
        <time>2022-06-18T07:11:46Z</time>
      </trkpt>
      <trkpt lat="46.29808" lon="5.43711">
        <ele>324.4</ele>
        <time>2022-06-18T07:11:48Z</time>
      </trkpt>
      <trkpt lat="46.29814" lon="5.43715">
        <ele>324.4</ele>
        <time>2022-06-18T07:11:49Z</time>
      </trkpt>
      <trkpt lat="46.29867" lon="5.43739">
        <ele>324.6</ele>
        <time>2022-06-18T07:11:57Z</time>
      </trkpt>
      <trkpt lat="46.29876" lon="5.43742">
        <ele>324.8</ele>
        <time>2022-06-18T07:11:58Z</time>
      </trkpt>
      <trkpt lat="46.29931" lon="5.43766">
        <ele>325</ele>
        <time>2022-06-18T07:12:06Z</time>
      </trkpt>
      <trkpt lat="46.29944" lon="5.43771">
        <ele>325</ele>
        <time>2022-06-18T07:12:08Z</time>
      </trkpt>
      <trkpt lat="46.3" lon="5.43795">
        <ele>325.2</ele>
        <time>2022-06-18T07:12:16Z</time>
      </trkpt>
      <trkpt lat="46.30014" lon="5.43802">
        <ele>325.2</ele>
        <time>2022-06-18T07:12:18Z</time>
      </trkpt>
      <trkpt lat="46.30068" lon="5.4383">
        <ele>325.2</ele>
        <time>2022-06-18T07:12:26Z</time>
      </trkpt>
      <trkpt lat="46.30081" lon="5.43837">
        <ele>325.2</ele>
        <time>2022-06-18T07:12:28Z</time>
      </trkpt>
      <trkpt lat="46.30114" lon="5.43854">
        <ele>325.6</ele>
        <time>2022-06-18T07:12:33Z</time>
      </trkpt>
      <trkpt lat="46.3016" lon="5.43879">
        <ele>326</ele>
        <time>2022-06-18T07:12:40Z</time>
      </trkpt>
      <trkpt lat="46.30214" lon="5.43906">
        <ele>326.4</ele>
        <time>2022-06-18T07:12:48Z</time>
      </trkpt>
      <trkpt lat="46.30219" lon="5.43909">
        <ele>326.6</ele>
        <time>2022-06-18T07:12:49Z</time>
      </trkpt>
      <trkpt lat="46.30226" lon="5.43912">
        <ele>326.6</ele>
        <time>2022-06-18T07:12:50Z</time>
      </trkpt>
      <trkpt lat="46.30281" lon="5.43939">
        <ele>327</ele>
        <time>2022-06-18T07:12:58Z</time>
      </trkpt>
      <trkpt lat="46.30338" lon="5.43967">
        <ele>326.4</ele>
        <time>2022-06-18T07:13:06Z</time>
      </trkpt>
      <trkpt lat="46.30352" lon="5.43975">
        <ele>326.2</ele>
        <time>2022-06-18T07:13:08Z</time>
      </trkpt>
      <trkpt lat="46.30408" lon="5.44">
        <ele>326.2</ele>
        <time>2022-06-18T07:13:16Z</time>
      </trkpt>
      <trkpt lat="46.30422" lon="5.44005">
        <ele>326.2</ele>
        <time>2022-06-18T07:13:18Z</time>
      </trkpt>
      <trkpt lat="46.30472" lon="5.44018">
        <ele>326.6</ele>
        <time>2022-06-18T07:13:25Z</time>
      </trkpt>
      <trkpt lat="46.30514" lon="5.44029">
        <ele>326.6</ele>
        <time>2022-06-18T07:13:31Z</time>
      </trkpt>
      <trkpt lat="46.30519" lon="5.4403">
        <ele>327</ele>
        <time>2022-06-18T07:13:32Z</time>
      </trkpt>
      <trkpt lat="46.30552" lon="5.44036">
        <ele>327.8</ele>
        <time>2022-06-18T07:13:37Z</time>
      </trkpt>
      <trkpt lat="46.30571" lon="5.44038">
        <ele>328.8</ele>
        <time>2022-06-18T07:13:40Z</time>
      </trkpt>
      <trkpt lat="46.30578" lon="5.44039">
        <ele>328.8</ele>
        <time>2022-06-18T07:13:41Z</time>
      </trkpt>
      <trkpt lat="46.30615" lon="5.44042">
        <ele>329.8</ele>
        <time>2022-06-18T07:13:47Z</time>
      </trkpt>
      <trkpt lat="46.30621" lon="5.44043">
        <ele>329.8</ele>
        <time>2022-06-18T07:13:48Z</time>
      </trkpt>
      <trkpt lat="46.30666" lon="5.44051">
        <ele>331</ele>
        <time>2022-06-18T07:13:55Z</time>
      </trkpt>
      <trkpt lat="46.30672" lon="5.44051">
        <ele>331.2</ele>
        <time>2022-06-18T07:13:56Z</time>
      </trkpt>
      <trkpt lat="46.30714" lon="5.44046">
        <ele>331.4</ele>
        <time>2022-06-18T07:14:02Z</time>
      </trkpt>
      <trkpt lat="46.30752" lon="5.44033">
        <ele>331.2</ele>
        <time>2022-06-18T07:14:07Z</time>
      </trkpt>
      <trkpt lat="46.30795" lon="5.4402">
        <ele>329.8</ele>
        <time>2022-06-18T07:14:12Z</time>
      </trkpt>
      <trkpt lat="46.30803" lon="5.4402">
        <ele>329.6</ele>
        <time>2022-06-18T07:14:13Z</time>
      </trkpt>
      <trkpt lat="46.30833" lon="5.44025">
        <ele>328.6</ele>
        <time>2022-06-18T07:14:16Z</time>
      </trkpt>
      <trkpt lat="46.3085" lon="5.44029">
        <ele>327.6</ele>
        <time>2022-06-18T07:14:18Z</time>
      </trkpt>
      <trkpt lat="46.30859" lon="5.44032">
        <ele>327</ele>
        <time>2022-06-18T07:14:19Z</time>
      </trkpt>
      <trkpt lat="46.3091" lon="5.44052">
        <ele>326.2</ele>
        <time>2022-06-18T07:14:25Z</time>
      </trkpt>
      <trkpt lat="46.3092" lon="5.44058">
        <ele>326</ele>
        <time>2022-06-18T07:14:26Z</time>
      </trkpt>
      <trkpt lat="46.30962" lon="5.44087">
        <ele>326</ele>
        <time>2022-06-18T07:14:32Z</time>
      </trkpt>
      <trkpt lat="46.31008" lon="5.44119">
        <ele>326.6</ele>
        <time>2022-06-18T07:14:39Z</time>
      </trkpt>
      <trkpt lat="46.31026" lon="5.44131">
        <ele>327</ele>
        <time>2022-06-18T07:14:42Z</time>
      </trkpt>
      <trkpt lat="46.3105" lon="5.44153">
        <ele>328.2</ele>
        <time>2022-06-18T07:14:46Z</time>
      </trkpt>
      <trkpt lat="46.31097" lon="5.44192">
        <ele>329.2</ele>
        <time>2022-06-18T07:14:54Z</time>
      </trkpt>
      <trkpt lat="46.31102" lon="5.44196">
        <ele>329.4</ele>
        <time>2022-06-18T07:14:55Z</time>
      </trkpt>
      <trkpt lat="46.31125" lon="5.44217">
        <ele>330.2</ele>
        <time>2022-06-18T07:14:59Z</time>
      </trkpt>
      <trkpt lat="46.31157" lon="5.44245">
        <ele>330.8</ele>
        <time>2022-06-18T07:15:04Z</time>
      </trkpt>
      <trkpt lat="46.312" lon="5.44279">
        <ele>331.2</ele>
        <time>2022-06-18T07:15:11Z</time>
      </trkpt>
      <trkpt lat="46.31217" lon="5.44286">
        <ele>331.4</ele>
        <time>2022-06-18T07:15:14Z</time>
      </trkpt>
      <trkpt lat="46.31243" lon="5.44296">
        <ele>331.8</ele>
        <time>2022-06-18T07:15:18Z</time>
      </trkpt>
      <trkpt lat="46.31297" lon="5.44318">
        <ele>332.4</ele>
        <time>2022-06-18T07:15:26Z</time>
      </trkpt>
      <trkpt lat="46.31303" lon="5.4432">
        <ele>332.4</ele>
        <time>2022-06-18T07:15:27Z</time>
      </trkpt>
      <trkpt lat="46.3131" lon="5.44323">
        <ele>332.4</ele>
        <time>2022-06-18T07:15:28Z</time>
      </trkpt>
      <trkpt lat="46.31357" lon="5.44343">
        <ele>332.6</ele>
        <time>2022-06-18T07:15:35Z</time>
      </trkpt>
      <trkpt lat="46.31418" lon="5.44367">
        <ele>332.2</ele>
        <time>2022-06-18T07:15:43Z</time>
      </trkpt>
      <trkpt lat="46.31432" lon="5.44373">
        <ele>332</ele>
        <time>2022-06-18T07:15:45Z</time>
      </trkpt>
      <trkpt lat="46.31455" lon="5.44382">
        <ele>331.4</ele>
        <time>2022-06-18T07:15:48Z</time>
      </trkpt>
      <trkpt lat="46.31502" lon="5.444">
        <ele>331</ele>
        <time>2022-06-18T07:15:54Z</time>
      </trkpt>
      <trkpt lat="46.31561" lon="5.44417">
        <ele>330.6</ele>
        <time>2022-06-18T07:16:02Z</time>
      </trkpt>
      <trkpt lat="46.31613" lon="5.44424">
        <ele>330.6</ele>
        <time>2022-06-18T07:16:09Z</time>
      </trkpt>
      <trkpt lat="46.31672" lon="5.4443">
        <ele>330.6</ele>
        <time>2022-06-18T07:16:17Z</time>
      </trkpt>
      <trkpt lat="46.31686" lon="5.44431">
        <ele>330.6</ele>
        <time>2022-06-18T07:16:19Z</time>
      </trkpt>
      <trkpt lat="46.31745" lon="5.44432">
        <ele>331</ele>
        <time>2022-06-18T07:16:27Z</time>
      </trkpt>
      <trkpt lat="46.31804" lon="5.44435">
        <ele>331</ele>
        <time>2022-06-18T07:16:35Z</time>
      </trkpt>
      <trkpt lat="46.31811" lon="5.44435">
        <ele>331</ele>
        <time>2022-06-18T07:16:36Z</time>
      </trkpt>
      <trkpt lat="46.31871" lon="5.44439">
        <ele>330.8</ele>
        <time>2022-06-18T07:16:44Z</time>
      </trkpt>
      <trkpt lat="46.31908" lon="5.44441">
        <ele>330.4</ele>
        <time>2022-06-18T07:16:49Z</time>
      </trkpt>
      <trkpt lat="46.31937" lon="5.44443">
        <ele>330.4</ele>
        <time>2022-06-18T07:16:53Z</time>
      </trkpt>
      <trkpt lat="46.31989" lon="5.44446">
        <ele>331.2</ele>
        <time>2022-06-18T07:17:00Z</time>
      </trkpt>
      <trkpt lat="46.32006" lon="5.44446">
        <ele>331.4</ele>
        <time>2022-06-18T07:17:02Z</time>
      </trkpt>
      <trkpt lat="46.32056" lon="5.4445">
        <ele>331.4</ele>
        <time>2022-06-18T07:17:09Z</time>
      </trkpt>
      <trkpt lat="46.32115" lon="5.44452">
        <ele>331</ele>
        <time>2022-06-18T07:17:17Z</time>
      </trkpt>
      <trkpt lat="46.32132" lon="5.44452">
        <ele>330.4</ele>
        <time>2022-06-18T07:17:19Z</time>
      </trkpt>
      <trkpt lat="46.32147" lon="5.44453">
        <ele>330.2</ele>
        <time>2022-06-18T07:17:21Z</time>
      </trkpt>
      <trkpt lat="46.32165" lon="5.44453">
        <ele>329.8</ele>
        <time>2022-06-18T07:17:23Z</time>
      </trkpt>
      <trkpt lat="46.32218" lon="5.44456">
        <ele>329.4</ele>
        <time>2022-06-18T07:17:30Z</time>
      </trkpt>
      <trkpt lat="46.32274" lon="5.4446">
        <ele>328.8</ele>
        <time>2022-06-18T07:17:38Z</time>
      </trkpt>
      <trkpt lat="46.32287" lon="5.44462">
        <ele>329</ele>
        <time>2022-06-18T07:17:40Z</time>
      </trkpt>
      <trkpt lat="46.32341" lon="5.44468">
        <ele>329.8</ele>
        <time>2022-06-18T07:17:48Z</time>
      </trkpt>
      <trkpt lat="46.32346" lon="5.44468">
        <ele>330</ele>
        <time>2022-06-18T07:17:49Z</time>
      </trkpt>
      <trkpt lat="46.32367" lon="5.44469">
        <ele>330.4</ele>
        <time>2022-06-18T07:17:52Z</time>
      </trkpt>
      <trkpt lat="46.324" lon="5.4447">
        <ele>331.4</ele>
        <time>2022-06-18T07:17:57Z</time>
      </trkpt>
      <trkpt lat="46.32407" lon="5.4447">
        <ele>331.4</ele>
        <time>2022-06-18T07:17:58Z</time>
      </trkpt>
      <trkpt lat="46.32458" lon="5.44473">
        <ele>331.8</ele>
        <time>2022-06-18T07:18:05Z</time>
      </trkpt>
      <trkpt lat="46.32516" lon="5.44479">
        <ele>331.4</ele>
        <time>2022-06-18T07:18:13Z</time>
      </trkpt>
      <trkpt lat="46.32522" lon="5.4448">
        <ele>331.4</ele>
        <time>2022-06-18T07:18:14Z</time>
      </trkpt>
      <trkpt lat="46.32576" lon="5.44488">
        <ele>332</ele>
        <time>2022-06-18T07:18:22Z</time>
      </trkpt>
      <trkpt lat="46.3263" lon="5.44499">
        <ele>332.4</ele>
        <time>2022-06-18T07:18:30Z</time>
      </trkpt>
      <trkpt lat="46.32639" lon="5.44501">
        <ele>332.2</ele>
        <time>2022-06-18T07:18:31Z</time>
      </trkpt>
      <trkpt lat="46.32687" lon="5.44505">
        <ele>331.6</ele>
        <time>2022-06-18T07:18:38Z</time>
      </trkpt>
      <trkpt lat="46.32737" lon="5.44495">
        <ele>331</ele>
        <time>2022-06-18T07:18:45Z</time>
      </trkpt>
      <trkpt lat="46.32793" lon="5.44473">
        <ele>330.8</ele>
        <time>2022-06-18T07:18:53Z</time>
      </trkpt>
      <trkpt lat="46.328" lon="5.4447">
        <ele>330.6</ele>
        <time>2022-06-18T07:18:54Z</time>
      </trkpt>
      <trkpt lat="46.32841" lon="5.44447">
        <ele>330.8</ele>
        <time>2022-06-18T07:19:00Z</time>
      </trkpt>
      <trkpt lat="46.32865" lon="5.44437">
        <ele>330.2</ele>
        <time>2022-06-18T07:19:03Z</time>
      </trkpt>
      <trkpt lat="46.32882" lon="5.44432">
        <ele>329.8</ele>
        <time>2022-06-18T07:19:05Z</time>
      </trkpt>
      <trkpt lat="46.32928" lon="5.44422">
        <ele>329.2</ele>
        <time>2022-06-18T07:19:11Z</time>
      </trkpt>
      <trkpt lat="46.32936" lon="5.44421">
        <ele>329.2</ele>
        <time>2022-06-18T07:19:12Z</time>
      </trkpt>
      <trkpt lat="46.32989" lon="5.44403">
        <ele>329.4</ele>
        <time>2022-06-18T07:19:19Z</time>
      </trkpt>
      <trkpt lat="46.32996" lon="5.44399">
        <ele>329.4</ele>
        <time>2022-06-18T07:19:20Z</time>
      </trkpt>
      <trkpt lat="46.33044" lon="5.44377">
        <ele>329.4</ele>
        <time>2022-06-18T07:19:27Z</time>
      </trkpt>
      <trkpt lat="46.33079" lon="5.44378">
        <ele>329.6</ele>
        <time>2022-06-18T07:19:32Z</time>
      </trkpt>
      <trkpt lat="46.33107" lon="5.44381">
        <ele>329.6</ele>
        <time>2022-06-18T07:19:36Z</time>
      </trkpt>
      <trkpt lat="46.33123" lon="5.44388">
        <ele>329.6</ele>
        <time>2022-06-18T07:19:38Z</time>
      </trkpt>
      <trkpt lat="46.33135" lon="5.44402">
        <ele>329.4</ele>
        <time>2022-06-18T07:19:40Z</time>
      </trkpt>
      <trkpt lat="46.3314" lon="5.4441">
        <ele>329.4</ele>
        <time>2022-06-18T07:19:41Z</time>
      </trkpt>
      <trkpt lat="46.33144" lon="5.4442">
        <ele>329.2</ele>
        <time>2022-06-18T07:19:42Z</time>
      </trkpt>
      <trkpt lat="46.33149" lon="5.44441">
        <ele>329</ele>
        <time>2022-06-18T07:19:44Z</time>
      </trkpt>
      <trkpt lat="46.33157" lon="5.44506">
        <ele>328.6</ele>
        <time>2022-06-18T07:19:50Z</time>
      </trkpt>
      <trkpt lat="46.33162" lon="5.44525">
        <ele>328.6</ele>
        <time>2022-06-18T07:19:52Z</time>
      </trkpt>
      <trkpt lat="46.33166" lon="5.44533">
        <ele>328.6</ele>
        <time>2022-06-18T07:19:53Z</time>
      </trkpt>
      <trkpt lat="46.33184" lon="5.44564">
        <ele>329.2</ele>
        <time>2022-06-18T07:19:58Z</time>
      </trkpt>
      <trkpt lat="46.33198" lon="5.44592">
        <ele>330.8</ele>
        <time>2022-06-18T07:20:03Z</time>
      </trkpt>
      <trkpt lat="46.33203" lon="5.44603">
        <ele>331.6</ele>
        <time>2022-06-18T07:20:05Z</time>
      </trkpt>
      <trkpt lat="46.33205" lon="5.44608">
        <ele>331.8</ele>
        <time>2022-06-18T07:20:06Z</time>
      </trkpt>
      <trkpt lat="46.33213" lon="5.44622">
        <ele>333</ele>
        <time>2022-06-18T07:20:09Z</time>
      </trkpt>
      <trkpt lat="46.33221" lon="5.44633">
        <ele>334.2</ele>
        <time>2022-06-18T07:20:12Z</time>
      </trkpt>
      <trkpt lat="46.33234" lon="5.44647">
        <ele>335.6</ele>
        <time>2022-06-18T07:20:16Z</time>
      </trkpt>
      <trkpt lat="46.33244" lon="5.44656">
        <ele>336.8</ele>
        <time>2022-06-18T07:20:19Z</time>
      </trkpt>
      <trkpt lat="46.33251" lon="5.44663">
        <ele>337.2</ele>
        <time>2022-06-18T07:20:21Z</time>
      </trkpt>
      <trkpt lat="46.33266" lon="5.4468">
        <ele>338</ele>
        <time>2022-06-18T07:20:26Z</time>
      </trkpt>
      <trkpt lat="46.33276" lon="5.44692">
        <ele>339</ele>
        <time>2022-06-18T07:20:29Z</time>
      </trkpt>
      <trkpt lat="46.33279" lon="5.44695">
        <ele>339.4</ele>
        <time>2022-06-18T07:20:30Z</time>
      </trkpt>
      <trkpt lat="46.33306" lon="5.44727">
        <ele>340.8</ele>
        <time>2022-06-18T07:20:39Z</time>
      </trkpt>
      <trkpt lat="46.33323" lon="5.44749">
        <ele>341.8</ele>
        <time>2022-06-18T07:20:45Z</time>
      </trkpt>
      <trkpt lat="46.33335" lon="5.44764">
        <ele>342.8</ele>
        <time>2022-06-18T07:20:49Z</time>
      </trkpt>
      <trkpt lat="46.33341" lon="5.44773">
        <ele>343.2</ele>
        <time>2022-06-18T07:20:51Z</time>
      </trkpt>
      <trkpt lat="46.33358" lon="5.448">
        <ele>344</ele>
        <time>2022-06-18T07:20:57Z</time>
      </trkpt>
      <trkpt lat="46.33366" lon="5.44815">
        <ele>344.4</ele>
        <time>2022-06-18T07:21:00Z</time>
      </trkpt>
      <trkpt lat="46.33379" lon="5.44839">
        <ele>345</ele>
        <time>2022-06-18T07:21:05Z</time>
      </trkpt>
      <trkpt lat="46.33389" lon="5.44855">
        <ele>345.4</ele>
        <time>2022-06-18T07:21:09Z</time>
      </trkpt>
      <trkpt lat="46.33397" lon="5.44867">
        <ele>346.6</ele>
        <time>2022-06-18T07:21:12Z</time>
      </trkpt>
      <trkpt lat="46.33412" lon="5.44886">
        <ele>347.6</ele>
        <time>2022-06-18T07:21:17Z</time>
      </trkpt>
      <trkpt lat="46.33415" lon="5.44891">
        <ele>347.6</ele>
        <time>2022-06-18T07:21:18Z</time>
      </trkpt>
      <trkpt lat="46.33448" lon="5.44932">
        <ele>348.6</ele>
        <time>2022-06-18T07:21:27Z</time>
      </trkpt>
      <trkpt lat="46.33481" lon="5.44972">
        <ele>348.4</ele>
        <time>2022-06-18T07:21:34Z</time>
      </trkpt>
      <trkpt lat="46.33512" lon="5.45015">
        <ele>348.4</ele>
        <time>2022-06-18T07:21:41Z</time>
      </trkpt>
      <trkpt lat="46.33521" lon="5.45038">
        <ele>348.4</ele>
        <time>2022-06-18T07:21:44Z</time>
      </trkpt>
      <trkpt lat="46.33525" lon="5.45055">
        <ele>348.4</ele>
        <time>2022-06-18T07:21:46Z</time>
      </trkpt>
      <trkpt lat="46.3353" lon="5.4513">
        <ele>348.6</ele>
        <time>2022-06-18T07:21:54Z</time>
      </trkpt>
      <trkpt lat="46.33526" lon="5.45214">
        <ele>348.8</ele>
        <time>2022-06-18T07:22:03Z</time>
      </trkpt>
      <trkpt lat="46.33519" lon="5.45291">
        <ele>349</ele>
        <time>2022-06-18T07:22:11Z</time>
      </trkpt>
      <trkpt lat="46.33519" lon="5.45301">
        <ele>349</ele>
        <time>2022-06-18T07:22:12Z</time>
      </trkpt>
      <trkpt lat="46.33522" lon="5.4532">
        <ele>348.8</ele>
        <time>2022-06-18T07:22:14Z</time>
      </trkpt>
      <trkpt lat="46.33525" lon="5.4533">
        <ele>348.8</ele>
        <time>2022-06-18T07:22:15Z</time>
      </trkpt>
      <trkpt lat="46.33546" lon="5.45393">
        <ele>348</ele>
        <time>2022-06-18T07:22:22Z</time>
      </trkpt>
      <trkpt lat="46.33552" lon="5.45412">
        <ele>347.4</ele>
        <time>2022-06-18T07:22:24Z</time>
      </trkpt>
      <trkpt lat="46.33571" lon="5.45473">
        <ele>347.6</ele>
        <time>2022-06-18T07:22:31Z</time>
      </trkpt>
      <trkpt lat="46.33584" lon="5.4551">
        <ele>348.4</ele>
        <time>2022-06-18T07:22:36Z</time>
      </trkpt>
      <trkpt lat="46.33591" lon="5.45525">
        <ele>349.2</ele>
        <time>2022-06-18T07:22:38Z</time>
      </trkpt>
      <trkpt lat="46.33602" lon="5.45551">
        <ele>349.8</ele>
        <time>2022-06-18T07:22:42Z</time>
      </trkpt>
      <trkpt lat="46.33608" lon="5.45568">
        <ele>351</ele>
        <time>2022-06-18T07:22:45Z</time>
      </trkpt>
      <trkpt lat="46.3361" lon="5.45576">
        <ele>351.2</ele>
        <time>2022-06-18T07:22:46Z</time>
      </trkpt>
      <trkpt lat="46.33612" lon="5.45582">
        <ele>351.6</ele>
        <time>2022-06-18T07:22:47Z</time>
      </trkpt>
      <trkpt lat="46.33613" lon="5.45594">
        <ele>352.2</ele>
        <time>2022-06-18T07:22:49Z</time>
      </trkpt>
      <trkpt lat="46.33613" lon="5.456">
        <ele>352.4</ele>
        <time>2022-06-18T07:22:50Z</time>
      </trkpt>
      <trkpt lat="46.33613" lon="5.45605">
        <ele>352.8</ele>
        <time>2022-06-18T07:22:51Z</time>
      </trkpt>
      <trkpt lat="46.33613" lon="5.45611">
        <ele>353.4</ele>
        <time>2022-06-18T07:22:52Z</time>
      </trkpt>
      <trkpt lat="46.33611" lon="5.45624">
        <ele>354</ele>
        <time>2022-06-18T07:22:54Z</time>
      </trkpt>
      <trkpt lat="46.3361" lon="5.4563">
        <ele>354.2</ele>
        <time>2022-06-18T07:22:55Z</time>
      </trkpt>
      <trkpt lat="46.33609" lon="5.45636">
        <ele>354.6</ele>
        <time>2022-06-18T07:22:56Z</time>
      </trkpt>
      <trkpt lat="46.33605" lon="5.45645">
        <ele>355.2</ele>
        <time>2022-06-18T07:22:58Z</time>
      </trkpt>
      <trkpt lat="46.33599" lon="5.45656">
        <ele>355.8</ele>
        <time>2022-06-18T07:23:00Z</time>
      </trkpt>
      <trkpt lat="46.33593" lon="5.45664">
        <ele>356.6</ele>
        <time>2022-06-18T07:23:02Z</time>
      </trkpt>
      <trkpt lat="46.33589" lon="5.45669">
        <ele>357</ele>
        <time>2022-06-18T07:23:03Z</time>
      </trkpt>
      <trkpt lat="46.33579" lon="5.45678">
        <ele>357.8</ele>
        <time>2022-06-18T07:23:06Z</time>
      </trkpt>
      <trkpt lat="46.33571" lon="5.45683">
        <ele>358.2</ele>
        <time>2022-06-18T07:23:08Z</time>
      </trkpt>
      <trkpt lat="46.33559" lon="5.45691">
        <ele>359.4</ele>
        <time>2022-06-18T07:23:12Z</time>
      </trkpt>
      <trkpt lat="46.3355" lon="5.45696">
        <ele>360.6</ele>
        <time>2022-06-18T07:23:15Z</time>
      </trkpt>
      <trkpt lat="46.33538" lon="5.45702">
        <ele>362.2</ele>
        <time>2022-06-18T07:23:19Z</time>
      </trkpt>
      <trkpt lat="46.33525" lon="5.45709">
        <ele>363.2</ele>
        <time>2022-06-18T07:23:23Z</time>
      </trkpt>
      <trkpt lat="46.33518" lon="5.45714">
        <ele>363.4</ele>
        <time>2022-06-18T07:23:26Z</time>
      </trkpt>
      <trkpt lat="46.33509" lon="5.45719">
        <ele>364.2</ele>
        <time>2022-06-18T07:23:29Z</time>
      </trkpt>
      <trkpt lat="46.33494" lon="5.45731">
        <ele>365.2</ele>
        <time>2022-06-18T07:23:34Z</time>
      </trkpt>
      <trkpt lat="46.33491" lon="5.45734">
        <ele>365.4</ele>
        <time>2022-06-18T07:23:35Z</time>
      </trkpt>
      <trkpt lat="46.33472" lon="5.45756">
        <ele>366.6</ele>
        <time>2022-06-18T07:23:42Z</time>
      </trkpt>
      <trkpt lat="46.33458" lon="5.45787">
        <ele>367.8</ele>
        <time>2022-06-18T07:23:49Z</time>
      </trkpt>
      <trkpt lat="46.33458" lon="5.45816">
        <ele>369</ele>
        <time>2022-06-18T07:23:54Z</time>
      </trkpt>
      <trkpt lat="46.3346" lon="5.45822">
        <ele>369</ele>
        <time>2022-06-18T07:23:55Z</time>
      </trkpt>
      <trkpt lat="46.33464" lon="5.45834">
        <ele>369.4</ele>
        <time>2022-06-18T07:23:57Z</time>
      </trkpt>
      <trkpt lat="46.33469" lon="5.45845">
        <ele>369.6</ele>
        <time>2022-06-18T07:23:59Z</time>
      </trkpt>
      <trkpt lat="46.33488" lon="5.45881">
        <ele>370</ele>
        <time>2022-06-18T07:24:06Z</time>
      </trkpt>
      <trkpt lat="46.33496" lon="5.45895">
        <ele>370.4</ele>
        <time>2022-06-18T07:24:09Z</time>
      </trkpt>
      <trkpt lat="46.33504" lon="5.45908">
        <ele>371</ele>
        <time>2022-06-18T07:24:12Z</time>
      </trkpt>
      <trkpt lat="46.33518" lon="5.45929">
        <ele>372.2</ele>
        <time>2022-06-18T07:24:17Z</time>
      </trkpt>
      <trkpt lat="46.33525" lon="5.45935">
        <ele>372.4</ele>
        <time>2022-06-18T07:24:19Z</time>
      </trkpt>
      <trkpt lat="46.3354" lon="5.45947">
        <ele>373.4</ele>
        <time>2022-06-18T07:24:23Z</time>
      </trkpt>
      <trkpt lat="46.33556" lon="5.45956">
        <ele>374</ele>
        <time>2022-06-18T07:24:27Z</time>
      </trkpt>
      <trkpt lat="46.33569" lon="5.4596">
        <ele>374.4</ele>
        <time>2022-06-18T07:24:30Z</time>
      </trkpt>
      <trkpt lat="46.33585" lon="5.45967">
        <ele>375.4</ele>
        <time>2022-06-18T07:24:34Z</time>
      </trkpt>
      <trkpt lat="46.33588" lon="5.45968">
        <ele>375.6</ele>
        <time>2022-06-18T07:24:35Z</time>
      </trkpt>
      <trkpt lat="46.33598" lon="5.45973">
        <ele>376</ele>
        <time>2022-06-18T07:24:37Z</time>
      </trkpt>
      <trkpt lat="46.33611" lon="5.4598">
        <ele>376.6</ele>
        <time>2022-06-18T07:24:40Z</time>
      </trkpt>
      <trkpt lat="46.33632" lon="5.45994">
        <ele>377.6</ele>
        <time>2022-06-18T07:24:45Z</time>
      </trkpt>
      <trkpt lat="46.33636" lon="5.45997">
        <ele>377.6</ele>
        <time>2022-06-18T07:24:46Z</time>
      </trkpt>
      <trkpt lat="46.33656" lon="5.46009">
        <ele>378.6</ele>
        <time>2022-06-18T07:24:51Z</time>
      </trkpt>
      <trkpt lat="46.33663" lon="5.46013">
        <ele>379.4</ele>
        <time>2022-06-18T07:24:53Z</time>
      </trkpt>
      <trkpt lat="46.33667" lon="5.46015">
        <ele>380</ele>
        <time>2022-06-18T07:24:54Z</time>
      </trkpt>
      <trkpt lat="46.33674" lon="5.4602">
        <ele>380.4</ele>
        <time>2022-06-18T07:24:56Z</time>
      </trkpt>
      <trkpt lat="46.33686" lon="5.46026">
        <ele>381.2</ele>
        <time>2022-06-18T07:24:59Z</time>
      </trkpt>
      <trkpt lat="46.33693" lon="5.4603">
        <ele>381.8</ele>
        <time>2022-06-18T07:25:01Z</time>
      </trkpt>
      <trkpt lat="46.33704" lon="5.46038">
        <ele>382.6</ele>
        <time>2022-06-18T07:25:04Z</time>
      </trkpt>
      <trkpt lat="46.33723" lon="5.46049">
        <ele>383.6</ele>
        <time>2022-06-18T07:25:09Z</time>
      </trkpt>
      <trkpt lat="46.33727" lon="5.4605">
        <ele>383.8</ele>
        <time>2022-06-18T07:25:10Z</time>
      </trkpt>
      <trkpt lat="46.33741" lon="5.46054">
        <ele>385</ele>
        <time>2022-06-18T07:25:14Z</time>
      </trkpt>
      <trkpt lat="46.33745" lon="5.46054">
        <ele>385.2</ele>
        <time>2022-06-18T07:25:15Z</time>
      </trkpt>
      <trkpt lat="46.33752" lon="5.46054">
        <ele>386</ele>
        <time>2022-06-18T07:25:17Z</time>
      </trkpt>
      <trkpt lat="46.33765" lon="5.46053">
        <ele>386.6</ele>
        <time>2022-06-18T07:25:21Z</time>
      </trkpt>
      <trkpt lat="46.3377" lon="5.46051">
        <ele>387</ele>
        <time>2022-06-18T07:25:23Z</time>
      </trkpt>
      <trkpt lat="46.33777" lon="5.4605">
        <ele>387.4</ele>
        <time>2022-06-18T07:25:25Z</time>
      </trkpt>
      <trkpt lat="46.33789" lon="5.46049">
        <ele>388.2</ele>
        <time>2022-06-18T07:25:28Z</time>
      </trkpt>
      <trkpt lat="46.338" lon="5.46047">
        <ele>388.8</ele>
        <time>2022-06-18T07:25:31Z</time>
      </trkpt>
      <trkpt lat="46.33808" lon="5.46044">
        <ele>389.4</ele>
        <time>2022-06-18T07:25:33Z</time>
      </trkpt>
      <trkpt lat="46.33825" lon="5.46042">
        <ele>390</ele>
        <time>2022-06-18T07:25:37Z</time>
      </trkpt>
      <trkpt lat="46.33837" lon="5.46038">
        <ele>390.4</ele>
        <time>2022-06-18T07:25:40Z</time>
      </trkpt>
      <trkpt lat="46.33856" lon="5.46035">
        <ele>391.6</ele>
        <time>2022-06-18T07:25:45Z</time>
      </trkpt>
      <trkpt lat="46.33877" lon="5.46031">
        <ele>392.8</ele>
        <time>2022-06-18T07:25:50Z</time>
      </trkpt>
      <trkpt lat="46.33893" lon="5.46029">
        <ele>393.4</ele>
        <time>2022-06-18T07:25:54Z</time>
      </trkpt>
      <trkpt lat="46.33906" lon="5.46027">
        <ele>393.8</ele>
        <time>2022-06-18T07:25:57Z</time>
      </trkpt>
      <trkpt lat="46.33929" lon="5.46024">
        <ele>394.8</ele>
        <time>2022-06-18T07:26:03Z</time>
      </trkpt>
      <trkpt lat="46.33934" lon="5.46023">
        <ele>395</ele>
        <time>2022-06-18T07:26:04Z</time>
      </trkpt>
      <trkpt lat="46.33966" lon="5.46025">
        <ele>396.2</ele>
        <time>2022-06-18T07:26:11Z</time>
      </trkpt>
      <trkpt lat="46.3397" lon="5.46026">
        <ele>396.2</ele>
        <time>2022-06-18T07:26:12Z</time>
      </trkpt>
      <trkpt lat="46.33996" lon="5.46036">
        <ele>397.2</ele>
        <time>2022-06-18T07:26:18Z</time>
      </trkpt>
      <trkpt lat="46.34" lon="5.46039">
        <ele>397.4</ele>
        <time>2022-06-18T07:26:19Z</time>
      </trkpt>
      <trkpt lat="46.34019" lon="5.4606">
        <ele>398.2</ele>
        <time>2022-06-18T07:26:25Z</time>
      </trkpt>
      <trkpt lat="46.34025" lon="5.46066">
        <ele>399</ele>
        <time>2022-06-18T07:26:27Z</time>
      </trkpt>
      <trkpt lat="46.34029" lon="5.4607">
        <ele>399.2</ele>
        <time>2022-06-18T07:26:28Z</time>
      </trkpt>
      <trkpt lat="46.34048" lon="5.46081">
        <ele>400</ele>
        <time>2022-06-18T07:26:33Z</time>
      </trkpt>
      <trkpt lat="46.34059" lon="5.46078">
        <ele>400.2</ele>
        <time>2022-06-18T07:26:36Z</time>
      </trkpt>
      <trkpt lat="46.34065" lon="5.46072">
        <ele>400.8</ele>
        <time>2022-06-18T07:26:38Z</time>
      </trkpt>
      <trkpt lat="46.34074" lon="5.46062">
        <ele>401.4</ele>
        <time>2022-06-18T07:26:41Z</time>
      </trkpt>
      <trkpt lat="46.34082" lon="5.46051">
        <ele>402.4</ele>
        <time>2022-06-18T07:26:44Z</time>
      </trkpt>
      <trkpt lat="46.34085" lon="5.46048">
        <ele>402.8</ele>
        <time>2022-06-18T07:26:45Z</time>
      </trkpt>
      <trkpt lat="46.34099" lon="5.46032">
        <ele>403.8</ele>
        <time>2022-06-18T07:26:50Z</time>
      </trkpt>
      <trkpt lat="46.34106" lon="5.46028">
        <ele>404.6</ele>
        <time>2022-06-18T07:26:52Z</time>
      </trkpt>
      <trkpt lat="46.34112" lon="5.46025">
        <ele>405.2</ele>
        <time>2022-06-18T07:26:54Z</time>
      </trkpt>
      <trkpt lat="46.34138" lon="5.46016">
        <ele>406.4</ele>
        <time>2022-06-18T07:27:01Z</time>
      </trkpt>
      <trkpt lat="46.34159" lon="5.46012">
        <ele>407.4</ele>
        <time>2022-06-18T07:27:07Z</time>
      </trkpt>
      <trkpt lat="46.34163" lon="5.46011">
        <ele>407.8</ele>
        <time>2022-06-18T07:27:08Z</time>
      </trkpt>
      <trkpt lat="46.34176" lon="5.4601">
        <ele>408.2</ele>
        <time>2022-06-18T07:27:11Z</time>
      </trkpt>
      <trkpt lat="46.3418" lon="5.4601">
        <ele>408.4</ele>
        <time>2022-06-18T07:27:12Z</time>
      </trkpt>
      <trkpt lat="46.34204" lon="5.4601">
        <ele>409.4</ele>
        <time>2022-06-18T07:27:18Z</time>
      </trkpt>
      <trkpt lat="46.34216" lon="5.4601">
        <ele>410</ele>
        <time>2022-06-18T07:27:21Z</time>
      </trkpt>
      <trkpt lat="46.34228" lon="5.46009">
        <ele>410.6</ele>
        <time>2022-06-18T07:27:24Z</time>
      </trkpt>
      <trkpt lat="46.34248" lon="5.46009">
        <ele>411.6</ele>
        <time>2022-06-18T07:27:29Z</time>
      </trkpt>
      <trkpt lat="46.34256" lon="5.4601">
        <ele>412</ele>
        <time>2022-06-18T07:27:31Z</time>
      </trkpt>
      <trkpt lat="46.34269" lon="5.4601">
        <ele>412.8</ele>
        <time>2022-06-18T07:27:34Z</time>
      </trkpt>
      <trkpt lat="46.34288" lon="5.4601">
        <ele>413.8</ele>
        <time>2022-06-18T07:27:39Z</time>
      </trkpt>
      <trkpt lat="46.34309" lon="5.4601">
        <ele>415</ele>
        <time>2022-06-18T07:27:44Z</time>
      </trkpt>
      <trkpt lat="46.34327" lon="5.46011">
        <ele>416.4</ele>
        <time>2022-06-18T07:27:48Z</time>
      </trkpt>
      <trkpt lat="46.34331" lon="5.46011">
        <ele>416.6</ele>
        <time>2022-06-18T07:27:49Z</time>
      </trkpt>
      <trkpt lat="46.34344" lon="5.46012">
        <ele>417.4</ele>
        <time>2022-06-18T07:27:52Z</time>
      </trkpt>
      <trkpt lat="46.34362" lon="5.46012">
        <ele>418.8</ele>
        <time>2022-06-18T07:27:57Z</time>
      </trkpt>
      <trkpt lat="46.34366" lon="5.46012">
        <ele>419</ele>
        <time>2022-06-18T07:27:58Z</time>
      </trkpt>
      <trkpt lat="46.3439" lon="5.46012">
        <ele>420.2</ele>
        <time>2022-06-18T07:28:04Z</time>
      </trkpt>
      <trkpt lat="46.34406" lon="5.46014">
        <ele>421</ele>
        <time>2022-06-18T07:28:08Z</time>
      </trkpt>
      <trkpt lat="46.34415" lon="5.46015">
        <ele>421.2</ele>
        <time>2022-06-18T07:28:10Z</time>
      </trkpt>
      <trkpt lat="46.34428" lon="5.46016">
        <ele>421.8</ele>
        <time>2022-06-18T07:28:13Z</time>
      </trkpt>
      <trkpt lat="46.34445" lon="5.46018">
        <ele>422.4</ele>
        <time>2022-06-18T07:28:17Z</time>
      </trkpt>
      <trkpt lat="46.34472" lon="5.46025">
        <ele>423.6</ele>
        <time>2022-06-18T07:28:24Z</time>
      </trkpt>
      <trkpt lat="46.34476" lon="5.46026">
        <ele>423.8</ele>
        <time>2022-06-18T07:28:25Z</time>
      </trkpt>
      <trkpt lat="46.34493" lon="5.46029">
        <ele>424.4</ele>
        <time>2022-06-18T07:28:29Z</time>
      </trkpt>
      <trkpt lat="46.34497" lon="5.46031">
        <ele>424.6</ele>
        <time>2022-06-18T07:28:30Z</time>
      </trkpt>
      <trkpt lat="46.34508" lon="5.46035">
        <ele>425.4</ele>
        <time>2022-06-18T07:28:33Z</time>
      </trkpt>
      <trkpt lat="46.34511" lon="5.46038">
        <ele>425.6</ele>
        <time>2022-06-18T07:28:34Z</time>
      </trkpt>
      <trkpt lat="46.34522" lon="5.46051">
        <ele>426.6</ele>
        <time>2022-06-18T07:28:38Z</time>
      </trkpt>
      <trkpt lat="46.34526" lon="5.46051">
        <ele>426.8</ele>
        <time>2022-06-18T07:28:39Z</time>
      </trkpt>
      <trkpt lat="46.3453" lon="5.4605">
        <ele>427</ele>
        <time>2022-06-18T07:28:40Z</time>
      </trkpt>
      <trkpt lat="46.34535" lon="5.46048">
        <ele>427.2</ele>
        <time>2022-06-18T07:28:41Z</time>
      </trkpt>
      <trkpt lat="46.34546" lon="5.46044">
        <ele>427.4</ele>
        <time>2022-06-18T07:28:43Z</time>
      </trkpt>
      <trkpt lat="46.3456" lon="5.46043">
        <ele>427.6</ele>
        <time>2022-06-18T07:28:45Z</time>
      </trkpt>
      <trkpt lat="46.34597" lon="5.4604">
        <ele>426.8</ele>
        <time>2022-06-18T07:28:50Z</time>
      </trkpt>
      <trkpt lat="46.34615" lon="5.46037">
        <ele>425.8</ele>
        <time>2022-06-18T07:28:52Z</time>
      </trkpt>
      <trkpt lat="46.34645" lon="5.46033">
        <ele>424</ele>
        <time>2022-06-18T07:28:55Z</time>
      </trkpt>
      <trkpt lat="46.34677" lon="5.46028">
        <ele>422.6</ele>
        <time>2022-06-18T07:28:58Z</time>
      </trkpt>
      <trkpt lat="46.34688" lon="5.46026">
        <ele>421.4</ele>
        <time>2022-06-18T07:28:59Z</time>
      </trkpt>
      <trkpt lat="46.34699" lon="5.46023">
        <ele>420.6</ele>
        <time>2022-06-18T07:29:00Z</time>
      </trkpt>
      <trkpt lat="46.34711" lon="5.46021">
        <ele>419.8</ele>
        <time>2022-06-18T07:29:01Z</time>
      </trkpt>
      <trkpt lat="46.34747" lon="5.46014">
        <ele>418</ele>
        <time>2022-06-18T07:29:04Z</time>
      </trkpt>
      <trkpt lat="46.34773" lon="5.4601">
        <ele>415.6</ele>
        <time>2022-06-18T07:29:06Z</time>
      </trkpt>
      <trkpt lat="46.34799" lon="5.46005">
        <ele>414.4</ele>
        <time>2022-06-18T07:29:08Z</time>
      </trkpt>
      <trkpt lat="46.34826" lon="5.46001">
        <ele>412.2</ele>
        <time>2022-06-18T07:29:10Z</time>
      </trkpt>
      <trkpt lat="46.3484" lon="5.45999">
        <ele>410.6</ele>
        <time>2022-06-18T07:29:11Z</time>
      </trkpt>
      <trkpt lat="46.34868" lon="5.45997">
        <ele>408.8</ele>
        <time>2022-06-18T07:29:13Z</time>
      </trkpt>
      <trkpt lat="46.34881" lon="5.45996">
        <ele>407.6</ele>
        <time>2022-06-18T07:29:14Z</time>
      </trkpt>
      <trkpt lat="46.34896" lon="5.45995">
        <ele>406.2</ele>
        <time>2022-06-18T07:29:15Z</time>
      </trkpt>
      <trkpt lat="46.34924" lon="5.45993">
        <ele>404.2</ele>
        <time>2022-06-18T07:29:17Z</time>
      </trkpt>
      <trkpt lat="46.34938" lon="5.45992">
        <ele>403</ele>
        <time>2022-06-18T07:29:18Z</time>
      </trkpt>
      <trkpt lat="46.34967" lon="5.45989">
        <ele>401</ele>
        <time>2022-06-18T07:29:20Z</time>
      </trkpt>
      <trkpt lat="46.34996" lon="5.45987">
        <ele>399.6</ele>
        <time>2022-06-18T07:29:22Z</time>
      </trkpt>
      <trkpt lat="46.35011" lon="5.45985">
        <ele>398.4</ele>
        <time>2022-06-18T07:29:23Z</time>
      </trkpt>
      <trkpt lat="46.35026" lon="5.45984">
        <ele>396.8</ele>
        <time>2022-06-18T07:29:24Z</time>
      </trkpt>
      <trkpt lat="46.35055" lon="5.45981">
        <ele>395.6</ele>
        <time>2022-06-18T07:29:26Z</time>
      </trkpt>
      <trkpt lat="46.3507" lon="5.45979">
        <ele>394.2</ele>
        <time>2022-06-18T07:29:27Z</time>
      </trkpt>
      <trkpt lat="46.351" lon="5.45977">
        <ele>392.4</ele>
        <time>2022-06-18T07:29:29Z</time>
      </trkpt>
      <trkpt lat="46.3513" lon="5.45974">
        <ele>390.6</ele>
        <time>2022-06-18T07:29:31Z</time>
      </trkpt>
      <trkpt lat="46.35145" lon="5.45973">
        <ele>389</ele>
        <time>2022-06-18T07:29:32Z</time>
      </trkpt>
      <trkpt lat="46.35175" lon="5.45971">
        <ele>387</ele>
        <time>2022-06-18T07:29:34Z</time>
      </trkpt>
      <trkpt lat="46.35205" lon="5.45969">
        <ele>384.8</ele>
        <time>2022-06-18T07:29:36Z</time>
      </trkpt>
      <trkpt lat="46.35236" lon="5.45968">
        <ele>382.6</ele>
        <time>2022-06-18T07:29:38Z</time>
      </trkpt>
      <trkpt lat="46.35252" lon="5.45969">
        <ele>381.6</ele>
        <time>2022-06-18T07:29:39Z</time>
      </trkpt>
      <trkpt lat="46.35267" lon="5.45969">
        <ele>380.4</ele>
        <time>2022-06-18T07:29:40Z</time>
      </trkpt>
      <trkpt lat="46.35283" lon="5.45969">
        <ele>379.4</ele>
        <time>2022-06-18T07:29:41Z</time>
      </trkpt>
      <trkpt lat="46.35316" lon="5.45971">
        <ele>377.4</ele>
        <time>2022-06-18T07:29:43Z</time>
      </trkpt>
      <trkpt lat="46.35348" lon="5.45973">
        <ele>375.4</ele>
        <time>2022-06-18T07:29:45Z</time>
      </trkpt>
      <trkpt lat="46.3538" lon="5.45975">
        <ele>372.6</ele>
        <time>2022-06-18T07:29:47Z</time>
      </trkpt>
      <trkpt lat="46.35395" lon="5.45975">
        <ele>370.6</ele>
        <time>2022-06-18T07:29:49Z</time>
      </trkpt>
      <trkpt lat="46.35426" lon="5.45973">
        <ele>368.8</ele>
        <time>2022-06-18T07:29:51Z</time>
      </trkpt>
      <trkpt lat="46.35456" lon="5.45969">
        <ele>367</ele>
        <time>2022-06-18T07:29:53Z</time>
      </trkpt>
      <trkpt lat="46.35486" lon="5.45965">
        <ele>365.8</ele>
        <time>2022-06-18T07:29:55Z</time>
      </trkpt>
      <trkpt lat="46.35516" lon="5.45963">
        <ele>364.6</ele>
        <time>2022-06-18T07:29:57Z</time>
      </trkpt>
      <trkpt lat="46.35531" lon="5.45963">
        <ele>363.4</ele>
        <time>2022-06-18T07:29:58Z</time>
      </trkpt>
      <trkpt lat="46.35546" lon="5.45964">
        <ele>362.2</ele>
        <time>2022-06-18T07:29:59Z</time>
      </trkpt>
      <trkpt lat="46.3556" lon="5.45967">
        <ele>360.6</ele>
        <time>2022-06-18T07:30:00Z</time>
      </trkpt>
      <trkpt lat="46.35586" lon="5.45976">
        <ele>359.4</ele>
        <time>2022-06-18T07:30:02Z</time>
      </trkpt>
      <trkpt lat="46.35597" lon="5.45981">
        <ele>358.4</ele>
        <time>2022-06-18T07:30:03Z</time>
      </trkpt>
      <trkpt lat="46.35616" lon="5.45989">
        <ele>357.2</ele>
        <time>2022-06-18T07:30:05Z</time>
      </trkpt>
      <trkpt lat="46.35636" lon="5.45988">
        <ele>356.2</ele>
        <time>2022-06-18T07:30:07Z</time>
      </trkpt>
      <trkpt lat="46.35646" lon="5.45984">
        <ele>356</ele>
        <time>2022-06-18T07:30:08Z</time>
      </trkpt>
      <trkpt lat="46.35667" lon="5.45979">
        <ele>354.6</ele>
        <time>2022-06-18T07:30:10Z</time>
      </trkpt>
      <trkpt lat="46.35687" lon="5.45977">
        <ele>353.2</ele>
        <time>2022-06-18T07:30:12Z</time>
      </trkpt>
      <trkpt lat="46.35714" lon="5.45978">
        <ele>352</ele>
        <time>2022-06-18T07:30:15Z</time>
      </trkpt>
      <trkpt lat="46.35723" lon="5.45979">
        <ele>351.4</ele>
        <time>2022-06-18T07:30:16Z</time>
      </trkpt>
      <trkpt lat="46.35739" lon="5.45983">
        <ele>351</ele>
        <time>2022-06-18T07:30:18Z</time>
      </trkpt>
      <trkpt lat="46.35755" lon="5.45985">
        <ele>350.8</ele>
        <time>2022-06-18T07:30:20Z</time>
      </trkpt>
      <trkpt lat="46.35762" lon="5.45983">
        <ele>350.8</ele>
        <time>2022-06-18T07:30:21Z</time>
      </trkpt>
      <trkpt lat="46.35767" lon="5.45979">
        <ele>350.8</ele>
        <time>2022-06-18T07:30:22Z</time>
      </trkpt>
      <trkpt lat="46.35771" lon="5.45971">
        <ele>350.8</ele>
        <time>2022-06-18T07:30:23Z</time>
      </trkpt>
      <trkpt lat="46.35784" lon="5.45929">
        <ele>351.6</ele>
        <time>2022-06-18T07:30:28Z</time>
      </trkpt>
      <trkpt lat="46.35788" lon="5.4591">
        <ele>352.2</ele>
        <time>2022-06-18T07:30:30Z</time>
      </trkpt>
      <trkpt lat="46.35792" lon="5.45889">
        <ele>352.6</ele>
        <time>2022-06-18T07:30:32Z</time>
      </trkpt>
      <trkpt lat="46.35793" lon="5.4588">
        <ele>353</ele>
        <time>2022-06-18T07:30:33Z</time>
      </trkpt>
      <trkpt lat="46.35795" lon="5.45862">
        <ele>353.4</ele>
        <time>2022-06-18T07:30:35Z</time>
      </trkpt>
      <trkpt lat="46.35796" lon="5.45843">
        <ele>353.6</ele>
        <time>2022-06-18T07:30:37Z</time>
      </trkpt>
      <trkpt lat="46.35794" lon="5.45824">
        <ele>354</ele>
        <time>2022-06-18T07:30:39Z</time>
      </trkpt>
      <trkpt lat="46.35792" lon="5.45795">
        <ele>354.4</ele>
        <time>2022-06-18T07:30:42Z</time>
      </trkpt>
      <trkpt lat="46.35787" lon="5.45769">
        <ele>354.6</ele>
        <time>2022-06-18T07:30:45Z</time>
      </trkpt>
      <trkpt lat="46.35785" lon="5.45761">
        <ele>354.6</ele>
        <time>2022-06-18T07:30:46Z</time>
      </trkpt>
      <trkpt lat="46.35777" lon="5.45729">
        <ele>355</ele>
        <time>2022-06-18T07:30:50Z</time>
      </trkpt>
      <trkpt lat="46.35775" lon="5.45713">
        <ele>355.4</ele>
        <time>2022-06-18T07:30:52Z</time>
      </trkpt>
      <trkpt lat="46.35774" lon="5.45701">
        <ele>355.4</ele>
        <time>2022-06-18T07:30:53Z</time>
      </trkpt>
      <trkpt lat="46.35775" lon="5.45692">
        <ele>355.4</ele>
        <time>2022-06-18T07:30:54Z</time>
      </trkpt>
      <trkpt lat="46.35779" lon="5.45683">
        <ele>355.6</ele>
        <time>2022-06-18T07:30:55Z</time>
      </trkpt>
      <trkpt lat="46.3579" lon="5.4567">
        <ele>355.6</ele>
        <time>2022-06-18T07:30:57Z</time>
      </trkpt>
      <trkpt lat="46.35804" lon="5.45669">
        <ele>355.6</ele>
        <time>2022-06-18T07:30:59Z</time>
      </trkpt>
      <trkpt lat="46.35812" lon="5.45671">
        <ele>355.4</ele>
        <time>2022-06-18T07:31:00Z</time>
      </trkpt>
      <trkpt lat="46.35823" lon="5.45672">
        <ele>355.6</ele>
        <time>2022-06-18T07:31:02Z</time>
      </trkpt>
      <trkpt lat="46.35836" lon="5.4567">
        <ele>355.8</ele>
        <time>2022-06-18T07:31:04Z</time>
      </trkpt>
      <trkpt lat="46.35861" lon="5.45663">
        <ele>356.8</ele>
        <time>2022-06-18T07:31:09Z</time>
      </trkpt>
      <trkpt lat="46.35866" lon="5.4566">
        <ele>357.2</ele>
        <time>2022-06-18T07:31:10Z</time>
      </trkpt>
      <trkpt lat="46.35876" lon="5.45656">
        <ele>357.8</ele>
        <time>2022-06-18T07:31:12Z</time>
      </trkpt>
      <trkpt lat="46.3589" lon="5.45651">
        <ele>359</ele>
        <time>2022-06-18T07:31:15Z</time>
      </trkpt>
      <trkpt lat="46.35896" lon="5.45648">
        <ele>359.4</ele>
        <time>2022-06-18T07:31:16Z</time>
      </trkpt>
      <trkpt lat="46.35912" lon="5.45644">
        <ele>360</ele>
        <time>2022-06-18T07:31:19Z</time>
      </trkpt>
      <trkpt lat="46.35938" lon="5.45638">
        <ele>360.8</ele>
        <time>2022-06-18T07:31:24Z</time>
      </trkpt>
      <trkpt lat="46.35945" lon="5.45636">
        <ele>361</ele>
        <time>2022-06-18T07:31:25Z</time>
      </trkpt>
      <trkpt lat="46.35949" lon="5.45636">
        <ele>361</ele>
        <time>2022-06-18T07:31:26Z</time>
      </trkpt>
      <trkpt lat="46.35962" lon="5.45635">
        <ele>361</ele>
        <time>2022-06-18T07:31:28Z</time>
      </trkpt>
      <trkpt lat="46.35972" lon="5.45635">
        <ele>361.4</ele>
        <time>2022-06-18T07:31:30Z</time>
      </trkpt>
      <trkpt lat="46.36007" lon="5.45638">
        <ele>361.4</ele>
        <time>2022-06-18T07:31:36Z</time>
      </trkpt>
      <trkpt lat="46.36018" lon="5.4564">
        <ele>361.8</ele>
        <time>2022-06-18T07:31:38Z</time>
      </trkpt>
      <trkpt lat="46.36071" lon="5.45644">
        <ele>361.6</ele>
        <time>2022-06-18T07:31:47Z</time>
      </trkpt>
      <trkpt lat="46.36127" lon="5.45644">
        <ele>361.2</ele>
        <time>2022-06-18T07:31:56Z</time>
      </trkpt>
      <trkpt lat="46.36184" lon="5.45644">
        <ele>361.2</ele>
        <time>2022-06-18T07:32:05Z</time>
      </trkpt>
      <trkpt lat="46.36236" lon="5.45645">
        <ele>362</ele>
        <time>2022-06-18T07:32:14Z</time>
      </trkpt>
      <trkpt lat="46.36254" lon="5.45646">
        <ele>362.2</ele>
        <time>2022-06-18T07:32:17Z</time>
      </trkpt>
      <trkpt lat="46.36283" lon="5.45649">
        <ele>363.6</ele>
        <time>2022-06-18T07:32:22Z</time>
      </trkpt>
      <trkpt lat="46.36289" lon="5.45649">
        <ele>363.8</ele>
        <time>2022-06-18T07:32:23Z</time>
      </trkpt>
      <trkpt lat="46.36344" lon="5.45653">
        <ele>364.2</ele>
        <time>2022-06-18T07:32:32Z</time>
      </trkpt>
      <trkpt lat="46.3635" lon="5.45653">
        <ele>364.2</ele>
        <time>2022-06-18T07:32:33Z</time>
      </trkpt>
      <trkpt lat="46.36393" lon="5.45646">
        <ele>364.4</ele>
        <time>2022-06-18T07:32:40Z</time>
      </trkpt>
      <trkpt lat="46.36438" lon="5.45625">
        <ele>364</ele>
        <time>2022-06-18T07:32:47Z</time>
      </trkpt>
      <trkpt lat="46.36483" lon="5.45613">
        <ele>364</ele>
        <time>2022-06-18T07:32:54Z</time>
      </trkpt>
      <trkpt lat="46.36497" lon="5.45612">
        <ele>364.2</ele>
        <time>2022-06-18T07:32:56Z</time>
      </trkpt>
      <trkpt lat="46.36529" lon="5.45613">
        <ele>364</ele>
        <time>2022-06-18T07:33:01Z</time>
      </trkpt>
      <trkpt lat="46.36553" lon="5.45616">
        <ele>364.4</ele>
        <time>2022-06-18T07:33:05Z</time>
      </trkpt>
      <trkpt lat="46.36578" lon="5.45619">
        <ele>364.8</ele>
        <time>2022-06-18T07:33:09Z</time>
      </trkpt>
      <trkpt lat="46.36597" lon="5.45618">
        <ele>364.8</ele>
        <time>2022-06-18T07:33:12Z</time>
      </trkpt>
      <trkpt lat="46.36652" lon="5.45608">
        <ele>364.8</ele>
        <time>2022-06-18T07:33:21Z</time>
      </trkpt>
      <trkpt lat="46.36658" lon="5.45606">
        <ele>365</ele>
        <time>2022-06-18T07:33:22Z</time>
      </trkpt>
      <trkpt lat="46.36676" lon="5.45603">
        <ele>366</ele>
        <time>2022-06-18T07:33:25Z</time>
      </trkpt>
      <trkpt lat="46.36704" lon="5.456">
        <ele>367</ele>
        <time>2022-06-18T07:33:30Z</time>
      </trkpt>
      <trkpt lat="46.36709" lon="5.456">
        <ele>367.2</ele>
        <time>2022-06-18T07:33:31Z</time>
      </trkpt>
      <trkpt lat="46.36737" lon="5.45596">
        <ele>368.2</ele>
        <time>2022-06-18T07:33:36Z</time>
      </trkpt>
      <trkpt lat="46.36755" lon="5.45595">
        <ele>368.6</ele>
        <time>2022-06-18T07:33:39Z</time>
      </trkpt>
      <trkpt lat="46.36773" lon="5.45594">
        <ele>369.4</ele>
        <time>2022-06-18T07:33:42Z</time>
      </trkpt>
      <trkpt lat="46.36813" lon="5.45593">
        <ele>370</ele>
        <time>2022-06-18T07:33:49Z</time>
      </trkpt>
      <trkpt lat="46.36819" lon="5.45593">
        <ele>370</ele>
        <time>2022-06-18T07:33:50Z</time>
      </trkpt>
      <trkpt lat="46.36843" lon="5.45595">
        <ele>370.4</ele>
        <time>2022-06-18T07:33:54Z</time>
      </trkpt>
      <trkpt lat="46.36849" lon="5.45595">
        <ele>370.8</ele>
        <time>2022-06-18T07:33:55Z</time>
      </trkpt>
      <trkpt lat="46.36878" lon="5.45597">
        <ele>371.2</ele>
        <time>2022-06-18T07:34:00Z</time>
      </trkpt>
      <trkpt lat="46.36903" lon="5.45599">
        <ele>371.2</ele>
        <time>2022-06-18T07:34:04Z</time>
      </trkpt>
      <trkpt lat="46.36952" lon="5.45607">
        <ele>371.2</ele>
        <time>2022-06-18T07:34:12Z</time>
      </trkpt>
      <trkpt lat="46.37001" lon="5.45627">
        <ele>371.4</ele>
        <time>2022-06-18T07:34:20Z</time>
      </trkpt>
      <trkpt lat="46.37027" lon="5.4564">
        <ele>371.8</ele>
        <time>2022-06-18T07:34:25Z</time>
      </trkpt>
      <trkpt lat="46.37038" lon="5.45643">
        <ele>372.4</ele>
        <time>2022-06-18T07:34:27Z</time>
      </trkpt>
      <trkpt lat="46.3706" lon="5.45647">
        <ele>373</ele>
        <time>2022-06-18T07:34:31Z</time>
      </trkpt>
      <trkpt lat="46.37072" lon="5.45648">
        <ele>373</ele>
        <time>2022-06-18T07:34:33Z</time>
      </trkpt>
      <trkpt lat="46.37078" lon="5.45648">
        <ele>373</ele>
        <time>2022-06-18T07:34:34Z</time>
      </trkpt>
      <trkpt lat="46.37133" lon="5.45648">
        <ele>373.8</ele>
        <time>2022-06-18T07:34:44Z</time>
      </trkpt>
      <trkpt lat="46.37144" lon="5.45648">
        <ele>374</ele>
        <time>2022-06-18T07:34:46Z</time>
      </trkpt>
      <trkpt lat="46.37172" lon="5.45645">
        <ele>374.6</ele>
        <time>2022-06-18T07:34:51Z</time>
      </trkpt>
      <trkpt lat="46.37193" lon="5.45644">
        <ele>375</ele>
        <time>2022-06-18T07:34:55Z</time>
      </trkpt>
      <trkpt lat="46.3722" lon="5.45641">
        <ele>375.6</ele>
        <time>2022-06-18T07:35:00Z</time>
      </trkpt>
      <trkpt lat="46.37247" lon="5.4564">
        <ele>376.2</ele>
        <time>2022-06-18T07:35:05Z</time>
      </trkpt>
      <trkpt lat="46.37279" lon="5.45637">
        <ele>376.8</ele>
        <time>2022-06-18T07:35:11Z</time>
      </trkpt>
      <trkpt lat="46.37284" lon="5.45636">
        <ele>377.4</ele>
        <time>2022-06-18T07:35:12Z</time>
      </trkpt>
      <trkpt lat="46.3729" lon="5.45636">
        <ele>377.6</ele>
        <time>2022-06-18T07:35:13Z</time>
      </trkpt>
      <trkpt lat="46.37315" lon="5.45635">
        <ele>378.2</ele>
        <time>2022-06-18T07:35:18Z</time>
      </trkpt>
      <trkpt lat="46.3732" lon="5.45635">
        <ele>378.4</ele>
        <time>2022-06-18T07:35:19Z</time>
      </trkpt>
      <trkpt lat="46.37354" lon="5.45635">
        <ele>379</ele>
        <time>2022-06-18T07:35:26Z</time>
      </trkpt>
      <trkpt lat="46.37365" lon="5.45635">
        <ele>379.2</ele>
        <time>2022-06-18T07:35:28Z</time>
      </trkpt>
      <trkpt lat="46.374" lon="5.45639">
        <ele>380.4</ele>
        <time>2022-06-18T07:35:35Z</time>
      </trkpt>
      <trkpt lat="46.37404" lon="5.45639">
        <ele>380.4</ele>
        <time>2022-06-18T07:35:36Z</time>
      </trkpt>
      <trkpt lat="46.37429" lon="5.45639">
        <ele>381.4</ele>
        <time>2022-06-18T07:35:41Z</time>
      </trkpt>
      <trkpt lat="46.37448" lon="5.45635">
        <ele>382</ele>
        <time>2022-06-18T07:35:45Z</time>
      </trkpt>
      <trkpt lat="46.37462" lon="5.45631">
        <ele>382.4</ele>
        <time>2022-06-18T07:35:48Z</time>
      </trkpt>
      <trkpt lat="46.37488" lon="5.45618">
        <ele>383</ele>
        <time>2022-06-18T07:35:54Z</time>
      </trkpt>
      <trkpt lat="46.37497" lon="5.45613">
        <ele>383.6</ele>
        <time>2022-06-18T07:35:56Z</time>
      </trkpt>
      <trkpt lat="46.37515" lon="5.45605">
        <ele>385</ele>
        <time>2022-06-18T07:36:00Z</time>
      </trkpt>
      <trkpt lat="46.37528" lon="5.45599">
        <ele>385.6</ele>
        <time>2022-06-18T07:36:03Z</time>
      </trkpt>
      <trkpt lat="46.3754" lon="5.45594">
        <ele>386</ele>
        <time>2022-06-18T07:36:06Z</time>
      </trkpt>
      <trkpt lat="46.37557" lon="5.45589">
        <ele>387</ele>
        <time>2022-06-18T07:36:10Z</time>
      </trkpt>
      <trkpt lat="46.37565" lon="5.45587">
        <ele>387.6</ele>
        <time>2022-06-18T07:36:12Z</time>
      </trkpt>
      <trkpt lat="46.37578" lon="5.45586">
        <ele>388</ele>
        <time>2022-06-18T07:36:15Z</time>
      </trkpt>
      <trkpt lat="46.37601" lon="5.45587">
        <ele>389</ele>
        <time>2022-06-18T07:36:20Z</time>
      </trkpt>
      <trkpt lat="46.37606" lon="5.45587">
        <ele>389.4</ele>
        <time>2022-06-18T07:36:21Z</time>
      </trkpt>
      <trkpt lat="46.37625" lon="5.45587">
        <ele>390</ele>
        <time>2022-06-18T07:36:25Z</time>
      </trkpt>
      <trkpt lat="46.37644" lon="5.45587">
        <ele>390.8</ele>
        <time>2022-06-18T07:36:29Z</time>
      </trkpt>
      <trkpt lat="46.37649" lon="5.45586">
        <ele>391.2</ele>
        <time>2022-06-18T07:36:30Z</time>
      </trkpt>
      <trkpt lat="46.37693" lon="5.45588">
        <ele>392</ele>
        <time>2022-06-18T07:36:39Z</time>
      </trkpt>
      <trkpt lat="46.37707" lon="5.45589">
        <ele>392.4</ele>
        <time>2022-06-18T07:36:42Z</time>
      </trkpt>
      <trkpt lat="46.37738" lon="5.45591">
        <ele>393.6</ele>
        <time>2022-06-18T07:36:49Z</time>
      </trkpt>
      <trkpt lat="46.37747" lon="5.45591">
        <ele>394</ele>
        <time>2022-06-18T07:36:51Z</time>
      </trkpt>
      <trkpt lat="46.3777" lon="5.45594">
        <ele>395</ele>
        <time>2022-06-18T07:36:56Z</time>
      </trkpt>
      <trkpt lat="46.37774" lon="5.45594">
        <ele>395</ele>
        <time>2022-06-18T07:36:57Z</time>
      </trkpt>
      <trkpt lat="46.37799" lon="5.45597">
        <ele>396.2</ele>
        <time>2022-06-18T07:37:03Z</time>
      </trkpt>
      <trkpt lat="46.37804" lon="5.45597">
        <ele>396.4</ele>
        <time>2022-06-18T07:37:04Z</time>
      </trkpt>
      <trkpt lat="46.37817" lon="5.45597">
        <ele>397.2</ele>
        <time>2022-06-18T07:37:07Z</time>
      </trkpt>
      <trkpt lat="46.37834" lon="5.45596">
        <ele>398.2</ele>
        <time>2022-06-18T07:37:11Z</time>
      </trkpt>
      <trkpt lat="46.37857" lon="5.45597">
        <ele>399.4</ele>
        <time>2022-06-18T07:37:16Z</time>
      </trkpt>
      <trkpt lat="46.37879" lon="5.45598">
        <ele>400.6</ele>
        <time>2022-06-18T07:37:21Z</time>
      </trkpt>
      <trkpt lat="46.3789" lon="5.45597">
        <ele>401</ele>
        <time>2022-06-18T07:37:24Z</time>
      </trkpt>
      <trkpt lat="46.37894" lon="5.45596">
        <ele>401.2</ele>
        <time>2022-06-18T07:37:25Z</time>
      </trkpt>
      <trkpt lat="46.37899" lon="5.45595">
        <ele>401.6</ele>
        <time>2022-06-18T07:37:26Z</time>
      </trkpt>
      <trkpt lat="46.37933" lon="5.45587">
        <ele>402.8</ele>
        <time>2022-06-18T07:37:33Z</time>
      </trkpt>
      <trkpt lat="46.37938" lon="5.45586">
        <ele>403</ele>
        <time>2022-06-18T07:37:34Z</time>
      </trkpt>
      <trkpt lat="46.37968" lon="5.45583">
        <ele>403.4</ele>
        <time>2022-06-18T07:37:39Z</time>
      </trkpt>
      <trkpt lat="46.38007" lon="5.45585">
        <ele>403.2</ele>
        <time>2022-06-18T07:37:45Z</time>
      </trkpt>
      <trkpt lat="46.38056" lon="5.45597">
        <ele>402.4</ele>
        <time>2022-06-18T07:37:52Z</time>
      </trkpt>
      <trkpt lat="46.38111" lon="5.45612">
        <ele>402</ele>
        <time>2022-06-18T07:38:00Z</time>
      </trkpt>
      <trkpt lat="46.38119" lon="5.45613">
        <ele>402</ele>
        <time>2022-06-18T07:38:01Z</time>
      </trkpt>
      <trkpt lat="46.38153" lon="5.45618">
        <ele>401.6</ele>
        <time>2022-06-18T07:38:05Z</time>
      </trkpt>
      <trkpt lat="46.38163" lon="5.45619">
        <ele>401.4</ele>
        <time>2022-06-18T07:38:06Z</time>
      </trkpt>
      <trkpt lat="46.38182" lon="5.4562">
        <ele>400</ele>
        <time>2022-06-18T07:38:08Z</time>
      </trkpt>
      <trkpt lat="46.38202" lon="5.45621">
        <ele>398.6</ele>
        <time>2022-06-18T07:38:10Z</time>
      </trkpt>
      <trkpt lat="46.38232" lon="5.45624">
        <ele>397.6</ele>
        <time>2022-06-18T07:38:13Z</time>
      </trkpt>
      <trkpt lat="46.38242" lon="5.45624">
        <ele>397.4</ele>
        <time>2022-06-18T07:38:14Z</time>
      </trkpt>
      <trkpt lat="46.38284" lon="5.45628">
        <ele>396.4</ele>
        <time>2022-06-18T07:38:18Z</time>
      </trkpt>
      <trkpt lat="46.38313" lon="5.45632">
        <ele>395</ele>
        <time>2022-06-18T07:38:21Z</time>
      </trkpt>
      <trkpt lat="46.38355" lon="5.45639">
        <ele>393.8</ele>
        <time>2022-06-18T07:38:25Z</time>
      </trkpt>
      <trkpt lat="46.38404" lon="5.45649">
        <ele>393</ele>
        <time>2022-06-18T07:38:30Z</time>
      </trkpt>
      <trkpt lat="46.38414" lon="5.45652">
        <ele>392.6</ele>
        <time>2022-06-18T07:38:31Z</time>
      </trkpt>
      <trkpt lat="46.38464" lon="5.45658">
        <ele>391.6</ele>
        <time>2022-06-18T07:38:36Z</time>
      </trkpt>
      <trkpt lat="46.38504" lon="5.45658">
        <ele>390.2</ele>
        <time>2022-06-18T07:38:40Z</time>
      </trkpt>
      <trkpt lat="46.38528" lon="5.45657">
        <ele>389.4</ele>
        <time>2022-06-18T07:38:42Z</time>
      </trkpt>
      <trkpt lat="46.38539" lon="5.45656">
        <ele>389</ele>
        <time>2022-06-18T07:38:43Z</time>
      </trkpt>
      <trkpt lat="46.38559" lon="5.45654">
        <ele>386.8</ele>
        <time>2022-06-18T07:38:45Z</time>
      </trkpt>
      <trkpt lat="46.38583" lon="5.45649">
        <ele>385.8</ele>
        <time>2022-06-18T07:38:47Z</time>
      </trkpt>
      <trkpt lat="46.38605" lon="5.45645">
        <ele>385.2</ele>
        <time>2022-06-18T07:38:49Z</time>
      </trkpt>
      <trkpt lat="46.38626" lon="5.4564">
        <ele>384.4</ele>
        <time>2022-06-18T07:38:51Z</time>
      </trkpt>
      <trkpt lat="46.38672" lon="5.45633">
        <ele>383.8</ele>
        <time>2022-06-18T07:38:56Z</time>
      </trkpt>
      <trkpt lat="46.38682" lon="5.45633">
        <ele>383.8</ele>
        <time>2022-06-18T07:38:57Z</time>
      </trkpt>
      <trkpt lat="46.3871" lon="5.45638">
        <ele>383.6</ele>
        <time>2022-06-18T07:39:00Z</time>
      </trkpt>
      <trkpt lat="46.38769" lon="5.45642">
        <ele>383.6</ele>
        <time>2022-06-18T07:39:06Z</time>
      </trkpt>
      <trkpt lat="46.38778" lon="5.45644">
        <ele>383.6</ele>
        <time>2022-06-18T07:39:07Z</time>
      </trkpt>
      <trkpt lat="46.38787" lon="5.45646">
        <ele>383.2</ele>
        <time>2022-06-18T07:39:08Z</time>
      </trkpt>
      <trkpt lat="46.38819" lon="5.45651">
        <ele>383.6</ele>
        <time>2022-06-18T07:39:12Z</time>
      </trkpt>
      <trkpt lat="46.38867" lon="5.45649">
        <ele>384.2</ele>
        <time>2022-06-18T07:39:18Z</time>
      </trkpt>
      <trkpt lat="46.38875" lon="5.45648">
        <ele>384.4</ele>
        <time>2022-06-18T07:39:19Z</time>
      </trkpt>
      <trkpt lat="46.38922" lon="5.45648">
        <ele>385.2</ele>
        <time>2022-06-18T07:39:25Z</time>
      </trkpt>
      <trkpt lat="46.3893" lon="5.45649">
        <ele>385.4</ele>
        <time>2022-06-18T07:39:26Z</time>
      </trkpt>
      <trkpt lat="46.38986" lon="5.45656">
        <ele>385.2</ele>
        <time>2022-06-18T07:39:33Z</time>
      </trkpt>
      <trkpt lat="46.38996" lon="5.45656">
        <ele>385.2</ele>
        <time>2022-06-18T07:39:34Z</time>
      </trkpt>
      <trkpt lat="46.3903" lon="5.45651">
        <ele>384.2</ele>
        <time>2022-06-18T07:39:38Z</time>
      </trkpt>
      <trkpt lat="46.39036" lon="5.4565">
        <ele>384.2</ele>
        <time>2022-06-18T07:39:39Z</time>
      </trkpt>
      <trkpt lat="46.39055" lon="5.45646">
        <ele>384</ele>
        <time>2022-06-18T07:39:41Z</time>
      </trkpt>
      <trkpt lat="46.39111" lon="5.45631">
        <ele>382.8</ele>
        <time>2022-06-18T07:39:48Z</time>
      </trkpt>
      <trkpt lat="46.39161" lon="5.45613">
        <ele>381.8</ele>
        <time>2022-06-18T07:39:54Z</time>
      </trkpt>
      <trkpt lat="46.39195" lon="5.45604">
        <ele>380.8</ele>
        <time>2022-06-18T07:39:58Z</time>
      </trkpt>
      <trkpt lat="46.39203" lon="5.45602">
        <ele>380.6</ele>
        <time>2022-06-18T07:39:59Z</time>
      </trkpt>
      <trkpt lat="46.39233" lon="5.45593">
        <ele>380.4</ele>
        <time>2022-06-18T07:40:03Z</time>
      </trkpt>
      <trkpt lat="46.39289" lon="5.45567">
        <ele>380.6</ele>
        <time>2022-06-18T07:40:11Z</time>
      </trkpt>
      <trkpt lat="46.39313" lon="5.45556">
        <ele>380.6</ele>
        <time>2022-06-18T07:40:15Z</time>
      </trkpt>
      <trkpt lat="46.39323" lon="5.45549">
        <ele>380.6</ele>
        <time>2022-06-18T07:40:17Z</time>
      </trkpt>
      <trkpt lat="46.39327" lon="5.45549">
        <ele>380.6</ele>
        <time>2022-06-18T07:40:18Z</time>
      </trkpt>
      <trkpt lat="46.39332" lon="5.45553">
        <ele>380.6</ele>
        <time>2022-06-18T07:40:19Z</time>
      </trkpt>
      <trkpt lat="46.39333" lon="5.45569">
        <ele>380.6</ele>
        <time>2022-06-18T07:40:21Z</time>
      </trkpt>
      <trkpt lat="46.39326" lon="5.45613">
        <ele>380</ele>
        <time>2022-06-18T07:40:25Z</time>
      </trkpt>
      <trkpt lat="46.39324" lon="5.45639">
        <ele>379.2</ele>
        <time>2022-06-18T07:40:27Z</time>
      </trkpt>
      <trkpt lat="46.39323" lon="5.45665">
        <ele>378</ele>
        <time>2022-06-18T07:40:29Z</time>
      </trkpt>
      <trkpt lat="46.39323" lon="5.4569">
        <ele>377.4</ele>
        <time>2022-06-18T07:40:31Z</time>
      </trkpt>
      <trkpt lat="46.39323" lon="5.45703">
        <ele>377.2</ele>
        <time>2022-06-18T07:40:32Z</time>
      </trkpt>
      <trkpt lat="46.39326" lon="5.45714">
        <ele>376.6</ele>
        <time>2022-06-18T07:40:33Z</time>
      </trkpt>
      <trkpt lat="46.3933" lon="5.45724">
        <ele>376.2</ele>
        <time>2022-06-18T07:40:34Z</time>
      </trkpt>
      <trkpt lat="46.39343" lon="5.45737">
        <ele>376</ele>
        <time>2022-06-18T07:40:36Z</time>
      </trkpt>
      <trkpt lat="46.39367" lon="5.4574">
        <ele>375.8</ele>
        <time>2022-06-18T07:40:39Z</time>
      </trkpt>
      <trkpt lat="46.39415" lon="5.45748">
        <ele>376</ele>
        <time>2022-06-18T07:40:45Z</time>
      </trkpt>
      <trkpt lat="46.39472" lon="5.45758">
        <ele>376</ele>
        <time>2022-06-18T07:40:52Z</time>
      </trkpt>
      <trkpt lat="46.39517" lon="5.45771">
        <ele>376</ele>
        <time>2022-06-18T07:40:58Z</time>
      </trkpt>
      <trkpt lat="46.39555" lon="5.45788">
        <ele>376.6</ele>
        <time>2022-06-18T07:41:04Z</time>
      </trkpt>
      <trkpt lat="46.39577" lon="5.45789">
        <ele>376.8</ele>
        <time>2022-06-18T07:41:07Z</time>
      </trkpt>
      <trkpt lat="46.39594" lon="5.4579">
        <ele>376.8</ele>
        <time>2022-06-18T07:41:09Z</time>
      </trkpt>
      <trkpt lat="46.39649" lon="5.45787">
        <ele>375.8</ele>
        <time>2022-06-18T07:41:15Z</time>
      </trkpt>
      <trkpt lat="46.39678" lon="5.45779">
        <ele>374.2</ele>
        <time>2022-06-18T07:41:18Z</time>
      </trkpt>
      <trkpt lat="46.39708" lon="5.45771">
        <ele>373</ele>
        <time>2022-06-18T07:41:21Z</time>
      </trkpt>
      <trkpt lat="46.39717" lon="5.45769">
        <ele>372.4</ele>
        <time>2022-06-18T07:41:22Z</time>
      </trkpt>
      <trkpt lat="46.39737" lon="5.45763">
        <ele>371.8</ele>
        <time>2022-06-18T07:41:24Z</time>
      </trkpt>
      <trkpt lat="46.39786" lon="5.45743">
        <ele>370.8</ele>
        <time>2022-06-18T07:41:29Z</time>
      </trkpt>
      <trkpt lat="46.39797" lon="5.45739">
        <ele>370.8</ele>
        <time>2022-06-18T07:41:30Z</time>
      </trkpt>
      <trkpt lat="46.3983" lon="5.45725">
        <ele>369.4</ele>
        <time>2022-06-18T07:41:33Z</time>
      </trkpt>
      <trkpt lat="46.39841" lon="5.45722">
        <ele>368.2</ele>
        <time>2022-06-18T07:41:34Z</time>
      </trkpt>
      <trkpt lat="46.39863" lon="5.45719">
        <ele>367</ele>
        <time>2022-06-18T07:41:36Z</time>
      </trkpt>
      <trkpt lat="46.39885" lon="5.45718">
        <ele>366</ele>
        <time>2022-06-18T07:41:38Z</time>
      </trkpt>
      <trkpt lat="46.39896" lon="5.45719">
        <ele>365.6</ele>
        <time>2022-06-18T07:41:39Z</time>
      </trkpt>
      <trkpt lat="46.39917" lon="5.4572">
        <ele>364.8</ele>
        <time>2022-06-18T07:41:41Z</time>
      </trkpt>
      <trkpt lat="46.39956" lon="5.45724">
        <ele>364.2</ele>
        <time>2022-06-18T07:41:45Z</time>
      </trkpt>
      <trkpt lat="46.39994" lon="5.45726">
        <ele>363.8</ele>
        <time>2022-06-18T07:41:49Z</time>
      </trkpt>
      <trkpt lat="46.40004" lon="5.45724">
        <ele>363.8</ele>
        <time>2022-06-18T07:41:50Z</time>
      </trkpt>
      <trkpt lat="46.4004" lon="5.45711">
        <ele>363.4</ele>
        <time>2022-06-18T07:41:54Z</time>
      </trkpt>
      <trkpt lat="46.4006" lon="5.45707">
        <ele>362.6</ele>
        <time>2022-06-18T07:41:56Z</time>
      </trkpt>
      <trkpt lat="46.4007" lon="5.45707">
        <ele>361.8</ele>
        <time>2022-06-18T07:41:57Z</time>
      </trkpt>
      <trkpt lat="46.4008" lon="5.45708">
        <ele>361.6</ele>
        <time>2022-06-18T07:41:58Z</time>
      </trkpt>
      <trkpt lat="46.4009" lon="5.45712">
        <ele>360.8</ele>
        <time>2022-06-18T07:41:59Z</time>
      </trkpt>
      <trkpt lat="46.40109" lon="5.4572">
        <ele>359.6</ele>
        <time>2022-06-18T07:42:01Z</time>
      </trkpt>
      <trkpt lat="46.40129" lon="5.45727">
        <ele>358.4</ele>
        <time>2022-06-18T07:42:03Z</time>
      </trkpt>
      <trkpt lat="46.40157" lon="5.45734">
        <ele>357.4</ele>
        <time>2022-06-18T07:42:06Z</time>
      </trkpt>
      <trkpt lat="46.40165" lon="5.45731">
        <ele>357.2</ele>
        <time>2022-06-18T07:42:07Z</time>
      </trkpt>
      <trkpt lat="46.4017" lon="5.45725">
        <ele>356.8</ele>
        <time>2022-06-18T07:42:08Z</time>
      </trkpt>
      <trkpt lat="46.4017" lon="5.4571">
        <ele>356.4</ele>
        <time>2022-06-18T07:42:09Z</time>
      </trkpt>
      <trkpt lat="46.4017" lon="5.45694">
        <ele>356.2</ele>
        <time>2022-06-18T07:42:10Z</time>
      </trkpt>
      <trkpt lat="46.40169" lon="5.45679">
        <ele>355.8</ele>
        <time>2022-06-18T07:42:11Z</time>
      </trkpt>
      <trkpt lat="46.40168" lon="5.45649">
        <ele>354.4</ele>
        <time>2022-06-18T07:42:13Z</time>
      </trkpt>
      <trkpt lat="46.40165" lon="5.45619">
        <ele>353.2</ele>
        <time>2022-06-18T07:42:15Z</time>
      </trkpt>
      <trkpt lat="46.40161" lon="5.45566">
        <ele>352.8</ele>
        <time>2022-06-18T07:42:19Z</time>
      </trkpt>
      <trkpt lat="46.40161" lon="5.45541">
        <ele>352.6</ele>
        <time>2022-06-18T07:42:21Z</time>
      </trkpt>
      <trkpt lat="46.40165" lon="5.45516">
        <ele>352.8</ele>
        <time>2022-06-18T07:42:23Z</time>
      </trkpt>
      <trkpt lat="46.40172" lon="5.45495">
        <ele>353.2</ele>
        <time>2022-06-18T07:42:25Z</time>
      </trkpt>
      <trkpt lat="46.40181" lon="5.45475">
        <ele>353.4</ele>
        <time>2022-06-18T07:42:27Z</time>
      </trkpt>
      <trkpt lat="46.40185" lon="5.45465">
        <ele>353.4</ele>
        <time>2022-06-18T07:42:28Z</time>
      </trkpt>
      <trkpt lat="46.40193" lon="5.45447">
        <ele>353.4</ele>
        <time>2022-06-18T07:42:30Z</time>
      </trkpt>
      <trkpt lat="46.40198" lon="5.45441">
        <ele>353.4</ele>
        <time>2022-06-18T07:42:31Z</time>
      </trkpt>
      <trkpt lat="46.40205" lon="5.4544">
        <ele>353.4</ele>
        <time>2022-06-18T07:42:32Z</time>
      </trkpt>
      <trkpt lat="46.40212" lon="5.45441">
        <ele>353.4</ele>
        <time>2022-06-18T07:42:33Z</time>
      </trkpt>
      <trkpt lat="46.40219" lon="5.45444">
        <ele>353.4</ele>
        <time>2022-06-18T07:42:34Z</time>
      </trkpt>
      <trkpt lat="46.40233" lon="5.45453">
        <ele>353</ele>
        <time>2022-06-18T07:42:36Z</time>
      </trkpt>
      <trkpt lat="46.4024" lon="5.45456">
        <ele>352.8</ele>
        <time>2022-06-18T07:42:37Z</time>
      </trkpt>
      <trkpt lat="46.40287" lon="5.45476">
        <ele>352.4</ele>
        <time>2022-06-18T07:42:43Z</time>
      </trkpt>
      <trkpt lat="46.40342" lon="5.45503">
        <ele>352.4</ele>
        <time>2022-06-18T07:42:50Z</time>
      </trkpt>
      <trkpt lat="46.40396" lon="5.45524">
        <ele>352.4</ele>
        <time>2022-06-18T07:42:57Z</time>
      </trkpt>
      <trkpt lat="46.40404" lon="5.45527">
        <ele>352.4</ele>
        <time>2022-06-18T07:42:58Z</time>
      </trkpt>
      <trkpt lat="46.40457" lon="5.45547">
        <ele>352.6</ele>
        <time>2022-06-18T07:43:05Z</time>
      </trkpt>
      <trkpt lat="46.40479" lon="5.45557">
        <ele>352.2</ele>
        <time>2022-06-18T07:43:08Z</time>
      </trkpt>
      <trkpt lat="46.40538" lon="5.45582">
        <ele>352</ele>
        <time>2022-06-18T07:43:16Z</time>
      </trkpt>
      <trkpt lat="46.40545" lon="5.45585">
        <ele>352.2</ele>
        <time>2022-06-18T07:43:17Z</time>
      </trkpt>
      <trkpt lat="46.40604" lon="5.45611">
        <ele>352.4</ele>
        <time>2022-06-18T07:43:25Z</time>
      </trkpt>
      <trkpt lat="46.40619" lon="5.45618">
        <ele>352.4</ele>
        <time>2022-06-18T07:43:27Z</time>
      </trkpt>
      <trkpt lat="46.40678" lon="5.4564">
        <ele>352.2</ele>
        <time>2022-06-18T07:43:35Z</time>
      </trkpt>
      <trkpt lat="46.40685" lon="5.45643">
        <ele>352.2</ele>
        <time>2022-06-18T07:43:36Z</time>
      </trkpt>
      <trkpt lat="46.40692" lon="5.45648">
        <ele>352.2</ele>
        <time>2022-06-18T07:43:37Z</time>
      </trkpt>
      <trkpt lat="46.40705" lon="5.45659">
        <ele>352</ele>
        <time>2022-06-18T07:43:39Z</time>
      </trkpt>
      <trkpt lat="46.4071" lon="5.45666">
        <ele>352.2</ele>
        <time>2022-06-18T07:43:40Z</time>
      </trkpt>
      <trkpt lat="46.40751" lon="5.45726">
        <ele>352.8</ele>
        <time>2022-06-18T07:43:48Z</time>
      </trkpt>
      <trkpt lat="46.40764" lon="5.45748">
        <ele>353.4</ele>
        <time>2022-06-18T07:43:51Z</time>
      </trkpt>
      <trkpt lat="46.40773" lon="5.45761">
        <ele>353.6</ele>
        <time>2022-06-18T07:43:53Z</time>
      </trkpt>
      <trkpt lat="46.40778" lon="5.45766">
        <ele>353.8</ele>
        <time>2022-06-18T07:43:54Z</time>
      </trkpt>
      <trkpt lat="46.40784" lon="5.4577">
        <ele>354</ele>
        <time>2022-06-18T07:43:55Z</time>
      </trkpt>
      <trkpt lat="46.40796" lon="5.45774">
        <ele>354.4</ele>
        <time>2022-06-18T07:43:57Z</time>
      </trkpt>
      <trkpt lat="46.40802" lon="5.45775">
        <ele>354.6</ele>
        <time>2022-06-18T07:43:58Z</time>
      </trkpt>
      <trkpt lat="46.40838" lon="5.45786">
        <ele>355.8</ele>
        <time>2022-06-18T07:44:04Z</time>
      </trkpt>
      <trkpt lat="46.40871" lon="5.45809">
        <ele>356.2</ele>
        <time>2022-06-18T07:44:10Z</time>
      </trkpt>
      <trkpt lat="46.40897" lon="5.45827">
        <ele>357</ele>
        <time>2022-06-18T07:44:15Z</time>
      </trkpt>
      <trkpt lat="46.40919" lon="5.45842">
        <ele>357.6</ele>
        <time>2022-06-18T07:44:19Z</time>
      </trkpt>
      <trkpt lat="46.40943" lon="5.45855">
        <ele>358</ele>
        <time>2022-06-18T07:44:23Z</time>
      </trkpt>
      <trkpt lat="46.40961" lon="5.45863">
        <ele>358.4</ele>
        <time>2022-06-18T07:44:26Z</time>
      </trkpt>
      <trkpt lat="46.40992" lon="5.45878">
        <ele>359</ele>
        <time>2022-06-18T07:44:31Z</time>
      </trkpt>
      <trkpt lat="46.40998" lon="5.4588">
        <ele>359.2</ele>
        <time>2022-06-18T07:44:32Z</time>
      </trkpt>
      <trkpt lat="46.41053" lon="5.45902">
        <ele>360.2</ele>
        <time>2022-06-18T07:44:41Z</time>
      </trkpt>
      <trkpt lat="46.41096" lon="5.45919">
        <ele>360.6</ele>
        <time>2022-06-18T07:44:48Z</time>
      </trkpt>
      <trkpt lat="46.41131" lon="5.45935">
        <ele>361.2</ele>
        <time>2022-06-18T07:44:54Z</time>
      </trkpt>
      <trkpt lat="46.41149" lon="5.45942">
        <ele>362</ele>
        <time>2022-06-18T07:44:57Z</time>
      </trkpt>
      <trkpt lat="46.41168" lon="5.45949">
        <ele>362.4</ele>
        <time>2022-06-18T07:45:00Z</time>
      </trkpt>
      <trkpt lat="46.41174" lon="5.45951">
        <ele>362.4</ele>
        <time>2022-06-18T07:45:01Z</time>
      </trkpt>
      <trkpt lat="46.41193" lon="5.45956">
        <ele>362.8</ele>
        <time>2022-06-18T07:45:04Z</time>
      </trkpt>
      <trkpt lat="46.41247" lon="5.45973">
        <ele>362.4</ele>
        <time>2022-06-18T07:45:12Z</time>
      </trkpt>
      <trkpt lat="46.41254" lon="5.45976">
        <ele>362.4</ele>
        <time>2022-06-18T07:45:13Z</time>
      </trkpt>
      <trkpt lat="46.41295" lon="5.45993">
        <ele>362.4</ele>
        <time>2022-06-18T07:45:19Z</time>
      </trkpt>
      <trkpt lat="46.41302" lon="5.45997">
        <ele>362.4</ele>
        <time>2022-06-18T07:45:20Z</time>
      </trkpt>
      <trkpt lat="46.41357" lon="5.46032">
        <ele>361.6</ele>
        <time>2022-06-18T07:45:28Z</time>
      </trkpt>
      <trkpt lat="46.4137" lon="5.46047">
        <ele>361.6</ele>
        <time>2022-06-18T07:45:30Z</time>
      </trkpt>
      <trkpt lat="46.41379" lon="5.46065">
        <ele>361.6</ele>
        <time>2022-06-18T07:45:32Z</time>
      </trkpt>
      <trkpt lat="46.41404" lon="5.46115">
        <ele>361.8</ele>
        <time>2022-06-18T07:45:38Z</time>
      </trkpt>
      <trkpt lat="46.41409" lon="5.46123">
        <ele>362</ele>
        <time>2022-06-18T07:45:39Z</time>
      </trkpt>
      <trkpt lat="46.4142" lon="5.46134">
        <ele>362.2</ele>
        <time>2022-06-18T07:45:41Z</time>
      </trkpt>
      <trkpt lat="46.41427" lon="5.46139">
        <ele>362.2</ele>
        <time>2022-06-18T07:45:42Z</time>
      </trkpt>
      <trkpt lat="46.41471" lon="5.46155">
        <ele>362.6</ele>
        <time>2022-06-18T07:45:48Z</time>
      </trkpt>
      <trkpt lat="46.41531" lon="5.46173">
        <ele>362.6</ele>
        <time>2022-06-18T07:45:56Z</time>
      </trkpt>
      <trkpt lat="46.41585" lon="5.4619">
        <ele>362.2</ele>
        <time>2022-06-18T07:46:03Z</time>
      </trkpt>
      <trkpt lat="46.416" lon="5.46195">
        <ele>362.2</ele>
        <time>2022-06-18T07:46:05Z</time>
      </trkpt>
      <trkpt lat="46.41622" lon="5.46205">
        <ele>362.4</ele>
        <time>2022-06-18T07:46:08Z</time>
      </trkpt>
      <trkpt lat="46.41634" lon="5.46217">
        <ele>362.2</ele>
        <time>2022-06-18T07:46:10Z</time>
      </trkpt>
      <trkpt lat="46.41644" lon="5.46234">
        <ele>362.6</ele>
        <time>2022-06-18T07:46:12Z</time>
      </trkpt>
      <trkpt lat="46.41652" lon="5.46251">
        <ele>362.6</ele>
        <time>2022-06-18T07:46:14Z</time>
      </trkpt>
      <trkpt lat="46.41677" lon="5.46312">
        <ele>363.6</ele>
        <time>2022-06-18T07:46:21Z</time>
      </trkpt>
      <trkpt lat="46.41681" lon="5.46321">
        <ele>363.6</ele>
        <time>2022-06-18T07:46:22Z</time>
      </trkpt>
      <trkpt lat="46.41694" lon="5.46354">
        <ele>364.2</ele>
        <time>2022-06-18T07:46:26Z</time>
      </trkpt>
      <trkpt lat="46.41715" lon="5.46402">
        <ele>364.8</ele>
        <time>2022-06-18T07:46:32Z</time>
      </trkpt>
      <trkpt lat="46.41719" lon="5.4641">
        <ele>365</ele>
        <time>2022-06-18T07:46:33Z</time>
      </trkpt>
      <trkpt lat="46.41748" lon="5.46478">
        <ele>365.6</ele>
        <time>2022-06-18T07:46:41Z</time>
      </trkpt>
      <trkpt lat="46.41752" lon="5.46487">
        <ele>365.6</ele>
        <time>2022-06-18T07:46:42Z</time>
      </trkpt>
      <trkpt lat="46.41763" lon="5.46512">
        <ele>366</ele>
        <time>2022-06-18T07:46:45Z</time>
      </trkpt>
      <trkpt lat="46.41777" lon="5.46546">
        <ele>366.2</ele>
        <time>2022-06-18T07:46:49Z</time>
      </trkpt>
      <trkpt lat="46.41795" lon="5.46584">
        <ele>367</ele>
        <time>2022-06-18T07:46:54Z</time>
      </trkpt>
      <trkpt lat="46.41803" lon="5.46595">
        <ele>367.2</ele>
        <time>2022-06-18T07:46:56Z</time>
      </trkpt>
      <trkpt lat="46.41812" lon="5.46604">
        <ele>367.6</ele>
        <time>2022-06-18T07:46:58Z</time>
      </trkpt>
      <trkpt lat="46.41818" lon="5.46607">
        <ele>368</ele>
        <time>2022-06-18T07:46:59Z</time>
      </trkpt>
      <trkpt lat="46.41823" lon="5.46608">
        <ele>368.6</ele>
        <time>2022-06-18T07:47:00Z</time>
      </trkpt>
      <trkpt lat="46.41855" lon="5.46612">
        <ele>369</ele>
        <time>2022-06-18T07:47:05Z</time>
      </trkpt>
      <trkpt lat="46.41862" lon="5.46613">
        <ele>369</ele>
        <time>2022-06-18T07:47:06Z</time>
      </trkpt>
      <trkpt lat="46.41902" lon="5.46626">
        <ele>368.8</ele>
        <time>2022-06-18T07:47:12Z</time>
      </trkpt>
      <trkpt lat="46.41955" lon="5.46655">
        <ele>368.6</ele>
        <time>2022-06-18T07:47:20Z</time>
      </trkpt>
      <trkpt lat="46.41963" lon="5.4666">
        <ele>368.4</ele>
        <time>2022-06-18T07:47:21Z</time>
      </trkpt>
      <trkpt lat="46.41979" lon="5.46674">
        <ele>368</ele>
        <time>2022-06-18T07:47:24Z</time>
      </trkpt>
      <trkpt lat="46.41986" lon="5.4668">
        <ele>367.8</ele>
        <time>2022-06-18T07:47:25Z</time>
      </trkpt>
      <trkpt lat="46.42024" lon="5.46719">
        <ele>367.2</ele>
        <time>2022-06-18T07:47:32Z</time>
      </trkpt>
      <trkpt lat="46.42031" lon="5.46724">
        <ele>367</ele>
        <time>2022-06-18T07:47:33Z</time>
      </trkpt>
      <trkpt lat="46.42038" lon="5.46728">
        <ele>366.6</ele>
        <time>2022-06-18T07:47:34Z</time>
      </trkpt>
      <trkpt lat="46.42056" lon="5.46736">
        <ele>365.8</ele>
        <time>2022-06-18T07:47:36Z</time>
      </trkpt>
      <trkpt lat="46.42064" lon="5.46739">
        <ele>365.2</ele>
        <time>2022-06-18T07:47:37Z</time>
      </trkpt>
      <trkpt lat="46.42105" lon="5.46756">
        <ele>364</ele>
        <time>2022-06-18T07:47:42Z</time>
      </trkpt>
      <trkpt lat="46.42114" lon="5.46761">
        <ele>363.8</ele>
        <time>2022-06-18T07:47:43Z</time>
      </trkpt>
      <trkpt lat="46.4213" lon="5.4677">
        <ele>363</ele>
        <time>2022-06-18T07:47:45Z</time>
      </trkpt>
      <trkpt lat="46.42165" lon="5.46793">
        <ele>362.8</ele>
        <time>2022-06-18T07:47:50Z</time>
      </trkpt>
      <trkpt lat="46.42187" lon="5.46809">
        <ele>363</ele>
        <time>2022-06-18T07:47:53Z</time>
      </trkpt>
      <trkpt lat="46.42199" lon="5.46818">
        <ele>363.2</ele>
        <time>2022-06-18T07:47:55Z</time>
      </trkpt>
      <trkpt lat="46.42204" lon="5.46821">
        <ele>363.2</ele>
        <time>2022-06-18T07:47:56Z</time>
      </trkpt>
      <trkpt lat="46.42211" lon="5.46824">
        <ele>363.4</ele>
        <time>2022-06-18T07:47:57Z</time>
      </trkpt>
      <trkpt lat="46.42226" lon="5.46825">
        <ele>363.6</ele>
        <time>2022-06-18T07:48:00Z</time>
      </trkpt>
      <trkpt lat="46.42231" lon="5.46823">
        <ele>364</ele>
        <time>2022-06-18T07:48:01Z</time>
      </trkpt>
      <trkpt lat="46.42242" lon="5.46816">
        <ele>365.2</ele>
        <time>2022-06-18T07:48:03Z</time>
      </trkpt>
      <trkpt lat="46.4225" lon="5.46808">
        <ele>366.2</ele>
        <time>2022-06-18T07:48:05Z</time>
      </trkpt>
      <trkpt lat="46.42257" lon="5.46796">
        <ele>366.6</ele>
        <time>2022-06-18T07:48:07Z</time>
      </trkpt>
      <trkpt lat="46.42268" lon="5.46776">
        <ele>367.2</ele>
        <time>2022-06-18T07:48:10Z</time>
      </trkpt>
      <trkpt lat="46.42272" lon="5.46769">
        <ele>367.2</ele>
        <time>2022-06-18T07:48:11Z</time>
      </trkpt>
      <trkpt lat="46.42277" lon="5.46763">
        <ele>367.6</ele>
        <time>2022-06-18T07:48:12Z</time>
      </trkpt>
      <trkpt lat="46.42293" lon="5.46743">
        <ele>367.8</ele>
        <time>2022-06-18T07:48:15Z</time>
      </trkpt>
      <trkpt lat="46.42305" lon="5.46737">
        <ele>367.8</ele>
        <time>2022-06-18T07:48:17Z</time>
      </trkpt>
      <trkpt lat="46.42311" lon="5.46738">
        <ele>367.8</ele>
        <time>2022-06-18T07:48:18Z</time>
      </trkpt>
      <trkpt lat="46.42317" lon="5.46741">
        <ele>367.8</ele>
        <time>2022-06-18T07:48:19Z</time>
      </trkpt>
      <trkpt lat="46.42338" lon="5.46752">
        <ele>367.4</ele>
        <time>2022-06-18T07:48:22Z</time>
      </trkpt>
      <trkpt lat="46.4239" lon="5.46777">
        <ele>367.6</ele>
        <time>2022-06-18T07:48:30Z</time>
      </trkpt>
      <trkpt lat="46.42441" lon="5.46807">
        <ele>367.2</ele>
        <time>2022-06-18T07:48:38Z</time>
      </trkpt>
      <trkpt lat="46.42446" lon="5.46811">
        <ele>367.2</ele>
        <time>2022-06-18T07:48:39Z</time>
      </trkpt>
      <trkpt lat="46.42496" lon="5.46845">
        <ele>367.4</ele>
        <time>2022-06-18T07:48:47Z</time>
      </trkpt>
      <trkpt lat="46.42502" lon="5.46849">
        <ele>367.4</ele>
        <time>2022-06-18T07:48:48Z</time>
      </trkpt>
      <trkpt lat="46.42513" lon="5.46856">
        <ele>367.6</ele>
        <time>2022-06-18T07:48:50Z</time>
      </trkpt>
      <trkpt lat="46.42529" lon="5.46856">
        <ele>367.4</ele>
        <time>2022-06-18T07:48:52Z</time>
      </trkpt>
      <trkpt lat="46.42543" lon="5.4685">
        <ele>367.4</ele>
        <time>2022-06-18T07:48:54Z</time>
      </trkpt>
      <trkpt lat="46.42555" lon="5.46841">
        <ele>367.2</ele>
        <time>2022-06-18T07:48:56Z</time>
      </trkpt>
      <trkpt lat="46.42605" lon="5.46795">
        <ele>366.4</ele>
        <time>2022-06-18T07:49:03Z</time>
      </trkpt>
      <trkpt lat="46.42611" lon="5.46789">
        <ele>366.2</ele>
        <time>2022-06-18T07:49:04Z</time>
      </trkpt>
      <trkpt lat="46.42647" lon="5.46751">
        <ele>365.2</ele>
        <time>2022-06-18T07:49:09Z</time>
      </trkpt>
      <trkpt lat="46.42663" lon="5.46737">
        <ele>364.8</ele>
        <time>2022-06-18T07:49:11Z</time>
      </trkpt>
      <trkpt lat="46.42689" lon="5.46725">
        <ele>364.4</ele>
        <time>2022-06-18T07:49:14Z</time>
      </trkpt>
      <trkpt lat="46.42698" lon="5.46722">
        <ele>364.2</ele>
        <time>2022-06-18T07:49:15Z</time>
      </trkpt>
      <trkpt lat="46.42753" lon="5.46709">
        <ele>363.2</ele>
        <time>2022-06-18T07:49:21Z</time>
      </trkpt>
      <trkpt lat="46.42772" lon="5.46702">
        <ele>362.6</ele>
        <time>2022-06-18T07:49:23Z</time>
      </trkpt>
      <trkpt lat="46.42797" lon="5.46693">
        <ele>361.8</ele>
        <time>2022-06-18T07:49:26Z</time>
      </trkpt>
      <trkpt lat="46.42853" lon="5.46675">
        <ele>361.2</ele>
        <time>2022-06-18T07:49:32Z</time>
      </trkpt>
      <trkpt lat="46.42913" lon="5.46667">
        <ele>361.4</ele>
        <time>2022-06-18T07:49:39Z</time>
      </trkpt>
      <trkpt lat="46.4292" lon="5.46667">
        <ele>361.4</ele>
        <time>2022-06-18T07:49:40Z</time>
      </trkpt>
      <trkpt lat="46.42975" lon="5.46662">
        <ele>361.6</ele>
        <time>2022-06-18T07:49:47Z</time>
      </trkpt>
      <trkpt lat="46.42983" lon="5.46661">
        <ele>361.8</ele>
        <time>2022-06-18T07:49:48Z</time>
      </trkpt>
      <trkpt lat="46.43024" lon="5.46648">
        <ele>362.4</ele>
        <time>2022-06-18T07:49:54Z</time>
      </trkpt>
      <trkpt lat="46.43036" lon="5.46644">
        <ele>362.8</ele>
        <time>2022-06-18T07:49:56Z</time>
      </trkpt>
      <trkpt lat="46.43055" lon="5.46642">
        <ele>363.4</ele>
        <time>2022-06-18T07:49:59Z</time>
      </trkpt>
      <trkpt lat="46.43067" lon="5.46644">
        <ele>364.2</ele>
        <time>2022-06-18T07:50:01Z</time>
      </trkpt>
      <trkpt lat="46.43085" lon="5.46649">
        <ele>364.6</ele>
        <time>2022-06-18T07:50:04Z</time>
      </trkpt>
      <trkpt lat="46.43098" lon="5.46654">
        <ele>365</ele>
        <time>2022-06-18T07:50:06Z</time>
      </trkpt>
      <trkpt lat="46.43109" lon="5.46656">
        <ele>365.4</ele>
        <time>2022-06-18T07:50:08Z</time>
      </trkpt>
      <trkpt lat="46.43116" lon="5.46656">
        <ele>365.4</ele>
        <time>2022-06-18T07:50:09Z</time>
      </trkpt>
      <trkpt lat="46.43121" lon="5.46656">
        <ele>365.8</ele>
        <time>2022-06-18T07:50:10Z</time>
      </trkpt>
      <trkpt lat="46.43152" lon="5.46646">
        <ele>366.4</ele>
        <time>2022-06-18T07:50:15Z</time>
      </trkpt>
      <trkpt lat="46.43156" lon="5.46644">
        <ele>366.4</ele>
        <time>2022-06-18T07:50:16Z</time>
      </trkpt>
      <trkpt lat="46.43188" lon="5.46618">
        <ele>367.4</ele>
        <time>2022-06-18T07:50:22Z</time>
      </trkpt>
      <trkpt lat="46.43214" lon="5.46585">
        <ele>367.8</ele>
        <time>2022-06-18T07:50:28Z</time>
      </trkpt>
      <trkpt lat="46.43226" lon="5.46567">
        <ele>368</ele>
        <time>2022-06-18T07:50:31Z</time>
      </trkpt>
      <trkpt lat="46.43234" lon="5.46555">
        <ele>368.8</ele>
        <time>2022-06-18T07:50:33Z</time>
      </trkpt>
      <trkpt lat="46.43243" lon="5.46544">
        <ele>369.6</ele>
        <time>2022-06-18T07:50:35Z</time>
      </trkpt>
      <trkpt lat="46.43246" lon="5.46539">
        <ele>369.8</ele>
        <time>2022-06-18T07:50:36Z</time>
      </trkpt>
      <trkpt lat="46.43273" lon="5.46502">
        <ele>370.6</ele>
        <time>2022-06-18T07:50:42Z</time>
      </trkpt>
      <trkpt lat="46.43277" lon="5.46494">
        <ele>370.8</ele>
        <time>2022-06-18T07:50:43Z</time>
      </trkpt>
      <trkpt lat="46.4328" lon="5.46486">
        <ele>370.8</ele>
        <time>2022-06-18T07:50:44Z</time>
      </trkpt>
      <trkpt lat="46.43288" lon="5.46459">
        <ele>371</ele>
        <time>2022-06-18T07:50:47Z</time>
      </trkpt>
      <trkpt lat="46.43302" lon="5.46392">
        <ele>370.4</ele>
        <time>2022-06-18T07:50:54Z</time>
      </trkpt>
      <trkpt lat="46.43316" lon="5.46338">
        <ele>370</ele>
        <time>2022-06-18T07:51:00Z</time>
      </trkpt>
      <trkpt lat="46.4332" lon="5.4633">
        <ele>370</ele>
        <time>2022-06-18T07:51:01Z</time>
      </trkpt>
      <trkpt lat="46.43348" lon="5.46263">
        <ele>370.6</ele>
        <time>2022-06-18T07:51:09Z</time>
      </trkpt>
      <trkpt lat="46.43352" lon="5.46255">
        <ele>370.6</ele>
        <time>2022-06-18T07:51:10Z</time>
      </trkpt>
      <trkpt lat="46.43376" lon="5.46218">
        <ele>368.6</ele>
        <time>2022-06-18T07:51:15Z</time>
      </trkpt>
      <trkpt lat="46.43381" lon="5.46213">
        <ele>368.4</ele>
        <time>2022-06-18T07:51:16Z</time>
      </trkpt>
      <trkpt lat="46.43408" lon="5.46189">
        <ele>367.2</ele>
        <time>2022-06-18T07:51:20Z</time>
      </trkpt>
      <trkpt lat="46.43428" lon="5.46173">
        <ele>366.4</ele>
        <time>2022-06-18T07:51:23Z</time>
      </trkpt>
      <trkpt lat="46.43475" lon="5.4613">
        <ele>366.2</ele>
        <time>2022-06-18T07:51:30Z</time>
      </trkpt>
      <trkpt lat="46.43482" lon="5.46124">
        <ele>366.2</ele>
        <time>2022-06-18T07:51:31Z</time>
      </trkpt>
      <trkpt lat="46.43531" lon="5.4609">
        <ele>365.4</ele>
        <time>2022-06-18T07:51:38Z</time>
      </trkpt>
      <trkpt lat="46.43569" lon="5.46078">
        <ele>365.4</ele>
        <time>2022-06-18T07:51:43Z</time>
      </trkpt>
      <trkpt lat="46.43629" lon="5.46066">
        <ele>365.4</ele>
        <time>2022-06-18T07:51:51Z</time>
      </trkpt>
      <trkpt lat="46.43661" lon="5.46056">
        <ele>365.2</ele>
        <time>2022-06-18T07:51:55Z</time>
      </trkpt>
      <trkpt lat="46.43668" lon="5.46052">
        <ele>365</ele>
        <time>2022-06-18T07:51:56Z</time>
      </trkpt>
      <trkpt lat="46.43676" lon="5.46047">
        <ele>365</ele>
        <time>2022-06-18T07:51:57Z</time>
      </trkpt>
      <trkpt lat="46.43689" lon="5.46032">
        <ele>364.6</ele>
        <time>2022-06-18T07:51:59Z</time>
      </trkpt>
      <trkpt lat="46.43701" lon="5.46013">
        <ele>364.4</ele>
        <time>2022-06-18T07:52:01Z</time>
      </trkpt>
      <trkpt lat="46.43706" lon="5.46003">
        <ele>364</ele>
        <time>2022-06-18T07:52:02Z</time>
      </trkpt>
      <trkpt lat="46.4373" lon="5.45969">
        <ele>363.4</ele>
        <time>2022-06-18T07:52:06Z</time>
      </trkpt>
      <trkpt lat="46.43765" lon="5.45929">
        <ele>363.4</ele>
        <time>2022-06-18T07:52:12Z</time>
      </trkpt>
      <trkpt lat="46.43784" lon="5.45909">
        <ele>363.6</ele>
        <time>2022-06-18T07:52:15Z</time>
      </trkpt>
      <trkpt lat="46.43796" lon="5.45902">
        <ele>363.8</ele>
        <time>2022-06-18T07:52:17Z</time>
      </trkpt>
      <trkpt lat="46.43832" lon="5.45884">
        <ele>365</ele>
        <time>2022-06-18T07:52:22Z</time>
      </trkpt>
      <trkpt lat="46.43846" lon="5.45878">
        <ele>365.2</ele>
        <time>2022-06-18T07:52:24Z</time>
      </trkpt>
      <trkpt lat="46.43879" lon="5.45862">
        <ele>365.2</ele>
        <time>2022-06-18T07:52:28Z</time>
      </trkpt>
      <trkpt lat="46.43885" lon="5.45857">
        <ele>365</ele>
        <time>2022-06-18T07:52:29Z</time>
      </trkpt>
      <trkpt lat="46.43891" lon="5.45849">
        <ele>364.8</ele>
        <time>2022-06-18T07:52:30Z</time>
      </trkpt>
      <trkpt lat="46.439" lon="5.45828">
        <ele>364.8</ele>
        <time>2022-06-18T07:52:32Z</time>
      </trkpt>
      <trkpt lat="46.439" lon="5.4581">
        <ele>364.4</ele>
        <time>2022-06-18T07:52:34Z</time>
      </trkpt>
      <trkpt lat="46.43897" lon="5.458">
        <ele>364.2</ele>
        <time>2022-06-18T07:52:35Z</time>
      </trkpt>
      <trkpt lat="46.43894" lon="5.45789">
        <ele>364.2</ele>
        <time>2022-06-18T07:52:36Z</time>
      </trkpt>
      <trkpt lat="46.4388" lon="5.45735">
        <ele>363.8</ele>
        <time>2022-06-18T07:52:42Z</time>
      </trkpt>
      <trkpt lat="46.43879" lon="5.45712">
        <ele>364.2</ele>
        <time>2022-06-18T07:52:45Z</time>
      </trkpt>
      <trkpt lat="46.43881" lon="5.45703">
        <ele>364.4</ele>
        <time>2022-06-18T07:52:46Z</time>
      </trkpt>
      <trkpt lat="46.43883" lon="5.45698">
        <ele>364.4</ele>
        <time>2022-06-18T07:52:47Z</time>
      </trkpt>
      <trkpt lat="46.43892" lon="5.45691">
        <ele>364.4</ele>
        <time>2022-06-18T07:52:49Z</time>
      </trkpt>
      <trkpt lat="46.43918" lon="5.45689">
        <ele>364.4</ele>
        <time>2022-06-18T07:52:53Z</time>
      </trkpt>
      <trkpt lat="46.4394" lon="5.45686">
        <ele>364.2</ele>
        <time>2022-06-18T07:52:56Z</time>
      </trkpt>
      <trkpt lat="46.43971" lon="5.45681">
        <ele>363.8</ele>
        <time>2022-06-18T07:53:00Z</time>
      </trkpt>
      <trkpt lat="46.4403" lon="5.45671">
        <ele>363.8</ele>
        <time>2022-06-18T07:53:08Z</time>
      </trkpt>
      <trkpt lat="46.44039" lon="5.45669">
        <ele>363.8</ele>
        <time>2022-06-18T07:53:09Z</time>
      </trkpt>
      <trkpt lat="46.44094" lon="5.45659">
        <ele>364.2</ele>
        <time>2022-06-18T07:53:17Z</time>
      </trkpt>
      <trkpt lat="46.44101" lon="5.45658">
        <ele>364.2</ele>
        <time>2022-06-18T07:53:18Z</time>
      </trkpt>
      <trkpt lat="46.44158" lon="5.45647">
        <ele>364.6</ele>
        <time>2022-06-18T07:53:26Z</time>
      </trkpt>
      <trkpt lat="46.44165" lon="5.45645">
        <ele>364.6</ele>
        <time>2022-06-18T07:53:27Z</time>
      </trkpt>
      <trkpt lat="46.44221" lon="5.45635">
        <ele>365</ele>
        <time>2022-06-18T07:53:35Z</time>
      </trkpt>
      <trkpt lat="46.44243" lon="5.45631">
        <ele>365.2</ele>
        <time>2022-06-18T07:53:38Z</time>
      </trkpt>
      <trkpt lat="46.44255" lon="5.4563">
        <ele>365.2</ele>
        <time>2022-06-18T07:53:40Z</time>
      </trkpt>
      <trkpt lat="46.4429" lon="5.4563">
        <ele>365.8</ele>
        <time>2022-06-18T07:53:45Z</time>
      </trkpt>
      <trkpt lat="46.44303" lon="5.45631">
        <ele>366.2</ele>
        <time>2022-06-18T07:53:47Z</time>
      </trkpt>
      <trkpt lat="46.44355" lon="5.45638">
        <ele>367.2</ele>
        <time>2022-06-18T07:53:55Z</time>
      </trkpt>
      <trkpt lat="46.44401" lon="5.45643">
        <ele>368.4</ele>
        <time>2022-06-18T07:54:02Z</time>
      </trkpt>
      <trkpt lat="46.44413" lon="5.45644">
        <ele>368.8</ele>
        <time>2022-06-18T07:54:04Z</time>
      </trkpt>
      <trkpt lat="46.44444" lon="5.45646">
        <ele>369.4</ele>
        <time>2022-06-18T07:54:09Z</time>
      </trkpt>
      <trkpt lat="46.44469" lon="5.45648">
        <ele>370.2</ele>
        <time>2022-06-18T07:54:13Z</time>
      </trkpt>
      <trkpt lat="46.44488" lon="5.45651">
        <ele>370.8</ele>
        <time>2022-06-18T07:54:16Z</time>
      </trkpt>
      <trkpt lat="46.44523" lon="5.4566">
        <ele>371.4</ele>
        <time>2022-06-18T07:54:21Z</time>
      </trkpt>
      <trkpt lat="46.44576" lon="5.45676">
        <ele>371.2</ele>
        <time>2022-06-18T07:54:28Z</time>
      </trkpt>
      <trkpt lat="46.44592" lon="5.45681">
        <ele>371</ele>
        <time>2022-06-18T07:54:30Z</time>
      </trkpt>
      <trkpt lat="46.44645" lon="5.45699">
        <ele>370.6</ele>
        <time>2022-06-18T07:54:37Z</time>
      </trkpt>
      <trkpt lat="46.44668" lon="5.45707">
        <ele>370.2</ele>
        <time>2022-06-18T07:54:40Z</time>
      </trkpt>
      <trkpt lat="46.44704" lon="5.45722">
        <ele>370.2</ele>
        <time>2022-06-18T07:54:45Z</time>
      </trkpt>
      <trkpt lat="46.44716" lon="5.45727">
        <ele>370.2</ele>
        <time>2022-06-18T07:54:47Z</time>
      </trkpt>
      <trkpt lat="46.44773" lon="5.45755">
        <ele>371.2</ele>
        <time>2022-06-18T07:54:55Z</time>
      </trkpt>
      <trkpt lat="46.44779" lon="5.45758">
        <ele>371.4</ele>
        <time>2022-06-18T07:54:56Z</time>
      </trkpt>
      <trkpt lat="46.44831" lon="5.45788">
        <ele>372</ele>
        <time>2022-06-18T07:55:04Z</time>
      </trkpt>
      <trkpt lat="46.44859" lon="5.45804">
        <ele>372.2</ele>
        <time>2022-06-18T07:55:08Z</time>
      </trkpt>
      <trkpt lat="46.44914" lon="5.45836">
        <ele>372.4</ele>
        <time>2022-06-18T07:55:16Z</time>
      </trkpt>
      <trkpt lat="46.4492" lon="5.45839">
        <ele>372.4</ele>
        <time>2022-06-18T07:55:17Z</time>
      </trkpt>
      <trkpt lat="46.44975" lon="5.45872">
        <ele>372</ele>
        <time>2022-06-18T07:55:24Z</time>
      </trkpt>
      <trkpt lat="46.44983" lon="5.45876">
        <ele>371.8</ele>
        <time>2022-06-18T07:55:25Z</time>
      </trkpt>
      <trkpt lat="46.45015" lon="5.45896">
        <ele>370.8</ele>
        <time>2022-06-18T07:55:29Z</time>
      </trkpt>
      <trkpt lat="46.4504" lon="5.4591">
        <ele>370.2</ele>
        <time>2022-06-18T07:55:32Z</time>
      </trkpt>
      <trkpt lat="46.45056" lon="5.45921">
        <ele>369.6</ele>
        <time>2022-06-18T07:55:34Z</time>
      </trkpt>
      <trkpt lat="46.45098" lon="5.45942">
        <ele>369</ele>
        <time>2022-06-18T07:55:39Z</time>
      </trkpt>
      <trkpt lat="46.45144" lon="5.45972">
        <ele>369</ele>
        <time>2022-06-18T07:55:45Z</time>
      </trkpt>
      <trkpt lat="46.45182" lon="5.46003">
        <ele>370</ele>
        <time>2022-06-18T07:55:51Z</time>
      </trkpt>
      <trkpt lat="46.45196" lon="5.46011">
        <ele>370.4</ele>
        <time>2022-06-18T07:55:53Z</time>
      </trkpt>
      <trkpt lat="46.45208" lon="5.46023">
        <ele>370.8</ele>
        <time>2022-06-18T07:55:55Z</time>
      </trkpt>
      <trkpt lat="46.4523" lon="5.46044">
        <ele>371.6</ele>
        <time>2022-06-18T07:55:59Z</time>
      </trkpt>
      <trkpt lat="46.45236" lon="5.46047">
        <ele>372</ele>
        <time>2022-06-18T07:56:00Z</time>
      </trkpt>
      <trkpt lat="46.45254" lon="5.46051">
        <ele>372.8</ele>
        <time>2022-06-18T07:56:03Z</time>
      </trkpt>
      <trkpt lat="46.45261" lon="5.46052">
        <ele>373.2</ele>
        <time>2022-06-18T07:56:04Z</time>
      </trkpt>
      <trkpt lat="46.45296" lon="5.46057">
        <ele>374.4</ele>
        <time>2022-06-18T07:56:09Z</time>
      </trkpt>
      <trkpt lat="46.45355" lon="5.46068">
        <ele>374.6</ele>
        <time>2022-06-18T07:56:17Z</time>
      </trkpt>
      <trkpt lat="46.45408" lon="5.46078">
        <ele>374</ele>
        <time>2022-06-18T07:56:24Z</time>
      </trkpt>
      <trkpt lat="46.45416" lon="5.46079">
        <ele>374</ele>
        <time>2022-06-18T07:56:25Z</time>
      </trkpt>
      <trkpt lat="46.45474" lon="5.46089">
        <ele>373.4</ele>
        <time>2022-06-18T07:56:32Z</time>
      </trkpt>
      <trkpt lat="46.45528" lon="5.46099">
        <ele>372.4</ele>
        <time>2022-06-18T07:56:38Z</time>
      </trkpt>
      <trkpt lat="46.45538" lon="5.46101">
        <ele>372.2</ele>
        <time>2022-06-18T07:56:39Z</time>
      </trkpt>
      <trkpt lat="46.45585" lon="5.4611">
        <ele>370.8</ele>
        <time>2022-06-18T07:56:44Z</time>
      </trkpt>
      <trkpt lat="46.45623" lon="5.46116">
        <ele>369.8</ele>
        <time>2022-06-18T07:56:48Z</time>
      </trkpt>
      <trkpt lat="46.45633" lon="5.46117">
        <ele>369.6</ele>
        <time>2022-06-18T07:56:49Z</time>
      </trkpt>
      <trkpt lat="46.45689" lon="5.46127">
        <ele>368.6</ele>
        <time>2022-06-18T07:56:55Z</time>
      </trkpt>
      <trkpt lat="46.45696" lon="5.46129">
        <ele>368.4</ele>
        <time>2022-06-18T07:56:56Z</time>
      </trkpt>
      <trkpt lat="46.45753" lon="5.46139">
        <ele>367.8</ele>
        <time>2022-06-18T07:57:02Z</time>
      </trkpt>
      <trkpt lat="46.4578" lon="5.46144">
        <ele>367.8</ele>
        <time>2022-06-18T07:57:05Z</time>
      </trkpt>
      <trkpt lat="46.45798" lon="5.46147">
        <ele>367.6</ele>
        <time>2022-06-18T07:57:07Z</time>
      </trkpt>
      <trkpt lat="46.45851" lon="5.46156">
        <ele>367.6</ele>
        <time>2022-06-18T07:57:13Z</time>
      </trkpt>
      <trkpt lat="46.45911" lon="5.46167">
        <ele>367.6</ele>
        <time>2022-06-18T07:57:20Z</time>
      </trkpt>
      <trkpt lat="46.45937" lon="5.46171">
        <ele>367.6</ele>
        <time>2022-06-18T07:57:23Z</time>
      </trkpt>
      <trkpt lat="46.45995" lon="5.46181">
        <ele>367.6</ele>
        <time>2022-06-18T07:57:30Z</time>
      </trkpt>
      <trkpt lat="46.46011" lon="5.46184">
        <ele>367.6</ele>
        <time>2022-06-18T07:57:32Z</time>
      </trkpt>
      <trkpt lat="46.46068" lon="5.46194">
        <ele>367.6</ele>
        <time>2022-06-18T07:57:39Z</time>
      </trkpt>
      <trkpt lat="46.46116" lon="5.46203">
        <ele>367.6</ele>
        <time>2022-06-18T07:57:45Z</time>
      </trkpt>
      <trkpt lat="46.46172" lon="5.46213">
        <ele>367.8</ele>
        <time>2022-06-18T07:57:52Z</time>
      </trkpt>
      <trkpt lat="46.46195" lon="5.46218">
        <ele>367.8</ele>
        <time>2022-06-18T07:57:55Z</time>
      </trkpt>
      <trkpt lat="46.46251" lon="5.46227">
        <ele>367.8</ele>
        <time>2022-06-18T07:58:02Z</time>
      </trkpt>
      <trkpt lat="46.46307" lon="5.46236">
        <ele>368</ele>
        <time>2022-06-18T07:58:09Z</time>
      </trkpt>
      <trkpt lat="46.46364" lon="5.46246">
        <ele>368.2</ele>
        <time>2022-06-18T07:58:16Z</time>
      </trkpt>
      <trkpt lat="46.46395" lon="5.46252">
        <ele>368.2</ele>
        <time>2022-06-18T07:58:20Z</time>
      </trkpt>
      <trkpt lat="46.4645" lon="5.46262">
        <ele>368.4</ele>
        <time>2022-06-18T07:58:27Z</time>
      </trkpt>
      <trkpt lat="46.46489" lon="5.4627">
        <ele>367.8</ele>
        <time>2022-06-18T07:58:32Z</time>
      </trkpt>
      <trkpt lat="46.46552" lon="5.4628">
        <ele>368</ele>
        <time>2022-06-18T07:58:40Z</time>
      </trkpt>
      <trkpt lat="46.46559" lon="5.46282">
        <ele>368</ele>
        <time>2022-06-18T07:58:41Z</time>
      </trkpt>
      <trkpt lat="46.46613" lon="5.4629">
        <ele>368.2</ele>
        <time>2022-06-18T07:58:48Z</time>
      </trkpt>
      <trkpt lat="46.4667" lon="5.46301">
        <ele>368.6</ele>
        <time>2022-06-18T07:58:55Z</time>
      </trkpt>
      <trkpt lat="46.46678" lon="5.46303">
        <ele>368.6</ele>
        <time>2022-06-18T07:58:56Z</time>
      </trkpt>
      <trkpt lat="46.46733" lon="5.46313">
        <ele>368.8</ele>
        <time>2022-06-18T07:59:03Z</time>
      </trkpt>
      <trkpt lat="46.46788" lon="5.46323">
        <ele>369</ele>
        <time>2022-06-18T07:59:10Z</time>
      </trkpt>
      <trkpt lat="46.46804" lon="5.46326">
        <ele>369</ele>
        <time>2022-06-18T07:59:12Z</time>
      </trkpt>
      <trkpt lat="46.46858" lon="5.46335">
        <ele>369</ele>
        <time>2022-06-18T07:59:19Z</time>
      </trkpt>
      <trkpt lat="46.46889" lon="5.46341">
        <ele>369</ele>
        <time>2022-06-18T07:59:23Z</time>
      </trkpt>
      <trkpt lat="46.46943" lon="5.4635">
        <ele>369.2</ele>
        <time>2022-06-18T07:59:30Z</time>
      </trkpt>
      <trkpt lat="46.46966" lon="5.46354">
        <ele>369.4</ele>
        <time>2022-06-18T07:59:33Z</time>
      </trkpt>
      <trkpt lat="46.47026" lon="5.46366">
        <ele>369.4</ele>
        <time>2022-06-18T07:59:41Z</time>
      </trkpt>
      <trkpt lat="46.47034" lon="5.46367">
        <ele>369.4</ele>
        <time>2022-06-18T07:59:42Z</time>
      </trkpt>
      <trkpt lat="46.47094" lon="5.46378">
        <ele>369.4</ele>
        <time>2022-06-18T07:59:50Z</time>
      </trkpt>
      <trkpt lat="46.47116" lon="5.46382">
        <ele>369.4</ele>
        <time>2022-06-18T07:59:53Z</time>
      </trkpt>
      <trkpt lat="46.47167" lon="5.4639">
        <ele>369.6</ele>
        <time>2022-06-18T08:00:00Z</time>
      </trkpt>
      <trkpt lat="46.47224" lon="5.46402">
        <ele>370.2</ele>
        <time>2022-06-18T08:00:08Z</time>
      </trkpt>
      <trkpt lat="46.47232" lon="5.46403">
        <ele>370.2</ele>
        <time>2022-06-18T08:00:09Z</time>
      </trkpt>
      <trkpt lat="46.4729" lon="5.46413">
        <ele>370.6</ele>
        <time>2022-06-18T08:00:17Z</time>
      </trkpt>
      <trkpt lat="46.47337" lon="5.46423">
        <ele>371.4</ele>
        <time>2022-06-18T08:00:24Z</time>
      </trkpt>
      <trkpt lat="46.47351" lon="5.46426">
        <ele>371.8</ele>
        <time>2022-06-18T08:00:26Z</time>
      </trkpt>
      <trkpt lat="46.4738" lon="5.4643">
        <ele>372.4</ele>
        <time>2022-06-18T08:00:30Z</time>
      </trkpt>
      <trkpt lat="46.47416" lon="5.46436">
        <ele>372.8</ele>
        <time>2022-06-18T08:00:35Z</time>
      </trkpt>
      <trkpt lat="46.47457" lon="5.46443">
        <ele>373.6</ele>
        <time>2022-06-18T08:00:41Z</time>
      </trkpt>
      <trkpt lat="46.47496" lon="5.4645">
        <ele>374.2</ele>
        <time>2022-06-18T08:00:47Z</time>
      </trkpt>
      <trkpt lat="46.47528" lon="5.46455">
        <ele>374.8</ele>
        <time>2022-06-18T08:00:52Z</time>
      </trkpt>
      <trkpt lat="46.47574" lon="5.46464">
        <ele>375.8</ele>
        <time>2022-06-18T08:00:59Z</time>
      </trkpt>
      <trkpt lat="46.47587" lon="5.46466">
        <ele>376</ele>
        <time>2022-06-18T08:01:01Z</time>
      </trkpt>
      <trkpt lat="46.4763" lon="5.46474">
        <ele>377.2</ele>
        <time>2022-06-18T08:01:08Z</time>
      </trkpt>
      <trkpt lat="46.47688" lon="5.46485">
        <ele>378</ele>
        <time>2022-06-18T08:01:17Z</time>
      </trkpt>
      <trkpt lat="46.47695" lon="5.46486">
        <ele>378</ele>
        <time>2022-06-18T08:01:18Z</time>
      </trkpt>
      <trkpt lat="46.47743" lon="5.46495">
        <ele>378</ele>
        <time>2022-06-18T08:01:25Z</time>
      </trkpt>
      <trkpt lat="46.478" lon="5.46505">
        <ele>378</ele>
        <time>2022-06-18T08:01:33Z</time>
      </trkpt>
      <trkpt lat="46.47807" lon="5.46506">
        <ele>378</ele>
        <time>2022-06-18T08:01:34Z</time>
      </trkpt>
      <trkpt lat="46.47865" lon="5.46517">
        <ele>378.2</ele>
        <time>2022-06-18T08:01:42Z</time>
      </trkpt>
      <trkpt lat="46.47886" lon="5.46521">
        <ele>378.2</ele>
        <time>2022-06-18T08:01:45Z</time>
      </trkpt>
      <trkpt lat="46.47944" lon="5.46531">
        <ele>378.4</ele>
        <time>2022-06-18T08:01:53Z</time>
      </trkpt>
      <trkpt lat="46.47952" lon="5.46532">
        <ele>378.4</ele>
        <time>2022-06-18T08:01:54Z</time>
      </trkpt>
      <trkpt lat="46.47966" lon="5.46535">
        <ele>378.4</ele>
        <time>2022-06-18T08:01:56Z</time>
      </trkpt>
      <trkpt lat="46.48025" lon="5.46546">
        <ele>378.4</ele>
        <time>2022-06-18T08:02:04Z</time>
      </trkpt>
      <trkpt lat="46.48039" lon="5.46549">
        <ele>378.4</ele>
        <time>2022-06-18T08:02:06Z</time>
      </trkpt>
      <trkpt lat="46.48099" lon="5.46559">
        <ele>378</ele>
        <time>2022-06-18T08:02:14Z</time>
      </trkpt>
      <trkpt lat="46.48137" lon="5.46565">
        <ele>378</ele>
        <time>2022-06-18T08:02:19Z</time>
      </trkpt>
      <trkpt lat="46.48196" lon="5.46576">
        <ele>377.6</ele>
        <time>2022-06-18T08:02:27Z</time>
      </trkpt>
      <trkpt lat="46.48204" lon="5.46578">
        <ele>377.6</ele>
        <time>2022-06-18T08:02:28Z</time>
      </trkpt>
      <trkpt lat="46.48264" lon="5.46588">
        <ele>377.6</ele>
        <time>2022-06-18T08:02:36Z</time>
      </trkpt>
      <trkpt lat="46.48286" lon="5.46592">
        <ele>377.8</ele>
        <time>2022-06-18T08:02:39Z</time>
      </trkpt>
      <trkpt lat="46.48338" lon="5.46606">
        <ele>378</ele>
        <time>2022-06-18T08:02:46Z</time>
      </trkpt>
      <trkpt lat="46.48388" lon="5.46632">
        <ele>377.6</ele>
        <time>2022-06-18T08:02:53Z</time>
      </trkpt>
      <trkpt lat="46.48443" lon="5.46664">
        <ele>377.6</ele>
        <time>2022-06-18T08:03:01Z</time>
      </trkpt>
      <trkpt lat="46.48457" lon="5.46672">
        <ele>377.6</ele>
        <time>2022-06-18T08:03:03Z</time>
      </trkpt>
      <trkpt lat="46.48494" lon="5.46695">
        <ele>378</ele>
        <time>2022-06-18T08:03:09Z</time>
      </trkpt>
      <trkpt lat="46.48541" lon="5.46723">
        <ele>379.2</ele>
        <time>2022-06-18T08:03:17Z</time>
      </trkpt>
      <trkpt lat="46.48552" lon="5.46729">
        <ele>379.6</ele>
        <time>2022-06-18T08:03:19Z</time>
      </trkpt>
      <trkpt lat="46.48591" lon="5.46753">
        <ele>380.4</ele>
        <time>2022-06-18T08:03:26Z</time>
      </trkpt>
      <trkpt lat="46.48612" lon="5.46766">
        <ele>381</ele>
        <time>2022-06-18T08:03:30Z</time>
      </trkpt>
      <trkpt lat="46.48628" lon="5.46776">
        <ele>381.2</ele>
        <time>2022-06-18T08:03:33Z</time>
      </trkpt>
      <trkpt lat="46.48677" lon="5.46805">
        <ele>382</ele>
        <time>2022-06-18T08:03:43Z</time>
      </trkpt>
      <trkpt lat="46.48706" lon="5.46822">
        <ele>383</ele>
        <time>2022-06-18T08:03:49Z</time>
      </trkpt>
      <trkpt lat="46.48716" lon="5.46827">
        <ele>383.6</ele>
        <time>2022-06-18T08:03:51Z</time>
      </trkpt>
      <trkpt lat="46.4873" lon="5.46835">
        <ele>384</ele>
        <time>2022-06-18T08:03:54Z</time>
      </trkpt>
      <trkpt lat="46.48756" lon="5.4685">
        <ele>385.2</ele>
        <time>2022-06-18T08:04:00Z</time>
      </trkpt>
      <trkpt lat="46.4876" lon="5.46852">
        <ele>385.4</ele>
        <time>2022-06-18T08:04:01Z</time>
      </trkpt>
      <trkpt lat="46.48777" lon="5.46863">
        <ele>386.2</ele>
        <time>2022-06-18T08:04:05Z</time>
      </trkpt>
      <trkpt lat="46.48798" lon="5.46876">
        <ele>387</ele>
        <time>2022-06-18T08:04:10Z</time>
      </trkpt>
      <trkpt lat="46.48806" lon="5.46881">
        <ele>387.2</ele>
        <time>2022-06-18T08:04:12Z</time>
      </trkpt>
      <trkpt lat="46.48822" lon="5.4689">
        <ele>388.6</ele>
        <time>2022-06-18T08:04:16Z</time>
      </trkpt>
      <trkpt lat="46.48833" lon="5.46897">
        <ele>389</ele>
        <time>2022-06-18T08:04:19Z</time>
      </trkpt>
      <trkpt lat="46.48841" lon="5.46902">
        <ele>389.4</ele>
        <time>2022-06-18T08:04:21Z</time>
      </trkpt>
      <trkpt lat="46.48849" lon="5.46906">
        <ele>389.8</ele>
        <time>2022-06-18T08:04:23Z</time>
      </trkpt>
      <trkpt lat="46.4886" lon="5.4691">
        <ele>390.6</ele>
        <time>2022-06-18T08:04:26Z</time>
      </trkpt>
      <trkpt lat="46.48868" lon="5.46912">
        <ele>391</ele>
        <time>2022-06-18T08:04:28Z</time>
      </trkpt>
      <trkpt lat="46.48875" lon="5.46914">
        <ele>392.2</ele>
        <time>2022-06-18T08:04:30Z</time>
      </trkpt>
      <trkpt lat="46.48894" lon="5.46919">
        <ele>393.2</ele>
        <time>2022-06-18T08:04:35Z</time>
      </trkpt>
      <trkpt lat="46.48913" lon="5.46923">
        <ele>394.4</ele>
        <time>2022-06-18T08:04:40Z</time>
      </trkpt>
      <trkpt lat="46.48932" lon="5.46926">
        <ele>395.6</ele>
        <time>2022-06-18T08:04:45Z</time>
      </trkpt>
      <trkpt lat="46.48936" lon="5.46926">
        <ele>396.2</ele>
        <time>2022-06-18T08:04:46Z</time>
      </trkpt>
      <trkpt lat="46.48944" lon="5.46925">
        <ele>396.6</ele>
        <time>2022-06-18T08:04:48Z</time>
      </trkpt>
      <trkpt lat="46.48967" lon="5.46916">
        <ele>397.6</ele>
        <time>2022-06-18T08:04:54Z</time>
      </trkpt>
      <trkpt lat="46.48988" lon="5.46902">
        <ele>398.8</ele>
        <time>2022-06-18T08:05:00Z</time>
      </trkpt>
      <trkpt lat="46.48995" lon="5.46896">
        <ele>399.2</ele>
        <time>2022-06-18T08:05:02Z</time>
      </trkpt>
      <trkpt lat="46.49008" lon="5.46884">
        <ele>400</ele>
        <time>2022-06-18T08:05:06Z</time>
      </trkpt>
      <trkpt lat="46.49018" lon="5.46876">
        <ele>400.8</ele>
        <time>2022-06-18T08:05:09Z</time>
      </trkpt>
      <trkpt lat="46.49024" lon="5.4687">
        <ele>401.2</ele>
        <time>2022-06-18T08:05:11Z</time>
      </trkpt>
      <trkpt lat="46.49039" lon="5.46856">
        <ele>402.4</ele>
        <time>2022-06-18T08:05:16Z</time>
      </trkpt>
      <trkpt lat="46.49052" lon="5.46844">
        <ele>403.6</ele>
        <time>2022-06-18T08:05:20Z</time>
      </trkpt>
      <trkpt lat="46.49071" lon="5.46827">
        <ele>404.6</ele>
        <time>2022-06-18T08:05:26Z</time>
      </trkpt>
      <trkpt lat="46.49078" lon="5.46821">
        <ele>404.8</ele>
        <time>2022-06-18T08:05:28Z</time>
      </trkpt>
      <trkpt lat="46.49094" lon="5.46806">
        <ele>405.6</ele>
        <time>2022-06-18T08:05:33Z</time>
      </trkpt>
      <trkpt lat="46.49105" lon="5.46796">
        <ele>406.6</ele>
        <time>2022-06-18T08:05:36Z</time>
      </trkpt>
      <trkpt lat="46.49129" lon="5.46777">
        <ele>407.6</ele>
        <time>2022-06-18T08:05:43Z</time>
      </trkpt>
      <trkpt lat="46.49139" lon="5.4677">
        <ele>408.8</ele>
        <time>2022-06-18T08:05:46Z</time>
      </trkpt>
      <trkpt lat="46.49162" lon="5.46756">
        <ele>409.8</ele>
        <time>2022-06-18T08:05:52Z</time>
      </trkpt>
      <trkpt lat="46.49166" lon="5.46755">
        <ele>409.8</ele>
        <time>2022-06-18T08:05:53Z</time>
      </trkpt>
      <trkpt lat="46.49194" lon="5.4675">
        <ele>411</ele>
        <time>2022-06-18T08:06:00Z</time>
      </trkpt>
      <trkpt lat="46.49201" lon="5.4675">
        <ele>411.4</ele>
        <time>2022-06-18T08:06:02Z</time>
      </trkpt>
      <trkpt lat="46.49209" lon="5.46751">
        <ele>412</ele>
        <time>2022-06-18T08:06:04Z</time>
      </trkpt>
      <trkpt lat="46.49225" lon="5.46756">
        <ele>413.2</ele>
        <time>2022-06-18T08:06:08Z</time>
      </trkpt>
      <trkpt lat="46.49232" lon="5.46759">
        <ele>413.4</ele>
        <time>2022-06-18T08:06:10Z</time>
      </trkpt>
      <trkpt lat="46.49247" lon="5.46766">
        <ele>414.2</ele>
        <time>2022-06-18T08:06:14Z</time>
      </trkpt>
      <trkpt lat="46.49261" lon="5.46775">
        <ele>415.2</ele>
        <time>2022-06-18T08:06:18Z</time>
      </trkpt>
      <trkpt lat="46.49265" lon="5.46777">
        <ele>415.4</ele>
        <time>2022-06-18T08:06:19Z</time>
      </trkpt>
      <trkpt lat="46.49269" lon="5.46779">
        <ele>415.6</ele>
        <time>2022-06-18T08:06:20Z</time>
      </trkpt>
      <trkpt lat="46.49287" lon="5.4679">
        <ele>416.6</ele>
        <time>2022-06-18T08:06:25Z</time>
      </trkpt>
      <trkpt lat="46.49312" lon="5.46805">
        <ele>417.6</ele>
        <time>2022-06-18T08:06:32Z</time>
      </trkpt>
      <trkpt lat="46.49316" lon="5.46807">
        <ele>417.8</ele>
        <time>2022-06-18T08:06:33Z</time>
      </trkpt>
      <trkpt lat="46.49338" lon="5.46819">
        <ele>419</ele>
        <time>2022-06-18T08:06:39Z</time>
      </trkpt>
      <trkpt lat="46.49341" lon="5.46821">
        <ele>419.2</ele>
        <time>2022-06-18T08:06:40Z</time>
      </trkpt>
      <trkpt lat="46.4936" lon="5.46831">
        <ele>420</ele>
        <time>2022-06-18T08:06:45Z</time>
      </trkpt>
      <trkpt lat="46.4938" lon="5.46841">
        <ele>421</ele>
        <time>2022-06-18T08:06:50Z</time>
      </trkpt>
      <trkpt lat="46.49413" lon="5.46858">
        <ele>422.2</ele>
        <time>2022-06-18T08:06:58Z</time>
      </trkpt>
      <trkpt lat="46.49455" lon="5.46878">
        <ele>423.2</ele>
        <time>2022-06-18T08:07:07Z</time>
      </trkpt>
      <trkpt lat="46.4946" lon="5.46881">
        <ele>423.2</ele>
        <time>2022-06-18T08:07:08Z</time>
      </trkpt>
      <trkpt lat="46.49465" lon="5.46884">
        <ele>423.4</ele>
        <time>2022-06-18T08:07:09Z</time>
      </trkpt>
      <trkpt lat="46.49486" lon="5.46894">
        <ele>423.8</ele>
        <time>2022-06-18T08:07:13Z</time>
      </trkpt>
      <trkpt lat="46.49496" lon="5.469">
        <ele>424.2</ele>
        <time>2022-06-18T08:07:15Z</time>
      </trkpt>
      <trkpt lat="46.49501" lon="5.46902">
        <ele>424.6</ele>
        <time>2022-06-18T08:07:16Z</time>
      </trkpt>
      <trkpt lat="46.49531" lon="5.46918">
        <ele>425.6</ele>
        <time>2022-06-18T08:07:22Z</time>
      </trkpt>
      <trkpt lat="46.49566" lon="5.46933">
        <ele>426.6</ele>
        <time>2022-06-18T08:07:29Z</time>
      </trkpt>
      <trkpt lat="46.49587" lon="5.46942">
        <ele>427</ele>
        <time>2022-06-18T08:07:33Z</time>
      </trkpt>
      <trkpt lat="46.4962" lon="5.46951">
        <ele>427.8</ele>
        <time>2022-06-18T08:07:39Z</time>
      </trkpt>
      <trkpt lat="46.49648" lon="5.46957">
        <ele>428.4</ele>
        <time>2022-06-18T08:07:44Z</time>
      </trkpt>
      <trkpt lat="46.49675" lon="5.46963">
        <ele>428.8</ele>
        <time>2022-06-18T08:07:49Z</time>
      </trkpt>
      <trkpt lat="46.49696" lon="5.46968">
        <ele>429.4</ele>
        <time>2022-06-18T08:07:53Z</time>
      </trkpt>
      <trkpt lat="46.49712" lon="5.4697">
        <ele>430.2</ele>
        <time>2022-06-18T08:07:56Z</time>
      </trkpt>
      <trkpt lat="46.49745" lon="5.46976">
        <ele>430.8</ele>
        <time>2022-06-18T08:08:02Z</time>
      </trkpt>
      <trkpt lat="46.49774" lon="5.4698">
        <ele>431.2</ele>
        <time>2022-06-18T08:08:07Z</time>
      </trkpt>
      <trkpt lat="46.49791" lon="5.46983">
        <ele>431.6</ele>
        <time>2022-06-18T08:08:10Z</time>
      </trkpt>
      <trkpt lat="46.49825" lon="5.46988">
        <ele>432.2</ele>
        <time>2022-06-18T08:08:16Z</time>
      </trkpt>
      <trkpt lat="46.49842" lon="5.46992">
        <ele>432.6</ele>
        <time>2022-06-18T08:08:19Z</time>
      </trkpt>
      <trkpt lat="46.49878" lon="5.46999">
        <ele>433.2</ele>
        <time>2022-06-18T08:08:25Z</time>
      </trkpt>
      <trkpt lat="46.49894" lon="5.47002">
        <ele>433.6</ele>
        <time>2022-06-18T08:08:28Z</time>
      </trkpt>
      <trkpt lat="46.49935" lon="5.47011">
        <ele>434.2</ele>
        <time>2022-06-18T08:08:35Z</time>
      </trkpt>
      <trkpt lat="46.49947" lon="5.47014">
        <ele>434.2</ele>
        <time>2022-06-18T08:08:37Z</time>
      </trkpt>
      <trkpt lat="46.49994" lon="5.47027">
        <ele>434.8</ele>
        <time>2022-06-18T08:08:45Z</time>
      </trkpt>
      <trkpt lat="46.50043" lon="5.47031">
        <ele>435.2</ele>
        <time>2022-06-18T08:08:53Z</time>
      </trkpt>
      <trkpt lat="46.50061" lon="5.47029">
        <ele>435.4</ele>
        <time>2022-06-18T08:08:56Z</time>
      </trkpt>
      <trkpt lat="46.50095" lon="5.47021">
        <ele>436</ele>
        <time>2022-06-18T08:09:02Z</time>
      </trkpt>
      <trkpt lat="46.50101" lon="5.47019">
        <ele>436</ele>
        <time>2022-06-18T08:09:03Z</time>
      </trkpt>
      <trkpt lat="46.50131" lon="5.47007">
        <ele>436.4</ele>
        <time>2022-06-18T08:09:08Z</time>
      </trkpt>
      <trkpt lat="46.5015" lon="5.47">
        <ele>436.6</ele>
        <time>2022-06-18T08:09:11Z</time>
      </trkpt>
      <trkpt lat="46.50208" lon="5.46979">
        <ele>436.8</ele>
        <time>2022-06-18T08:09:20Z</time>
      </trkpt>
      <trkpt lat="46.50262" lon="5.46973">
        <ele>437</ele>
        <time>2022-06-18T08:09:28Z</time>
      </trkpt>
      <trkpt lat="46.5032" lon="5.4697">
        <ele>437</ele>
        <time>2022-06-18T08:09:36Z</time>
      </trkpt>
      <trkpt lat="46.50327" lon="5.4697">
        <ele>436.8</ele>
        <time>2022-06-18T08:09:37Z</time>
      </trkpt>
      <trkpt lat="46.50385" lon="5.4697">
        <ele>435.8</ele>
        <time>2022-06-18T08:09:44Z</time>
      </trkpt>
      <trkpt lat="46.50393" lon="5.4697">
        <ele>435.6</ele>
        <time>2022-06-18T08:09:45Z</time>
      </trkpt>
      <trkpt lat="46.50428" lon="5.46976">
        <ele>434.8</ele>
        <time>2022-06-18T08:09:49Z</time>
      </trkpt>
      <trkpt lat="46.50446" lon="5.46981">
        <ele>434.6</ele>
        <time>2022-06-18T08:09:51Z</time>
      </trkpt>
      <trkpt lat="46.50501" lon="5.46998">
        <ele>434</ele>
        <time>2022-06-18T08:09:57Z</time>
      </trkpt>
      <trkpt lat="46.50509" lon="5.47002">
        <ele>433.8</ele>
        <time>2022-06-18T08:09:58Z</time>
      </trkpt>
      <trkpt lat="46.50518" lon="5.47005">
        <ele>433.4</ele>
        <time>2022-06-18T08:09:59Z</time>
      </trkpt>
      <trkpt lat="46.50578" lon="5.47025">
        <ele>432.8</ele>
        <time>2022-06-18T08:10:06Z</time>
      </trkpt>
      <trkpt lat="46.50619" lon="5.47038">
        <ele>433.2</ele>
        <time>2022-06-18T08:10:11Z</time>
      </trkpt>
      <trkpt lat="46.50674" lon="5.47054">
        <ele>433.6</ele>
        <time>2022-06-18T08:10:18Z</time>
      </trkpt>
      <trkpt lat="46.50718" lon="5.47068">
        <ele>434.4</ele>
        <time>2022-06-18T08:10:24Z</time>
      </trkpt>
      <trkpt lat="46.50755" lon="5.47084">
        <ele>434.2</ele>
        <time>2022-06-18T08:10:29Z</time>
      </trkpt>
      <trkpt lat="46.50762" lon="5.47087">
        <ele>434.2</ele>
        <time>2022-06-18T08:10:30Z</time>
      </trkpt>
      <trkpt lat="46.50813" lon="5.47107">
        <ele>434</ele>
        <time>2022-06-18T08:10:37Z</time>
      </trkpt>
      <trkpt lat="46.50856" lon="5.47126">
        <ele>434.6</ele>
        <time>2022-06-18T08:10:43Z</time>
      </trkpt>
      <trkpt lat="46.5087" lon="5.47131">
        <ele>434.8</ele>
        <time>2022-06-18T08:10:45Z</time>
      </trkpt>
      <trkpt lat="46.50904" lon="5.47146">
        <ele>435.6</ele>
        <time>2022-06-18T08:10:50Z</time>
      </trkpt>
      <trkpt lat="46.50913" lon="5.4715">
        <ele>435.6</ele>
        <time>2022-06-18T08:10:51Z</time>
      </trkpt>
      <trkpt lat="46.50969" lon="5.47177">
        <ele>435.8</ele>
        <time>2022-06-18T08:10:59Z</time>
      </trkpt>
      <trkpt lat="46.51022" lon="5.472">
        <ele>435.8</ele>
        <time>2022-06-18T08:11:06Z</time>
      </trkpt>
      <trkpt lat="46.5103" lon="5.47204">
        <ele>435.8</ele>
        <time>2022-06-18T08:11:07Z</time>
      </trkpt>
      <trkpt lat="46.51047" lon="5.47209">
        <ele>435.6</ele>
        <time>2022-06-18T08:11:09Z</time>
      </trkpt>
      <trkpt lat="46.51101" lon="5.47228">
        <ele>435.4</ele>
        <time>2022-06-18T08:11:16Z</time>
      </trkpt>
      <trkpt lat="46.51154" lon="5.47249">
        <ele>435.6</ele>
        <time>2022-06-18T08:11:23Z</time>
      </trkpt>
      <trkpt lat="46.51213" lon="5.47273">
        <ele>435.6</ele>
        <time>2022-06-18T08:11:31Z</time>
      </trkpt>
      <trkpt lat="46.5122" lon="5.47276">
        <ele>435.6</ele>
        <time>2022-06-18T08:11:32Z</time>
      </trkpt>
      <trkpt lat="46.51278" lon="5.47298">
        <ele>435.8</ele>
        <time>2022-06-18T08:11:40Z</time>
      </trkpt>
      <trkpt lat="46.51285" lon="5.47301">
        <ele>435.8</ele>
        <time>2022-06-18T08:11:41Z</time>
      </trkpt>
      <trkpt lat="46.51344" lon="5.47325">
        <ele>435.6</ele>
        <time>2022-06-18T08:11:49Z</time>
      </trkpt>
      <trkpt lat="46.51358" lon="5.4733">
        <ele>435.6</ele>
        <time>2022-06-18T08:11:51Z</time>
      </trkpt>
      <trkpt lat="46.51386" lon="5.47342">
        <ele>435.4</ele>
        <time>2022-06-18T08:11:55Z</time>
      </trkpt>
      <trkpt lat="46.5142" lon="5.47355">
        <ele>435.6</ele>
        <time>2022-06-18T08:12:00Z</time>
      </trkpt>
      <trkpt lat="46.51447" lon="5.47366">
        <ele>435.6</ele>
        <time>2022-06-18T08:12:04Z</time>
      </trkpt>
      <trkpt lat="46.5146" lon="5.47371">
        <ele>435.8</ele>
        <time>2022-06-18T08:12:06Z</time>
      </trkpt>
      <trkpt lat="46.51517" lon="5.47394">
        <ele>436</ele>
        <time>2022-06-18T08:12:14Z</time>
      </trkpt>
      <trkpt lat="46.51531" lon="5.474">
        <ele>436</ele>
        <time>2022-06-18T08:12:16Z</time>
      </trkpt>
      <trkpt lat="46.51586" lon="5.47422">
        <ele>436</ele>
        <time>2022-06-18T08:12:24Z</time>
      </trkpt>
      <trkpt lat="46.51633" lon="5.47441">
        <ele>436</ele>
        <time>2022-06-18T08:12:31Z</time>
      </trkpt>
      <trkpt lat="46.51666" lon="5.47454">
        <ele>436.4</ele>
        <time>2022-06-18T08:12:36Z</time>
      </trkpt>
      <trkpt lat="46.517" lon="5.47468">
        <ele>436.6</ele>
        <time>2022-06-18T08:12:41Z</time>
      </trkpt>
      <trkpt lat="46.51754" lon="5.4749">
        <ele>437</ele>
        <time>2022-06-18T08:12:49Z</time>
      </trkpt>
      <trkpt lat="46.51761" lon="5.47493">
        <ele>437</ele>
        <time>2022-06-18T08:12:50Z</time>
      </trkpt>
      <trkpt lat="46.518" lon="5.47509">
        <ele>437.4</ele>
        <time>2022-06-18T08:12:56Z</time>
      </trkpt>
      <trkpt lat="46.51834" lon="5.47523">
        <ele>437.8</ele>
        <time>2022-06-18T08:13:01Z</time>
      </trkpt>
      <trkpt lat="46.5189" lon="5.47545">
        <ele>438</ele>
        <time>2022-06-18T08:13:09Z</time>
      </trkpt>
      <trkpt lat="46.51904" lon="5.47551">
        <ele>437.8</ele>
        <time>2022-06-18T08:13:11Z</time>
      </trkpt>
      <trkpt lat="46.51961" lon="5.47573">
        <ele>438.2</ele>
        <time>2022-06-18T08:13:19Z</time>
      </trkpt>
      <trkpt lat="46.51968" lon="5.47576">
        <ele>438.2</ele>
        <time>2022-06-18T08:13:20Z</time>
      </trkpt>
      <trkpt lat="46.52005" lon="5.47591">
        <ele>438.4</ele>
        <time>2022-06-18T08:13:25Z</time>
      </trkpt>
      <trkpt lat="46.52033" lon="5.47603">
        <ele>438.4</ele>
        <time>2022-06-18T08:13:29Z</time>
      </trkpt>
      <trkpt lat="46.52087" lon="5.47623">
        <ele>438.6</ele>
        <time>2022-06-18T08:13:37Z</time>
      </trkpt>
      <trkpt lat="46.52102" lon="5.4763">
        <ele>439</ele>
        <time>2022-06-18T08:13:39Z</time>
      </trkpt>
      <trkpt lat="46.52151" lon="5.47653">
        <ele>439.4</ele>
        <time>2022-06-18T08:13:46Z</time>
      </trkpt>
      <trkpt lat="46.52159" lon="5.47657">
        <ele>439.4</ele>
        <time>2022-06-18T08:13:47Z</time>
      </trkpt>
      <trkpt lat="46.5221" lon="5.47684">
        <ele>439.4</ele>
        <time>2022-06-18T08:13:54Z</time>
      </trkpt>
      <trkpt lat="46.52218" lon="5.47688">
        <ele>439.4</ele>
        <time>2022-06-18T08:13:55Z</time>
      </trkpt>
      <trkpt lat="46.52271" lon="5.47713">
        <ele>439.2</ele>
        <time>2022-06-18T08:14:02Z</time>
      </trkpt>
      <trkpt lat="46.52279" lon="5.47716">
        <ele>439.2</ele>
        <time>2022-06-18T08:14:03Z</time>
      </trkpt>
      <trkpt lat="46.52331" lon="5.47741">
        <ele>439</ele>
        <time>2022-06-18T08:14:10Z</time>
      </trkpt>
      <trkpt lat="46.52386" lon="5.47766">
        <ele>439.2</ele>
        <time>2022-06-18T08:14:18Z</time>
      </trkpt>
      <trkpt lat="46.52394" lon="5.4777">
        <ele>439.4</ele>
        <time>2022-06-18T08:14:19Z</time>
      </trkpt>
      <trkpt lat="46.52452" lon="5.47791">
        <ele>440</ele>
        <time>2022-06-18T08:14:27Z</time>
      </trkpt>
      <trkpt lat="46.52474" lon="5.478">
        <ele>440.2</ele>
        <time>2022-06-18T08:14:30Z</time>
      </trkpt>
      <trkpt lat="46.52505" lon="5.47812">
        <ele>440.4</ele>
        <time>2022-06-18T08:14:34Z</time>
      </trkpt>
      <trkpt lat="46.52519" lon="5.47817">
        <ele>440.4</ele>
        <time>2022-06-18T08:14:36Z</time>
      </trkpt>
      <trkpt lat="46.52561" lon="5.47832">
        <ele>441.2</ele>
        <time>2022-06-18T08:14:42Z</time>
      </trkpt>
      <trkpt lat="46.52588" lon="5.47842">
        <ele>441.6</ele>
        <time>2022-06-18T08:14:46Z</time>
      </trkpt>
      <trkpt lat="46.52607" lon="5.47849">
        <ele>442</ele>
        <time>2022-06-18T08:14:49Z</time>
      </trkpt>
      <trkpt lat="46.52659" lon="5.47867">
        <ele>443</ele>
        <time>2022-06-18T08:14:57Z</time>
      </trkpt>
      <trkpt lat="46.52696" lon="5.47881">
        <ele>444</ele>
        <time>2022-06-18T08:15:03Z</time>
      </trkpt>
      <trkpt lat="46.52715" lon="5.47888">
        <ele>444.2</ele>
        <time>2022-06-18T08:15:06Z</time>
      </trkpt>
      <trkpt lat="46.52769" lon="5.47906">
        <ele>444.6</ele>
        <time>2022-06-18T08:15:14Z</time>
      </trkpt>
      <trkpt lat="46.52815" lon="5.47921">
        <ele>444.6</ele>
        <time>2022-06-18T08:15:21Z</time>
      </trkpt>
      <trkpt lat="46.5287" lon="5.47941">
        <ele>445</ele>
        <time>2022-06-18T08:15:30Z</time>
      </trkpt>
      <trkpt lat="46.52873" lon="5.47942">
        <ele>445</ele>
        <time>2022-06-18T08:15:31Z</time>
      </trkpt>
      <trkpt lat="46.52879" lon="5.47939">
        <ele>445.2</ele>
        <time>2022-06-18T08:15:33Z</time>
      </trkpt>
      <trkpt lat="46.52883" lon="5.47923">
        <ele>445.2</ele>
        <time>2022-06-18T08:15:36Z</time>
      </trkpt>
      <trkpt lat="46.52885" lon="5.47917">
        <ele>445.2</ele>
        <time>2022-06-18T08:15:37Z</time>
      </trkpt>
      <trkpt lat="46.52897" lon="5.47871">
        <ele>444.4</ele>
        <time>2022-06-18T08:15:42Z</time>
      </trkpt>
      <trkpt lat="46.52901" lon="5.4785">
        <ele>443.8</ele>
        <time>2022-06-18T08:15:44Z</time>
      </trkpt>
      <trkpt lat="46.52906" lon="5.47827">
        <ele>442.8</ele>
        <time>2022-06-18T08:15:46Z</time>
      </trkpt>
      <trkpt lat="46.52908" lon="5.47816">
        <ele>442.4</ele>
        <time>2022-06-18T08:15:47Z</time>
      </trkpt>
      <trkpt lat="46.5291" lon="5.47805">
        <ele>441.8</ele>
        <time>2022-06-18T08:15:48Z</time>
      </trkpt>
      <trkpt lat="46.52915" lon="5.47783">
        <ele>441.2</ele>
        <time>2022-06-18T08:15:50Z</time>
      </trkpt>
      <trkpt lat="46.52921" lon="5.4776">
        <ele>440.6</ele>
        <time>2022-06-18T08:15:52Z</time>
      </trkpt>
      <trkpt lat="46.52934" lon="5.47716">
        <ele>439.4</ele>
        <time>2022-06-18T08:15:56Z</time>
      </trkpt>
      <trkpt lat="46.52937" lon="5.47706">
        <ele>439</ele>
        <time>2022-06-18T08:15:57Z</time>
      </trkpt>
      <trkpt lat="46.52939" lon="5.47695">
        <ele>438.8</ele>
        <time>2022-06-18T08:15:58Z</time>
      </trkpt>
      <trkpt lat="46.5294" lon="5.47684">
        <ele>438.8</ele>
        <time>2022-06-18T08:15:59Z</time>
      </trkpt>
      <trkpt lat="46.52941" lon="5.4765">
        <ele>438.4</ele>
        <time>2022-06-18T08:16:02Z</time>
      </trkpt>
      <trkpt lat="46.52941" lon="5.47564">
        <ele>437.6</ele>
        <time>2022-06-18T08:16:09Z</time>
      </trkpt>
      <trkpt lat="46.5294" lon="5.47552">
        <ele>437.6</ele>
        <time>2022-06-18T08:16:10Z</time>
      </trkpt>
      <trkpt lat="46.52941" lon="5.47483">
        <ele>437.8</ele>
        <time>2022-06-18T08:16:16Z</time>
      </trkpt>
      <trkpt lat="46.52942" lon="5.4747">
        <ele>437.8</ele>
        <time>2022-06-18T08:16:17Z</time>
      </trkpt>
      <trkpt lat="46.52945" lon="5.4745">
        <ele>438</ele>
        <time>2022-06-18T08:16:19Z</time>
      </trkpt>
      <trkpt lat="46.52948" lon="5.47441">
        <ele>438.2</ele>
        <time>2022-06-18T08:16:20Z</time>
      </trkpt>
      <trkpt lat="46.52952" lon="5.47434">
        <ele>438.4</ele>
        <time>2022-06-18T08:16:21Z</time>
      </trkpt>
      <trkpt lat="46.52961" lon="5.47423">
        <ele>438.6</ele>
        <time>2022-06-18T08:16:23Z</time>
      </trkpt>
      <trkpt lat="46.52976" lon="5.47413">
        <ele>439.4</ele>
        <time>2022-06-18T08:16:26Z</time>
      </trkpt>
      <trkpt lat="46.53" lon="5.47399">
        <ele>440.6</ele>
        <time>2022-06-18T08:16:31Z</time>
      </trkpt>
      <trkpt lat="46.53018" lon="5.47389">
        <ele>441.6</ele>
        <time>2022-06-18T08:16:35Z</time>
      </trkpt>
      <trkpt lat="46.53034" lon="5.4738">
        <ele>442.8</ele>
        <time>2022-06-18T08:16:39Z</time>
      </trkpt>
      <trkpt lat="46.53038" lon="5.47377">
        <ele>443</ele>
        <time>2022-06-18T08:16:40Z</time>
      </trkpt>
      <trkpt lat="46.53054" lon="5.47365">
        <ele>444</ele>
        <time>2022-06-18T08:16:44Z</time>
      </trkpt>
      <trkpt lat="46.5307" lon="5.47352">
        <ele>444.8</ele>
        <time>2022-06-18T08:16:48Z</time>
      </trkpt>
      <trkpt lat="46.53077" lon="5.47346">
        <ele>445.2</ele>
        <time>2022-06-18T08:16:50Z</time>
      </trkpt>
      <trkpt lat="46.53097" lon="5.47333">
        <ele>446.2</ele>
        <time>2022-06-18T08:16:55Z</time>
      </trkpt>
      <trkpt lat="46.5312" lon="5.47326">
        <ele>447.4</ele>
        <time>2022-06-18T08:17:01Z</time>
      </trkpt>
      <trkpt lat="46.53124" lon="5.47326">
        <ele>447.6</ele>
        <time>2022-06-18T08:17:02Z</time>
      </trkpt>
      <trkpt lat="46.53139" lon="5.47325">
        <ele>448.4</ele>
        <time>2022-06-18T08:17:06Z</time>
      </trkpt>
      <trkpt lat="46.5315" lon="5.47326">
        <ele>449.4</ele>
        <time>2022-06-18T08:17:09Z</time>
      </trkpt>
      <trkpt lat="46.53153" lon="5.47326">
        <ele>449.4</ele>
        <time>2022-06-18T08:17:10Z</time>
      </trkpt>
      <trkpt lat="46.53178" lon="5.4733">
        <ele>450.8</ele>
        <time>2022-06-18T08:17:16Z</time>
      </trkpt>
      <trkpt lat="46.53185" lon="5.47332">
        <ele>451</ele>
        <time>2022-06-18T08:17:18Z</time>
      </trkpt>
      <trkpt lat="46.53197" lon="5.47331">
        <ele>451.8</ele>
        <time>2022-06-18T08:17:21Z</time>
      </trkpt>
      <trkpt lat="46.532" lon="5.47328">
        <ele>451.8</ele>
        <time>2022-06-18T08:17:22Z</time>
      </trkpt>
      <trkpt lat="46.53202" lon="5.47324">
        <ele>452</ele>
        <time>2022-06-18T08:17:23Z</time>
      </trkpt>
      <trkpt lat="46.53202" lon="5.47314">
        <ele>452.4</ele>
        <time>2022-06-18T08:17:25Z</time>
      </trkpt>
      <trkpt lat="46.53197" lon="5.47305">
        <ele>453</ele>
        <time>2022-06-18T08:17:27Z</time>
      </trkpt>
      <trkpt lat="46.53194" lon="5.47302">
        <ele>453.2</ele>
        <time>2022-06-18T08:17:28Z</time>
      </trkpt>
      <trkpt lat="46.53172" lon="5.47295">
        <ele>453.6</ele>
        <time>2022-06-18T08:17:33Z</time>
      </trkpt>
      <trkpt lat="46.53155" lon="5.47289">
        <ele>454.2</ele>
        <time>2022-06-18T08:17:37Z</time>
      </trkpt>
      <trkpt lat="46.53143" lon="5.47282">
        <ele>454.4</ele>
        <time>2022-06-18T08:17:40Z</time>
      </trkpt>
      <trkpt lat="46.53129" lon="5.47272">
        <ele>455.2</ele>
        <time>2022-06-18T08:17:44Z</time>
      </trkpt>
      <trkpt lat="46.53112" lon="5.47257">
        <ele>456.2</ele>
        <time>2022-06-18T08:17:49Z</time>
      </trkpt>
      <trkpt lat="46.53094" lon="5.47245">
        <ele>457.2</ele>
        <time>2022-06-18T08:17:54Z</time>
      </trkpt>
      <trkpt lat="46.53087" lon="5.47241">
        <ele>457.6</ele>
        <time>2022-06-18T08:17:56Z</time>
      </trkpt>
      <trkpt lat="46.5308" lon="5.47238">
        <ele>458</ele>
        <time>2022-06-18T08:17:58Z</time>
      </trkpt>
      <trkpt lat="46.53073" lon="5.47235">
        <ele>458.6</ele>
        <time>2022-06-18T08:18:00Z</time>
      </trkpt>
      <trkpt lat="46.53056" lon="5.47228">
        <ele>459.6</ele>
        <time>2022-06-18T08:18:05Z</time>
      </trkpt>
      <trkpt lat="46.53052" lon="5.47226">
        <ele>459.8</ele>
        <time>2022-06-18T08:18:06Z</time>
      </trkpt>
      <trkpt lat="46.53033" lon="5.4722">
        <ele>460.8</ele>
        <time>2022-06-18T08:18:11Z</time>
      </trkpt>
      <trkpt lat="46.53022" lon="5.47216">
        <ele>461.8</ele>
        <time>2022-06-18T08:18:14Z</time>
      </trkpt>
      <trkpt lat="46.53012" lon="5.47212">
        <ele>462.6</ele>
        <time>2022-06-18T08:18:17Z</time>
      </trkpt>
      <trkpt lat="46.53004" lon="5.47209">
        <ele>463.2</ele>
        <time>2022-06-18T08:18:19Z</time>
      </trkpt>
      <trkpt lat="46.52979" lon="5.47198">
        <ele>464.2</ele>
        <time>2022-06-18T08:18:26Z</time>
      </trkpt>
      <trkpt lat="46.52976" lon="5.47196">
        <ele>464.2</ele>
        <time>2022-06-18T08:18:27Z</time>
      </trkpt>
      <trkpt lat="46.52967" lon="5.47179">
        <ele>464.8</ele>
        <time>2022-06-18T08:18:31Z</time>
      </trkpt>
      <trkpt lat="46.52966" lon="5.47168">
        <ele>465.4</ele>
        <time>2022-06-18T08:18:33Z</time>
      </trkpt>
      <trkpt lat="46.52968" lon="5.47152">
        <ele>465.8</ele>
        <time>2022-06-18T08:18:36Z</time>
      </trkpt>
      <trkpt lat="46.52972" lon="5.47135">
        <ele>466.6</ele>
        <time>2022-06-18T08:18:39Z</time>
      </trkpt>
      <trkpt lat="46.52977" lon="5.47107">
        <ele>467.6</ele>
        <time>2022-06-18T08:18:44Z</time>
      </trkpt>
      <trkpt lat="46.52979" lon="5.47101">
        <ele>467.8</ele>
        <time>2022-06-18T08:18:45Z</time>
      </trkpt>
      <trkpt lat="46.52983" lon="5.4708">
        <ele>469</ele>
        <time>2022-06-18T08:18:49Z</time>
      </trkpt>
      <trkpt lat="46.52986" lon="5.47065">
        <ele>469.4</ele>
        <time>2022-06-18T08:18:52Z</time>
      </trkpt>
      <trkpt lat="46.5299" lon="5.4705">
        <ele>470.2</ele>
        <time>2022-06-18T08:18:55Z</time>
      </trkpt>
      <trkpt lat="46.52996" lon="5.47022">
        <ele>471.4</ele>
        <time>2022-06-18T08:19:00Z</time>
      </trkpt>
      <trkpt lat="46.52997" lon="5.47016">
        <ele>471.4</ele>
        <time>2022-06-18T08:19:01Z</time>
      </trkpt>
      <trkpt lat="46.53001" lon="5.46994">
        <ele>472.4</ele>
        <time>2022-06-18T08:19:05Z</time>
      </trkpt>
      <trkpt lat="46.53005" lon="5.46973">
        <ele>473.6</ele>
        <time>2022-06-18T08:19:09Z</time>
      </trkpt>
      <trkpt lat="46.53014" lon="5.46939">
        <ele>474.8</ele>
        <time>2022-06-18T08:19:15Z</time>
      </trkpt>
      <trkpt lat="46.53016" lon="5.46927">
        <ele>475.4</ele>
        <time>2022-06-18T08:19:17Z</time>
      </trkpt>
      <trkpt lat="46.53018" lon="5.46915">
        <ele>475.8</ele>
        <time>2022-06-18T08:19:19Z</time>
      </trkpt>
      <trkpt lat="46.53022" lon="5.4689">
        <ele>476.6</ele>
        <time>2022-06-18T08:19:23Z</time>
      </trkpt>
      <trkpt lat="46.53022" lon="5.46883">
        <ele>477</ele>
        <time>2022-06-18T08:19:24Z</time>
      </trkpt>
      <trkpt lat="46.53022" lon="5.46876">
        <ele>477</ele>
        <time>2022-06-18T08:19:25Z</time>
      </trkpt>
      <trkpt lat="46.53019" lon="5.46863">
        <ele>477.4</ele>
        <time>2022-06-18T08:19:27Z</time>
      </trkpt>
      <trkpt lat="46.53016" lon="5.46856">
        <ele>477.4</ele>
        <time>2022-06-18T08:19:28Z</time>
      </trkpt>
      <trkpt lat="46.53012" lon="5.46849">
        <ele>477.4</ele>
        <time>2022-06-18T08:19:29Z</time>
      </trkpt>
      <trkpt lat="46.53001" lon="5.46837">
        <ele>477.2</ele>
        <time>2022-06-18T08:19:31Z</time>
      </trkpt>
      <trkpt lat="46.52972" lon="5.4681">
        <ele>476</ele>
        <time>2022-06-18T08:19:35Z</time>
      </trkpt>
      <trkpt lat="46.52965" lon="5.46802">
        <ele>475.8</ele>
        <time>2022-06-18T08:19:36Z</time>
      </trkpt>
      <trkpt lat="46.5295" lon="5.46788">
        <ele>473.6</ele>
        <time>2022-06-18T08:19:38Z</time>
      </trkpt>
      <trkpt lat="46.52932" lon="5.46767">
        <ele>471.8</ele>
        <time>2022-06-18T08:19:40Z</time>
      </trkpt>
      <trkpt lat="46.52923" lon="5.46758">
        <ele>471</ele>
        <time>2022-06-18T08:19:41Z</time>
      </trkpt>
      <trkpt lat="46.52915" lon="5.46748">
        <ele>470.2</ele>
        <time>2022-06-18T08:19:42Z</time>
      </trkpt>
      <trkpt lat="46.52898" lon="5.46729">
        <ele>469</ele>
        <time>2022-06-18T08:19:44Z</time>
      </trkpt>
      <trkpt lat="46.52879" lon="5.46716">
        <ele>467.6</ele>
        <time>2022-06-18T08:19:46Z</time>
      </trkpt>
      <trkpt lat="46.52868" lon="5.4671">
        <ele>466.6</ele>
        <time>2022-06-18T08:19:47Z</time>
      </trkpt>
      <trkpt lat="46.52848" lon="5.46698">
        <ele>464.8</ele>
        <time>2022-06-18T08:19:49Z</time>
      </trkpt>
      <trkpt lat="46.52827" lon="5.46684">
        <ele>463.2</ele>
        <time>2022-06-18T08:19:51Z</time>
      </trkpt>
      <trkpt lat="46.52807" lon="5.46674">
        <ele>462.2</ele>
        <time>2022-06-18T08:19:53Z</time>
      </trkpt>
      <trkpt lat="46.52798" lon="5.4667">
        <ele>461.8</ele>
        <time>2022-06-18T08:19:54Z</time>
      </trkpt>
      <trkpt lat="46.5279" lon="5.46668">
        <ele>461.6</ele>
        <time>2022-06-18T08:19:55Z</time>
      </trkpt>
      <trkpt lat="46.52783" lon="5.46664">
        <ele>461</ele>
        <time>2022-06-18T08:19:56Z</time>
      </trkpt>
      <trkpt lat="46.52779" lon="5.46658">
        <ele>460.2</ele>
        <time>2022-06-18T08:19:57Z</time>
      </trkpt>
      <trkpt lat="46.52778" lon="5.46649">
        <ele>459.4</ele>
        <time>2022-06-18T08:19:58Z</time>
      </trkpt>
      <trkpt lat="46.5278" lon="5.46639">
        <ele>458.8</ele>
        <time>2022-06-18T08:19:59Z</time>
      </trkpt>
      <trkpt lat="46.52792" lon="5.46629">
        <ele>458.2</ele>
        <time>2022-06-18T08:20:01Z</time>
      </trkpt>
      <trkpt lat="46.5281" lon="5.46628">
        <ele>457.4</ele>
        <time>2022-06-18T08:20:03Z</time>
      </trkpt>
      <trkpt lat="46.52817" lon="5.46626">
        <ele>457.2</ele>
        <time>2022-06-18T08:20:04Z</time>
      </trkpt>
      <trkpt lat="46.52838" lon="5.46619">
        <ele>455.4</ele>
        <time>2022-06-18T08:20:06Z</time>
      </trkpt>
      <trkpt lat="46.52848" lon="5.46613">
        <ele>455</ele>
        <time>2022-06-18T08:20:07Z</time>
      </trkpt>
      <trkpt lat="46.52858" lon="5.46606">
        <ele>454.2</ele>
        <time>2022-06-18T08:20:08Z</time>
      </trkpt>
      <trkpt lat="46.52866" lon="5.46596">
        <ele>453.8</ele>
        <time>2022-06-18T08:20:09Z</time>
      </trkpt>
      <trkpt lat="46.52873" lon="5.46584">
        <ele>453</ele>
        <time>2022-06-18T08:20:10Z</time>
      </trkpt>
      <trkpt lat="46.52878" lon="5.46569">
        <ele>452.6</ele>
        <time>2022-06-18T08:20:11Z</time>
      </trkpt>
      <trkpt lat="46.52881" lon="5.46552">
        <ele>451.4</ele>
        <time>2022-06-18T08:20:12Z</time>
      </trkpt>
      <trkpt lat="46.52884" lon="5.4652">
        <ele>449.4</ele>
        <time>2022-06-18T08:20:14Z</time>
      </trkpt>
      <trkpt lat="46.52885" lon="5.46503">
        <ele>448</ele>
        <time>2022-06-18T08:20:15Z</time>
      </trkpt>
      <trkpt lat="46.52887" lon="5.46432">
        <ele>447.2</ele>
        <time>2022-06-18T08:20:20Z</time>
      </trkpt>
      <trkpt lat="46.52888" lon="5.46421">
        <ele>447.2</ele>
        <time>2022-06-18T08:20:21Z</time>
      </trkpt>
      <trkpt lat="46.52893" lon="5.46405">
        <ele>447.2</ele>
        <time>2022-06-18T08:20:23Z</time>
      </trkpt>
      <trkpt lat="46.52902" lon="5.46397">
        <ele>448</ele>
        <time>2022-06-18T08:20:25Z</time>
      </trkpt>
      <trkpt lat="46.52913" lon="5.46394">
        <ele>448.8</ele>
        <time>2022-06-18T08:20:27Z</time>
      </trkpt>
      <trkpt lat="46.52919" lon="5.46394">
        <ele>449.2</ele>
        <time>2022-06-18T08:20:28Z</time>
      </trkpt>
      <trkpt lat="46.52928" lon="5.46394">
        <ele>450.4</ele>
        <time>2022-06-18T08:20:30Z</time>
      </trkpt>
      <trkpt lat="46.52943" lon="5.46397">
        <ele>452.2</ele>
        <time>2022-06-18T08:20:33Z</time>
      </trkpt>
      <trkpt lat="46.52956" lon="5.46398">
        <ele>453.2</ele>
        <time>2022-06-18T08:20:36Z</time>
      </trkpt>
      <trkpt lat="46.52961" lon="5.46398">
        <ele>453.4</ele>
        <time>2022-06-18T08:20:37Z</time>
      </trkpt>
      <trkpt lat="46.52978" lon="5.46401">
        <ele>454.4</ele>
        <time>2022-06-18T08:20:41Z</time>
      </trkpt>
      <trkpt lat="46.52991" lon="5.46401">
        <ele>455.2</ele>
        <time>2022-06-18T08:20:44Z</time>
      </trkpt>
      <trkpt lat="46.52995" lon="5.46401">
        <ele>455.6</ele>
        <time>2022-06-18T08:20:45Z</time>
      </trkpt>
      <trkpt lat="46.53011" lon="5.46402">
        <ele>456.6</ele>
        <time>2022-06-18T08:20:49Z</time>
      </trkpt>
      <trkpt lat="46.53025" lon="5.46401">
        <ele>457.6</ele>
        <time>2022-06-18T08:20:53Z</time>
      </trkpt>
      <trkpt lat="46.53036" lon="5.46398">
        <ele>458.8</ele>
        <time>2022-06-18T08:20:56Z</time>
      </trkpt>
      <trkpt lat="46.5305" lon="5.46396">
        <ele>459.8</ele>
        <time>2022-06-18T08:21:00Z</time>
      </trkpt>
      <trkpt lat="46.53068" lon="5.46395">
        <ele>461</ele>
        <time>2022-06-18T08:21:05Z</time>
      </trkpt>
      <trkpt lat="46.53079" lon="5.46394">
        <ele>461.8</ele>
        <time>2022-06-18T08:21:08Z</time>
      </trkpt>
      <trkpt lat="46.53086" lon="5.46393">
        <ele>462.2</ele>
        <time>2022-06-18T08:21:10Z</time>
      </trkpt>
      <trkpt lat="46.53099" lon="5.46392">
        <ele>463.2</ele>
        <time>2022-06-18T08:21:14Z</time>
      </trkpt>
      <trkpt lat="46.53109" lon="5.46391">
        <ele>464</ele>
        <time>2022-06-18T08:21:17Z</time>
      </trkpt>
      <trkpt lat="46.53115" lon="5.4639">
        <ele>464.2</ele>
        <time>2022-06-18T08:21:19Z</time>
      </trkpt>
      <trkpt lat="46.5313" lon="5.46389">
        <ele>465.4</ele>
        <time>2022-06-18T08:21:24Z</time>
      </trkpt>
      <trkpt lat="46.53143" lon="5.46387">
        <ele>465.8</ele>
        <time>2022-06-18T08:21:28Z</time>
      </trkpt>
      <trkpt lat="46.53149" lon="5.46387">
        <ele>466.4</ele>
        <time>2022-06-18T08:21:30Z</time>
      </trkpt>
      <trkpt lat="46.53162" lon="5.46385">
        <ele>467.6</ele>
        <time>2022-06-18T08:21:34Z</time>
      </trkpt>
      <trkpt lat="46.53176" lon="5.46383">
        <ele>468.4</ele>
        <time>2022-06-18T08:21:38Z</time>
      </trkpt>
      <trkpt lat="46.53179" lon="5.46382">
        <ele>468.6</ele>
        <time>2022-06-18T08:21:39Z</time>
      </trkpt>
      <trkpt lat="46.53199" lon="5.46379">
        <ele>469.6</ele>
        <time>2022-06-18T08:21:45Z</time>
      </trkpt>
      <trkpt lat="46.5321" lon="5.46377">
        <ele>470</ele>
        <time>2022-06-18T08:21:48Z</time>
      </trkpt>
      <trkpt lat="46.53217" lon="5.46375">
        <ele>470.6</ele>
        <time>2022-06-18T08:21:50Z</time>
      </trkpt>
      <trkpt lat="46.53224" lon="5.46374">
        <ele>471.2</ele>
        <time>2022-06-18T08:21:52Z</time>
      </trkpt>
      <trkpt lat="46.53234" lon="5.46372">
        <ele>471.8</ele>
        <time>2022-06-18T08:21:55Z</time>
      </trkpt>
      <trkpt lat="46.53238" lon="5.46371">
        <ele>472</ele>
        <time>2022-06-18T08:21:56Z</time>
      </trkpt>
      <trkpt lat="46.53253" lon="5.46368">
        <ele>472.8</ele>
        <time>2022-06-18T08:22:01Z</time>
      </trkpt>
      <trkpt lat="46.53267" lon="5.46367">
        <ele>473.8</ele>
        <time>2022-06-18T08:22:05Z</time>
      </trkpt>
      <trkpt lat="46.53273" lon="5.46365">
        <ele>474</ele>
        <time>2022-06-18T08:22:07Z</time>
      </trkpt>
      <trkpt lat="46.53286" lon="5.46363">
        <ele>475.2</ele>
        <time>2022-06-18T08:22:11Z</time>
      </trkpt>
      <trkpt lat="46.53293" lon="5.46362">
        <ele>475.6</ele>
        <time>2022-06-18T08:22:13Z</time>
      </trkpt>
      <trkpt lat="46.53309" lon="5.46361">
        <ele>476.4</ele>
        <time>2022-06-18T08:22:17Z</time>
      </trkpt>
      <trkpt lat="46.53323" lon="5.46364">
        <ele>477.2</ele>
        <time>2022-06-18T08:22:21Z</time>
      </trkpt>
      <trkpt lat="46.53329" lon="5.46367">
        <ele>477.4</ele>
        <time>2022-06-18T08:22:23Z</time>
      </trkpt>
      <trkpt lat="46.5335" lon="5.46382">
        <ele>478.2</ele>
        <time>2022-06-18T08:22:29Z</time>
      </trkpt>
      <trkpt lat="46.5336" lon="5.46379">
        <ele>478.6</ele>
        <time>2022-06-18T08:22:32Z</time>
      </trkpt>
      <trkpt lat="46.53362" lon="5.46375">
        <ele>478.8</ele>
        <time>2022-06-18T08:22:33Z</time>
      </trkpt>
      <trkpt lat="46.53362" lon="5.46367">
        <ele>479</ele>
        <time>2022-06-18T08:22:35Z</time>
      </trkpt>
      <trkpt lat="46.5336" lon="5.46364">
        <ele>479</ele>
        <time>2022-06-18T08:22:36Z</time>
      </trkpt>
      <trkpt lat="46.53352" lon="5.46354">
        <ele>480.2</ele>
        <time>2022-06-18T08:22:39Z</time>
      </trkpt>
      <trkpt lat="46.53346" lon="5.4635">
        <ele>480.4</ele>
        <time>2022-06-18T08:22:41Z</time>
      </trkpt>
      <trkpt lat="46.53332" lon="5.4634">
        <ele>481.2</ele>
        <time>2022-06-18T08:22:45Z</time>
      </trkpt>
      <trkpt lat="46.53323" lon="5.46333">
        <ele>482</ele>
        <time>2022-06-18T08:22:48Z</time>
      </trkpt>
      <trkpt lat="46.53316" lon="5.46328">
        <ele>482.4</ele>
        <time>2022-06-18T08:22:50Z</time>
      </trkpt>
      <trkpt lat="46.53305" lon="5.4632">
        <ele>483.4</ele>
        <time>2022-06-18T08:22:54Z</time>
      </trkpt>
      <trkpt lat="46.53294" lon="5.46314">
        <ele>484.6</ele>
        <time>2022-06-18T08:22:58Z</time>
      </trkpt>
      <trkpt lat="46.53287" lon="5.4631">
        <ele>485</ele>
        <time>2022-06-18T08:23:00Z</time>
      </trkpt>
      <trkpt lat="46.53284" lon="5.46308">
        <ele>485.8</ele>
        <time>2022-06-18T08:23:01Z</time>
      </trkpt>
      <trkpt lat="46.53269" lon="5.46299">
        <ele>486.8</ele>
        <time>2022-06-18T08:23:05Z</time>
      </trkpt>
      <trkpt lat="46.53255" lon="5.46288">
        <ele>487.8</ele>
        <time>2022-06-18T08:23:09Z</time>
      </trkpt>
      <trkpt lat="46.53252" lon="5.46285">
        <ele>488</ele>
        <time>2022-06-18T08:23:10Z</time>
      </trkpt>
      <trkpt lat="46.53239" lon="5.46274">
        <ele>488.6</ele>
        <time>2022-06-18T08:23:14Z</time>
      </trkpt>
      <trkpt lat="46.53235" lon="5.4627">
        <ele>489.2</ele>
        <time>2022-06-18T08:23:15Z</time>
      </trkpt>
      <trkpt lat="46.53226" lon="5.4626">
        <ele>490.2</ele>
        <time>2022-06-18T08:23:18Z</time>
      </trkpt>
      <trkpt lat="46.53217" lon="5.46251">
        <ele>490.8</ele>
        <time>2022-06-18T08:23:21Z</time>
      </trkpt>
      <trkpt lat="46.53214" lon="5.46246">
        <ele>491.2</ele>
        <time>2022-06-18T08:23:22Z</time>
      </trkpt>
      <trkpt lat="46.53203" lon="5.46235">
        <ele>492.4</ele>
        <time>2022-06-18T08:23:26Z</time>
      </trkpt>
      <trkpt lat="46.532" lon="5.46232">
        <ele>492.8</ele>
        <time>2022-06-18T08:23:27Z</time>
      </trkpt>
      <trkpt lat="46.5319" lon="5.46221">
        <ele>493.6</ele>
        <time>2022-06-18T08:23:31Z</time>
      </trkpt>
      <trkpt lat="46.53177" lon="5.46208">
        <ele>494.6</ele>
        <time>2022-06-18T08:23:36Z</time>
      </trkpt>
      <trkpt lat="46.53169" lon="5.462">
        <ele>495.2</ele>
        <time>2022-06-18T08:23:39Z</time>
      </trkpt>
      <trkpt lat="46.5316" lon="5.46193">
        <ele>495.8</ele>
        <time>2022-06-18T08:23:42Z</time>
      </trkpt>
      <trkpt lat="46.53152" lon="5.46185">
        <ele>496.4</ele>
        <time>2022-06-18T08:23:45Z</time>
      </trkpt>
      <trkpt lat="46.53146" lon="5.46182">
        <ele>496.8</ele>
        <time>2022-06-18T08:23:47Z</time>
      </trkpt>
      <trkpt lat="46.53136" lon="5.46176">
        <ele>497.8</ele>
        <time>2022-06-18T08:23:50Z</time>
      </trkpt>
      <trkpt lat="46.5313" lon="5.46173">
        <ele>498.2</ele>
        <time>2022-06-18T08:23:52Z</time>
      </trkpt>
      <trkpt lat="46.53124" lon="5.4617">
        <ele>498.8</ele>
        <time>2022-06-18T08:23:54Z</time>
      </trkpt>
      <trkpt lat="46.53106" lon="5.46162">
        <ele>500</ele>
        <time>2022-06-18T08:24:00Z</time>
      </trkpt>
      <trkpt lat="46.5309" lon="5.46156">
        <ele>501.2</ele>
        <time>2022-06-18T08:24:05Z</time>
      </trkpt>
      <trkpt lat="46.53087" lon="5.46154">
        <ele>501.6</ele>
        <time>2022-06-18T08:24:06Z</time>
      </trkpt>
      <trkpt lat="46.53071" lon="5.46148">
        <ele>502.2</ele>
        <time>2022-06-18T08:24:11Z</time>
      </trkpt>
      <trkpt lat="46.53055" lon="5.46139">
        <ele>503.2</ele>
        <time>2022-06-18T08:24:16Z</time>
      </trkpt>
      <trkpt lat="46.53052" lon="5.46137">
        <ele>503.4</ele>
        <time>2022-06-18T08:24:17Z</time>
      </trkpt>
      <trkpt lat="46.53037" lon="5.46128">
        <ele>504.4</ele>
        <time>2022-06-18T08:24:22Z</time>
      </trkpt>
      <trkpt lat="46.53022" lon="5.46117">
        <ele>505.6</ele>
        <time>2022-06-18T08:24:27Z</time>
      </trkpt>
      <trkpt lat="46.53001" lon="5.46101">
        <ele>506.6</ele>
        <time>2022-06-18T08:24:34Z</time>
      </trkpt>
      <trkpt lat="46.52996" lon="5.46096">
        <ele>507.2</ele>
        <time>2022-06-18T08:24:36Z</time>
      </trkpt>
      <trkpt lat="46.52987" lon="5.4609">
        <ele>507.8</ele>
        <time>2022-06-18T08:24:39Z</time>
      </trkpt>
      <trkpt lat="46.52969" lon="5.46075">
        <ele>509.2</ele>
        <time>2022-06-18T08:24:45Z</time>
      </trkpt>
      <trkpt lat="46.52958" lon="5.46065">
        <ele>510.2</ele>
        <time>2022-06-18T08:24:49Z</time>
      </trkpt>
      <trkpt lat="46.52952" lon="5.4606">
        <ele>510.6</ele>
        <time>2022-06-18T08:24:51Z</time>
      </trkpt>
      <trkpt lat="46.52943" lon="5.46053">
        <ele>511.2</ele>
        <time>2022-06-18T08:24:54Z</time>
      </trkpt>
      <trkpt lat="46.52931" lon="5.46045">
        <ele>512.4</ele>
        <time>2022-06-18T08:24:58Z</time>
      </trkpt>
      <trkpt lat="46.52928" lon="5.46043">
        <ele>512.4</ele>
        <time>2022-06-18T08:24:59Z</time>
      </trkpt>
      <trkpt lat="46.52916" lon="5.46036">
        <ele>513.4</ele>
        <time>2022-06-18T08:25:03Z</time>
      </trkpt>
      <trkpt lat="46.52907" lon="5.4603">
        <ele>514.2</ele>
        <time>2022-06-18T08:25:06Z</time>
      </trkpt>
      <trkpt lat="46.52903" lon="5.46028">
        <ele>514.4</ele>
        <time>2022-06-18T08:25:07Z</time>
      </trkpt>
      <trkpt lat="46.52886" lon="5.46017">
        <ele>515.4</ele>
        <time>2022-06-18T08:25:13Z</time>
      </trkpt>
      <trkpt lat="46.52883" lon="5.46016">
        <ele>515.8</ele>
        <time>2022-06-18T08:25:14Z</time>
      </trkpt>
      <trkpt lat="46.52874" lon="5.46011">
        <ele>517</ele>
        <time>2022-06-18T08:25:17Z</time>
      </trkpt>
      <trkpt lat="46.52862" lon="5.46005">
        <ele>518</ele>
        <time>2022-06-18T08:25:21Z</time>
      </trkpt>
      <trkpt lat="46.52842" lon="5.4599">
        <ele>519.2</ele>
        <time>2022-06-18T08:25:28Z</time>
      </trkpt>
      <trkpt lat="46.52842" lon="5.4599">
        <ele>519.4</ele>
        <time>2022-06-18T08:25:29Z</time>
      </trkpt>
      <trkpt lat="46.52829" lon="5.45976">
        <ele>520.4</ele>
        <time>2022-06-18T08:25:33Z</time>
      </trkpt>
      <trkpt lat="46.52814" lon="5.45957">
        <ele>521.4</ele>
        <time>2022-06-18T08:25:39Z</time>
      </trkpt>
      <trkpt lat="46.52802" lon="5.45936">
        <ele>522.6</ele>
        <time>2022-06-18T08:25:46Z</time>
      </trkpt>
      <trkpt lat="46.52799" lon="5.45929">
        <ele>523.4</ele>
        <time>2022-06-18T08:25:48Z</time>
      </trkpt>
      <trkpt lat="46.52797" lon="5.4592">
        <ele>523.8</ele>
        <time>2022-06-18T08:25:50Z</time>
      </trkpt>
      <trkpt lat="46.52793" lon="5.45904">
        <ele>525</ele>
        <time>2022-06-18T08:25:54Z</time>
      </trkpt>
      <trkpt lat="46.52792" lon="5.45896">
        <ele>525.8</ele>
        <time>2022-06-18T08:25:56Z</time>
      </trkpt>
      <trkpt lat="46.52791" lon="5.45887">
        <ele>526.2</ele>
        <time>2022-06-18T08:25:58Z</time>
      </trkpt>
      <trkpt lat="46.52792" lon="5.4588">
        <ele>527.2</ele>
        <time>2022-06-18T08:26:01Z</time>
      </trkpt>
      <trkpt lat="46.52793" lon="5.45874">
        <ele>527.6</ele>
        <time>2022-06-18T08:26:02Z</time>
      </trkpt>
      <trkpt lat="46.52793" lon="5.45869">
        <ele>528</ele>
        <time>2022-06-18T08:26:03Z</time>
      </trkpt>
      <trkpt lat="46.52795" lon="5.45862">
        <ele>528.6</ele>
        <time>2022-06-18T08:26:05Z</time>
      </trkpt>
      <trkpt lat="46.52798" lon="5.45849">
        <ele>529.8</ele>
        <time>2022-06-18T08:26:09Z</time>
      </trkpt>
      <trkpt lat="46.52798" lon="5.45849">
        <ele>530.2</ele>
        <time>2022-06-18T08:26:10Z</time>
      </trkpt>
      <trkpt lat="46.52803" lon="5.45834">
        <ele>531</ele>
        <time>2022-06-18T08:26:14Z</time>
      </trkpt>
      <trkpt lat="46.52801" lon="5.45828">
        <ele>531</ele>
        <time>2022-06-18T08:26:15Z</time>
      </trkpt>
      <trkpt lat="46.52802" lon="5.45823">
        <ele>531.6</ele>
        <time>2022-06-18T08:26:16Z</time>
      </trkpt>
      <trkpt lat="46.52804" lon="5.4582">
        <ele>532</ele>
        <time>2022-06-18T08:26:17Z</time>
      </trkpt>
      <trkpt lat="46.5281" lon="5.45807">
        <ele>532.8</ele>
        <time>2022-06-18T08:26:21Z</time>
      </trkpt>
      <trkpt lat="46.52813" lon="5.45804">
        <ele>533.2</ele>
        <time>2022-06-18T08:26:23Z</time>
      </trkpt>
      <trkpt lat="46.52817" lon="5.45799">
        <ele>534</ele>
        <time>2022-06-18T08:26:27Z</time>
      </trkpt>
      <trkpt lat="46.52817" lon="5.45799">
        <ele>534.2</ele>
        <time>2022-06-18T08:26:29Z</time>
      </trkpt>
      <trkpt lat="46.52819" lon="5.4579">
        <ele>534.8</ele>
        <time>2022-06-18T08:29:05Z</time>
      </trkpt>
      <trkpt lat="46.5282" lon="5.45784">
        <ele>534.8</ele>
        <time>2022-06-18T08:29:07Z</time>
      </trkpt>
      <trkpt lat="46.52834" lon="5.45765">
        <ele>534.8</ele>
        <time>2022-06-18T08:29:13Z</time>
      </trkpt>
      <trkpt lat="46.52845" lon="5.45759">
        <ele>534.6</ele>
        <time>2022-06-18T08:29:17Z</time>
      </trkpt>
      <trkpt lat="46.52857" lon="5.45757">
        <ele>534.4</ele>
        <time>2022-06-18T08:29:18Z</time>
      </trkpt>
      <trkpt lat="46.52876" lon="5.45757">
        <ele>533.8</ele>
        <time>2022-06-18T08:29:21Z</time>
      </trkpt>
      <trkpt lat="46.52883" lon="5.45756">
        <ele>533.6</ele>
        <time>2022-06-18T08:29:22Z</time>
      </trkpt>
      <trkpt lat="46.52902" lon="5.45754">
        <ele>532.8</ele>
        <time>2022-06-18T08:29:24Z</time>
      </trkpt>
      <trkpt lat="46.52912" lon="5.45752">
        <ele>532.2</ele>
        <time>2022-06-18T08:29:25Z</time>
      </trkpt>
      <trkpt lat="46.5293" lon="5.45752">
        <ele>531.2</ele>
        <time>2022-06-18T08:29:28Z</time>
      </trkpt>
      <trkpt lat="46.52961" lon="5.45756">
        <ele>530.2</ele>
        <time>2022-06-18T08:29:30Z</time>
      </trkpt>
      <trkpt lat="46.52971" lon="5.45755">
        <ele>530</ele>
        <time>2022-06-18T08:29:31Z</time>
      </trkpt>
      <trkpt lat="46.53002" lon="5.45757">
        <ele>528.8</ele>
        <time>2022-06-18T08:29:34Z</time>
      </trkpt>
      <trkpt lat="46.53015" lon="5.45757">
        <ele>528.6</ele>
        <time>2022-06-18T08:29:35Z</time>
      </trkpt>
      <trkpt lat="46.53015" lon="5.45757">
        <ele>527.8</ele>
        <time>2022-06-18T08:29:36Z</time>
      </trkpt>
      <trkpt lat="46.53056" lon="5.45755">
        <ele>526.2</ele>
        <time>2022-06-18T08:29:39Z</time>
      </trkpt>
      <trkpt lat="46.53067" lon="5.45755">
        <ele>525.4</ele>
        <time>2022-06-18T08:29:40Z</time>
      </trkpt>
      <trkpt lat="46.53078" lon="5.45754">
        <ele>524.4</ele>
        <time>2022-06-18T08:29:41Z</time>
      </trkpt>
      <trkpt lat="46.53103" lon="5.45754">
        <ele>523.4</ele>
        <time>2022-06-18T08:29:43Z</time>
      </trkpt>
      <trkpt lat="46.53124" lon="5.45754">
        <ele>522</ele>
        <time>2022-06-18T08:29:45Z</time>
      </trkpt>
      <trkpt lat="46.53137" lon="5.45752">
        <ele>521.2</ele>
        <time>2022-06-18T08:29:46Z</time>
      </trkpt>
      <trkpt lat="46.5316" lon="5.45749">
        <ele>520.4</ele>
        <time>2022-06-18T08:29:48Z</time>
      </trkpt>
      <trkpt lat="46.53194" lon="5.45746">
        <ele>519</ele>
        <time>2022-06-18T08:29:51Z</time>
      </trkpt>
      <trkpt lat="46.53206" lon="5.45745">
        <ele>517.8</ele>
        <time>2022-06-18T08:29:52Z</time>
      </trkpt>
      <trkpt lat="46.53217" lon="5.45742">
        <ele>517</ele>
        <time>2022-06-18T08:29:53Z</time>
      </trkpt>
      <trkpt lat="46.53239" lon="5.45736">
        <ele>516.2</ele>
        <time>2022-06-18T08:29:55Z</time>
      </trkpt>
      <trkpt lat="46.5327" lon="5.45726">
        <ele>515</ele>
        <time>2022-06-18T08:29:58Z</time>
      </trkpt>
      <trkpt lat="46.53283" lon="5.45722">
        <ele>513.8</ele>
        <time>2022-06-18T08:29:59Z</time>
      </trkpt>
      <trkpt lat="46.53306" lon="5.45718">
        <ele>512.6</ele>
        <time>2022-06-18T08:30:01Z</time>
      </trkpt>
      <trkpt lat="46.53342" lon="5.45711">
        <ele>511.2</ele>
        <time>2022-06-18T08:30:04Z</time>
      </trkpt>
      <trkpt lat="46.53367" lon="5.4571">
        <ele>509.6</ele>
        <time>2022-06-18T08:30:06Z</time>
      </trkpt>
      <trkpt lat="46.53379" lon="5.45711">
        <ele>508.4</ele>
        <time>2022-06-18T08:30:07Z</time>
      </trkpt>
      <trkpt lat="46.53404" lon="5.45711">
        <ele>507.2</ele>
        <time>2022-06-18T08:30:09Z</time>
      </trkpt>
      <trkpt lat="46.53442" lon="5.45715">
        <ele>506</ele>
        <time>2022-06-18T08:30:12Z</time>
      </trkpt>
      <trkpt lat="46.53452" lon="5.45717">
        <ele>505.2</ele>
        <time>2022-06-18T08:30:13Z</time>
      </trkpt>
      <trkpt lat="46.53466" lon="5.45722">
        <ele>504.4</ele>
        <time>2022-06-18T08:30:14Z</time>
      </trkpt>
      <trkpt lat="46.53489" lon="5.45734">
        <ele>503</ele>
        <time>2022-06-18T08:30:16Z</time>
      </trkpt>
      <trkpt lat="46.53511" lon="5.45747">
        <ele>501.6</ele>
        <time>2022-06-18T08:30:18Z</time>
      </trkpt>
      <trkpt lat="46.53533" lon="5.45762">
        <ele>500.4</ele>
        <time>2022-06-18T08:30:20Z</time>
      </trkpt>
      <trkpt lat="46.53552" lon="5.45777">
        <ele>499</ele>
        <time>2022-06-18T08:30:22Z</time>
      </trkpt>
      <trkpt lat="46.53561" lon="5.45782">
        <ele>498.2</ele>
        <time>2022-06-18T08:30:23Z</time>
      </trkpt>
      <trkpt lat="46.53568" lon="5.45785">
        <ele>497.8</ele>
        <time>2022-06-18T08:30:24Z</time>
      </trkpt>
      <trkpt lat="46.53575" lon="5.45783">
        <ele>497.2</ele>
        <time>2022-06-18T08:30:25Z</time>
      </trkpt>
      <trkpt lat="46.53578" lon="5.45778">
        <ele>496.8</ele>
        <time>2022-06-18T08:30:26Z</time>
      </trkpt>
      <trkpt lat="46.5358" lon="5.45771">
        <ele>496.4</ele>
        <time>2022-06-18T08:30:27Z</time>
      </trkpt>
      <trkpt lat="46.53578" lon="5.4575">
        <ele>495.8</ele>
        <time>2022-06-18T08:30:30Z</time>
      </trkpt>
      <trkpt lat="46.53574" lon="5.45745">
        <ele>495.8</ele>
        <time>2022-06-18T08:30:31Z</time>
      </trkpt>
      <trkpt lat="46.5356" lon="5.45735">
        <ele>495.4</ele>
        <time>2022-06-18T08:30:32Z</time>
      </trkpt>
      <trkpt lat="46.53551" lon="5.45725">
        <ele>495.2</ele>
        <time>2022-06-18T08:30:33Z</time>
      </trkpt>
      <trkpt lat="46.53542" lon="5.45715">
        <ele>494.6</ele>
        <time>2022-06-18T08:30:34Z</time>
      </trkpt>
      <trkpt lat="46.53534" lon="5.45705">
        <ele>493.4</ele>
        <time>2022-06-18T08:30:35Z</time>
      </trkpt>
      <trkpt lat="46.53517" lon="5.45687">
        <ele>492.2</ele>
        <time>2022-06-18T08:30:37Z</time>
      </trkpt>
      <trkpt lat="46.53501" lon="5.45672">
        <ele>491.2</ele>
        <time>2022-06-18T08:30:39Z</time>
      </trkpt>
      <trkpt lat="46.53475" lon="5.45649">
        <ele>490</ele>
        <time>2022-06-18T08:30:42Z</time>
      </trkpt>
      <trkpt lat="46.53467" lon="5.45641">
        <ele>489.6</ele>
        <time>2022-06-18T08:30:43Z</time>
      </trkpt>
      <trkpt lat="46.53436" lon="5.4561">
        <ele>489</ele>
        <time>2022-06-18T08:30:47Z</time>
      </trkpt>
      <trkpt lat="46.53411" lon="5.45588">
        <ele>487.2</ele>
        <time>2022-06-18T08:30:50Z</time>
      </trkpt>
      <trkpt lat="46.53394" lon="5.45573">
        <ele>486.2</ele>
        <time>2022-06-18T08:30:52Z</time>
      </trkpt>
      <trkpt lat="46.53385" lon="5.45566">
        <ele>485.6</ele>
        <time>2022-06-18T08:30:53Z</time>
      </trkpt>
      <trkpt lat="46.53367" lon="5.45553">
        <ele>484.8</ele>
        <time>2022-06-18T08:30:55Z</time>
      </trkpt>
      <trkpt lat="46.53351" lon="5.45542">
        <ele>483.8</ele>
        <time>2022-06-18T08:30:57Z</time>
      </trkpt>
      <trkpt lat="46.53336" lon="5.4553">
        <ele>482.4</ele>
        <time>2022-06-18T08:30:59Z</time>
      </trkpt>
      <trkpt lat="46.53325" lon="5.45522">
        <ele>480.6</ele>
        <time>2022-06-18T08:31:00Z</time>
      </trkpt>
      <trkpt lat="46.53306" lon="5.4551">
        <ele>478.6</ele>
        <time>2022-06-18T08:31:02Z</time>
      </trkpt>
      <trkpt lat="46.53288" lon="5.45504">
        <ele>477.6</ele>
        <time>2022-06-18T08:31:04Z</time>
      </trkpt>
      <trkpt lat="46.53256" lon="5.45507">
        <ele>476.4</ele>
        <time>2022-06-18T08:31:07Z</time>
      </trkpt>
      <trkpt lat="46.53225" lon="5.45515">
        <ele>475.2</ele>
        <time>2022-06-18T08:31:10Z</time>
      </trkpt>
      <trkpt lat="46.53184" lon="5.45524">
        <ele>474</ele>
        <time>2022-06-18T08:31:14Z</time>
      </trkpt>
      <trkpt lat="46.53152" lon="5.45536">
        <ele>472.6</ele>
        <time>2022-06-18T08:31:17Z</time>
      </trkpt>
      <trkpt lat="46.53129" lon="5.45546">
        <ele>470.8</ele>
        <time>2022-06-18T08:31:19Z</time>
      </trkpt>
      <trkpt lat="46.53108" lon="5.45547">
        <ele>469.8</ele>
        <time>2022-06-18T08:31:21Z</time>
      </trkpt>
      <trkpt lat="46.53097" lon="5.45544">
        <ele>469.4</ele>
        <time>2022-06-18T08:31:22Z</time>
      </trkpt>
      <trkpt lat="46.53084" lon="5.45537">
        <ele>468.4</ele>
        <time>2022-06-18T08:31:23Z</time>
      </trkpt>
      <trkpt lat="46.53076" lon="5.45531">
        <ele>468</ele>
        <time>2022-06-18T08:31:24Z</time>
      </trkpt>
      <trkpt lat="46.53064" lon="5.45523">
        <ele>467.6</ele>
        <time>2022-06-18T08:31:25Z</time>
      </trkpt>
      <trkpt lat="46.53046" lon="5.45513">
        <ele>466.4</ele>
        <time>2022-06-18T08:31:27Z</time>
      </trkpt>
      <trkpt lat="46.53034" lon="5.45506">
        <ele>465.4</ele>
        <time>2022-06-18T08:31:28Z</time>
      </trkpt>
      <trkpt lat="46.53015" lon="5.45496">
        <ele>464.4</ele>
        <time>2022-06-18T08:31:30Z</time>
      </trkpt>
      <trkpt lat="46.52985" lon="5.45475">
        <ele>463.6</ele>
        <time>2022-06-18T08:31:33Z</time>
      </trkpt>
      <trkpt lat="46.52974" lon="5.45462">
        <ele>462.8</ele>
        <time>2022-06-18T08:31:34Z</time>
      </trkpt>
      <trkpt lat="46.52969" lon="5.45453">
        <ele>462.2</ele>
        <time>2022-06-18T08:31:35Z</time>
      </trkpt>
      <trkpt lat="46.52962" lon="5.45427">
        <ele>461.2</ele>
        <time>2022-06-18T08:31:37Z</time>
      </trkpt>
      <trkpt lat="46.52962" lon="5.45395">
        <ele>459.8</ele>
        <time>2022-06-18T08:31:39Z</time>
      </trkpt>
      <trkpt lat="46.52963" lon="5.45353">
        <ele>458.6</ele>
        <time>2022-06-18T08:31:42Z</time>
      </trkpt>
      <trkpt lat="46.52969" lon="5.45307">
        <ele>457.2</ele>
        <time>2022-06-18T08:31:45Z</time>
      </trkpt>
      <trkpt lat="46.52969" lon="5.45307">
        <ele>456.4</ele>
        <time>2022-06-18T08:31:46Z</time>
      </trkpt>
      <trkpt lat="46.52969" lon="5.45296">
        <ele>456</ele>
        <time>2022-06-18T08:31:47Z</time>
      </trkpt>
      <trkpt lat="46.52954" lon="5.45257">
        <ele>454.2</ele>
        <time>2022-06-18T08:31:49Z</time>
      </trkpt>
      <trkpt lat="46.52937" lon="5.45243">
        <ele>452.8</ele>
        <time>2022-06-18T08:31:51Z</time>
      </trkpt>
      <trkpt lat="46.52928" lon="5.45236">
        <ele>452.6</ele>
        <time>2022-06-18T08:31:52Z</time>
      </trkpt>
      <trkpt lat="46.52918" lon="5.45229">
        <ele>451.6</ele>
        <time>2022-06-18T08:31:53Z</time>
      </trkpt>
      <trkpt lat="46.529" lon="5.45214">
        <ele>449.8</ele>
        <time>2022-06-18T08:31:55Z</time>
      </trkpt>
      <trkpt lat="46.52888" lon="5.45205">
        <ele>448.6</ele>
        <time>2022-06-18T08:31:56Z</time>
      </trkpt>
      <trkpt lat="46.52881" lon="5.45199">
        <ele>448</ele>
        <time>2022-06-18T08:31:57Z</time>
      </trkpt>
      <trkpt lat="46.52871" lon="5.45191">
        <ele>447</ele>
        <time>2022-06-18T08:31:58Z</time>
      </trkpt>
      <trkpt lat="46.52852" lon="5.45176">
        <ele>446</ele>
        <time>2022-06-18T08:32:00Z</time>
      </trkpt>
      <trkpt lat="46.52832" lon="5.45162">
        <ele>445</ele>
        <time>2022-06-18T08:32:02Z</time>
      </trkpt>
      <trkpt lat="46.52823" lon="5.45155">
        <ele>444.4</ele>
        <time>2022-06-18T08:32:03Z</time>
      </trkpt>
      <trkpt lat="46.52805" lon="5.45142">
        <ele>443.8</ele>
        <time>2022-06-18T08:32:05Z</time>
      </trkpt>
      <trkpt lat="46.52796" lon="5.45134">
        <ele>443.8</ele>
        <time>2022-06-18T08:32:06Z</time>
      </trkpt>
      <trkpt lat="46.5279" lon="5.45124">
        <ele>443.2</ele>
        <time>2022-06-18T08:32:07Z</time>
      </trkpt>
      <trkpt lat="46.52786" lon="5.45113">
        <ele>442.8</ele>
        <time>2022-06-18T08:32:08Z</time>
      </trkpt>
      <trkpt lat="46.52786" lon="5.45102">
        <ele>442.2</ele>
        <time>2022-06-18T08:32:09Z</time>
      </trkpt>
      <trkpt lat="46.5279" lon="5.45091">
        <ele>442</ele>
        <time>2022-06-18T08:32:10Z</time>
      </trkpt>
      <trkpt lat="46.52795" lon="5.45081">
        <ele>441.6</ele>
        <time>2022-06-18T08:32:11Z</time>
      </trkpt>
      <trkpt lat="46.5281" lon="5.45067">
        <ele>440.8</ele>
        <time>2022-06-18T08:32:13Z</time>
      </trkpt>
      <trkpt lat="46.5282" lon="5.45061">
        <ele>440.2</ele>
        <time>2022-06-18T08:32:14Z</time>
      </trkpt>
      <trkpt lat="46.5286" lon="5.45036">
        <ele>438.2</ele>
        <time>2022-06-18T08:32:18Z</time>
      </trkpt>
      <trkpt lat="46.5287" lon="5.45029">
        <ele>437.4</ele>
        <time>2022-06-18T08:32:19Z</time>
      </trkpt>
      <trkpt lat="46.52893" lon="5.45013">
        <ele>436.6</ele>
        <time>2022-06-18T08:32:21Z</time>
      </trkpt>
      <trkpt lat="46.52913" lon="5.45">
        <ele>435.2</ele>
        <time>2022-06-18T08:32:23Z</time>
      </trkpt>
      <trkpt lat="46.52938" lon="5.44984">
        <ele>433.6</ele>
        <time>2022-06-18T08:32:25Z</time>
      </trkpt>
      <trkpt lat="46.52949" lon="5.44976">
        <ele>432.4</ele>
        <time>2022-06-18T08:32:26Z</time>
      </trkpt>
      <trkpt lat="46.52972" lon="5.44961">
        <ele>431</ele>
        <time>2022-06-18T08:32:28Z</time>
      </trkpt>
      <trkpt lat="46.52993" lon="5.44941">
        <ele>429.2</ele>
        <time>2022-06-18T08:32:30Z</time>
      </trkpt>
      <trkpt lat="46.53002" lon="5.44928">
        <ele>428.2</ele>
        <time>2022-06-18T08:32:32Z</time>
      </trkpt>
      <trkpt lat="46.5301" lon="5.44897">
        <ele>427.8</ele>
        <time>2022-06-18T08:32:33Z</time>
      </trkpt>
      <trkpt lat="46.53013" lon="5.44857">
        <ele>426.6</ele>
        <time>2022-06-18T08:32:35Z</time>
      </trkpt>
      <trkpt lat="46.53013" lon="5.44838">
        <ele>426.4</ele>
        <time>2022-06-18T08:32:36Z</time>
      </trkpt>
      <trkpt lat="46.53011" lon="5.44823">
        <ele>425.8</ele>
        <time>2022-06-18T08:32:37Z</time>
      </trkpt>
      <trkpt lat="46.53007" lon="5.448">
        <ele>425</ele>
        <time>2022-06-18T08:32:38Z</time>
      </trkpt>
      <trkpt lat="46.53001" lon="5.44763">
        <ele>423.2</ele>
        <time>2022-06-18T08:32:40Z</time>
      </trkpt>
      <trkpt lat="46.52997" lon="5.44725">
        <ele>421.4</ele>
        <time>2022-06-18T08:32:42Z</time>
      </trkpt>
      <trkpt lat="46.52992" lon="5.44688">
        <ele>418.8</ele>
        <time>2022-06-18T08:32:44Z</time>
      </trkpt>
      <trkpt lat="46.52988" lon="5.44651">
        <ele>417</ele>
        <time>2022-06-18T08:32:46Z</time>
      </trkpt>
      <trkpt lat="46.52986" lon="5.44633">
        <ele>416</ele>
        <time>2022-06-18T08:32:47Z</time>
      </trkpt>
      <trkpt lat="46.52984" lon="5.44615">
        <ele>415.4</ele>
        <time>2022-06-18T08:32:48Z</time>
      </trkpt>
      <trkpt lat="46.52977" lon="5.44562">
        <ele>414.2</ele>
        <time>2022-06-18T08:32:51Z</time>
      </trkpt>
      <trkpt lat="46.52973" lon="5.44526">
        <ele>413</ele>
        <time>2022-06-18T08:32:53Z</time>
      </trkpt>
      <trkpt lat="46.52972" lon="5.44508">
        <ele>411.8</ele>
        <time>2022-06-18T08:32:54Z</time>
      </trkpt>
      <trkpt lat="46.5297" lon="5.44473">
        <ele>409.8</ele>
        <time>2022-06-18T08:32:56Z</time>
      </trkpt>
      <trkpt lat="46.52971" lon="5.44442">
        <ele>409.2</ele>
        <time>2022-06-18T08:32:58Z</time>
      </trkpt>
      <trkpt lat="46.52977" lon="5.44408">
        <ele>408</ele>
        <time>2022-06-18T08:33:00Z</time>
      </trkpt>
      <trkpt lat="46.5298" lon="5.44395">
        <ele>407.4</ele>
        <time>2022-06-18T08:33:01Z</time>
      </trkpt>
      <trkpt lat="46.52983" lon="5.44385">
        <ele>406.6</ele>
        <time>2022-06-18T08:33:02Z</time>
      </trkpt>
      <trkpt lat="46.52987" lon="5.44361">
        <ele>406</ele>
        <time>2022-06-18T08:33:04Z</time>
      </trkpt>
      <trkpt lat="46.52986" lon="5.44352">
        <ele>405.8</ele>
        <time>2022-06-18T08:33:05Z</time>
      </trkpt>
      <trkpt lat="46.52983" lon="5.44344">
        <ele>405.6</ele>
        <time>2022-06-18T08:33:06Z</time>
      </trkpt>
      <trkpt lat="46.52978" lon="5.44339">
        <ele>405.4</ele>
        <time>2022-06-18T08:33:07Z</time>
      </trkpt>
      <trkpt lat="46.52973" lon="5.44336">
        <ele>405.2</ele>
        <time>2022-06-18T08:33:08Z</time>
      </trkpt>
      <trkpt lat="46.5296" lon="5.44328">
        <ele>404</ele>
        <time>2022-06-18T08:33:10Z</time>
      </trkpt>
      <trkpt lat="46.52954" lon="5.44324">
        <ele>403.8</ele>
        <time>2022-06-18T08:33:11Z</time>
      </trkpt>
      <trkpt lat="46.52933" lon="5.44314">
        <ele>402.8</ele>
        <time>2022-06-18T08:33:14Z</time>
      </trkpt>
      <trkpt lat="46.52918" lon="5.44306">
        <ele>402.6</ele>
        <time>2022-06-18T08:33:16Z</time>
      </trkpt>
      <trkpt lat="46.52895" lon="5.44293">
        <ele>401.8</ele>
        <time>2022-06-18T08:33:19Z</time>
      </trkpt>
      <trkpt lat="46.52864" lon="5.44273">
        <ele>401</ele>
        <time>2022-06-18T08:33:23Z</time>
      </trkpt>
      <trkpt lat="46.52849" lon="5.44267">
        <ele>400.8</ele>
        <time>2022-06-18T08:33:25Z</time>
      </trkpt>
      <trkpt lat="46.52826" lon="5.44259">
        <ele>400.2</ele>
        <time>2022-06-18T08:33:28Z</time>
      </trkpt>
      <trkpt lat="46.52793" lon="5.44235">
        <ele>399.8</ele>
        <time>2022-06-18T08:33:33Z</time>
      </trkpt>
      <trkpt lat="46.52787" lon="5.44229">
        <ele>399.8</ele>
        <time>2022-06-18T08:33:34Z</time>
      </trkpt>
      <trkpt lat="46.52781" lon="5.44222">
        <ele>399.8</ele>
        <time>2022-06-18T08:33:35Z</time>
      </trkpt>
      <trkpt lat="46.52768" lon="5.4421">
        <ele>399.8</ele>
        <time>2022-06-18T08:33:37Z</time>
      </trkpt>
      <trkpt lat="46.5274" lon="5.44191">
        <ele>400</ele>
        <time>2022-06-18T08:33:41Z</time>
      </trkpt>
      <trkpt lat="46.52734" lon="5.44183">
        <ele>400</ele>
        <time>2022-06-18T08:33:42Z</time>
      </trkpt>
      <trkpt lat="46.52729" lon="5.44175">
        <ele>400</ele>
        <time>2022-06-18T08:33:43Z</time>
      </trkpt>
      <trkpt lat="46.52716" lon="5.44147">
        <ele>399.4</ele>
        <time>2022-06-18T08:33:46Z</time>
      </trkpt>
      <trkpt lat="46.52705" lon="5.44133">
        <ele>399.2</ele>
        <time>2022-06-18T08:33:48Z</time>
      </trkpt>
      <trkpt lat="46.52699" lon="5.44128">
        <ele>399.2</ele>
        <time>2022-06-18T08:33:49Z</time>
      </trkpt>
      <trkpt lat="46.52669" lon="5.44107">
        <ele>399</ele>
        <time>2022-06-18T08:33:54Z</time>
      </trkpt>
      <trkpt lat="46.52616" lon="5.44085">
        <ele>399.8</ele>
        <time>2022-06-18T08:34:02Z</time>
      </trkpt>
      <trkpt lat="46.52602" lon="5.44087">
        <ele>400</ele>
        <time>2022-06-18T08:34:04Z</time>
      </trkpt>
      <trkpt lat="46.52595" lon="5.44091">
        <ele>400</ele>
        <time>2022-06-18T08:34:05Z</time>
      </trkpt>
      <trkpt lat="46.52555" lon="5.44127">
        <ele>400</ele>
        <time>2022-06-18T08:34:11Z</time>
      </trkpt>
      <trkpt lat="46.52524" lon="5.44152">
        <ele>399.8</ele>
        <time>2022-06-18T08:34:16Z</time>
      </trkpt>
      <trkpt lat="46.52512" lon="5.44155">
        <ele>400</ele>
        <time>2022-06-18T08:34:18Z</time>
      </trkpt>
      <trkpt lat="46.52501" lon="5.4415">
        <ele>400</ele>
        <time>2022-06-18T08:34:20Z</time>
      </trkpt>
      <trkpt lat="46.5249" lon="5.44141">
        <ele>400.6</ele>
        <time>2022-06-18T08:34:22Z</time>
      </trkpt>
      <trkpt lat="46.52479" lon="5.44131">
        <ele>401.2</ele>
        <time>2022-06-18T08:34:24Z</time>
      </trkpt>
      <trkpt lat="46.52455" lon="5.441">
        <ele>402.2</ele>
        <time>2022-06-18T08:34:29Z</time>
      </trkpt>
      <trkpt lat="46.52446" lon="5.44086">
        <ele>402.2</ele>
        <time>2022-06-18T08:34:31Z</time>
      </trkpt>
      <trkpt lat="46.52413" lon="5.4404">
        <ele>402.8</ele>
        <time>2022-06-18T08:34:38Z</time>
      </trkpt>
      <trkpt lat="46.52402" lon="5.44031">
        <ele>403</ele>
        <time>2022-06-18T08:34:40Z</time>
      </trkpt>
      <trkpt lat="46.52386" lon="5.44021">
        <ele>403.2</ele>
        <time>2022-06-18T08:34:43Z</time>
      </trkpt>
      <trkpt lat="46.52375" lon="5.44015">
        <ele>403.2</ele>
        <time>2022-06-18T08:34:45Z</time>
      </trkpt>
      <trkpt lat="46.52366" lon="5.44005">
        <ele>403.4</ele>
        <time>2022-06-18T08:34:47Z</time>
      </trkpt>
      <trkpt lat="46.52342" lon="5.4397">
        <ele>404.4</ele>
        <time>2022-06-18T08:34:53Z</time>
      </trkpt>
      <trkpt lat="46.52337" lon="5.43966">
        <ele>404.6</ele>
        <time>2022-06-18T08:34:54Z</time>
      </trkpt>
      <trkpt lat="46.52323" lon="5.43955">
        <ele>404.8</ele>
        <time>2022-06-18T08:34:57Z</time>
      </trkpt>
      <trkpt lat="46.52319" lon="5.43952">
        <ele>405.2</ele>
        <time>2022-06-18T08:34:58Z</time>
      </trkpt>
      <trkpt lat="46.52309" lon="5.43945">
        <ele>405.4</ele>
        <time>2022-06-18T08:35:00Z</time>
      </trkpt>
      <trkpt lat="46.52305" lon="5.43942">
        <ele>405.6</ele>
        <time>2022-06-18T08:35:01Z</time>
      </trkpt>
      <trkpt lat="46.52292" lon="5.43935">
        <ele>406</ele>
        <time>2022-06-18T08:35:04Z</time>
      </trkpt>
      <trkpt lat="46.52283" lon="5.4393">
        <ele>406.4</ele>
        <time>2022-06-18T08:35:06Z</time>
      </trkpt>
      <trkpt lat="46.52279" lon="5.43927">
        <ele>406.6</ele>
        <time>2022-06-18T08:35:07Z</time>
      </trkpt>
      <trkpt lat="46.52262" lon="5.43917">
        <ele>407.6</ele>
        <time>2022-06-18T08:35:11Z</time>
      </trkpt>
      <trkpt lat="46.52242" lon="5.43906">
        <ele>408.8</ele>
        <time>2022-06-18T08:35:15Z</time>
      </trkpt>
      <trkpt lat="46.5223" lon="5.43901">
        <ele>409</ele>
        <time>2022-06-18T08:35:17Z</time>
      </trkpt>
      <trkpt lat="46.52214" lon="5.43897">
        <ele>409.2</ele>
        <time>2022-06-18T08:35:20Z</time>
      </trkpt>
      <trkpt lat="46.52191" lon="5.43897">
        <ele>409.4</ele>
        <time>2022-06-18T08:35:24Z</time>
      </trkpt>
      <trkpt lat="46.52149" lon="5.43909">
        <ele>409.6</ele>
        <time>2022-06-18T08:35:31Z</time>
      </trkpt>
      <trkpt lat="46.52109" lon="5.43923">
        <ele>410</ele>
        <time>2022-06-18T08:35:38Z</time>
      </trkpt>
      <trkpt lat="46.52095" lon="5.4393">
        <ele>410.6</ele>
        <time>2022-06-18T08:35:41Z</time>
      </trkpt>
      <trkpt lat="46.52086" lon="5.43934">
        <ele>411</ele>
        <time>2022-06-18T08:35:43Z</time>
      </trkpt>
      <trkpt lat="46.52057" lon="5.43945">
        <ele>412.4</ele>
        <time>2022-06-18T08:35:49Z</time>
      </trkpt>
      <trkpt lat="46.52047" lon="5.43948">
        <ele>412.6</ele>
        <time>2022-06-18T08:35:51Z</time>
      </trkpt>
      <trkpt lat="46.5202" lon="5.43959">
        <ele>413.4</ele>
        <time>2022-06-18T08:35:57Z</time>
      </trkpt>
      <trkpt lat="46.52016" lon="5.43961">
        <ele>413.4</ele>
        <time>2022-06-18T08:35:58Z</time>
      </trkpt>
      <trkpt lat="46.51997" lon="5.43967">
        <ele>414.6</ele>
        <time>2022-06-18T08:36:02Z</time>
      </trkpt>
      <trkpt lat="46.51984" lon="5.43972">
        <ele>415.4</ele>
        <time>2022-06-18T08:36:05Z</time>
      </trkpt>
      <trkpt lat="46.51979" lon="5.43974">
        <ele>415.6</ele>
        <time>2022-06-18T08:36:06Z</time>
      </trkpt>
      <trkpt lat="46.51967" lon="5.43978">
        <ele>416.2</ele>
        <time>2022-06-18T08:36:09Z</time>
      </trkpt>
      <trkpt lat="46.51958" lon="5.43979">
        <ele>416.8</ele>
        <time>2022-06-18T08:36:11Z</time>
      </trkpt>
      <trkpt lat="46.51947" lon="5.43973">
        <ele>417.4</ele>
        <time>2022-06-18T08:36:13Z</time>
      </trkpt>
      <trkpt lat="46.51933" lon="5.43962">
        <ele>418</ele>
        <time>2022-06-18T08:36:16Z</time>
      </trkpt>
      <trkpt lat="46.51909" lon="5.43946">
        <ele>418.6</ele>
        <time>2022-06-18T08:36:20Z</time>
      </trkpt>
      <trkpt lat="46.51894" lon="5.43929">
        <ele>419.2</ele>
        <time>2022-06-18T08:36:24Z</time>
      </trkpt>
      <trkpt lat="46.51889" lon="5.43922">
        <ele>419.2</ele>
        <time>2022-06-18T08:36:25Z</time>
      </trkpt>
      <trkpt lat="46.51874" lon="5.43894">
        <ele>420</ele>
        <time>2022-06-18T08:36:30Z</time>
      </trkpt>
      <trkpt lat="46.51871" lon="5.4389">
        <ele>420.2</ele>
        <time>2022-06-18T08:36:31Z</time>
      </trkpt>
      <trkpt lat="46.51867" lon="5.43885">
        <ele>420.4</ele>
        <time>2022-06-18T08:36:32Z</time>
      </trkpt>
      <trkpt lat="46.51861" lon="5.43875">
        <ele>420.8</ele>
        <time>2022-06-18T08:36:34Z</time>
      </trkpt>
      <trkpt lat="46.51854" lon="5.43867">
        <ele>420.8</ele>
        <time>2022-06-18T08:36:36Z</time>
      </trkpt>
      <trkpt lat="46.51839" lon="5.43855">
        <ele>421.2</ele>
        <time>2022-06-18T08:36:40Z</time>
      </trkpt>
      <trkpt lat="46.51831" lon="5.4385">
        <ele>421.6</ele>
        <time>2022-06-18T08:36:42Z</time>
      </trkpt>
      <trkpt lat="46.51823" lon="5.43847">
        <ele>422</ele>
        <time>2022-06-18T08:36:44Z</time>
      </trkpt>
      <trkpt lat="46.51819" lon="5.43846">
        <ele>422.6</ele>
        <time>2022-06-18T08:36:45Z</time>
      </trkpt>
      <trkpt lat="46.51815" lon="5.43845">
        <ele>422.6</ele>
        <time>2022-06-18T08:36:46Z</time>
      </trkpt>
      <trkpt lat="46.51806" lon="5.43843">
        <ele>423.2</ele>
        <time>2022-06-18T08:36:48Z</time>
      </trkpt>
      <trkpt lat="46.51797" lon="5.43842">
        <ele>423.6</ele>
        <time>2022-06-18T08:36:50Z</time>
      </trkpt>
      <trkpt lat="46.51781" lon="5.43835">
        <ele>424.8</ele>
        <time>2022-06-18T08:36:54Z</time>
      </trkpt>
      <trkpt lat="46.51771" lon="5.43833">
        <ele>425.2</ele>
        <time>2022-06-18T08:36:56Z</time>
      </trkpt>
      <trkpt lat="46.51764" lon="5.43831">
        <ele>425.8</ele>
        <time>2022-06-18T08:36:58Z</time>
      </trkpt>
      <trkpt lat="46.51748" lon="5.43826">
        <ele>427</ele>
        <time>2022-06-18T08:37:02Z</time>
      </trkpt>
      <trkpt lat="46.51741" lon="5.43823">
        <ele>427.6</ele>
        <time>2022-06-18T08:37:04Z</time>
      </trkpt>
      <trkpt lat="46.51737" lon="5.43821">
        <ele>427.6</ele>
        <time>2022-06-18T08:37:05Z</time>
      </trkpt>
      <trkpt lat="46.51733" lon="5.4382">
        <ele>428</ele>
        <time>2022-06-18T08:37:06Z</time>
      </trkpt>
      <trkpt lat="46.51731" lon="5.43818">
        <ele>428.2</ele>
        <time>2022-06-18T08:37:07Z</time>
      </trkpt>
      <trkpt lat="46.51707" lon="5.43806">
        <ele>428.8</ele>
        <time>2022-06-18T08:37:12Z</time>
      </trkpt>
      <trkpt lat="46.51704" lon="5.43802">
        <ele>429.2</ele>
        <time>2022-06-18T08:37:13Z</time>
      </trkpt>
      <trkpt lat="46.51692" lon="5.43788">
        <ele>429.6</ele>
        <time>2022-06-18T08:37:16Z</time>
      </trkpt>
      <trkpt lat="46.51688" lon="5.43784">
        <ele>429.8</ele>
        <time>2022-06-18T08:37:17Z</time>
      </trkpt>
      <trkpt lat="46.51683" lon="5.43777">
        <ele>429.8</ele>
        <time>2022-06-18T08:37:18Z</time>
      </trkpt>
      <trkpt lat="46.51667" lon="5.43755">
        <ele>430</ele>
        <time>2022-06-18T08:37:22Z</time>
      </trkpt>
      <trkpt lat="46.51643" lon="5.43728">
        <ele>430</ele>
        <time>2022-06-18T08:37:27Z</time>
      </trkpt>
      <trkpt lat="46.51635" lon="5.43723">
        <ele>430</ele>
        <time>2022-06-18T08:37:28Z</time>
      </trkpt>
      <trkpt lat="46.51629" lon="5.43718">
        <ele>429.8</ele>
        <time>2022-06-18T08:37:29Z</time>
      </trkpt>
      <trkpt lat="46.51612" lon="5.43703">
        <ele>429.8</ele>
        <time>2022-06-18T08:37:32Z</time>
      </trkpt>
      <trkpt lat="46.516" lon="5.43695">
        <ele>429.4</ele>
        <time>2022-06-18T08:37:34Z</time>
      </trkpt>
      <trkpt lat="46.51581" lon="5.43689">
        <ele>428.6</ele>
        <time>2022-06-18T08:37:37Z</time>
      </trkpt>
      <trkpt lat="46.51572" lon="5.43688">
        <ele>428.2</ele>
        <time>2022-06-18T08:37:38Z</time>
      </trkpt>
      <trkpt lat="46.51565" lon="5.43689">
        <ele>428.2</ele>
        <time>2022-06-18T08:37:39Z</time>
      </trkpt>
      <trkpt lat="46.51547" lon="5.43688">
        <ele>427.8</ele>
        <time>2022-06-18T08:37:42Z</time>
      </trkpt>
      <trkpt lat="46.51536" lon="5.43682">
        <ele>427.8</ele>
        <time>2022-06-18T08:37:44Z</time>
      </trkpt>
      <trkpt lat="46.51526" lon="5.43673">
        <ele>427.6</ele>
        <time>2022-06-18T08:37:46Z</time>
      </trkpt>
      <trkpt lat="46.51505" lon="5.43635">
        <ele>427.4</ele>
        <time>2022-06-18T08:37:51Z</time>
      </trkpt>
      <trkpt lat="46.515" lon="5.43627">
        <ele>427.4</ele>
        <time>2022-06-18T08:37:52Z</time>
      </trkpt>
      <trkpt lat="46.51489" lon="5.4361">
        <ele>427.2</ele>
        <time>2022-06-18T08:37:55Z</time>
      </trkpt>
      <trkpt lat="46.51477" lon="5.43595">
        <ele>427.4</ele>
        <time>2022-06-18T08:37:58Z</time>
      </trkpt>
      <trkpt lat="46.51455" lon="5.43568">
        <ele>428</ele>
        <time>2022-06-18T08:38:03Z</time>
      </trkpt>
      <trkpt lat="46.51445" lon="5.4356">
        <ele>428.2</ele>
        <time>2022-06-18T08:38:05Z</time>
      </trkpt>
      <trkpt lat="46.51435" lon="5.43554">
        <ele>428.4</ele>
        <time>2022-06-18T08:38:07Z</time>
      </trkpt>
      <trkpt lat="46.51411" lon="5.43544">
        <ele>428</ele>
        <time>2022-06-18T08:38:11Z</time>
      </trkpt>
      <trkpt lat="46.51375" lon="5.4353">
        <ele>428.2</ele>
        <time>2022-06-18T08:38:17Z</time>
      </trkpt>
      <trkpt lat="46.51347" lon="5.43518">
        <ele>428.8</ele>
        <time>2022-06-18T08:38:22Z</time>
      </trkpt>
      <trkpt lat="46.5133" lon="5.43513">
        <ele>428.8</ele>
        <time>2022-06-18T08:38:25Z</time>
      </trkpt>
      <trkpt lat="46.51315" lon="5.4351">
        <ele>428.8</ele>
        <time>2022-06-18T08:38:27Z</time>
      </trkpt>
      <trkpt lat="46.51292" lon="5.43511">
        <ele>428.6</ele>
        <time>2022-06-18T08:38:30Z</time>
      </trkpt>
      <trkpt lat="46.51278" lon="5.43508">
        <ele>428.2</ele>
        <time>2022-06-18T08:38:32Z</time>
      </trkpt>
      <trkpt lat="46.51272" lon="5.43505">
        <ele>428.2</ele>
        <time>2022-06-18T08:38:33Z</time>
      </trkpt>
      <trkpt lat="46.51261" lon="5.43497">
        <ele>428.2</ele>
        <time>2022-06-18T08:38:35Z</time>
      </trkpt>
      <trkpt lat="46.51246" lon="5.43482">
        <ele>428</ele>
        <time>2022-06-18T08:38:38Z</time>
      </trkpt>
      <trkpt lat="46.5121" lon="5.43433">
        <ele>428.2</ele>
        <time>2022-06-18T08:38:46Z</time>
      </trkpt>
      <trkpt lat="46.51186" lon="5.43405">
        <ele>428.2</ele>
        <time>2022-06-18T08:38:51Z</time>
      </trkpt>
      <trkpt lat="46.51181" lon="5.43402">
        <ele>428.2</ele>
        <time>2022-06-18T08:38:52Z</time>
      </trkpt>
      <trkpt lat="46.51173" lon="5.43398">
        <ele>428.2</ele>
        <time>2022-06-18T08:38:53Z</time>
      </trkpt>
      <trkpt lat="46.5116" lon="5.43394">
        <ele>428</ele>
        <time>2022-06-18T08:38:55Z</time>
      </trkpt>
      <trkpt lat="46.51153" lon="5.43393">
        <ele>428.2</ele>
        <time>2022-06-18T08:38:56Z</time>
      </trkpt>
      <trkpt lat="46.51121" lon="5.43395">
        <ele>427.8</ele>
        <time>2022-06-18T08:39:01Z</time>
      </trkpt>
      <trkpt lat="46.51108" lon="5.43391">
        <ele>427.4</ele>
        <time>2022-06-18T08:39:03Z</time>
      </trkpt>
      <trkpt lat="46.51098" lon="5.43384">
        <ele>427.2</ele>
        <time>2022-06-18T08:39:05Z</time>
      </trkpt>
      <trkpt lat="46.51088" lon="5.43377">
        <ele>427.2</ele>
        <time>2022-06-18T08:39:07Z</time>
      </trkpt>
      <trkpt lat="46.51056" lon="5.43362">
        <ele>428</ele>
        <time>2022-06-18T08:39:13Z</time>
      </trkpt>
      <trkpt lat="46.51045" lon="5.43357">
        <ele>428.4</ele>
        <time>2022-06-18T08:39:15Z</time>
      </trkpt>
      <trkpt lat="46.51016" lon="5.43351">
        <ele>429.4</ele>
        <time>2022-06-18T08:39:20Z</time>
      </trkpt>
      <trkpt lat="46.51011" lon="5.43352">
        <ele>429.6</ele>
        <time>2022-06-18T08:39:21Z</time>
      </trkpt>
      <trkpt lat="46.51004" lon="5.43354">
        <ele>429.6</ele>
        <time>2022-06-18T08:39:22Z</time>
      </trkpt>
      <trkpt lat="46.50996" lon="5.43359">
        <ele>430</ele>
        <time>2022-06-18T08:39:24Z</time>
      </trkpt>
      <trkpt lat="46.50986" lon="5.43369">
        <ele>430.2</ele>
        <time>2022-06-18T08:39:26Z</time>
      </trkpt>
      <trkpt lat="46.50978" lon="5.43379">
        <ele>430.4</ele>
        <time>2022-06-18T08:39:28Z</time>
      </trkpt>
      <trkpt lat="46.50967" lon="5.43391">
        <ele>430.8</ele>
        <time>2022-06-18T08:39:30Z</time>
      </trkpt>
      <trkpt lat="46.50958" lon="5.43402">
        <ele>430.8</ele>
        <time>2022-06-18T08:39:33Z</time>
      </trkpt>
      <trkpt lat="46.50943" lon="5.43413">
        <ele>430.8</ele>
        <time>2022-06-18T08:39:34Z</time>
      </trkpt>
      <trkpt lat="46.50928" lon="5.43423">
        <ele>430.8</ele>
        <time>2022-06-18T08:39:36Z</time>
      </trkpt>
      <trkpt lat="46.50922" lon="5.43424">
        <ele>430.8</ele>
        <time>2022-06-18T08:39:37Z</time>
      </trkpt>
      <trkpt lat="46.50915" lon="5.43421">
        <ele>430.8</ele>
        <time>2022-06-18T08:39:38Z</time>
      </trkpt>
      <trkpt lat="46.50901" lon="5.43414">
        <ele>430.4</ele>
        <time>2022-06-18T08:39:40Z</time>
      </trkpt>
      <trkpt lat="46.50895" lon="5.43411">
        <ele>430</ele>
        <time>2022-06-18T08:39:41Z</time>
      </trkpt>
      <trkpt lat="46.50884" lon="5.43401">
        <ele>429.8</ele>
        <time>2022-06-18T08:39:43Z</time>
      </trkpt>
      <trkpt lat="46.50867" lon="5.43388">
        <ele>429.8</ele>
        <time>2022-06-18T08:39:46Z</time>
      </trkpt>
      <trkpt lat="46.50854" lon="5.43379">
        <ele>430</ele>
        <time>2022-06-18T08:39:48Z</time>
      </trkpt>
      <trkpt lat="46.50844" lon="5.4337">
        <ele>430.2</ele>
        <time>2022-06-18T08:39:50Z</time>
      </trkpt>
      <trkpt lat="46.50814" lon="5.43349">
        <ele>430.8</ele>
        <time>2022-06-18T08:39:55Z</time>
      </trkpt>
      <trkpt lat="46.50776" lon="5.43324">
        <ele>431.2</ele>
        <time>2022-06-18T08:40:01Z</time>
      </trkpt>
      <trkpt lat="46.50769" lon="5.4332">
        <ele>431.2</ele>
        <time>2022-06-18T08:40:02Z</time>
      </trkpt>
      <trkpt lat="46.50757" lon="5.43314">
        <ele>431</ele>
        <time>2022-06-18T08:40:04Z</time>
      </trkpt>
      <trkpt lat="46.50745" lon="5.43312">
        <ele>431</ele>
        <time>2022-06-18T08:40:06Z</time>
      </trkpt>
      <trkpt lat="46.50733" lon="5.43315">
        <ele>430.8</ele>
        <time>2022-06-18T08:40:08Z</time>
      </trkpt>
      <trkpt lat="46.50721" lon="5.43323">
        <ele>430.8</ele>
        <time>2022-06-18T08:40:10Z</time>
      </trkpt>
      <trkpt lat="46.5071" lon="5.4333">
        <ele>430.8</ele>
        <time>2022-06-18T08:40:12Z</time>
      </trkpt>
      <trkpt lat="46.50698" lon="5.43332">
        <ele>431</ele>
        <time>2022-06-18T08:40:14Z</time>
      </trkpt>
      <trkpt lat="46.50692" lon="5.43331">
        <ele>430.8</ele>
        <time>2022-06-18T08:40:15Z</time>
      </trkpt>
      <trkpt lat="46.50686" lon="5.43328">
        <ele>431</ele>
        <time>2022-06-18T08:40:16Z</time>
      </trkpt>
      <trkpt lat="46.50676" lon="5.43322">
        <ele>431.4</ele>
        <time>2022-06-18T08:40:18Z</time>
      </trkpt>
      <trkpt lat="46.50671" lon="5.43319">
        <ele>431.4</ele>
        <time>2022-06-18T08:40:19Z</time>
      </trkpt>
      <trkpt lat="46.50666" lon="5.43316">
        <ele>431.4</ele>
        <time>2022-06-18T08:40:20Z</time>
      </trkpt>
      <trkpt lat="46.50658" lon="5.43314">
        <ele>431.6</ele>
        <time>2022-06-18T08:40:21Z</time>
      </trkpt>
      <trkpt lat="46.50651" lon="5.4331">
        <ele>431.6</ele>
        <time>2022-06-18T08:40:22Z</time>
      </trkpt>
      <trkpt lat="46.50645" lon="5.43306">
        <ele>431.8</ele>
        <time>2022-06-18T08:40:23Z</time>
      </trkpt>
      <trkpt lat="46.50641" lon="5.43303">
        <ele>431.8</ele>
        <time>2022-06-18T08:40:24Z</time>
      </trkpt>
      <trkpt lat="46.50622" lon="5.43291">
        <ele>432</ele>
        <time>2022-06-18T08:40:27Z</time>
      </trkpt>
      <trkpt lat="46.50613" lon="5.43282">
        <ele>432.2</ele>
        <time>2022-06-18T08:40:29Z</time>
      </trkpt>
      <trkpt lat="46.506" lon="5.43273">
        <ele>432.2</ele>
        <time>2022-06-18T08:40:31Z</time>
      </trkpt>
      <trkpt lat="46.50589" lon="5.43264">
        <ele>432.4</ele>
        <time>2022-06-18T08:40:33Z</time>
      </trkpt>
      <trkpt lat="46.50573" lon="5.43253">
        <ele>432.6</ele>
        <time>2022-06-18T08:40:36Z</time>
      </trkpt>
      <trkpt lat="46.50568" lon="5.4325">
        <ele>433</ele>
        <time>2022-06-18T08:40:37Z</time>
      </trkpt>
      <trkpt lat="46.50555" lon="5.43242">
        <ele>433.2</ele>
        <time>2022-06-18T08:40:39Z</time>
      </trkpt>
      <trkpt lat="46.5054" lon="5.43234">
        <ele>433.4</ele>
        <time>2022-06-18T08:40:42Z</time>
      </trkpt>
      <trkpt lat="46.50526" lon="5.43225">
        <ele>433.6</ele>
        <time>2022-06-18T08:40:45Z</time>
      </trkpt>
      <trkpt lat="46.50519" lon="5.43224">
        <ele>433.8</ele>
        <time>2022-06-18T08:40:46Z</time>
      </trkpt>
      <trkpt lat="46.50513" lon="5.43223">
        <ele>434</ele>
        <time>2022-06-18T08:40:47Z</time>
      </trkpt>
      <trkpt lat="46.50481" lon="5.43218">
        <ele>434.6</ele>
        <time>2022-06-18T08:40:53Z</time>
      </trkpt>
      <trkpt lat="46.50468" lon="5.43216">
        <ele>434.8</ele>
        <time>2022-06-18T08:40:55Z</time>
      </trkpt>
      <trkpt lat="46.50452" lon="5.4321">
        <ele>434.8</ele>
        <time>2022-06-18T08:40:58Z</time>
      </trkpt>
      <trkpt lat="46.50443" lon="5.43205">
        <ele>435</ele>
        <time>2022-06-18T08:41:00Z</time>
      </trkpt>
      <trkpt lat="46.50438" lon="5.43202">
        <ele>435.2</ele>
        <time>2022-06-18T08:41:01Z</time>
      </trkpt>
      <trkpt lat="46.50424" lon="5.43194">
        <ele>435.4</ele>
        <time>2022-06-18T08:41:04Z</time>
      </trkpt>
      <trkpt lat="46.50388" lon="5.43174">
        <ele>436</ele>
        <time>2022-06-18T08:41:11Z</time>
      </trkpt>
      <trkpt lat="46.50379" lon="5.43169">
        <ele>436</ele>
        <time>2022-06-18T08:41:13Z</time>
      </trkpt>
      <trkpt lat="46.50366" lon="5.43163">
        <ele>436</ele>
        <time>2022-06-18T08:41:15Z</time>
      </trkpt>
      <trkpt lat="46.50354" lon="5.43156">
        <ele>436</ele>
        <time>2022-06-18T08:41:17Z</time>
      </trkpt>
      <trkpt lat="46.50334" lon="5.43148">
        <ele>436.2</ele>
        <time>2022-06-18T08:41:20Z</time>
      </trkpt>
      <trkpt lat="46.50329" lon="5.43145">
        <ele>436.2</ele>
        <time>2022-06-18T08:41:21Z</time>
      </trkpt>
      <trkpt lat="46.50294" lon="5.43123">
        <ele>436.6</ele>
        <time>2022-06-18T08:41:28Z</time>
      </trkpt>
      <trkpt lat="46.50275" lon="5.43113">
        <ele>437.2</ele>
        <time>2022-06-18T08:41:32Z</time>
      </trkpt>
      <trkpt lat="46.50258" lon="5.43108">
        <ele>438</ele>
        <time>2022-06-18T08:41:35Z</time>
      </trkpt>
      <trkpt lat="46.50236" lon="5.43105">
        <ele>438.2</ele>
        <time>2022-06-18T08:41:39Z</time>
      </trkpt>
      <trkpt lat="46.50225" lon="5.43106">
        <ele>438.4</ele>
        <time>2022-06-18T08:41:41Z</time>
      </trkpt>
      <trkpt lat="46.50189" lon="5.431">
        <ele>439.2</ele>
        <time>2022-06-18T08:41:48Z</time>
      </trkpt>
      <trkpt lat="46.50184" lon="5.43099">
        <ele>439.4</ele>
        <time>2022-06-18T08:41:49Z</time>
      </trkpt>
      <trkpt lat="46.50133" lon="5.43092">
        <ele>440</ele>
        <time>2022-06-18T08:41:58Z</time>
      </trkpt>
      <trkpt lat="46.50106" lon="5.43086">
        <ele>440.2</ele>
        <time>2022-06-18T08:42:03Z</time>
      </trkpt>
      <trkpt lat="46.501" lon="5.43085">
        <ele>440.4</ele>
        <time>2022-06-18T08:42:04Z</time>
      </trkpt>
      <trkpt lat="46.5007" lon="5.43076">
        <ele>441.2</ele>
        <time>2022-06-18T08:42:09Z</time>
      </trkpt>
      <trkpt lat="46.50057" lon="5.43074">
        <ele>441.4</ele>
        <time>2022-06-18T08:42:11Z</time>
      </trkpt>
      <trkpt lat="46.5002" lon="5.43071">
        <ele>441.2</ele>
        <time>2022-06-18T08:42:17Z</time>
      </trkpt>
      <trkpt lat="46.49993" lon="5.43068">
        <ele>441</ele>
        <time>2022-06-18T08:42:22Z</time>
      </trkpt>
      <trkpt lat="46.49989" lon="5.43067">
        <ele>441</ele>
        <time>2022-06-18T08:42:23Z</time>
      </trkpt>
      <trkpt lat="46.49964" lon="5.43063">
        <ele>442</ele>
        <time>2022-06-18T08:42:28Z</time>
      </trkpt>
      <trkpt lat="46.49961" lon="5.43063">
        <ele>442.4</ele>
        <time>2022-06-18T08:42:29Z</time>
      </trkpt>
      <trkpt lat="46.49949" lon="5.43063">
        <ele>443.4</ele>
        <time>2022-06-18T08:42:31Z</time>
      </trkpt>
      <trkpt lat="46.49934" lon="5.43062">
        <ele>444</ele>
        <time>2022-06-18T08:42:34Z</time>
      </trkpt>
      <trkpt lat="46.49918" lon="5.43064">
        <ele>444.4</ele>
        <time>2022-06-18T08:42:37Z</time>
      </trkpt>
      <trkpt lat="46.4991" lon="5.43063">
        <ele>444.6</ele>
        <time>2022-06-18T08:42:39Z</time>
      </trkpt>
      <trkpt lat="46.49906" lon="5.43061">
        <ele>444.8</ele>
        <time>2022-06-18T08:42:40Z</time>
      </trkpt>
      <trkpt lat="46.49887" lon="5.43058">
        <ele>445</ele>
        <time>2022-06-18T08:42:44Z</time>
      </trkpt>
      <trkpt lat="46.49883" lon="5.43059">
        <ele>445</ele>
        <time>2022-06-18T08:42:45Z</time>
      </trkpt>
      <trkpt lat="46.49874" lon="5.43061">
        <ele>445.2</ele>
        <time>2022-06-18T08:42:47Z</time>
      </trkpt>
      <trkpt lat="46.49856" lon="5.43057">
        <ele>445.4</ele>
        <time>2022-06-18T08:42:49Z</time>
      </trkpt>
      <trkpt lat="46.49841" lon="5.43058">
        <ele>445.6</ele>
        <time>2022-06-18T08:42:51Z</time>
      </trkpt>
      <trkpt lat="46.49819" lon="5.43055">
        <ele>445.8</ele>
        <time>2022-06-18T08:42:55Z</time>
      </trkpt>
      <trkpt lat="46.49799" lon="5.43053">
        <ele>446</ele>
        <time>2022-06-18T08:42:59Z</time>
      </trkpt>
      <trkpt lat="46.49791" lon="5.43052">
        <ele>446.4</ele>
        <time>2022-06-18T08:43:01Z</time>
      </trkpt>
      <trkpt lat="46.4977" lon="5.43049">
        <ele>446.6</ele>
        <time>2022-06-18T08:43:05Z</time>
      </trkpt>
      <trkpt lat="46.49755" lon="5.43046">
        <ele>446.8</ele>
        <time>2022-06-18T08:43:08Z</time>
      </trkpt>
      <trkpt lat="46.49711" lon="5.43029">
        <ele>447</ele>
        <time>2022-06-18T08:43:16Z</time>
      </trkpt>
      <trkpt lat="46.49673" lon="5.43014">
        <ele>447</ele>
        <time>2022-06-18T08:43:23Z</time>
      </trkpt>
      <trkpt lat="46.49642" lon="5.43002">
        <ele>447.4</ele>
        <time>2022-06-18T08:43:29Z</time>
      </trkpt>
      <trkpt lat="46.49632" lon="5.42998">
        <ele>447.6</ele>
        <time>2022-06-18T08:43:31Z</time>
      </trkpt>
      <trkpt lat="46.49608" lon="5.42988">
        <ele>448.8</ele>
        <time>2022-06-18T08:43:36Z</time>
      </trkpt>
      <trkpt lat="46.49604" lon="5.42986">
        <ele>448.8</ele>
        <time>2022-06-18T08:43:37Z</time>
      </trkpt>
      <trkpt lat="46.49587" lon="5.42978">
        <ele>449.8</ele>
        <time>2022-06-18T08:43:41Z</time>
      </trkpt>
      <trkpt lat="46.49583" lon="5.42977">
        <ele>449.8</ele>
        <time>2022-06-18T08:43:42Z</time>
      </trkpt>
      <trkpt lat="46.49569" lon="5.42971">
        <ele>450.6</ele>
        <time>2022-06-18T08:43:45Z</time>
      </trkpt>
      <trkpt lat="46.4955" lon="5.42962">
        <ele>451.8</ele>
        <time>2022-06-18T08:43:49Z</time>
      </trkpt>
      <trkpt lat="46.49545" lon="5.4296">
        <ele>452</ele>
        <time>2022-06-18T08:43:50Z</time>
      </trkpt>
      <trkpt lat="46.49541" lon="5.42958">
        <ele>452.2</ele>
        <time>2022-06-18T08:43:51Z</time>
      </trkpt>
      <trkpt lat="46.49526" lon="5.42952">
        <ele>452.8</ele>
        <time>2022-06-18T08:43:54Z</time>
      </trkpt>
      <trkpt lat="46.49511" lon="5.42946">
        <ele>453.2</ele>
        <time>2022-06-18T08:43:57Z</time>
      </trkpt>
      <trkpt lat="46.49502" lon="5.42939">
        <ele>453.8</ele>
        <time>2022-06-18T08:43:59Z</time>
      </trkpt>
      <trkpt lat="46.49494" lon="5.42931">
        <ele>454</ele>
        <time>2022-06-18T08:44:01Z</time>
      </trkpt>
      <trkpt lat="46.49479" lon="5.42918">
        <ele>454.2</ele>
        <time>2022-06-18T08:44:04Z</time>
      </trkpt>
      <trkpt lat="46.49448" lon="5.42881">
        <ele>454.4</ele>
        <time>2022-06-18T08:44:12Z</time>
      </trkpt>
      <trkpt lat="46.49443" lon="5.42871">
        <ele>455</ele>
        <time>2022-06-18T08:44:14Z</time>
      </trkpt>
      <trkpt lat="46.49423" lon="5.42839">
        <ele>456</ele>
        <time>2022-06-18T08:44:19Z</time>
      </trkpt>
      <trkpt lat="46.49416" lon="5.42827">
        <ele>456</ele>
        <time>2022-06-18T08:44:21Z</time>
      </trkpt>
      <trkpt lat="46.49397" lon="5.42796">
        <ele>456</ele>
        <time>2022-06-18T08:44:26Z</time>
      </trkpt>
      <trkpt lat="46.49394" lon="5.42792">
        <ele>456</ele>
        <time>2022-06-18T08:44:27Z</time>
      </trkpt>
      <trkpt lat="46.49369" lon="5.42748">
        <ele>456.8</ele>
        <time>2022-06-18T08:44:34Z</time>
      </trkpt>
      <trkpt lat="46.49344" lon="5.42707">
        <ele>457.6</ele>
        <time>2022-06-18T08:44:41Z</time>
      </trkpt>
      <trkpt lat="46.49335" lon="5.42697">
        <ele>457.8</ele>
        <time>2022-06-18T08:44:43Z</time>
      </trkpt>
      <trkpt lat="46.4933" lon="5.42693">
        <ele>458</ele>
        <time>2022-06-18T08:44:44Z</time>
      </trkpt>
      <trkpt lat="46.49321" lon="5.42685">
        <ele>458.4</ele>
        <time>2022-06-18T08:44:46Z</time>
      </trkpt>
      <trkpt lat="46.49317" lon="5.4268">
        <ele>458.6</ele>
        <time>2022-06-18T08:44:47Z</time>
      </trkpt>
      <trkpt lat="46.49308" lon="5.4267">
        <ele>459.2</ele>
        <time>2022-06-18T08:44:49Z</time>
      </trkpt>
      <trkpt lat="46.49294" lon="5.42656">
        <ele>459.6</ele>
        <time>2022-06-18T08:44:52Z</time>
      </trkpt>
      <trkpt lat="46.49277" lon="5.42637">
        <ele>460.2</ele>
        <time>2022-06-18T08:44:56Z</time>
      </trkpt>
      <trkpt lat="46.49263" lon="5.42616">
        <ele>460.4</ele>
        <time>2022-06-18T08:45:00Z</time>
      </trkpt>
      <trkpt lat="46.49259" lon="5.42612">
        <ele>460.6</ele>
        <time>2022-06-18T08:45:01Z</time>
      </trkpt>
      <trkpt lat="46.49249" lon="5.42603">
        <ele>461.4</ele>
        <time>2022-06-18T08:45:03Z</time>
      </trkpt>
      <trkpt lat="46.49238" lon="5.42589">
        <ele>462.8</ele>
        <time>2022-06-18T08:45:06Z</time>
      </trkpt>
      <trkpt lat="46.49219" lon="5.42569">
        <ele>464</ele>
        <time>2022-06-18T08:45:11Z</time>
      </trkpt>
      <trkpt lat="46.49212" lon="5.42562">
        <ele>464.2</ele>
        <time>2022-06-18T08:45:13Z</time>
      </trkpt>
      <trkpt lat="46.49204" lon="5.42555">
        <ele>464.4</ele>
        <time>2022-06-18T08:45:15Z</time>
      </trkpt>
      <trkpt lat="46.49193" lon="5.42544">
        <ele>464.6</ele>
        <time>2022-06-18T08:45:18Z</time>
      </trkpt>
      <trkpt lat="46.49184" lon="5.42536">
        <ele>464.8</ele>
        <time>2022-06-18T08:45:20Z</time>
      </trkpt>
      <trkpt lat="46.49167" lon="5.42519">
        <ele>465.2</ele>
        <time>2022-06-18T08:45:24Z</time>
      </trkpt>
      <trkpt lat="46.49158" lon="5.42511">
        <ele>465.4</ele>
        <time>2022-06-18T08:45:26Z</time>
      </trkpt>
      <trkpt lat="46.49139" lon="5.42493">
        <ele>465.8</ele>
        <time>2022-06-18T08:45:31Z</time>
      </trkpt>
      <trkpt lat="46.49132" lon="5.42485">
        <ele>466.2</ele>
        <time>2022-06-18T08:45:33Z</time>
      </trkpt>
      <trkpt lat="46.49128" lon="5.42481">
        <ele>466.4</ele>
        <time>2022-06-18T08:45:34Z</time>
      </trkpt>
      <trkpt lat="46.4912" lon="5.42473">
        <ele>466.6</ele>
        <time>2022-06-18T08:45:36Z</time>
      </trkpt>
      <trkpt lat="46.49113" lon="5.42465">
        <ele>466.8</ele>
        <time>2022-06-18T08:45:38Z</time>
      </trkpt>
      <trkpt lat="46.49109" lon="5.42461">
        <ele>467</ele>
        <time>2022-06-18T08:45:39Z</time>
      </trkpt>
      <trkpt lat="46.49101" lon="5.42453">
        <ele>467.2</ele>
        <time>2022-06-18T08:45:41Z</time>
      </trkpt>
      <trkpt lat="46.49093" lon="5.42443">
        <ele>467.2</ele>
        <time>2022-06-18T08:45:43Z</time>
      </trkpt>
      <trkpt lat="46.49082" lon="5.4243">
        <ele>467.6</ele>
        <time>2022-06-18T08:45:46Z</time>
      </trkpt>
      <trkpt lat="46.4907" lon="5.42418">
        <ele>468</ele>
        <time>2022-06-18T08:45:49Z</time>
      </trkpt>
      <trkpt lat="46.49051" lon="5.42396">
        <ele>468.4</ele>
        <time>2022-06-18T08:45:54Z</time>
      </trkpt>
      <trkpt lat="46.49038" lon="5.42386">
        <ele>468.8</ele>
        <time>2022-06-18T08:45:57Z</time>
      </trkpt>
      <trkpt lat="46.49027" lon="5.42376">
        <ele>469.2</ele>
        <time>2022-06-18T08:46:00Z</time>
      </trkpt>
      <trkpt lat="46.49006" lon="5.4236">
        <ele>469.8</ele>
        <time>2022-06-18T08:46:05Z</time>
      </trkpt>
      <trkpt lat="46.49002" lon="5.42356">
        <ele>470</ele>
        <time>2022-06-18T08:46:06Z</time>
      </trkpt>
      <trkpt lat="46.48998" lon="5.42353">
        <ele>470.2</ele>
        <time>2022-06-18T08:46:07Z</time>
      </trkpt>
      <trkpt lat="46.48995" lon="5.42351">
        <ele>470.4</ele>
        <time>2022-06-18T08:46:08Z</time>
      </trkpt>
      <trkpt lat="46.48982" lon="5.42343">
        <ele>471</ele>
        <time>2022-06-18T08:46:11Z</time>
      </trkpt>
      <trkpt lat="46.48975" lon="5.42339">
        <ele>471</ele>
        <time>2022-06-18T08:46:13Z</time>
      </trkpt>
      <trkpt lat="46.48956" lon="5.42327">
        <ele>472.2</ele>
        <time>2022-06-18T08:46:18Z</time>
      </trkpt>
      <trkpt lat="46.48948" lon="5.42324">
        <ele>472.6</ele>
        <time>2022-06-18T08:46:20Z</time>
      </trkpt>
      <trkpt lat="46.48926" lon="5.42316">
        <ele>473.4</ele>
        <time>2022-06-18T08:46:25Z</time>
      </trkpt>
      <trkpt lat="46.48917" lon="5.42316">
        <ele>474</ele>
        <time>2022-06-18T08:46:27Z</time>
      </trkpt>
      <trkpt lat="46.48904" lon="5.42317">
        <ele>474.4</ele>
        <time>2022-06-18T08:46:30Z</time>
      </trkpt>
      <trkpt lat="46.48878" lon="5.42323">
        <ele>475.6</ele>
        <time>2022-06-18T08:46:36Z</time>
      </trkpt>
      <trkpt lat="46.48857" lon="5.42325">
        <ele>476.8</ele>
        <time>2022-06-18T08:46:41Z</time>
      </trkpt>
      <trkpt lat="46.4885" lon="5.42324">
        <ele>477</ele>
        <time>2022-06-18T08:46:43Z</time>
      </trkpt>
      <trkpt lat="46.48821" lon="5.42315">
        <ele>477.4</ele>
        <time>2022-06-18T08:46:49Z</time>
      </trkpt>
      <trkpt lat="46.48784" lon="5.42295">
        <ele>477.2</ele>
        <time>2022-06-18T08:46:56Z</time>
      </trkpt>
      <trkpt lat="46.48747" lon="5.42277">
        <ele>477</ele>
        <time>2022-06-18T08:47:03Z</time>
      </trkpt>
      <trkpt lat="46.48712" lon="5.42264">
        <ele>477.8</ele>
        <time>2022-06-18T08:47:10Z</time>
      </trkpt>
      <trkpt lat="46.48702" lon="5.42261">
        <ele>478</ele>
        <time>2022-06-18T08:47:12Z</time>
      </trkpt>
      <trkpt lat="46.48659" lon="5.42252">
        <ele>478.8</ele>
        <time>2022-06-18T08:47:20Z</time>
      </trkpt>
      <trkpt lat="46.48654" lon="5.42251">
        <ele>478.8</ele>
        <time>2022-06-18T08:47:21Z</time>
      </trkpt>
      <trkpt lat="46.48644" lon="5.42251">
        <ele>478.8</ele>
        <time>2022-06-18T08:47:23Z</time>
      </trkpt>
      <trkpt lat="46.48632" lon="5.42254">
        <ele>478.8</ele>
        <time>2022-06-18T08:47:26Z</time>
      </trkpt>
      <trkpt lat="46.48615" lon="5.42267">
        <ele>479.2</ele>
        <time>2022-06-18T08:47:31Z</time>
      </trkpt>
      <trkpt lat="46.48604" lon="5.42275">
        <ele>479.8</ele>
        <time>2022-06-18T08:47:34Z</time>
      </trkpt>
      <trkpt lat="46.48601" lon="5.42278">
        <ele>480.2</ele>
        <time>2022-06-18T08:47:35Z</time>
      </trkpt>
      <trkpt lat="46.48598" lon="5.42281">
        <ele>480.8</ele>
        <time>2022-06-18T08:47:36Z</time>
      </trkpt>
      <trkpt lat="46.48585" lon="5.42292">
        <ele>482</ele>
        <time>2022-06-18T08:47:40Z</time>
      </trkpt>
      <trkpt lat="46.48582" lon="5.42295">
        <ele>482.6</ele>
        <time>2022-06-18T08:47:41Z</time>
      </trkpt>
      <trkpt lat="46.48568" lon="5.42301">
        <ele>483.2</ele>
        <time>2022-06-18T08:47:44Z</time>
      </trkpt>
      <trkpt lat="46.48564" lon="5.42301">
        <ele>483.4</ele>
        <time>2022-06-18T08:47:45Z</time>
      </trkpt>
      <trkpt lat="46.4856" lon="5.42299">
        <ele>484</ele>
        <time>2022-06-18T08:47:46Z</time>
      </trkpt>
      <trkpt lat="46.48555" lon="5.42296">
        <ele>484.2</ele>
        <time>2022-06-18T08:47:47Z</time>
      </trkpt>
      <trkpt lat="46.48551" lon="5.42293">
        <ele>484.4</ele>
        <time>2022-06-18T08:47:48Z</time>
      </trkpt>
      <trkpt lat="46.48548" lon="5.4229">
        <ele>484.8</ele>
        <time>2022-06-18T08:47:49Z</time>
      </trkpt>
      <trkpt lat="46.4854" lon="5.42283">
        <ele>485.2</ele>
        <time>2022-06-18T08:47:51Z</time>
      </trkpt>
      <trkpt lat="46.48532" lon="5.42276">
        <ele>485.6</ele>
        <time>2022-06-18T08:47:53Z</time>
      </trkpt>
      <trkpt lat="46.48524" lon="5.42269">
        <ele>486</ele>
        <time>2022-06-18T08:47:55Z</time>
      </trkpt>
      <trkpt lat="46.48515" lon="5.42262">
        <ele>486.4</ele>
        <time>2022-06-18T08:47:57Z</time>
      </trkpt>
      <trkpt lat="46.48487" lon="5.4224">
        <ele>487</ele>
        <time>2022-06-18T08:48:04Z</time>
      </trkpt>
      <trkpt lat="46.48449" lon="5.42208">
        <ele>487.4</ele>
        <time>2022-06-18T08:48:13Z</time>
      </trkpt>
      <trkpt lat="46.48413" lon="5.42181">
        <ele>488.2</ele>
        <time>2022-06-18T08:48:22Z</time>
      </trkpt>
      <trkpt lat="46.484" lon="5.42173">
        <ele>488.6</ele>
        <time>2022-06-18T08:48:25Z</time>
      </trkpt>
      <trkpt lat="46.48395" lon="5.42171">
        <ele>488.6</ele>
        <time>2022-06-18T08:48:26Z</time>
      </trkpt>
      <trkpt lat="46.48387" lon="5.42166">
        <ele>488.8</ele>
        <time>2022-06-18T08:48:28Z</time>
      </trkpt>
      <trkpt lat="46.48371" lon="5.42157">
        <ele>489.6</ele>
        <time>2022-06-18T08:48:32Z</time>
      </trkpt>
      <trkpt lat="46.48345" lon="5.42142">
        <ele>490.4</ele>
        <time>2022-06-18T08:48:38Z</time>
      </trkpt>
      <trkpt lat="46.48304" lon="5.4212">
        <ele>490.6</ele>
        <time>2022-06-18T08:48:46Z</time>
      </trkpt>
      <trkpt lat="46.4827" lon="5.42099">
        <ele>491.2</ele>
        <time>2022-06-18T08:48:54Z</time>
      </trkpt>
      <trkpt lat="46.48262" lon="5.42095">
        <ele>491.8</ele>
        <time>2022-06-18T08:48:56Z</time>
      </trkpt>
      <trkpt lat="46.48246" lon="5.42088">
        <ele>493</ele>
        <time>2022-06-18T08:49:00Z</time>
      </trkpt>
      <trkpt lat="46.48242" lon="5.42085">
        <ele>493</ele>
        <time>2022-06-18T08:49:01Z</time>
      </trkpt>
      <trkpt lat="46.48206" lon="5.42065">
        <ele>494</ele>
        <time>2022-06-18T08:49:10Z</time>
      </trkpt>
      <trkpt lat="46.48202" lon="5.42062">
        <ele>494.2</ele>
        <time>2022-06-18T08:49:11Z</time>
      </trkpt>
      <trkpt lat="46.48178" lon="5.42047">
        <ele>495.2</ele>
        <time>2022-06-18T08:49:17Z</time>
      </trkpt>
      <trkpt lat="46.48167" lon="5.42039">
        <ele>496</ele>
        <time>2022-06-18T08:49:20Z</time>
      </trkpt>
      <trkpt lat="46.48164" lon="5.42036">
        <ele>496.2</ele>
        <time>2022-06-18T08:49:21Z</time>
      </trkpt>
      <trkpt lat="46.48148" lon="5.42025">
        <ele>497.4</ele>
        <time>2022-06-18T08:49:25Z</time>
      </trkpt>
      <trkpt lat="46.48135" lon="5.42012">
        <ele>497.6</ele>
        <time>2022-06-18T08:49:29Z</time>
      </trkpt>
      <trkpt lat="46.48112" lon="5.41993">
        <ele>498.2</ele>
        <time>2022-06-18T08:49:35Z</time>
      </trkpt>
      <trkpt lat="46.48108" lon="5.41991">
        <ele>498.6</ele>
        <time>2022-06-18T08:49:36Z</time>
      </trkpt>
      <trkpt lat="46.48104" lon="5.4199">
        <ele>498.8</ele>
        <time>2022-06-18T08:49:37Z</time>
      </trkpt>
      <trkpt lat="46.48092" lon="5.41989">
        <ele>499</ele>
        <time>2022-06-18T08:49:40Z</time>
      </trkpt>
      <trkpt lat="46.48078" lon="5.41992">
        <ele>499.2</ele>
        <time>2022-06-18T08:49:43Z</time>
      </trkpt>
      <trkpt lat="46.48049" lon="5.41997">
        <ele>499.6</ele>
        <time>2022-06-18T08:49:49Z</time>
      </trkpt>
      <trkpt lat="46.48045" lon="5.41997">
        <ele>499.6</ele>
        <time>2022-06-18T08:49:50Z</time>
      </trkpt>
      <trkpt lat="46.48035" lon="5.41994">
        <ele>499.8</ele>
        <time>2022-06-18T08:49:52Z</time>
      </trkpt>
      <trkpt lat="46.48014" lon="5.41977">
        <ele>499.8</ele>
        <time>2022-06-18T08:49:57Z</time>
      </trkpt>
      <trkpt lat="46.4801" lon="5.41973">
        <ele>499.8</ele>
        <time>2022-06-18T08:49:58Z</time>
      </trkpt>
      <trkpt lat="46.48006" lon="5.41969">
        <ele>500</ele>
        <time>2022-06-18T08:49:59Z</time>
      </trkpt>
      <trkpt lat="46.47994" lon="5.41953">
        <ele>500.2</ele>
        <time>2022-06-18T08:50:02Z</time>
      </trkpt>
      <trkpt lat="46.47967" lon="5.41913">
        <ele>500</ele>
        <time>2022-06-18T08:50:08Z</time>
      </trkpt>
      <trkpt lat="46.47943" lon="5.41894">
        <ele>499.8</ele>
        <time>2022-06-18T08:50:12Z</time>
      </trkpt>
      <trkpt lat="46.47937" lon="5.41891">
        <ele>499.8</ele>
        <time>2022-06-18T08:50:13Z</time>
      </trkpt>
      <trkpt lat="46.47911" lon="5.41882">
        <ele>499</ele>
        <time>2022-06-18T08:50:17Z</time>
      </trkpt>
      <trkpt lat="46.47905" lon="5.4188">
        <ele>499</ele>
        <time>2022-06-18T08:50:18Z</time>
      </trkpt>
      <trkpt lat="46.47899" lon="5.41879">
        <ele>498.6</ele>
        <time>2022-06-18T08:50:19Z</time>
      </trkpt>
      <trkpt lat="46.47869" lon="5.4187">
        <ele>498</ele>
        <time>2022-06-18T08:50:24Z</time>
      </trkpt>
      <trkpt lat="46.47827" lon="5.41855">
        <ele>499.2</ele>
        <time>2022-06-18T08:50:31Z</time>
      </trkpt>
      <trkpt lat="46.47785" lon="5.41841">
        <ele>499.4</ele>
        <time>2022-06-18T08:50:38Z</time>
      </trkpt>
      <trkpt lat="46.47732" lon="5.41824">
        <ele>499.2</ele>
        <time>2022-06-18T08:50:47Z</time>
      </trkpt>
      <trkpt lat="46.47726" lon="5.41822">
        <ele>499.2</ele>
        <time>2022-06-18T08:50:48Z</time>
      </trkpt>
      <trkpt lat="46.47714" lon="5.41817">
        <ele>499</ele>
        <time>2022-06-18T08:50:50Z</time>
      </trkpt>
      <trkpt lat="46.47683" lon="5.41808">
        <ele>499.2</ele>
        <time>2022-06-18T08:50:55Z</time>
      </trkpt>
      <trkpt lat="46.47658" lon="5.41799">
        <ele>498.8</ele>
        <time>2022-06-18T08:50:59Z</time>
      </trkpt>
      <trkpt lat="46.47639" lon="5.41791">
        <ele>498.8</ele>
        <time>2022-06-18T08:51:02Z</time>
      </trkpt>
      <trkpt lat="46.47604" lon="5.4177">
        <ele>498.6</ele>
        <time>2022-06-18T08:51:08Z</time>
      </trkpt>
      <trkpt lat="46.47599" lon="5.41764">
        <ele>498.2</ele>
        <time>2022-06-18T08:51:09Z</time>
      </trkpt>
      <trkpt lat="46.47587" lon="5.41745">
        <ele>498.6</ele>
        <time>2022-06-18T08:51:12Z</time>
      </trkpt>
      <trkpt lat="46.47578" lon="5.41732">
        <ele>499</ele>
        <time>2022-06-18T08:51:14Z</time>
      </trkpt>
      <trkpt lat="46.47558" lon="5.41712">
        <ele>499.4</ele>
        <time>2022-06-18T08:51:19Z</time>
      </trkpt>
      <trkpt lat="46.47539" lon="5.41699">
        <ele>500</ele>
        <time>2022-06-18T08:51:23Z</time>
      </trkpt>
      <trkpt lat="46.47524" lon="5.41688">
        <ele>501</ele>
        <time>2022-06-18T08:51:27Z</time>
      </trkpt>
      <trkpt lat="46.47508" lon="5.41678">
        <ele>502.2</ele>
        <time>2022-06-18T08:51:31Z</time>
      </trkpt>
      <trkpt lat="46.47499" lon="5.41672">
        <ele>502.4</ele>
        <time>2022-06-18T08:51:33Z</time>
      </trkpt>
      <trkpt lat="46.47487" lon="5.41662">
        <ele>503.2</ele>
        <time>2022-06-18T08:51:36Z</time>
      </trkpt>
      <trkpt lat="46.47476" lon="5.41651">
        <ele>504.2</ele>
        <time>2022-06-18T08:51:39Z</time>
      </trkpt>
      <trkpt lat="46.47468" lon="5.41644">
        <ele>504.6</ele>
        <time>2022-06-18T08:51:41Z</time>
      </trkpt>
      <trkpt lat="46.47443" lon="5.41627">
        <ele>505.4</ele>
        <time>2022-06-18T08:51:47Z</time>
      </trkpt>
      <trkpt lat="46.47437" lon="5.41622">
        <ele>505.8</ele>
        <time>2022-06-18T08:51:49Z</time>
      </trkpt>
      <trkpt lat="46.47426" lon="5.41615">
        <ele>506</ele>
        <time>2022-06-18T08:51:52Z</time>
      </trkpt>
      <trkpt lat="46.47418" lon="5.4161">
        <ele>506.6</ele>
        <time>2022-06-18T08:51:54Z</time>
      </trkpt>
      <trkpt lat="46.47414" lon="5.41608">
        <ele>506.6</ele>
        <time>2022-06-18T08:51:55Z</time>
      </trkpt>
      <trkpt lat="46.4738" lon="5.41589">
        <ele>507.6</ele>
        <time>2022-06-18T08:52:03Z</time>
      </trkpt>
      <trkpt lat="46.47376" lon="5.41587">
        <ele>507.8</ele>
        <time>2022-06-18T08:52:04Z</time>
      </trkpt>
      <trkpt lat="46.47345" lon="5.4157">
        <ele>508.8</ele>
        <time>2022-06-18T08:52:12Z</time>
      </trkpt>
      <trkpt lat="46.47341" lon="5.41567">
        <ele>509</ele>
        <time>2022-06-18T08:52:13Z</time>
      </trkpt>
      <trkpt lat="46.47331" lon="5.41558">
        <ele>509.8</ele>
        <time>2022-06-18T08:52:16Z</time>
      </trkpt>
      <trkpt lat="46.47316" lon="5.41542">
        <ele>511</ele>
        <time>2022-06-18T08:52:21Z</time>
      </trkpt>
      <trkpt lat="46.47313" lon="5.41539">
        <ele>511.4</ele>
        <time>2022-06-18T08:52:22Z</time>
      </trkpt>
      <trkpt lat="46.47302" lon="5.41525">
        <ele>512.2</ele>
        <time>2022-06-18T08:52:26Z</time>
      </trkpt>
      <trkpt lat="46.47293" lon="5.41512">
        <ele>513.4</ele>
        <time>2022-06-18T08:52:30Z</time>
      </trkpt>
      <trkpt lat="46.47282" lon="5.41495">
        <ele>514.6</ele>
        <time>2022-06-18T08:52:35Z</time>
      </trkpt>
      <trkpt lat="46.4728" lon="5.41491">
        <ele>514.8</ele>
        <time>2022-06-18T08:52:36Z</time>
      </trkpt>
      <trkpt lat="46.47272" lon="5.41479">
        <ele>515.4</ele>
        <time>2022-06-18T08:52:39Z</time>
      </trkpt>
      <trkpt lat="46.4727" lon="5.41476">
        <ele>515.6</ele>
        <time>2022-06-18T08:52:40Z</time>
      </trkpt>
      <trkpt lat="46.47257" lon="5.41453">
        <ele>516.8</ele>
        <time>2022-06-18T08:52:46Z</time>
      </trkpt>
      <trkpt lat="46.47251" lon="5.41442">
        <ele>517.6</ele>
        <time>2022-06-18T08:52:49Z</time>
      </trkpt>
      <trkpt lat="46.47248" lon="5.41435">
        <ele>518</ele>
        <time>2022-06-18T08:52:51Z</time>
      </trkpt>
      <trkpt lat="46.47233" lon="5.41409">
        <ele>519</ele>
        <time>2022-06-18T08:52:58Z</time>
      </trkpt>
      <trkpt lat="46.4723" lon="5.41404">
        <ele>519.4</ele>
        <time>2022-06-18T08:53:00Z</time>
      </trkpt>
      <trkpt lat="46.47225" lon="5.41394">
        <ele>520.2</ele>
        <time>2022-06-18T08:53:03Z</time>
      </trkpt>
      <trkpt lat="46.47216" lon="5.41381">
        <ele>521.2</ele>
        <time>2022-06-18T08:53:07Z</time>
      </trkpt>
      <trkpt lat="46.47214" lon="5.41377">
        <ele>521.4</ele>
        <time>2022-06-18T08:53:08Z</time>
      </trkpt>
      <trkpt lat="46.47201" lon="5.41357">
        <ele>522.8</ele>
        <time>2022-06-18T08:53:13Z</time>
      </trkpt>
      <trkpt lat="46.47184" lon="5.41317">
        <ele>523.4</ele>
        <time>2022-06-18T08:53:20Z</time>
      </trkpt>
      <trkpt lat="46.47174" lon="5.41279">
        <ele>523.8</ele>
        <time>2022-06-18T08:53:26Z</time>
      </trkpt>
      <trkpt lat="46.47169" lon="5.41258">
        <ele>523.8</ele>
        <time>2022-06-18T08:53:29Z</time>
      </trkpt>
      <trkpt lat="46.47161" lon="5.41205">
        <ele>524.2</ele>
        <time>2022-06-18T08:53:35Z</time>
      </trkpt>
      <trkpt lat="46.47148" lon="5.41159">
        <ele>524</ele>
        <time>2022-06-18T08:53:40Z</time>
      </trkpt>
      <trkpt lat="46.47118" lon="5.41097">
        <ele>523</ele>
        <time>2022-06-18T08:53:47Z</time>
      </trkpt>
      <trkpt lat="46.47103" lon="5.41073">
        <ele>522.6</ele>
        <time>2022-06-18T08:53:50Z</time>
      </trkpt>
      <trkpt lat="46.47086" lon="5.41053">
        <ele>522.6</ele>
        <time>2022-06-18T08:53:53Z</time>
      </trkpt>
      <trkpt lat="46.47056" lon="5.41024">
        <ele>523.4</ele>
        <time>2022-06-18T08:53:59Z</time>
      </trkpt>
      <trkpt lat="46.4705" lon="5.41019">
        <ele>523.8</ele>
        <time>2022-06-18T08:54:00Z</time>
      </trkpt>
      <trkpt lat="46.47034" lon="5.41002">
        <ele>524.8</ele>
        <time>2022-06-18T08:54:03Z</time>
      </trkpt>
      <trkpt lat="46.47023" lon="5.4099">
        <ele>525.4</ele>
        <time>2022-06-18T08:54:05Z</time>
      </trkpt>
      <trkpt lat="46.47013" lon="5.40977">
        <ele>525.8</ele>
        <time>2022-06-18T08:54:07Z</time>
      </trkpt>
      <trkpt lat="46.46997" lon="5.40949">
        <ele>526.6</ele>
        <time>2022-06-18T08:54:11Z</time>
      </trkpt>
      <trkpt lat="46.46992" lon="5.40934">
        <ele>526.8</ele>
        <time>2022-06-18T08:54:13Z</time>
      </trkpt>
      <trkpt lat="46.4699" lon="5.40927">
        <ele>527</ele>
        <time>2022-06-18T08:54:14Z</time>
      </trkpt>
      <trkpt lat="46.46986" lon="5.40912">
        <ele>527.8</ele>
        <time>2022-06-18T08:54:16Z</time>
      </trkpt>
      <trkpt lat="46.46985" lon="5.40904">
        <ele>528.4</ele>
        <time>2022-06-18T08:54:17Z</time>
      </trkpt>
      <trkpt lat="46.4698" lon="5.40864">
        <ele>529.6</ele>
        <time>2022-06-18T08:54:22Z</time>
      </trkpt>
      <trkpt lat="46.46976" lon="5.40839">
        <ele>530</ele>
        <time>2022-06-18T08:54:25Z</time>
      </trkpt>
      <trkpt lat="46.46969" lon="5.40797">
        <ele>530.6</ele>
        <time>2022-06-18T08:54:30Z</time>
      </trkpt>
      <trkpt lat="46.46967" lon="5.40778">
        <ele>530.8</ele>
        <time>2022-06-18T08:54:32Z</time>
      </trkpt>
      <trkpt lat="46.4696" lon="5.40723">
        <ele>530.6</ele>
        <time>2022-06-18T08:54:37Z</time>
      </trkpt>
      <trkpt lat="46.46953" lon="5.40671">
        <ele>529.2</ele>
        <time>2022-06-18T08:54:41Z</time>
      </trkpt>
      <trkpt lat="46.46948" lon="5.40632">
        <ele>528</ele>
        <time>2022-06-18T08:54:44Z</time>
      </trkpt>
      <trkpt lat="46.46944" lon="5.40596">
        <ele>526.6</ele>
        <time>2022-06-18T08:54:47Z</time>
      </trkpt>
      <trkpt lat="46.46941" lon="5.40559">
        <ele>525.6</ele>
        <time>2022-06-18T08:54:50Z</time>
      </trkpt>
      <trkpt lat="46.4694" lon="5.40547">
        <ele>525.2</ele>
        <time>2022-06-18T08:54:51Z</time>
      </trkpt>
      <trkpt lat="46.46932" lon="5.40477">
        <ele>524.2</ele>
        <time>2022-06-18T08:54:57Z</time>
      </trkpt>
      <trkpt lat="46.46931" lon="5.40468">
        <ele>524.2</ele>
        <time>2022-06-18T08:54:58Z</time>
      </trkpt>
      <trkpt lat="46.46921" lon="5.40395">
        <ele>523</ele>
        <time>2022-06-18T08:55:04Z</time>
      </trkpt>
      <trkpt lat="46.46917" lon="5.40333">
        <ele>521.8</ele>
        <time>2022-06-18T08:55:09Z</time>
      </trkpt>
      <trkpt lat="46.46914" lon="5.4031">
        <ele>521.4</ele>
        <time>2022-06-18T08:55:11Z</time>
      </trkpt>
      <trkpt lat="46.46914" lon="5.403">
        <ele>521.4</ele>
        <time>2022-06-18T08:55:12Z</time>
      </trkpt>
      <trkpt lat="46.46918" lon="5.40285">
        <ele>521.4</ele>
        <time>2022-06-18T08:55:14Z</time>
      </trkpt>
      <trkpt lat="46.46926" lon="5.40283">
        <ele>521.2</ele>
        <time>2022-06-18T08:55:16Z</time>
      </trkpt>
      <trkpt lat="46.46949" lon="5.40297">
        <ele>521.2</ele>
        <time>2022-06-18T08:55:20Z</time>
      </trkpt>
      <trkpt lat="46.4698" lon="5.40309">
        <ele>522.2</ele>
        <time>2022-06-18T08:55:25Z</time>
      </trkpt>
      <trkpt lat="46.4701" lon="5.40319">
        <ele>522.6</ele>
        <time>2022-06-18T08:55:29Z</time>
      </trkpt>
      <trkpt lat="46.47017" lon="5.40319">
        <ele>523</ele>
        <time>2022-06-18T08:55:30Z</time>
      </trkpt>
      <trkpt lat="46.47024" lon="5.4032">
        <ele>523</ele>
        <time>2022-06-18T08:55:31Z</time>
      </trkpt>
      <trkpt lat="46.47039" lon="5.40322">
        <ele>523.2</ele>
        <time>2022-06-18T08:55:33Z</time>
      </trkpt>
      <trkpt lat="46.47065" lon="5.40326">
        <ele>523.6</ele>
        <time>2022-06-18T08:55:36Z</time>
      </trkpt>
      <trkpt lat="46.47109" lon="5.40328">
        <ele>523.4</ele>
        <time>2022-06-18T08:55:41Z</time>
      </trkpt>
      <trkpt lat="46.47147" lon="5.40336">
        <ele>522</ele>
        <time>2022-06-18T08:55:45Z</time>
      </trkpt>
      <trkpt lat="46.47158" lon="5.40339">
        <ele>521</ele>
        <time>2022-06-18T08:55:46Z</time>
      </trkpt>
      <trkpt lat="46.47178" lon="5.40346">
        <ele>520.2</ele>
        <time>2022-06-18T08:55:48Z</time>
      </trkpt>
      <trkpt lat="46.47187" lon="5.40352">
        <ele>520</ele>
        <time>2022-06-18T08:55:49Z</time>
      </trkpt>
      <trkpt lat="46.47196" lon="5.4036">
        <ele>519.6</ele>
        <time>2022-06-18T08:55:50Z</time>
      </trkpt>
      <trkpt lat="46.47218" lon="5.40387">
        <ele>518.6</ele>
        <time>2022-06-18T08:55:53Z</time>
      </trkpt>
      <trkpt lat="46.47227" lon="5.40398">
        <ele>518.2</ele>
        <time>2022-06-18T08:55:54Z</time>
      </trkpt>
      <trkpt lat="46.47238" lon="5.40409">
        <ele>517.6</ele>
        <time>2022-06-18T08:55:55Z</time>
      </trkpt>
      <trkpt lat="46.47249" lon="5.40416">
        <ele>517.4</ele>
        <time>2022-06-18T08:55:56Z</time>
      </trkpt>
      <trkpt lat="46.47261" lon="5.40423">
        <ele>516.8</ele>
        <time>2022-06-18T08:55:57Z</time>
      </trkpt>
      <trkpt lat="46.47272" lon="5.40429">
        <ele>516.4</ele>
        <time>2022-06-18T08:55:58Z</time>
      </trkpt>
      <trkpt lat="46.47283" lon="5.40435">
        <ele>515.4</ele>
        <time>2022-06-18T08:55:59Z</time>
      </trkpt>
      <trkpt lat="46.47295" lon="5.4044">
        <ele>514.6</ele>
        <time>2022-06-18T08:56:00Z</time>
      </trkpt>
      <trkpt lat="46.47306" lon="5.40443">
        <ele>514.2</ele>
        <time>2022-06-18T08:56:01Z</time>
      </trkpt>
      <trkpt lat="46.47328" lon="5.40447">
        <ele>513</ele>
        <time>2022-06-18T08:56:03Z</time>
      </trkpt>
      <trkpt lat="46.4735" lon="5.40449">
        <ele>511.4</ele>
        <time>2022-06-18T08:56:05Z</time>
      </trkpt>
      <trkpt lat="46.47361" lon="5.40449">
        <ele>510</ele>
        <time>2022-06-18T08:56:06Z</time>
      </trkpt>
      <trkpt lat="46.47396" lon="5.4045">
        <ele>508.8</ele>
        <time>2022-06-18T08:56:09Z</time>
      </trkpt>
      <trkpt lat="46.47408" lon="5.40449">
        <ele>508.4</ele>
        <time>2022-06-18T08:56:10Z</time>
      </trkpt>
      <trkpt lat="46.4742" lon="5.40448">
        <ele>507.6</ele>
        <time>2022-06-18T08:56:11Z</time>
      </trkpt>
      <trkpt lat="46.47432" lon="5.40448">
        <ele>507.4</ele>
        <time>2022-06-18T08:56:12Z</time>
      </trkpt>
      <trkpt lat="46.47454" lon="5.40449">
        <ele>506.2</ele>
        <time>2022-06-18T08:56:14Z</time>
      </trkpt>
      <trkpt lat="46.47482" lon="5.40457">
        <ele>505.4</ele>
        <time>2022-06-18T08:56:17Z</time>
      </trkpt>
      <trkpt lat="46.47491" lon="5.40462">
        <ele>504.6</ele>
        <time>2022-06-18T08:56:18Z</time>
      </trkpt>
      <trkpt lat="46.47499" lon="5.40469">
        <ele>504.2</ele>
        <time>2022-06-18T08:56:19Z</time>
      </trkpt>
      <trkpt lat="46.47505" lon="5.40478">
        <ele>503.6</ele>
        <time>2022-06-18T08:56:20Z</time>
      </trkpt>
      <trkpt lat="46.47512" lon="5.40485">
        <ele>502.6</ele>
        <time>2022-06-18T08:56:21Z</time>
      </trkpt>
      <trkpt lat="46.47517" lon="5.40487">
        <ele>502.2</ele>
        <time>2022-06-18T08:56:22Z</time>
      </trkpt>
      <trkpt lat="46.47523" lon="5.40485">
        <ele>501.8</ele>
        <time>2022-06-18T08:56:23Z</time>
      </trkpt>
      <trkpt lat="46.47537" lon="5.4047">
        <ele>500.8</ele>
        <time>2022-06-18T08:56:25Z</time>
      </trkpt>
      <trkpt lat="46.47543" lon="5.4046">
        <ele>500.6</ele>
        <time>2022-06-18T08:56:26Z</time>
      </trkpt>
      <trkpt lat="46.47545" lon="5.40448">
        <ele>499.4</ele>
        <time>2022-06-18T08:56:27Z</time>
      </trkpt>
      <trkpt lat="46.47544" lon="5.40435">
        <ele>498.4</ele>
        <time>2022-06-18T08:56:28Z</time>
      </trkpt>
      <trkpt lat="46.47541" lon="5.40422">
        <ele>498.2</ele>
        <time>2022-06-18T08:56:29Z</time>
      </trkpt>
      <trkpt lat="46.47532" lon="5.40395">
        <ele>497</ele>
        <time>2022-06-18T08:56:31Z</time>
      </trkpt>
      <trkpt lat="46.47526" lon="5.40363">
        <ele>496</ele>
        <time>2022-06-18T08:56:33Z</time>
      </trkpt>
      <trkpt lat="46.47525" lon="5.40346">
        <ele>495.2</ele>
        <time>2022-06-18T08:56:34Z</time>
      </trkpt>
      <trkpt lat="46.47528" lon="5.40331">
        <ele>494.8</ele>
        <time>2022-06-18T08:56:35Z</time>
      </trkpt>
      <trkpt lat="46.47533" lon="5.40317">
        <ele>494.4</ele>
        <time>2022-06-18T08:56:36Z</time>
      </trkpt>
      <trkpt lat="46.47539" lon="5.40303">
        <ele>493.6</ele>
        <time>2022-06-18T08:56:37Z</time>
      </trkpt>
      <trkpt lat="46.47562" lon="5.4028">
        <ele>492.2</ele>
        <time>2022-06-18T08:56:39Z</time>
      </trkpt>
      <trkpt lat="46.4758" lon="5.40263">
        <ele>491.4</ele>
        <time>2022-06-18T08:56:41Z</time>
      </trkpt>
      <trkpt lat="46.47588" lon="5.40257">
        <ele>490.6</ele>
        <time>2022-06-18T08:56:42Z</time>
      </trkpt>
      <trkpt lat="46.47597" lon="5.40254">
        <ele>490.4</ele>
        <time>2022-06-18T08:56:43Z</time>
      </trkpt>
      <trkpt lat="46.47608" lon="5.40252">
        <ele>489.6</ele>
        <time>2022-06-18T08:56:44Z</time>
      </trkpt>
      <trkpt lat="46.47634" lon="5.40248">
        <ele>488.4</ele>
        <time>2022-06-18T08:56:46Z</time>
      </trkpt>
      <trkpt lat="46.47644" lon="5.40247">
        <ele>488</ele>
        <time>2022-06-18T08:56:47Z</time>
      </trkpt>
      <trkpt lat="46.47654" lon="5.40246">
        <ele>487</ele>
        <time>2022-06-18T08:56:48Z</time>
      </trkpt>
      <trkpt lat="46.47665" lon="5.40246">
        <ele>486.4</ele>
        <time>2022-06-18T08:56:49Z</time>
      </trkpt>
      <trkpt lat="46.47675" lon="5.40247">
        <ele>485.8</ele>
        <time>2022-06-18T08:56:50Z</time>
      </trkpt>
      <trkpt lat="46.47685" lon="5.40246">
        <ele>485.2</ele>
        <time>2022-06-18T08:56:51Z</time>
      </trkpt>
      <trkpt lat="46.47706" lon="5.40237">
        <ele>484</ele>
        <time>2022-06-18T08:56:53Z</time>
      </trkpt>
      <trkpt lat="46.47715" lon="5.4023">
        <ele>483.8</ele>
        <time>2022-06-18T08:56:54Z</time>
      </trkpt>
      <trkpt lat="46.4773" lon="5.40212">
        <ele>483</ele>
        <time>2022-06-18T08:56:56Z</time>
      </trkpt>
      <trkpt lat="46.47733" lon="5.40198">
        <ele>482.6</ele>
        <time>2022-06-18T08:56:57Z</time>
      </trkpt>
      <trkpt lat="46.47738" lon="5.40186">
        <ele>482.2</ele>
        <time>2022-06-18T08:56:58Z</time>
      </trkpt>
      <trkpt lat="46.47752" lon="5.40165">
        <ele>481.8</ele>
        <time>2022-06-18T08:57:00Z</time>
      </trkpt>
      <trkpt lat="46.47759" lon="5.40152">
        <ele>481.6</ele>
        <time>2022-06-18T08:57:01Z</time>
      </trkpt>
      <trkpt lat="46.47768" lon="5.40123">
        <ele>481.4</ele>
        <time>2022-06-18T08:57:03Z</time>
      </trkpt>
      <trkpt lat="46.4777" lon="5.40089">
        <ele>480</ele>
        <time>2022-06-18T08:57:05Z</time>
      </trkpt>
      <trkpt lat="46.47769" lon="5.40073">
        <ele>479.8</ele>
        <time>2022-06-18T08:57:06Z</time>
      </trkpt>
      <trkpt lat="46.47768" lon="5.40061">
        <ele>479</ele>
        <time>2022-06-18T08:57:07Z</time>
      </trkpt>
      <trkpt lat="46.47768" lon="5.40049">
        <ele>478.2</ele>
        <time>2022-06-18T08:57:08Z</time>
      </trkpt>
      <trkpt lat="46.47768" lon="5.40038">
        <ele>477.2</ele>
        <time>2022-06-18T08:57:09Z</time>
      </trkpt>
      <trkpt lat="46.47769" lon="5.40027">
        <ele>476.8</ele>
        <time>2022-06-18T08:57:10Z</time>
      </trkpt>
      <trkpt lat="46.47777" lon="5.4001">
        <ele>476</ele>
        <time>2022-06-18T08:57:12Z</time>
      </trkpt>
      <trkpt lat="46.4779" lon="5.39997">
        <ele>475.4</ele>
        <time>2022-06-18T08:57:14Z</time>
      </trkpt>
      <trkpt lat="46.47808" lon="5.39985">
        <ele>475</ele>
        <time>2022-06-18T08:57:16Z</time>
      </trkpt>
      <trkpt lat="46.4784" lon="5.39967">
        <ele>473</ele>
        <time>2022-06-18T08:57:19Z</time>
      </trkpt>
      <trkpt lat="46.47854" lon="5.39961">
        <ele>472.6</ele>
        <time>2022-06-18T08:57:20Z</time>
      </trkpt>
      <trkpt lat="46.47868" lon="5.39955">
        <ele>471.6</ele>
        <time>2022-06-18T08:57:21Z</time>
      </trkpt>
      <trkpt lat="46.47893" lon="5.39944">
        <ele>469.2</ele>
        <time>2022-06-18T08:57:23Z</time>
      </trkpt>
      <trkpt lat="46.47919" lon="5.39929">
        <ele>467.6</ele>
        <time>2022-06-18T08:57:25Z</time>
      </trkpt>
      <trkpt lat="46.47953" lon="5.3991">
        <ele>466.2</ele>
        <time>2022-06-18T08:57:28Z</time>
      </trkpt>
      <trkpt lat="46.47977" lon="5.39898">
        <ele>464.4</ele>
        <time>2022-06-18T08:57:30Z</time>
      </trkpt>
      <trkpt lat="46.48" lon="5.39889">
        <ele>463.2</ele>
        <time>2022-06-18T08:57:32Z</time>
      </trkpt>
      <trkpt lat="46.48011" lon="5.39885">
        <ele>463</ele>
        <time>2022-06-18T08:57:33Z</time>
      </trkpt>
      <trkpt lat="46.48032" lon="5.39887">
        <ele>462.4</ele>
        <time>2022-06-18T08:57:35Z</time>
      </trkpt>
      <trkpt lat="46.48051" lon="5.39897">
        <ele>462.2</ele>
        <time>2022-06-18T08:57:37Z</time>
      </trkpt>
      <trkpt lat="46.48061" lon="5.39903">
        <ele>462</ele>
        <time>2022-06-18T08:57:38Z</time>
      </trkpt>
      <trkpt lat="46.48073" lon="5.39908">
        <ele>462</ele>
        <time>2022-06-18T08:57:39Z</time>
      </trkpt>
      <trkpt lat="46.48093" lon="5.39911">
        <ele>462.2</ele>
        <time>2022-06-18T08:57:41Z</time>
      </trkpt>
      <trkpt lat="46.48122" lon="5.39908">
        <ele>462.2</ele>
        <time>2022-06-18T08:57:44Z</time>
      </trkpt>
      <trkpt lat="46.48132" lon="5.39905">
        <ele>462.2</ele>
        <time>2022-06-18T08:57:45Z</time>
      </trkpt>
      <trkpt lat="46.48179" lon="5.39882">
        <ele>462.8</ele>
        <time>2022-06-18T08:57:50Z</time>
      </trkpt>
      <trkpt lat="46.48188" lon="5.39875">
        <ele>462.8</ele>
        <time>2022-06-18T08:57:51Z</time>
      </trkpt>
      <trkpt lat="46.48203" lon="5.39857">
        <ele>462.8</ele>
        <time>2022-06-18T08:57:53Z</time>
      </trkpt>
      <trkpt lat="46.48203" lon="5.39829">
        <ele>462.8</ele>
        <time>2022-06-18T08:57:55Z</time>
      </trkpt>
      <trkpt lat="46.48187" lon="5.39747">
        <ele>462.2</ele>
        <time>2022-06-18T08:58:01Z</time>
      </trkpt>
      <trkpt lat="46.48184" lon="5.39724">
        <ele>460.8</ele>
        <time>2022-06-18T08:58:03Z</time>
      </trkpt>
      <trkpt lat="46.48184" lon="5.39698">
        <ele>460.4</ele>
        <time>2022-06-18T08:58:05Z</time>
      </trkpt>
      <trkpt lat="46.48173" lon="5.3967">
        <ele>459.6</ele>
        <time>2022-06-18T08:58:07Z</time>
      </trkpt>
      <trkpt lat="46.48174" lon="5.3965">
        <ele>459.6</ele>
        <time>2022-06-18T08:58:08Z</time>
      </trkpt>
      <trkpt lat="46.4818" lon="5.39623">
        <ele>459</ele>
        <time>2022-06-18T08:58:10Z</time>
      </trkpt>
      <trkpt lat="46.48187" lon="5.39607">
        <ele>458.6</ele>
        <time>2022-06-18T08:58:11Z</time>
      </trkpt>
      <trkpt lat="46.48203" lon="5.39567">
        <ele>457.4</ele>
        <time>2022-06-18T08:58:14Z</time>
      </trkpt>
      <trkpt lat="46.48208" lon="5.39549">
        <ele>457.2</ele>
        <time>2022-06-18T08:58:15Z</time>
      </trkpt>
      <trkpt lat="46.48215" lon="5.39519">
        <ele>455.4</ele>
        <time>2022-06-18T08:58:17Z</time>
      </trkpt>
      <trkpt lat="46.48219" lon="5.39506">
        <ele>454.8</ele>
        <time>2022-06-18T08:58:18Z</time>
      </trkpt>
      <trkpt lat="46.48223" lon="5.39496">
        <ele>453.4</ele>
        <time>2022-06-18T08:58:19Z</time>
      </trkpt>
      <trkpt lat="46.4823" lon="5.39483">
        <ele>452.6</ele>
        <time>2022-06-18T08:58:20Z</time>
      </trkpt>
      <trkpt lat="46.48237" lon="5.39474">
        <ele>451.4</ele>
        <time>2022-06-18T08:58:21Z</time>
      </trkpt>
      <trkpt lat="46.48244" lon="5.39467">
        <ele>451</ele>
        <time>2022-06-18T08:58:22Z</time>
      </trkpt>
      <trkpt lat="46.4825" lon="5.39463">
        <ele>450.4</ele>
        <time>2022-06-18T08:58:23Z</time>
      </trkpt>
      <trkpt lat="46.48259" lon="5.39462">
        <ele>450</ele>
        <time>2022-06-18T08:58:24Z</time>
      </trkpt>
      <trkpt lat="46.48268" lon="5.39463">
        <ele>449.2</ele>
        <time>2022-06-18T08:58:25Z</time>
      </trkpt>
      <trkpt lat="46.48279" lon="5.39465">
        <ele>448</ele>
        <time>2022-06-18T08:58:26Z</time>
      </trkpt>
      <trkpt lat="46.48302" lon="5.39459">
        <ele>445.8</ele>
        <time>2022-06-18T08:58:28Z</time>
      </trkpt>
      <trkpt lat="46.48309" lon="5.39435">
        <ele>444.8</ele>
        <time>2022-06-18T08:58:30Z</time>
      </trkpt>
      <trkpt lat="46.48311" lon="5.39419">
        <ele>444.6</ele>
        <time>2022-06-18T08:58:31Z</time>
      </trkpt>
      <trkpt lat="46.48317" lon="5.39385">
        <ele>444</ele>
        <time>2022-06-18T08:58:33Z</time>
      </trkpt>
      <trkpt lat="46.48322" lon="5.39369">
        <ele>444</ele>
        <time>2022-06-18T08:58:34Z</time>
      </trkpt>
      <trkpt lat="46.48329" lon="5.39356">
        <ele>443</ele>
        <time>2022-06-18T08:58:35Z</time>
      </trkpt>
      <trkpt lat="46.48336" lon="5.39343">
        <ele>442.6</ele>
        <time>2022-06-18T08:58:36Z</time>
      </trkpt>
      <trkpt lat="46.48343" lon="5.39332">
        <ele>441.8</ele>
        <time>2022-06-18T08:58:37Z</time>
      </trkpt>
      <trkpt lat="46.4836" lon="5.39315">
        <ele>439.6</ele>
        <time>2022-06-18T08:58:39Z</time>
      </trkpt>
      <trkpt lat="46.48369" lon="5.39311">
        <ele>438.6</ele>
        <time>2022-06-18T08:58:40Z</time>
      </trkpt>
      <trkpt lat="46.48379" lon="5.39309">
        <ele>437.8</ele>
        <time>2022-06-18T08:58:41Z</time>
      </trkpt>
      <trkpt lat="46.48389" lon="5.3931">
        <ele>436</ele>
        <time>2022-06-18T08:58:42Z</time>
      </trkpt>
      <trkpt lat="46.48413" lon="5.39316">
        <ele>434.2</ele>
        <time>2022-06-18T08:58:44Z</time>
      </trkpt>
      <trkpt lat="46.48426" lon="5.39317">
        <ele>433.8</ele>
        <time>2022-06-18T08:58:45Z</time>
      </trkpt>
      <trkpt lat="46.48439" lon="5.39317">
        <ele>433</ele>
        <time>2022-06-18T08:58:46Z</time>
      </trkpt>
      <trkpt lat="46.48453" lon="5.39315">
        <ele>432</ele>
        <time>2022-06-18T08:58:47Z</time>
      </trkpt>
      <trkpt lat="46.48465" lon="5.39312">
        <ele>431.2</ele>
        <time>2022-06-18T08:58:48Z</time>
      </trkpt>
      <trkpt lat="46.48477" lon="5.39309">
        <ele>430</ele>
        <time>2022-06-18T08:58:49Z</time>
      </trkpt>
      <trkpt lat="46.48503" lon="5.39305">
        <ele>428.8</ele>
        <time>2022-06-18T08:58:51Z</time>
      </trkpt>
      <trkpt lat="46.48529" lon="5.39298">
        <ele>425.8</ele>
        <time>2022-06-18T08:58:53Z</time>
      </trkpt>
      <trkpt lat="46.48541" lon="5.39295">
        <ele>424.2</ele>
        <time>2022-06-18T08:58:54Z</time>
      </trkpt>
      <trkpt lat="46.48567" lon="5.3929">
        <ele>422.4</ele>
        <time>2022-06-18T08:58:56Z</time>
      </trkpt>
      <trkpt lat="46.48595" lon="5.39286">
        <ele>420.6</ele>
        <time>2022-06-18T08:58:58Z</time>
      </trkpt>
      <trkpt lat="46.48622" lon="5.39281">
        <ele>418.4</ele>
        <time>2022-06-18T08:59:00Z</time>
      </trkpt>
      <trkpt lat="46.48635" lon="5.3928">
        <ele>417.4</ele>
        <time>2022-06-18T08:59:01Z</time>
      </trkpt>
      <trkpt lat="46.4866" lon="5.3928">
        <ele>415.8</ele>
        <time>2022-06-18T08:59:03Z</time>
      </trkpt>
      <trkpt lat="46.48672" lon="5.39282">
        <ele>414.6</ele>
        <time>2022-06-18T08:59:04Z</time>
      </trkpt>
      <trkpt lat="46.48682" lon="5.39285">
        <ele>413</ele>
        <time>2022-06-18T08:59:05Z</time>
      </trkpt>
      <trkpt lat="46.48693" lon="5.3929">
        <ele>412.6</ele>
        <time>2022-06-18T08:59:06Z</time>
      </trkpt>
      <trkpt lat="46.48702" lon="5.39296">
        <ele>411.6</ele>
        <time>2022-06-18T08:59:07Z</time>
      </trkpt>
      <trkpt lat="46.4872" lon="5.39306">
        <ele>409.8</ele>
        <time>2022-06-18T08:59:09Z</time>
      </trkpt>
      <trkpt lat="46.48727" lon="5.39307">
        <ele>409</ele>
        <time>2022-06-18T08:59:10Z</time>
      </trkpt>
      <trkpt lat="46.48734" lon="5.39304">
        <ele>408.6</ele>
        <time>2022-06-18T08:59:11Z</time>
      </trkpt>
      <trkpt lat="46.48739" lon="5.39299">
        <ele>407.8</ele>
        <time>2022-06-18T08:59:12Z</time>
      </trkpt>
      <trkpt lat="46.48731" lon="5.39279">
        <ele>407.4</ele>
        <time>2022-06-18T08:59:14Z</time>
      </trkpt>
      <trkpt lat="46.48723" lon="5.39268">
        <ele>407.2</ele>
        <time>2022-06-18T08:59:15Z</time>
      </trkpt>
      <trkpt lat="46.48706" lon="5.39245">
        <ele>405.4</ele>
        <time>2022-06-18T08:59:17Z</time>
      </trkpt>
      <trkpt lat="46.48682" lon="5.39208">
        <ele>403.6</ele>
        <time>2022-06-18T08:59:20Z</time>
      </trkpt>
      <trkpt lat="46.48674" lon="5.39196">
        <ele>401.6</ele>
        <time>2022-06-18T08:59:21Z</time>
      </trkpt>
      <trkpt lat="46.48665" lon="5.39184">
        <ele>400.2</ele>
        <time>2022-06-18T08:59:22Z</time>
      </trkpt>
      <trkpt lat="46.48657" lon="5.39171">
        <ele>398.4</ele>
        <time>2022-06-18T08:59:23Z</time>
      </trkpt>
      <trkpt lat="46.48648" lon="5.39158">
        <ele>397.6</ele>
        <time>2022-06-18T08:59:24Z</time>
      </trkpt>
      <trkpt lat="46.48629" lon="5.39136">
        <ele>395.8</ele>
        <time>2022-06-18T08:59:26Z</time>
      </trkpt>
      <trkpt lat="46.48618" lon="5.39127">
        <ele>395.2</ele>
        <time>2022-06-18T08:59:27Z</time>
      </trkpt>
      <trkpt lat="46.48607" lon="5.39118">
        <ele>394</ele>
        <time>2022-06-18T08:59:28Z</time>
      </trkpt>
      <trkpt lat="46.48584" lon="5.391">
        <ele>391.6</ele>
        <time>2022-06-18T08:59:30Z</time>
      </trkpt>
      <trkpt lat="46.48573" lon="5.39092">
        <ele>390.2</ele>
        <time>2022-06-18T08:59:31Z</time>
      </trkpt>
      <trkpt lat="46.48561" lon="5.39084">
        <ele>389.2</ele>
        <time>2022-06-18T08:59:32Z</time>
      </trkpt>
      <trkpt lat="46.48549" lon="5.39077">
        <ele>387.6</ele>
        <time>2022-06-18T08:59:33Z</time>
      </trkpt>
      <trkpt lat="46.48526" lon="5.39063">
        <ele>385.8</ele>
        <time>2022-06-18T08:59:35Z</time>
      </trkpt>
      <trkpt lat="46.48507" lon="5.39042">
        <ele>383.6</ele>
        <time>2022-06-18T08:59:37Z</time>
      </trkpt>
      <trkpt lat="46.485" lon="5.39028">
        <ele>382</ele>
        <time>2022-06-18T08:59:38Z</time>
      </trkpt>
      <trkpt lat="46.48495" lon="5.39012">
        <ele>381.6</ele>
        <time>2022-06-18T08:59:39Z</time>
      </trkpt>
      <trkpt lat="46.48491" lon="5.38995">
        <ele>380.8</ele>
        <time>2022-06-18T08:59:40Z</time>
      </trkpt>
      <trkpt lat="46.48481" lon="5.38963">
        <ele>379.6</ele>
        <time>2022-06-18T08:59:42Z</time>
      </trkpt>
      <trkpt lat="46.48474" lon="5.38948">
        <ele>379.4</ele>
        <time>2022-06-18T08:59:43Z</time>
      </trkpt>
      <trkpt lat="46.48467" lon="5.38935">
        <ele>378.2</ele>
        <time>2022-06-18T08:59:44Z</time>
      </trkpt>
      <trkpt lat="46.48454" lon="5.38906">
        <ele>377</ele>
        <time>2022-06-18T08:59:46Z</time>
      </trkpt>
      <trkpt lat="46.48451" lon="5.38892">
        <ele>375.4</ele>
        <time>2022-06-18T08:59:47Z</time>
      </trkpt>
      <trkpt lat="46.48451" lon="5.38877">
        <ele>374.8</ele>
        <time>2022-06-18T08:59:48Z</time>
      </trkpt>
      <trkpt lat="46.48455" lon="5.38863">
        <ele>373.8</ele>
        <time>2022-06-18T08:59:49Z</time>
      </trkpt>
      <trkpt lat="46.48462" lon="5.38852">
        <ele>373.4</ele>
        <time>2022-06-18T08:59:50Z</time>
      </trkpt>
      <trkpt lat="46.4847" lon="5.38843">
        <ele>372.2</ele>
        <time>2022-06-18T08:59:51Z</time>
      </trkpt>
      <trkpt lat="46.48489" lon="5.3883">
        <ele>371.2</ele>
        <time>2022-06-18T08:59:53Z</time>
      </trkpt>
      <trkpt lat="46.4851" lon="5.38817">
        <ele>370.6</ele>
        <time>2022-06-18T08:59:55Z</time>
      </trkpt>
      <trkpt lat="46.48532" lon="5.38803">
        <ele>370</ele>
        <time>2022-06-18T08:59:57Z</time>
      </trkpt>
      <trkpt lat="46.48552" lon="5.38789">
        <ele>368.4</ele>
        <time>2022-06-18T08:59:59Z</time>
      </trkpt>
      <trkpt lat="46.48561" lon="5.38783">
        <ele>367.6</ele>
        <time>2022-06-18T09:00:00Z</time>
      </trkpt>
      <trkpt lat="46.4857" lon="5.38777">
        <ele>366.8</ele>
        <time>2022-06-18T09:00:01Z</time>
      </trkpt>
      <trkpt lat="46.48578" lon="5.38773">
        <ele>366.4</ele>
        <time>2022-06-18T09:00:02Z</time>
      </trkpt>
      <trkpt lat="46.48588" lon="5.38775">
        <ele>365</ele>
        <time>2022-06-18T09:00:03Z</time>
      </trkpt>
      <trkpt lat="46.48604" lon="5.3878">
        <ele>363.2</ele>
        <time>2022-06-18T09:00:05Z</time>
      </trkpt>
      <trkpt lat="46.48613" lon="5.38779">
        <ele>362.8</ele>
        <time>2022-06-18T09:00:06Z</time>
      </trkpt>
      <trkpt lat="46.48619" lon="5.38773">
        <ele>362</ele>
        <time>2022-06-18T09:00:07Z</time>
      </trkpt>
      <trkpt lat="46.48624" lon="5.38766">
        <ele>361</ele>
        <time>2022-06-18T09:00:08Z</time>
      </trkpt>
      <trkpt lat="46.48628" lon="5.38756">
        <ele>360.6</ele>
        <time>2022-06-18T09:00:09Z</time>
      </trkpt>
      <trkpt lat="46.48633" lon="5.38746">
        <ele>360.2</ele>
        <time>2022-06-18T09:00:10Z</time>
      </trkpt>
      <trkpt lat="46.48641" lon="5.3872">
        <ele>358.8</ele>
        <time>2022-06-18T09:00:12Z</time>
      </trkpt>
      <trkpt lat="46.48644" lon="5.3869">
        <ele>357</ele>
        <time>2022-06-18T09:00:14Z</time>
      </trkpt>
      <trkpt lat="46.48643" lon="5.38674">
        <ele>356.4</ele>
        <time>2022-06-18T09:00:15Z</time>
      </trkpt>
      <trkpt lat="46.48641" lon="5.38659">
        <ele>355.6</ele>
        <time>2022-06-18T09:00:16Z</time>
      </trkpt>
      <trkpt lat="46.48634" lon="5.38629">
        <ele>354.4</ele>
        <time>2022-06-18T09:00:18Z</time>
      </trkpt>
      <trkpt lat="46.48622" lon="5.38583">
        <ele>352.4</ele>
        <time>2022-06-18T09:00:21Z</time>
      </trkpt>
      <trkpt lat="46.48618" lon="5.38568">
        <ele>351.2</ele>
        <time>2022-06-18T09:00:22Z</time>
      </trkpt>
      <trkpt lat="46.4861" lon="5.38539">
        <ele>349.8</ele>
        <time>2022-06-18T09:00:24Z</time>
      </trkpt>
      <trkpt lat="46.48606" lon="5.38524">
        <ele>349.4</ele>
        <time>2022-06-18T09:00:25Z</time>
      </trkpt>
      <trkpt lat="46.48602" lon="5.3851">
        <ele>348.4</ele>
        <time>2022-06-18T09:00:26Z</time>
      </trkpt>
      <trkpt lat="46.48597" lon="5.38496">
        <ele>348</ele>
        <time>2022-06-18T09:00:27Z</time>
      </trkpt>
    </trkseg>
  </trk>
</gpx>